<?xml version="1.0" encoding="UTF-8" standalone="no" ?>
<gpx xmlns="http://www.topografix.com/GPX/1/1" xmlns:xsi="http://www.w3.org/2001/XMLSchema-instance" xsi:schemaLocation="http://www.topografix.com/GPX/1/1 http://www.topografix.com/GPX/1/1/gpx.xsd" version="1.1" creator="VisuGPX - https://www.visugpx.com">
  <metadata>
    <name>40 Kms VTT 03 05 12</name>
    <desc><![CDATA[Essai parcours rando]]></desc>
  </metadata>
  <trk>
    <name><![CDATA[40 Kms VTT 03 05 12_1]]></name>
    <trkseg>
      <trkpt lat="47.02034" lon="-1.06262">
        <ele>111</ele>
        <time>2012-05-03T12:33:16Z</time>
      </trkpt>
      <trkpt lat="47.02062" lon="-1.06274">
        <ele>112</ele>
        <time>2012-05-03T12:33:29Z</time>
      </trkpt>
      <trkpt lat="47.02067" lon="-1.06274">
        <ele>112</ele>
        <time>2012-05-03T12:33:30Z</time>
      </trkpt>
      <trkpt lat="47.02072" lon="-1.06273">
        <ele>112</ele>
        <time>2012-05-03T12:33:31Z</time>
      </trkpt>
      <trkpt lat="47.02077" lon="-1.06273">
        <ele>112</ele>
        <time>2012-05-03T12:33:32Z</time>
      </trkpt>
      <trkpt lat="47.02081" lon="-1.06271">
        <ele>112</ele>
        <time>2012-05-03T12:33:33Z</time>
      </trkpt>
      <trkpt lat="47.02085" lon="-1.06268">
        <ele>112</ele>
        <time>2012-05-03T12:33:34Z</time>
      </trkpt>
      <trkpt lat="47.02087" lon="-1.06263">
        <ele>112</ele>
        <time>2012-05-03T12:33:35Z</time>
      </trkpt>
      <trkpt lat="47.02089" lon="-1.06257">
        <ele>112</ele>
        <time>2012-05-03T12:33:36Z</time>
      </trkpt>
      <trkpt lat="47.02088" lon="-1.06251">
        <ele>112</ele>
        <time>2012-05-03T12:33:37Z</time>
      </trkpt>
      <trkpt lat="47.02088" lon="-1.06245">
        <ele>112</ele>
        <time>2012-05-03T12:33:38Z</time>
      </trkpt>
      <trkpt lat="47.02088" lon="-1.06239">
        <ele>112</ele>
        <time>2012-05-03T12:33:39Z</time>
      </trkpt>
      <trkpt lat="47.02088" lon="-1.06233">
        <ele>112</ele>
        <time>2012-05-03T12:33:40Z</time>
      </trkpt>
      <trkpt lat="47.02087" lon="-1.06227">
        <ele>112</ele>
        <time>2012-05-03T12:33:41Z</time>
      </trkpt>
      <trkpt lat="47.02087" lon="-1.06221">
        <ele>112</ele>
        <time>2012-05-03T12:33:42Z</time>
      </trkpt>
      <trkpt lat="47.02087" lon="-1.06215">
        <ele>112</ele>
        <time>2012-05-03T12:33:43Z</time>
      </trkpt>
      <trkpt lat="47.02087" lon="-1.06208">
        <ele>112</ele>
        <time>2012-05-03T12:33:44Z</time>
      </trkpt>
      <trkpt lat="47.02087" lon="-1.06202">
        <ele>112</ele>
        <time>2012-05-03T12:33:45Z</time>
      </trkpt>
      <trkpt lat="47.02087" lon="-1.06196">
        <ele>112</ele>
        <time>2012-05-03T12:33:46Z</time>
      </trkpt>
      <trkpt lat="47.02087" lon="-1.0619">
        <ele>112</ele>
        <time>2012-05-03T12:33:47Z</time>
      </trkpt>
      <trkpt lat="47.02086" lon="-1.06184">
        <ele>112</ele>
        <time>2012-05-03T12:33:48Z</time>
      </trkpt>
      <trkpt lat="47.02086" lon="-1.06177">
        <ele>112</ele>
        <time>2012-05-03T12:33:49Z</time>
      </trkpt>
      <trkpt lat="47.02086" lon="-1.06172">
        <ele>112</ele>
        <time>2012-05-03T12:33:50Z</time>
      </trkpt>
      <trkpt lat="47.02086" lon="-1.06166">
        <ele>112</ele>
        <time>2012-05-03T12:33:51Z</time>
      </trkpt>
      <trkpt lat="47.02086" lon="-1.0616">
        <ele>112</ele>
        <time>2012-05-03T12:33:52Z</time>
      </trkpt>
      <trkpt lat="47.02085" lon="-1.06155">
        <ele>112</ele>
        <time>2012-05-03T12:33:53Z</time>
      </trkpt>
      <trkpt lat="47.02085" lon="-1.06149">
        <ele>112</ele>
        <time>2012-05-03T12:33:54Z</time>
      </trkpt>
      <trkpt lat="47.02086" lon="-1.06145">
        <ele>112</ele>
        <time>2012-05-03T12:33:55Z</time>
      </trkpt>
      <trkpt lat="47.02088" lon="-1.06141">
        <ele>112</ele>
        <time>2012-05-03T12:33:56Z</time>
      </trkpt>
      <trkpt lat="47.02091" lon="-1.06139">
        <ele>112</ele>
        <time>2012-05-03T12:33:57Z</time>
      </trkpt>
      <trkpt lat="47.02095" lon="-1.06137">
        <ele>112</ele>
        <time>2012-05-03T12:33:58Z</time>
      </trkpt>
      <trkpt lat="47.02099" lon="-1.06137">
        <ele>112</ele>
        <time>2012-05-03T12:33:59Z</time>
      </trkpt>
      <trkpt lat="47.02103" lon="-1.06137">
        <ele>112</ele>
        <time>2012-05-03T12:34:00Z</time>
      </trkpt>
      <trkpt lat="47.02108" lon="-1.06136">
        <ele>112</ele>
        <time>2012-05-03T12:34:01Z</time>
      </trkpt>
      <trkpt lat="47.02112" lon="-1.06136">
        <ele>112</ele>
        <time>2012-05-03T12:34:02Z</time>
      </trkpt>
      <trkpt lat="47.02117" lon="-1.06135">
        <ele>112</ele>
        <time>2012-05-03T12:34:03Z</time>
      </trkpt>
      <trkpt lat="47.02121" lon="-1.06134">
        <ele>112</ele>
        <time>2012-05-03T12:34:04Z</time>
      </trkpt>
      <trkpt lat="47.02126" lon="-1.06133">
        <ele>112</ele>
        <time>2012-05-03T12:34:05Z</time>
      </trkpt>
      <trkpt lat="47.0213" lon="-1.06131">
        <ele>112</ele>
        <time>2012-05-03T12:34:06Z</time>
      </trkpt>
      <trkpt lat="47.02134" lon="-1.06128">
        <ele>112</ele>
        <time>2012-05-03T12:34:07Z</time>
      </trkpt>
      <trkpt lat="47.02135" lon="-1.06125">
        <ele>112</ele>
        <time>2012-05-03T12:34:08Z</time>
      </trkpt>
      <trkpt lat="47.02135" lon="-1.06121">
        <ele>112</ele>
        <time>2012-05-03T12:34:09Z</time>
      </trkpt>
      <trkpt lat="47.02135" lon="-1.06117">
        <ele>112</ele>
        <time>2012-05-03T12:34:10Z</time>
      </trkpt>
      <trkpt lat="47.02137" lon="-1.06114">
        <ele>112</ele>
        <time>2012-05-03T12:34:11Z</time>
      </trkpt>
      <trkpt lat="47.02139" lon="-1.06111">
        <ele>112</ele>
        <time>2012-05-03T12:34:12Z</time>
      </trkpt>
      <trkpt lat="47.02141" lon="-1.06108">
        <ele>112</ele>
        <time>2012-05-03T12:34:13Z</time>
      </trkpt>
      <trkpt lat="47.02143" lon="-1.06104">
        <ele>112</ele>
        <time>2012-05-03T12:34:14Z</time>
      </trkpt>
      <trkpt lat="47.02145" lon="-1.061">
        <ele>112</ele>
        <time>2012-05-03T12:34:15Z</time>
      </trkpt>
      <trkpt lat="47.02145" lon="-1.06095">
        <ele>112</ele>
        <time>2012-05-03T12:34:16Z</time>
      </trkpt>
      <trkpt lat="47.02146" lon="-1.0609">
        <ele>111</ele>
        <time>2012-05-03T12:34:17Z</time>
      </trkpt>
      <trkpt lat="47.02147" lon="-1.06086">
        <ele>111</ele>
        <time>2012-05-03T12:34:18Z</time>
      </trkpt>
      <trkpt lat="47.02147" lon="-1.06081">
        <ele>111</ele>
        <time>2012-05-03T12:34:19Z</time>
      </trkpt>
      <trkpt lat="47.02148" lon="-1.06076">
        <ele>111</ele>
        <time>2012-05-03T12:34:20Z</time>
      </trkpt>
      <trkpt lat="47.02148" lon="-1.06071">
        <ele>111</ele>
        <time>2012-05-03T12:34:21Z</time>
      </trkpt>
      <trkpt lat="47.02149" lon="-1.06067">
        <ele>111</ele>
        <time>2012-05-03T12:34:22Z</time>
      </trkpt>
      <trkpt lat="47.0215" lon="-1.06062">
        <ele>111</ele>
        <time>2012-05-03T12:34:23Z</time>
      </trkpt>
      <trkpt lat="47.0215" lon="-1.06058">
        <ele>111</ele>
        <time>2012-05-03T12:34:24Z</time>
      </trkpt>
      <trkpt lat="47.0215" lon="-1.06053">
        <ele>111</ele>
        <time>2012-05-03T12:34:25Z</time>
      </trkpt>
      <trkpt lat="47.02151" lon="-1.0605">
        <ele>111</ele>
        <time>2012-05-03T12:34:26Z</time>
      </trkpt>
      <trkpt lat="47.02151" lon="-1.06045">
        <ele>111</ele>
        <time>2012-05-03T12:34:27Z</time>
      </trkpt>
      <trkpt lat="47.0215" lon="-1.06041">
        <ele>111</ele>
        <time>2012-05-03T12:34:28Z</time>
      </trkpt>
      <trkpt lat="47.02149" lon="-1.06036">
        <ele>111</ele>
        <time>2012-05-03T12:34:29Z</time>
      </trkpt>
      <trkpt lat="47.02149" lon="-1.06032">
        <ele>111</ele>
        <time>2012-05-03T12:34:30Z</time>
      </trkpt>
      <trkpt lat="47.02149" lon="-1.06028">
        <ele>111</ele>
        <time>2012-05-03T12:34:31Z</time>
      </trkpt>
      <trkpt lat="47.02149" lon="-1.06024">
        <ele>111</ele>
        <time>2012-05-03T12:34:32Z</time>
      </trkpt>
      <trkpt lat="47.0215" lon="-1.0602">
        <ele>111</ele>
        <time>2012-05-03T12:34:33Z</time>
      </trkpt>
      <trkpt lat="47.0215" lon="-1.06016">
        <ele>111</ele>
        <time>2012-05-03T12:34:34Z</time>
      </trkpt>
      <trkpt lat="47.02151" lon="-1.06013">
        <ele>111</ele>
        <time>2012-05-03T12:34:35Z</time>
      </trkpt>
      <trkpt lat="47.02153" lon="-1.06009">
        <ele>111</ele>
        <time>2012-05-03T12:34:36Z</time>
      </trkpt>
      <trkpt lat="47.02154" lon="-1.06006">
        <ele>111</ele>
        <time>2012-05-03T12:34:37Z</time>
      </trkpt>
      <trkpt lat="47.02155" lon="-1.06002">
        <ele>111</ele>
        <time>2012-05-03T12:34:38Z</time>
      </trkpt>
      <trkpt lat="47.02155" lon="-1.05998">
        <ele>111</ele>
        <time>2012-05-03T12:34:39Z</time>
      </trkpt>
      <trkpt lat="47.02156" lon="-1.05994">
        <ele>111</ele>
        <time>2012-05-03T12:34:40Z</time>
      </trkpt>
      <trkpt lat="47.02157" lon="-1.0599">
        <ele>111</ele>
        <time>2012-05-03T12:34:41Z</time>
      </trkpt>
      <trkpt lat="47.02157" lon="-1.05986">
        <ele>111</ele>
        <time>2012-05-03T12:34:42Z</time>
      </trkpt>
      <trkpt lat="47.02158" lon="-1.05982">
        <ele>111</ele>
        <time>2012-05-03T12:34:43Z</time>
      </trkpt>
      <trkpt lat="47.02158" lon="-1.05978">
        <ele>111</ele>
        <time>2012-05-03T12:34:44Z</time>
      </trkpt>
      <trkpt lat="47.02158" lon="-1.05974">
        <ele>111</ele>
        <time>2012-05-03T12:34:45Z</time>
      </trkpt>
      <trkpt lat="47.02159" lon="-1.0597">
        <ele>111</ele>
        <time>2012-05-03T12:34:46Z</time>
      </trkpt>
      <trkpt lat="47.02159" lon="-1.05965">
        <ele>111</ele>
        <time>2012-05-03T12:34:47Z</time>
      </trkpt>
      <trkpt lat="47.0216" lon="-1.05961">
        <ele>111</ele>
        <time>2012-05-03T12:34:48Z</time>
      </trkpt>
      <trkpt lat="47.0216" lon="-1.05957">
        <ele>111</ele>
        <time>2012-05-03T12:34:49Z</time>
      </trkpt>
      <trkpt lat="47.02161" lon="-1.05953">
        <ele>111</ele>
        <time>2012-05-03T12:34:50Z</time>
      </trkpt>
      <trkpt lat="47.02161" lon="-1.05948">
        <ele>111</ele>
        <time>2012-05-03T12:34:51Z</time>
      </trkpt>
      <trkpt lat="47.02161" lon="-1.05944">
        <ele>111</ele>
        <time>2012-05-03T12:34:52Z</time>
      </trkpt>
      <trkpt lat="47.02162" lon="-1.0594">
        <ele>111</ele>
        <time>2012-05-03T12:34:53Z</time>
      </trkpt>
      <trkpt lat="47.02163" lon="-1.05936">
        <ele>111</ele>
        <time>2012-05-03T12:34:54Z</time>
      </trkpt>
      <trkpt lat="47.02164" lon="-1.05932">
        <ele>111</ele>
        <time>2012-05-03T12:34:55Z</time>
      </trkpt>
      <trkpt lat="47.02164" lon="-1.05929">
        <ele>111</ele>
        <time>2012-05-03T12:34:56Z</time>
      </trkpt>
      <trkpt lat="47.02165" lon="-1.05925">
        <ele>111</ele>
        <time>2012-05-03T12:34:57Z</time>
      </trkpt>
      <trkpt lat="47.02166" lon="-1.05921">
        <ele>111</ele>
        <time>2012-05-03T12:34:58Z</time>
      </trkpt>
      <trkpt lat="47.02166" lon="-1.05918">
        <ele>111</ele>
        <time>2012-05-03T12:34:59Z</time>
      </trkpt>
      <trkpt lat="47.02167" lon="-1.05913">
        <ele>111</ele>
        <time>2012-05-03T12:35:00Z</time>
      </trkpt>
      <trkpt lat="47.02167" lon="-1.0591">
        <ele>111</ele>
        <time>2012-05-03T12:35:01Z</time>
      </trkpt>
      <trkpt lat="47.02168" lon="-1.05905">
        <ele>111</ele>
        <time>2012-05-03T12:35:02Z</time>
      </trkpt>
      <trkpt lat="47.02168" lon="-1.05902">
        <ele>111</ele>
        <time>2012-05-03T12:35:03Z</time>
      </trkpt>
      <trkpt lat="47.02169" lon="-1.05898">
        <ele>111</ele>
        <time>2012-05-03T12:35:04Z</time>
      </trkpt>
      <trkpt lat="47.02169" lon="-1.05894">
        <ele>111</ele>
        <time>2012-05-03T12:35:05Z</time>
      </trkpt>
      <trkpt lat="47.0217" lon="-1.0589">
        <ele>111</ele>
        <time>2012-05-03T12:35:06Z</time>
      </trkpt>
      <trkpt lat="47.0217" lon="-1.05886">
        <ele>111</ele>
        <time>2012-05-03T12:35:07Z</time>
      </trkpt>
      <trkpt lat="47.0217" lon="-1.05883">
        <ele>111</ele>
        <time>2012-05-03T12:35:08Z</time>
      </trkpt>
      <trkpt lat="47.02171" lon="-1.05879">
        <ele>111</ele>
        <time>2012-05-03T12:35:09Z</time>
      </trkpt>
      <trkpt lat="47.02171" lon="-1.05875">
        <ele>111</ele>
        <time>2012-05-03T12:35:10Z</time>
      </trkpt>
      <trkpt lat="47.02171" lon="-1.05872">
        <ele>111</ele>
        <time>2012-05-03T12:35:11Z</time>
      </trkpt>
      <trkpt lat="47.02172" lon="-1.05868">
        <ele>111</ele>
        <time>2012-05-03T12:35:12Z</time>
      </trkpt>
      <trkpt lat="47.02172" lon="-1.05865">
        <ele>111</ele>
        <time>2012-05-03T12:35:13Z</time>
      </trkpt>
      <trkpt lat="47.02173" lon="-1.05861">
        <ele>111</ele>
        <time>2012-05-03T12:35:14Z</time>
      </trkpt>
      <trkpt lat="47.02173" lon="-1.05858">
        <ele>111</ele>
        <time>2012-05-03T12:35:15Z</time>
      </trkpt>
      <trkpt lat="47.02174" lon="-1.05855">
        <ele>111</ele>
        <time>2012-05-03T12:35:16Z</time>
      </trkpt>
      <trkpt lat="47.02174" lon="-1.05851">
        <ele>111</ele>
        <time>2012-05-03T12:35:17Z</time>
      </trkpt>
      <trkpt lat="47.02174" lon="-1.05848">
        <ele>111</ele>
        <time>2012-05-03T12:35:18Z</time>
      </trkpt>
      <trkpt lat="47.02175" lon="-1.05845">
        <ele>111</ele>
        <time>2012-05-03T12:35:19Z</time>
      </trkpt>
      <trkpt lat="47.02174" lon="-1.05841">
        <ele>111</ele>
        <time>2012-05-03T12:35:20Z</time>
      </trkpt>
      <trkpt lat="47.02174" lon="-1.05838">
        <ele>111</ele>
        <time>2012-05-03T12:35:21Z</time>
      </trkpt>
      <trkpt lat="47.02173" lon="-1.05835">
        <ele>111</ele>
        <time>2012-05-03T12:35:22Z</time>
      </trkpt>
      <trkpt lat="47.02171" lon="-1.05834">
        <ele>111</ele>
        <time>2012-05-03T12:35:23Z</time>
      </trkpt>
      <trkpt lat="47.02168" lon="-1.05833">
        <ele>111</ele>
        <time>2012-05-03T12:35:24Z</time>
      </trkpt>
      <trkpt lat="47.02166" lon="-1.05832">
        <ele>111</ele>
        <time>2012-05-03T12:35:25Z</time>
      </trkpt>
      <trkpt lat="47.02163" lon="-1.05832">
        <ele>111</ele>
        <time>2012-05-03T12:35:26Z</time>
      </trkpt>
      <trkpt lat="47.0216" lon="-1.05831">
        <ele>111</ele>
        <time>2012-05-03T12:35:27Z</time>
      </trkpt>
      <trkpt lat="47.02157" lon="-1.05831">
        <ele>111</ele>
        <time>2012-05-03T12:35:28Z</time>
      </trkpt>
      <trkpt lat="47.02154" lon="-1.05831">
        <ele>111</ele>
        <time>2012-05-03T12:35:29Z</time>
      </trkpt>
      <trkpt lat="47.02151" lon="-1.0583">
        <ele>111</ele>
        <time>2012-05-03T12:35:30Z</time>
      </trkpt>
      <trkpt lat="47.02148" lon="-1.05829">
        <ele>111</ele>
        <time>2012-05-03T12:35:31Z</time>
      </trkpt>
      <trkpt lat="47.02145" lon="-1.05828">
        <ele>111</ele>
        <time>2012-05-03T12:35:32Z</time>
      </trkpt>
      <trkpt lat="47.02142" lon="-1.05828">
        <ele>111</ele>
        <time>2012-05-03T12:35:33Z</time>
      </trkpt>
      <trkpt lat="47.02138" lon="-1.05827">
        <ele>111</ele>
        <time>2012-05-03T12:35:34Z</time>
      </trkpt>
      <trkpt lat="47.02135" lon="-1.05827">
        <ele>111</ele>
        <time>2012-05-03T12:35:35Z</time>
      </trkpt>
      <trkpt lat="47.02131" lon="-1.05826">
        <ele>111</ele>
        <time>2012-05-03T12:35:36Z</time>
      </trkpt>
      <trkpt lat="47.02128" lon="-1.05826">
        <ele>111</ele>
        <time>2012-05-03T12:35:37Z</time>
      </trkpt>
      <trkpt lat="47.02124" lon="-1.05825">
        <ele>111</ele>
        <time>2012-05-03T12:35:38Z</time>
      </trkpt>
      <trkpt lat="47.0212" lon="-1.05825">
        <ele>111</ele>
        <time>2012-05-03T12:35:39Z</time>
      </trkpt>
      <trkpt lat="47.02116" lon="-1.05824">
        <ele>111</ele>
        <time>2012-05-03T12:35:40Z</time>
      </trkpt>
      <trkpt lat="47.02113" lon="-1.05823">
        <ele>112</ele>
        <time>2012-05-03T12:35:41Z</time>
      </trkpt>
      <trkpt lat="47.02109" lon="-1.05822">
        <ele>112</ele>
        <time>2012-05-03T12:35:42Z</time>
      </trkpt>
      <trkpt lat="47.02105" lon="-1.05821">
        <ele>112</ele>
        <time>2012-05-03T12:35:43Z</time>
      </trkpt>
      <trkpt lat="47.02101" lon="-1.0582">
        <ele>112</ele>
        <time>2012-05-03T12:35:44Z</time>
      </trkpt>
      <trkpt lat="47.02097" lon="-1.05819">
        <ele>113</ele>
        <time>2012-05-03T12:35:45Z</time>
      </trkpt>
      <trkpt lat="47.02094" lon="-1.05819">
        <ele>113</ele>
        <time>2012-05-03T12:35:46Z</time>
      </trkpt>
      <trkpt lat="47.0209" lon="-1.05818">
        <ele>113</ele>
        <time>2012-05-03T12:35:47Z</time>
      </trkpt>
      <trkpt lat="47.02087" lon="-1.05817">
        <ele>113</ele>
        <time>2012-05-03T12:35:48Z</time>
      </trkpt>
      <trkpt lat="47.02083" lon="-1.05817">
        <ele>113</ele>
        <time>2012-05-03T12:35:49Z</time>
      </trkpt>
      <trkpt lat="47.0208" lon="-1.05817">
        <ele>113</ele>
        <time>2012-05-03T12:35:50Z</time>
      </trkpt>
      <trkpt lat="47.02076" lon="-1.05817">
        <ele>113</ele>
        <time>2012-05-03T12:35:51Z</time>
      </trkpt>
      <trkpt lat="47.02072" lon="-1.05816">
        <ele>113</ele>
        <time>2012-05-03T12:35:52Z</time>
      </trkpt>
      <trkpt lat="47.02069" lon="-1.05815">
        <ele>113</ele>
        <time>2012-05-03T12:35:53Z</time>
      </trkpt>
      <trkpt lat="47.02065" lon="-1.05815">
        <ele>114</ele>
        <time>2012-05-03T12:35:54Z</time>
      </trkpt>
      <trkpt lat="47.02062" lon="-1.05814">
        <ele>114</ele>
        <time>2012-05-03T12:35:55Z</time>
      </trkpt>
      <trkpt lat="47.02059" lon="-1.05814">
        <ele>114</ele>
        <time>2012-05-03T12:35:56Z</time>
      </trkpt>
      <trkpt lat="47.02056" lon="-1.05813">
        <ele>114</ele>
        <time>2012-05-03T12:35:57Z</time>
      </trkpt>
      <trkpt lat="47.02053" lon="-1.05812">
        <ele>114</ele>
        <time>2012-05-03T12:35:58Z</time>
      </trkpt>
      <trkpt lat="47.0205" lon="-1.05812">
        <ele>115</ele>
        <time>2012-05-03T12:35:59Z</time>
      </trkpt>
      <trkpt lat="47.02047" lon="-1.05812">
        <ele>115</ele>
        <time>2012-05-03T12:36:00Z</time>
      </trkpt>
      <trkpt lat="47.02044" lon="-1.05812">
        <ele>115</ele>
        <time>2012-05-03T12:36:01Z</time>
      </trkpt>
      <trkpt lat="47.0204" lon="-1.05812">
        <ele>115</ele>
        <time>2012-05-03T12:36:02Z</time>
      </trkpt>
      <trkpt lat="47.02037" lon="-1.05812">
        <ele>116</ele>
        <time>2012-05-03T12:36:03Z</time>
      </trkpt>
      <trkpt lat="47.02033" lon="-1.05811">
        <ele>116</ele>
        <time>2012-05-03T12:36:04Z</time>
      </trkpt>
      <trkpt lat="47.0203" lon="-1.0581">
        <ele>116</ele>
        <time>2012-05-03T12:36:05Z</time>
      </trkpt>
      <trkpt lat="47.02026" lon="-1.0581">
        <ele>116</ele>
        <time>2012-05-03T12:36:06Z</time>
      </trkpt>
      <trkpt lat="47.02023" lon="-1.05809">
        <ele>116</ele>
        <time>2012-05-03T12:36:07Z</time>
      </trkpt>
      <trkpt lat="47.0202" lon="-1.05809">
        <ele>116</ele>
        <time>2012-05-03T12:36:08Z</time>
      </trkpt>
      <trkpt lat="47.02016" lon="-1.05809">
        <ele>116</ele>
        <time>2012-05-03T12:36:09Z</time>
      </trkpt>
      <trkpt lat="47.02013" lon="-1.05808">
        <ele>116</ele>
        <time>2012-05-03T12:36:10Z</time>
      </trkpt>
      <trkpt lat="47.0201" lon="-1.05808">
        <ele>116</ele>
        <time>2012-05-03T12:36:11Z</time>
      </trkpt>
      <trkpt lat="47.02006" lon="-1.0581">
        <ele>116</ele>
        <time>2012-05-03T12:36:12Z</time>
      </trkpt>
      <trkpt lat="47.02002" lon="-1.05814">
        <ele>116</ele>
        <time>2012-05-03T12:36:13Z</time>
      </trkpt>
      <trkpt lat="47.02" lon="-1.05818">
        <ele>116</ele>
        <time>2012-05-03T12:36:14Z</time>
      </trkpt>
      <trkpt lat="47.01997" lon="-1.05824">
        <ele>116</ele>
        <time>2012-05-03T12:36:15Z</time>
      </trkpt>
      <trkpt lat="47.01994" lon="-1.05829">
        <ele>116</ele>
        <time>2012-05-03T12:36:16Z</time>
      </trkpt>
      <trkpt lat="47.01991" lon="-1.05834">
        <ele>116</ele>
        <time>2012-05-03T12:36:17Z</time>
      </trkpt>
      <trkpt lat="47.01987" lon="-1.05839">
        <ele>117</ele>
        <time>2012-05-03T12:36:18Z</time>
      </trkpt>
      <trkpt lat="47.01984" lon="-1.05844">
        <ele>117</ele>
        <time>2012-05-03T12:36:19Z</time>
      </trkpt>
      <trkpt lat="47.0198" lon="-1.05849">
        <ele>117</ele>
        <time>2012-05-03T12:36:20Z</time>
      </trkpt>
      <trkpt lat="47.01977" lon="-1.05854">
        <ele>117</ele>
        <time>2012-05-03T12:36:21Z</time>
      </trkpt>
      <trkpt lat="47.01973" lon="-1.0586">
        <ele>118</ele>
        <time>2012-05-03T12:36:22Z</time>
      </trkpt>
      <trkpt lat="47.0197" lon="-1.05866">
        <ele>118</ele>
        <time>2012-05-03T12:36:23Z</time>
      </trkpt>
      <trkpt lat="47.01966" lon="-1.05871">
        <ele>118</ele>
        <time>2012-05-03T12:36:24Z</time>
      </trkpt>
      <trkpt lat="47.01962" lon="-1.05877">
        <ele>118</ele>
        <time>2012-05-03T12:36:25Z</time>
      </trkpt>
      <trkpt lat="47.01957" lon="-1.05882">
        <ele>118</ele>
        <time>2012-05-03T12:36:26Z</time>
      </trkpt>
      <trkpt lat="47.01952" lon="-1.05884">
        <ele>118</ele>
        <time>2012-05-03T12:36:27Z</time>
      </trkpt>
      <trkpt lat="47.01949" lon="-1.05883">
        <ele>118</ele>
        <time>2012-05-03T12:36:28Z</time>
      </trkpt>
      <trkpt lat="47.01946" lon="-1.05878">
        <ele>118</ele>
        <time>2012-05-03T12:36:29Z</time>
      </trkpt>
      <trkpt lat="47.01944" lon="-1.05871">
        <ele>118</ele>
        <time>2012-05-03T12:36:30Z</time>
      </trkpt>
      <trkpt lat="47.01941" lon="-1.05864">
        <ele>118</ele>
        <time>2012-05-03T12:36:31Z</time>
      </trkpt>
      <trkpt lat="47.01936" lon="-1.0586">
        <ele>118</ele>
        <time>2012-05-03T12:36:32Z</time>
      </trkpt>
      <trkpt lat="47.01931" lon="-1.05861">
        <ele>118</ele>
        <time>2012-05-03T12:36:33Z</time>
      </trkpt>
      <trkpt lat="47.01926" lon="-1.05864">
        <ele>118</ele>
        <time>2012-05-03T12:36:34Z</time>
      </trkpt>
      <trkpt lat="47.01922" lon="-1.05867">
        <ele>118</ele>
        <time>2012-05-03T12:36:35Z</time>
      </trkpt>
      <trkpt lat="47.01917" lon="-1.0587">
        <ele>118</ele>
        <time>2012-05-03T12:36:36Z</time>
      </trkpt>
      <trkpt lat="47.01911" lon="-1.05873">
        <ele>118</ele>
        <time>2012-05-03T12:36:37Z</time>
      </trkpt>
      <trkpt lat="47.01905" lon="-1.05875">
        <ele>118</ele>
        <time>2012-05-03T12:36:38Z</time>
      </trkpt>
      <trkpt lat="47.01899" lon="-1.05878">
        <ele>118</ele>
        <time>2012-05-03T12:36:39Z</time>
      </trkpt>
      <trkpt lat="47.01894" lon="-1.05881">
        <ele>118</ele>
        <time>2012-05-03T12:36:40Z</time>
      </trkpt>
      <trkpt lat="47.01887" lon="-1.05883">
        <ele>118</ele>
        <time>2012-05-03T12:36:41Z</time>
      </trkpt>
      <trkpt lat="47.01881" lon="-1.05886">
        <ele>118</ele>
        <time>2012-05-03T12:36:42Z</time>
      </trkpt>
      <trkpt lat="47.01874" lon="-1.05888">
        <ele>118</ele>
        <time>2012-05-03T12:36:43Z</time>
      </trkpt>
      <trkpt lat="47.01867" lon="-1.05891">
        <ele>118</ele>
        <time>2012-05-03T12:36:44Z</time>
      </trkpt>
      <trkpt lat="47.01861" lon="-1.05893">
        <ele>118</ele>
        <time>2012-05-03T12:36:45Z</time>
      </trkpt>
      <trkpt lat="47.01854" lon="-1.05896">
        <ele>118</ele>
        <time>2012-05-03T12:36:46Z</time>
      </trkpt>
      <trkpt lat="47.01847" lon="-1.05899">
        <ele>118</ele>
        <time>2012-05-03T12:36:47Z</time>
      </trkpt>
      <trkpt lat="47.01841" lon="-1.05901">
        <ele>118</ele>
        <time>2012-05-03T12:36:48Z</time>
      </trkpt>
      <trkpt lat="47.01834" lon="-1.05904">
        <ele>118</ele>
        <time>2012-05-03T12:36:49Z</time>
      </trkpt>
      <trkpt lat="47.01828" lon="-1.05908">
        <ele>118</ele>
        <time>2012-05-03T12:36:50Z</time>
      </trkpt>
      <trkpt lat="47.01822" lon="-1.05911">
        <ele>118</ele>
        <time>2012-05-03T12:36:51Z</time>
      </trkpt>
      <trkpt lat="47.01815" lon="-1.05917">
        <ele>118</ele>
        <time>2012-05-03T12:36:52Z</time>
      </trkpt>
      <trkpt lat="47.0181" lon="-1.05924">
        <ele>118</ele>
        <time>2012-05-03T12:36:53Z</time>
      </trkpt>
      <trkpt lat="47.01804" lon="-1.0593">
        <ele>117</ele>
        <time>2012-05-03T12:36:54Z</time>
      </trkpt>
      <trkpt lat="47.01798" lon="-1.05935">
        <ele>117</ele>
        <time>2012-05-03T12:36:55Z</time>
      </trkpt>
      <trkpt lat="47.01792" lon="-1.05939">
        <ele>116</ele>
        <time>2012-05-03T12:36:56Z</time>
      </trkpt>
      <trkpt lat="47.01785" lon="-1.05943">
        <ele>116</ele>
        <time>2012-05-03T12:36:57Z</time>
      </trkpt>
      <trkpt lat="47.01778" lon="-1.05946">
        <ele>116</ele>
        <time>2012-05-03T12:36:58Z</time>
      </trkpt>
      <trkpt lat="47.01772" lon="-1.05949">
        <ele>115</ele>
        <time>2012-05-03T12:36:59Z</time>
      </trkpt>
      <trkpt lat="47.01767" lon="-1.0595">
        <ele>115</ele>
        <time>2012-05-03T12:37:00Z</time>
      </trkpt>
      <trkpt lat="47.01763" lon="-1.05949">
        <ele>115</ele>
        <time>2012-05-03T12:37:01Z</time>
      </trkpt>
      <trkpt lat="47.0176" lon="-1.05945">
        <ele>114</ele>
        <time>2012-05-03T12:37:02Z</time>
      </trkpt>
      <trkpt lat="47.01758" lon="-1.05938">
        <ele>114</ele>
        <time>2012-05-03T12:37:03Z</time>
      </trkpt>
      <trkpt lat="47.01755" lon="-1.05931">
        <ele>114</ele>
        <time>2012-05-03T12:37:04Z</time>
      </trkpt>
      <trkpt lat="47.01753" lon="-1.05925">
        <ele>114</ele>
        <time>2012-05-03T12:37:05Z</time>
      </trkpt>
      <trkpt lat="47.0175" lon="-1.05918">
        <ele>113</ele>
        <time>2012-05-03T12:37:06Z</time>
      </trkpt>
      <trkpt lat="47.01748" lon="-1.05911">
        <ele>113</ele>
        <time>2012-05-03T12:37:07Z</time>
      </trkpt>
      <trkpt lat="47.01745" lon="-1.05903">
        <ele>113</ele>
        <time>2012-05-03T12:37:08Z</time>
      </trkpt>
      <trkpt lat="47.01741" lon="-1.05898">
        <ele>113</ele>
        <time>2012-05-03T12:37:09Z</time>
      </trkpt>
      <trkpt lat="47.01736" lon="-1.05897">
        <ele>113</ele>
        <time>2012-05-03T12:37:10Z</time>
      </trkpt>
      <trkpt lat="47.01731" lon="-1.05901">
        <ele>112</ele>
        <time>2012-05-03T12:37:11Z</time>
      </trkpt>
      <trkpt lat="47.01728" lon="-1.05908">
        <ele>112</ele>
        <time>2012-05-03T12:37:12Z</time>
      </trkpt>
      <trkpt lat="47.01725" lon="-1.05916">
        <ele>112</ele>
        <time>2012-05-03T12:37:13Z</time>
      </trkpt>
      <trkpt lat="47.01721" lon="-1.05924">
        <ele>112</ele>
        <time>2012-05-03T12:37:14Z</time>
      </trkpt>
      <trkpt lat="47.01718" lon="-1.05932">
        <ele>112</ele>
        <time>2012-05-03T12:37:15Z</time>
      </trkpt>
      <trkpt lat="47.01714" lon="-1.05939">
        <ele>112</ele>
        <time>2012-05-03T12:37:16Z</time>
      </trkpt>
      <trkpt lat="47.01711" lon="-1.05947">
        <ele>112</ele>
        <time>2012-05-03T12:37:17Z</time>
      </trkpt>
      <trkpt lat="47.01707" lon="-1.05955">
        <ele>111</ele>
        <time>2012-05-03T12:37:18Z</time>
      </trkpt>
      <trkpt lat="47.01703" lon="-1.05964">
        <ele>111</ele>
        <time>2012-05-03T12:37:19Z</time>
      </trkpt>
      <trkpt lat="47.01699" lon="-1.05972">
        <ele>111</ele>
        <time>2012-05-03T12:37:20Z</time>
      </trkpt>
      <trkpt lat="47.01695" lon="-1.0598">
        <ele>111</ele>
        <time>2012-05-03T12:37:21Z</time>
      </trkpt>
      <trkpt lat="47.01692" lon="-1.05989">
        <ele>111</ele>
        <time>2012-05-03T12:37:22Z</time>
      </trkpt>
      <trkpt lat="47.01689" lon="-1.05998">
        <ele>111</ele>
        <time>2012-05-03T12:37:23Z</time>
      </trkpt>
      <trkpt lat="47.01686" lon="-1.06008">
        <ele>111</ele>
        <time>2012-05-03T12:37:24Z</time>
      </trkpt>
      <trkpt lat="47.01685" lon="-1.06019">
        <ele>111</ele>
        <time>2012-05-03T12:37:25Z</time>
      </trkpt>
      <trkpt lat="47.01684" lon="-1.06029">
        <ele>110</ele>
        <time>2012-05-03T12:37:26Z</time>
      </trkpt>
      <trkpt lat="47.01684" lon="-1.06041">
        <ele>110</ele>
        <time>2012-05-03T12:37:27Z</time>
      </trkpt>
      <trkpt lat="47.01685" lon="-1.06052">
        <ele>110</ele>
        <time>2012-05-03T12:37:28Z</time>
      </trkpt>
      <trkpt lat="47.01686" lon="-1.06064">
        <ele>109</ele>
        <time>2012-05-03T12:37:29Z</time>
      </trkpt>
      <trkpt lat="47.01684" lon="-1.06075">
        <ele>109</ele>
        <time>2012-05-03T12:37:30Z</time>
      </trkpt>
      <trkpt lat="47.01681" lon="-1.06085">
        <ele>108</ele>
        <time>2012-05-03T12:37:31Z</time>
      </trkpt>
      <trkpt lat="47.01677" lon="-1.06093">
        <ele>108</ele>
        <time>2012-05-03T12:37:32Z</time>
      </trkpt>
      <trkpt lat="47.01672" lon="-1.061">
        <ele>108</ele>
        <time>2012-05-03T12:37:33Z</time>
      </trkpt>
      <trkpt lat="47.01667" lon="-1.06107">
        <ele>108</ele>
        <time>2012-05-03T12:37:34Z</time>
      </trkpt>
      <trkpt lat="47.01661" lon="-1.06112">
        <ele>108</ele>
        <time>2012-05-03T12:37:35Z</time>
      </trkpt>
      <trkpt lat="47.01656" lon="-1.06116">
        <ele>108</ele>
        <time>2012-05-03T12:37:36Z</time>
      </trkpt>
      <trkpt lat="47.01649" lon="-1.06117">
        <ele>108</ele>
        <time>2012-05-03T12:37:37Z</time>
      </trkpt>
      <trkpt lat="47.01644" lon="-1.06115">
        <ele>108</ele>
        <time>2012-05-03T12:37:38Z</time>
      </trkpt>
      <trkpt lat="47.0164" lon="-1.06111">
        <ele>108</ele>
        <time>2012-05-03T12:37:39Z</time>
      </trkpt>
      <trkpt lat="47.01637" lon="-1.06105">
        <ele>108</ele>
        <time>2012-05-03T12:37:40Z</time>
      </trkpt>
      <trkpt lat="47.01635" lon="-1.06098">
        <ele>108</ele>
        <time>2012-05-03T12:37:41Z</time>
      </trkpt>
      <trkpt lat="47.01632" lon="-1.06092">
        <ele>108</ele>
        <time>2012-05-03T12:37:42Z</time>
      </trkpt>
      <trkpt lat="47.0163" lon="-1.06086">
        <ele>108</ele>
        <time>2012-05-03T12:37:43Z</time>
      </trkpt>
      <trkpt lat="47.01627" lon="-1.0608">
        <ele>108</ele>
        <time>2012-05-03T12:37:44Z</time>
      </trkpt>
      <trkpt lat="47.01624" lon="-1.06075">
        <ele>108</ele>
        <time>2012-05-03T12:37:45Z</time>
      </trkpt>
      <trkpt lat="47.01621" lon="-1.06071">
        <ele>108</ele>
        <time>2012-05-03T12:37:46Z</time>
      </trkpt>
      <trkpt lat="47.01616" lon="-1.0607">
        <ele>108</ele>
        <time>2012-05-03T12:37:47Z</time>
      </trkpt>
      <trkpt lat="47.01611" lon="-1.0607">
        <ele>108</ele>
        <time>2012-05-03T12:37:48Z</time>
      </trkpt>
      <trkpt lat="47.01607" lon="-1.0607">
        <ele>108</ele>
        <time>2012-05-03T12:37:49Z</time>
      </trkpt>
      <trkpt lat="47.01602" lon="-1.06072">
        <ele>108</ele>
        <time>2012-05-03T12:37:50Z</time>
      </trkpt>
      <trkpt lat="47.01597" lon="-1.06076">
        <ele>108</ele>
        <time>2012-05-03T12:37:51Z</time>
      </trkpt>
      <trkpt lat="47.01593" lon="-1.0608">
        <ele>108</ele>
        <time>2012-05-03T12:37:52Z</time>
      </trkpt>
      <trkpt lat="47.01588" lon="-1.06085">
        <ele>108</ele>
        <time>2012-05-03T12:37:53Z</time>
      </trkpt>
      <trkpt lat="47.01584" lon="-1.06091">
        <ele>108</ele>
        <time>2012-05-03T12:37:54Z</time>
      </trkpt>
      <trkpt lat="47.0158" lon="-1.06097">
        <ele>108</ele>
        <time>2012-05-03T12:37:55Z</time>
      </trkpt>
      <trkpt lat="47.01576" lon="-1.06103">
        <ele>108</ele>
        <time>2012-05-03T12:37:56Z</time>
      </trkpt>
      <trkpt lat="47.01573" lon="-1.0611">
        <ele>108</ele>
        <time>2012-05-03T12:37:57Z</time>
      </trkpt>
      <trkpt lat="47.01571" lon="-1.06118">
        <ele>108</ele>
        <time>2012-05-03T12:37:58Z</time>
      </trkpt>
      <trkpt lat="47.01568" lon="-1.06126">
        <ele>108</ele>
        <time>2012-05-03T12:37:59Z</time>
      </trkpt>
      <trkpt lat="47.01566" lon="-1.06133">
        <ele>108</ele>
        <time>2012-05-03T12:38:00Z</time>
      </trkpt>
      <trkpt lat="47.01563" lon="-1.0614">
        <ele>108</ele>
        <time>2012-05-03T12:38:01Z</time>
      </trkpt>
      <trkpt lat="47.01559" lon="-1.06144">
        <ele>108</ele>
        <time>2012-05-03T12:38:02Z</time>
      </trkpt>
      <trkpt lat="47.01554" lon="-1.06148">
        <ele>108</ele>
        <time>2012-05-03T12:38:03Z</time>
      </trkpt>
      <trkpt lat="47.0155" lon="-1.0615">
        <ele>108</ele>
        <time>2012-05-03T12:38:04Z</time>
      </trkpt>
      <trkpt lat="47.01545" lon="-1.06152">
        <ele>108</ele>
        <time>2012-05-03T12:38:05Z</time>
      </trkpt>
      <trkpt lat="47.01539" lon="-1.06155">
        <ele>108</ele>
        <time>2012-05-03T12:38:06Z</time>
      </trkpt>
      <trkpt lat="47.01535" lon="-1.06158">
        <ele>108</ele>
        <time>2012-05-03T12:38:07Z</time>
      </trkpt>
      <trkpt lat="47.01529" lon="-1.0616">
        <ele>108</ele>
        <time>2012-05-03T12:38:08Z</time>
      </trkpt>
      <trkpt lat="47.01524" lon="-1.06163">
        <ele>108</ele>
        <time>2012-05-03T12:38:09Z</time>
      </trkpt>
      <trkpt lat="47.01518" lon="-1.06164">
        <ele>108</ele>
        <time>2012-05-03T12:38:10Z</time>
      </trkpt>
      <trkpt lat="47.01511" lon="-1.06166">
        <ele>108</ele>
        <time>2012-05-03T12:38:11Z</time>
      </trkpt>
      <trkpt lat="47.01505" lon="-1.06167">
        <ele>108</ele>
        <time>2012-05-03T12:38:12Z</time>
      </trkpt>
      <trkpt lat="47.01498" lon="-1.06168">
        <ele>108</ele>
        <time>2012-05-03T12:38:13Z</time>
      </trkpt>
      <trkpt lat="47.0149" lon="-1.06168">
        <ele>108</ele>
        <time>2012-05-03T12:38:14Z</time>
      </trkpt>
      <trkpt lat="47.01484" lon="-1.06169">
        <ele>108</ele>
        <time>2012-05-03T12:38:15Z</time>
      </trkpt>
      <trkpt lat="47.01476" lon="-1.0617">
        <ele>108</ele>
        <time>2012-05-03T12:38:16Z</time>
      </trkpt>
      <trkpt lat="47.01469" lon="-1.06172">
        <ele>108</ele>
        <time>2012-05-03T12:38:17Z</time>
      </trkpt>
      <trkpt lat="47.01461" lon="-1.06173">
        <ele>108</ele>
        <time>2012-05-03T12:38:18Z</time>
      </trkpt>
      <trkpt lat="47.01453" lon="-1.06176">
        <ele>108</ele>
        <time>2012-05-03T12:38:19Z</time>
      </trkpt>
      <trkpt lat="47.01446" lon="-1.0618">
        <ele>108</ele>
        <time>2012-05-03T12:38:20Z</time>
      </trkpt>
      <trkpt lat="47.01438" lon="-1.06185">
        <ele>108</ele>
        <time>2012-05-03T12:38:21Z</time>
      </trkpt>
      <trkpt lat="47.01429" lon="-1.0619">
        <ele>107</ele>
        <time>2012-05-03T12:38:22Z</time>
      </trkpt>
      <trkpt lat="47.01421" lon="-1.06194">
        <ele>106</ele>
        <time>2012-05-03T12:38:23Z</time>
      </trkpt>
      <trkpt lat="47.01413" lon="-1.062">
        <ele>106</ele>
        <time>2012-05-03T12:38:24Z</time>
      </trkpt>
      <trkpt lat="47.01405" lon="-1.06206">
        <ele>105</ele>
        <time>2012-05-03T12:38:25Z</time>
      </trkpt>
      <trkpt lat="47.01396" lon="-1.06213">
        <ele>104</ele>
        <time>2012-05-03T12:38:26Z</time>
      </trkpt>
      <trkpt lat="47.01388" lon="-1.06221">
        <ele>103</ele>
        <time>2012-05-03T12:38:27Z</time>
      </trkpt>
      <trkpt lat="47.01379" lon="-1.0623">
        <ele>103</ele>
        <time>2012-05-03T12:38:28Z</time>
      </trkpt>
      <trkpt lat="47.01371" lon="-1.06239">
        <ele>102</ele>
        <time>2012-05-03T12:38:29Z</time>
      </trkpt>
      <trkpt lat="47.01364" lon="-1.0625">
        <ele>101</ele>
        <time>2012-05-03T12:38:30Z</time>
      </trkpt>
      <trkpt lat="47.01356" lon="-1.06261">
        <ele>100</ele>
        <time>2012-05-03T12:38:31Z</time>
      </trkpt>
      <trkpt lat="47.01349" lon="-1.06272">
        <ele>99</ele>
        <time>2012-05-03T12:38:32Z</time>
      </trkpt>
      <trkpt lat="47.0134" lon="-1.06284">
        <ele>98</ele>
        <time>2012-05-03T12:38:33Z</time>
      </trkpt>
      <trkpt lat="47.01332" lon="-1.06297">
        <ele>97</ele>
        <time>2012-05-03T12:38:34Z</time>
      </trkpt>
      <trkpt lat="47.01324" lon="-1.06308">
        <ele>97</ele>
        <time>2012-05-03T12:38:35Z</time>
      </trkpt>
      <trkpt lat="47.01316" lon="-1.06319">
        <ele>96</ele>
        <time>2012-05-03T12:38:36Z</time>
      </trkpt>
      <trkpt lat="47.01307" lon="-1.06331">
        <ele>95</ele>
        <time>2012-05-03T12:38:37Z</time>
      </trkpt>
      <trkpt lat="47.01298" lon="-1.06341">
        <ele>95</ele>
        <time>2012-05-03T12:38:38Z</time>
      </trkpt>
      <trkpt lat="47.0129" lon="-1.0635">
        <ele>94</ele>
        <time>2012-05-03T12:38:39Z</time>
      </trkpt>
      <trkpt lat="47.01282" lon="-1.06357">
        <ele>93</ele>
        <time>2012-05-03T12:38:40Z</time>
      </trkpt>
      <trkpt lat="47.01275" lon="-1.06361">
        <ele>92</ele>
        <time>2012-05-03T12:38:41Z</time>
      </trkpt>
      <trkpt lat="47.01268" lon="-1.06365">
        <ele>91</ele>
        <time>2012-05-03T12:38:42Z</time>
      </trkpt>
      <trkpt lat="47.0126" lon="-1.06367">
        <ele>90</ele>
        <time>2012-05-03T12:38:43Z</time>
      </trkpt>
      <trkpt lat="47.01255" lon="-1.0637">
        <ele>89</ele>
        <time>2012-05-03T12:38:44Z</time>
      </trkpt>
      <trkpt lat="47.01249" lon="-1.06375">
        <ele>88</ele>
        <time>2012-05-03T12:38:45Z</time>
      </trkpt>
      <trkpt lat="47.01245" lon="-1.0638">
        <ele>87</ele>
        <time>2012-05-03T12:38:46Z</time>
      </trkpt>
      <trkpt lat="47.01242" lon="-1.06386">
        <ele>86</ele>
        <time>2012-05-03T12:38:47Z</time>
      </trkpt>
      <trkpt lat="47.01241" lon="-1.06393">
        <ele>85</ele>
        <time>2012-05-03T12:38:48Z</time>
      </trkpt>
      <trkpt lat="47.01242" lon="-1.06397">
        <ele>84</ele>
        <time>2012-05-03T12:38:49Z</time>
      </trkpt>
      <trkpt lat="47.01244" lon="-1.06401">
        <ele>83</ele>
        <time>2012-05-03T12:38:50Z</time>
      </trkpt>
      <trkpt lat="47.01247" lon="-1.06404">
        <ele>82</ele>
        <time>2012-05-03T12:38:51Z</time>
      </trkpt>
      <trkpt lat="47.01251" lon="-1.06407">
        <ele>81</ele>
        <time>2012-05-03T12:38:52Z</time>
      </trkpt>
      <trkpt lat="47.01255" lon="-1.06411">
        <ele>81</ele>
        <time>2012-05-03T12:38:53Z</time>
      </trkpt>
      <trkpt lat="47.01257" lon="-1.06414">
        <ele>81</ele>
        <time>2012-05-03T12:38:54Z</time>
      </trkpt>
      <trkpt lat="47.0126" lon="-1.06417">
        <ele>81</ele>
        <time>2012-05-03T12:38:55Z</time>
      </trkpt>
      <trkpt lat="47.01263" lon="-1.06421">
        <ele>81</ele>
        <time>2012-05-03T12:38:56Z</time>
      </trkpt>
      <trkpt lat="47.01266" lon="-1.06426">
        <ele>81</ele>
        <time>2012-05-03T12:38:57Z</time>
      </trkpt>
      <trkpt lat="47.0127" lon="-1.06431">
        <ele>81</ele>
        <time>2012-05-03T12:38:58Z</time>
      </trkpt>
      <trkpt lat="47.01273" lon="-1.06436">
        <ele>81</ele>
        <time>2012-05-03T12:38:59Z</time>
      </trkpt>
      <trkpt lat="47.01276" lon="-1.06441">
        <ele>81</ele>
        <time>2012-05-03T12:39:00Z</time>
      </trkpt>
      <trkpt lat="47.01279" lon="-1.06446">
        <ele>81</ele>
        <time>2012-05-03T12:39:01Z</time>
      </trkpt>
      <trkpt lat="47.01283" lon="-1.0645">
        <ele>81</ele>
        <time>2012-05-03T12:39:02Z</time>
      </trkpt>
      <trkpt lat="47.01286" lon="-1.06455">
        <ele>81</ele>
        <time>2012-05-03T12:39:03Z</time>
      </trkpt>
      <trkpt lat="47.01289" lon="-1.0646">
        <ele>81</ele>
        <time>2012-05-03T12:39:04Z</time>
      </trkpt>
      <trkpt lat="47.01292" lon="-1.06465">
        <ele>81</ele>
        <time>2012-05-03T12:39:05Z</time>
      </trkpt>
      <trkpt lat="47.01295" lon="-1.0647">
        <ele>81</ele>
        <time>2012-05-03T12:39:06Z</time>
      </trkpt>
      <trkpt lat="47.01299" lon="-1.06475">
        <ele>81</ele>
        <time>2012-05-03T12:39:07Z</time>
      </trkpt>
      <trkpt lat="47.01304" lon="-1.06481">
        <ele>81</ele>
        <time>2012-05-03T12:39:08Z</time>
      </trkpt>
      <trkpt lat="47.01309" lon="-1.06487">
        <ele>81</ele>
        <time>2012-05-03T12:39:09Z</time>
      </trkpt>
      <trkpt lat="47.01314" lon="-1.06492">
        <ele>81</ele>
        <time>2012-05-03T12:39:10Z</time>
      </trkpt>
      <trkpt lat="47.01318" lon="-1.06498">
        <ele>81</ele>
        <time>2012-05-03T12:39:11Z</time>
      </trkpt>
      <trkpt lat="47.01322" lon="-1.06505">
        <ele>81</ele>
        <time>2012-05-03T12:39:12Z</time>
      </trkpt>
      <trkpt lat="47.01326" lon="-1.06514">
        <ele>81</ele>
        <time>2012-05-03T12:39:13Z</time>
      </trkpt>
      <trkpt lat="47.01328" lon="-1.06524">
        <ele>81</ele>
        <time>2012-05-03T12:39:14Z</time>
      </trkpt>
      <trkpt lat="47.01329" lon="-1.06534">
        <ele>80</ele>
        <time>2012-05-03T12:39:15Z</time>
      </trkpt>
      <trkpt lat="47.0133" lon="-1.06544">
        <ele>79</ele>
        <time>2012-05-03T12:39:16Z</time>
      </trkpt>
      <trkpt lat="47.01331" lon="-1.06552">
        <ele>78</ele>
        <time>2012-05-03T12:39:17Z</time>
      </trkpt>
      <trkpt lat="47.01334" lon="-1.06559">
        <ele>78</ele>
        <time>2012-05-03T12:39:18Z</time>
      </trkpt>
      <trkpt lat="47.01338" lon="-1.06562">
        <ele>78</ele>
        <time>2012-05-03T12:39:19Z</time>
      </trkpt>
      <trkpt lat="47.01342" lon="-1.06564">
        <ele>77</ele>
        <time>2012-05-03T12:39:20Z</time>
      </trkpt>
      <trkpt lat="47.01346" lon="-1.06564">
        <ele>77</ele>
        <time>2012-05-03T12:39:21Z</time>
      </trkpt>
      <trkpt lat="47.01351" lon="-1.06563">
        <ele>77</ele>
        <time>2012-05-03T12:39:22Z</time>
      </trkpt>
      <trkpt lat="47.01357" lon="-1.06562">
        <ele>77</ele>
        <time>2012-05-03T12:39:23Z</time>
      </trkpt>
      <trkpt lat="47.01362" lon="-1.06561">
        <ele>77</ele>
        <time>2012-05-03T12:39:24Z</time>
      </trkpt>
      <trkpt lat="47.01367" lon="-1.06561">
        <ele>77</ele>
        <time>2012-05-03T12:39:25Z</time>
      </trkpt>
      <trkpt lat="47.01373" lon="-1.06561">
        <ele>76</ele>
        <time>2012-05-03T12:39:26Z</time>
      </trkpt>
      <trkpt lat="47.01379" lon="-1.06561">
        <ele>76</ele>
        <time>2012-05-03T12:39:27Z</time>
      </trkpt>
      <trkpt lat="47.01384" lon="-1.06562">
        <ele>75</ele>
        <time>2012-05-03T12:39:28Z</time>
      </trkpt>
      <trkpt lat="47.01389" lon="-1.06562">
        <ele>75</ele>
        <time>2012-05-03T12:39:29Z</time>
      </trkpt>
      <trkpt lat="47.01393" lon="-1.06564">
        <ele>74</ele>
        <time>2012-05-03T12:39:30Z</time>
      </trkpt>
      <trkpt lat="47.01396" lon="-1.06565">
        <ele>73</ele>
        <time>2012-05-03T12:39:31Z</time>
      </trkpt>
      <trkpt lat="47.01397" lon="-1.06566">
        <ele>73</ele>
        <time>2012-05-03T12:39:32Z</time>
      </trkpt>
      <trkpt lat="47.01398" lon="-1.06567">
        <ele>73</ele>
        <time>2012-05-03T12:39:36Z</time>
      </trkpt>
      <trkpt lat="47.014" lon="-1.06568">
        <ele>73</ele>
        <time>2012-05-03T12:39:40Z</time>
      </trkpt>
      <trkpt lat="47.014" lon="-1.0657">
        <ele>73</ele>
        <time>2012-05-03T12:39:43Z</time>
      </trkpt>
      <trkpt lat="47.01402" lon="-1.06571">
        <ele>73</ele>
        <time>2012-05-03T12:39:47Z</time>
      </trkpt>
      <trkpt lat="47.01402" lon="-1.06574">
        <ele>73</ele>
        <time>2012-05-03T12:39:49Z</time>
      </trkpt>
      <trkpt lat="47.01401" lon="-1.06575">
        <ele>73</ele>
        <time>2012-05-03T12:39:50Z</time>
      </trkpt>
      <trkpt lat="47.01398" lon="-1.06576">
        <ele>73</ele>
        <time>2012-05-03T12:39:51Z</time>
      </trkpt>
      <trkpt lat="47.01394" lon="-1.06577">
        <ele>72</ele>
        <time>2012-05-03T12:39:52Z</time>
      </trkpt>
      <trkpt lat="47.0139" lon="-1.06578">
        <ele>72</ele>
        <time>2012-05-03T12:39:53Z</time>
      </trkpt>
      <trkpt lat="47.01385" lon="-1.06577">
        <ele>71</ele>
        <time>2012-05-03T12:39:54Z</time>
      </trkpt>
      <trkpt lat="47.01381" lon="-1.06577">
        <ele>71</ele>
        <time>2012-05-03T12:39:55Z</time>
      </trkpt>
      <trkpt lat="47.01375" lon="-1.06578">
        <ele>70</ele>
        <time>2012-05-03T12:39:56Z</time>
      </trkpt>
      <trkpt lat="47.0137" lon="-1.06581">
        <ele>70</ele>
        <time>2012-05-03T12:39:57Z</time>
      </trkpt>
      <trkpt lat="47.01366" lon="-1.06587">
        <ele>69</ele>
        <time>2012-05-03T12:39:58Z</time>
      </trkpt>
      <trkpt lat="47.01365" lon="-1.06596">
        <ele>69</ele>
        <time>2012-05-03T12:39:59Z</time>
      </trkpt>
      <trkpt lat="47.01362" lon="-1.06604">
        <ele>69</ele>
        <time>2012-05-03T12:40:00Z</time>
      </trkpt>
      <trkpt lat="47.01358" lon="-1.06611">
        <ele>69</ele>
        <time>2012-05-03T12:40:01Z</time>
      </trkpt>
      <trkpt lat="47.01354" lon="-1.06618">
        <ele>68</ele>
        <time>2012-05-03T12:40:02Z</time>
      </trkpt>
      <trkpt lat="47.0135" lon="-1.06626">
        <ele>67</ele>
        <time>2012-05-03T12:40:03Z</time>
      </trkpt>
      <trkpt lat="47.01346" lon="-1.06635">
        <ele>67</ele>
        <time>2012-05-03T12:40:04Z</time>
      </trkpt>
      <trkpt lat="47.01345" lon="-1.06645">
        <ele>66</ele>
        <time>2012-05-03T12:40:05Z</time>
      </trkpt>
      <trkpt lat="47.01347" lon="-1.06656">
        <ele>66</ele>
        <time>2012-05-03T12:40:06Z</time>
      </trkpt>
      <trkpt lat="47.01347" lon="-1.06667">
        <ele>66</ele>
        <time>2012-05-03T12:40:07Z</time>
      </trkpt>
      <trkpt lat="47.01345" lon="-1.06677">
        <ele>66</ele>
        <time>2012-05-03T12:40:08Z</time>
      </trkpt>
      <trkpt lat="47.01344" lon="-1.06685">
        <ele>66</ele>
        <time>2012-05-03T12:40:09Z</time>
      </trkpt>
      <trkpt lat="47.01341" lon="-1.06694">
        <ele>66</ele>
        <time>2012-05-03T12:40:10Z</time>
      </trkpt>
      <trkpt lat="47.01339" lon="-1.06704">
        <ele>66</ele>
        <time>2012-05-03T12:40:11Z</time>
      </trkpt>
      <trkpt lat="47.01337" lon="-1.06716">
        <ele>66</ele>
        <time>2012-05-03T12:40:12Z</time>
      </trkpt>
      <trkpt lat="47.01334" lon="-1.06726">
        <ele>66</ele>
        <time>2012-05-03T12:40:13Z</time>
      </trkpt>
      <trkpt lat="47.01331" lon="-1.06738">
        <ele>66</ele>
        <time>2012-05-03T12:40:14Z</time>
      </trkpt>
      <trkpt lat="47.01329" lon="-1.06753">
        <ele>66</ele>
        <time>2012-05-03T12:40:15Z</time>
      </trkpt>
      <trkpt lat="47.01325" lon="-1.06767">
        <ele>66</ele>
        <time>2012-05-03T12:40:16Z</time>
      </trkpt>
      <trkpt lat="47.01323" lon="-1.06783">
        <ele>66</ele>
        <time>2012-05-03T12:40:17Z</time>
      </trkpt>
      <trkpt lat="47.01321" lon="-1.06799">
        <ele>66</ele>
        <time>2012-05-03T12:40:18Z</time>
      </trkpt>
      <trkpt lat="47.01319" lon="-1.06815">
        <ele>66</ele>
        <time>2012-05-03T12:40:19Z</time>
      </trkpt>
      <trkpt lat="47.01317" lon="-1.06831">
        <ele>66</ele>
        <time>2012-05-03T12:40:20Z</time>
      </trkpt>
      <trkpt lat="47.01314" lon="-1.06846">
        <ele>65</ele>
        <time>2012-05-03T12:40:21Z</time>
      </trkpt>
      <trkpt lat="47.01309" lon="-1.06859">
        <ele>64</ele>
        <time>2012-05-03T12:40:22Z</time>
      </trkpt>
      <trkpt lat="47.01306" lon="-1.06873">
        <ele>63</ele>
        <time>2012-05-03T12:40:23Z</time>
      </trkpt>
      <trkpt lat="47.01302" lon="-1.06886">
        <ele>63</ele>
        <time>2012-05-03T12:40:24Z</time>
      </trkpt>
      <trkpt lat="47.01298" lon="-1.06898">
        <ele>62</ele>
        <time>2012-05-03T12:40:25Z</time>
      </trkpt>
      <trkpt lat="47.01294" lon="-1.0691">
        <ele>61</ele>
        <time>2012-05-03T12:40:26Z</time>
      </trkpt>
      <trkpt lat="47.01289" lon="-1.06923">
        <ele>60</ele>
        <time>2012-05-03T12:40:27Z</time>
      </trkpt>
      <trkpt lat="47.01284" lon="-1.06934">
        <ele>59</ele>
        <time>2012-05-03T12:40:28Z</time>
      </trkpt>
      <trkpt lat="47.0128" lon="-1.06945">
        <ele>58</ele>
        <time>2012-05-03T12:40:29Z</time>
      </trkpt>
      <trkpt lat="47.01276" lon="-1.06956">
        <ele>57</ele>
        <time>2012-05-03T12:40:30Z</time>
      </trkpt>
      <trkpt lat="47.01271" lon="-1.06966">
        <ele>57</ele>
        <time>2012-05-03T12:40:31Z</time>
      </trkpt>
      <trkpt lat="47.01266" lon="-1.06977">
        <ele>56</ele>
        <time>2012-05-03T12:40:32Z</time>
      </trkpt>
      <trkpt lat="47.01262" lon="-1.06988">
        <ele>56</ele>
        <time>2012-05-03T12:40:33Z</time>
      </trkpt>
      <trkpt lat="47.01257" lon="-1.06998">
        <ele>55</ele>
        <time>2012-05-03T12:40:34Z</time>
      </trkpt>
      <trkpt lat="47.01252" lon="-1.07007">
        <ele>55</ele>
        <time>2012-05-03T12:40:35Z</time>
      </trkpt>
      <trkpt lat="47.01246" lon="-1.07016">
        <ele>55</ele>
        <time>2012-05-03T12:40:36Z</time>
      </trkpt>
      <trkpt lat="47.01241" lon="-1.07026">
        <ele>54</ele>
        <time>2012-05-03T12:40:37Z</time>
      </trkpt>
      <trkpt lat="47.01234" lon="-1.07034">
        <ele>54</ele>
        <time>2012-05-03T12:40:38Z</time>
      </trkpt>
      <trkpt lat="47.01228" lon="-1.07042">
        <ele>54</ele>
        <time>2012-05-03T12:40:39Z</time>
      </trkpt>
      <trkpt lat="47.01221" lon="-1.07047">
        <ele>54</ele>
        <time>2012-05-03T12:40:40Z</time>
      </trkpt>
      <trkpt lat="47.01214" lon="-1.07053">
        <ele>54</ele>
        <time>2012-05-03T12:40:41Z</time>
      </trkpt>
      <trkpt lat="47.01208" lon="-1.0706">
        <ele>54</ele>
        <time>2012-05-03T12:40:42Z</time>
      </trkpt>
      <trkpt lat="47.01201" lon="-1.07067">
        <ele>54</ele>
        <time>2012-05-03T12:40:43Z</time>
      </trkpt>
      <trkpt lat="47.01195" lon="-1.07075">
        <ele>54</ele>
        <time>2012-05-03T12:40:44Z</time>
      </trkpt>
      <trkpt lat="47.01189" lon="-1.07083">
        <ele>54</ele>
        <time>2012-05-03T12:40:45Z</time>
      </trkpt>
      <trkpt lat="47.01184" lon="-1.07092">
        <ele>54</ele>
        <time>2012-05-03T12:40:46Z</time>
      </trkpt>
      <trkpt lat="47.01179" lon="-1.07102">
        <ele>54</ele>
        <time>2012-05-03T12:40:47Z</time>
      </trkpt>
      <trkpt lat="47.01174" lon="-1.0711">
        <ele>54</ele>
        <time>2012-05-03T12:40:48Z</time>
      </trkpt>
      <trkpt lat="47.0117" lon="-1.0712">
        <ele>54</ele>
        <time>2012-05-03T12:40:49Z</time>
      </trkpt>
      <trkpt lat="47.01165" lon="-1.07128">
        <ele>54</ele>
        <time>2012-05-03T12:40:50Z</time>
      </trkpt>
      <trkpt lat="47.0116" lon="-1.07137">
        <ele>54</ele>
        <time>2012-05-03T12:40:51Z</time>
      </trkpt>
      <trkpt lat="47.01156" lon="-1.07146">
        <ele>54</ele>
        <time>2012-05-03T12:40:52Z</time>
      </trkpt>
      <trkpt lat="47.01152" lon="-1.07155">
        <ele>54</ele>
        <time>2012-05-03T12:40:53Z</time>
      </trkpt>
      <trkpt lat="47.01147" lon="-1.07163">
        <ele>54</ele>
        <time>2012-05-03T12:40:54Z</time>
      </trkpt>
      <trkpt lat="47.01143" lon="-1.07172">
        <ele>54</ele>
        <time>2012-05-03T12:40:55Z</time>
      </trkpt>
      <trkpt lat="47.01139" lon="-1.0718">
        <ele>54</ele>
        <time>2012-05-03T12:40:56Z</time>
      </trkpt>
      <trkpt lat="47.01135" lon="-1.07188">
        <ele>54</ele>
        <time>2012-05-03T12:40:57Z</time>
      </trkpt>
      <trkpt lat="47.01131" lon="-1.07195">
        <ele>54</ele>
        <time>2012-05-03T12:40:58Z</time>
      </trkpt>
      <trkpt lat="47.01128" lon="-1.07203">
        <ele>54</ele>
        <time>2012-05-03T12:40:59Z</time>
      </trkpt>
      <trkpt lat="47.01125" lon="-1.07211">
        <ele>54</ele>
        <time>2012-05-03T12:41:00Z</time>
      </trkpt>
      <trkpt lat="47.01122" lon="-1.07218">
        <ele>54</ele>
        <time>2012-05-03T12:41:01Z</time>
      </trkpt>
      <trkpt lat="47.01118" lon="-1.07226">
        <ele>54</ele>
        <time>2012-05-03T12:41:02Z</time>
      </trkpt>
      <trkpt lat="47.01114" lon="-1.07232">
        <ele>54</ele>
        <time>2012-05-03T12:41:03Z</time>
      </trkpt>
      <trkpt lat="47.0111" lon="-1.07239">
        <ele>54</ele>
        <time>2012-05-03T12:41:04Z</time>
      </trkpt>
      <trkpt lat="47.01106" lon="-1.07246">
        <ele>54</ele>
        <time>2012-05-03T12:41:05Z</time>
      </trkpt>
      <trkpt lat="47.01102" lon="-1.07253">
        <ele>54</ele>
        <time>2012-05-03T12:41:06Z</time>
      </trkpt>
      <trkpt lat="47.01098" lon="-1.07259">
        <ele>54</ele>
        <time>2012-05-03T12:41:07Z</time>
      </trkpt>
      <trkpt lat="47.01095" lon="-1.07266">
        <ele>54</ele>
        <time>2012-05-03T12:41:08Z</time>
      </trkpt>
      <trkpt lat="47.01093" lon="-1.07274">
        <ele>54</ele>
        <time>2012-05-03T12:41:09Z</time>
      </trkpt>
      <trkpt lat="47.01092" lon="-1.07283">
        <ele>54</ele>
        <time>2012-05-03T12:41:10Z</time>
      </trkpt>
      <trkpt lat="47.01092" lon="-1.07291">
        <ele>54</ele>
        <time>2012-05-03T12:41:11Z</time>
      </trkpt>
      <trkpt lat="47.01094" lon="-1.07299">
        <ele>54</ele>
        <time>2012-05-03T12:41:12Z</time>
      </trkpt>
      <trkpt lat="47.01095" lon="-1.07307">
        <ele>54</ele>
        <time>2012-05-03T12:41:13Z</time>
      </trkpt>
      <trkpt lat="47.01097" lon="-1.07315">
        <ele>54</ele>
        <time>2012-05-03T12:41:14Z</time>
      </trkpt>
      <trkpt lat="47.01099" lon="-1.07322">
        <ele>54</ele>
        <time>2012-05-03T12:41:15Z</time>
      </trkpt>
      <trkpt lat="47.01101" lon="-1.07329">
        <ele>54</ele>
        <time>2012-05-03T12:41:16Z</time>
      </trkpt>
      <trkpt lat="47.01102" lon="-1.07336">
        <ele>54</ele>
        <time>2012-05-03T12:41:17Z</time>
      </trkpt>
      <trkpt lat="47.01104" lon="-1.07343">
        <ele>54</ele>
        <time>2012-05-03T12:41:18Z</time>
      </trkpt>
      <trkpt lat="47.01105" lon="-1.0735">
        <ele>54</ele>
        <time>2012-05-03T12:41:19Z</time>
      </trkpt>
      <trkpt lat="47.01107" lon="-1.07356">
        <ele>54</ele>
        <time>2012-05-03T12:41:20Z</time>
      </trkpt>
      <trkpt lat="47.01109" lon="-1.07362">
        <ele>54</ele>
        <time>2012-05-03T12:41:21Z</time>
      </trkpt>
      <trkpt lat="47.0111" lon="-1.07367">
        <ele>54</ele>
        <time>2012-05-03T12:41:22Z</time>
      </trkpt>
      <trkpt lat="47.01111" lon="-1.07373">
        <ele>54</ele>
        <time>2012-05-03T12:41:23Z</time>
      </trkpt>
      <trkpt lat="47.01112" lon="-1.07378">
        <ele>54</ele>
        <time>2012-05-03T12:41:24Z</time>
      </trkpt>
      <trkpt lat="47.01113" lon="-1.07383">
        <ele>54</ele>
        <time>2012-05-03T12:41:25Z</time>
      </trkpt>
      <trkpt lat="47.01114" lon="-1.07388">
        <ele>54</ele>
        <time>2012-05-03T12:41:26Z</time>
      </trkpt>
      <trkpt lat="47.01115" lon="-1.07393">
        <ele>54</ele>
        <time>2012-05-03T12:41:27Z</time>
      </trkpt>
      <trkpt lat="47.01117" lon="-1.07398">
        <ele>54</ele>
        <time>2012-05-03T12:41:28Z</time>
      </trkpt>
      <trkpt lat="47.01118" lon="-1.07403">
        <ele>54</ele>
        <time>2012-05-03T12:41:29Z</time>
      </trkpt>
      <trkpt lat="47.01119" lon="-1.07408">
        <ele>55</ele>
        <time>2012-05-03T12:41:30Z</time>
      </trkpt>
      <trkpt lat="47.0112" lon="-1.07413">
        <ele>55</ele>
        <time>2012-05-03T12:41:31Z</time>
      </trkpt>
      <trkpt lat="47.01121" lon="-1.07418">
        <ele>55</ele>
        <time>2012-05-03T12:41:32Z</time>
      </trkpt>
      <trkpt lat="47.01122" lon="-1.07423">
        <ele>56</ele>
        <time>2012-05-03T12:41:33Z</time>
      </trkpt>
      <trkpt lat="47.01123" lon="-1.07428">
        <ele>56</ele>
        <time>2012-05-03T12:41:34Z</time>
      </trkpt>
      <trkpt lat="47.01125" lon="-1.07433">
        <ele>56</ele>
        <time>2012-05-03T12:41:35Z</time>
      </trkpt>
      <trkpt lat="47.01126" lon="-1.07439">
        <ele>56</ele>
        <time>2012-05-03T12:41:36Z</time>
      </trkpt>
      <trkpt lat="47.01127" lon="-1.07444">
        <ele>57</ele>
        <time>2012-05-03T12:41:37Z</time>
      </trkpt>
      <trkpt lat="47.01128" lon="-1.07449">
        <ele>57</ele>
        <time>2012-05-03T12:41:38Z</time>
      </trkpt>
      <trkpt lat="47.01129" lon="-1.07454">
        <ele>57</ele>
        <time>2012-05-03T12:41:39Z</time>
      </trkpt>
      <trkpt lat="47.0113" lon="-1.07459">
        <ele>58</ele>
        <time>2012-05-03T12:41:40Z</time>
      </trkpt>
      <trkpt lat="47.01131" lon="-1.07464">
        <ele>58</ele>
        <time>2012-05-03T12:41:41Z</time>
      </trkpt>
      <trkpt lat="47.01132" lon="-1.07469">
        <ele>58</ele>
        <time>2012-05-03T12:41:42Z</time>
      </trkpt>
      <trkpt lat="47.01133" lon="-1.07474">
        <ele>59</ele>
        <time>2012-05-03T12:41:43Z</time>
      </trkpt>
      <trkpt lat="47.01135" lon="-1.07479">
        <ele>59</ele>
        <time>2012-05-03T12:41:44Z</time>
      </trkpt>
      <trkpt lat="47.01136" lon="-1.07484">
        <ele>59</ele>
        <time>2012-05-03T12:41:45Z</time>
      </trkpt>
      <trkpt lat="47.01137" lon="-1.07489">
        <ele>59</ele>
        <time>2012-05-03T12:41:46Z</time>
      </trkpt>
      <trkpt lat="47.01138" lon="-1.07493">
        <ele>60</ele>
        <time>2012-05-03T12:41:47Z</time>
      </trkpt>
      <trkpt lat="47.0114" lon="-1.07498">
        <ele>60</ele>
        <time>2012-05-03T12:41:48Z</time>
      </trkpt>
      <trkpt lat="47.01141" lon="-1.07502">
        <ele>60</ele>
        <time>2012-05-03T12:41:49Z</time>
      </trkpt>
      <trkpt lat="47.01142" lon="-1.07506">
        <ele>60</ele>
        <time>2012-05-03T12:41:50Z</time>
      </trkpt>
      <trkpt lat="47.01142" lon="-1.0751">
        <ele>61</ele>
        <time>2012-05-03T12:41:51Z</time>
      </trkpt>
      <trkpt lat="47.01142" lon="-1.07515">
        <ele>61</ele>
        <time>2012-05-03T12:41:52Z</time>
      </trkpt>
      <trkpt lat="47.01141" lon="-1.0752">
        <ele>61</ele>
        <time>2012-05-03T12:41:53Z</time>
      </trkpt>
      <trkpt lat="47.0114" lon="-1.07525">
        <ele>61</ele>
        <time>2012-05-03T12:41:54Z</time>
      </trkpt>
      <trkpt lat="47.01139" lon="-1.07531">
        <ele>61</ele>
        <time>2012-05-03T12:41:55Z</time>
      </trkpt>
      <trkpt lat="47.01138" lon="-1.07536">
        <ele>61</ele>
        <time>2012-05-03T12:41:56Z</time>
      </trkpt>
      <trkpt lat="47.01137" lon="-1.0754">
        <ele>61</ele>
        <time>2012-05-03T12:41:57Z</time>
      </trkpt>
      <trkpt lat="47.01136" lon="-1.07544">
        <ele>61</ele>
        <time>2012-05-03T12:41:58Z</time>
      </trkpt>
      <trkpt lat="47.01134" lon="-1.07545">
        <ele>62</ele>
        <time>2012-05-03T12:42:00Z</time>
      </trkpt>
      <trkpt lat="47.01134" lon="-1.07548">
        <ele>62</ele>
        <time>2012-05-03T12:42:06Z</time>
      </trkpt>
      <trkpt lat="47.01134" lon="-1.0755">
        <ele>62</ele>
        <time>2012-05-03T12:42:07Z</time>
      </trkpt>
      <trkpt lat="47.01134" lon="-1.07552">
        <ele>62</ele>
        <time>2012-05-03T12:42:08Z</time>
      </trkpt>
      <trkpt lat="47.01133" lon="-1.07555">
        <ele>62</ele>
        <time>2012-05-03T12:42:09Z</time>
      </trkpt>
      <trkpt lat="47.01133" lon="-1.07559">
        <ele>62</ele>
        <time>2012-05-03T12:42:10Z</time>
      </trkpt>
      <trkpt lat="47.01133" lon="-1.07562">
        <ele>62</ele>
        <time>2012-05-03T12:42:11Z</time>
      </trkpt>
      <trkpt lat="47.01132" lon="-1.07566">
        <ele>63</ele>
        <time>2012-05-03T12:42:12Z</time>
      </trkpt>
      <trkpt lat="47.01132" lon="-1.0757">
        <ele>63</ele>
        <time>2012-05-03T12:42:13Z</time>
      </trkpt>
      <trkpt lat="47.01132" lon="-1.07573">
        <ele>64</ele>
        <time>2012-05-03T12:42:14Z</time>
      </trkpt>
      <trkpt lat="47.01133" lon="-1.07576">
        <ele>64</ele>
        <time>2012-05-03T12:42:16Z</time>
      </trkpt>
      <trkpt lat="47.01134" lon="-1.07579">
        <ele>64</ele>
        <time>2012-05-03T12:42:17Z</time>
      </trkpt>
      <trkpt lat="47.01134" lon="-1.07581">
        <ele>64</ele>
        <time>2012-05-03T12:42:18Z</time>
      </trkpt>
      <trkpt lat="47.01134" lon="-1.07583">
        <ele>64</ele>
        <time>2012-05-03T12:42:19Z</time>
      </trkpt>
      <trkpt lat="47.01134" lon="-1.0758">
        <ele>64</ele>
        <time>2012-05-03T12:42:24Z</time>
      </trkpt>
      <trkpt lat="47.01135" lon="-1.07578">
        <ele>64</ele>
        <time>2012-05-03T12:42:25Z</time>
      </trkpt>
      <trkpt lat="47.01135" lon="-1.07575">
        <ele>64</ele>
        <time>2012-05-03T12:42:26Z</time>
      </trkpt>
      <trkpt lat="47.01135" lon="-1.07573">
        <ele>64</ele>
        <time>2012-05-03T12:42:27Z</time>
      </trkpt>
      <trkpt lat="47.01136" lon="-1.07571">
        <ele>64</ele>
        <time>2012-05-03T12:42:28Z</time>
      </trkpt>
      <trkpt lat="47.01136" lon="-1.07569">
        <ele>64</ele>
        <time>2012-05-03T12:42:29Z</time>
      </trkpt>
      <trkpt lat="47.01136" lon="-1.07566">
        <ele>64</ele>
        <time>2012-05-03T12:42:30Z</time>
      </trkpt>
      <trkpt lat="47.01136" lon="-1.07563">
        <ele>64</ele>
        <time>2012-05-03T12:42:31Z</time>
      </trkpt>
      <trkpt lat="47.01136" lon="-1.07561">
        <ele>64</ele>
        <time>2012-05-03T12:42:32Z</time>
      </trkpt>
      <trkpt lat="47.01136" lon="-1.07559">
        <ele>64</ele>
        <time>2012-05-03T12:42:33Z</time>
      </trkpt>
      <trkpt lat="47.01137" lon="-1.07557">
        <ele>64</ele>
        <time>2012-05-03T12:42:34Z</time>
      </trkpt>
      <trkpt lat="47.01139" lon="-1.07556">
        <ele>64</ele>
        <time>2012-05-03T12:42:36Z</time>
      </trkpt>
      <trkpt lat="47.0114" lon="-1.07557">
        <ele>64</ele>
        <time>2012-05-03T12:42:38Z</time>
      </trkpt>
      <trkpt lat="47.0114" lon="-1.07558">
        <ele>64</ele>
        <time>2012-05-03T12:42:44Z</time>
      </trkpt>
      <trkpt lat="47.01139" lon="-1.07561">
        <ele>64</ele>
        <time>2012-05-03T12:42:46Z</time>
      </trkpt>
      <trkpt lat="47.01138" lon="-1.07564">
        <ele>64</ele>
        <time>2012-05-03T12:42:48Z</time>
      </trkpt>
      <trkpt lat="47.01138" lon="-1.07567">
        <ele>64</ele>
        <time>2012-05-03T12:42:49Z</time>
      </trkpt>
      <trkpt lat="47.01138" lon="-1.0757">
        <ele>64</ele>
        <time>2012-05-03T12:42:50Z</time>
      </trkpt>
      <trkpt lat="47.01138" lon="-1.07574">
        <ele>64</ele>
        <time>2012-05-03T12:42:51Z</time>
      </trkpt>
      <trkpt lat="47.01138" lon="-1.07579">
        <ele>64</ele>
        <time>2012-05-03T12:42:52Z</time>
      </trkpt>
      <trkpt lat="47.01138" lon="-1.07585">
        <ele>64</ele>
        <time>2012-05-03T12:42:53Z</time>
      </trkpt>
      <trkpt lat="47.01137" lon="-1.07592">
        <ele>64</ele>
        <time>2012-05-03T12:42:54Z</time>
      </trkpt>
      <trkpt lat="47.01137" lon="-1.07598">
        <ele>64</ele>
        <time>2012-05-03T12:42:55Z</time>
      </trkpt>
      <trkpt lat="47.01138" lon="-1.07605">
        <ele>64</ele>
        <time>2012-05-03T12:42:56Z</time>
      </trkpt>
      <trkpt lat="47.01138" lon="-1.07612">
        <ele>64</ele>
        <time>2012-05-03T12:42:57Z</time>
      </trkpt>
      <trkpt lat="47.01138" lon="-1.07619">
        <ele>64</ele>
        <time>2012-05-03T12:42:58Z</time>
      </trkpt>
      <trkpt lat="47.01138" lon="-1.07627">
        <ele>64</ele>
        <time>2012-05-03T12:42:59Z</time>
      </trkpt>
      <trkpt lat="47.01139" lon="-1.07635">
        <ele>64</ele>
        <time>2012-05-03T12:43:00Z</time>
      </trkpt>
      <trkpt lat="47.01139" lon="-1.07643">
        <ele>64</ele>
        <time>2012-05-03T12:43:01Z</time>
      </trkpt>
      <trkpt lat="47.01139" lon="-1.07649">
        <ele>64</ele>
        <time>2012-05-03T12:43:02Z</time>
      </trkpt>
      <trkpt lat="47.01139" lon="-1.07654">
        <ele>64</ele>
        <time>2012-05-03T12:43:03Z</time>
      </trkpt>
      <trkpt lat="47.0114" lon="-1.07658">
        <ele>64</ele>
        <time>2012-05-03T12:43:04Z</time>
      </trkpt>
      <trkpt lat="47.0114" lon="-1.0766">
        <ele>63</ele>
        <time>2012-05-03T12:43:05Z</time>
      </trkpt>
      <trkpt lat="47.0114" lon="-1.07662">
        <ele>62</ele>
        <time>2012-05-03T12:43:07Z</time>
      </trkpt>
      <trkpt lat="47.0114" lon="-1.07664">
        <ele>62</ele>
        <time>2012-05-03T12:43:08Z</time>
      </trkpt>
      <trkpt lat="47.01141" lon="-1.07666">
        <ele>62</ele>
        <time>2012-05-03T12:43:09Z</time>
      </trkpt>
      <trkpt lat="47.01142" lon="-1.07669">
        <ele>61</ele>
        <time>2012-05-03T12:43:10Z</time>
      </trkpt>
      <trkpt lat="47.01143" lon="-1.07671">
        <ele>61</ele>
        <time>2012-05-03T12:43:11Z</time>
      </trkpt>
      <trkpt lat="47.01144" lon="-1.07674">
        <ele>61</ele>
        <time>2012-05-03T12:43:12Z</time>
      </trkpt>
      <trkpt lat="47.01144" lon="-1.07676">
        <ele>61</ele>
        <time>2012-05-03T12:43:13Z</time>
      </trkpt>
      <trkpt lat="47.01144" lon="-1.07679">
        <ele>61</ele>
        <time>2012-05-03T12:43:19Z</time>
      </trkpt>
      <trkpt lat="47.01146" lon="-1.07681">
        <ele>61</ele>
        <time>2012-05-03T12:43:20Z</time>
      </trkpt>
      <trkpt lat="47.01147" lon="-1.0768">
        <ele>60</ele>
        <time>2012-05-03T12:43:23Z</time>
      </trkpt>
      <trkpt lat="47.01149" lon="-1.0768">
        <ele>60</ele>
        <time>2012-05-03T12:43:27Z</time>
      </trkpt>
      <trkpt lat="47.01151" lon="-1.0768">
        <ele>60</ele>
        <time>2012-05-03T12:43:28Z</time>
      </trkpt>
      <trkpt lat="47.01152" lon="-1.07681">
        <ele>60</ele>
        <time>2012-05-03T12:43:29Z</time>
      </trkpt>
      <trkpt lat="47.01154" lon="-1.07681">
        <ele>60</ele>
        <time>2012-05-03T12:43:31Z</time>
      </trkpt>
      <trkpt lat="47.01156" lon="-1.07682">
        <ele>60</ele>
        <time>2012-05-03T12:43:33Z</time>
      </trkpt>
      <trkpt lat="47.01159" lon="-1.07683">
        <ele>60</ele>
        <time>2012-05-03T12:43:35Z</time>
      </trkpt>
      <trkpt lat="47.0116" lon="-1.07683">
        <ele>60</ele>
        <time>2012-05-03T12:43:36Z</time>
      </trkpt>
      <trkpt lat="47.01161" lon="-1.07683">
        <ele>60</ele>
        <time>2012-05-03T12:43:37Z</time>
      </trkpt>
      <trkpt lat="47.01162" lon="-1.07683">
        <ele>60</ele>
        <time>2012-05-03T12:43:38Z</time>
      </trkpt>
      <trkpt lat="47.01163" lon="-1.07683">
        <ele>60</ele>
        <time>2012-05-03T12:43:39Z</time>
      </trkpt>
      <trkpt lat="47.01165" lon="-1.07683">
        <ele>60</ele>
        <time>2012-05-03T12:43:40Z</time>
      </trkpt>
      <trkpt lat="47.01167" lon="-1.07684">
        <ele>60</ele>
        <time>2012-05-03T12:43:42Z</time>
      </trkpt>
      <trkpt lat="47.01169" lon="-1.07685">
        <ele>60</ele>
        <time>2012-05-03T12:43:44Z</time>
      </trkpt>
      <trkpt lat="47.0117" lon="-1.07686">
        <ele>60</ele>
        <time>2012-05-03T12:43:45Z</time>
      </trkpt>
      <trkpt lat="47.01171" lon="-1.07688">
        <ele>60</ele>
        <time>2012-05-03T12:43:46Z</time>
      </trkpt>
      <trkpt lat="47.01171" lon="-1.07691">
        <ele>60</ele>
        <time>2012-05-03T12:43:47Z</time>
      </trkpt>
      <trkpt lat="47.01172" lon="-1.07694">
        <ele>60</ele>
        <time>2012-05-03T12:43:48Z</time>
      </trkpt>
      <trkpt lat="47.01172" lon="-1.07698">
        <ele>60</ele>
        <time>2012-05-03T12:43:49Z</time>
      </trkpt>
      <trkpt lat="47.01171" lon="-1.07702">
        <ele>60</ele>
        <time>2012-05-03T12:43:50Z</time>
      </trkpt>
      <trkpt lat="47.01171" lon="-1.07706">
        <ele>60</ele>
        <time>2012-05-03T12:43:51Z</time>
      </trkpt>
      <trkpt lat="47.01171" lon="-1.0771">
        <ele>60</ele>
        <time>2012-05-03T12:43:52Z</time>
      </trkpt>
      <trkpt lat="47.01171" lon="-1.07713">
        <ele>60</ele>
        <time>2012-05-03T12:43:53Z</time>
      </trkpt>
      <trkpt lat="47.0117" lon="-1.07715">
        <ele>60</ele>
        <time>2012-05-03T12:43:57Z</time>
      </trkpt>
      <trkpt lat="47.01171" lon="-1.07717">
        <ele>60</ele>
        <time>2012-05-03T12:44:00Z</time>
      </trkpt>
      <trkpt lat="47.01171" lon="-1.07719">
        <ele>60</ele>
        <time>2012-05-03T12:44:03Z</time>
      </trkpt>
      <trkpt lat="47.0117" lon="-1.07722">
        <ele>60</ele>
        <time>2012-05-03T12:44:05Z</time>
      </trkpt>
      <trkpt lat="47.01169" lon="-1.07724">
        <ele>60</ele>
        <time>2012-05-03T12:44:06Z</time>
      </trkpt>
      <trkpt lat="47.01168" lon="-1.07726">
        <ele>60</ele>
        <time>2012-05-03T12:44:07Z</time>
      </trkpt>
      <trkpt lat="47.01166" lon="-1.07728">
        <ele>60</ele>
        <time>2012-05-03T12:44:08Z</time>
      </trkpt>
      <trkpt lat="47.01164" lon="-1.07732">
        <ele>61</ele>
        <time>2012-05-03T12:44:09Z</time>
      </trkpt>
      <trkpt lat="47.01161" lon="-1.07736">
        <ele>61</ele>
        <time>2012-05-03T12:44:10Z</time>
      </trkpt>
      <trkpt lat="47.01158" lon="-1.07739">
        <ele>61</ele>
        <time>2012-05-03T12:44:11Z</time>
      </trkpt>
      <trkpt lat="47.01155" lon="-1.07744">
        <ele>61</ele>
        <time>2012-05-03T12:44:12Z</time>
      </trkpt>
      <trkpt lat="47.01153" lon="-1.0775">
        <ele>61</ele>
        <time>2012-05-03T12:44:13Z</time>
      </trkpt>
      <trkpt lat="47.01151" lon="-1.07757">
        <ele>61</ele>
        <time>2012-05-03T12:44:14Z</time>
      </trkpt>
      <trkpt lat="47.01149" lon="-1.07766">
        <ele>61</ele>
        <time>2012-05-03T12:44:15Z</time>
      </trkpt>
      <trkpt lat="47.01149" lon="-1.07775">
        <ele>61</ele>
        <time>2012-05-03T12:44:16Z</time>
      </trkpt>
      <trkpt lat="47.0115" lon="-1.07785">
        <ele>61</ele>
        <time>2012-05-03T12:44:17Z</time>
      </trkpt>
      <trkpt lat="47.01151" lon="-1.07795">
        <ele>61</ele>
        <time>2012-05-03T12:44:18Z</time>
      </trkpt>
      <trkpt lat="47.01153" lon="-1.07803">
        <ele>61</ele>
        <time>2012-05-03T12:44:19Z</time>
      </trkpt>
      <trkpt lat="47.01155" lon="-1.07812">
        <ele>61</ele>
        <time>2012-05-03T12:44:20Z</time>
      </trkpt>
      <trkpt lat="47.01158" lon="-1.07821">
        <ele>61</ele>
        <time>2012-05-03T12:44:21Z</time>
      </trkpt>
      <trkpt lat="47.01161" lon="-1.07829">
        <ele>61</ele>
        <time>2012-05-03T12:44:22Z</time>
      </trkpt>
      <trkpt lat="47.01164" lon="-1.07836">
        <ele>60</ele>
        <time>2012-05-03T12:44:23Z</time>
      </trkpt>
      <trkpt lat="47.01167" lon="-1.07843">
        <ele>59</ele>
        <time>2012-05-03T12:44:24Z</time>
      </trkpt>
      <trkpt lat="47.01171" lon="-1.0785">
        <ele>58</ele>
        <time>2012-05-03T12:44:25Z</time>
      </trkpt>
      <trkpt lat="47.01175" lon="-1.07856">
        <ele>57</ele>
        <time>2012-05-03T12:44:26Z</time>
      </trkpt>
      <trkpt lat="47.01179" lon="-1.07861">
        <ele>57</ele>
        <time>2012-05-03T12:44:27Z</time>
      </trkpt>
      <trkpt lat="47.01183" lon="-1.07866">
        <ele>57</ele>
        <time>2012-05-03T12:44:28Z</time>
      </trkpt>
      <trkpt lat="47.01188" lon="-1.07871">
        <ele>57</ele>
        <time>2012-05-03T12:44:29Z</time>
      </trkpt>
      <trkpt lat="47.01194" lon="-1.07875">
        <ele>57</ele>
        <time>2012-05-03T12:44:30Z</time>
      </trkpt>
      <trkpt lat="47.01198" lon="-1.07878">
        <ele>57</ele>
        <time>2012-05-03T12:44:31Z</time>
      </trkpt>
      <trkpt lat="47.01203" lon="-1.07881">
        <ele>57</ele>
        <time>2012-05-03T12:44:32Z</time>
      </trkpt>
      <trkpt lat="47.01207" lon="-1.07884">
        <ele>57</ele>
        <time>2012-05-03T12:44:33Z</time>
      </trkpt>
      <trkpt lat="47.01211" lon="-1.07888">
        <ele>57</ele>
        <time>2012-05-03T12:44:34Z</time>
      </trkpt>
      <trkpt lat="47.01215" lon="-1.07891">
        <ele>57</ele>
        <time>2012-05-03T12:44:35Z</time>
      </trkpt>
      <trkpt lat="47.01218" lon="-1.07895">
        <ele>57</ele>
        <time>2012-05-03T12:44:36Z</time>
      </trkpt>
      <trkpt lat="47.0122" lon="-1.07902">
        <ele>57</ele>
        <time>2012-05-03T12:44:37Z</time>
      </trkpt>
      <trkpt lat="47.01222" lon="-1.07909">
        <ele>57</ele>
        <time>2012-05-03T12:44:38Z</time>
      </trkpt>
      <trkpt lat="47.01224" lon="-1.07917">
        <ele>57</ele>
        <time>2012-05-03T12:44:39Z</time>
      </trkpt>
      <trkpt lat="47.01227" lon="-1.07924">
        <ele>57</ele>
        <time>2012-05-03T12:44:40Z</time>
      </trkpt>
      <trkpt lat="47.0123" lon="-1.07931">
        <ele>57</ele>
        <time>2012-05-03T12:44:41Z</time>
      </trkpt>
      <trkpt lat="47.01233" lon="-1.07938">
        <ele>57</ele>
        <time>2012-05-03T12:44:42Z</time>
      </trkpt>
      <trkpt lat="47.01236" lon="-1.07942">
        <ele>57</ele>
        <time>2012-05-03T12:44:43Z</time>
      </trkpt>
      <trkpt lat="47.01239" lon="-1.07945">
        <ele>57</ele>
        <time>2012-05-03T12:44:44Z</time>
      </trkpt>
      <trkpt lat="47.01239" lon="-1.07947">
        <ele>57</ele>
        <time>2012-05-03T12:44:51Z</time>
      </trkpt>
      <trkpt lat="47.01241" lon="-1.07949">
        <ele>57</ele>
        <time>2012-05-03T12:44:54Z</time>
      </trkpt>
      <trkpt lat="47.01242" lon="-1.07949">
        <ele>57</ele>
        <time>2012-05-03T12:44:55Z</time>
      </trkpt>
      <trkpt lat="47.01244" lon="-1.0795">
        <ele>57</ele>
        <time>2012-05-03T12:44:56Z</time>
      </trkpt>
      <trkpt lat="47.01245" lon="-1.07952">
        <ele>57</ele>
        <time>2012-05-03T12:44:57Z</time>
      </trkpt>
      <trkpt lat="47.01247" lon="-1.07953">
        <ele>57</ele>
        <time>2012-05-03T12:44:58Z</time>
      </trkpt>
      <trkpt lat="47.01249" lon="-1.07955">
        <ele>57</ele>
        <time>2012-05-03T12:44:59Z</time>
      </trkpt>
      <trkpt lat="47.01251" lon="-1.07957">
        <ele>57</ele>
        <time>2012-05-03T12:45:00Z</time>
      </trkpt>
      <trkpt lat="47.01252" lon="-1.07959">
        <ele>57</ele>
        <time>2012-05-03T12:45:01Z</time>
      </trkpt>
      <trkpt lat="47.01255" lon="-1.07963">
        <ele>57</ele>
        <time>2012-05-03T12:45:02Z</time>
      </trkpt>
      <trkpt lat="47.01257" lon="-1.07967">
        <ele>57</ele>
        <time>2012-05-03T12:45:03Z</time>
      </trkpt>
      <trkpt lat="47.01259" lon="-1.07971">
        <ele>57</ele>
        <time>2012-05-03T12:45:04Z</time>
      </trkpt>
      <trkpt lat="47.01262" lon="-1.07975">
        <ele>57</ele>
        <time>2012-05-03T12:45:05Z</time>
      </trkpt>
      <trkpt lat="47.01264" lon="-1.0798">
        <ele>57</ele>
        <time>2012-05-03T12:45:06Z</time>
      </trkpt>
      <trkpt lat="47.01266" lon="-1.07984">
        <ele>57</ele>
        <time>2012-05-03T12:45:07Z</time>
      </trkpt>
      <trkpt lat="47.01269" lon="-1.0799">
        <ele>56</ele>
        <time>2012-05-03T12:45:08Z</time>
      </trkpt>
      <trkpt lat="47.01271" lon="-1.07995">
        <ele>56</ele>
        <time>2012-05-03T12:45:09Z</time>
      </trkpt>
      <trkpt lat="47.01274" lon="-1.08001">
        <ele>56</ele>
        <time>2012-05-03T12:45:10Z</time>
      </trkpt>
      <trkpt lat="47.01276" lon="-1.08007">
        <ele>56</ele>
        <time>2012-05-03T12:45:11Z</time>
      </trkpt>
      <trkpt lat="47.01278" lon="-1.08012">
        <ele>56</ele>
        <time>2012-05-03T12:45:12Z</time>
      </trkpt>
      <trkpt lat="47.0128" lon="-1.08016">
        <ele>56</ele>
        <time>2012-05-03T12:45:13Z</time>
      </trkpt>
      <trkpt lat="47.01282" lon="-1.08021">
        <ele>56</ele>
        <time>2012-05-03T12:45:14Z</time>
      </trkpt>
      <trkpt lat="47.01285" lon="-1.08026">
        <ele>56</ele>
        <time>2012-05-03T12:45:15Z</time>
      </trkpt>
      <trkpt lat="47.01287" lon="-1.0803">
        <ele>56</ele>
        <time>2012-05-03T12:45:16Z</time>
      </trkpt>
      <trkpt lat="47.0129" lon="-1.08035">
        <ele>56</ele>
        <time>2012-05-03T12:45:17Z</time>
      </trkpt>
      <trkpt lat="47.01293" lon="-1.0804">
        <ele>56</ele>
        <time>2012-05-03T12:45:18Z</time>
      </trkpt>
      <trkpt lat="47.01296" lon="-1.08045">
        <ele>55</ele>
        <time>2012-05-03T12:45:19Z</time>
      </trkpt>
      <trkpt lat="47.013" lon="-1.0805">
        <ele>55</ele>
        <time>2012-05-03T12:45:20Z</time>
      </trkpt>
      <trkpt lat="47.01302" lon="-1.08056">
        <ele>55</ele>
        <time>2012-05-03T12:45:21Z</time>
      </trkpt>
      <trkpt lat="47.01306" lon="-1.08061">
        <ele>55</ele>
        <time>2012-05-03T12:45:22Z</time>
      </trkpt>
      <trkpt lat="47.01309" lon="-1.08066">
        <ele>55</ele>
        <time>2012-05-03T12:45:23Z</time>
      </trkpt>
      <trkpt lat="47.01313" lon="-1.08069">
        <ele>55</ele>
        <time>2012-05-03T12:45:24Z</time>
      </trkpt>
      <trkpt lat="47.01316" lon="-1.08073">
        <ele>55</ele>
        <time>2012-05-03T12:45:25Z</time>
      </trkpt>
      <trkpt lat="47.01319" lon="-1.08077">
        <ele>55</ele>
        <time>2012-05-03T12:45:26Z</time>
      </trkpt>
      <trkpt lat="47.01321" lon="-1.08082">
        <ele>55</ele>
        <time>2012-05-03T12:45:27Z</time>
      </trkpt>
      <trkpt lat="47.01323" lon="-1.08086">
        <ele>55</ele>
        <time>2012-05-03T12:45:28Z</time>
      </trkpt>
      <trkpt lat="47.01326" lon="-1.08091">
        <ele>55</ele>
        <time>2012-05-03T12:45:29Z</time>
      </trkpt>
      <trkpt lat="47.01329" lon="-1.08096">
        <ele>55</ele>
        <time>2012-05-03T12:45:30Z</time>
      </trkpt>
      <trkpt lat="47.01331" lon="-1.08099">
        <ele>55</ele>
        <time>2012-05-03T12:45:31Z</time>
      </trkpt>
      <trkpt lat="47.01333" lon="-1.08104">
        <ele>55</ele>
        <time>2012-05-03T12:45:32Z</time>
      </trkpt>
      <trkpt lat="47.01336" lon="-1.08109">
        <ele>55</ele>
        <time>2012-05-03T12:45:33Z</time>
      </trkpt>
      <trkpt lat="47.01339" lon="-1.08113">
        <ele>55</ele>
        <time>2012-05-03T12:45:34Z</time>
      </trkpt>
      <trkpt lat="47.01341" lon="-1.08117">
        <ele>55</ele>
        <time>2012-05-03T12:45:35Z</time>
      </trkpt>
      <trkpt lat="47.01344" lon="-1.08121">
        <ele>55</ele>
        <time>2012-05-03T12:45:36Z</time>
      </trkpt>
      <trkpt lat="47.01346" lon="-1.08125">
        <ele>55</ele>
        <time>2012-05-03T12:45:37Z</time>
      </trkpt>
      <trkpt lat="47.01348" lon="-1.08129">
        <ele>56</ele>
        <time>2012-05-03T12:45:38Z</time>
      </trkpt>
      <trkpt lat="47.01351" lon="-1.08132">
        <ele>56</ele>
        <time>2012-05-03T12:45:39Z</time>
      </trkpt>
      <trkpt lat="47.01353" lon="-1.08135">
        <ele>57</ele>
        <time>2012-05-03T12:45:40Z</time>
      </trkpt>
      <trkpt lat="47.01355" lon="-1.08137">
        <ele>57</ele>
        <time>2012-05-03T12:45:41Z</time>
      </trkpt>
      <trkpt lat="47.01355" lon="-1.08139">
        <ele>57</ele>
        <time>2012-05-03T12:45:42Z</time>
      </trkpt>
      <trkpt lat="47.01356" lon="-1.08141">
        <ele>58</ele>
        <time>2012-05-03T12:45:46Z</time>
      </trkpt>
      <trkpt lat="47.01356" lon="-1.08143">
        <ele>58</ele>
        <time>2012-05-03T12:45:48Z</time>
      </trkpt>
      <trkpt lat="47.01356" lon="-1.08145">
        <ele>58</ele>
        <time>2012-05-03T12:45:52Z</time>
      </trkpt>
      <trkpt lat="47.01357" lon="-1.08147">
        <ele>58</ele>
        <time>2012-05-03T12:45:54Z</time>
      </trkpt>
      <trkpt lat="47.01357" lon="-1.08149">
        <ele>58</ele>
        <time>2012-05-03T12:45:55Z</time>
      </trkpt>
      <trkpt lat="47.01357" lon="-1.08151">
        <ele>59</ele>
        <time>2012-05-03T12:45:57Z</time>
      </trkpt>
      <trkpt lat="47.01358" lon="-1.08153">
        <ele>60</ele>
        <time>2012-05-03T12:45:59Z</time>
      </trkpt>
      <trkpt lat="47.01359" lon="-1.08156">
        <ele>60</ele>
        <time>2012-05-03T12:46:01Z</time>
      </trkpt>
      <trkpt lat="47.01358" lon="-1.08158">
        <ele>60</ele>
        <time>2012-05-03T12:46:02Z</time>
      </trkpt>
      <trkpt lat="47.01358" lon="-1.0816">
        <ele>60</ele>
        <time>2012-05-03T12:46:03Z</time>
      </trkpt>
      <trkpt lat="47.01358" lon="-1.08163">
        <ele>60</ele>
        <time>2012-05-03T12:46:04Z</time>
      </trkpt>
      <trkpt lat="47.01358" lon="-1.08167">
        <ele>60</ele>
        <time>2012-05-03T12:46:05Z</time>
      </trkpt>
      <trkpt lat="47.01359" lon="-1.08169">
        <ele>60</ele>
        <time>2012-05-03T12:46:06Z</time>
      </trkpt>
      <trkpt lat="47.0136" lon="-1.08171">
        <ele>60</ele>
        <time>2012-05-03T12:46:07Z</time>
      </trkpt>
      <trkpt lat="47.0136" lon="-1.08173">
        <ele>60</ele>
        <time>2012-05-03T12:46:09Z</time>
      </trkpt>
      <trkpt lat="47.01361" lon="-1.08175">
        <ele>60</ele>
        <time>2012-05-03T12:46:12Z</time>
      </trkpt>
      <trkpt lat="47.01362" lon="-1.08177">
        <ele>60</ele>
        <time>2012-05-03T12:46:14Z</time>
      </trkpt>
      <trkpt lat="47.01362" lon="-1.0818">
        <ele>60</ele>
        <time>2012-05-03T12:46:17Z</time>
      </trkpt>
      <trkpt lat="47.01362" lon="-1.08182">
        <ele>60</ele>
        <time>2012-05-03T12:46:18Z</time>
      </trkpt>
      <trkpt lat="47.01362" lon="-1.08185">
        <ele>60</ele>
        <time>2012-05-03T12:46:21Z</time>
      </trkpt>
      <trkpt lat="47.01362" lon="-1.0819">
        <ele>60</ele>
        <time>2012-05-03T12:46:22Z</time>
      </trkpt>
      <trkpt lat="47.01361" lon="-1.08196">
        <ele>60</ele>
        <time>2012-05-03T12:46:23Z</time>
      </trkpt>
      <trkpt lat="47.01361" lon="-1.08202">
        <ele>60</ele>
        <time>2012-05-03T12:46:24Z</time>
      </trkpt>
      <trkpt lat="47.01362" lon="-1.08209">
        <ele>60</ele>
        <time>2012-05-03T12:46:25Z</time>
      </trkpt>
      <trkpt lat="47.01362" lon="-1.08215">
        <ele>60</ele>
        <time>2012-05-03T12:46:26Z</time>
      </trkpt>
      <trkpt lat="47.01363" lon="-1.0822">
        <ele>60</ele>
        <time>2012-05-03T12:46:27Z</time>
      </trkpt>
      <trkpt lat="47.01363" lon="-1.08225">
        <ele>60</ele>
        <time>2012-05-03T12:46:28Z</time>
      </trkpt>
      <trkpt lat="47.01363" lon="-1.0823">
        <ele>60</ele>
        <time>2012-05-03T12:46:29Z</time>
      </trkpt>
      <trkpt lat="47.01362" lon="-1.08235">
        <ele>60</ele>
        <time>2012-05-03T12:46:30Z</time>
      </trkpt>
      <trkpt lat="47.01362" lon="-1.0824">
        <ele>60</ele>
        <time>2012-05-03T12:46:31Z</time>
      </trkpt>
      <trkpt lat="47.0136" lon="-1.08246">
        <ele>60</ele>
        <time>2012-05-03T12:46:32Z</time>
      </trkpt>
      <trkpt lat="47.01358" lon="-1.08252">
        <ele>60</ele>
        <time>2012-05-03T12:46:33Z</time>
      </trkpt>
      <trkpt lat="47.01356" lon="-1.08257">
        <ele>60</ele>
        <time>2012-05-03T12:46:34Z</time>
      </trkpt>
      <trkpt lat="47.01354" lon="-1.08264">
        <ele>60</ele>
        <time>2012-05-03T12:46:35Z</time>
      </trkpt>
      <trkpt lat="47.01351" lon="-1.08272">
        <ele>60</ele>
        <time>2012-05-03T12:46:36Z</time>
      </trkpt>
      <trkpt lat="47.01349" lon="-1.08278">
        <ele>60</ele>
        <time>2012-05-03T12:46:37Z</time>
      </trkpt>
      <trkpt lat="47.01346" lon="-1.08283">
        <ele>60</ele>
        <time>2012-05-03T12:46:38Z</time>
      </trkpt>
      <trkpt lat="47.01343" lon="-1.08287">
        <ele>60</ele>
        <time>2012-05-03T12:46:39Z</time>
      </trkpt>
      <trkpt lat="47.0134" lon="-1.08292">
        <ele>60</ele>
        <time>2012-05-03T12:46:40Z</time>
      </trkpt>
      <trkpt lat="47.01338" lon="-1.08298">
        <ele>60</ele>
        <time>2012-05-03T12:46:41Z</time>
      </trkpt>
      <trkpt lat="47.01335" lon="-1.08302">
        <ele>60</ele>
        <time>2012-05-03T12:46:42Z</time>
      </trkpt>
      <trkpt lat="47.01332" lon="-1.08306">
        <ele>60</ele>
        <time>2012-05-03T12:46:43Z</time>
      </trkpt>
      <trkpt lat="47.01328" lon="-1.0831">
        <ele>60</ele>
        <time>2012-05-03T12:46:44Z</time>
      </trkpt>
      <trkpt lat="47.01324" lon="-1.08313">
        <ele>60</ele>
        <time>2012-05-03T12:46:45Z</time>
      </trkpt>
      <trkpt lat="47.01322" lon="-1.08316">
        <ele>59</ele>
        <time>2012-05-03T12:46:46Z</time>
      </trkpt>
      <trkpt lat="47.0132" lon="-1.08317">
        <ele>59</ele>
        <time>2012-05-03T12:46:47Z</time>
      </trkpt>
      <trkpt lat="47.01319" lon="-1.08319">
        <ele>59</ele>
        <time>2012-05-03T12:46:49Z</time>
      </trkpt>
      <trkpt lat="47.01317" lon="-1.08321">
        <ele>59</ele>
        <time>2012-05-03T12:46:51Z</time>
      </trkpt>
      <trkpt lat="47.01315" lon="-1.08323">
        <ele>59</ele>
        <time>2012-05-03T12:46:53Z</time>
      </trkpt>
      <trkpt lat="47.01313" lon="-1.08324">
        <ele>59</ele>
        <time>2012-05-03T12:46:54Z</time>
      </trkpt>
      <trkpt lat="47.01312" lon="-1.08327">
        <ele>59</ele>
        <time>2012-05-03T12:46:55Z</time>
      </trkpt>
      <trkpt lat="47.01311" lon="-1.08329">
        <ele>59</ele>
        <time>2012-05-03T12:46:56Z</time>
      </trkpt>
      <trkpt lat="47.0131" lon="-1.08331">
        <ele>59</ele>
        <time>2012-05-03T12:46:57Z</time>
      </trkpt>
      <trkpt lat="47.01309" lon="-1.08333">
        <ele>59</ele>
        <time>2012-05-03T12:47:00Z</time>
      </trkpt>
      <trkpt lat="47.01308" lon="-1.08335">
        <ele>59</ele>
        <time>2012-05-03T12:47:02Z</time>
      </trkpt>
      <trkpt lat="47.01306" lon="-1.08337">
        <ele>59</ele>
        <time>2012-05-03T12:47:04Z</time>
      </trkpt>
      <trkpt lat="47.01305" lon="-1.08339">
        <ele>59</ele>
        <time>2012-05-03T12:47:07Z</time>
      </trkpt>
      <trkpt lat="47.01303" lon="-1.08341">
        <ele>59</ele>
        <time>2012-05-03T12:47:09Z</time>
      </trkpt>
      <trkpt lat="47.01301" lon="-1.08342">
        <ele>58</ele>
        <time>2012-05-03T12:47:11Z</time>
      </trkpt>
      <trkpt lat="47.013" lon="-1.08344">
        <ele>58</ele>
        <time>2012-05-03T12:47:12Z</time>
      </trkpt>
      <trkpt lat="47.01299" lon="-1.08345">
        <ele>57</ele>
        <time>2012-05-03T12:47:13Z</time>
      </trkpt>
      <trkpt lat="47.01297" lon="-1.08346">
        <ele>56</ele>
        <time>2012-05-03T12:47:14Z</time>
      </trkpt>
      <trkpt lat="47.01295" lon="-1.08347">
        <ele>56</ele>
        <time>2012-05-03T12:47:15Z</time>
      </trkpt>
      <trkpt lat="47.01293" lon="-1.0835">
        <ele>55</ele>
        <time>2012-05-03T12:47:16Z</time>
      </trkpt>
      <trkpt lat="47.01292" lon="-1.08352">
        <ele>55</ele>
        <time>2012-05-03T12:47:17Z</time>
      </trkpt>
      <trkpt lat="47.01289" lon="-1.08354">
        <ele>55</ele>
        <time>2012-05-03T12:47:18Z</time>
      </trkpt>
      <trkpt lat="47.01286" lon="-1.08356">
        <ele>55</ele>
        <time>2012-05-03T12:47:19Z</time>
      </trkpt>
      <trkpt lat="47.01283" lon="-1.08356">
        <ele>55</ele>
        <time>2012-05-03T12:47:20Z</time>
      </trkpt>
      <trkpt lat="47.0128" lon="-1.08359">
        <ele>55</ele>
        <time>2012-05-03T12:47:21Z</time>
      </trkpt>
      <trkpt lat="47.01277" lon="-1.08362">
        <ele>55</ele>
        <time>2012-05-03T12:47:22Z</time>
      </trkpt>
      <trkpt lat="47.01274" lon="-1.08365">
        <ele>55</ele>
        <time>2012-05-03T12:47:23Z</time>
      </trkpt>
      <trkpt lat="47.01271" lon="-1.08368">
        <ele>55</ele>
        <time>2012-05-03T12:47:24Z</time>
      </trkpt>
      <trkpt lat="47.01268" lon="-1.0837">
        <ele>55</ele>
        <time>2012-05-03T12:47:25Z</time>
      </trkpt>
      <trkpt lat="47.01265" lon="-1.08372">
        <ele>55</ele>
        <time>2012-05-03T12:47:26Z</time>
      </trkpt>
      <trkpt lat="47.01263" lon="-1.08374">
        <ele>55</ele>
        <time>2012-05-03T12:47:27Z</time>
      </trkpt>
      <trkpt lat="47.01261" lon="-1.08375">
        <ele>54</ele>
        <time>2012-05-03T12:47:29Z</time>
      </trkpt>
      <trkpt lat="47.01258" lon="-1.08373">
        <ele>53</ele>
        <time>2012-05-03T12:47:31Z</time>
      </trkpt>
      <trkpt lat="47.01257" lon="-1.08371">
        <ele>53</ele>
        <time>2012-05-03T12:47:32Z</time>
      </trkpt>
      <trkpt lat="47.01256" lon="-1.08369">
        <ele>53</ele>
        <time>2012-05-03T12:47:33Z</time>
      </trkpt>
      <trkpt lat="47.01255" lon="-1.08368">
        <ele>53</ele>
        <time>2012-05-03T12:47:34Z</time>
      </trkpt>
      <trkpt lat="47.01254" lon="-1.08365">
        <ele>53</ele>
        <time>2012-05-03T12:47:35Z</time>
      </trkpt>
      <trkpt lat="47.01253" lon="-1.08362">
        <ele>53</ele>
        <time>2012-05-03T12:47:36Z</time>
      </trkpt>
      <trkpt lat="47.01251" lon="-1.0836">
        <ele>53</ele>
        <time>2012-05-03T12:47:37Z</time>
      </trkpt>
      <trkpt lat="47.01249" lon="-1.08358">
        <ele>53</ele>
        <time>2012-05-03T12:47:38Z</time>
      </trkpt>
      <trkpt lat="47.01247" lon="-1.08356">
        <ele>53</ele>
        <time>2012-05-03T12:47:39Z</time>
      </trkpt>
      <trkpt lat="47.01246" lon="-1.08353">
        <ele>53</ele>
        <time>2012-05-03T12:47:40Z</time>
      </trkpt>
      <trkpt lat="47.01245" lon="-1.08351">
        <ele>53</ele>
        <time>2012-05-03T12:47:41Z</time>
      </trkpt>
      <trkpt lat="47.01244" lon="-1.08348">
        <ele>53</ele>
        <time>2012-05-03T12:47:42Z</time>
      </trkpt>
      <trkpt lat="47.01244" lon="-1.08346">
        <ele>53</ele>
        <time>2012-05-03T12:47:43Z</time>
      </trkpt>
      <trkpt lat="47.01243" lon="-1.08344">
        <ele>53</ele>
        <time>2012-05-03T12:47:44Z</time>
      </trkpt>
      <trkpt lat="47.01243" lon="-1.08341">
        <ele>53</ele>
        <time>2012-05-03T12:47:45Z</time>
      </trkpt>
      <trkpt lat="47.01242" lon="-1.08339">
        <ele>53</ele>
        <time>2012-05-03T12:47:46Z</time>
      </trkpt>
      <trkpt lat="47.01242" lon="-1.08336">
        <ele>53</ele>
        <time>2012-05-03T12:47:47Z</time>
      </trkpt>
      <trkpt lat="47.01241" lon="-1.08334">
        <ele>53</ele>
        <time>2012-05-03T12:47:48Z</time>
      </trkpt>
      <trkpt lat="47.0124" lon="-1.08332">
        <ele>53</ele>
        <time>2012-05-03T12:47:49Z</time>
      </trkpt>
      <trkpt lat="47.01241" lon="-1.08329">
        <ele>52</ele>
        <time>2012-05-03T12:47:50Z</time>
      </trkpt>
      <trkpt lat="47.01241" lon="-1.08326">
        <ele>52</ele>
        <time>2012-05-03T12:47:51Z</time>
      </trkpt>
      <trkpt lat="47.01242" lon="-1.08322">
        <ele>52</ele>
        <time>2012-05-03T12:47:52Z</time>
      </trkpt>
      <trkpt lat="47.01242" lon="-1.08318">
        <ele>51</ele>
        <time>2012-05-03T12:47:53Z</time>
      </trkpt>
      <trkpt lat="47.01242" lon="-1.08314">
        <ele>51</ele>
        <time>2012-05-03T12:47:54Z</time>
      </trkpt>
      <trkpt lat="47.01241" lon="-1.0831">
        <ele>50</ele>
        <time>2012-05-03T12:47:55Z</time>
      </trkpt>
      <trkpt lat="47.01239" lon="-1.08307">
        <ele>49</ele>
        <time>2012-05-03T12:47:56Z</time>
      </trkpt>
      <trkpt lat="47.01237" lon="-1.08305">
        <ele>49</ele>
        <time>2012-05-03T12:47:57Z</time>
      </trkpt>
      <trkpt lat="47.01234" lon="-1.08303">
        <ele>49</ele>
        <time>2012-05-03T12:47:58Z</time>
      </trkpt>
      <trkpt lat="47.01231" lon="-1.08301">
        <ele>49</ele>
        <time>2012-05-03T12:47:59Z</time>
      </trkpt>
      <trkpt lat="47.01228" lon="-1.083">
        <ele>49</ele>
        <time>2012-05-03T12:48:00Z</time>
      </trkpt>
      <trkpt lat="47.01225" lon="-1.08299">
        <ele>49</ele>
        <time>2012-05-03T12:48:01Z</time>
      </trkpt>
      <trkpt lat="47.01222" lon="-1.08299">
        <ele>49</ele>
        <time>2012-05-03T12:48:02Z</time>
      </trkpt>
      <trkpt lat="47.01219" lon="-1.083">
        <ele>49</ele>
        <time>2012-05-03T12:48:03Z</time>
      </trkpt>
      <trkpt lat="47.01217" lon="-1.08302">
        <ele>49</ele>
        <time>2012-05-03T12:48:04Z</time>
      </trkpt>
      <trkpt lat="47.01214" lon="-1.08302">
        <ele>49</ele>
        <time>2012-05-03T12:48:05Z</time>
      </trkpt>
      <trkpt lat="47.01211" lon="-1.08301">
        <ele>49</ele>
        <time>2012-05-03T12:48:06Z</time>
      </trkpt>
      <trkpt lat="47.01208" lon="-1.08301">
        <ele>49</ele>
        <time>2012-05-03T12:48:07Z</time>
      </trkpt>
      <trkpt lat="47.01206" lon="-1.083">
        <ele>49</ele>
        <time>2012-05-03T12:48:08Z</time>
      </trkpt>
      <trkpt lat="47.01204" lon="-1.08301">
        <ele>49</ele>
        <time>2012-05-03T12:48:09Z</time>
      </trkpt>
      <trkpt lat="47.01203" lon="-1.08301">
        <ele>49</ele>
        <time>2012-05-03T12:48:10Z</time>
      </trkpt>
      <trkpt lat="47.01201" lon="-1.08301">
        <ele>49</ele>
        <time>2012-05-03T12:48:11Z</time>
      </trkpt>
      <trkpt lat="47.01199" lon="-1.08301">
        <ele>49</ele>
        <time>2012-05-03T12:48:12Z</time>
      </trkpt>
      <trkpt lat="47.01197" lon="-1.08301">
        <ele>49</ele>
        <time>2012-05-03T12:48:13Z</time>
      </trkpt>
      <trkpt lat="47.01195" lon="-1.08301">
        <ele>49</ele>
        <time>2012-05-03T12:48:14Z</time>
      </trkpt>
      <trkpt lat="47.01193" lon="-1.08302">
        <ele>49</ele>
        <time>2012-05-03T12:48:15Z</time>
      </trkpt>
      <trkpt lat="47.01191" lon="-1.08303">
        <ele>49</ele>
        <time>2012-05-03T12:48:16Z</time>
      </trkpt>
      <trkpt lat="47.01189" lon="-1.08304">
        <ele>49</ele>
        <time>2012-05-03T12:48:17Z</time>
      </trkpt>
      <trkpt lat="47.01187" lon="-1.08305">
        <ele>49</ele>
        <time>2012-05-03T12:48:18Z</time>
      </trkpt>
      <trkpt lat="47.01185" lon="-1.08305">
        <ele>49</ele>
        <time>2012-05-03T12:48:19Z</time>
      </trkpt>
      <trkpt lat="47.01183" lon="-1.08305">
        <ele>49</ele>
        <time>2012-05-03T12:48:20Z</time>
      </trkpt>
      <trkpt lat="47.01181" lon="-1.08306">
        <ele>49</ele>
        <time>2012-05-03T12:48:21Z</time>
      </trkpt>
      <trkpt lat="47.01179" lon="-1.08307">
        <ele>49</ele>
        <time>2012-05-03T12:48:22Z</time>
      </trkpt>
      <trkpt lat="47.01177" lon="-1.08309">
        <ele>49</ele>
        <time>2012-05-03T12:48:23Z</time>
      </trkpt>
      <trkpt lat="47.01175" lon="-1.08311">
        <ele>49</ele>
        <time>2012-05-03T12:48:24Z</time>
      </trkpt>
      <trkpt lat="47.01173" lon="-1.08313">
        <ele>49</ele>
        <time>2012-05-03T12:48:25Z</time>
      </trkpt>
      <trkpt lat="47.01171" lon="-1.08315">
        <ele>49</ele>
        <time>2012-05-03T12:48:26Z</time>
      </trkpt>
      <trkpt lat="47.0117" lon="-1.08317">
        <ele>49</ele>
        <time>2012-05-03T12:48:27Z</time>
      </trkpt>
      <trkpt lat="47.01168" lon="-1.08318">
        <ele>49</ele>
        <time>2012-05-03T12:48:28Z</time>
      </trkpt>
      <trkpt lat="47.01166" lon="-1.0832">
        <ele>49</ele>
        <time>2012-05-03T12:48:29Z</time>
      </trkpt>
      <trkpt lat="47.01164" lon="-1.08321">
        <ele>49</ele>
        <time>2012-05-03T12:48:30Z</time>
      </trkpt>
      <trkpt lat="47.01162" lon="-1.08323">
        <ele>49</ele>
        <time>2012-05-03T12:48:31Z</time>
      </trkpt>
      <trkpt lat="47.0116" lon="-1.08324">
        <ele>49</ele>
        <time>2012-05-03T12:48:32Z</time>
      </trkpt>
      <trkpt lat="47.01157" lon="-1.08326">
        <ele>50</ele>
        <time>2012-05-03T12:48:33Z</time>
      </trkpt>
      <trkpt lat="47.01155" lon="-1.08328">
        <ele>50</ele>
        <time>2012-05-03T12:48:34Z</time>
      </trkpt>
      <trkpt lat="47.01154" lon="-1.08329">
        <ele>50</ele>
        <time>2012-05-03T12:48:35Z</time>
      </trkpt>
      <trkpt lat="47.01152" lon="-1.08331">
        <ele>51</ele>
        <time>2012-05-03T12:48:36Z</time>
      </trkpt>
      <trkpt lat="47.0115" lon="-1.08334">
        <ele>51</ele>
        <time>2012-05-03T12:48:37Z</time>
      </trkpt>
      <trkpt lat="47.01148" lon="-1.08336">
        <ele>52</ele>
        <time>2012-05-03T12:48:38Z</time>
      </trkpt>
      <trkpt lat="47.01146" lon="-1.08338">
        <ele>52</ele>
        <time>2012-05-03T12:48:39Z</time>
      </trkpt>
      <trkpt lat="47.01144" lon="-1.0834">
        <ele>52</ele>
        <time>2012-05-03T12:48:40Z</time>
      </trkpt>
      <trkpt lat="47.01142" lon="-1.08342">
        <ele>53</ele>
        <time>2012-05-03T12:48:41Z</time>
      </trkpt>
      <trkpt lat="47.01141" lon="-1.08344">
        <ele>53</ele>
        <time>2012-05-03T12:48:42Z</time>
      </trkpt>
      <trkpt lat="47.01139" lon="-1.08346">
        <ele>53</ele>
        <time>2012-05-03T12:48:43Z</time>
      </trkpt>
      <trkpt lat="47.01137" lon="-1.08349">
        <ele>54</ele>
        <time>2012-05-03T12:48:44Z</time>
      </trkpt>
      <trkpt lat="47.01135" lon="-1.08351">
        <ele>54</ele>
        <time>2012-05-03T12:48:45Z</time>
      </trkpt>
      <trkpt lat="47.01133" lon="-1.08353">
        <ele>54</ele>
        <time>2012-05-03T12:48:46Z</time>
      </trkpt>
      <trkpt lat="47.01131" lon="-1.08356">
        <ele>55</ele>
        <time>2012-05-03T12:48:47Z</time>
      </trkpt>
      <trkpt lat="47.01129" lon="-1.08358">
        <ele>55</ele>
        <time>2012-05-03T12:48:48Z</time>
      </trkpt>
      <trkpt lat="47.01128" lon="-1.0836">
        <ele>55</ele>
        <time>2012-05-03T12:48:49Z</time>
      </trkpt>
      <trkpt lat="47.01126" lon="-1.08362">
        <ele>56</ele>
        <time>2012-05-03T12:48:50Z</time>
      </trkpt>
      <trkpt lat="47.01124" lon="-1.08364">
        <ele>56</ele>
        <time>2012-05-03T12:48:51Z</time>
      </trkpt>
      <trkpt lat="47.01122" lon="-1.08366">
        <ele>56</ele>
        <time>2012-05-03T12:48:52Z</time>
      </trkpt>
      <trkpt lat="47.0112" lon="-1.08369">
        <ele>57</ele>
        <time>2012-05-03T12:48:53Z</time>
      </trkpt>
      <trkpt lat="47.01118" lon="-1.08372">
        <ele>57</ele>
        <time>2012-05-03T12:48:54Z</time>
      </trkpt>
      <trkpt lat="47.01117" lon="-1.08374">
        <ele>57</ele>
        <time>2012-05-03T12:48:55Z</time>
      </trkpt>
      <trkpt lat="47.01115" lon="-1.08376">
        <ele>57</ele>
        <time>2012-05-03T12:48:56Z</time>
      </trkpt>
      <trkpt lat="47.01113" lon="-1.08379">
        <ele>58</ele>
        <time>2012-05-03T12:48:57Z</time>
      </trkpt>
      <trkpt lat="47.01111" lon="-1.08381">
        <ele>58</ele>
        <time>2012-05-03T12:48:58Z</time>
      </trkpt>
      <trkpt lat="47.01109" lon="-1.08383">
        <ele>58</ele>
        <time>2012-05-03T12:48:59Z</time>
      </trkpt>
      <trkpt lat="47.01108" lon="-1.08386">
        <ele>58</ele>
        <time>2012-05-03T12:49:00Z</time>
      </trkpt>
      <trkpt lat="47.01106" lon="-1.08387">
        <ele>59</ele>
        <time>2012-05-03T12:49:01Z</time>
      </trkpt>
      <trkpt lat="47.01104" lon="-1.0839">
        <ele>59</ele>
        <time>2012-05-03T12:49:02Z</time>
      </trkpt>
      <trkpt lat="47.01102" lon="-1.08392">
        <ele>59</ele>
        <time>2012-05-03T12:49:03Z</time>
      </trkpt>
      <trkpt lat="47.01101" lon="-1.08394">
        <ele>60</ele>
        <time>2012-05-03T12:49:04Z</time>
      </trkpt>
      <trkpt lat="47.01099" lon="-1.08396">
        <ele>60</ele>
        <time>2012-05-03T12:49:05Z</time>
      </trkpt>
      <trkpt lat="47.01097" lon="-1.08398">
        <ele>60</ele>
        <time>2012-05-03T12:49:06Z</time>
      </trkpt>
      <trkpt lat="47.01095" lon="-1.08401">
        <ele>60</ele>
        <time>2012-05-03T12:49:07Z</time>
      </trkpt>
      <trkpt lat="47.01094" lon="-1.08403">
        <ele>61</ele>
        <time>2012-05-03T12:49:08Z</time>
      </trkpt>
      <trkpt lat="47.01092" lon="-1.08405">
        <ele>61</ele>
        <time>2012-05-03T12:49:09Z</time>
      </trkpt>
      <trkpt lat="47.0109" lon="-1.08407">
        <ele>61</ele>
        <time>2012-05-03T12:49:10Z</time>
      </trkpt>
      <trkpt lat="47.01089" lon="-1.0841">
        <ele>62</ele>
        <time>2012-05-03T12:49:11Z</time>
      </trkpt>
      <trkpt lat="47.01087" lon="-1.08413">
        <ele>62</ele>
        <time>2012-05-03T12:49:12Z</time>
      </trkpt>
      <trkpt lat="47.01085" lon="-1.08415">
        <ele>63</ele>
        <time>2012-05-03T12:49:13Z</time>
      </trkpt>
      <trkpt lat="47.01084" lon="-1.08418">
        <ele>63</ele>
        <time>2012-05-03T12:49:14Z</time>
      </trkpt>
      <trkpt lat="47.01082" lon="-1.08421">
        <ele>64</ele>
        <time>2012-05-03T12:49:15Z</time>
      </trkpt>
      <trkpt lat="47.0108" lon="-1.08423">
        <ele>64</ele>
        <time>2012-05-03T12:49:16Z</time>
      </trkpt>
      <trkpt lat="47.01079" lon="-1.08425">
        <ele>65</ele>
        <time>2012-05-03T12:49:17Z</time>
      </trkpt>
      <trkpt lat="47.01077" lon="-1.08428">
        <ele>65</ele>
        <time>2012-05-03T12:49:18Z</time>
      </trkpt>
      <trkpt lat="47.01076" lon="-1.08431">
        <ele>66</ele>
        <time>2012-05-03T12:49:19Z</time>
      </trkpt>
      <trkpt lat="47.01075" lon="-1.08433">
        <ele>66</ele>
        <time>2012-05-03T12:49:20Z</time>
      </trkpt>
      <trkpt lat="47.01073" lon="-1.08435">
        <ele>66</ele>
        <time>2012-05-03T12:49:21Z</time>
      </trkpt>
      <trkpt lat="47.01071" lon="-1.08435">
        <ele>67</ele>
        <time>2012-05-03T12:49:22Z</time>
      </trkpt>
      <trkpt lat="47.0107" lon="-1.08433">
        <ele>67</ele>
        <time>2012-05-03T12:49:23Z</time>
      </trkpt>
      <trkpt lat="47.0107" lon="-1.08431">
        <ele>67</ele>
        <time>2012-05-03T12:49:24Z</time>
      </trkpt>
      <trkpt lat="47.0107" lon="-1.08428">
        <ele>67</ele>
        <time>2012-05-03T12:49:25Z</time>
      </trkpt>
      <trkpt lat="47.0107" lon="-1.08425">
        <ele>68</ele>
        <time>2012-05-03T12:49:26Z</time>
      </trkpt>
      <trkpt lat="47.01071" lon="-1.08423">
        <ele>68</ele>
        <time>2012-05-03T12:49:27Z</time>
      </trkpt>
      <trkpt lat="47.01072" lon="-1.08419">
        <ele>68</ele>
        <time>2012-05-03T12:49:28Z</time>
      </trkpt>
      <trkpt lat="47.01074" lon="-1.08415">
        <ele>68</ele>
        <time>2012-05-03T12:49:29Z</time>
      </trkpt>
      <trkpt lat="47.01074" lon="-1.0841">
        <ele>68</ele>
        <time>2012-05-03T12:49:30Z</time>
      </trkpt>
      <trkpt lat="47.01073" lon="-1.08404">
        <ele>68</ele>
        <time>2012-05-03T12:49:31Z</time>
      </trkpt>
      <trkpt lat="47.01072" lon="-1.08397">
        <ele>68</ele>
        <time>2012-05-03T12:49:32Z</time>
      </trkpt>
      <trkpt lat="47.01071" lon="-1.0839">
        <ele>68</ele>
        <time>2012-05-03T12:49:33Z</time>
      </trkpt>
      <trkpt lat="47.0107" lon="-1.08381">
        <ele>68</ele>
        <time>2012-05-03T12:49:34Z</time>
      </trkpt>
      <trkpt lat="47.01069" lon="-1.08372">
        <ele>68</ele>
        <time>2012-05-03T12:49:35Z</time>
      </trkpt>
      <trkpt lat="47.01067" lon="-1.08362">
        <ele>68</ele>
        <time>2012-05-03T12:49:36Z</time>
      </trkpt>
      <trkpt lat="47.01065" lon="-1.08351">
        <ele>68</ele>
        <time>2012-05-03T12:49:37Z</time>
      </trkpt>
      <trkpt lat="47.01063" lon="-1.0834">
        <ele>68</ele>
        <time>2012-05-03T12:49:38Z</time>
      </trkpt>
      <trkpt lat="47.0106" lon="-1.08328">
        <ele>67</ele>
        <time>2012-05-03T12:49:39Z</time>
      </trkpt>
      <trkpt lat="47.01057" lon="-1.08316">
        <ele>66</ele>
        <time>2012-05-03T12:49:40Z</time>
      </trkpt>
      <trkpt lat="47.01054" lon="-1.08304">
        <ele>65</ele>
        <time>2012-05-03T12:49:41Z</time>
      </trkpt>
      <trkpt lat="47.01051" lon="-1.08292">
        <ele>64</ele>
        <time>2012-05-03T12:49:42Z</time>
      </trkpt>
      <trkpt lat="47.01049" lon="-1.0828">
        <ele>63</ele>
        <time>2012-05-03T12:49:43Z</time>
      </trkpt>
      <trkpt lat="47.01048" lon="-1.08268">
        <ele>62</ele>
        <time>2012-05-03T12:49:44Z</time>
      </trkpt>
      <trkpt lat="47.01046" lon="-1.08256">
        <ele>61</ele>
        <time>2012-05-03T12:49:45Z</time>
      </trkpt>
      <trkpt lat="47.01045" lon="-1.08244">
        <ele>60</ele>
        <time>2012-05-03T12:49:46Z</time>
      </trkpt>
      <trkpt lat="47.01044" lon="-1.08233">
        <ele>59</ele>
        <time>2012-05-03T12:49:47Z</time>
      </trkpt>
      <trkpt lat="47.01043" lon="-1.08224">
        <ele>58</ele>
        <time>2012-05-03T12:49:48Z</time>
      </trkpt>
      <trkpt lat="47.01041" lon="-1.08216">
        <ele>57</ele>
        <time>2012-05-03T12:49:49Z</time>
      </trkpt>
      <trkpt lat="47.01039" lon="-1.0821">
        <ele>56</ele>
        <time>2012-05-03T12:49:50Z</time>
      </trkpt>
      <trkpt lat="47.01036" lon="-1.08206">
        <ele>55</ele>
        <time>2012-05-03T12:49:51Z</time>
      </trkpt>
      <trkpt lat="47.01034" lon="-1.08202">
        <ele>54</ele>
        <time>2012-05-03T12:49:52Z</time>
      </trkpt>
      <trkpt lat="47.01033" lon="-1.082">
        <ele>53</ele>
        <time>2012-05-03T12:49:53Z</time>
      </trkpt>
      <trkpt lat="47.01031" lon="-1.082">
        <ele>53</ele>
        <time>2012-05-03T12:49:55Z</time>
      </trkpt>
      <trkpt lat="47.0103" lon="-1.08199">
        <ele>52</ele>
        <time>2012-05-03T12:49:56Z</time>
      </trkpt>
      <trkpt lat="47.01028" lon="-1.08198">
        <ele>52</ele>
        <time>2012-05-03T12:49:57Z</time>
      </trkpt>
      <trkpt lat="47.01028" lon="-1.08196">
        <ele>51</ele>
        <time>2012-05-03T12:50:02Z</time>
      </trkpt>
      <trkpt lat="47.01027" lon="-1.08195">
        <ele>51</ele>
        <time>2012-05-03T12:50:04Z</time>
      </trkpt>
      <trkpt lat="47.01025" lon="-1.08193">
        <ele>51</ele>
        <time>2012-05-03T12:50:05Z</time>
      </trkpt>
      <trkpt lat="47.01023" lon="-1.08191">
        <ele>50</ele>
        <time>2012-05-03T12:50:06Z</time>
      </trkpt>
      <trkpt lat="47.01021" lon="-1.08188">
        <ele>50</ele>
        <time>2012-05-03T12:50:07Z</time>
      </trkpt>
      <trkpt lat="47.01019" lon="-1.08183">
        <ele>50</ele>
        <time>2012-05-03T12:50:08Z</time>
      </trkpt>
      <trkpt lat="47.01017" lon="-1.08178">
        <ele>50</ele>
        <time>2012-05-03T12:50:09Z</time>
      </trkpt>
      <trkpt lat="47.01014" lon="-1.08172">
        <ele>49</ele>
        <time>2012-05-03T12:50:10Z</time>
      </trkpt>
      <trkpt lat="47.01012" lon="-1.08166">
        <ele>49</ele>
        <time>2012-05-03T12:50:11Z</time>
      </trkpt>
      <trkpt lat="47.0101" lon="-1.08159">
        <ele>49</ele>
        <time>2012-05-03T12:50:12Z</time>
      </trkpt>
      <trkpt lat="47.01008" lon="-1.08154">
        <ele>49</ele>
        <time>2012-05-03T12:50:13Z</time>
      </trkpt>
      <trkpt lat="47.01007" lon="-1.08148">
        <ele>49</ele>
        <time>2012-05-03T12:50:14Z</time>
      </trkpt>
      <trkpt lat="47.01007" lon="-1.08142">
        <ele>49</ele>
        <time>2012-05-03T12:50:15Z</time>
      </trkpt>
      <trkpt lat="47.01008" lon="-1.08136">
        <ele>49</ele>
        <time>2012-05-03T12:50:16Z</time>
      </trkpt>
      <trkpt lat="47.0101" lon="-1.08131">
        <ele>49</ele>
        <time>2012-05-03T12:50:17Z</time>
      </trkpt>
      <trkpt lat="47.01012" lon="-1.08125">
        <ele>49</ele>
        <time>2012-05-03T12:50:18Z</time>
      </trkpt>
      <trkpt lat="47.01014" lon="-1.08119">
        <ele>49</ele>
        <time>2012-05-03T12:50:19Z</time>
      </trkpt>
      <trkpt lat="47.01015" lon="-1.08113">
        <ele>49</ele>
        <time>2012-05-03T12:50:20Z</time>
      </trkpt>
      <trkpt lat="47.01017" lon="-1.08108">
        <ele>49</ele>
        <time>2012-05-03T12:50:21Z</time>
      </trkpt>
      <trkpt lat="47.01018" lon="-1.08102">
        <ele>49</ele>
        <time>2012-05-03T12:50:22Z</time>
      </trkpt>
      <trkpt lat="47.01019" lon="-1.08097">
        <ele>49</ele>
        <time>2012-05-03T12:50:23Z</time>
      </trkpt>
      <trkpt lat="47.01019" lon="-1.08092">
        <ele>49</ele>
        <time>2012-05-03T12:50:24Z</time>
      </trkpt>
      <trkpt lat="47.0102" lon="-1.08087">
        <ele>49</ele>
        <time>2012-05-03T12:50:25Z</time>
      </trkpt>
      <trkpt lat="47.01021" lon="-1.08082">
        <ele>49</ele>
        <time>2012-05-03T12:50:26Z</time>
      </trkpt>
      <trkpt lat="47.01022" lon="-1.08077">
        <ele>49</ele>
        <time>2012-05-03T12:50:27Z</time>
      </trkpt>
      <trkpt lat="47.01022" lon="-1.08072">
        <ele>49</ele>
        <time>2012-05-03T12:50:28Z</time>
      </trkpt>
      <trkpt lat="47.01022" lon="-1.08067">
        <ele>49</ele>
        <time>2012-05-03T12:50:29Z</time>
      </trkpt>
      <trkpt lat="47.01023" lon="-1.08062">
        <ele>49</ele>
        <time>2012-05-03T12:50:30Z</time>
      </trkpt>
      <trkpt lat="47.01022" lon="-1.08057">
        <ele>50</ele>
        <time>2012-05-03T12:50:31Z</time>
      </trkpt>
      <trkpt lat="47.01022" lon="-1.08052">
        <ele>50</ele>
        <time>2012-05-03T12:50:32Z</time>
      </trkpt>
      <trkpt lat="47.01022" lon="-1.08047">
        <ele>51</ele>
        <time>2012-05-03T12:50:33Z</time>
      </trkpt>
      <trkpt lat="47.01022" lon="-1.08042">
        <ele>51</ele>
        <time>2012-05-03T12:50:34Z</time>
      </trkpt>
      <trkpt lat="47.01021" lon="-1.08038">
        <ele>52</ele>
        <time>2012-05-03T12:50:35Z</time>
      </trkpt>
      <trkpt lat="47.01021" lon="-1.08033">
        <ele>52</ele>
        <time>2012-05-03T12:50:36Z</time>
      </trkpt>
      <trkpt lat="47.0102" lon="-1.08029">
        <ele>53</ele>
        <time>2012-05-03T12:50:37Z</time>
      </trkpt>
      <trkpt lat="47.0102" lon="-1.08025">
        <ele>53</ele>
        <time>2012-05-03T12:50:38Z</time>
      </trkpt>
      <trkpt lat="47.01019" lon="-1.0802">
        <ele>54</ele>
        <time>2012-05-03T12:50:39Z</time>
      </trkpt>
      <trkpt lat="47.01019" lon="-1.08016">
        <ele>54</ele>
        <time>2012-05-03T12:50:40Z</time>
      </trkpt>
      <trkpt lat="47.01018" lon="-1.08012">
        <ele>55</ele>
        <time>2012-05-03T12:50:41Z</time>
      </trkpt>
      <trkpt lat="47.01017" lon="-1.08008">
        <ele>55</ele>
        <time>2012-05-03T12:50:42Z</time>
      </trkpt>
      <trkpt lat="47.01015" lon="-1.08003">
        <ele>55</ele>
        <time>2012-05-03T12:50:43Z</time>
      </trkpt>
      <trkpt lat="47.01014" lon="-1.08">
        <ele>56</ele>
        <time>2012-05-03T12:50:44Z</time>
      </trkpt>
      <trkpt lat="47.01012" lon="-1.07996">
        <ele>56</ele>
        <time>2012-05-03T12:50:45Z</time>
      </trkpt>
      <trkpt lat="47.01011" lon="-1.07993">
        <ele>57</ele>
        <time>2012-05-03T12:50:46Z</time>
      </trkpt>
      <trkpt lat="47.01009" lon="-1.0799">
        <ele>57</ele>
        <time>2012-05-03T12:50:47Z</time>
      </trkpt>
      <trkpt lat="47.01008" lon="-1.07986">
        <ele>58</ele>
        <time>2012-05-03T12:50:48Z</time>
      </trkpt>
      <trkpt lat="47.01006" lon="-1.07984">
        <ele>58</ele>
        <time>2012-05-03T12:50:49Z</time>
      </trkpt>
      <trkpt lat="47.01005" lon="-1.07982">
        <ele>58</ele>
        <time>2012-05-03T12:50:50Z</time>
      </trkpt>
      <trkpt lat="47.01004" lon="-1.0798">
        <ele>60</ele>
        <time>2012-05-03T12:50:57Z</time>
      </trkpt>
      <trkpt lat="47.01004" lon="-1.07978">
        <ele>61</ele>
        <time>2012-05-03T12:50:59Z</time>
      </trkpt>
      <trkpt lat="47.01002" lon="-1.07976">
        <ele>61</ele>
        <time>2012-05-03T12:51:01Z</time>
      </trkpt>
      <trkpt lat="47.01001" lon="-1.07973">
        <ele>61</ele>
        <time>2012-05-03T12:51:04Z</time>
      </trkpt>
      <trkpt lat="47.01" lon="-1.07972">
        <ele>61</ele>
        <time>2012-05-03T12:51:05Z</time>
      </trkpt>
      <trkpt lat="47.00999" lon="-1.07969">
        <ele>61</ele>
        <time>2012-05-03T12:51:06Z</time>
      </trkpt>
      <trkpt lat="47.00997" lon="-1.07967">
        <ele>61</ele>
        <time>2012-05-03T12:51:07Z</time>
      </trkpt>
      <trkpt lat="47.00996" lon="-1.07964">
        <ele>62</ele>
        <time>2012-05-03T12:51:08Z</time>
      </trkpt>
      <trkpt lat="47.00994" lon="-1.0796">
        <ele>62</ele>
        <time>2012-05-03T12:51:09Z</time>
      </trkpt>
      <trkpt lat="47.00993" lon="-1.07957">
        <ele>62</ele>
        <time>2012-05-03T12:51:10Z</time>
      </trkpt>
      <trkpt lat="47.00993" lon="-1.07954">
        <ele>63</ele>
        <time>2012-05-03T12:51:11Z</time>
      </trkpt>
      <trkpt lat="47.00991" lon="-1.0795">
        <ele>63</ele>
        <time>2012-05-03T12:51:12Z</time>
      </trkpt>
      <trkpt lat="47.0099" lon="-1.07947">
        <ele>64</ele>
        <time>2012-05-03T12:51:13Z</time>
      </trkpt>
      <trkpt lat="47.00989" lon="-1.07943">
        <ele>64</ele>
        <time>2012-05-03T12:51:14Z</time>
      </trkpt>
      <trkpt lat="47.00987" lon="-1.0794">
        <ele>65</ele>
        <time>2012-05-03T12:51:15Z</time>
      </trkpt>
      <trkpt lat="47.00985" lon="-1.07937">
        <ele>65</ele>
        <time>2012-05-03T12:51:16Z</time>
      </trkpt>
      <trkpt lat="47.00983" lon="-1.07934">
        <ele>65</ele>
        <time>2012-05-03T12:51:17Z</time>
      </trkpt>
      <trkpt lat="47.00982" lon="-1.0793">
        <ele>65</ele>
        <time>2012-05-03T12:51:18Z</time>
      </trkpt>
      <trkpt lat="47.00981" lon="-1.07926">
        <ele>66</ele>
        <time>2012-05-03T12:51:19Z</time>
      </trkpt>
      <trkpt lat="47.0098" lon="-1.07922">
        <ele>66</ele>
        <time>2012-05-03T12:51:20Z</time>
      </trkpt>
      <trkpt lat="47.00979" lon="-1.07919">
        <ele>66</ele>
        <time>2012-05-03T12:51:21Z</time>
      </trkpt>
      <trkpt lat="47.00978" lon="-1.07915">
        <ele>67</ele>
        <time>2012-05-03T12:51:22Z</time>
      </trkpt>
      <trkpt lat="47.00977" lon="-1.07912">
        <ele>67</ele>
        <time>2012-05-03T12:51:23Z</time>
      </trkpt>
      <trkpt lat="47.00976" lon="-1.07908">
        <ele>67</ele>
        <time>2012-05-03T12:51:24Z</time>
      </trkpt>
      <trkpt lat="47.00975" lon="-1.07905">
        <ele>68</ele>
        <time>2012-05-03T12:51:25Z</time>
      </trkpt>
      <trkpt lat="47.00975" lon="-1.07902">
        <ele>68</ele>
        <time>2012-05-03T12:51:26Z</time>
      </trkpt>
      <trkpt lat="47.00974" lon="-1.07898">
        <ele>68</ele>
        <time>2012-05-03T12:51:27Z</time>
      </trkpt>
      <trkpt lat="47.00972" lon="-1.07895">
        <ele>68</ele>
        <time>2012-05-03T12:51:28Z</time>
      </trkpt>
      <trkpt lat="47.00972" lon="-1.07892">
        <ele>69</ele>
        <time>2012-05-03T12:51:29Z</time>
      </trkpt>
      <trkpt lat="47.00971" lon="-1.07888">
        <ele>69</ele>
        <time>2012-05-03T12:51:30Z</time>
      </trkpt>
      <trkpt lat="47.0097" lon="-1.07885">
        <ele>69</ele>
        <time>2012-05-03T12:51:31Z</time>
      </trkpt>
      <trkpt lat="47.00969" lon="-1.07881">
        <ele>69</ele>
        <time>2012-05-03T12:51:32Z</time>
      </trkpt>
      <trkpt lat="47.00968" lon="-1.07878">
        <ele>69</ele>
        <time>2012-05-03T12:51:33Z</time>
      </trkpt>
      <trkpt lat="47.00967" lon="-1.07874">
        <ele>70</ele>
        <time>2012-05-03T12:51:34Z</time>
      </trkpt>
      <trkpt lat="47.00966" lon="-1.0787">
        <ele>70</ele>
        <time>2012-05-03T12:51:35Z</time>
      </trkpt>
      <trkpt lat="47.00965" lon="-1.07866">
        <ele>70</ele>
        <time>2012-05-03T12:51:36Z</time>
      </trkpt>
      <trkpt lat="47.00964" lon="-1.07862">
        <ele>70</ele>
        <time>2012-05-03T12:51:37Z</time>
      </trkpt>
      <trkpt lat="47.00963" lon="-1.07858">
        <ele>71</ele>
        <time>2012-05-03T12:51:38Z</time>
      </trkpt>
      <trkpt lat="47.00962" lon="-1.07854">
        <ele>71</ele>
        <time>2012-05-03T12:51:39Z</time>
      </trkpt>
      <trkpt lat="47.0096" lon="-1.0785">
        <ele>71</ele>
        <time>2012-05-03T12:51:40Z</time>
      </trkpt>
      <trkpt lat="47.00959" lon="-1.07846">
        <ele>71</ele>
        <time>2012-05-03T12:51:41Z</time>
      </trkpt>
      <trkpt lat="47.00958" lon="-1.07842">
        <ele>71</ele>
        <time>2012-05-03T12:51:42Z</time>
      </trkpt>
      <trkpt lat="47.00956" lon="-1.07838">
        <ele>72</ele>
        <time>2012-05-03T12:51:43Z</time>
      </trkpt>
      <trkpt lat="47.00955" lon="-1.07834">
        <ele>72</ele>
        <time>2012-05-03T12:51:44Z</time>
      </trkpt>
      <trkpt lat="47.00954" lon="-1.0783">
        <ele>72</ele>
        <time>2012-05-03T12:51:45Z</time>
      </trkpt>
      <trkpt lat="47.00953" lon="-1.07826">
        <ele>72</ele>
        <time>2012-05-03T12:51:46Z</time>
      </trkpt>
      <trkpt lat="47.00951" lon="-1.07822">
        <ele>72</ele>
        <time>2012-05-03T12:51:47Z</time>
      </trkpt>
      <trkpt lat="47.0095" lon="-1.07818">
        <ele>73</ele>
        <time>2012-05-03T12:51:48Z</time>
      </trkpt>
      <trkpt lat="47.00949" lon="-1.07815">
        <ele>73</ele>
        <time>2012-05-03T12:51:49Z</time>
      </trkpt>
      <trkpt lat="47.00948" lon="-1.0781">
        <ele>73</ele>
        <time>2012-05-03T12:51:50Z</time>
      </trkpt>
      <trkpt lat="47.00947" lon="-1.07806">
        <ele>73</ele>
        <time>2012-05-03T12:51:51Z</time>
      </trkpt>
      <trkpt lat="47.00946" lon="-1.07802">
        <ele>74</ele>
        <time>2012-05-03T12:51:52Z</time>
      </trkpt>
      <trkpt lat="47.00945" lon="-1.07798">
        <ele>74</ele>
        <time>2012-05-03T12:51:53Z</time>
      </trkpt>
      <trkpt lat="47.00943" lon="-1.07793">
        <ele>74</ele>
        <time>2012-05-03T12:51:54Z</time>
      </trkpt>
      <trkpt lat="47.00942" lon="-1.07789">
        <ele>74</ele>
        <time>2012-05-03T12:51:55Z</time>
      </trkpt>
      <trkpt lat="47.00941" lon="-1.07785">
        <ele>75</ele>
        <time>2012-05-03T12:51:56Z</time>
      </trkpt>
      <trkpt lat="47.0094" lon="-1.07781">
        <ele>75</ele>
        <time>2012-05-03T12:51:57Z</time>
      </trkpt>
      <trkpt lat="47.00939" lon="-1.07777">
        <ele>75</ele>
        <time>2012-05-03T12:51:58Z</time>
      </trkpt>
      <trkpt lat="47.00938" lon="-1.07774">
        <ele>75</ele>
        <time>2012-05-03T12:51:59Z</time>
      </trkpt>
      <trkpt lat="47.00937" lon="-1.0777">
        <ele>75</ele>
        <time>2012-05-03T12:52:00Z</time>
      </trkpt>
      <trkpt lat="47.00935" lon="-1.07766">
        <ele>76</ele>
        <time>2012-05-03T12:52:01Z</time>
      </trkpt>
      <trkpt lat="47.00934" lon="-1.07762">
        <ele>76</ele>
        <time>2012-05-03T12:52:02Z</time>
      </trkpt>
      <trkpt lat="47.00933" lon="-1.07758">
        <ele>76</ele>
        <time>2012-05-03T12:52:03Z</time>
      </trkpt>
      <trkpt lat="47.00933" lon="-1.07754">
        <ele>76</ele>
        <time>2012-05-03T12:52:04Z</time>
      </trkpt>
      <trkpt lat="47.00932" lon="-1.0775">
        <ele>76</ele>
        <time>2012-05-03T12:52:05Z</time>
      </trkpt>
      <trkpt lat="47.0093" lon="-1.07746">
        <ele>76</ele>
        <time>2012-05-03T12:52:06Z</time>
      </trkpt>
      <trkpt lat="47.00929" lon="-1.07743">
        <ele>76</ele>
        <time>2012-05-03T12:52:07Z</time>
      </trkpt>
      <trkpt lat="47.00927" lon="-1.0774">
        <ele>76</ele>
        <time>2012-05-03T12:52:08Z</time>
      </trkpt>
      <trkpt lat="47.00924" lon="-1.07737">
        <ele>76</ele>
        <time>2012-05-03T12:52:09Z</time>
      </trkpt>
      <trkpt lat="47.00922" lon="-1.07734">
        <ele>76</ele>
        <time>2012-05-03T12:52:10Z</time>
      </trkpt>
      <trkpt lat="47.0092" lon="-1.07732">
        <ele>76</ele>
        <time>2012-05-03T12:52:11Z</time>
      </trkpt>
      <trkpt lat="47.00917" lon="-1.07729">
        <ele>76</ele>
        <time>2012-05-03T12:52:12Z</time>
      </trkpt>
      <trkpt lat="47.00915" lon="-1.07726">
        <ele>76</ele>
        <time>2012-05-03T12:52:13Z</time>
      </trkpt>
      <trkpt lat="47.00913" lon="-1.07724">
        <ele>76</ele>
        <time>2012-05-03T12:52:14Z</time>
      </trkpt>
      <trkpt lat="47.00911" lon="-1.07721">
        <ele>76</ele>
        <time>2012-05-03T12:52:15Z</time>
      </trkpt>
      <trkpt lat="47.00908" lon="-1.07718">
        <ele>76</ele>
        <time>2012-05-03T12:52:16Z</time>
      </trkpt>
      <trkpt lat="47.00906" lon="-1.07715">
        <ele>76</ele>
        <time>2012-05-03T12:52:17Z</time>
      </trkpt>
      <trkpt lat="47.00903" lon="-1.07712">
        <ele>76</ele>
        <time>2012-05-03T12:52:18Z</time>
      </trkpt>
      <trkpt lat="47.00901" lon="-1.07709">
        <ele>76</ele>
        <time>2012-05-03T12:52:19Z</time>
      </trkpt>
      <trkpt lat="47.00899" lon="-1.07706">
        <ele>76</ele>
        <time>2012-05-03T12:52:20Z</time>
      </trkpt>
      <trkpt lat="47.00897" lon="-1.07703">
        <ele>77</ele>
        <time>2012-05-03T12:52:21Z</time>
      </trkpt>
      <trkpt lat="47.00896" lon="-1.07698">
        <ele>77</ele>
        <time>2012-05-03T12:52:22Z</time>
      </trkpt>
      <trkpt lat="47.00894" lon="-1.07693">
        <ele>77</ele>
        <time>2012-05-03T12:52:23Z</time>
      </trkpt>
      <trkpt lat="47.00893" lon="-1.07689">
        <ele>77</ele>
        <time>2012-05-03T12:52:24Z</time>
      </trkpt>
      <trkpt lat="47.00891" lon="-1.07684">
        <ele>77</ele>
        <time>2012-05-03T12:52:25Z</time>
      </trkpt>
      <trkpt lat="47.00889" lon="-1.07679">
        <ele>77</ele>
        <time>2012-05-03T12:52:26Z</time>
      </trkpt>
      <trkpt lat="47.00888" lon="-1.07674">
        <ele>77</ele>
        <time>2012-05-03T12:52:27Z</time>
      </trkpt>
      <trkpt lat="47.00885" lon="-1.07668">
        <ele>77</ele>
        <time>2012-05-03T12:52:28Z</time>
      </trkpt>
      <trkpt lat="47.00883" lon="-1.07662">
        <ele>77</ele>
        <time>2012-05-03T12:52:29Z</time>
      </trkpt>
      <trkpt lat="47.0088" lon="-1.07656">
        <ele>77</ele>
        <time>2012-05-03T12:52:30Z</time>
      </trkpt>
      <trkpt lat="47.00876" lon="-1.07649">
        <ele>77</ele>
        <time>2012-05-03T12:52:31Z</time>
      </trkpt>
      <trkpt lat="47.00873" lon="-1.07642">
        <ele>77</ele>
        <time>2012-05-03T12:52:32Z</time>
      </trkpt>
      <trkpt lat="47.00869" lon="-1.07636">
        <ele>77</ele>
        <time>2012-05-03T12:52:33Z</time>
      </trkpt>
      <trkpt lat="47.00864" lon="-1.07631">
        <ele>77</ele>
        <time>2012-05-03T12:52:34Z</time>
      </trkpt>
      <trkpt lat="47.00859" lon="-1.07626">
        <ele>77</ele>
        <time>2012-05-03T12:52:35Z</time>
      </trkpt>
      <trkpt lat="47.00855" lon="-1.07622">
        <ele>77</ele>
        <time>2012-05-03T12:52:36Z</time>
      </trkpt>
      <trkpt lat="47.00851" lon="-1.07616">
        <ele>77</ele>
        <time>2012-05-03T12:52:37Z</time>
      </trkpt>
      <trkpt lat="47.00846" lon="-1.07612">
        <ele>77</ele>
        <time>2012-05-03T12:52:38Z</time>
      </trkpt>
      <trkpt lat="47.00842" lon="-1.0761">
        <ele>77</ele>
        <time>2012-05-03T12:52:39Z</time>
      </trkpt>
      <trkpt lat="47.00838" lon="-1.07607">
        <ele>77</ele>
        <time>2012-05-03T12:52:40Z</time>
      </trkpt>
      <trkpt lat="47.00834" lon="-1.07605">
        <ele>78</ele>
        <time>2012-05-03T12:52:41Z</time>
      </trkpt>
      <trkpt lat="47.00831" lon="-1.07603">
        <ele>78</ele>
        <time>2012-05-03T12:52:42Z</time>
      </trkpt>
      <trkpt lat="47.00827" lon="-1.076">
        <ele>78</ele>
        <time>2012-05-03T12:52:43Z</time>
      </trkpt>
      <trkpt lat="47.00825" lon="-1.07595">
        <ele>78</ele>
        <time>2012-05-03T12:52:44Z</time>
      </trkpt>
      <trkpt lat="47.00822" lon="-1.0759">
        <ele>78</ele>
        <time>2012-05-03T12:52:45Z</time>
      </trkpt>
      <trkpt lat="47.00821" lon="-1.07585">
        <ele>79</ele>
        <time>2012-05-03T12:52:46Z</time>
      </trkpt>
      <trkpt lat="47.00819" lon="-1.0758">
        <ele>79</ele>
        <time>2012-05-03T12:52:47Z</time>
      </trkpt>
      <trkpt lat="47.00817" lon="-1.07575">
        <ele>79</ele>
        <time>2012-05-03T12:52:48Z</time>
      </trkpt>
      <trkpt lat="47.00815" lon="-1.07571">
        <ele>79</ele>
        <time>2012-05-03T12:52:49Z</time>
      </trkpt>
      <trkpt lat="47.00814" lon="-1.07566">
        <ele>79</ele>
        <time>2012-05-03T12:52:50Z</time>
      </trkpt>
      <trkpt lat="47.00812" lon="-1.07562">
        <ele>79</ele>
        <time>2012-05-03T12:52:51Z</time>
      </trkpt>
      <trkpt lat="47.00811" lon="-1.07557">
        <ele>79</ele>
        <time>2012-05-03T12:52:52Z</time>
      </trkpt>
      <trkpt lat="47.0081" lon="-1.07552">
        <ele>79</ele>
        <time>2012-05-03T12:52:53Z</time>
      </trkpt>
      <trkpt lat="47.0081" lon="-1.07547">
        <ele>79</ele>
        <time>2012-05-03T12:52:54Z</time>
      </trkpt>
      <trkpt lat="47.00809" lon="-1.07544">
        <ele>79</ele>
        <time>2012-05-03T12:52:55Z</time>
      </trkpt>
      <trkpt lat="47.00808" lon="-1.0754">
        <ele>79</ele>
        <time>2012-05-03T12:52:56Z</time>
      </trkpt>
      <trkpt lat="47.00806" lon="-1.07536">
        <ele>79</ele>
        <time>2012-05-03T12:52:57Z</time>
      </trkpt>
      <trkpt lat="47.00805" lon="-1.07532">
        <ele>79</ele>
        <time>2012-05-03T12:52:58Z</time>
      </trkpt>
      <trkpt lat="47.00803" lon="-1.07527">
        <ele>79</ele>
        <time>2012-05-03T12:52:59Z</time>
      </trkpt>
      <trkpt lat="47.00801" lon="-1.07521">
        <ele>79</ele>
        <time>2012-05-03T12:53:00Z</time>
      </trkpt>
      <trkpt lat="47.00798" lon="-1.07515">
        <ele>79</ele>
        <time>2012-05-03T12:53:01Z</time>
      </trkpt>
      <trkpt lat="47.00796" lon="-1.07509">
        <ele>79</ele>
        <time>2012-05-03T12:53:02Z</time>
      </trkpt>
      <trkpt lat="47.00793" lon="-1.07503">
        <ele>79</ele>
        <time>2012-05-03T12:53:03Z</time>
      </trkpt>
      <trkpt lat="47.00791" lon="-1.07496">
        <ele>79</ele>
        <time>2012-05-03T12:53:04Z</time>
      </trkpt>
      <trkpt lat="47.00788" lon="-1.0749">
        <ele>79</ele>
        <time>2012-05-03T12:53:05Z</time>
      </trkpt>
      <trkpt lat="47.00785" lon="-1.07483">
        <ele>79</ele>
        <time>2012-05-03T12:53:06Z</time>
      </trkpt>
      <trkpt lat="47.00782" lon="-1.07476">
        <ele>79</ele>
        <time>2012-05-03T12:53:07Z</time>
      </trkpt>
      <trkpt lat="47.00779" lon="-1.0747">
        <ele>79</ele>
        <time>2012-05-03T12:53:08Z</time>
      </trkpt>
      <trkpt lat="47.00776" lon="-1.07463">
        <ele>79</ele>
        <time>2012-05-03T12:53:09Z</time>
      </trkpt>
      <trkpt lat="47.00773" lon="-1.07456">
        <ele>79</ele>
        <time>2012-05-03T12:53:10Z</time>
      </trkpt>
      <trkpt lat="47.00771" lon="-1.07449">
        <ele>79</ele>
        <time>2012-05-03T12:53:11Z</time>
      </trkpt>
      <trkpt lat="47.00769" lon="-1.07443">
        <ele>79</ele>
        <time>2012-05-03T12:53:12Z</time>
      </trkpt>
      <trkpt lat="47.00768" lon="-1.07438">
        <ele>79</ele>
        <time>2012-05-03T12:53:13Z</time>
      </trkpt>
      <trkpt lat="47.00766" lon="-1.07431">
        <ele>79</ele>
        <time>2012-05-03T12:53:14Z</time>
      </trkpt>
      <trkpt lat="47.00764" lon="-1.07426">
        <ele>79</ele>
        <time>2012-05-03T12:53:15Z</time>
      </trkpt>
      <trkpt lat="47.00763" lon="-1.0742">
        <ele>79</ele>
        <time>2012-05-03T12:53:16Z</time>
      </trkpt>
      <trkpt lat="47.0076" lon="-1.07414">
        <ele>79</ele>
        <time>2012-05-03T12:53:17Z</time>
      </trkpt>
      <trkpt lat="47.00758" lon="-1.07409">
        <ele>79</ele>
        <time>2012-05-03T12:53:18Z</time>
      </trkpt>
      <trkpt lat="47.00755" lon="-1.07404">
        <ele>79</ele>
        <time>2012-05-03T12:53:19Z</time>
      </trkpt>
      <trkpt lat="47.00753" lon="-1.07398">
        <ele>79</ele>
        <time>2012-05-03T12:53:20Z</time>
      </trkpt>
      <trkpt lat="47.0075" lon="-1.07393">
        <ele>79</ele>
        <time>2012-05-03T12:53:21Z</time>
      </trkpt>
      <trkpt lat="47.00747" lon="-1.07387">
        <ele>79</ele>
        <time>2012-05-03T12:53:22Z</time>
      </trkpt>
      <trkpt lat="47.00743" lon="-1.07381">
        <ele>79</ele>
        <time>2012-05-03T12:53:23Z</time>
      </trkpt>
      <trkpt lat="47.0074" lon="-1.07374">
        <ele>79</ele>
        <time>2012-05-03T12:53:24Z</time>
      </trkpt>
      <trkpt lat="47.00738" lon="-1.07368">
        <ele>79</ele>
        <time>2012-05-03T12:53:25Z</time>
      </trkpt>
      <trkpt lat="47.00735" lon="-1.0736">
        <ele>79</ele>
        <time>2012-05-03T12:53:26Z</time>
      </trkpt>
      <trkpt lat="47.00732" lon="-1.07353">
        <ele>80</ele>
        <time>2012-05-03T12:53:27Z</time>
      </trkpt>
      <trkpt lat="47.00729" lon="-1.07345">
        <ele>80</ele>
        <time>2012-05-03T12:53:28Z</time>
      </trkpt>
      <trkpt lat="47.00727" lon="-1.07339">
        <ele>80</ele>
        <time>2012-05-03T12:53:29Z</time>
      </trkpt>
      <trkpt lat="47.00724" lon="-1.07332">
        <ele>80</ele>
        <time>2012-05-03T12:53:30Z</time>
      </trkpt>
      <trkpt lat="47.00721" lon="-1.07325">
        <ele>80</ele>
        <time>2012-05-03T12:53:31Z</time>
      </trkpt>
      <trkpt lat="47.00718" lon="-1.07317">
        <ele>80</ele>
        <time>2012-05-03T12:53:32Z</time>
      </trkpt>
      <trkpt lat="47.00715" lon="-1.0731">
        <ele>80</ele>
        <time>2012-05-03T12:53:33Z</time>
      </trkpt>
      <trkpt lat="47.00713" lon="-1.07302">
        <ele>80</ele>
        <time>2012-05-03T12:53:34Z</time>
      </trkpt>
      <trkpt lat="47.00709" lon="-1.07295">
        <ele>80</ele>
        <time>2012-05-03T12:53:35Z</time>
      </trkpt>
      <trkpt lat="47.00706" lon="-1.07288">
        <ele>80</ele>
        <time>2012-05-03T12:53:36Z</time>
      </trkpt>
      <trkpt lat="47.00704" lon="-1.07281">
        <ele>80</ele>
        <time>2012-05-03T12:53:37Z</time>
      </trkpt>
      <trkpt lat="47.00702" lon="-1.07273">
        <ele>80</ele>
        <time>2012-05-03T12:53:38Z</time>
      </trkpt>
      <trkpt lat="47.007" lon="-1.07267">
        <ele>80</ele>
        <time>2012-05-03T12:53:39Z</time>
      </trkpt>
      <trkpt lat="47.00698" lon="-1.0726">
        <ele>80</ele>
        <time>2012-05-03T12:53:40Z</time>
      </trkpt>
      <trkpt lat="47.00696" lon="-1.07253">
        <ele>80</ele>
        <time>2012-05-03T12:53:41Z</time>
      </trkpt>
      <trkpt lat="47.00695" lon="-1.07245">
        <ele>80</ele>
        <time>2012-05-03T12:53:42Z</time>
      </trkpt>
      <trkpt lat="47.00693" lon="-1.07238">
        <ele>80</ele>
        <time>2012-05-03T12:53:43Z</time>
      </trkpt>
      <trkpt lat="47.00691" lon="-1.07232">
        <ele>80</ele>
        <time>2012-05-03T12:53:44Z</time>
      </trkpt>
      <trkpt lat="47.00689" lon="-1.07225">
        <ele>80</ele>
        <time>2012-05-03T12:53:45Z</time>
      </trkpt>
      <trkpt lat="47.00688" lon="-1.07218">
        <ele>80</ele>
        <time>2012-05-03T12:53:46Z</time>
      </trkpt>
      <trkpt lat="47.00687" lon="-1.0721">
        <ele>80</ele>
        <time>2012-05-03T12:53:47Z</time>
      </trkpt>
      <trkpt lat="47.00686" lon="-1.07203">
        <ele>80</ele>
        <time>2012-05-03T12:53:48Z</time>
      </trkpt>
      <trkpt lat="47.00685" lon="-1.07196">
        <ele>80</ele>
        <time>2012-05-03T12:53:49Z</time>
      </trkpt>
      <trkpt lat="47.00684" lon="-1.0719">
        <ele>80</ele>
        <time>2012-05-03T12:53:50Z</time>
      </trkpt>
      <trkpt lat="47.00682" lon="-1.07183">
        <ele>80</ele>
        <time>2012-05-03T12:53:51Z</time>
      </trkpt>
      <trkpt lat="47.0068" lon="-1.07177">
        <ele>80</ele>
        <time>2012-05-03T12:53:52Z</time>
      </trkpt>
      <trkpt lat="47.00679" lon="-1.0717">
        <ele>80</ele>
        <time>2012-05-03T12:53:53Z</time>
      </trkpt>
      <trkpt lat="47.00678" lon="-1.07164">
        <ele>80</ele>
        <time>2012-05-03T12:53:54Z</time>
      </trkpt>
      <trkpt lat="47.00676" lon="-1.07157">
        <ele>80</ele>
        <time>2012-05-03T12:53:55Z</time>
      </trkpt>
      <trkpt lat="47.00675" lon="-1.0715">
        <ele>80</ele>
        <time>2012-05-03T12:53:56Z</time>
      </trkpt>
      <trkpt lat="47.00674" lon="-1.07143">
        <ele>80</ele>
        <time>2012-05-03T12:53:57Z</time>
      </trkpt>
      <trkpt lat="47.00672" lon="-1.07136">
        <ele>80</ele>
        <time>2012-05-03T12:53:58Z</time>
      </trkpt>
      <trkpt lat="47.00671" lon="-1.07129">
        <ele>80</ele>
        <time>2012-05-03T12:53:59Z</time>
      </trkpt>
      <trkpt lat="47.0067" lon="-1.07122">
        <ele>80</ele>
        <time>2012-05-03T12:54:00Z</time>
      </trkpt>
      <trkpt lat="47.00669" lon="-1.07115">
        <ele>80</ele>
        <time>2012-05-03T12:54:01Z</time>
      </trkpt>
      <trkpt lat="47.00669" lon="-1.07107">
        <ele>80</ele>
        <time>2012-05-03T12:54:02Z</time>
      </trkpt>
      <trkpt lat="47.00668" lon="-1.071">
        <ele>80</ele>
        <time>2012-05-03T12:54:03Z</time>
      </trkpt>
      <trkpt lat="47.00668" lon="-1.07093">
        <ele>80</ele>
        <time>2012-05-03T12:54:04Z</time>
      </trkpt>
      <trkpt lat="47.00667" lon="-1.07086">
        <ele>80</ele>
        <time>2012-05-03T12:54:05Z</time>
      </trkpt>
      <trkpt lat="47.00667" lon="-1.07079">
        <ele>80</ele>
        <time>2012-05-03T12:54:06Z</time>
      </trkpt>
      <trkpt lat="47.00667" lon="-1.07071">
        <ele>81</ele>
        <time>2012-05-03T12:54:07Z</time>
      </trkpt>
      <trkpt lat="47.00667" lon="-1.07064">
        <ele>81</ele>
        <time>2012-05-03T12:54:08Z</time>
      </trkpt>
      <trkpt lat="47.00666" lon="-1.07057">
        <ele>81</ele>
        <time>2012-05-03T12:54:09Z</time>
      </trkpt>
      <trkpt lat="47.00666" lon="-1.0705">
        <ele>81</ele>
        <time>2012-05-03T12:54:10Z</time>
      </trkpt>
      <trkpt lat="47.00666" lon="-1.07042">
        <ele>81</ele>
        <time>2012-05-03T12:54:11Z</time>
      </trkpt>
      <trkpt lat="47.00666" lon="-1.07035">
        <ele>82</ele>
        <time>2012-05-03T12:54:12Z</time>
      </trkpt>
      <trkpt lat="47.00666" lon="-1.07027">
        <ele>82</ele>
        <time>2012-05-03T12:54:13Z</time>
      </trkpt>
      <trkpt lat="47.00666" lon="-1.07019">
        <ele>82</ele>
        <time>2012-05-03T12:54:14Z</time>
      </trkpt>
      <trkpt lat="47.00665" lon="-1.07011">
        <ele>82</ele>
        <time>2012-05-03T12:54:15Z</time>
      </trkpt>
      <trkpt lat="47.00664" lon="-1.07003">
        <ele>82</ele>
        <time>2012-05-03T12:54:16Z</time>
      </trkpt>
      <trkpt lat="47.00662" lon="-1.06997">
        <ele>82</ele>
        <time>2012-05-03T12:54:17Z</time>
      </trkpt>
      <trkpt lat="47.0066" lon="-1.06991">
        <ele>82</ele>
        <time>2012-05-03T12:54:18Z</time>
      </trkpt>
      <trkpt lat="47.00656" lon="-1.06988">
        <ele>82</ele>
        <time>2012-05-03T12:54:19Z</time>
      </trkpt>
      <trkpt lat="47.00653" lon="-1.06989">
        <ele>82</ele>
        <time>2012-05-03T12:54:20Z</time>
      </trkpt>
      <trkpt lat="47.0065" lon="-1.06993">
        <ele>82</ele>
        <time>2012-05-03T12:54:21Z</time>
      </trkpt>
      <trkpt lat="47.00648" lon="-1.06998">
        <ele>82</ele>
        <time>2012-05-03T12:54:22Z</time>
      </trkpt>
      <trkpt lat="47.00645" lon="-1.07003">
        <ele>82</ele>
        <time>2012-05-03T12:54:23Z</time>
      </trkpt>
      <trkpt lat="47.00642" lon="-1.07009">
        <ele>82</ele>
        <time>2012-05-03T12:54:24Z</time>
      </trkpt>
      <trkpt lat="47.00639" lon="-1.07014">
        <ele>82</ele>
        <time>2012-05-03T12:54:25Z</time>
      </trkpt>
      <trkpt lat="47.00636" lon="-1.0702">
        <ele>82</ele>
        <time>2012-05-03T12:54:26Z</time>
      </trkpt>
      <trkpt lat="47.00633" lon="-1.07025">
        <ele>82</ele>
        <time>2012-05-03T12:54:27Z</time>
      </trkpt>
      <trkpt lat="47.00629" lon="-1.0703">
        <ele>82</ele>
        <time>2012-05-03T12:54:28Z</time>
      </trkpt>
      <trkpt lat="47.00625" lon="-1.07036">
        <ele>82</ele>
        <time>2012-05-03T12:54:29Z</time>
      </trkpt>
      <trkpt lat="47.00621" lon="-1.07041">
        <ele>82</ele>
        <time>2012-05-03T12:54:30Z</time>
      </trkpt>
      <trkpt lat="47.00618" lon="-1.07046">
        <ele>82</ele>
        <time>2012-05-03T12:54:31Z</time>
      </trkpt>
      <trkpt lat="47.00614" lon="-1.07051">
        <ele>83</ele>
        <time>2012-05-03T12:54:32Z</time>
      </trkpt>
      <trkpt lat="47.0061" lon="-1.07055">
        <ele>83</ele>
        <time>2012-05-03T12:54:33Z</time>
      </trkpt>
      <trkpt lat="47.00605" lon="-1.0706">
        <ele>83</ele>
        <time>2012-05-03T12:54:34Z</time>
      </trkpt>
      <trkpt lat="47.00601" lon="-1.07065">
        <ele>83</ele>
        <time>2012-05-03T12:54:35Z</time>
      </trkpt>
      <trkpt lat="47.00596" lon="-1.0707">
        <ele>83</ele>
        <time>2012-05-03T12:54:36Z</time>
      </trkpt>
      <trkpt lat="47.00592" lon="-1.07075">
        <ele>83</ele>
        <time>2012-05-03T12:54:37Z</time>
      </trkpt>
      <trkpt lat="47.00587" lon="-1.0708">
        <ele>83</ele>
        <time>2012-05-03T12:54:38Z</time>
      </trkpt>
      <trkpt lat="47.00583" lon="-1.07086">
        <ele>83</ele>
        <time>2012-05-03T12:54:39Z</time>
      </trkpt>
      <trkpt lat="47.00578" lon="-1.07091">
        <ele>83</ele>
        <time>2012-05-03T12:54:40Z</time>
      </trkpt>
      <trkpt lat="47.00573" lon="-1.07097">
        <ele>83</ele>
        <time>2012-05-03T12:54:41Z</time>
      </trkpt>
      <trkpt lat="47.00568" lon="-1.07102">
        <ele>83</ele>
        <time>2012-05-03T12:54:42Z</time>
      </trkpt>
      <trkpt lat="47.00563" lon="-1.07108">
        <ele>83</ele>
        <time>2012-05-03T12:54:43Z</time>
      </trkpt>
      <trkpt lat="47.00558" lon="-1.07114">
        <ele>83</ele>
        <time>2012-05-03T12:54:44Z</time>
      </trkpt>
      <trkpt lat="47.00552" lon="-1.0712">
        <ele>83</ele>
        <time>2012-05-03T12:54:45Z</time>
      </trkpt>
      <trkpt lat="47.00547" lon="-1.07126">
        <ele>83</ele>
        <time>2012-05-03T12:54:46Z</time>
      </trkpt>
      <trkpt lat="47.00541" lon="-1.07132">
        <ele>83</ele>
        <time>2012-05-03T12:54:47Z</time>
      </trkpt>
      <trkpt lat="47.00536" lon="-1.07138">
        <ele>83</ele>
        <time>2012-05-03T12:54:48Z</time>
      </trkpt>
      <trkpt lat="47.0053" lon="-1.07144">
        <ele>83</ele>
        <time>2012-05-03T12:54:49Z</time>
      </trkpt>
      <trkpt lat="47.00524" lon="-1.07151">
        <ele>83</ele>
        <time>2012-05-03T12:54:50Z</time>
      </trkpt>
      <trkpt lat="47.00518" lon="-1.07158">
        <ele>83</ele>
        <time>2012-05-03T12:54:51Z</time>
      </trkpt>
      <trkpt lat="47.00512" lon="-1.07165">
        <ele>83</ele>
        <time>2012-05-03T12:54:52Z</time>
      </trkpt>
      <trkpt lat="47.00506" lon="-1.07171">
        <ele>83</ele>
        <time>2012-05-03T12:54:53Z</time>
      </trkpt>
      <trkpt lat="47.00499" lon="-1.07178">
        <ele>83</ele>
        <time>2012-05-03T12:54:54Z</time>
      </trkpt>
      <trkpt lat="47.00493" lon="-1.07186">
        <ele>83</ele>
        <time>2012-05-03T12:54:55Z</time>
      </trkpt>
      <trkpt lat="47.00487" lon="-1.07193">
        <ele>83</ele>
        <time>2012-05-03T12:54:56Z</time>
      </trkpt>
      <trkpt lat="47.0048" lon="-1.07201">
        <ele>83</ele>
        <time>2012-05-03T12:54:57Z</time>
      </trkpt>
      <trkpt lat="47.00474" lon="-1.07208">
        <ele>83</ele>
        <time>2012-05-03T12:54:58Z</time>
      </trkpt>
      <trkpt lat="47.00467" lon="-1.07215">
        <ele>83</ele>
        <time>2012-05-03T12:54:59Z</time>
      </trkpt>
      <trkpt lat="47.0046" lon="-1.07223">
        <ele>82</ele>
        <time>2012-05-03T12:55:00Z</time>
      </trkpt>
      <trkpt lat="47.00454" lon="-1.0723">
        <ele>82</ele>
        <time>2012-05-03T12:55:01Z</time>
      </trkpt>
      <trkpt lat="47.00447" lon="-1.07238">
        <ele>81</ele>
        <time>2012-05-03T12:55:02Z</time>
      </trkpt>
      <trkpt lat="47.00439" lon="-1.07245">
        <ele>81</ele>
        <time>2012-05-03T12:55:03Z</time>
      </trkpt>
      <trkpt lat="47.00431" lon="-1.07251">
        <ele>80</ele>
        <time>2012-05-03T12:55:04Z</time>
      </trkpt>
      <trkpt lat="47.00423" lon="-1.07255">
        <ele>80</ele>
        <time>2012-05-03T12:55:05Z</time>
      </trkpt>
      <trkpt lat="47.00414" lon="-1.07258">
        <ele>79</ele>
        <time>2012-05-03T12:55:06Z</time>
      </trkpt>
      <trkpt lat="47.00405" lon="-1.0726">
        <ele>79</ele>
        <time>2012-05-03T12:55:07Z</time>
      </trkpt>
      <trkpt lat="47.00396" lon="-1.0726">
        <ele>79</ele>
        <time>2012-05-03T12:55:08Z</time>
      </trkpt>
      <trkpt lat="47.00387" lon="-1.07261">
        <ele>78</ele>
        <time>2012-05-03T12:55:09Z</time>
      </trkpt>
      <trkpt lat="47.00379" lon="-1.07262">
        <ele>78</ele>
        <time>2012-05-03T12:55:10Z</time>
      </trkpt>
      <trkpt lat="47.00371" lon="-1.07262">
        <ele>78</ele>
        <time>2012-05-03T12:55:11Z</time>
      </trkpt>
      <trkpt lat="47.00363" lon="-1.07263">
        <ele>78</ele>
        <time>2012-05-03T12:55:12Z</time>
      </trkpt>
      <trkpt lat="47.00356" lon="-1.07263">
        <ele>77</ele>
        <time>2012-05-03T12:55:13Z</time>
      </trkpt>
      <trkpt lat="47.00348" lon="-1.07264">
        <ele>77</ele>
        <time>2012-05-03T12:55:14Z</time>
      </trkpt>
      <trkpt lat="47.00341" lon="-1.07264">
        <ele>77</ele>
        <time>2012-05-03T12:55:15Z</time>
      </trkpt>
      <trkpt lat="47.00334" lon="-1.07265">
        <ele>77</ele>
        <time>2012-05-03T12:55:16Z</time>
      </trkpt>
      <trkpt lat="47.00327" lon="-1.07265">
        <ele>77</ele>
        <time>2012-05-03T12:55:17Z</time>
      </trkpt>
      <trkpt lat="47.0032" lon="-1.07266">
        <ele>77</ele>
        <time>2012-05-03T12:55:18Z</time>
      </trkpt>
      <trkpt lat="47.00314" lon="-1.07266">
        <ele>77</ele>
        <time>2012-05-03T12:55:19Z</time>
      </trkpt>
      <trkpt lat="47.00308" lon="-1.07267">
        <ele>77</ele>
        <time>2012-05-03T12:55:20Z</time>
      </trkpt>
      <trkpt lat="47.00302" lon="-1.07268">
        <ele>77</ele>
        <time>2012-05-03T12:55:21Z</time>
      </trkpt>
      <trkpt lat="47.00296" lon="-1.07268">
        <ele>77</ele>
        <time>2012-05-03T12:55:22Z</time>
      </trkpt>
      <trkpt lat="47.0029" lon="-1.07268">
        <ele>77</ele>
        <time>2012-05-03T12:55:23Z</time>
      </trkpt>
      <trkpt lat="47.00284" lon="-1.07269">
        <ele>77</ele>
        <time>2012-05-03T12:55:24Z</time>
      </trkpt>
      <trkpt lat="47.00278" lon="-1.07269">
        <ele>77</ele>
        <time>2012-05-03T12:55:25Z</time>
      </trkpt>
      <trkpt lat="47.00272" lon="-1.0727">
        <ele>77</ele>
        <time>2012-05-03T12:55:26Z</time>
      </trkpt>
      <trkpt lat="47.00266" lon="-1.07271">
        <ele>77</ele>
        <time>2012-05-03T12:55:27Z</time>
      </trkpt>
      <trkpt lat="47.00261" lon="-1.07272">
        <ele>77</ele>
        <time>2012-05-03T12:55:28Z</time>
      </trkpt>
      <trkpt lat="47.00255" lon="-1.07273">
        <ele>77</ele>
        <time>2012-05-03T12:55:29Z</time>
      </trkpt>
      <trkpt lat="47.00249" lon="-1.07275">
        <ele>77</ele>
        <time>2012-05-03T12:55:30Z</time>
      </trkpt>
      <trkpt lat="47.00244" lon="-1.07277">
        <ele>77</ele>
        <time>2012-05-03T12:55:31Z</time>
      </trkpt>
      <trkpt lat="47.00239" lon="-1.07279">
        <ele>77</ele>
        <time>2012-05-03T12:55:32Z</time>
      </trkpt>
      <trkpt lat="47.00233" lon="-1.07281">
        <ele>77</ele>
        <time>2012-05-03T12:55:33Z</time>
      </trkpt>
      <trkpt lat="47.00228" lon="-1.07283">
        <ele>77</ele>
        <time>2012-05-03T12:55:34Z</time>
      </trkpt>
      <trkpt lat="47.00222" lon="-1.07285">
        <ele>77</ele>
        <time>2012-05-03T12:55:35Z</time>
      </trkpt>
      <trkpt lat="47.00217" lon="-1.07287">
        <ele>77</ele>
        <time>2012-05-03T12:55:36Z</time>
      </trkpt>
      <trkpt lat="47.00211" lon="-1.07289">
        <ele>77</ele>
        <time>2012-05-03T12:55:37Z</time>
      </trkpt>
      <trkpt lat="47.00205" lon="-1.07292">
        <ele>77</ele>
        <time>2012-05-03T12:55:38Z</time>
      </trkpt>
      <trkpt lat="47.00199" lon="-1.07294">
        <ele>77</ele>
        <time>2012-05-03T12:55:39Z</time>
      </trkpt>
      <trkpt lat="47.00192" lon="-1.07297">
        <ele>77</ele>
        <time>2012-05-03T12:55:40Z</time>
      </trkpt>
      <trkpt lat="47.00185" lon="-1.073">
        <ele>77</ele>
        <time>2012-05-03T12:55:41Z</time>
      </trkpt>
      <trkpt lat="47.00179" lon="-1.07303">
        <ele>77</ele>
        <time>2012-05-03T12:55:42Z</time>
      </trkpt>
      <trkpt lat="47.00171" lon="-1.07306">
        <ele>77</ele>
        <time>2012-05-03T12:55:43Z</time>
      </trkpt>
      <trkpt lat="47.00163" lon="-1.07309">
        <ele>76</ele>
        <time>2012-05-03T12:55:44Z</time>
      </trkpt>
      <trkpt lat="47.00155" lon="-1.07312">
        <ele>76</ele>
        <time>2012-05-03T12:55:45Z</time>
      </trkpt>
      <trkpt lat="47.00147" lon="-1.07315">
        <ele>75</ele>
        <time>2012-05-03T12:55:46Z</time>
      </trkpt>
      <trkpt lat="47.00138" lon="-1.07318">
        <ele>74</ele>
        <time>2012-05-03T12:55:47Z</time>
      </trkpt>
      <trkpt lat="47.0013" lon="-1.07322">
        <ele>74</ele>
        <time>2012-05-03T12:55:48Z</time>
      </trkpt>
      <trkpt lat="47.00121" lon="-1.07325">
        <ele>73</ele>
        <time>2012-05-03T12:55:49Z</time>
      </trkpt>
      <trkpt lat="47.00112" lon="-1.0733">
        <ele>72</ele>
        <time>2012-05-03T12:55:50Z</time>
      </trkpt>
      <trkpt lat="47.00103" lon="-1.07335">
        <ele>71</ele>
        <time>2012-05-03T12:55:51Z</time>
      </trkpt>
      <trkpt lat="47.00093" lon="-1.0734">
        <ele>71</ele>
        <time>2012-05-03T12:55:52Z</time>
      </trkpt>
      <trkpt lat="47.00084" lon="-1.07345">
        <ele>70</ele>
        <time>2012-05-03T12:55:53Z</time>
      </trkpt>
      <trkpt lat="47.00075" lon="-1.07352">
        <ele>69</ele>
        <time>2012-05-03T12:55:54Z</time>
      </trkpt>
      <trkpt lat="47.00066" lon="-1.07359">
        <ele>69</ele>
        <time>2012-05-03T12:55:55Z</time>
      </trkpt>
      <trkpt lat="47.00057" lon="-1.07365">
        <ele>69</ele>
        <time>2012-05-03T12:55:56Z</time>
      </trkpt>
      <trkpt lat="47.00048" lon="-1.07371">
        <ele>68</ele>
        <time>2012-05-03T12:55:57Z</time>
      </trkpt>
      <trkpt lat="47.00039" lon="-1.07378">
        <ele>68</ele>
        <time>2012-05-03T12:55:58Z</time>
      </trkpt>
      <trkpt lat="47.0003" lon="-1.07385">
        <ele>68</ele>
        <time>2012-05-03T12:55:59Z</time>
      </trkpt>
      <trkpt lat="47.00021" lon="-1.07391">
        <ele>67</ele>
        <time>2012-05-03T12:56:00Z</time>
      </trkpt>
      <trkpt lat="47.00012" lon="-1.07398">
        <ele>66</ele>
        <time>2012-05-03T12:56:01Z</time>
      </trkpt>
      <trkpt lat="47.00003" lon="-1.07404">
        <ele>66</ele>
        <time>2012-05-03T12:56:02Z</time>
      </trkpt>
      <trkpt lat="46.99995" lon="-1.07411">
        <ele>65</ele>
        <time>2012-05-03T12:56:03Z</time>
      </trkpt>
      <trkpt lat="46.99986" lon="-1.07418">
        <ele>64</ele>
        <time>2012-05-03T12:56:04Z</time>
      </trkpt>
      <trkpt lat="46.99977" lon="-1.07424">
        <ele>63</ele>
        <time>2012-05-03T12:56:05Z</time>
      </trkpt>
      <trkpt lat="46.99968" lon="-1.07429">
        <ele>62</ele>
        <time>2012-05-03T12:56:06Z</time>
      </trkpt>
      <trkpt lat="46.99958" lon="-1.07432">
        <ele>61</ele>
        <time>2012-05-03T12:56:07Z</time>
      </trkpt>
      <trkpt lat="46.99949" lon="-1.07433">
        <ele>60</ele>
        <time>2012-05-03T12:56:08Z</time>
      </trkpt>
      <trkpt lat="46.99939" lon="-1.07431">
        <ele>59</ele>
        <time>2012-05-03T12:56:09Z</time>
      </trkpt>
      <trkpt lat="46.99929" lon="-1.07428">
        <ele>58</ele>
        <time>2012-05-03T12:56:10Z</time>
      </trkpt>
      <trkpt lat="46.9992" lon="-1.07424">
        <ele>57</ele>
        <time>2012-05-03T12:56:11Z</time>
      </trkpt>
      <trkpt lat="46.99912" lon="-1.07419">
        <ele>57</ele>
        <time>2012-05-03T12:56:12Z</time>
      </trkpt>
      <trkpt lat="46.99906" lon="-1.07414">
        <ele>56</ele>
        <time>2012-05-03T12:56:13Z</time>
      </trkpt>
      <trkpt lat="46.99901" lon="-1.07408">
        <ele>55</ele>
        <time>2012-05-03T12:56:14Z</time>
      </trkpt>
      <trkpt lat="46.99898" lon="-1.07405">
        <ele>55</ele>
        <time>2012-05-03T12:56:15Z</time>
      </trkpt>
      <trkpt lat="46.99896" lon="-1.07403">
        <ele>55</ele>
        <time>2012-05-03T12:56:16Z</time>
      </trkpt>
      <trkpt lat="46.99894" lon="-1.07399">
        <ele>55</ele>
        <time>2012-05-03T12:56:17Z</time>
      </trkpt>
      <trkpt lat="46.99893" lon="-1.07396">
        <ele>55</ele>
        <time>2012-05-03T12:56:18Z</time>
      </trkpt>
      <trkpt lat="46.99894" lon="-1.07392">
        <ele>55</ele>
        <time>2012-05-03T12:56:19Z</time>
      </trkpt>
      <trkpt lat="46.99896" lon="-1.07388">
        <ele>55</ele>
        <time>2012-05-03T12:56:20Z</time>
      </trkpt>
      <trkpt lat="46.99899" lon="-1.07383">
        <ele>55</ele>
        <time>2012-05-03T12:56:21Z</time>
      </trkpt>
      <trkpt lat="46.99901" lon="-1.07378">
        <ele>55</ele>
        <time>2012-05-03T12:56:22Z</time>
      </trkpt>
      <trkpt lat="46.99903" lon="-1.07374">
        <ele>55</ele>
        <time>2012-05-03T12:56:23Z</time>
      </trkpt>
      <trkpt lat="46.99905" lon="-1.07369">
        <ele>55</ele>
        <time>2012-05-03T12:56:24Z</time>
      </trkpt>
      <trkpt lat="46.99907" lon="-1.07364">
        <ele>55</ele>
        <time>2012-05-03T12:56:25Z</time>
      </trkpt>
      <trkpt lat="46.99909" lon="-1.07359">
        <ele>55</ele>
        <time>2012-05-03T12:56:26Z</time>
      </trkpt>
      <trkpt lat="46.9991" lon="-1.07353">
        <ele>55</ele>
        <time>2012-05-03T12:56:27Z</time>
      </trkpt>
      <trkpt lat="46.99912" lon="-1.07348">
        <ele>55</ele>
        <time>2012-05-03T12:56:28Z</time>
      </trkpt>
      <trkpt lat="46.99913" lon="-1.07343">
        <ele>55</ele>
        <time>2012-05-03T12:56:29Z</time>
      </trkpt>
      <trkpt lat="46.99915" lon="-1.07338">
        <ele>55</ele>
        <time>2012-05-03T12:56:30Z</time>
      </trkpt>
      <trkpt lat="46.99915" lon="-1.07333">
        <ele>55</ele>
        <time>2012-05-03T12:56:31Z</time>
      </trkpt>
      <trkpt lat="46.99916" lon="-1.07327">
        <ele>56</ele>
        <time>2012-05-03T12:56:32Z</time>
      </trkpt>
      <trkpt lat="46.99917" lon="-1.07322">
        <ele>56</ele>
        <time>2012-05-03T12:56:33Z</time>
      </trkpt>
      <trkpt lat="46.99917" lon="-1.07317">
        <ele>57</ele>
        <time>2012-05-03T12:56:34Z</time>
      </trkpt>
      <trkpt lat="46.99918" lon="-1.07312">
        <ele>57</ele>
        <time>2012-05-03T12:56:35Z</time>
      </trkpt>
      <trkpt lat="46.99918" lon="-1.07306">
        <ele>57</ele>
        <time>2012-05-03T12:56:36Z</time>
      </trkpt>
      <trkpt lat="46.99919" lon="-1.07301">
        <ele>58</ele>
        <time>2012-05-03T12:56:37Z</time>
      </trkpt>
      <trkpt lat="46.99919" lon="-1.07296">
        <ele>58</ele>
        <time>2012-05-03T12:56:38Z</time>
      </trkpt>
      <trkpt lat="46.99918" lon="-1.07291">
        <ele>59</ele>
        <time>2012-05-03T12:56:39Z</time>
      </trkpt>
      <trkpt lat="46.99918" lon="-1.07285">
        <ele>59</ele>
        <time>2012-05-03T12:56:40Z</time>
      </trkpt>
      <trkpt lat="46.99918" lon="-1.0728">
        <ele>59</ele>
        <time>2012-05-03T12:56:41Z</time>
      </trkpt>
      <trkpt lat="46.99918" lon="-1.07274">
        <ele>59</ele>
        <time>2012-05-03T12:56:42Z</time>
      </trkpt>
      <trkpt lat="46.99918" lon="-1.07269">
        <ele>60</ele>
        <time>2012-05-03T12:56:43Z</time>
      </trkpt>
      <trkpt lat="46.99918" lon="-1.07263">
        <ele>60</ele>
        <time>2012-05-03T12:56:44Z</time>
      </trkpt>
      <trkpt lat="46.99917" lon="-1.07257">
        <ele>60</ele>
        <time>2012-05-03T12:56:45Z</time>
      </trkpt>
      <trkpt lat="46.99917" lon="-1.07252">
        <ele>60</ele>
        <time>2012-05-03T12:56:46Z</time>
      </trkpt>
      <trkpt lat="46.99916" lon="-1.07246">
        <ele>60</ele>
        <time>2012-05-03T12:56:47Z</time>
      </trkpt>
      <trkpt lat="46.99916" lon="-1.07241">
        <ele>60</ele>
        <time>2012-05-03T12:56:48Z</time>
      </trkpt>
      <trkpt lat="46.99915" lon="-1.07236">
        <ele>60</ele>
        <time>2012-05-03T12:56:49Z</time>
      </trkpt>
      <trkpt lat="46.99915" lon="-1.0723">
        <ele>61</ele>
        <time>2012-05-03T12:56:50Z</time>
      </trkpt>
      <trkpt lat="46.99914" lon="-1.07225">
        <ele>61</ele>
        <time>2012-05-03T12:56:51Z</time>
      </trkpt>
      <trkpt lat="46.99914" lon="-1.07219">
        <ele>61</ele>
        <time>2012-05-03T12:56:52Z</time>
      </trkpt>
      <trkpt lat="46.99913" lon="-1.07214">
        <ele>61</ele>
        <time>2012-05-03T12:56:53Z</time>
      </trkpt>
      <trkpt lat="46.99913" lon="-1.07209">
        <ele>62</ele>
        <time>2012-05-03T12:56:54Z</time>
      </trkpt>
      <trkpt lat="46.99913" lon="-1.07203">
        <ele>62</ele>
        <time>2012-05-03T12:56:55Z</time>
      </trkpt>
      <trkpt lat="46.99912" lon="-1.07198">
        <ele>62</ele>
        <time>2012-05-03T12:56:56Z</time>
      </trkpt>
      <trkpt lat="46.99912" lon="-1.07193">
        <ele>62</ele>
        <time>2012-05-03T12:56:57Z</time>
      </trkpt>
      <trkpt lat="46.99911" lon="-1.07188">
        <ele>62</ele>
        <time>2012-05-03T12:56:58Z</time>
      </trkpt>
      <trkpt lat="46.99911" lon="-1.07183">
        <ele>62</ele>
        <time>2012-05-03T12:56:59Z</time>
      </trkpt>
      <trkpt lat="46.9991" lon="-1.07177">
        <ele>63</ele>
        <time>2012-05-03T12:57:00Z</time>
      </trkpt>
      <trkpt lat="46.9991" lon="-1.07173">
        <ele>63</ele>
        <time>2012-05-03T12:57:01Z</time>
      </trkpt>
      <trkpt lat="46.9991" lon="-1.07167">
        <ele>63</ele>
        <time>2012-05-03T12:57:02Z</time>
      </trkpt>
      <trkpt lat="46.99909" lon="-1.07162">
        <ele>63</ele>
        <time>2012-05-03T12:57:03Z</time>
      </trkpt>
      <trkpt lat="46.99909" lon="-1.07157">
        <ele>63</ele>
        <time>2012-05-03T12:57:04Z</time>
      </trkpt>
      <trkpt lat="46.99909" lon="-1.07152">
        <ele>64</ele>
        <time>2012-05-03T12:57:05Z</time>
      </trkpt>
      <trkpt lat="46.99908" lon="-1.07146">
        <ele>64</ele>
        <time>2012-05-03T12:57:06Z</time>
      </trkpt>
      <trkpt lat="46.99908" lon="-1.07141">
        <ele>64</ele>
        <time>2012-05-03T12:57:07Z</time>
      </trkpt>
      <trkpt lat="46.99908" lon="-1.07136">
        <ele>64</ele>
        <time>2012-05-03T12:57:08Z</time>
      </trkpt>
      <trkpt lat="46.99907" lon="-1.07131">
        <ele>64</ele>
        <time>2012-05-03T12:57:09Z</time>
      </trkpt>
      <trkpt lat="46.99907" lon="-1.07126">
        <ele>65</ele>
        <time>2012-05-03T12:57:10Z</time>
      </trkpt>
      <trkpt lat="46.99906" lon="-1.07121">
        <ele>65</ele>
        <time>2012-05-03T12:57:11Z</time>
      </trkpt>
      <trkpt lat="46.99905" lon="-1.07115">
        <ele>65</ele>
        <time>2012-05-03T12:57:12Z</time>
      </trkpt>
      <trkpt lat="46.99905" lon="-1.0711">
        <ele>65</ele>
        <time>2012-05-03T12:57:13Z</time>
      </trkpt>
      <trkpt lat="46.99904" lon="-1.07105">
        <ele>66</ele>
        <time>2012-05-03T12:57:14Z</time>
      </trkpt>
      <trkpt lat="46.99903" lon="-1.071">
        <ele>66</ele>
        <time>2012-05-03T12:57:15Z</time>
      </trkpt>
      <trkpt lat="46.99902" lon="-1.07095">
        <ele>66</ele>
        <time>2012-05-03T12:57:16Z</time>
      </trkpt>
      <trkpt lat="46.99901" lon="-1.0709">
        <ele>66</ele>
        <time>2012-05-03T12:57:17Z</time>
      </trkpt>
      <trkpt lat="46.999" lon="-1.07085">
        <ele>67</ele>
        <time>2012-05-03T12:57:18Z</time>
      </trkpt>
      <trkpt lat="46.99899" lon="-1.0708">
        <ele>67</ele>
        <time>2012-05-03T12:57:19Z</time>
      </trkpt>
      <trkpt lat="46.99897" lon="-1.07075">
        <ele>67</ele>
        <time>2012-05-03T12:57:20Z</time>
      </trkpt>
      <trkpt lat="46.99896" lon="-1.0707">
        <ele>67</ele>
        <time>2012-05-03T12:57:21Z</time>
      </trkpt>
      <trkpt lat="46.99894" lon="-1.07066">
        <ele>68</ele>
        <time>2012-05-03T12:57:22Z</time>
      </trkpt>
      <trkpt lat="46.99892" lon="-1.07062">
        <ele>68</ele>
        <time>2012-05-03T12:57:23Z</time>
      </trkpt>
      <trkpt lat="46.9989" lon="-1.07057">
        <ele>68</ele>
        <time>2012-05-03T12:57:24Z</time>
      </trkpt>
      <trkpt lat="46.99888" lon="-1.07054">
        <ele>68</ele>
        <time>2012-05-03T12:57:25Z</time>
      </trkpt>
      <trkpt lat="46.99885" lon="-1.0705">
        <ele>69</ele>
        <time>2012-05-03T12:57:26Z</time>
      </trkpt>
      <trkpt lat="46.99883" lon="-1.07047">
        <ele>69</ele>
        <time>2012-05-03T12:57:27Z</time>
      </trkpt>
      <trkpt lat="46.9988" lon="-1.07044">
        <ele>69</ele>
        <time>2012-05-03T12:57:28Z</time>
      </trkpt>
      <trkpt lat="46.99877" lon="-1.07041">
        <ele>70</ele>
        <time>2012-05-03T12:57:29Z</time>
      </trkpt>
      <trkpt lat="46.99874" lon="-1.07038">
        <ele>70</ele>
        <time>2012-05-03T12:57:30Z</time>
      </trkpt>
      <trkpt lat="46.99871" lon="-1.07036">
        <ele>71</ele>
        <time>2012-05-03T12:57:31Z</time>
      </trkpt>
      <trkpt lat="46.99868" lon="-1.07034">
        <ele>71</ele>
        <time>2012-05-03T12:57:32Z</time>
      </trkpt>
      <trkpt lat="46.99865" lon="-1.07032">
        <ele>71</ele>
        <time>2012-05-03T12:57:33Z</time>
      </trkpt>
      <trkpt lat="46.99861" lon="-1.0703">
        <ele>71</ele>
        <time>2012-05-03T12:57:34Z</time>
      </trkpt>
      <trkpt lat="46.99858" lon="-1.07029">
        <ele>72</ele>
        <time>2012-05-03T12:57:35Z</time>
      </trkpt>
      <trkpt lat="46.99855" lon="-1.07027">
        <ele>72</ele>
        <time>2012-05-03T12:57:36Z</time>
      </trkpt>
      <trkpt lat="46.99851" lon="-1.07026">
        <ele>72</ele>
        <time>2012-05-03T12:57:37Z</time>
      </trkpt>
      <trkpt lat="46.99847" lon="-1.07025">
        <ele>72</ele>
        <time>2012-05-03T12:57:38Z</time>
      </trkpt>
      <trkpt lat="46.99844" lon="-1.07024">
        <ele>73</ele>
        <time>2012-05-03T12:57:39Z</time>
      </trkpt>
      <trkpt lat="46.9984" lon="-1.07023">
        <ele>73</ele>
        <time>2012-05-03T12:57:40Z</time>
      </trkpt>
      <trkpt lat="46.99837" lon="-1.07022">
        <ele>73</ele>
        <time>2012-05-03T12:57:41Z</time>
      </trkpt>
      <trkpt lat="46.99833" lon="-1.07021">
        <ele>73</ele>
        <time>2012-05-03T12:57:42Z</time>
      </trkpt>
      <trkpt lat="46.99829" lon="-1.0702">
        <ele>74</ele>
        <time>2012-05-03T12:57:43Z</time>
      </trkpt>
      <trkpt lat="46.99826" lon="-1.07018">
        <ele>74</ele>
        <time>2012-05-03T12:57:44Z</time>
      </trkpt>
      <trkpt lat="46.99822" lon="-1.07017">
        <ele>74</ele>
        <time>2012-05-03T12:57:45Z</time>
      </trkpt>
      <trkpt lat="46.99818" lon="-1.07016">
        <ele>74</ele>
        <time>2012-05-03T12:57:46Z</time>
      </trkpt>
      <trkpt lat="46.99815" lon="-1.07015">
        <ele>75</ele>
        <time>2012-05-03T12:57:47Z</time>
      </trkpt>
      <trkpt lat="46.99811" lon="-1.07014">
        <ele>75</ele>
        <time>2012-05-03T12:57:48Z</time>
      </trkpt>
      <trkpt lat="46.99807" lon="-1.07012">
        <ele>75</ele>
        <time>2012-05-03T12:57:49Z</time>
      </trkpt>
      <trkpt lat="46.99804" lon="-1.07011">
        <ele>75</ele>
        <time>2012-05-03T12:57:50Z</time>
      </trkpt>
      <trkpt lat="46.998" lon="-1.0701">
        <ele>76</ele>
        <time>2012-05-03T12:57:51Z</time>
      </trkpt>
      <trkpt lat="46.99797" lon="-1.07009">
        <ele>76</ele>
        <time>2012-05-03T12:57:52Z</time>
      </trkpt>
      <trkpt lat="46.99793" lon="-1.07007">
        <ele>76</ele>
        <time>2012-05-03T12:57:53Z</time>
      </trkpt>
      <trkpt lat="46.99789" lon="-1.07006">
        <ele>76</ele>
        <time>2012-05-03T12:57:54Z</time>
      </trkpt>
      <trkpt lat="46.99786" lon="-1.07004">
        <ele>76</ele>
        <time>2012-05-03T12:57:55Z</time>
      </trkpt>
      <trkpt lat="46.99782" lon="-1.07002">
        <ele>76</ele>
        <time>2012-05-03T12:57:56Z</time>
      </trkpt>
      <trkpt lat="46.99778" lon="-1.07">
        <ele>76</ele>
        <time>2012-05-03T12:57:57Z</time>
      </trkpt>
      <trkpt lat="46.99775" lon="-1.06998">
        <ele>77</ele>
        <time>2012-05-03T12:57:58Z</time>
      </trkpt>
      <trkpt lat="46.99772" lon="-1.06994">
        <ele>77</ele>
        <time>2012-05-03T12:57:59Z</time>
      </trkpt>
      <trkpt lat="46.9977" lon="-1.06991">
        <ele>77</ele>
        <time>2012-05-03T12:58:00Z</time>
      </trkpt>
      <trkpt lat="46.99767" lon="-1.06986">
        <ele>77</ele>
        <time>2012-05-03T12:58:01Z</time>
      </trkpt>
      <trkpt lat="46.99764" lon="-1.06982">
        <ele>77</ele>
        <time>2012-05-03T12:58:02Z</time>
      </trkpt>
      <trkpt lat="46.99762" lon="-1.06977">
        <ele>77</ele>
        <time>2012-05-03T12:58:03Z</time>
      </trkpt>
      <trkpt lat="46.9976" lon="-1.06972">
        <ele>77</ele>
        <time>2012-05-03T12:58:04Z</time>
      </trkpt>
      <trkpt lat="46.99758" lon="-1.06967">
        <ele>78</ele>
        <time>2012-05-03T12:58:05Z</time>
      </trkpt>
      <trkpt lat="46.99757" lon="-1.06962">
        <ele>78</ele>
        <time>2012-05-03T12:58:06Z</time>
      </trkpt>
      <trkpt lat="46.99756" lon="-1.06956">
        <ele>78</ele>
        <time>2012-05-03T12:58:07Z</time>
      </trkpt>
      <trkpt lat="46.99755" lon="-1.06951">
        <ele>78</ele>
        <time>2012-05-03T12:58:08Z</time>
      </trkpt>
      <trkpt lat="46.99755" lon="-1.06945">
        <ele>78</ele>
        <time>2012-05-03T12:58:09Z</time>
      </trkpt>
      <trkpt lat="46.99755" lon="-1.06939">
        <ele>78</ele>
        <time>2012-05-03T12:58:10Z</time>
      </trkpt>
      <trkpt lat="46.99755" lon="-1.06933">
        <ele>78</ele>
        <time>2012-05-03T12:58:11Z</time>
      </trkpt>
      <trkpt lat="46.99755" lon="-1.06927">
        <ele>78</ele>
        <time>2012-05-03T12:58:12Z</time>
      </trkpt>
      <trkpt lat="46.99755" lon="-1.06921">
        <ele>78</ele>
        <time>2012-05-03T12:58:13Z</time>
      </trkpt>
      <trkpt lat="46.99756" lon="-1.06915">
        <ele>78</ele>
        <time>2012-05-03T12:58:14Z</time>
      </trkpt>
      <trkpt lat="46.99756" lon="-1.06909">
        <ele>78</ele>
        <time>2012-05-03T12:58:15Z</time>
      </trkpt>
      <trkpt lat="46.99756" lon="-1.06903">
        <ele>78</ele>
        <time>2012-05-03T12:58:16Z</time>
      </trkpt>
      <trkpt lat="46.99756" lon="-1.06897">
        <ele>78</ele>
        <time>2012-05-03T12:58:17Z</time>
      </trkpt>
      <trkpt lat="46.99757" lon="-1.06891">
        <ele>78</ele>
        <time>2012-05-03T12:58:18Z</time>
      </trkpt>
      <trkpt lat="46.99757" lon="-1.06885">
        <ele>78</ele>
        <time>2012-05-03T12:58:19Z</time>
      </trkpt>
      <trkpt lat="46.99757" lon="-1.06879">
        <ele>78</ele>
        <time>2012-05-03T12:58:20Z</time>
      </trkpt>
      <trkpt lat="46.99757" lon="-1.06873">
        <ele>78</ele>
        <time>2012-05-03T12:58:21Z</time>
      </trkpt>
      <trkpt lat="46.99759" lon="-1.06867">
        <ele>78</ele>
        <time>2012-05-03T12:58:22Z</time>
      </trkpt>
      <trkpt lat="46.99762" lon="-1.06863">
        <ele>78</ele>
        <time>2012-05-03T12:58:23Z</time>
      </trkpt>
      <trkpt lat="46.99765" lon="-1.0686">
        <ele>78</ele>
        <time>2012-05-03T12:58:24Z</time>
      </trkpt>
      <trkpt lat="46.99768" lon="-1.06859">
        <ele>78</ele>
        <time>2012-05-03T12:58:25Z</time>
      </trkpt>
      <trkpt lat="46.99772" lon="-1.06859">
        <ele>78</ele>
        <time>2012-05-03T12:58:26Z</time>
      </trkpt>
      <trkpt lat="46.99776" lon="-1.0686">
        <ele>78</ele>
        <time>2012-05-03T12:58:27Z</time>
      </trkpt>
      <trkpt lat="46.9978" lon="-1.06861">
        <ele>79</ele>
        <time>2012-05-03T12:58:28Z</time>
      </trkpt>
      <trkpt lat="46.99783" lon="-1.06862">
        <ele>79</ele>
        <time>2012-05-03T12:58:29Z</time>
      </trkpt>
      <trkpt lat="46.99787" lon="-1.06864">
        <ele>79</ele>
        <time>2012-05-03T12:58:30Z</time>
      </trkpt>
      <trkpt lat="46.99791" lon="-1.06866">
        <ele>80</ele>
        <time>2012-05-03T12:58:31Z</time>
      </trkpt>
      <trkpt lat="46.99795" lon="-1.06867">
        <ele>80</ele>
        <time>2012-05-03T12:58:32Z</time>
      </trkpt>
      <trkpt lat="46.99799" lon="-1.06869">
        <ele>80</ele>
        <time>2012-05-03T12:58:33Z</time>
      </trkpt>
      <trkpt lat="46.99802" lon="-1.0687">
        <ele>80</ele>
        <time>2012-05-03T12:58:34Z</time>
      </trkpt>
      <trkpt lat="46.99807" lon="-1.06872">
        <ele>81</ele>
        <time>2012-05-03T12:58:35Z</time>
      </trkpt>
      <trkpt lat="46.99811" lon="-1.06874">
        <ele>81</ele>
        <time>2012-05-03T12:58:36Z</time>
      </trkpt>
      <trkpt lat="46.99815" lon="-1.06875">
        <ele>81</ele>
        <time>2012-05-03T12:58:37Z</time>
      </trkpt>
      <trkpt lat="46.9982" lon="-1.06877">
        <ele>81</ele>
        <time>2012-05-03T12:58:38Z</time>
      </trkpt>
      <trkpt lat="46.99824" lon="-1.06878">
        <ele>81</ele>
        <time>2012-05-03T12:58:39Z</time>
      </trkpt>
      <trkpt lat="46.99829" lon="-1.0688">
        <ele>82</ele>
        <time>2012-05-03T12:58:40Z</time>
      </trkpt>
      <trkpt lat="46.99834" lon="-1.0688">
        <ele>82</ele>
        <time>2012-05-03T12:58:41Z</time>
      </trkpt>
      <trkpt lat="46.9984" lon="-1.06878">
        <ele>82</ele>
        <time>2012-05-03T12:58:42Z</time>
      </trkpt>
      <trkpt lat="46.99845" lon="-1.06874">
        <ele>82</ele>
        <time>2012-05-03T12:58:43Z</time>
      </trkpt>
      <trkpt lat="46.99849" lon="-1.06868">
        <ele>82</ele>
        <time>2012-05-03T12:58:44Z</time>
      </trkpt>
      <trkpt lat="46.99853" lon="-1.06863">
        <ele>82</ele>
        <time>2012-05-03T12:58:45Z</time>
      </trkpt>
      <trkpt lat="46.99858" lon="-1.06858">
        <ele>82</ele>
        <time>2012-05-03T12:58:46Z</time>
      </trkpt>
      <trkpt lat="46.99863" lon="-1.06855">
        <ele>82</ele>
        <time>2012-05-03T12:58:47Z</time>
      </trkpt>
      <trkpt lat="46.99867" lon="-1.06852">
        <ele>82</ele>
        <time>2012-05-03T12:58:48Z</time>
      </trkpt>
      <trkpt lat="46.99871" lon="-1.0685">
        <ele>82</ele>
        <time>2012-05-03T12:58:49Z</time>
      </trkpt>
      <trkpt lat="46.99874" lon="-1.06847">
        <ele>82</ele>
        <time>2012-05-03T12:58:50Z</time>
      </trkpt>
      <trkpt lat="46.99876" lon="-1.06843">
        <ele>82</ele>
        <time>2012-05-03T12:58:51Z</time>
      </trkpt>
      <trkpt lat="46.99878" lon="-1.0684">
        <ele>82</ele>
        <time>2012-05-03T12:58:52Z</time>
      </trkpt>
      <trkpt lat="46.99879" lon="-1.06838">
        <ele>82</ele>
        <time>2012-05-03T12:58:53Z</time>
      </trkpt>
      <trkpt lat="46.9988" lon="-1.06836">
        <ele>82</ele>
        <time>2012-05-03T12:58:54Z</time>
      </trkpt>
      <trkpt lat="46.99881" lon="-1.06834">
        <ele>82</ele>
        <time>2012-05-03T12:58:55Z</time>
      </trkpt>
      <trkpt lat="46.99883" lon="-1.06831">
        <ele>82</ele>
        <time>2012-05-03T12:58:56Z</time>
      </trkpt>
      <trkpt lat="46.99884" lon="-1.06827">
        <ele>82</ele>
        <time>2012-05-03T12:58:57Z</time>
      </trkpt>
      <trkpt lat="46.99886" lon="-1.06822">
        <ele>82</ele>
        <time>2012-05-03T12:58:58Z</time>
      </trkpt>
      <trkpt lat="46.99886" lon="-1.06817">
        <ele>82</ele>
        <time>2012-05-03T12:58:59Z</time>
      </trkpt>
      <trkpt lat="46.99886" lon="-1.06812">
        <ele>82</ele>
        <time>2012-05-03T12:59:00Z</time>
      </trkpt>
      <trkpt lat="46.99887" lon="-1.06807">
        <ele>82</ele>
        <time>2012-05-03T12:59:01Z</time>
      </trkpt>
      <trkpt lat="46.99887" lon="-1.06801">
        <ele>82</ele>
        <time>2012-05-03T12:59:02Z</time>
      </trkpt>
      <trkpt lat="46.99887" lon="-1.06795">
        <ele>82</ele>
        <time>2012-05-03T12:59:03Z</time>
      </trkpt>
      <trkpt lat="46.99888" lon="-1.06789">
        <ele>82</ele>
        <time>2012-05-03T12:59:04Z</time>
      </trkpt>
      <trkpt lat="46.99888" lon="-1.06783">
        <ele>82</ele>
        <time>2012-05-03T12:59:05Z</time>
      </trkpt>
      <trkpt lat="46.99889" lon="-1.06777">
        <ele>82</ele>
        <time>2012-05-03T12:59:06Z</time>
      </trkpt>
      <trkpt lat="46.99889" lon="-1.06771">
        <ele>82</ele>
        <time>2012-05-03T12:59:07Z</time>
      </trkpt>
      <trkpt lat="46.9989" lon="-1.06765">
        <ele>82</ele>
        <time>2012-05-03T12:59:08Z</time>
      </trkpt>
      <trkpt lat="46.99891" lon="-1.06759">
        <ele>82</ele>
        <time>2012-05-03T12:59:09Z</time>
      </trkpt>
      <trkpt lat="46.99891" lon="-1.06753">
        <ele>82</ele>
        <time>2012-05-03T12:59:10Z</time>
      </trkpt>
      <trkpt lat="46.99892" lon="-1.06746">
        <ele>82</ele>
        <time>2012-05-03T12:59:11Z</time>
      </trkpt>
      <trkpt lat="46.99893" lon="-1.0674">
        <ele>82</ele>
        <time>2012-05-03T12:59:12Z</time>
      </trkpt>
      <trkpt lat="46.99894" lon="-1.06734">
        <ele>82</ele>
        <time>2012-05-03T12:59:13Z</time>
      </trkpt>
      <trkpt lat="46.99894" lon="-1.06728">
        <ele>82</ele>
        <time>2012-05-03T12:59:14Z</time>
      </trkpt>
      <trkpt lat="46.99895" lon="-1.06721">
        <ele>82</ele>
        <time>2012-05-03T12:59:15Z</time>
      </trkpt>
      <trkpt lat="46.99895" lon="-1.06716">
        <ele>82</ele>
        <time>2012-05-03T12:59:16Z</time>
      </trkpt>
      <trkpt lat="46.99896" lon="-1.0671">
        <ele>82</ele>
        <time>2012-05-03T12:59:17Z</time>
      </trkpt>
      <trkpt lat="46.99897" lon="-1.06704">
        <ele>82</ele>
        <time>2012-05-03T12:59:18Z</time>
      </trkpt>
      <trkpt lat="46.99898" lon="-1.06698">
        <ele>82</ele>
        <time>2012-05-03T12:59:19Z</time>
      </trkpt>
      <trkpt lat="46.999" lon="-1.06692">
        <ele>82</ele>
        <time>2012-05-03T12:59:20Z</time>
      </trkpt>
      <trkpt lat="46.99901" lon="-1.06686">
        <ele>82</ele>
        <time>2012-05-03T12:59:21Z</time>
      </trkpt>
      <trkpt lat="46.99903" lon="-1.06681">
        <ele>82</ele>
        <time>2012-05-03T12:59:22Z</time>
      </trkpt>
      <trkpt lat="46.99905" lon="-1.06675">
        <ele>82</ele>
        <time>2012-05-03T12:59:23Z</time>
      </trkpt>
      <trkpt lat="46.99907" lon="-1.06669">
        <ele>82</ele>
        <time>2012-05-03T12:59:24Z</time>
      </trkpt>
      <trkpt lat="46.99909" lon="-1.06664">
        <ele>82</ele>
        <time>2012-05-03T12:59:25Z</time>
      </trkpt>
      <trkpt lat="46.99912" lon="-1.06658">
        <ele>82</ele>
        <time>2012-05-03T12:59:26Z</time>
      </trkpt>
      <trkpt lat="46.99914" lon="-1.06653">
        <ele>82</ele>
        <time>2012-05-03T12:59:27Z</time>
      </trkpt>
      <trkpt lat="46.99917" lon="-1.06648">
        <ele>82</ele>
        <time>2012-05-03T12:59:28Z</time>
      </trkpt>
      <trkpt lat="46.9992" lon="-1.06642">
        <ele>82</ele>
        <time>2012-05-03T12:59:29Z</time>
      </trkpt>
      <trkpt lat="46.99922" lon="-1.06637">
        <ele>82</ele>
        <time>2012-05-03T12:59:30Z</time>
      </trkpt>
      <trkpt lat="46.99924" lon="-1.06632">
        <ele>82</ele>
        <time>2012-05-03T12:59:31Z</time>
      </trkpt>
      <trkpt lat="46.99927" lon="-1.06627">
        <ele>82</ele>
        <time>2012-05-03T12:59:32Z</time>
      </trkpt>
      <trkpt lat="46.9993" lon="-1.06622">
        <ele>82</ele>
        <time>2012-05-03T12:59:33Z</time>
      </trkpt>
      <trkpt lat="46.99933" lon="-1.06617">
        <ele>82</ele>
        <time>2012-05-03T12:59:34Z</time>
      </trkpt>
      <trkpt lat="46.99936" lon="-1.06612">
        <ele>82</ele>
        <time>2012-05-03T12:59:35Z</time>
      </trkpt>
      <trkpt lat="46.99939" lon="-1.06607">
        <ele>82</ele>
        <time>2012-05-03T12:59:36Z</time>
      </trkpt>
      <trkpt lat="46.99943" lon="-1.06603">
        <ele>82</ele>
        <time>2012-05-03T12:59:37Z</time>
      </trkpt>
      <trkpt lat="46.99945" lon="-1.06598">
        <ele>82</ele>
        <time>2012-05-03T12:59:38Z</time>
      </trkpt>
      <trkpt lat="46.99949" lon="-1.06594">
        <ele>82</ele>
        <time>2012-05-03T12:59:39Z</time>
      </trkpt>
      <trkpt lat="46.99952" lon="-1.06589">
        <ele>82</ele>
        <time>2012-05-03T12:59:40Z</time>
      </trkpt>
      <trkpt lat="46.99955" lon="-1.06584">
        <ele>82</ele>
        <time>2012-05-03T12:59:41Z</time>
      </trkpt>
      <trkpt lat="46.99958" lon="-1.0658">
        <ele>82</ele>
        <time>2012-05-03T12:59:42Z</time>
      </trkpt>
      <trkpt lat="46.9996" lon="-1.06575">
        <ele>82</ele>
        <time>2012-05-03T12:59:43Z</time>
      </trkpt>
      <trkpt lat="46.99963" lon="-1.0657">
        <ele>82</ele>
        <time>2012-05-03T12:59:44Z</time>
      </trkpt>
      <trkpt lat="46.99966" lon="-1.06566">
        <ele>82</ele>
        <time>2012-05-03T12:59:45Z</time>
      </trkpt>
      <trkpt lat="46.99969" lon="-1.06561">
        <ele>82</ele>
        <time>2012-05-03T12:59:46Z</time>
      </trkpt>
      <trkpt lat="46.99971" lon="-1.06556">
        <ele>82</ele>
        <time>2012-05-03T12:59:47Z</time>
      </trkpt>
      <trkpt lat="46.99973" lon="-1.06551">
        <ele>82</ele>
        <time>2012-05-03T12:59:48Z</time>
      </trkpt>
      <trkpt lat="46.99975" lon="-1.06546">
        <ele>82</ele>
        <time>2012-05-03T12:59:49Z</time>
      </trkpt>
      <trkpt lat="46.99977" lon="-1.06541">
        <ele>82</ele>
        <time>2012-05-03T12:59:50Z</time>
      </trkpt>
      <trkpt lat="46.99979" lon="-1.06535">
        <ele>82</ele>
        <time>2012-05-03T12:59:51Z</time>
      </trkpt>
      <trkpt lat="46.9998" lon="-1.06529">
        <ele>82</ele>
        <time>2012-05-03T12:59:52Z</time>
      </trkpt>
      <trkpt lat="46.99982" lon="-1.06523">
        <ele>82</ele>
        <time>2012-05-03T12:59:53Z</time>
      </trkpt>
      <trkpt lat="46.99983" lon="-1.06517">
        <ele>82</ele>
        <time>2012-05-03T12:59:54Z</time>
      </trkpt>
      <trkpt lat="46.99985" lon="-1.06511">
        <ele>82</ele>
        <time>2012-05-03T12:59:55Z</time>
      </trkpt>
      <trkpt lat="46.99986" lon="-1.06505">
        <ele>82</ele>
        <time>2012-05-03T12:59:56Z</time>
      </trkpt>
      <trkpt lat="46.99988" lon="-1.06499">
        <ele>82</ele>
        <time>2012-05-03T12:59:57Z</time>
      </trkpt>
      <trkpt lat="46.99989" lon="-1.06493">
        <ele>82</ele>
        <time>2012-05-03T12:59:58Z</time>
      </trkpt>
      <trkpt lat="46.99991" lon="-1.06487">
        <ele>82</ele>
        <time>2012-05-03T12:59:59Z</time>
      </trkpt>
      <trkpt lat="46.99993" lon="-1.06481">
        <ele>82</ele>
        <time>2012-05-03T13:00:00Z</time>
      </trkpt>
      <trkpt lat="46.99995" lon="-1.06475">
        <ele>82</ele>
        <time>2012-05-03T13:00:01Z</time>
      </trkpt>
      <trkpt lat="46.99996" lon="-1.0647">
        <ele>82</ele>
        <time>2012-05-03T13:00:02Z</time>
      </trkpt>
      <trkpt lat="46.99998" lon="-1.06464">
        <ele>83</ele>
        <time>2012-05-03T13:00:03Z</time>
      </trkpt>
      <trkpt lat="47" lon="-1.06458">
        <ele>83</ele>
        <time>2012-05-03T13:00:04Z</time>
      </trkpt>
      <trkpt lat="47.00001" lon="-1.06453">
        <ele>83</ele>
        <time>2012-05-03T13:00:05Z</time>
      </trkpt>
      <trkpt lat="47.00002" lon="-1.06448">
        <ele>84</ele>
        <time>2012-05-03T13:00:06Z</time>
      </trkpt>
      <trkpt lat="47.00003" lon="-1.06443">
        <ele>84</ele>
        <time>2012-05-03T13:00:07Z</time>
      </trkpt>
      <trkpt lat="47.00004" lon="-1.06438">
        <ele>85</ele>
        <time>2012-05-03T13:00:08Z</time>
      </trkpt>
      <trkpt lat="47.00005" lon="-1.06432">
        <ele>85</ele>
        <time>2012-05-03T13:00:09Z</time>
      </trkpt>
      <trkpt lat="47.00006" lon="-1.06425">
        <ele>85</ele>
        <time>2012-05-03T13:00:10Z</time>
      </trkpt>
      <trkpt lat="47.00007" lon="-1.06418">
        <ele>86</ele>
        <time>2012-05-03T13:00:11Z</time>
      </trkpt>
      <trkpt lat="47.00007" lon="-1.06412">
        <ele>86</ele>
        <time>2012-05-03T13:00:12Z</time>
      </trkpt>
      <trkpt lat="47.00007" lon="-1.06405">
        <ele>86</ele>
        <time>2012-05-03T13:00:13Z</time>
      </trkpt>
      <trkpt lat="47.00006" lon="-1.06398">
        <ele>86</ele>
        <time>2012-05-03T13:00:14Z</time>
      </trkpt>
      <trkpt lat="47.00006" lon="-1.06392">
        <ele>86</ele>
        <time>2012-05-03T13:00:15Z</time>
      </trkpt>
      <trkpt lat="47.00006" lon="-1.06386">
        <ele>86</ele>
        <time>2012-05-03T13:00:16Z</time>
      </trkpt>
      <trkpt lat="47.00005" lon="-1.06379">
        <ele>87</ele>
        <time>2012-05-03T13:00:17Z</time>
      </trkpt>
      <trkpt lat="47.00005" lon="-1.06373">
        <ele>87</ele>
        <time>2012-05-03T13:00:18Z</time>
      </trkpt>
      <trkpt lat="47.00005" lon="-1.06367">
        <ele>87</ele>
        <time>2012-05-03T13:00:19Z</time>
      </trkpt>
      <trkpt lat="47.00004" lon="-1.0636">
        <ele>87</ele>
        <time>2012-05-03T13:00:20Z</time>
      </trkpt>
      <trkpt lat="47.00004" lon="-1.06354">
        <ele>87</ele>
        <time>2012-05-03T13:00:21Z</time>
      </trkpt>
      <trkpt lat="47.00003" lon="-1.06348">
        <ele>87</ele>
        <time>2012-05-03T13:00:22Z</time>
      </trkpt>
      <trkpt lat="47.00003" lon="-1.06342">
        <ele>87</ele>
        <time>2012-05-03T13:00:23Z</time>
      </trkpt>
      <trkpt lat="47.00002" lon="-1.06336">
        <ele>87</ele>
        <time>2012-05-03T13:00:24Z</time>
      </trkpt>
      <trkpt lat="47.00001" lon="-1.0633">
        <ele>87</ele>
        <time>2012-05-03T13:00:25Z</time>
      </trkpt>
      <trkpt lat="47" lon="-1.06323">
        <ele>87</ele>
        <time>2012-05-03T13:00:26Z</time>
      </trkpt>
      <trkpt lat="47" lon="-1.06317">
        <ele>87</ele>
        <time>2012-05-03T13:00:27Z</time>
      </trkpt>
      <trkpt lat="46.99998" lon="-1.06311">
        <ele>87</ele>
        <time>2012-05-03T13:00:28Z</time>
      </trkpt>
      <trkpt lat="46.99997" lon="-1.06306">
        <ele>87</ele>
        <time>2012-05-03T13:00:29Z</time>
      </trkpt>
      <trkpt lat="46.99996" lon="-1.063">
        <ele>87</ele>
        <time>2012-05-03T13:00:30Z</time>
      </trkpt>
      <trkpt lat="46.99995" lon="-1.06295">
        <ele>87</ele>
        <time>2012-05-03T13:00:31Z</time>
      </trkpt>
      <trkpt lat="46.99993" lon="-1.06289">
        <ele>87</ele>
        <time>2012-05-03T13:00:32Z</time>
      </trkpt>
      <trkpt lat="46.99991" lon="-1.06283">
        <ele>88</ele>
        <time>2012-05-03T13:00:33Z</time>
      </trkpt>
      <trkpt lat="46.99989" lon="-1.06278">
        <ele>88</ele>
        <time>2012-05-03T13:00:34Z</time>
      </trkpt>
      <trkpt lat="46.99986" lon="-1.06272">
        <ele>88</ele>
        <time>2012-05-03T13:00:35Z</time>
      </trkpt>
      <trkpt lat="46.99984" lon="-1.06267">
        <ele>88</ele>
        <time>2012-05-03T13:00:36Z</time>
      </trkpt>
      <trkpt lat="46.99981" lon="-1.06262">
        <ele>88</ele>
        <time>2012-05-03T13:00:37Z</time>
      </trkpt>
      <trkpt lat="46.99979" lon="-1.06256">
        <ele>89</ele>
        <time>2012-05-03T13:00:38Z</time>
      </trkpt>
      <trkpt lat="46.99976" lon="-1.06251">
        <ele>89</ele>
        <time>2012-05-03T13:00:39Z</time>
      </trkpt>
      <trkpt lat="46.99973" lon="-1.06246">
        <ele>89</ele>
        <time>2012-05-03T13:00:40Z</time>
      </trkpt>
      <trkpt lat="46.9997" lon="-1.06241">
        <ele>89</ele>
        <time>2012-05-03T13:00:41Z</time>
      </trkpt>
      <trkpt lat="46.99966" lon="-1.06235">
        <ele>89</ele>
        <time>2012-05-03T13:00:42Z</time>
      </trkpt>
      <trkpt lat="46.99963" lon="-1.0623">
        <ele>89</ele>
        <time>2012-05-03T13:00:43Z</time>
      </trkpt>
      <trkpt lat="46.9996" lon="-1.06225">
        <ele>89</ele>
        <time>2012-05-03T13:00:44Z</time>
      </trkpt>
      <trkpt lat="46.99958" lon="-1.06219">
        <ele>89</ele>
        <time>2012-05-03T13:00:45Z</time>
      </trkpt>
      <trkpt lat="46.99955" lon="-1.06214">
        <ele>89</ele>
        <time>2012-05-03T13:00:46Z</time>
      </trkpt>
      <trkpt lat="46.99952" lon="-1.06208">
        <ele>89</ele>
        <time>2012-05-03T13:00:47Z</time>
      </trkpt>
      <trkpt lat="46.9995" lon="-1.06202">
        <ele>89</ele>
        <time>2012-05-03T13:00:48Z</time>
      </trkpt>
      <trkpt lat="46.99947" lon="-1.06196">
        <ele>89</ele>
        <time>2012-05-03T13:00:49Z</time>
      </trkpt>
      <trkpt lat="46.99945" lon="-1.0619">
        <ele>89</ele>
        <time>2012-05-03T13:00:50Z</time>
      </trkpt>
      <trkpt lat="46.99942" lon="-1.06184">
        <ele>89</ele>
        <time>2012-05-03T13:00:51Z</time>
      </trkpt>
      <trkpt lat="46.9994" lon="-1.06178">
        <ele>89</ele>
        <time>2012-05-03T13:00:52Z</time>
      </trkpt>
      <trkpt lat="46.99938" lon="-1.06172">
        <ele>89</ele>
        <time>2012-05-03T13:00:53Z</time>
      </trkpt>
      <trkpt lat="46.99936" lon="-1.06166">
        <ele>89</ele>
        <time>2012-05-03T13:00:54Z</time>
      </trkpt>
      <trkpt lat="46.99934" lon="-1.0616">
        <ele>89</ele>
        <time>2012-05-03T13:00:55Z</time>
      </trkpt>
      <trkpt lat="46.99932" lon="-1.06154">
        <ele>90</ele>
        <time>2012-05-03T13:00:56Z</time>
      </trkpt>
      <trkpt lat="46.9993" lon="-1.06149">
        <ele>90</ele>
        <time>2012-05-03T13:00:57Z</time>
      </trkpt>
      <trkpt lat="46.99928" lon="-1.06142">
        <ele>90</ele>
        <time>2012-05-03T13:00:58Z</time>
      </trkpt>
      <trkpt lat="46.99926" lon="-1.06136">
        <ele>91</ele>
        <time>2012-05-03T13:00:59Z</time>
      </trkpt>
      <trkpt lat="46.99924" lon="-1.0613">
        <ele>91</ele>
        <time>2012-05-03T13:01:00Z</time>
      </trkpt>
      <trkpt lat="46.99922" lon="-1.06124">
        <ele>91</ele>
        <time>2012-05-03T13:01:01Z</time>
      </trkpt>
      <trkpt lat="46.9992" lon="-1.06119">
        <ele>91</ele>
        <time>2012-05-03T13:01:02Z</time>
      </trkpt>
      <trkpt lat="46.99918" lon="-1.06113">
        <ele>92</ele>
        <time>2012-05-03T13:01:03Z</time>
      </trkpt>
      <trkpt lat="46.99916" lon="-1.06107">
        <ele>92</ele>
        <time>2012-05-03T13:01:04Z</time>
      </trkpt>
      <trkpt lat="46.99913" lon="-1.06102">
        <ele>92</ele>
        <time>2012-05-03T13:01:05Z</time>
      </trkpt>
      <trkpt lat="46.9991" lon="-1.06097">
        <ele>92</ele>
        <time>2012-05-03T13:01:06Z</time>
      </trkpt>
      <trkpt lat="46.99907" lon="-1.06092">
        <ele>92</ele>
        <time>2012-05-03T13:01:07Z</time>
      </trkpt>
      <trkpt lat="46.99904" lon="-1.06087">
        <ele>92</ele>
        <time>2012-05-03T13:01:08Z</time>
      </trkpt>
      <trkpt lat="46.99901" lon="-1.06082">
        <ele>92</ele>
        <time>2012-05-03T13:01:09Z</time>
      </trkpt>
      <trkpt lat="46.99897" lon="-1.06078">
        <ele>92</ele>
        <time>2012-05-03T13:01:10Z</time>
      </trkpt>
      <trkpt lat="46.99894" lon="-1.06073">
        <ele>93</ele>
        <time>2012-05-03T13:01:11Z</time>
      </trkpt>
      <trkpt lat="46.9989" lon="-1.06068">
        <ele>93</ele>
        <time>2012-05-03T13:01:12Z</time>
      </trkpt>
      <trkpt lat="46.99886" lon="-1.06063">
        <ele>93</ele>
        <time>2012-05-03T13:01:13Z</time>
      </trkpt>
      <trkpt lat="46.99883" lon="-1.06059">
        <ele>93</ele>
        <time>2012-05-03T13:01:14Z</time>
      </trkpt>
      <trkpt lat="46.99879" lon="-1.06054">
        <ele>94</ele>
        <time>2012-05-03T13:01:15Z</time>
      </trkpt>
      <trkpt lat="46.99876" lon="-1.06049">
        <ele>94</ele>
        <time>2012-05-03T13:01:16Z</time>
      </trkpt>
      <trkpt lat="46.99873" lon="-1.06043">
        <ele>94</ele>
        <time>2012-05-03T13:01:17Z</time>
      </trkpt>
      <trkpt lat="46.9987" lon="-1.06038">
        <ele>94</ele>
        <time>2012-05-03T13:01:18Z</time>
      </trkpt>
      <trkpt lat="46.99868" lon="-1.06032">
        <ele>95</ele>
        <time>2012-05-03T13:01:19Z</time>
      </trkpt>
      <trkpt lat="46.99865" lon="-1.06027">
        <ele>95</ele>
        <time>2012-05-03T13:01:20Z</time>
      </trkpt>
      <trkpt lat="46.99863" lon="-1.06021">
        <ele>95</ele>
        <time>2012-05-03T13:01:21Z</time>
      </trkpt>
      <trkpt lat="46.9986" lon="-1.06016">
        <ele>95</ele>
        <time>2012-05-03T13:01:22Z</time>
      </trkpt>
      <trkpt lat="46.99858" lon="-1.0601">
        <ele>95</ele>
        <time>2012-05-03T13:01:23Z</time>
      </trkpt>
      <trkpt lat="46.99857" lon="-1.06004">
        <ele>95</ele>
        <time>2012-05-03T13:01:24Z</time>
      </trkpt>
      <trkpt lat="46.99855" lon="-1.05998">
        <ele>95</ele>
        <time>2012-05-03T13:01:25Z</time>
      </trkpt>
      <trkpt lat="46.99852" lon="-1.05992">
        <ele>95</ele>
        <time>2012-05-03T13:01:26Z</time>
      </trkpt>
      <trkpt lat="46.9985" lon="-1.05986">
        <ele>95</ele>
        <time>2012-05-03T13:01:27Z</time>
      </trkpt>
      <trkpt lat="46.99847" lon="-1.0598">
        <ele>95</ele>
        <time>2012-05-03T13:01:28Z</time>
      </trkpt>
      <trkpt lat="46.99845" lon="-1.05974">
        <ele>95</ele>
        <time>2012-05-03T13:01:29Z</time>
      </trkpt>
      <trkpt lat="46.99843" lon="-1.05969">
        <ele>95</ele>
        <time>2012-05-03T13:01:30Z</time>
      </trkpt>
      <trkpt lat="46.99841" lon="-1.05962">
        <ele>95</ele>
        <time>2012-05-03T13:01:31Z</time>
      </trkpt>
      <trkpt lat="46.99839" lon="-1.05956">
        <ele>96</ele>
        <time>2012-05-03T13:01:32Z</time>
      </trkpt>
      <trkpt lat="46.99836" lon="-1.0595">
        <ele>96</ele>
        <time>2012-05-03T13:01:33Z</time>
      </trkpt>
      <trkpt lat="46.99834" lon="-1.05944">
        <ele>96</ele>
        <time>2012-05-03T13:01:34Z</time>
      </trkpt>
      <trkpt lat="46.99832" lon="-1.05938">
        <ele>96</ele>
        <time>2012-05-03T13:01:35Z</time>
      </trkpt>
      <trkpt lat="46.9983" lon="-1.05931">
        <ele>96</ele>
        <time>2012-05-03T13:01:36Z</time>
      </trkpt>
      <trkpt lat="46.99827" lon="-1.05925">
        <ele>97</ele>
        <time>2012-05-03T13:01:37Z</time>
      </trkpt>
      <trkpt lat="46.99825" lon="-1.05919">
        <ele>97</ele>
        <time>2012-05-03T13:01:38Z</time>
      </trkpt>
      <trkpt lat="46.99822" lon="-1.05912">
        <ele>97</ele>
        <time>2012-05-03T13:01:39Z</time>
      </trkpt>
      <trkpt lat="46.99819" lon="-1.05906">
        <ele>97</ele>
        <time>2012-05-03T13:01:40Z</time>
      </trkpt>
      <trkpt lat="46.99817" lon="-1.059">
        <ele>97</ele>
        <time>2012-05-03T13:01:41Z</time>
      </trkpt>
      <trkpt lat="46.99814" lon="-1.05894">
        <ele>97</ele>
        <time>2012-05-03T13:01:42Z</time>
      </trkpt>
      <trkpt lat="46.99811" lon="-1.05888">
        <ele>97</ele>
        <time>2012-05-03T13:01:43Z</time>
      </trkpt>
      <trkpt lat="46.99809" lon="-1.05882">
        <ele>97</ele>
        <time>2012-05-03T13:01:44Z</time>
      </trkpt>
      <trkpt lat="46.99807" lon="-1.05875">
        <ele>98</ele>
        <time>2012-05-03T13:01:45Z</time>
      </trkpt>
      <trkpt lat="46.99804" lon="-1.05869">
        <ele>98</ele>
        <time>2012-05-03T13:01:46Z</time>
      </trkpt>
      <trkpt lat="46.99802" lon="-1.05862">
        <ele>98</ele>
        <time>2012-05-03T13:01:47Z</time>
      </trkpt>
      <trkpt lat="46.99799" lon="-1.05856">
        <ele>98</ele>
        <time>2012-05-03T13:01:48Z</time>
      </trkpt>
      <trkpt lat="46.99797" lon="-1.0585">
        <ele>99</ele>
        <time>2012-05-03T13:01:49Z</time>
      </trkpt>
      <trkpt lat="46.99795" lon="-1.05844">
        <ele>99</ele>
        <time>2012-05-03T13:01:50Z</time>
      </trkpt>
      <trkpt lat="46.99792" lon="-1.05838">
        <ele>99</ele>
        <time>2012-05-03T13:01:51Z</time>
      </trkpt>
      <trkpt lat="46.9979" lon="-1.05831">
        <ele>100</ele>
        <time>2012-05-03T13:01:52Z</time>
      </trkpt>
      <trkpt lat="46.99788" lon="-1.05825">
        <ele>100</ele>
        <time>2012-05-03T13:01:53Z</time>
      </trkpt>
      <trkpt lat="46.99785" lon="-1.05819">
        <ele>100</ele>
        <time>2012-05-03T13:01:54Z</time>
      </trkpt>
      <trkpt lat="46.99783" lon="-1.05813">
        <ele>100</ele>
        <time>2012-05-03T13:01:55Z</time>
      </trkpt>
      <trkpt lat="46.9978" lon="-1.05807">
        <ele>100</ele>
        <time>2012-05-03T13:01:56Z</time>
      </trkpt>
      <trkpt lat="46.99778" lon="-1.05801">
        <ele>100</ele>
        <time>2012-05-03T13:01:57Z</time>
      </trkpt>
      <trkpt lat="46.99775" lon="-1.05795">
        <ele>100</ele>
        <time>2012-05-03T13:01:58Z</time>
      </trkpt>
      <trkpt lat="46.99773" lon="-1.05789">
        <ele>100</ele>
        <time>2012-05-03T13:01:59Z</time>
      </trkpt>
      <trkpt lat="46.9977" lon="-1.05783">
        <ele>100</ele>
        <time>2012-05-03T13:02:00Z</time>
      </trkpt>
      <trkpt lat="46.99768" lon="-1.05777">
        <ele>100</ele>
        <time>2012-05-03T13:02:01Z</time>
      </trkpt>
      <trkpt lat="46.99765" lon="-1.05771">
        <ele>100</ele>
        <time>2012-05-03T13:02:02Z</time>
      </trkpt>
      <trkpt lat="46.99762" lon="-1.05765">
        <ele>100</ele>
        <time>2012-05-03T13:02:03Z</time>
      </trkpt>
      <trkpt lat="46.9976" lon="-1.05761">
        <ele>101</ele>
        <time>2012-05-03T13:02:04Z</time>
      </trkpt>
      <trkpt lat="46.99757" lon="-1.05755">
        <ele>101</ele>
        <time>2012-05-03T13:02:05Z</time>
      </trkpt>
      <trkpt lat="46.99753" lon="-1.05751">
        <ele>101</ele>
        <time>2012-05-03T13:02:06Z</time>
      </trkpt>
      <trkpt lat="46.9975" lon="-1.05746">
        <ele>101</ele>
        <time>2012-05-03T13:02:07Z</time>
      </trkpt>
      <trkpt lat="46.99747" lon="-1.0574">
        <ele>102</ele>
        <time>2012-05-03T13:02:08Z</time>
      </trkpt>
      <trkpt lat="46.99746" lon="-1.05734">
        <ele>102</ele>
        <time>2012-05-03T13:02:09Z</time>
      </trkpt>
      <trkpt lat="46.99746" lon="-1.05728">
        <ele>102</ele>
        <time>2012-05-03T13:02:10Z</time>
      </trkpt>
      <trkpt lat="46.99746" lon="-1.05721">
        <ele>102</ele>
        <time>2012-05-03T13:02:11Z</time>
      </trkpt>
      <trkpt lat="46.99747" lon="-1.05714">
        <ele>102</ele>
        <time>2012-05-03T13:02:12Z</time>
      </trkpt>
      <trkpt lat="46.99749" lon="-1.05708">
        <ele>102</ele>
        <time>2012-05-03T13:02:13Z</time>
      </trkpt>
      <trkpt lat="46.9975" lon="-1.05701">
        <ele>102</ele>
        <time>2012-05-03T13:02:14Z</time>
      </trkpt>
      <trkpt lat="46.99752" lon="-1.05695">
        <ele>102</ele>
        <time>2012-05-03T13:02:15Z</time>
      </trkpt>
      <trkpt lat="46.99753" lon="-1.05688">
        <ele>102</ele>
        <time>2012-05-03T13:02:16Z</time>
      </trkpt>
      <trkpt lat="46.99755" lon="-1.05682">
        <ele>102</ele>
        <time>2012-05-03T13:02:17Z</time>
      </trkpt>
      <trkpt lat="46.99757" lon="-1.05675">
        <ele>103</ele>
        <time>2012-05-03T13:02:18Z</time>
      </trkpt>
      <trkpt lat="46.99758" lon="-1.05668">
        <ele>103</ele>
        <time>2012-05-03T13:02:19Z</time>
      </trkpt>
      <trkpt lat="46.9976" lon="-1.05661">
        <ele>103</ele>
        <time>2012-05-03T13:02:20Z</time>
      </trkpt>
      <trkpt lat="46.99762" lon="-1.05655">
        <ele>103</ele>
        <time>2012-05-03T13:02:21Z</time>
      </trkpt>
      <trkpt lat="46.99764" lon="-1.05648">
        <ele>103</ele>
        <time>2012-05-03T13:02:22Z</time>
      </trkpt>
      <trkpt lat="46.99766" lon="-1.05641">
        <ele>103</ele>
        <time>2012-05-03T13:02:23Z</time>
      </trkpt>
      <trkpt lat="46.99768" lon="-1.05634">
        <ele>103</ele>
        <time>2012-05-03T13:02:24Z</time>
      </trkpt>
      <trkpt lat="46.9977" lon="-1.05627">
        <ele>103</ele>
        <time>2012-05-03T13:02:25Z</time>
      </trkpt>
      <trkpt lat="46.99772" lon="-1.0562">
        <ele>103</ele>
        <time>2012-05-03T13:02:26Z</time>
      </trkpt>
      <trkpt lat="46.99774" lon="-1.05613">
        <ele>103</ele>
        <time>2012-05-03T13:02:27Z</time>
      </trkpt>
      <trkpt lat="46.99776" lon="-1.05605">
        <ele>103</ele>
        <time>2012-05-03T13:02:28Z</time>
      </trkpt>
      <trkpt lat="46.99778" lon="-1.05597">
        <ele>103</ele>
        <time>2012-05-03T13:02:29Z</time>
      </trkpt>
      <trkpt lat="46.9978" lon="-1.0559">
        <ele>103</ele>
        <time>2012-05-03T13:02:30Z</time>
      </trkpt>
      <trkpt lat="46.99782" lon="-1.05582">
        <ele>103</ele>
        <time>2012-05-03T13:02:31Z</time>
      </trkpt>
      <trkpt lat="46.99785" lon="-1.05574">
        <ele>103</ele>
        <time>2012-05-03T13:02:32Z</time>
      </trkpt>
      <trkpt lat="46.99788" lon="-1.05566">
        <ele>103</ele>
        <time>2012-05-03T13:02:33Z</time>
      </trkpt>
      <trkpt lat="46.9979" lon="-1.05557">
        <ele>103</ele>
        <time>2012-05-03T13:02:34Z</time>
      </trkpt>
      <trkpt lat="46.99792" lon="-1.05549">
        <ele>103</ele>
        <time>2012-05-03T13:02:35Z</time>
      </trkpt>
      <trkpt lat="46.99794" lon="-1.05541">
        <ele>103</ele>
        <time>2012-05-03T13:02:36Z</time>
      </trkpt>
      <trkpt lat="46.99796" lon="-1.05533">
        <ele>103</ele>
        <time>2012-05-03T13:02:37Z</time>
      </trkpt>
      <trkpt lat="46.99797" lon="-1.05526">
        <ele>103</ele>
        <time>2012-05-03T13:02:38Z</time>
      </trkpt>
      <trkpt lat="46.99798" lon="-1.05519">
        <ele>103</ele>
        <time>2012-05-03T13:02:39Z</time>
      </trkpt>
      <trkpt lat="46.998" lon="-1.05511">
        <ele>103</ele>
        <time>2012-05-03T13:02:40Z</time>
      </trkpt>
      <trkpt lat="46.99801" lon="-1.05504">
        <ele>103</ele>
        <time>2012-05-03T13:02:41Z</time>
      </trkpt>
      <trkpt lat="46.99802" lon="-1.05496">
        <ele>103</ele>
        <time>2012-05-03T13:02:42Z</time>
      </trkpt>
      <trkpt lat="46.99804" lon="-1.05489">
        <ele>103</ele>
        <time>2012-05-03T13:02:43Z</time>
      </trkpt>
      <trkpt lat="46.99805" lon="-1.05482">
        <ele>103</ele>
        <time>2012-05-03T13:02:44Z</time>
      </trkpt>
      <trkpt lat="46.99806" lon="-1.05475">
        <ele>103</ele>
        <time>2012-05-03T13:02:45Z</time>
      </trkpt>
      <trkpt lat="46.99807" lon="-1.05467">
        <ele>103</ele>
        <time>2012-05-03T13:02:46Z</time>
      </trkpt>
      <trkpt lat="46.99809" lon="-1.0546">
        <ele>103</ele>
        <time>2012-05-03T13:02:47Z</time>
      </trkpt>
      <trkpt lat="46.9981" lon="-1.05453">
        <ele>103</ele>
        <time>2012-05-03T13:02:48Z</time>
      </trkpt>
      <trkpt lat="46.99811" lon="-1.05446">
        <ele>103</ele>
        <time>2012-05-03T13:02:49Z</time>
      </trkpt>
      <trkpt lat="46.99812" lon="-1.05438">
        <ele>103</ele>
        <time>2012-05-03T13:02:50Z</time>
      </trkpt>
      <trkpt lat="46.99812" lon="-1.05431">
        <ele>103</ele>
        <time>2012-05-03T13:02:51Z</time>
      </trkpt>
      <trkpt lat="46.99812" lon="-1.05424">
        <ele>103</ele>
        <time>2012-05-03T13:02:52Z</time>
      </trkpt>
      <trkpt lat="46.99812" lon="-1.05417">
        <ele>103</ele>
        <time>2012-05-03T13:02:53Z</time>
      </trkpt>
      <trkpt lat="46.99812" lon="-1.0541">
        <ele>103</ele>
        <time>2012-05-03T13:02:54Z</time>
      </trkpt>
      <trkpt lat="46.99812" lon="-1.05402">
        <ele>103</ele>
        <time>2012-05-03T13:02:55Z</time>
      </trkpt>
      <trkpt lat="46.99812" lon="-1.05395">
        <ele>104</ele>
        <time>2012-05-03T13:02:56Z</time>
      </trkpt>
      <trkpt lat="46.99811" lon="-1.05388">
        <ele>104</ele>
        <time>2012-05-03T13:02:57Z</time>
      </trkpt>
      <trkpt lat="46.99811" lon="-1.0538">
        <ele>104</ele>
        <time>2012-05-03T13:02:58Z</time>
      </trkpt>
      <trkpt lat="46.99811" lon="-1.05373">
        <ele>104</ele>
        <time>2012-05-03T13:02:59Z</time>
      </trkpt>
      <trkpt lat="46.99811" lon="-1.05366">
        <ele>104</ele>
        <time>2012-05-03T13:03:00Z</time>
      </trkpt>
      <trkpt lat="46.9981" lon="-1.05359">
        <ele>104</ele>
        <time>2012-05-03T13:03:01Z</time>
      </trkpt>
      <trkpt lat="46.9981" lon="-1.05352">
        <ele>104</ele>
        <time>2012-05-03T13:03:02Z</time>
      </trkpt>
      <trkpt lat="46.99809" lon="-1.05346">
        <ele>105</ele>
        <time>2012-05-03T13:03:03Z</time>
      </trkpt>
      <trkpt lat="46.99808" lon="-1.05339">
        <ele>105</ele>
        <time>2012-05-03T13:03:04Z</time>
      </trkpt>
      <trkpt lat="46.99807" lon="-1.05332">
        <ele>105</ele>
        <time>2012-05-03T13:03:05Z</time>
      </trkpt>
      <trkpt lat="46.99806" lon="-1.05325">
        <ele>105</ele>
        <time>2012-05-03T13:03:06Z</time>
      </trkpt>
      <trkpt lat="46.99805" lon="-1.05318">
        <ele>105</ele>
        <time>2012-05-03T13:03:07Z</time>
      </trkpt>
      <trkpt lat="46.99804" lon="-1.05311">
        <ele>105</ele>
        <time>2012-05-03T13:03:08Z</time>
      </trkpt>
      <trkpt lat="46.99803" lon="-1.05304">
        <ele>105</ele>
        <time>2012-05-03T13:03:09Z</time>
      </trkpt>
      <trkpt lat="46.99802" lon="-1.05297">
        <ele>105</ele>
        <time>2012-05-03T13:03:10Z</time>
      </trkpt>
      <trkpt lat="46.998" lon="-1.0529">
        <ele>106</ele>
        <time>2012-05-03T13:03:11Z</time>
      </trkpt>
      <trkpt lat="46.99799" lon="-1.05284">
        <ele>106</ele>
        <time>2012-05-03T13:03:12Z</time>
      </trkpt>
      <trkpt lat="46.99798" lon="-1.05277">
        <ele>106</ele>
        <time>2012-05-03T13:03:13Z</time>
      </trkpt>
      <trkpt lat="46.99796" lon="-1.0527">
        <ele>106</ele>
        <time>2012-05-03T13:03:14Z</time>
      </trkpt>
      <trkpt lat="46.99795" lon="-1.05263">
        <ele>106</ele>
        <time>2012-05-03T13:03:15Z</time>
      </trkpt>
      <trkpt lat="46.99793" lon="-1.05256">
        <ele>106</ele>
        <time>2012-05-03T13:03:16Z</time>
      </trkpt>
      <trkpt lat="46.99792" lon="-1.05249">
        <ele>106</ele>
        <time>2012-05-03T13:03:17Z</time>
      </trkpt>
      <trkpt lat="46.9979" lon="-1.05243">
        <ele>106</ele>
        <time>2012-05-03T13:03:18Z</time>
      </trkpt>
      <trkpt lat="46.99789" lon="-1.05236">
        <ele>106</ele>
        <time>2012-05-03T13:03:19Z</time>
      </trkpt>
      <trkpt lat="46.99787" lon="-1.05229">
        <ele>107</ele>
        <time>2012-05-03T13:03:20Z</time>
      </trkpt>
      <trkpt lat="46.99786" lon="-1.05222">
        <ele>107</ele>
        <time>2012-05-03T13:03:21Z</time>
      </trkpt>
      <trkpt lat="46.99784" lon="-1.05215">
        <ele>107</ele>
        <time>2012-05-03T13:03:22Z</time>
      </trkpt>
      <trkpt lat="46.99783" lon="-1.05208">
        <ele>107</ele>
        <time>2012-05-03T13:03:23Z</time>
      </trkpt>
      <trkpt lat="46.99781" lon="-1.05201">
        <ele>107</ele>
        <time>2012-05-03T13:03:24Z</time>
      </trkpt>
      <trkpt lat="46.9978" lon="-1.05194">
        <ele>107</ele>
        <time>2012-05-03T13:03:25Z</time>
      </trkpt>
      <trkpt lat="46.99778" lon="-1.05188">
        <ele>107</ele>
        <time>2012-05-03T13:03:26Z</time>
      </trkpt>
      <trkpt lat="46.99776" lon="-1.05181">
        <ele>107</ele>
        <time>2012-05-03T13:03:27Z</time>
      </trkpt>
      <trkpt lat="46.99775" lon="-1.05174">
        <ele>108</ele>
        <time>2012-05-03T13:03:28Z</time>
      </trkpt>
      <trkpt lat="46.99773" lon="-1.05168">
        <ele>108</ele>
        <time>2012-05-03T13:03:29Z</time>
      </trkpt>
      <trkpt lat="46.99771" lon="-1.05161">
        <ele>108</ele>
        <time>2012-05-03T13:03:30Z</time>
      </trkpt>
      <trkpt lat="46.99769" lon="-1.05155">
        <ele>108</ele>
        <time>2012-05-03T13:03:31Z</time>
      </trkpt>
      <trkpt lat="46.99767" lon="-1.05148">
        <ele>108</ele>
        <time>2012-05-03T13:03:32Z</time>
      </trkpt>
      <trkpt lat="46.99765" lon="-1.05141">
        <ele>108</ele>
        <time>2012-05-03T13:03:33Z</time>
      </trkpt>
      <trkpt lat="46.99763" lon="-1.05134">
        <ele>108</ele>
        <time>2012-05-03T13:03:34Z</time>
      </trkpt>
      <trkpt lat="46.99761" lon="-1.05127">
        <ele>108</ele>
        <time>2012-05-03T13:03:35Z</time>
      </trkpt>
      <trkpt lat="46.9976" lon="-1.0512">
        <ele>108</ele>
        <time>2012-05-03T13:03:36Z</time>
      </trkpt>
      <trkpt lat="46.99759" lon="-1.05113">
        <ele>108</ele>
        <time>2012-05-03T13:03:37Z</time>
      </trkpt>
      <trkpt lat="46.99758" lon="-1.05105">
        <ele>108</ele>
        <time>2012-05-03T13:03:38Z</time>
      </trkpt>
      <trkpt lat="46.99757" lon="-1.05098">
        <ele>108</ele>
        <time>2012-05-03T13:03:39Z</time>
      </trkpt>
      <trkpt lat="46.99757" lon="-1.05091">
        <ele>108</ele>
        <time>2012-05-03T13:03:40Z</time>
      </trkpt>
      <trkpt lat="46.99757" lon="-1.05084">
        <ele>108</ele>
        <time>2012-05-03T13:03:41Z</time>
      </trkpt>
      <trkpt lat="46.99756" lon="-1.05077">
        <ele>108</ele>
        <time>2012-05-03T13:03:42Z</time>
      </trkpt>
      <trkpt lat="46.99755" lon="-1.0507">
        <ele>109</ele>
        <time>2012-05-03T13:03:43Z</time>
      </trkpt>
      <trkpt lat="46.99754" lon="-1.05064">
        <ele>109</ele>
        <time>2012-05-03T13:03:44Z</time>
      </trkpt>
      <trkpt lat="46.99754" lon="-1.05057">
        <ele>109</ele>
        <time>2012-05-03T13:03:45Z</time>
      </trkpt>
      <trkpt lat="46.99753" lon="-1.0505">
        <ele>109</ele>
        <time>2012-05-03T13:03:46Z</time>
      </trkpt>
      <trkpt lat="46.99753" lon="-1.05043">
        <ele>109</ele>
        <time>2012-05-03T13:03:47Z</time>
      </trkpt>
      <trkpt lat="46.99752" lon="-1.05036">
        <ele>109</ele>
        <time>2012-05-03T13:03:48Z</time>
      </trkpt>
      <trkpt lat="46.99752" lon="-1.05029">
        <ele>109</ele>
        <time>2012-05-03T13:03:49Z</time>
      </trkpt>
      <trkpt lat="46.99752" lon="-1.05022">
        <ele>109</ele>
        <time>2012-05-03T13:03:50Z</time>
      </trkpt>
      <trkpt lat="46.99751" lon="-1.05015">
        <ele>110</ele>
        <time>2012-05-03T13:03:51Z</time>
      </trkpt>
      <trkpt lat="46.99751" lon="-1.05009">
        <ele>110</ele>
        <time>2012-05-03T13:03:52Z</time>
      </trkpt>
      <trkpt lat="46.9975" lon="-1.05002">
        <ele>110</ele>
        <time>2012-05-03T13:03:53Z</time>
      </trkpt>
      <trkpt lat="46.9975" lon="-1.04995">
        <ele>110</ele>
        <time>2012-05-03T13:03:54Z</time>
      </trkpt>
      <trkpt lat="46.99751" lon="-1.04989">
        <ele>110</ele>
        <time>2012-05-03T13:03:55Z</time>
      </trkpt>
      <trkpt lat="46.99751" lon="-1.04982">
        <ele>110</ele>
        <time>2012-05-03T13:03:56Z</time>
      </trkpt>
      <trkpt lat="46.99752" lon="-1.04976">
        <ele>110</ele>
        <time>2012-05-03T13:03:57Z</time>
      </trkpt>
      <trkpt lat="46.99752" lon="-1.0497">
        <ele>110</ele>
        <time>2012-05-03T13:03:58Z</time>
      </trkpt>
      <trkpt lat="46.99752" lon="-1.04964">
        <ele>111</ele>
        <time>2012-05-03T13:03:59Z</time>
      </trkpt>
      <trkpt lat="46.9975" lon="-1.04958">
        <ele>111</ele>
        <time>2012-05-03T13:04:00Z</time>
      </trkpt>
      <trkpt lat="46.99747" lon="-1.04954">
        <ele>111</ele>
        <time>2012-05-03T13:04:01Z</time>
      </trkpt>
      <trkpt lat="46.99745" lon="-1.0495">
        <ele>111</ele>
        <time>2012-05-03T13:04:02Z</time>
      </trkpt>
      <trkpt lat="46.99742" lon="-1.04947">
        <ele>111</ele>
        <time>2012-05-03T13:04:03Z</time>
      </trkpt>
      <trkpt lat="46.99741" lon="-1.04943">
        <ele>111</ele>
        <time>2012-05-03T13:04:04Z</time>
      </trkpt>
      <trkpt lat="46.99738" lon="-1.04939">
        <ele>111</ele>
        <time>2012-05-03T13:04:05Z</time>
      </trkpt>
      <trkpt lat="46.99736" lon="-1.04936">
        <ele>111</ele>
        <time>2012-05-03T13:04:06Z</time>
      </trkpt>
      <trkpt lat="46.99733" lon="-1.04932">
        <ele>111</ele>
        <time>2012-05-03T13:04:07Z</time>
      </trkpt>
      <trkpt lat="46.99731" lon="-1.04928">
        <ele>111</ele>
        <time>2012-05-03T13:04:08Z</time>
      </trkpt>
      <trkpt lat="46.99728" lon="-1.04924">
        <ele>111</ele>
        <time>2012-05-03T13:04:09Z</time>
      </trkpt>
      <trkpt lat="46.99725" lon="-1.04922">
        <ele>111</ele>
        <time>2012-05-03T13:04:10Z</time>
      </trkpt>
      <trkpt lat="46.99722" lon="-1.0492">
        <ele>111</ele>
        <time>2012-05-03T13:04:11Z</time>
      </trkpt>
      <trkpt lat="46.99718" lon="-1.0492">
        <ele>111</ele>
        <time>2012-05-03T13:04:12Z</time>
      </trkpt>
      <trkpt lat="46.99715" lon="-1.0492">
        <ele>112</ele>
        <time>2012-05-03T13:04:13Z</time>
      </trkpt>
      <trkpt lat="46.99712" lon="-1.04921">
        <ele>112</ele>
        <time>2012-05-03T13:04:14Z</time>
      </trkpt>
      <trkpt lat="46.99708" lon="-1.04921">
        <ele>112</ele>
        <time>2012-05-03T13:04:15Z</time>
      </trkpt>
      <trkpt lat="46.99705" lon="-1.04922">
        <ele>112</ele>
        <time>2012-05-03T13:04:16Z</time>
      </trkpt>
      <trkpt lat="46.99702" lon="-1.04922">
        <ele>112</ele>
        <time>2012-05-03T13:04:17Z</time>
      </trkpt>
      <trkpt lat="46.99698" lon="-1.04922">
        <ele>112</ele>
        <time>2012-05-03T13:04:18Z</time>
      </trkpt>
      <trkpt lat="46.99695" lon="-1.04922">
        <ele>112</ele>
        <time>2012-05-03T13:04:19Z</time>
      </trkpt>
      <trkpt lat="46.99691" lon="-1.04922">
        <ele>112</ele>
        <time>2012-05-03T13:04:20Z</time>
      </trkpt>
      <trkpt lat="46.99687" lon="-1.04922">
        <ele>112</ele>
        <time>2012-05-03T13:04:21Z</time>
      </trkpt>
      <trkpt lat="46.99683" lon="-1.04922">
        <ele>112</ele>
        <time>2012-05-03T13:04:22Z</time>
      </trkpt>
      <trkpt lat="46.99679" lon="-1.04921">
        <ele>112</ele>
        <time>2012-05-03T13:04:23Z</time>
      </trkpt>
      <trkpt lat="46.99676" lon="-1.04921">
        <ele>112</ele>
        <time>2012-05-03T13:04:24Z</time>
      </trkpt>
      <trkpt lat="46.99672" lon="-1.0492">
        <ele>112</ele>
        <time>2012-05-03T13:04:25Z</time>
      </trkpt>
      <trkpt lat="46.99669" lon="-1.0492">
        <ele>112</ele>
        <time>2012-05-03T13:04:26Z</time>
      </trkpt>
      <trkpt lat="46.99665" lon="-1.04919">
        <ele>112</ele>
        <time>2012-05-03T13:04:27Z</time>
      </trkpt>
      <trkpt lat="46.99661" lon="-1.04918">
        <ele>112</ele>
        <time>2012-05-03T13:04:28Z</time>
      </trkpt>
      <trkpt lat="46.99658" lon="-1.04917">
        <ele>112</ele>
        <time>2012-05-03T13:04:29Z</time>
      </trkpt>
      <trkpt lat="46.99655" lon="-1.04917">
        <ele>112</ele>
        <time>2012-05-03T13:04:30Z</time>
      </trkpt>
      <trkpt lat="46.99651" lon="-1.04917">
        <ele>113</ele>
        <time>2012-05-03T13:04:31Z</time>
      </trkpt>
      <trkpt lat="46.99648" lon="-1.04917">
        <ele>113</ele>
        <time>2012-05-03T13:04:32Z</time>
      </trkpt>
      <trkpt lat="46.99644" lon="-1.04918">
        <ele>113</ele>
        <time>2012-05-03T13:04:33Z</time>
      </trkpt>
      <trkpt lat="46.99641" lon="-1.04918">
        <ele>114</ele>
        <time>2012-05-03T13:04:34Z</time>
      </trkpt>
      <trkpt lat="46.99637" lon="-1.04919">
        <ele>114</ele>
        <time>2012-05-03T13:04:35Z</time>
      </trkpt>
      <trkpt lat="46.99632" lon="-1.04919">
        <ele>115</ele>
        <time>2012-05-03T13:04:36Z</time>
      </trkpt>
      <trkpt lat="46.99628" lon="-1.04919">
        <ele>115</ele>
        <time>2012-05-03T13:04:37Z</time>
      </trkpt>
      <trkpt lat="46.99623" lon="-1.04918">
        <ele>115</ele>
        <time>2012-05-03T13:04:38Z</time>
      </trkpt>
      <trkpt lat="46.99619" lon="-1.04917">
        <ele>115</ele>
        <time>2012-05-03T13:04:39Z</time>
      </trkpt>
      <trkpt lat="46.99615" lon="-1.04917">
        <ele>116</ele>
        <time>2012-05-03T13:04:40Z</time>
      </trkpt>
      <trkpt lat="46.9961" lon="-1.04917">
        <ele>116</ele>
        <time>2012-05-03T13:04:41Z</time>
      </trkpt>
      <trkpt lat="46.99606" lon="-1.04917">
        <ele>116</ele>
        <time>2012-05-03T13:04:42Z</time>
      </trkpt>
      <trkpt lat="46.99601" lon="-1.04917">
        <ele>116</ele>
        <time>2012-05-03T13:04:43Z</time>
      </trkpt>
      <trkpt lat="46.99596" lon="-1.04917">
        <ele>116</ele>
        <time>2012-05-03T13:04:44Z</time>
      </trkpt>
      <trkpt lat="46.99591" lon="-1.04918">
        <ele>116</ele>
        <time>2012-05-03T13:04:45Z</time>
      </trkpt>
      <trkpt lat="46.99586" lon="-1.04919">
        <ele>116</ele>
        <time>2012-05-03T13:04:46Z</time>
      </trkpt>
      <trkpt lat="46.99581" lon="-1.0492">
        <ele>116</ele>
        <time>2012-05-03T13:04:47Z</time>
      </trkpt>
      <trkpt lat="46.99576" lon="-1.0492">
        <ele>116</ele>
        <time>2012-05-03T13:04:48Z</time>
      </trkpt>
      <trkpt lat="46.99571" lon="-1.04921">
        <ele>116</ele>
        <time>2012-05-03T13:04:49Z</time>
      </trkpt>
      <trkpt lat="46.99567" lon="-1.0492">
        <ele>116</ele>
        <time>2012-05-03T13:04:50Z</time>
      </trkpt>
      <trkpt lat="46.99564" lon="-1.04919">
        <ele>116</ele>
        <time>2012-05-03T13:04:51Z</time>
      </trkpt>
      <trkpt lat="46.99561" lon="-1.04918">
        <ele>116</ele>
        <time>2012-05-03T13:04:52Z</time>
      </trkpt>
      <trkpt lat="46.99559" lon="-1.04916">
        <ele>116</ele>
        <time>2012-05-03T13:04:53Z</time>
      </trkpt>
      <trkpt lat="46.99556" lon="-1.04915">
        <ele>116</ele>
        <time>2012-05-03T13:04:54Z</time>
      </trkpt>
      <trkpt lat="46.99553" lon="-1.04913">
        <ele>116</ele>
        <time>2012-05-03T13:04:55Z</time>
      </trkpt>
      <trkpt lat="46.9955" lon="-1.04911">
        <ele>116</ele>
        <time>2012-05-03T13:04:56Z</time>
      </trkpt>
      <trkpt lat="46.99548" lon="-1.04909">
        <ele>116</ele>
        <time>2012-05-03T13:04:57Z</time>
      </trkpt>
      <trkpt lat="46.99545" lon="-1.04907">
        <ele>116</ele>
        <time>2012-05-03T13:04:58Z</time>
      </trkpt>
      <trkpt lat="46.99542" lon="-1.04904">
        <ele>116</ele>
        <time>2012-05-03T13:04:59Z</time>
      </trkpt>
      <trkpt lat="46.99538" lon="-1.04902">
        <ele>116</ele>
        <time>2012-05-03T13:05:00Z</time>
      </trkpt>
      <trkpt lat="46.99533" lon="-1.049">
        <ele>116</ele>
        <time>2012-05-03T13:05:01Z</time>
      </trkpt>
      <trkpt lat="46.99529" lon="-1.04898">
        <ele>116</ele>
        <time>2012-05-03T13:05:02Z</time>
      </trkpt>
      <trkpt lat="46.99524" lon="-1.04896">
        <ele>116</ele>
        <time>2012-05-03T13:05:03Z</time>
      </trkpt>
      <trkpt lat="46.9952" lon="-1.04895">
        <ele>116</ele>
        <time>2012-05-03T13:05:04Z</time>
      </trkpt>
      <trkpt lat="46.99516" lon="-1.04893">
        <ele>116</ele>
        <time>2012-05-03T13:05:05Z</time>
      </trkpt>
      <trkpt lat="46.99512" lon="-1.04892">
        <ele>116</ele>
        <time>2012-05-03T13:05:06Z</time>
      </trkpt>
      <trkpt lat="46.99508" lon="-1.0489">
        <ele>116</ele>
        <time>2012-05-03T13:05:07Z</time>
      </trkpt>
      <trkpt lat="46.99503" lon="-1.04888">
        <ele>116</ele>
        <time>2012-05-03T13:05:08Z</time>
      </trkpt>
      <trkpt lat="46.995" lon="-1.04887">
        <ele>116</ele>
        <time>2012-05-03T13:05:09Z</time>
      </trkpt>
      <trkpt lat="46.99495" lon="-1.04886">
        <ele>116</ele>
        <time>2012-05-03T13:05:10Z</time>
      </trkpt>
      <trkpt lat="46.99492" lon="-1.04885">
        <ele>116</ele>
        <time>2012-05-03T13:05:11Z</time>
      </trkpt>
      <trkpt lat="46.99488" lon="-1.04883">
        <ele>116</ele>
        <time>2012-05-03T13:05:12Z</time>
      </trkpt>
      <trkpt lat="46.99484" lon="-1.04881">
        <ele>116</ele>
        <time>2012-05-03T13:05:13Z</time>
      </trkpt>
      <trkpt lat="46.9948" lon="-1.04878">
        <ele>116</ele>
        <time>2012-05-03T13:05:14Z</time>
      </trkpt>
      <trkpt lat="46.99477" lon="-1.04876">
        <ele>116</ele>
        <time>2012-05-03T13:05:15Z</time>
      </trkpt>
      <trkpt lat="46.99473" lon="-1.04873">
        <ele>116</ele>
        <time>2012-05-03T13:05:16Z</time>
      </trkpt>
      <trkpt lat="46.99469" lon="-1.04871">
        <ele>116</ele>
        <time>2012-05-03T13:05:17Z</time>
      </trkpt>
      <trkpt lat="46.99466" lon="-1.04868">
        <ele>116</ele>
        <time>2012-05-03T13:05:18Z</time>
      </trkpt>
      <trkpt lat="46.99463" lon="-1.04867">
        <ele>116</ele>
        <time>2012-05-03T13:05:19Z</time>
      </trkpt>
      <trkpt lat="46.99459" lon="-1.04866">
        <ele>116</ele>
        <time>2012-05-03T13:05:20Z</time>
      </trkpt>
      <trkpt lat="46.99455" lon="-1.04865">
        <ele>116</ele>
        <time>2012-05-03T13:05:21Z</time>
      </trkpt>
      <trkpt lat="46.99451" lon="-1.04863">
        <ele>116</ele>
        <time>2012-05-03T13:05:22Z</time>
      </trkpt>
      <trkpt lat="46.99447" lon="-1.04862">
        <ele>116</ele>
        <time>2012-05-03T13:05:23Z</time>
      </trkpt>
      <trkpt lat="46.99443" lon="-1.04861">
        <ele>116</ele>
        <time>2012-05-03T13:05:24Z</time>
      </trkpt>
      <trkpt lat="46.9944" lon="-1.04862">
        <ele>116</ele>
        <time>2012-05-03T13:05:25Z</time>
      </trkpt>
      <trkpt lat="46.99436" lon="-1.04861">
        <ele>116</ele>
        <time>2012-05-03T13:05:26Z</time>
      </trkpt>
      <trkpt lat="46.99433" lon="-1.04859">
        <ele>116</ele>
        <time>2012-05-03T13:05:27Z</time>
      </trkpt>
      <trkpt lat="46.99431" lon="-1.04856">
        <ele>116</ele>
        <time>2012-05-03T13:05:28Z</time>
      </trkpt>
      <trkpt lat="46.9943" lon="-1.04852">
        <ele>116</ele>
        <time>2012-05-03T13:05:29Z</time>
      </trkpt>
      <trkpt lat="46.99431" lon="-1.04848">
        <ele>116</ele>
        <time>2012-05-03T13:05:30Z</time>
      </trkpt>
      <trkpt lat="46.99433" lon="-1.04843">
        <ele>116</ele>
        <time>2012-05-03T13:05:31Z</time>
      </trkpt>
      <trkpt lat="46.99435" lon="-1.04839">
        <ele>116</ele>
        <time>2012-05-03T13:05:32Z</time>
      </trkpt>
      <trkpt lat="46.99437" lon="-1.04834">
        <ele>117</ele>
        <time>2012-05-03T13:05:33Z</time>
      </trkpt>
      <trkpt lat="46.9944" lon="-1.04831">
        <ele>117</ele>
        <time>2012-05-03T13:05:34Z</time>
      </trkpt>
      <trkpt lat="46.99444" lon="-1.04828">
        <ele>118</ele>
        <time>2012-05-03T13:05:35Z</time>
      </trkpt>
      <trkpt lat="46.99448" lon="-1.04827">
        <ele>118</ele>
        <time>2012-05-03T13:05:36Z</time>
      </trkpt>
      <trkpt lat="46.99453" lon="-1.04826">
        <ele>118</ele>
        <time>2012-05-03T13:05:37Z</time>
      </trkpt>
      <trkpt lat="46.99457" lon="-1.04827">
        <ele>119</ele>
        <time>2012-05-03T13:05:38Z</time>
      </trkpt>
      <trkpt lat="46.99462" lon="-1.04827">
        <ele>119</ele>
        <time>2012-05-03T13:05:39Z</time>
      </trkpt>
      <trkpt lat="46.99467" lon="-1.04827">
        <ele>119</ele>
        <time>2012-05-03T13:05:40Z</time>
      </trkpt>
      <trkpt lat="46.99472" lon="-1.04827">
        <ele>119</ele>
        <time>2012-05-03T13:05:41Z</time>
      </trkpt>
      <trkpt lat="46.99478" lon="-1.04826">
        <ele>119</ele>
        <time>2012-05-03T13:05:42Z</time>
      </trkpt>
      <trkpt lat="46.99483" lon="-1.04825">
        <ele>119</ele>
        <time>2012-05-03T13:05:43Z</time>
      </trkpt>
      <trkpt lat="46.99488" lon="-1.04823">
        <ele>119</ele>
        <time>2012-05-03T13:05:44Z</time>
      </trkpt>
      <trkpt lat="46.99494" lon="-1.0482">
        <ele>119</ele>
        <time>2012-05-03T13:05:45Z</time>
      </trkpt>
      <trkpt lat="46.995" lon="-1.04817">
        <ele>119</ele>
        <time>2012-05-03T13:05:46Z</time>
      </trkpt>
      <trkpt lat="46.99505" lon="-1.04815">
        <ele>119</ele>
        <time>2012-05-03T13:05:47Z</time>
      </trkpt>
      <trkpt lat="46.99511" lon="-1.04812">
        <ele>119</ele>
        <time>2012-05-03T13:05:48Z</time>
      </trkpt>
      <trkpt lat="46.99516" lon="-1.04809">
        <ele>119</ele>
        <time>2012-05-03T13:05:49Z</time>
      </trkpt>
      <trkpt lat="46.99521" lon="-1.04807">
        <ele>119</ele>
        <time>2012-05-03T13:05:50Z</time>
      </trkpt>
      <trkpt lat="46.99527" lon="-1.04804">
        <ele>119</ele>
        <time>2012-05-03T13:05:51Z</time>
      </trkpt>
      <trkpt lat="46.99531" lon="-1.04802">
        <ele>119</ele>
        <time>2012-05-03T13:05:52Z</time>
      </trkpt>
      <trkpt lat="46.99536" lon="-1.048">
        <ele>120</ele>
        <time>2012-05-03T13:05:53Z</time>
      </trkpt>
      <trkpt lat="46.99542" lon="-1.04797">
        <ele>120</ele>
        <time>2012-05-03T13:05:54Z</time>
      </trkpt>
      <trkpt lat="46.99547" lon="-1.04795">
        <ele>120</ele>
        <time>2012-05-03T13:05:55Z</time>
      </trkpt>
      <trkpt lat="46.99552" lon="-1.04791">
        <ele>120</ele>
        <time>2012-05-03T13:05:56Z</time>
      </trkpt>
      <trkpt lat="46.99556" lon="-1.04787">
        <ele>120</ele>
        <time>2012-05-03T13:05:57Z</time>
      </trkpt>
      <trkpt lat="46.99559" lon="-1.0478">
        <ele>120</ele>
        <time>2012-05-03T13:05:58Z</time>
      </trkpt>
      <trkpt lat="46.9956" lon="-1.04772">
        <ele>120</ele>
        <time>2012-05-03T13:05:59Z</time>
      </trkpt>
      <trkpt lat="46.99559" lon="-1.04765">
        <ele>120</ele>
        <time>2012-05-03T13:06:00Z</time>
      </trkpt>
      <trkpt lat="46.99558" lon="-1.04758">
        <ele>120</ele>
        <time>2012-05-03T13:06:01Z</time>
      </trkpt>
      <trkpt lat="46.99558" lon="-1.04751">
        <ele>120</ele>
        <time>2012-05-03T13:06:02Z</time>
      </trkpt>
      <trkpt lat="46.99558" lon="-1.04743">
        <ele>120</ele>
        <time>2012-05-03T13:06:03Z</time>
      </trkpt>
      <trkpt lat="46.9956" lon="-1.04737">
        <ele>121</ele>
        <time>2012-05-03T13:06:04Z</time>
      </trkpt>
      <trkpt lat="46.99564" lon="-1.04732">
        <ele>121</ele>
        <time>2012-05-03T13:06:05Z</time>
      </trkpt>
      <trkpt lat="46.99568" lon="-1.04728">
        <ele>121</ele>
        <time>2012-05-03T13:06:06Z</time>
      </trkpt>
      <trkpt lat="46.99572" lon="-1.04724">
        <ele>121</ele>
        <time>2012-05-03T13:06:07Z</time>
      </trkpt>
      <trkpt lat="46.99577" lon="-1.04721">
        <ele>121</ele>
        <time>2012-05-03T13:06:08Z</time>
      </trkpt>
      <trkpt lat="46.99582" lon="-1.04718">
        <ele>121</ele>
        <time>2012-05-03T13:06:09Z</time>
      </trkpt>
      <trkpt lat="46.99587" lon="-1.04716">
        <ele>121</ele>
        <time>2012-05-03T13:06:10Z</time>
      </trkpt>
      <trkpt lat="46.99592" lon="-1.04714">
        <ele>122</ele>
        <time>2012-05-03T13:06:11Z</time>
      </trkpt>
      <trkpt lat="46.99597" lon="-1.04712">
        <ele>122</ele>
        <time>2012-05-03T13:06:12Z</time>
      </trkpt>
      <trkpt lat="46.99602" lon="-1.0471">
        <ele>122</ele>
        <time>2012-05-03T13:06:13Z</time>
      </trkpt>
      <trkpt lat="46.99606" lon="-1.04707">
        <ele>122</ele>
        <time>2012-05-03T13:06:14Z</time>
      </trkpt>
      <trkpt lat="46.99611" lon="-1.04704">
        <ele>122</ele>
        <time>2012-05-03T13:06:15Z</time>
      </trkpt>
      <trkpt lat="46.99616" lon="-1.04701">
        <ele>122</ele>
        <time>2012-05-03T13:06:16Z</time>
      </trkpt>
      <trkpt lat="46.9962" lon="-1.04699">
        <ele>122</ele>
        <time>2012-05-03T13:06:17Z</time>
      </trkpt>
      <trkpt lat="46.99625" lon="-1.04697">
        <ele>122</ele>
        <time>2012-05-03T13:06:18Z</time>
      </trkpt>
      <trkpt lat="46.99628" lon="-1.04692">
        <ele>122</ele>
        <time>2012-05-03T13:06:19Z</time>
      </trkpt>
      <trkpt lat="46.9963" lon="-1.04686">
        <ele>122</ele>
        <time>2012-05-03T13:06:20Z</time>
      </trkpt>
      <trkpt lat="46.99631" lon="-1.0468">
        <ele>122</ele>
        <time>2012-05-03T13:06:21Z</time>
      </trkpt>
      <trkpt lat="46.99631" lon="-1.04673">
        <ele>123</ele>
        <time>2012-05-03T13:06:22Z</time>
      </trkpt>
      <trkpt lat="46.9963" lon="-1.04666">
        <ele>123</ele>
        <time>2012-05-03T13:06:23Z</time>
      </trkpt>
      <trkpt lat="46.9963" lon="-1.04659">
        <ele>123</ele>
        <time>2012-05-03T13:06:24Z</time>
      </trkpt>
      <trkpt lat="46.99632" lon="-1.04653">
        <ele>123</ele>
        <time>2012-05-03T13:06:25Z</time>
      </trkpt>
      <trkpt lat="46.99634" lon="-1.04646">
        <ele>123</ele>
        <time>2012-05-03T13:06:26Z</time>
      </trkpt>
      <trkpt lat="46.99638" lon="-1.04641">
        <ele>123</ele>
        <time>2012-05-03T13:06:27Z</time>
      </trkpt>
      <trkpt lat="46.99641" lon="-1.04635">
        <ele>123</ele>
        <time>2012-05-03T13:06:28Z</time>
      </trkpt>
      <trkpt lat="46.99646" lon="-1.0463">
        <ele>123</ele>
        <time>2012-05-03T13:06:29Z</time>
      </trkpt>
      <trkpt lat="46.9965" lon="-1.04625">
        <ele>123</ele>
        <time>2012-05-03T13:06:30Z</time>
      </trkpt>
      <trkpt lat="46.99654" lon="-1.04621">
        <ele>123</ele>
        <time>2012-05-03T13:06:31Z</time>
      </trkpt>
      <trkpt lat="46.99659" lon="-1.04616">
        <ele>123</ele>
        <time>2012-05-03T13:06:32Z</time>
      </trkpt>
      <trkpt lat="46.99664" lon="-1.04612">
        <ele>123</ele>
        <time>2012-05-03T13:06:33Z</time>
      </trkpt>
      <trkpt lat="46.99669" lon="-1.04608">
        <ele>123</ele>
        <time>2012-05-03T13:06:34Z</time>
      </trkpt>
      <trkpt lat="46.99673" lon="-1.04603">
        <ele>124</ele>
        <time>2012-05-03T13:06:35Z</time>
      </trkpt>
      <trkpt lat="46.99678" lon="-1.04598">
        <ele>124</ele>
        <time>2012-05-03T13:06:36Z</time>
      </trkpt>
      <trkpt lat="46.99683" lon="-1.04594">
        <ele>124</ele>
        <time>2012-05-03T13:06:37Z</time>
      </trkpt>
      <trkpt lat="46.99688" lon="-1.04589">
        <ele>124</ele>
        <time>2012-05-03T13:06:38Z</time>
      </trkpt>
      <trkpt lat="46.99693" lon="-1.04584">
        <ele>124</ele>
        <time>2012-05-03T13:06:39Z</time>
      </trkpt>
      <trkpt lat="46.99698" lon="-1.0458">
        <ele>124</ele>
        <time>2012-05-03T13:06:40Z</time>
      </trkpt>
      <trkpt lat="46.99703" lon="-1.04576">
        <ele>124</ele>
        <time>2012-05-03T13:06:41Z</time>
      </trkpt>
      <trkpt lat="46.99708" lon="-1.04571">
        <ele>124</ele>
        <time>2012-05-03T13:06:42Z</time>
      </trkpt>
      <trkpt lat="46.99713" lon="-1.04568">
        <ele>124</ele>
        <time>2012-05-03T13:06:43Z</time>
      </trkpt>
      <trkpt lat="46.99718" lon="-1.04563">
        <ele>124</ele>
        <time>2012-05-03T13:06:44Z</time>
      </trkpt>
      <trkpt lat="46.99722" lon="-1.04556">
        <ele>124</ele>
        <time>2012-05-03T13:06:45Z</time>
      </trkpt>
      <trkpt lat="46.99724" lon="-1.04549">
        <ele>124</ele>
        <time>2012-05-03T13:06:46Z</time>
      </trkpt>
      <trkpt lat="46.99725" lon="-1.0454">
        <ele>124</ele>
        <time>2012-05-03T13:06:47Z</time>
      </trkpt>
      <trkpt lat="46.99724" lon="-1.04532">
        <ele>124</ele>
        <time>2012-05-03T13:06:48Z</time>
      </trkpt>
      <trkpt lat="46.99723" lon="-1.04524">
        <ele>124</ele>
        <time>2012-05-03T13:06:49Z</time>
      </trkpt>
      <trkpt lat="46.99722" lon="-1.04516">
        <ele>124</ele>
        <time>2012-05-03T13:06:50Z</time>
      </trkpt>
      <trkpt lat="46.99721" lon="-1.04508">
        <ele>124</ele>
        <time>2012-05-03T13:06:51Z</time>
      </trkpt>
      <trkpt lat="46.9972" lon="-1.04499">
        <ele>124</ele>
        <time>2012-05-03T13:06:52Z</time>
      </trkpt>
      <trkpt lat="46.99719" lon="-1.04491">
        <ele>124</ele>
        <time>2012-05-03T13:06:53Z</time>
      </trkpt>
      <trkpt lat="46.99718" lon="-1.04483">
        <ele>124</ele>
        <time>2012-05-03T13:06:54Z</time>
      </trkpt>
      <trkpt lat="46.99717" lon="-1.04475">
        <ele>124</ele>
        <time>2012-05-03T13:06:55Z</time>
      </trkpt>
      <trkpt lat="46.99716" lon="-1.04468">
        <ele>124</ele>
        <time>2012-05-03T13:06:56Z</time>
      </trkpt>
      <trkpt lat="46.99715" lon="-1.0446">
        <ele>124</ele>
        <time>2012-05-03T13:06:57Z</time>
      </trkpt>
      <trkpt lat="46.99714" lon="-1.04453">
        <ele>124</ele>
        <time>2012-05-03T13:06:58Z</time>
      </trkpt>
      <trkpt lat="46.99713" lon="-1.04445">
        <ele>124</ele>
        <time>2012-05-03T13:06:59Z</time>
      </trkpt>
      <trkpt lat="46.99712" lon="-1.04438">
        <ele>124</ele>
        <time>2012-05-03T13:07:00Z</time>
      </trkpt>
      <trkpt lat="46.99711" lon="-1.04431">
        <ele>124</ele>
        <time>2012-05-03T13:07:01Z</time>
      </trkpt>
      <trkpt lat="46.9971" lon="-1.04424">
        <ele>124</ele>
        <time>2012-05-03T13:07:02Z</time>
      </trkpt>
      <trkpt lat="46.99709" lon="-1.04417">
        <ele>124</ele>
        <time>2012-05-03T13:07:03Z</time>
      </trkpt>
      <trkpt lat="46.99707" lon="-1.0441">
        <ele>124</ele>
        <time>2012-05-03T13:07:04Z</time>
      </trkpt>
      <trkpt lat="46.99705" lon="-1.04402">
        <ele>124</ele>
        <time>2012-05-03T13:07:05Z</time>
      </trkpt>
      <trkpt lat="46.99703" lon="-1.04395">
        <ele>124</ele>
        <time>2012-05-03T13:07:06Z</time>
      </trkpt>
      <trkpt lat="46.99701" lon="-1.04387">
        <ele>124</ele>
        <time>2012-05-03T13:07:07Z</time>
      </trkpt>
      <trkpt lat="46.99699" lon="-1.0438">
        <ele>124</ele>
        <time>2012-05-03T13:07:08Z</time>
      </trkpt>
      <trkpt lat="46.99697" lon="-1.04371">
        <ele>124</ele>
        <time>2012-05-03T13:07:09Z</time>
      </trkpt>
      <trkpt lat="46.99696" lon="-1.04363">
        <ele>124</ele>
        <time>2012-05-03T13:07:10Z</time>
      </trkpt>
      <trkpt lat="46.99694" lon="-1.04354">
        <ele>124</ele>
        <time>2012-05-03T13:07:11Z</time>
      </trkpt>
      <trkpt lat="46.99692" lon="-1.04346">
        <ele>125</ele>
        <time>2012-05-03T13:07:12Z</time>
      </trkpt>
      <trkpt lat="46.99691" lon="-1.04337">
        <ele>125</ele>
        <time>2012-05-03T13:07:13Z</time>
      </trkpt>
      <trkpt lat="46.99688" lon="-1.04329">
        <ele>125</ele>
        <time>2012-05-03T13:07:14Z</time>
      </trkpt>
      <trkpt lat="46.99687" lon="-1.0432">
        <ele>125</ele>
        <time>2012-05-03T13:07:15Z</time>
      </trkpt>
      <trkpt lat="46.99685" lon="-1.04312">
        <ele>125</ele>
        <time>2012-05-03T13:07:16Z</time>
      </trkpt>
      <trkpt lat="46.99683" lon="-1.04304">
        <ele>125</ele>
        <time>2012-05-03T13:07:17Z</time>
      </trkpt>
      <trkpt lat="46.99681" lon="-1.04296">
        <ele>125</ele>
        <time>2012-05-03T13:07:18Z</time>
      </trkpt>
      <trkpt lat="46.9968" lon="-1.04287">
        <ele>125</ele>
        <time>2012-05-03T13:07:19Z</time>
      </trkpt>
      <trkpt lat="46.99678" lon="-1.04279">
        <ele>125</ele>
        <time>2012-05-03T13:07:20Z</time>
      </trkpt>
      <trkpt lat="46.99676" lon="-1.04271">
        <ele>126</ele>
        <time>2012-05-03T13:07:21Z</time>
      </trkpt>
      <trkpt lat="46.99674" lon="-1.04263">
        <ele>126</ele>
        <time>2012-05-03T13:07:22Z</time>
      </trkpt>
      <trkpt lat="46.99672" lon="-1.04256">
        <ele>126</ele>
        <time>2012-05-03T13:07:23Z</time>
      </trkpt>
      <trkpt lat="46.9967" lon="-1.04248">
        <ele>126</ele>
        <time>2012-05-03T13:07:24Z</time>
      </trkpt>
      <trkpt lat="46.99669" lon="-1.0424">
        <ele>126</ele>
        <time>2012-05-03T13:07:25Z</time>
      </trkpt>
      <trkpt lat="46.99667" lon="-1.04232">
        <ele>127</ele>
        <time>2012-05-03T13:07:26Z</time>
      </trkpt>
      <trkpt lat="46.99665" lon="-1.04224">
        <ele>127</ele>
        <time>2012-05-03T13:07:27Z</time>
      </trkpt>
      <trkpt lat="46.99663" lon="-1.04217">
        <ele>127</ele>
        <time>2012-05-03T13:07:28Z</time>
      </trkpt>
      <trkpt lat="46.99661" lon="-1.04209">
        <ele>127</ele>
        <time>2012-05-03T13:07:29Z</time>
      </trkpt>
      <trkpt lat="46.99659" lon="-1.04201">
        <ele>128</ele>
        <time>2012-05-03T13:07:30Z</time>
      </trkpt>
      <trkpt lat="46.99657" lon="-1.04193">
        <ele>128</ele>
        <time>2012-05-03T13:07:31Z</time>
      </trkpt>
      <trkpt lat="46.99655" lon="-1.04185">
        <ele>128</ele>
        <time>2012-05-03T13:07:32Z</time>
      </trkpt>
      <trkpt lat="46.99653" lon="-1.04178">
        <ele>128</ele>
        <time>2012-05-03T13:07:33Z</time>
      </trkpt>
      <trkpt lat="46.99651" lon="-1.0417">
        <ele>128</ele>
        <time>2012-05-03T13:07:34Z</time>
      </trkpt>
      <trkpt lat="46.99649" lon="-1.04162">
        <ele>128</ele>
        <time>2012-05-03T13:07:35Z</time>
      </trkpt>
      <trkpt lat="46.99646" lon="-1.04154">
        <ele>128</ele>
        <time>2012-05-03T13:07:36Z</time>
      </trkpt>
      <trkpt lat="46.99644" lon="-1.04147">
        <ele>128</ele>
        <time>2012-05-03T13:07:37Z</time>
      </trkpt>
      <trkpt lat="46.99642" lon="-1.04139">
        <ele>128</ele>
        <time>2012-05-03T13:07:38Z</time>
      </trkpt>
      <trkpt lat="46.99639" lon="-1.04131">
        <ele>129</ele>
        <time>2012-05-03T13:07:39Z</time>
      </trkpt>
      <trkpt lat="46.99637" lon="-1.04123">
        <ele>129</ele>
        <time>2012-05-03T13:07:40Z</time>
      </trkpt>
      <trkpt lat="46.99635" lon="-1.04115">
        <ele>129</ele>
        <time>2012-05-03T13:07:41Z</time>
      </trkpt>
      <trkpt lat="46.99632" lon="-1.04107">
        <ele>129</ele>
        <time>2012-05-03T13:07:42Z</time>
      </trkpt>
      <trkpt lat="46.9963" lon="-1.041">
        <ele>129</ele>
        <time>2012-05-03T13:07:43Z</time>
      </trkpt>
      <trkpt lat="46.99627" lon="-1.04092">
        <ele>129</ele>
        <time>2012-05-03T13:07:44Z</time>
      </trkpt>
      <trkpt lat="46.99625" lon="-1.04084">
        <ele>129</ele>
        <time>2012-05-03T13:07:45Z</time>
      </trkpt>
      <trkpt lat="46.99622" lon="-1.04076">
        <ele>129</ele>
        <time>2012-05-03T13:07:46Z</time>
      </trkpt>
      <trkpt lat="46.9962" lon="-1.04068">
        <ele>129</ele>
        <time>2012-05-03T13:07:47Z</time>
      </trkpt>
      <trkpt lat="46.99618" lon="-1.0406">
        <ele>129</ele>
        <time>2012-05-03T13:07:48Z</time>
      </trkpt>
      <trkpt lat="46.99616" lon="-1.04052">
        <ele>129</ele>
        <time>2012-05-03T13:07:49Z</time>
      </trkpt>
      <trkpt lat="46.99614" lon="-1.04044">
        <ele>129</ele>
        <time>2012-05-03T13:07:50Z</time>
      </trkpt>
      <trkpt lat="46.99612" lon="-1.04036">
        <ele>129</ele>
        <time>2012-05-03T13:07:51Z</time>
      </trkpt>
      <trkpt lat="46.99609" lon="-1.04028">
        <ele>129</ele>
        <time>2012-05-03T13:07:52Z</time>
      </trkpt>
      <trkpt lat="46.99607" lon="-1.0402">
        <ele>129</ele>
        <time>2012-05-03T13:07:53Z</time>
      </trkpt>
      <trkpt lat="46.99605" lon="-1.04013">
        <ele>129</ele>
        <time>2012-05-03T13:07:54Z</time>
      </trkpt>
      <trkpt lat="46.99603" lon="-1.04005">
        <ele>129</ele>
        <time>2012-05-03T13:07:55Z</time>
      </trkpt>
      <trkpt lat="46.99601" lon="-1.03997">
        <ele>129</ele>
        <time>2012-05-03T13:07:56Z</time>
      </trkpt>
      <trkpt lat="46.99599" lon="-1.0399">
        <ele>129</ele>
        <time>2012-05-03T13:07:57Z</time>
      </trkpt>
      <trkpt lat="46.99596" lon="-1.03982">
        <ele>129</ele>
        <time>2012-05-03T13:07:58Z</time>
      </trkpt>
      <trkpt lat="46.99594" lon="-1.03975">
        <ele>129</ele>
        <time>2012-05-03T13:07:59Z</time>
      </trkpt>
      <trkpt lat="46.99592" lon="-1.03967">
        <ele>130</ele>
        <time>2012-05-03T13:08:00Z</time>
      </trkpt>
      <trkpt lat="46.99589" lon="-1.0396">
        <ele>130</ele>
        <time>2012-05-03T13:08:01Z</time>
      </trkpt>
      <trkpt lat="46.99587" lon="-1.03953">
        <ele>130</ele>
        <time>2012-05-03T13:08:02Z</time>
      </trkpt>
      <trkpt lat="46.99585" lon="-1.03945">
        <ele>130</ele>
        <time>2012-05-03T13:08:03Z</time>
      </trkpt>
      <trkpt lat="46.99583" lon="-1.03937">
        <ele>130</ele>
        <time>2012-05-03T13:08:04Z</time>
      </trkpt>
      <trkpt lat="46.99581" lon="-1.03929">
        <ele>130</ele>
        <time>2012-05-03T13:08:05Z</time>
      </trkpt>
      <trkpt lat="46.9958" lon="-1.03922">
        <ele>130</ele>
        <time>2012-05-03T13:08:06Z</time>
      </trkpt>
      <trkpt lat="46.99578" lon="-1.03914">
        <ele>130</ele>
        <time>2012-05-03T13:08:07Z</time>
      </trkpt>
      <trkpt lat="46.99577" lon="-1.03906">
        <ele>131</ele>
        <time>2012-05-03T13:08:08Z</time>
      </trkpt>
      <trkpt lat="46.99576" lon="-1.03898">
        <ele>131</ele>
        <time>2012-05-03T13:08:09Z</time>
      </trkpt>
      <trkpt lat="46.99574" lon="-1.0389">
        <ele>131</ele>
        <time>2012-05-03T13:08:10Z</time>
      </trkpt>
      <trkpt lat="46.99573" lon="-1.03882">
        <ele>131</ele>
        <time>2012-05-03T13:08:11Z</time>
      </trkpt>
      <trkpt lat="46.99572" lon="-1.03874">
        <ele>131</ele>
        <time>2012-05-03T13:08:12Z</time>
      </trkpt>
      <trkpt lat="46.9957" lon="-1.03866">
        <ele>131</ele>
        <time>2012-05-03T13:08:13Z</time>
      </trkpt>
      <trkpt lat="46.99569" lon="-1.03858">
        <ele>131</ele>
        <time>2012-05-03T13:08:14Z</time>
      </trkpt>
      <trkpt lat="46.99568" lon="-1.03849">
        <ele>131</ele>
        <time>2012-05-03T13:08:15Z</time>
      </trkpt>
      <trkpt lat="46.99566" lon="-1.03841">
        <ele>131</ele>
        <time>2012-05-03T13:08:16Z</time>
      </trkpt>
      <trkpt lat="46.99565" lon="-1.03833">
        <ele>131</ele>
        <time>2012-05-03T13:08:17Z</time>
      </trkpt>
      <trkpt lat="46.99564" lon="-1.03825">
        <ele>131</ele>
        <time>2012-05-03T13:08:18Z</time>
      </trkpt>
      <trkpt lat="46.99562" lon="-1.03817">
        <ele>131</ele>
        <time>2012-05-03T13:08:19Z</time>
      </trkpt>
      <trkpt lat="46.99561" lon="-1.03808">
        <ele>131</ele>
        <time>2012-05-03T13:08:20Z</time>
      </trkpt>
      <trkpt lat="46.9956" lon="-1.038">
        <ele>131</ele>
        <time>2012-05-03T13:08:21Z</time>
      </trkpt>
      <trkpt lat="46.99559" lon="-1.03792">
        <ele>131</ele>
        <time>2012-05-03T13:08:22Z</time>
      </trkpt>
      <trkpt lat="46.99557" lon="-1.03784">
        <ele>131</ele>
        <time>2012-05-03T13:08:23Z</time>
      </trkpt>
      <trkpt lat="46.99555" lon="-1.03776">
        <ele>131</ele>
        <time>2012-05-03T13:08:24Z</time>
      </trkpt>
      <trkpt lat="46.99554" lon="-1.03769">
        <ele>131</ele>
        <time>2012-05-03T13:08:25Z</time>
      </trkpt>
      <trkpt lat="46.99552" lon="-1.03761">
        <ele>131</ele>
        <time>2012-05-03T13:08:26Z</time>
      </trkpt>
      <trkpt lat="46.9955" lon="-1.03754">
        <ele>131</ele>
        <time>2012-05-03T13:08:27Z</time>
      </trkpt>
      <trkpt lat="46.99548" lon="-1.03747">
        <ele>131</ele>
        <time>2012-05-03T13:08:28Z</time>
      </trkpt>
      <trkpt lat="46.99546" lon="-1.0374">
        <ele>131</ele>
        <time>2012-05-03T13:08:29Z</time>
      </trkpt>
      <trkpt lat="46.99544" lon="-1.03732">
        <ele>131</ele>
        <time>2012-05-03T13:08:30Z</time>
      </trkpt>
      <trkpt lat="46.99542" lon="-1.03725">
        <ele>131</ele>
        <time>2012-05-03T13:08:31Z</time>
      </trkpt>
      <trkpt lat="46.9954" lon="-1.03717">
        <ele>131</ele>
        <time>2012-05-03T13:08:32Z</time>
      </trkpt>
      <trkpt lat="46.99537" lon="-1.0371">
        <ele>131</ele>
        <time>2012-05-03T13:08:33Z</time>
      </trkpt>
      <trkpt lat="46.99534" lon="-1.03704">
        <ele>131</ele>
        <time>2012-05-03T13:08:34Z</time>
      </trkpt>
      <trkpt lat="46.99531" lon="-1.03697">
        <ele>131</ele>
        <time>2012-05-03T13:08:35Z</time>
      </trkpt>
      <trkpt lat="46.99528" lon="-1.03691">
        <ele>131</ele>
        <time>2012-05-03T13:08:36Z</time>
      </trkpt>
      <trkpt lat="46.99526" lon="-1.03684">
        <ele>131</ele>
        <time>2012-05-03T13:08:37Z</time>
      </trkpt>
      <trkpt lat="46.99523" lon="-1.03678">
        <ele>131</ele>
        <time>2012-05-03T13:08:38Z</time>
      </trkpt>
      <trkpt lat="46.99521" lon="-1.03671">
        <ele>131</ele>
        <time>2012-05-03T13:08:39Z</time>
      </trkpt>
      <trkpt lat="46.99519" lon="-1.03665">
        <ele>131</ele>
        <time>2012-05-03T13:08:40Z</time>
      </trkpt>
      <trkpt lat="46.99517" lon="-1.03658">
        <ele>131</ele>
        <time>2012-05-03T13:08:41Z</time>
      </trkpt>
      <trkpt lat="46.99515" lon="-1.03652">
        <ele>131</ele>
        <time>2012-05-03T13:08:42Z</time>
      </trkpt>
      <trkpt lat="46.99514" lon="-1.03646">
        <ele>131</ele>
        <time>2012-05-03T13:08:43Z</time>
      </trkpt>
      <trkpt lat="46.99512" lon="-1.03639">
        <ele>131</ele>
        <time>2012-05-03T13:08:44Z</time>
      </trkpt>
      <trkpt lat="46.99511" lon="-1.03632">
        <ele>131</ele>
        <time>2012-05-03T13:08:45Z</time>
      </trkpt>
      <trkpt lat="46.99509" lon="-1.03627">
        <ele>131</ele>
        <time>2012-05-03T13:08:46Z</time>
      </trkpt>
      <trkpt lat="46.99508" lon="-1.03622">
        <ele>131</ele>
        <time>2012-05-03T13:08:47Z</time>
      </trkpt>
      <trkpt lat="46.99506" lon="-1.03617">
        <ele>131</ele>
        <time>2012-05-03T13:08:48Z</time>
      </trkpt>
      <trkpt lat="46.99504" lon="-1.03613">
        <ele>131</ele>
        <time>2012-05-03T13:08:49Z</time>
      </trkpt>
      <trkpt lat="46.99502" lon="-1.0361">
        <ele>131</ele>
        <time>2012-05-03T13:08:50Z</time>
      </trkpt>
      <trkpt lat="46.99501" lon="-1.03606">
        <ele>131</ele>
        <time>2012-05-03T13:08:51Z</time>
      </trkpt>
      <trkpt lat="46.99501" lon="-1.03603">
        <ele>131</ele>
        <time>2012-05-03T13:08:52Z</time>
      </trkpt>
      <trkpt lat="46.99501" lon="-1.036">
        <ele>131</ele>
        <time>2012-05-03T13:08:53Z</time>
      </trkpt>
      <trkpt lat="46.99501" lon="-1.03597">
        <ele>131</ele>
        <time>2012-05-03T13:08:54Z</time>
      </trkpt>
      <trkpt lat="46.99501" lon="-1.03595">
        <ele>131</ele>
        <time>2012-05-03T13:08:55Z</time>
      </trkpt>
      <trkpt lat="46.99501" lon="-1.03592">
        <ele>131</ele>
        <time>2012-05-03T13:08:56Z</time>
      </trkpt>
      <trkpt lat="46.99501" lon="-1.03588">
        <ele>131</ele>
        <time>2012-05-03T13:08:57Z</time>
      </trkpt>
      <trkpt lat="46.99501" lon="-1.03583">
        <ele>131</ele>
        <time>2012-05-03T13:08:58Z</time>
      </trkpt>
      <trkpt lat="46.995" lon="-1.03579">
        <ele>131</ele>
        <time>2012-05-03T13:08:59Z</time>
      </trkpt>
      <trkpt lat="46.99499" lon="-1.03574">
        <ele>132</ele>
        <time>2012-05-03T13:09:00Z</time>
      </trkpt>
      <trkpt lat="46.99498" lon="-1.03568">
        <ele>132</ele>
        <time>2012-05-03T13:09:01Z</time>
      </trkpt>
      <trkpt lat="46.99497" lon="-1.03561">
        <ele>132</ele>
        <time>2012-05-03T13:09:02Z</time>
      </trkpt>
      <trkpt lat="46.99496" lon="-1.03555">
        <ele>132</ele>
        <time>2012-05-03T13:09:03Z</time>
      </trkpt>
      <trkpt lat="46.99496" lon="-1.03548">
        <ele>132</ele>
        <time>2012-05-03T13:09:04Z</time>
      </trkpt>
      <trkpt lat="46.99495" lon="-1.03541">
        <ele>132</ele>
        <time>2012-05-03T13:09:05Z</time>
      </trkpt>
      <trkpt lat="46.99494" lon="-1.03534">
        <ele>132</ele>
        <time>2012-05-03T13:09:06Z</time>
      </trkpt>
      <trkpt lat="46.99493" lon="-1.03527">
        <ele>132</ele>
        <time>2012-05-03T13:09:07Z</time>
      </trkpt>
      <trkpt lat="46.99492" lon="-1.03519">
        <ele>132</ele>
        <time>2012-05-03T13:09:08Z</time>
      </trkpt>
      <trkpt lat="46.99491" lon="-1.03512">
        <ele>132</ele>
        <time>2012-05-03T13:09:09Z</time>
      </trkpt>
      <trkpt lat="46.9949" lon="-1.03504">
        <ele>132</ele>
        <time>2012-05-03T13:09:10Z</time>
      </trkpt>
      <trkpt lat="46.9949" lon="-1.03497">
        <ele>132</ele>
        <time>2012-05-03T13:09:11Z</time>
      </trkpt>
      <trkpt lat="46.99489" lon="-1.0349">
        <ele>132</ele>
        <time>2012-05-03T13:09:12Z</time>
      </trkpt>
      <trkpt lat="46.99488" lon="-1.03483">
        <ele>132</ele>
        <time>2012-05-03T13:09:13Z</time>
      </trkpt>
      <trkpt lat="46.99487" lon="-1.03476">
        <ele>132</ele>
        <time>2012-05-03T13:09:14Z</time>
      </trkpt>
      <trkpt lat="46.99486" lon="-1.03469">
        <ele>133</ele>
        <time>2012-05-03T13:09:15Z</time>
      </trkpt>
      <trkpt lat="46.99485" lon="-1.03461">
        <ele>133</ele>
        <time>2012-05-03T13:09:16Z</time>
      </trkpt>
      <trkpt lat="46.99483" lon="-1.03454">
        <ele>133</ele>
        <time>2012-05-03T13:09:17Z</time>
      </trkpt>
      <trkpt lat="46.99482" lon="-1.03447">
        <ele>133</ele>
        <time>2012-05-03T13:09:18Z</time>
      </trkpt>
      <trkpt lat="46.99481" lon="-1.03439">
        <ele>133</ele>
        <time>2012-05-03T13:09:19Z</time>
      </trkpt>
      <trkpt lat="46.99481" lon="-1.03432">
        <ele>133</ele>
        <time>2012-05-03T13:09:20Z</time>
      </trkpt>
      <trkpt lat="46.9948" lon="-1.03424">
        <ele>133</ele>
        <time>2012-05-03T13:09:21Z</time>
      </trkpt>
      <trkpt lat="46.9948" lon="-1.03416">
        <ele>133</ele>
        <time>2012-05-03T13:09:22Z</time>
      </trkpt>
      <trkpt lat="46.9948" lon="-1.03408">
        <ele>133</ele>
        <time>2012-05-03T13:09:23Z</time>
      </trkpt>
      <trkpt lat="46.9948" lon="-1.03401">
        <ele>133</ele>
        <time>2012-05-03T13:09:24Z</time>
      </trkpt>
      <trkpt lat="46.99479" lon="-1.03393">
        <ele>133</ele>
        <time>2012-05-03T13:09:25Z</time>
      </trkpt>
      <trkpt lat="46.99479" lon="-1.03385">
        <ele>133</ele>
        <time>2012-05-03T13:09:26Z</time>
      </trkpt>
      <trkpt lat="46.99479" lon="-1.03377">
        <ele>133</ele>
        <time>2012-05-03T13:09:27Z</time>
      </trkpt>
      <trkpt lat="46.99479" lon="-1.03369">
        <ele>133</ele>
        <time>2012-05-03T13:09:28Z</time>
      </trkpt>
      <trkpt lat="46.99478" lon="-1.03361">
        <ele>133</ele>
        <time>2012-05-03T13:09:29Z</time>
      </trkpt>
      <trkpt lat="46.99478" lon="-1.03353">
        <ele>133</ele>
        <time>2012-05-03T13:09:30Z</time>
      </trkpt>
      <trkpt lat="46.99477" lon="-1.03345">
        <ele>133</ele>
        <time>2012-05-03T13:09:31Z</time>
      </trkpt>
      <trkpt lat="46.99476" lon="-1.03337">
        <ele>133</ele>
        <time>2012-05-03T13:09:32Z</time>
      </trkpt>
      <trkpt lat="46.99474" lon="-1.03329">
        <ele>133</ele>
        <time>2012-05-03T13:09:33Z</time>
      </trkpt>
      <trkpt lat="46.99472" lon="-1.03322">
        <ele>133</ele>
        <time>2012-05-03T13:09:34Z</time>
      </trkpt>
      <trkpt lat="46.99471" lon="-1.03314">
        <ele>133</ele>
        <time>2012-05-03T13:09:35Z</time>
      </trkpt>
      <trkpt lat="46.99468" lon="-1.03309">
        <ele>133</ele>
        <time>2012-05-03T13:09:36Z</time>
      </trkpt>
      <trkpt lat="46.99465" lon="-1.03302">
        <ele>133</ele>
        <time>2012-05-03T13:09:37Z</time>
      </trkpt>
      <trkpt lat="46.99461" lon="-1.03296">
        <ele>133</ele>
        <time>2012-05-03T13:09:38Z</time>
      </trkpt>
      <trkpt lat="46.99457" lon="-1.0329">
        <ele>133</ele>
        <time>2012-05-03T13:09:39Z</time>
      </trkpt>
      <trkpt lat="46.99454" lon="-1.03284">
        <ele>133</ele>
        <time>2012-05-03T13:09:40Z</time>
      </trkpt>
      <trkpt lat="46.9945" lon="-1.03277">
        <ele>133</ele>
        <time>2012-05-03T13:09:41Z</time>
      </trkpt>
      <trkpt lat="46.99447" lon="-1.0327">
        <ele>133</ele>
        <time>2012-05-03T13:09:42Z</time>
      </trkpt>
      <trkpt lat="46.99444" lon="-1.03264">
        <ele>133</ele>
        <time>2012-05-03T13:09:43Z</time>
      </trkpt>
      <trkpt lat="46.99441" lon="-1.03257">
        <ele>133</ele>
        <time>2012-05-03T13:09:44Z</time>
      </trkpt>
      <trkpt lat="46.99437" lon="-1.03251">
        <ele>133</ele>
        <time>2012-05-03T13:09:45Z</time>
      </trkpt>
      <trkpt lat="46.99435" lon="-1.03244">
        <ele>133</ele>
        <time>2012-05-03T13:09:46Z</time>
      </trkpt>
      <trkpt lat="46.99432" lon="-1.03237">
        <ele>133</ele>
        <time>2012-05-03T13:09:47Z</time>
      </trkpt>
      <trkpt lat="46.9943" lon="-1.03231">
        <ele>133</ele>
        <time>2012-05-03T13:09:48Z</time>
      </trkpt>
      <trkpt lat="46.99428" lon="-1.03223">
        <ele>133</ele>
        <time>2012-05-03T13:09:49Z</time>
      </trkpt>
      <trkpt lat="46.99426" lon="-1.03214">
        <ele>133</ele>
        <time>2012-05-03T13:09:50Z</time>
      </trkpt>
      <trkpt lat="46.99423" lon="-1.03207">
        <ele>133</ele>
        <time>2012-05-03T13:09:51Z</time>
      </trkpt>
      <trkpt lat="46.9942" lon="-1.03192">
        <ele>132</ele>
        <time>2012-05-03T13:09:53Z</time>
      </trkpt>
      <trkpt lat="46.99417" lon="-1.03185">
        <ele>132</ele>
        <time>2012-05-03T13:09:54Z</time>
      </trkpt>
      <trkpt lat="46.99409" lon="-1.03162">
        <ele>131</ele>
        <time>2012-05-03T13:09:57Z</time>
      </trkpt>
      <trkpt lat="46.99411" lon="-1.0313">
        <ele>131</ele>
        <time>2012-05-03T13:10:01Z</time>
      </trkpt>
      <trkpt lat="46.99417" lon="-1.03115">
        <ele>131</ele>
        <time>2012-05-03T13:10:04Z</time>
      </trkpt>
      <trkpt lat="46.99426" lon="-1.03103">
        <ele>130</ele>
        <time>2012-05-03T13:10:05Z</time>
      </trkpt>
      <trkpt lat="46.9943" lon="-1.03097">
        <ele>130</ele>
        <time>2012-05-03T13:10:06Z</time>
      </trkpt>
      <trkpt lat="46.99439" lon="-1.03086">
        <ele>130</ele>
        <time>2012-05-03T13:10:08Z</time>
      </trkpt>
      <trkpt lat="46.99444" lon="-1.0308">
        <ele>130</ele>
        <time>2012-05-03T13:10:09Z</time>
      </trkpt>
      <trkpt lat="46.99448" lon="-1.03074">
        <ele>130</ele>
        <time>2012-05-03T13:10:10Z</time>
      </trkpt>
      <trkpt lat="46.99457" lon="-1.03062">
        <ele>130</ele>
        <time>2012-05-03T13:10:12Z</time>
      </trkpt>
      <trkpt lat="46.99462" lon="-1.03056">
        <ele>130</ele>
        <time>2012-05-03T13:10:13Z</time>
      </trkpt>
      <trkpt lat="46.99466" lon="-1.0305">
        <ele>130</ele>
        <time>2012-05-03T13:10:14Z</time>
      </trkpt>
      <trkpt lat="46.99474" lon="-1.03037">
        <ele>129</ele>
        <time>2012-05-03T13:10:16Z</time>
      </trkpt>
      <trkpt lat="46.99477" lon="-1.03029">
        <ele>129</ele>
        <time>2012-05-03T13:10:17Z</time>
      </trkpt>
      <trkpt lat="46.9948" lon="-1.03021">
        <ele>129</ele>
        <time>2012-05-03T13:10:18Z</time>
      </trkpt>
      <trkpt lat="46.99483" lon="-1.03013">
        <ele>129</ele>
        <time>2012-05-03T13:10:19Z</time>
      </trkpt>
      <trkpt lat="46.99487" lon="-1.02995">
        <ele>129</ele>
        <time>2012-05-03T13:10:21Z</time>
      </trkpt>
      <trkpt lat="46.99488" lon="-1.02986">
        <ele>129</ele>
        <time>2012-05-03T13:10:22Z</time>
      </trkpt>
      <trkpt lat="46.9949" lon="-1.02977">
        <ele>129</ele>
        <time>2012-05-03T13:10:23Z</time>
      </trkpt>
      <trkpt lat="46.99492" lon="-1.0296">
        <ele>129</ele>
        <time>2012-05-03T13:10:25Z</time>
      </trkpt>
      <trkpt lat="46.99493" lon="-1.02952">
        <ele>129</ele>
        <time>2012-05-03T13:10:26Z</time>
      </trkpt>
      <trkpt lat="46.99494" lon="-1.02943">
        <ele>129</ele>
        <time>2012-05-03T13:10:27Z</time>
      </trkpt>
      <trkpt lat="46.99496" lon="-1.02935">
        <ele>129</ele>
        <time>2012-05-03T13:10:28Z</time>
      </trkpt>
      <trkpt lat="46.99497" lon="-1.02927">
        <ele>128</ele>
        <time>2012-05-03T13:10:29Z</time>
      </trkpt>
      <trkpt lat="46.99498" lon="-1.02918">
        <ele>128</ele>
        <time>2012-05-03T13:10:30Z</time>
      </trkpt>
      <trkpt lat="46.99499" lon="-1.02909">
        <ele>128</ele>
        <time>2012-05-03T13:10:31Z</time>
      </trkpt>
      <trkpt lat="46.995" lon="-1.02901">
        <ele>127</ele>
        <time>2012-05-03T13:10:32Z</time>
      </trkpt>
      <trkpt lat="46.99501" lon="-1.02894">
        <ele>127</ele>
        <time>2012-05-03T13:10:33Z</time>
      </trkpt>
      <trkpt lat="46.99502" lon="-1.02885">
        <ele>127</ele>
        <time>2012-05-03T13:10:34Z</time>
      </trkpt>
      <trkpt lat="46.99504" lon="-1.02877">
        <ele>127</ele>
        <time>2012-05-03T13:10:35Z</time>
      </trkpt>
      <trkpt lat="46.99506" lon="-1.02869">
        <ele>127</ele>
        <time>2012-05-03T13:10:36Z</time>
      </trkpt>
      <trkpt lat="46.99508" lon="-1.0286">
        <ele>127</ele>
        <time>2012-05-03T13:10:37Z</time>
      </trkpt>
      <trkpt lat="46.9951" lon="-1.02852">
        <ele>127</ele>
        <time>2012-05-03T13:10:38Z</time>
      </trkpt>
      <trkpt lat="46.99512" lon="-1.02844">
        <ele>127</ele>
        <time>2012-05-03T13:10:39Z</time>
      </trkpt>
      <trkpt lat="46.99514" lon="-1.02836">
        <ele>127</ele>
        <time>2012-05-03T13:10:40Z</time>
      </trkpt>
      <trkpt lat="46.99516" lon="-1.02828">
        <ele>127</ele>
        <time>2012-05-03T13:10:41Z</time>
      </trkpt>
      <trkpt lat="46.99518" lon="-1.02819">
        <ele>127</ele>
        <time>2012-05-03T13:10:42Z</time>
      </trkpt>
      <trkpt lat="46.99519" lon="-1.0281">
        <ele>127</ele>
        <time>2012-05-03T13:10:43Z</time>
      </trkpt>
      <trkpt lat="46.9952" lon="-1.02802">
        <ele>127</ele>
        <time>2012-05-03T13:10:44Z</time>
      </trkpt>
      <trkpt lat="46.99521" lon="-1.02793">
        <ele>127</ele>
        <time>2012-05-03T13:10:45Z</time>
      </trkpt>
      <trkpt lat="46.99521" lon="-1.02784">
        <ele>127</ele>
        <time>2012-05-03T13:10:46Z</time>
      </trkpt>
      <trkpt lat="46.99522" lon="-1.02775">
        <ele>127</ele>
        <time>2012-05-03T13:10:47Z</time>
      </trkpt>
      <trkpt lat="46.99522" lon="-1.02767">
        <ele>127</ele>
        <time>2012-05-03T13:10:48Z</time>
      </trkpt>
      <trkpt lat="46.99522" lon="-1.02758">
        <ele>127</ele>
        <time>2012-05-03T13:10:49Z</time>
      </trkpt>
      <trkpt lat="46.99522" lon="-1.0275">
        <ele>127</ele>
        <time>2012-05-03T13:10:50Z</time>
      </trkpt>
      <trkpt lat="46.99522" lon="-1.02742">
        <ele>127</ele>
        <time>2012-05-03T13:10:51Z</time>
      </trkpt>
      <trkpt lat="46.99522" lon="-1.02734">
        <ele>127</ele>
        <time>2012-05-03T13:10:52Z</time>
      </trkpt>
      <trkpt lat="46.99521" lon="-1.02726">
        <ele>127</ele>
        <time>2012-05-03T13:10:53Z</time>
      </trkpt>
      <trkpt lat="46.9952" lon="-1.02718">
        <ele>127</ele>
        <time>2012-05-03T13:10:54Z</time>
      </trkpt>
      <trkpt lat="46.99519" lon="-1.02709">
        <ele>127</ele>
        <time>2012-05-03T13:10:55Z</time>
      </trkpt>
      <trkpt lat="46.99518" lon="-1.02701">
        <ele>127</ele>
        <time>2012-05-03T13:10:56Z</time>
      </trkpt>
      <trkpt lat="46.99517" lon="-1.02693">
        <ele>127</ele>
        <time>2012-05-03T13:10:57Z</time>
      </trkpt>
      <trkpt lat="46.99516" lon="-1.02684">
        <ele>127</ele>
        <time>2012-05-03T13:10:58Z</time>
      </trkpt>
      <trkpt lat="46.99515" lon="-1.02676">
        <ele>127</ele>
        <time>2012-05-03T13:10:59Z</time>
      </trkpt>
      <trkpt lat="46.99513" lon="-1.02668">
        <ele>127</ele>
        <time>2012-05-03T13:11:00Z</time>
      </trkpt>
      <trkpt lat="46.99512" lon="-1.0266">
        <ele>127</ele>
        <time>2012-05-03T13:11:01Z</time>
      </trkpt>
      <trkpt lat="46.9951" lon="-1.02652">
        <ele>127</ele>
        <time>2012-05-03T13:11:02Z</time>
      </trkpt>
      <trkpt lat="46.99509" lon="-1.02644">
        <ele>127</ele>
        <time>2012-05-03T13:11:03Z</time>
      </trkpt>
      <trkpt lat="46.99507" lon="-1.02636">
        <ele>127</ele>
        <time>2012-05-03T13:11:04Z</time>
      </trkpt>
      <trkpt lat="46.99506" lon="-1.02627">
        <ele>127</ele>
        <time>2012-05-03T13:11:05Z</time>
      </trkpt>
      <trkpt lat="46.99505" lon="-1.02619">
        <ele>127</ele>
        <time>2012-05-03T13:11:06Z</time>
      </trkpt>
      <trkpt lat="46.99504" lon="-1.0261">
        <ele>127</ele>
        <time>2012-05-03T13:11:07Z</time>
      </trkpt>
      <trkpt lat="46.99503" lon="-1.02602">
        <ele>127</ele>
        <time>2012-05-03T13:11:08Z</time>
      </trkpt>
      <trkpt lat="46.99502" lon="-1.02594">
        <ele>127</ele>
        <time>2012-05-03T13:11:09Z</time>
      </trkpt>
      <trkpt lat="46.99502" lon="-1.02585">
        <ele>127</ele>
        <time>2012-05-03T13:11:10Z</time>
      </trkpt>
      <trkpt lat="46.99502" lon="-1.02576">
        <ele>127</ele>
        <time>2012-05-03T13:11:11Z</time>
      </trkpt>
      <trkpt lat="46.99503" lon="-1.02568">
        <ele>127</ele>
        <time>2012-05-03T13:11:12Z</time>
      </trkpt>
      <trkpt lat="46.99506" lon="-1.0256">
        <ele>127</ele>
        <time>2012-05-03T13:11:13Z</time>
      </trkpt>
      <trkpt lat="46.99508" lon="-1.02553">
        <ele>127</ele>
        <time>2012-05-03T13:11:14Z</time>
      </trkpt>
      <trkpt lat="46.99511" lon="-1.02545">
        <ele>127</ele>
        <time>2012-05-03T13:11:15Z</time>
      </trkpt>
      <trkpt lat="46.99514" lon="-1.02538">
        <ele>127</ele>
        <time>2012-05-03T13:11:16Z</time>
      </trkpt>
      <trkpt lat="46.99518" lon="-1.02531">
        <ele>127</ele>
        <time>2012-05-03T13:11:17Z</time>
      </trkpt>
      <trkpt lat="46.99521" lon="-1.02524">
        <ele>127</ele>
        <time>2012-05-03T13:11:18Z</time>
      </trkpt>
      <trkpt lat="46.99525" lon="-1.02517">
        <ele>127</ele>
        <time>2012-05-03T13:11:19Z</time>
      </trkpt>
      <trkpt lat="46.99528" lon="-1.02509">
        <ele>127</ele>
        <time>2012-05-03T13:11:20Z</time>
      </trkpt>
      <trkpt lat="46.99531" lon="-1.02502">
        <ele>127</ele>
        <time>2012-05-03T13:11:21Z</time>
      </trkpt>
      <trkpt lat="46.99534" lon="-1.02494">
        <ele>127</ele>
        <time>2012-05-03T13:11:22Z</time>
      </trkpt>
      <trkpt lat="46.99537" lon="-1.02487">
        <ele>127</ele>
        <time>2012-05-03T13:11:23Z</time>
      </trkpt>
      <trkpt lat="46.9954" lon="-1.02479">
        <ele>127</ele>
        <time>2012-05-03T13:11:24Z</time>
      </trkpt>
      <trkpt lat="46.99542" lon="-1.02471">
        <ele>127</ele>
        <time>2012-05-03T13:11:25Z</time>
      </trkpt>
      <trkpt lat="46.99544" lon="-1.02463">
        <ele>127</ele>
        <time>2012-05-03T13:11:26Z</time>
      </trkpt>
      <trkpt lat="46.99546" lon="-1.02455">
        <ele>127</ele>
        <time>2012-05-03T13:11:27Z</time>
      </trkpt>
      <trkpt lat="46.99547" lon="-1.02447">
        <ele>127</ele>
        <time>2012-05-03T13:11:28Z</time>
      </trkpt>
      <trkpt lat="46.99549" lon="-1.02439">
        <ele>126</ele>
        <time>2012-05-03T13:11:29Z</time>
      </trkpt>
      <trkpt lat="46.99551" lon="-1.02431">
        <ele>126</ele>
        <time>2012-05-03T13:11:30Z</time>
      </trkpt>
      <trkpt lat="46.99553" lon="-1.02423">
        <ele>126</ele>
        <time>2012-05-03T13:11:31Z</time>
      </trkpt>
      <trkpt lat="46.99554" lon="-1.02415">
        <ele>126</ele>
        <time>2012-05-03T13:11:32Z</time>
      </trkpt>
      <trkpt lat="46.99555" lon="-1.02407">
        <ele>126</ele>
        <time>2012-05-03T13:11:33Z</time>
      </trkpt>
      <trkpt lat="46.99555" lon="-1.02399">
        <ele>126</ele>
        <time>2012-05-03T13:11:34Z</time>
      </trkpt>
      <trkpt lat="46.99556" lon="-1.02391">
        <ele>126</ele>
        <time>2012-05-03T13:11:35Z</time>
      </trkpt>
      <trkpt lat="46.99556" lon="-1.02383">
        <ele>126</ele>
        <time>2012-05-03T13:11:36Z</time>
      </trkpt>
      <trkpt lat="46.99556" lon="-1.02374">
        <ele>126</ele>
        <time>2012-05-03T13:11:37Z</time>
      </trkpt>
      <trkpt lat="46.99556" lon="-1.02366">
        <ele>126</ele>
        <time>2012-05-03T13:11:38Z</time>
      </trkpt>
      <trkpt lat="46.99556" lon="-1.02358">
        <ele>126</ele>
        <time>2012-05-03T13:11:39Z</time>
      </trkpt>
      <trkpt lat="46.99557" lon="-1.0235">
        <ele>126</ele>
        <time>2012-05-03T13:11:40Z</time>
      </trkpt>
      <trkpt lat="46.99557" lon="-1.02342">
        <ele>126</ele>
        <time>2012-05-03T13:11:41Z</time>
      </trkpt>
      <trkpt lat="46.99558" lon="-1.02335">
        <ele>126</ele>
        <time>2012-05-03T13:11:42Z</time>
      </trkpt>
      <trkpt lat="46.99559" lon="-1.02327">
        <ele>126</ele>
        <time>2012-05-03T13:11:43Z</time>
      </trkpt>
      <trkpt lat="46.99561" lon="-1.02319">
        <ele>126</ele>
        <time>2012-05-03T13:11:44Z</time>
      </trkpt>
      <trkpt lat="46.99562" lon="-1.02311">
        <ele>126</ele>
        <time>2012-05-03T13:11:45Z</time>
      </trkpt>
      <trkpt lat="46.99564" lon="-1.02303">
        <ele>126</ele>
        <time>2012-05-03T13:11:46Z</time>
      </trkpt>
      <trkpt lat="46.99566" lon="-1.02294">
        <ele>126</ele>
        <time>2012-05-03T13:11:47Z</time>
      </trkpt>
      <trkpt lat="46.99567" lon="-1.02286">
        <ele>126</ele>
        <time>2012-05-03T13:11:48Z</time>
      </trkpt>
      <trkpt lat="46.9957" lon="-1.02277">
        <ele>126</ele>
        <time>2012-05-03T13:11:49Z</time>
      </trkpt>
      <trkpt lat="46.99572" lon="-1.02268">
        <ele>125</ele>
        <time>2012-05-03T13:11:50Z</time>
      </trkpt>
      <trkpt lat="46.99574" lon="-1.02259">
        <ele>125</ele>
        <time>2012-05-03T13:11:51Z</time>
      </trkpt>
      <trkpt lat="46.99575" lon="-1.0225">
        <ele>124</ele>
        <time>2012-05-03T13:11:52Z</time>
      </trkpt>
      <trkpt lat="46.99576" lon="-1.0224">
        <ele>124</ele>
        <time>2012-05-03T13:11:53Z</time>
      </trkpt>
      <trkpt lat="46.99577" lon="-1.02231">
        <ele>124</ele>
        <time>2012-05-03T13:11:54Z</time>
      </trkpt>
      <trkpt lat="46.99576" lon="-1.02221">
        <ele>124</ele>
        <time>2012-05-03T13:11:55Z</time>
      </trkpt>
      <trkpt lat="46.99575" lon="-1.02212">
        <ele>124</ele>
        <time>2012-05-03T13:11:56Z</time>
      </trkpt>
      <trkpt lat="46.99574" lon="-1.02203">
        <ele>124</ele>
        <time>2012-05-03T13:11:57Z</time>
      </trkpt>
      <trkpt lat="46.99572" lon="-1.02194">
        <ele>123</ele>
        <time>2012-05-03T13:11:58Z</time>
      </trkpt>
      <trkpt lat="46.9957" lon="-1.02185">
        <ele>123</ele>
        <time>2012-05-03T13:11:59Z</time>
      </trkpt>
      <trkpt lat="46.99569" lon="-1.02176">
        <ele>123</ele>
        <time>2012-05-03T13:12:00Z</time>
      </trkpt>
      <trkpt lat="46.99567" lon="-1.02167">
        <ele>123</ele>
        <time>2012-05-03T13:12:01Z</time>
      </trkpt>
      <trkpt lat="46.99566" lon="-1.02158">
        <ele>123</ele>
        <time>2012-05-03T13:12:02Z</time>
      </trkpt>
      <trkpt lat="46.99564" lon="-1.02149">
        <ele>123</ele>
        <time>2012-05-03T13:12:03Z</time>
      </trkpt>
      <trkpt lat="46.99563" lon="-1.0214">
        <ele>123</ele>
        <time>2012-05-03T13:12:04Z</time>
      </trkpt>
      <trkpt lat="46.99561" lon="-1.02131">
        <ele>123</ele>
        <time>2012-05-03T13:12:05Z</time>
      </trkpt>
      <trkpt lat="46.9956" lon="-1.02122">
        <ele>123</ele>
        <time>2012-05-03T13:12:06Z</time>
      </trkpt>
      <trkpt lat="46.99559" lon="-1.02113">
        <ele>123</ele>
        <time>2012-05-03T13:12:07Z</time>
      </trkpt>
      <trkpt lat="46.99557" lon="-1.02104">
        <ele>123</ele>
        <time>2012-05-03T13:12:08Z</time>
      </trkpt>
      <trkpt lat="46.99556" lon="-1.02094">
        <ele>123</ele>
        <time>2012-05-03T13:12:09Z</time>
      </trkpt>
      <trkpt lat="46.99554" lon="-1.02085">
        <ele>123</ele>
        <time>2012-05-03T13:12:10Z</time>
      </trkpt>
      <trkpt lat="46.99553" lon="-1.02076">
        <ele>122</ele>
        <time>2012-05-03T13:12:11Z</time>
      </trkpt>
      <trkpt lat="46.99552" lon="-1.02067">
        <ele>122</ele>
        <time>2012-05-03T13:12:12Z</time>
      </trkpt>
      <trkpt lat="46.99551" lon="-1.02057">
        <ele>122</ele>
        <time>2012-05-03T13:12:13Z</time>
      </trkpt>
      <trkpt lat="46.99549" lon="-1.02047">
        <ele>122</ele>
        <time>2012-05-03T13:12:14Z</time>
      </trkpt>
      <trkpt lat="46.99548" lon="-1.02038">
        <ele>121</ele>
        <time>2012-05-03T13:12:15Z</time>
      </trkpt>
      <trkpt lat="46.99546" lon="-1.02027">
        <ele>121</ele>
        <time>2012-05-03T13:12:16Z</time>
      </trkpt>
      <trkpt lat="46.99545" lon="-1.02017">
        <ele>120</ele>
        <time>2012-05-03T13:12:17Z</time>
      </trkpt>
      <trkpt lat="46.99543" lon="-1.02007">
        <ele>120</ele>
        <time>2012-05-03T13:12:18Z</time>
      </trkpt>
      <trkpt lat="46.99541" lon="-1.01996">
        <ele>119</ele>
        <time>2012-05-03T13:12:19Z</time>
      </trkpt>
      <trkpt lat="46.9954" lon="-1.01985">
        <ele>119</ele>
        <time>2012-05-03T13:12:20Z</time>
      </trkpt>
      <trkpt lat="46.99538" lon="-1.01974">
        <ele>118</ele>
        <time>2012-05-03T13:12:21Z</time>
      </trkpt>
      <trkpt lat="46.99536" lon="-1.01962">
        <ele>118</ele>
        <time>2012-05-03T13:12:22Z</time>
      </trkpt>
      <trkpt lat="46.99535" lon="-1.0195">
        <ele>117</ele>
        <time>2012-05-03T13:12:23Z</time>
      </trkpt>
      <trkpt lat="46.99532" lon="-1.01938">
        <ele>116</ele>
        <time>2012-05-03T13:12:24Z</time>
      </trkpt>
      <trkpt lat="46.9953" lon="-1.01925">
        <ele>116</ele>
        <time>2012-05-03T13:12:25Z</time>
      </trkpt>
      <trkpt lat="46.99528" lon="-1.01912">
        <ele>115</ele>
        <time>2012-05-03T13:12:26Z</time>
      </trkpt>
      <trkpt lat="46.99526" lon="-1.019">
        <ele>115</ele>
        <time>2012-05-03T13:12:27Z</time>
      </trkpt>
      <trkpt lat="46.99524" lon="-1.01886">
        <ele>114</ele>
        <time>2012-05-03T13:12:28Z</time>
      </trkpt>
      <trkpt lat="46.99523" lon="-1.01873">
        <ele>113</ele>
        <time>2012-05-03T13:12:29Z</time>
      </trkpt>
      <trkpt lat="46.99522" lon="-1.0186">
        <ele>113</ele>
        <time>2012-05-03T13:12:30Z</time>
      </trkpt>
      <trkpt lat="46.99521" lon="-1.01846">
        <ele>112</ele>
        <time>2012-05-03T13:12:31Z</time>
      </trkpt>
      <trkpt lat="46.99523" lon="-1.01832">
        <ele>112</ele>
        <time>2012-05-03T13:12:32Z</time>
      </trkpt>
      <trkpt lat="46.99524" lon="-1.01818">
        <ele>111</ele>
        <time>2012-05-03T13:12:33Z</time>
      </trkpt>
      <trkpt lat="46.99526" lon="-1.01803">
        <ele>111</ele>
        <time>2012-05-03T13:12:34Z</time>
      </trkpt>
      <trkpt lat="46.99528" lon="-1.01789">
        <ele>110</ele>
        <time>2012-05-03T13:12:35Z</time>
      </trkpt>
      <trkpt lat="46.9953" lon="-1.01775">
        <ele>109</ele>
        <time>2012-05-03T13:12:36Z</time>
      </trkpt>
      <trkpt lat="46.99533" lon="-1.0176">
        <ele>109</ele>
        <time>2012-05-03T13:12:37Z</time>
      </trkpt>
      <trkpt lat="46.99535" lon="-1.01746">
        <ele>108</ele>
        <time>2012-05-03T13:12:37Z</time>
      </trkpt>
      <trkpt lat="46.99536" lon="-1.01731">
        <ele>108</ele>
        <time>2012-05-03T13:12:38Z</time>
      </trkpt>
      <trkpt lat="46.99538" lon="-1.01716">
        <ele>107</ele>
        <time>2012-05-03T13:12:39Z</time>
      </trkpt>
      <trkpt lat="46.99538" lon="-1.01702">
        <ele>106</ele>
        <time>2012-05-03T13:12:41Z</time>
      </trkpt>
      <trkpt lat="46.99537" lon="-1.01687">
        <ele>106</ele>
        <time>2012-05-03T13:12:42Z</time>
      </trkpt>
      <trkpt lat="46.99534" lon="-1.01673">
        <ele>105</ele>
        <time>2012-05-03T13:12:43Z</time>
      </trkpt>
      <trkpt lat="46.99531" lon="-1.0166">
        <ele>105</ele>
        <time>2012-05-03T13:12:44Z</time>
      </trkpt>
      <trkpt lat="46.99527" lon="-1.01646">
        <ele>104</ele>
        <time>2012-05-03T13:12:45Z</time>
      </trkpt>
      <trkpt lat="46.99524" lon="-1.01632">
        <ele>103</ele>
        <time>2012-05-03T13:12:46Z</time>
      </trkpt>
      <trkpt lat="46.99523" lon="-1.01617">
        <ele>102</ele>
        <time>2012-05-03T13:12:47Z</time>
      </trkpt>
      <trkpt lat="46.99524" lon="-1.01602">
        <ele>102</ele>
        <time>2012-05-03T13:12:47Z</time>
      </trkpt>
      <trkpt lat="46.99526" lon="-1.01588">
        <ele>101</ele>
        <time>2012-05-03T13:12:49Z</time>
      </trkpt>
      <trkpt lat="46.99531" lon="-1.01576">
        <ele>100</ele>
        <time>2012-05-03T13:12:50Z</time>
      </trkpt>
      <trkpt lat="46.99537" lon="-1.01564">
        <ele>99</ele>
        <time>2012-05-03T13:12:50Z</time>
      </trkpt>
      <trkpt lat="46.99542" lon="-1.01551">
        <ele>98</ele>
        <time>2012-05-03T13:12:51Z</time>
      </trkpt>
      <trkpt lat="46.99546" lon="-1.01537">
        <ele>97</ele>
        <time>2012-05-03T13:12:52Z</time>
      </trkpt>
      <trkpt lat="46.9955" lon="-1.01522">
        <ele>97</ele>
        <time>2012-05-03T13:12:53Z</time>
      </trkpt>
      <trkpt lat="46.99553" lon="-1.01507">
        <ele>96</ele>
        <time>2012-05-03T13:12:54Z</time>
      </trkpt>
      <trkpt lat="46.99556" lon="-1.01492">
        <ele>96</ele>
        <time>2012-05-03T13:12:55Z</time>
      </trkpt>
      <trkpt lat="46.99559" lon="-1.01477">
        <ele>95</ele>
        <time>2012-05-03T13:12:56Z</time>
      </trkpt>
      <trkpt lat="46.99561" lon="-1.01462">
        <ele>94</ele>
        <time>2012-05-03T13:12:57Z</time>
      </trkpt>
      <trkpt lat="46.99564" lon="-1.01446">
        <ele>94</ele>
        <time>2012-05-03T13:12:58Z</time>
      </trkpt>
      <trkpt lat="46.99567" lon="-1.01431">
        <ele>93</ele>
        <time>2012-05-03T13:12:59Z</time>
      </trkpt>
      <trkpt lat="46.99569" lon="-1.01416">
        <ele>92</ele>
        <time>2012-05-03T13:13:00Z</time>
      </trkpt>
      <trkpt lat="46.99572" lon="-1.014">
        <ele>92</ele>
        <time>2012-05-03T13:13:01Z</time>
      </trkpt>
      <trkpt lat="46.99575" lon="-1.01385">
        <ele>91</ele>
        <time>2012-05-03T13:13:02Z</time>
      </trkpt>
      <trkpt lat="46.99577" lon="-1.01369">
        <ele>90</ele>
        <time>2012-05-03T13:13:03Z</time>
      </trkpt>
      <trkpt lat="46.9958" lon="-1.01354">
        <ele>90</ele>
        <time>2012-05-03T13:13:04Z</time>
      </trkpt>
      <trkpt lat="46.99583" lon="-1.01339">
        <ele>89</ele>
        <time>2012-05-03T13:13:05Z</time>
      </trkpt>
      <trkpt lat="46.99585" lon="-1.01323">
        <ele>89</ele>
        <time>2012-05-03T13:13:06Z</time>
      </trkpt>
      <trkpt lat="46.99588" lon="-1.01308">
        <ele>88</ele>
        <time>2012-05-03T13:13:07Z</time>
      </trkpt>
      <trkpt lat="46.99591" lon="-1.01293">
        <ele>87</ele>
        <time>2012-05-03T13:13:08Z</time>
      </trkpt>
      <trkpt lat="46.99593" lon="-1.01277">
        <ele>87</ele>
        <time>2012-05-03T13:13:09Z</time>
      </trkpt>
      <trkpt lat="46.99594" lon="-1.01262">
        <ele>86</ele>
        <time>2012-05-03T13:13:10Z</time>
      </trkpt>
      <trkpt lat="46.99594" lon="-1.01246">
        <ele>86</ele>
        <time>2012-05-03T13:13:11Z</time>
      </trkpt>
      <trkpt lat="46.99593" lon="-1.0123">
        <ele>85</ele>
        <time>2012-05-03T13:13:12Z</time>
      </trkpt>
      <trkpt lat="46.99591" lon="-1.01214">
        <ele>84</ele>
        <time>2012-05-03T13:13:13Z</time>
      </trkpt>
      <trkpt lat="46.99591" lon="-1.01198">
        <ele>84</ele>
        <time>2012-05-03T13:13:14Z</time>
      </trkpt>
      <trkpt lat="46.99591" lon="-1.01182">
        <ele>83</ele>
        <time>2012-05-03T13:13:15Z</time>
      </trkpt>
      <trkpt lat="46.99594" lon="-1.01166">
        <ele>82</ele>
        <time>2012-05-03T13:13:17Z</time>
      </trkpt>
      <trkpt lat="46.99598" lon="-1.01152">
        <ele>81</ele>
        <time>2012-05-03T13:13:17Z</time>
      </trkpt>
      <trkpt lat="46.99603" lon="-1.01137">
        <ele>81</ele>
        <time>2012-05-03T13:13:18Z</time>
      </trkpt>
      <trkpt lat="46.99607" lon="-1.01123">
        <ele>81</ele>
        <time>2012-05-03T13:13:19Z</time>
      </trkpt>
      <trkpt lat="46.99612" lon="-1.0111">
        <ele>81</ele>
        <time>2012-05-03T13:13:21Z</time>
      </trkpt>
      <trkpt lat="46.99616" lon="-1.01098">
        <ele>81</ele>
        <time>2012-05-03T13:13:22Z</time>
      </trkpt>
      <trkpt lat="46.9962" lon="-1.01087">
        <ele>81</ele>
        <time>2012-05-03T13:13:23Z</time>
      </trkpt>
      <trkpt lat="46.99623" lon="-1.01077">
        <ele>81</ele>
        <time>2012-05-03T13:13:24Z</time>
      </trkpt>
      <trkpt lat="46.99626" lon="-1.01069">
        <ele>81</ele>
        <time>2012-05-03T13:13:25Z</time>
      </trkpt>
      <trkpt lat="46.99629" lon="-1.0106">
        <ele>81</ele>
        <time>2012-05-03T13:13:26Z</time>
      </trkpt>
      <trkpt lat="46.99632" lon="-1.01054">
        <ele>81</ele>
        <time>2012-05-03T13:13:27Z</time>
      </trkpt>
      <trkpt lat="46.99634" lon="-1.01048">
        <ele>81</ele>
        <time>2012-05-03T13:13:28Z</time>
      </trkpt>
      <trkpt lat="46.99636" lon="-1.01042">
        <ele>81</ele>
        <time>2012-05-03T13:13:29Z</time>
      </trkpt>
      <trkpt lat="46.99638" lon="-1.01038">
        <ele>81</ele>
        <time>2012-05-03T13:13:30Z</time>
      </trkpt>
      <trkpt lat="46.9964" lon="-1.01034">
        <ele>81</ele>
        <time>2012-05-03T13:13:31Z</time>
      </trkpt>
      <trkpt lat="46.99641" lon="-1.01031">
        <ele>81</ele>
        <time>2012-05-03T13:13:32Z</time>
      </trkpt>
      <trkpt lat="46.99642" lon="-1.01028">
        <ele>81</ele>
        <time>2012-05-03T13:13:33Z</time>
      </trkpt>
      <trkpt lat="46.99643" lon="-1.01025">
        <ele>81</ele>
        <time>2012-05-03T13:13:34Z</time>
      </trkpt>
      <trkpt lat="46.99644" lon="-1.01023">
        <ele>81</ele>
        <time>2012-05-03T13:13:35Z</time>
      </trkpt>
      <trkpt lat="46.99645" lon="-1.01021">
        <ele>81</ele>
        <time>2012-05-03T13:13:36Z</time>
      </trkpt>
      <trkpt lat="46.99646" lon="-1.0102">
        <ele>81</ele>
        <time>2012-05-03T13:13:37Z</time>
      </trkpt>
      <trkpt lat="46.99648" lon="-1.01017">
        <ele>81</ele>
        <time>2012-05-03T13:13:38Z</time>
      </trkpt>
      <trkpt lat="46.99649" lon="-1.01015">
        <ele>81</ele>
        <time>2012-05-03T13:13:39Z</time>
      </trkpt>
      <trkpt lat="46.9965" lon="-1.01012">
        <ele>81</ele>
        <time>2012-05-03T13:13:40Z</time>
      </trkpt>
      <trkpt lat="46.99651" lon="-1.0101">
        <ele>81</ele>
        <time>2012-05-03T13:13:41Z</time>
      </trkpt>
      <trkpt lat="46.99652" lon="-1.01007">
        <ele>81</ele>
        <time>2012-05-03T13:13:42Z</time>
      </trkpt>
      <trkpt lat="46.99654" lon="-1.01005">
        <ele>81</ele>
        <time>2012-05-03T13:13:43Z</time>
      </trkpt>
      <trkpt lat="46.99656" lon="-1.01002">
        <ele>81</ele>
        <time>2012-05-03T13:13:44Z</time>
      </trkpt>
      <trkpt lat="46.99657" lon="-1.01">
        <ele>81</ele>
        <time>2012-05-03T13:13:45Z</time>
      </trkpt>
      <trkpt lat="46.99657" lon="-1.00998">
        <ele>81</ele>
        <time>2012-05-03T13:13:46Z</time>
      </trkpt>
      <trkpt lat="46.99658" lon="-1.00996">
        <ele>81</ele>
        <time>2012-05-03T13:13:47Z</time>
      </trkpt>
      <trkpt lat="46.99659" lon="-1.00993">
        <ele>81</ele>
        <time>2012-05-03T13:13:48Z</time>
      </trkpt>
      <trkpt lat="46.9966" lon="-1.00991">
        <ele>81</ele>
        <time>2012-05-03T13:13:49Z</time>
      </trkpt>
      <trkpt lat="46.99662" lon="-1.00988">
        <ele>81</ele>
        <time>2012-05-03T13:13:50Z</time>
      </trkpt>
      <trkpt lat="46.99662" lon="-1.00985">
        <ele>81</ele>
        <time>2012-05-03T13:13:51Z</time>
      </trkpt>
      <trkpt lat="46.99664" lon="-1.00983">
        <ele>81</ele>
        <time>2012-05-03T13:13:52Z</time>
      </trkpt>
      <trkpt lat="46.99665" lon="-1.0098">
        <ele>81</ele>
        <time>2012-05-03T13:13:53Z</time>
      </trkpt>
      <trkpt lat="46.99665" lon="-1.00978">
        <ele>82</ele>
        <time>2012-05-03T13:13:54Z</time>
      </trkpt>
      <trkpt lat="46.99667" lon="-1.00975">
        <ele>82</ele>
        <time>2012-05-03T13:13:55Z</time>
      </trkpt>
      <trkpt lat="46.99667" lon="-1.00972">
        <ele>82</ele>
        <time>2012-05-03T13:13:56Z</time>
      </trkpt>
      <trkpt lat="46.99669" lon="-1.0097">
        <ele>82</ele>
        <time>2012-05-03T13:13:57Z</time>
      </trkpt>
      <trkpt lat="46.99669" lon="-1.00967">
        <ele>83</ele>
        <time>2012-05-03T13:13:58Z</time>
      </trkpt>
      <trkpt lat="46.99671" lon="-1.00965">
        <ele>83</ele>
        <time>2012-05-03T13:13:59Z</time>
      </trkpt>
      <trkpt lat="46.99672" lon="-1.00963">
        <ele>83</ele>
        <time>2012-05-03T13:14:00Z</time>
      </trkpt>
      <trkpt lat="46.99673" lon="-1.00961">
        <ele>84</ele>
        <time>2012-05-03T13:14:01Z</time>
      </trkpt>
      <trkpt lat="46.99674" lon="-1.00958">
        <ele>84</ele>
        <time>2012-05-03T13:14:02Z</time>
      </trkpt>
      <trkpt lat="46.99675" lon="-1.00955">
        <ele>84</ele>
        <time>2012-05-03T13:14:03Z</time>
      </trkpt>
      <trkpt lat="46.99675" lon="-1.00952">
        <ele>84</ele>
        <time>2012-05-03T13:14:04Z</time>
      </trkpt>
      <trkpt lat="46.99676" lon="-1.00949">
        <ele>85</ele>
        <time>2012-05-03T13:14:05Z</time>
      </trkpt>
      <trkpt lat="46.99676" lon="-1.00946">
        <ele>85</ele>
        <time>2012-05-03T13:14:06Z</time>
      </trkpt>
      <trkpt lat="46.99678" lon="-1.00944">
        <ele>85</ele>
        <time>2012-05-03T13:14:07Z</time>
      </trkpt>
      <trkpt lat="46.99678" lon="-1.00941">
        <ele>85</ele>
        <time>2012-05-03T13:14:08Z</time>
      </trkpt>
      <trkpt lat="46.99679" lon="-1.00938">
        <ele>85</ele>
        <time>2012-05-03T13:14:09Z</time>
      </trkpt>
      <trkpt lat="46.9968" lon="-1.00935">
        <ele>85</ele>
        <time>2012-05-03T13:14:10Z</time>
      </trkpt>
      <trkpt lat="46.99681" lon="-1.00932">
        <ele>85</ele>
        <time>2012-05-03T13:14:11Z</time>
      </trkpt>
      <trkpt lat="46.99682" lon="-1.0093">
        <ele>85</ele>
        <time>2012-05-03T13:14:12Z</time>
      </trkpt>
      <trkpt lat="46.99683" lon="-1.00927">
        <ele>85</ele>
        <time>2012-05-03T13:14:13Z</time>
      </trkpt>
      <trkpt lat="46.99684" lon="-1.00925">
        <ele>85</ele>
        <time>2012-05-03T13:14:14Z</time>
      </trkpt>
      <trkpt lat="46.99684" lon="-1.00922">
        <ele>85</ele>
        <time>2012-05-03T13:14:15Z</time>
      </trkpt>
      <trkpt lat="46.99685" lon="-1.00918">
        <ele>85</ele>
        <time>2012-05-03T13:14:16Z</time>
      </trkpt>
      <trkpt lat="46.99686" lon="-1.00915">
        <ele>85</ele>
        <time>2012-05-03T13:14:17Z</time>
      </trkpt>
      <trkpt lat="46.99688" lon="-1.00911">
        <ele>85</ele>
        <time>2012-05-03T13:14:18Z</time>
      </trkpt>
      <trkpt lat="46.99689" lon="-1.00908">
        <ele>85</ele>
        <time>2012-05-03T13:14:19Z</time>
      </trkpt>
      <trkpt lat="46.9969" lon="-1.00904">
        <ele>85</ele>
        <time>2012-05-03T13:14:20Z</time>
      </trkpt>
      <trkpt lat="46.99691" lon="-1.00901">
        <ele>85</ele>
        <time>2012-05-03T13:14:21Z</time>
      </trkpt>
      <trkpt lat="46.99691" lon="-1.00898">
        <ele>85</ele>
        <time>2012-05-03T13:14:22Z</time>
      </trkpt>
      <trkpt lat="46.99693" lon="-1.00895">
        <ele>85</ele>
        <time>2012-05-03T13:14:23Z</time>
      </trkpt>
      <trkpt lat="46.99694" lon="-1.00892">
        <ele>85</ele>
        <time>2012-05-03T13:14:24Z</time>
      </trkpt>
      <trkpt lat="46.99695" lon="-1.00889">
        <ele>86</ele>
        <time>2012-05-03T13:14:25Z</time>
      </trkpt>
      <trkpt lat="46.99696" lon="-1.00885">
        <ele>86</ele>
        <time>2012-05-03T13:14:26Z</time>
      </trkpt>
      <trkpt lat="46.99696" lon="-1.00882">
        <ele>86</ele>
        <time>2012-05-03T13:14:27Z</time>
      </trkpt>
      <trkpt lat="46.99698" lon="-1.00879">
        <ele>86</ele>
        <time>2012-05-03T13:14:28Z</time>
      </trkpt>
      <trkpt lat="46.99699" lon="-1.00876">
        <ele>86</ele>
        <time>2012-05-03T13:14:29Z</time>
      </trkpt>
      <trkpt lat="46.997" lon="-1.00873">
        <ele>86</ele>
        <time>2012-05-03T13:14:30Z</time>
      </trkpt>
      <trkpt lat="46.99701" lon="-1.0087">
        <ele>87</ele>
        <time>2012-05-03T13:14:31Z</time>
      </trkpt>
      <trkpt lat="46.99702" lon="-1.00866">
        <ele>87</ele>
        <time>2012-05-03T13:14:32Z</time>
      </trkpt>
      <trkpt lat="46.99704" lon="-1.00863">
        <ele>87</ele>
        <time>2012-05-03T13:14:33Z</time>
      </trkpt>
      <trkpt lat="46.99705" lon="-1.00859">
        <ele>87</ele>
        <time>2012-05-03T13:14:34Z</time>
      </trkpt>
      <trkpt lat="46.99706" lon="-1.00856">
        <ele>87</ele>
        <time>2012-05-03T13:14:35Z</time>
      </trkpt>
      <trkpt lat="46.99707" lon="-1.00852">
        <ele>87</ele>
        <time>2012-05-03T13:14:36Z</time>
      </trkpt>
      <trkpt lat="46.99708" lon="-1.00848">
        <ele>88</ele>
        <time>2012-05-03T13:14:37Z</time>
      </trkpt>
      <trkpt lat="46.9971" lon="-1.00844">
        <ele>88</ele>
        <time>2012-05-03T13:14:38Z</time>
      </trkpt>
      <trkpt lat="46.99711" lon="-1.0084">
        <ele>88</ele>
        <time>2012-05-03T13:14:39Z</time>
      </trkpt>
      <trkpt lat="46.99713" lon="-1.00836">
        <ele>88</ele>
        <time>2012-05-03T13:14:40Z</time>
      </trkpt>
      <trkpt lat="46.99714" lon="-1.00832">
        <ele>88</ele>
        <time>2012-05-03T13:14:41Z</time>
      </trkpt>
      <trkpt lat="46.99716" lon="-1.00828">
        <ele>88</ele>
        <time>2012-05-03T13:14:42Z</time>
      </trkpt>
      <trkpt lat="46.99717" lon="-1.00823">
        <ele>88</ele>
        <time>2012-05-03T13:14:43Z</time>
      </trkpt>
      <trkpt lat="46.99718" lon="-1.00819">
        <ele>88</ele>
        <time>2012-05-03T13:14:44Z</time>
      </trkpt>
      <trkpt lat="46.9972" lon="-1.00814">
        <ele>88</ele>
        <time>2012-05-03T13:14:45Z</time>
      </trkpt>
      <trkpt lat="46.99722" lon="-1.00809">
        <ele>88</ele>
        <time>2012-05-03T13:14:46Z</time>
      </trkpt>
      <trkpt lat="46.99723" lon="-1.00804">
        <ele>88</ele>
        <time>2012-05-03T13:14:47Z</time>
      </trkpt>
      <trkpt lat="46.99725" lon="-1.00799">
        <ele>88</ele>
        <time>2012-05-03T13:14:48Z</time>
      </trkpt>
      <trkpt lat="46.99726" lon="-1.00794">
        <ele>88</ele>
        <time>2012-05-03T13:14:49Z</time>
      </trkpt>
      <trkpt lat="46.99728" lon="-1.00789">
        <ele>88</ele>
        <time>2012-05-03T13:14:50Z</time>
      </trkpt>
      <trkpt lat="46.9973" lon="-1.00783">
        <ele>88</ele>
        <time>2012-05-03T13:14:51Z</time>
      </trkpt>
      <trkpt lat="46.99731" lon="-1.00777">
        <ele>88</ele>
        <time>2012-05-03T13:14:52Z</time>
      </trkpt>
      <trkpt lat="46.99733" lon="-1.0077">
        <ele>88</ele>
        <time>2012-05-03T13:14:53Z</time>
      </trkpt>
      <trkpt lat="46.99735" lon="-1.00763">
        <ele>88</ele>
        <time>2012-05-03T13:14:54Z</time>
      </trkpt>
      <trkpt lat="46.99736" lon="-1.00756">
        <ele>88</ele>
        <time>2012-05-03T13:14:55Z</time>
      </trkpt>
      <trkpt lat="46.99738" lon="-1.00749">
        <ele>88</ele>
        <time>2012-05-03T13:14:56Z</time>
      </trkpt>
      <trkpt lat="46.9974" lon="-1.00742">
        <ele>88</ele>
        <time>2012-05-03T13:14:57Z</time>
      </trkpt>
      <trkpt lat="46.99742" lon="-1.00734">
        <ele>88</ele>
        <time>2012-05-03T13:14:58Z</time>
      </trkpt>
      <trkpt lat="46.99744" lon="-1.00726">
        <ele>88</ele>
        <time>2012-05-03T13:14:59Z</time>
      </trkpt>
      <trkpt lat="46.99744" lon="-1.00717">
        <ele>88</ele>
        <time>2012-05-03T13:15:00Z</time>
      </trkpt>
      <trkpt lat="46.99745" lon="-1.00709">
        <ele>88</ele>
        <time>2012-05-03T13:15:01Z</time>
      </trkpt>
      <trkpt lat="46.99746" lon="-1.007">
        <ele>88</ele>
        <time>2012-05-03T13:15:02Z</time>
      </trkpt>
      <trkpt lat="46.99747" lon="-1.00692">
        <ele>88</ele>
        <time>2012-05-03T13:15:03Z</time>
      </trkpt>
      <trkpt lat="46.99748" lon="-1.00683">
        <ele>88</ele>
        <time>2012-05-03T13:15:04Z</time>
      </trkpt>
      <trkpt lat="46.99749" lon="-1.00674">
        <ele>88</ele>
        <time>2012-05-03T13:15:05Z</time>
      </trkpt>
      <trkpt lat="46.99749" lon="-1.00666">
        <ele>88</ele>
        <time>2012-05-03T13:15:06Z</time>
      </trkpt>
      <trkpt lat="46.9975" lon="-1.00658">
        <ele>88</ele>
        <time>2012-05-03T13:15:07Z</time>
      </trkpt>
      <trkpt lat="46.99751" lon="-1.0065">
        <ele>88</ele>
        <time>2012-05-03T13:15:08Z</time>
      </trkpt>
      <trkpt lat="46.99752" lon="-1.00643">
        <ele>88</ele>
        <time>2012-05-03T13:15:09Z</time>
      </trkpt>
      <trkpt lat="46.99752" lon="-1.00636">
        <ele>88</ele>
        <time>2012-05-03T13:15:10Z</time>
      </trkpt>
      <trkpt lat="46.99752" lon="-1.00628">
        <ele>88</ele>
        <time>2012-05-03T13:15:11Z</time>
      </trkpt>
      <trkpt lat="46.99753" lon="-1.00623">
        <ele>88</ele>
        <time>2012-05-03T13:15:12Z</time>
      </trkpt>
      <trkpt lat="46.99752" lon="-1.0062">
        <ele>88</ele>
        <time>2012-05-03T13:15:13Z</time>
      </trkpt>
      <trkpt lat="46.99751" lon="-1.00621">
        <ele>88</ele>
        <time>2012-05-03T13:15:14Z</time>
      </trkpt>
      <trkpt lat="46.99751" lon="-1.00623">
        <ele>88</ele>
        <time>2012-05-03T13:15:15Z</time>
      </trkpt>
      <trkpt lat="46.99751" lon="-1.00625">
        <ele>88</ele>
        <time>2012-05-03T13:15:16Z</time>
      </trkpt>
      <trkpt lat="46.99751" lon="-1.00627">
        <ele>88</ele>
        <time>2012-05-03T13:15:23Z</time>
      </trkpt>
      <trkpt lat="46.99751" lon="-1.00628">
        <ele>88</ele>
        <time>2012-05-03T13:15:24Z</time>
      </trkpt>
      <trkpt lat="46.99753" lon="-1.00629">
        <ele>88</ele>
        <time>2012-05-03T13:15:26Z</time>
      </trkpt>
      <trkpt lat="46.99753" lon="-1.00626">
        <ele>88</ele>
        <time>2012-05-03T13:15:28Z</time>
      </trkpt>
      <trkpt lat="46.99753" lon="-1.00625">
        <ele>88</ele>
        <time>2012-05-03T13:15:29Z</time>
      </trkpt>
      <trkpt lat="46.99753" lon="-1.00622">
        <ele>88</ele>
        <time>2012-05-03T13:15:30Z</time>
      </trkpt>
      <trkpt lat="46.99753" lon="-1.0062">
        <ele>88</ele>
        <time>2012-05-03T13:15:31Z</time>
      </trkpt>
      <trkpt lat="46.99754" lon="-1.00618">
        <ele>88</ele>
        <time>2012-05-03T13:15:32Z</time>
      </trkpt>
      <trkpt lat="46.99755" lon="-1.00615">
        <ele>88</ele>
        <time>2012-05-03T13:15:33Z</time>
      </trkpt>
      <trkpt lat="46.99757" lon="-1.00611">
        <ele>88</ele>
        <time>2012-05-03T13:15:34Z</time>
      </trkpt>
      <trkpt lat="46.99758" lon="-1.00606">
        <ele>88</ele>
        <time>2012-05-03T13:15:35Z</time>
      </trkpt>
      <trkpt lat="46.9976" lon="-1.006">
        <ele>88</ele>
        <time>2012-05-03T13:15:36Z</time>
      </trkpt>
      <trkpt lat="46.99761" lon="-1.00593">
        <ele>88</ele>
        <time>2012-05-03T13:15:37Z</time>
      </trkpt>
      <trkpt lat="46.99762" lon="-1.00586">
        <ele>88</ele>
        <time>2012-05-03T13:15:38Z</time>
      </trkpt>
      <trkpt lat="46.99762" lon="-1.00579">
        <ele>88</ele>
        <time>2012-05-03T13:15:39Z</time>
      </trkpt>
      <trkpt lat="46.99762" lon="-1.00571">
        <ele>88</ele>
        <time>2012-05-03T13:15:40Z</time>
      </trkpt>
      <trkpt lat="46.99762" lon="-1.00563">
        <ele>88</ele>
        <time>2012-05-03T13:15:41Z</time>
      </trkpt>
      <trkpt lat="46.99761" lon="-1.00555">
        <ele>88</ele>
        <time>2012-05-03T13:15:42Z</time>
      </trkpt>
      <trkpt lat="46.9976" lon="-1.00547">
        <ele>88</ele>
        <time>2012-05-03T13:15:43Z</time>
      </trkpt>
      <trkpt lat="46.99758" lon="-1.00538">
        <ele>88</ele>
        <time>2012-05-03T13:15:44Z</time>
      </trkpt>
      <trkpt lat="46.99756" lon="-1.00529">
        <ele>88</ele>
        <time>2012-05-03T13:15:45Z</time>
      </trkpt>
      <trkpt lat="46.99754" lon="-1.0052">
        <ele>88</ele>
        <time>2012-05-03T13:15:46Z</time>
      </trkpt>
      <trkpt lat="46.99752" lon="-1.00511">
        <ele>88</ele>
        <time>2012-05-03T13:15:47Z</time>
      </trkpt>
      <trkpt lat="46.9975" lon="-1.00502">
        <ele>87</ele>
        <time>2012-05-03T13:15:48Z</time>
      </trkpt>
      <trkpt lat="46.99748" lon="-1.00493">
        <ele>87</ele>
        <time>2012-05-03T13:15:49Z</time>
      </trkpt>
      <trkpt lat="46.99746" lon="-1.00484">
        <ele>87</ele>
        <time>2012-05-03T13:15:50Z</time>
      </trkpt>
      <trkpt lat="46.99744" lon="-1.00475">
        <ele>87</ele>
        <time>2012-05-03T13:15:51Z</time>
      </trkpt>
      <trkpt lat="46.99742" lon="-1.00466">
        <ele>87</ele>
        <time>2012-05-03T13:15:52Z</time>
      </trkpt>
      <trkpt lat="46.9974" lon="-1.00457">
        <ele>87</ele>
        <time>2012-05-03T13:15:53Z</time>
      </trkpt>
      <trkpt lat="46.99738" lon="-1.00449">
        <ele>87</ele>
        <time>2012-05-03T13:15:54Z</time>
      </trkpt>
      <trkpt lat="46.99736" lon="-1.0044">
        <ele>87</ele>
        <time>2012-05-03T13:15:55Z</time>
      </trkpt>
      <trkpt lat="46.99734" lon="-1.00432">
        <ele>87</ele>
        <time>2012-05-03T13:15:56Z</time>
      </trkpt>
      <trkpt lat="46.99732" lon="-1.00424">
        <ele>87</ele>
        <time>2012-05-03T13:15:57Z</time>
      </trkpt>
      <trkpt lat="46.9973" lon="-1.00416">
        <ele>87</ele>
        <time>2012-05-03T13:15:58Z</time>
      </trkpt>
      <trkpt lat="46.99728" lon="-1.00408">
        <ele>87</ele>
        <time>2012-05-03T13:15:59Z</time>
      </trkpt>
      <trkpt lat="46.99726" lon="-1.004">
        <ele>87</ele>
        <time>2012-05-03T13:16:00Z</time>
      </trkpt>
      <trkpt lat="46.99724" lon="-1.00392">
        <ele>87</ele>
        <time>2012-05-03T13:16:01Z</time>
      </trkpt>
      <trkpt lat="46.99722" lon="-1.00385">
        <ele>87</ele>
        <time>2012-05-03T13:16:02Z</time>
      </trkpt>
      <trkpt lat="46.9972" lon="-1.00377">
        <ele>87</ele>
        <time>2012-05-03T13:16:03Z</time>
      </trkpt>
      <trkpt lat="46.99718" lon="-1.00369">
        <ele>87</ele>
        <time>2012-05-03T13:16:04Z</time>
      </trkpt>
      <trkpt lat="46.99717" lon="-1.00362">
        <ele>87</ele>
        <time>2012-05-03T13:16:05Z</time>
      </trkpt>
      <trkpt lat="46.99715" lon="-1.00354">
        <ele>87</ele>
        <time>2012-05-03T13:16:06Z</time>
      </trkpt>
      <trkpt lat="46.99713" lon="-1.00346">
        <ele>87</ele>
        <time>2012-05-03T13:16:07Z</time>
      </trkpt>
      <trkpt lat="46.99711" lon="-1.00338">
        <ele>87</ele>
        <time>2012-05-03T13:16:08Z</time>
      </trkpt>
      <trkpt lat="46.99709" lon="-1.00331">
        <ele>87</ele>
        <time>2012-05-03T13:16:09Z</time>
      </trkpt>
      <trkpt lat="46.99707" lon="-1.00323">
        <ele>87</ele>
        <time>2012-05-03T13:16:10Z</time>
      </trkpt>
      <trkpt lat="46.99705" lon="-1.00315">
        <ele>87</ele>
        <time>2012-05-03T13:16:11Z</time>
      </trkpt>
      <trkpt lat="46.99704" lon="-1.00307">
        <ele>87</ele>
        <time>2012-05-03T13:16:12Z</time>
      </trkpt>
      <trkpt lat="46.99702" lon="-1.00299">
        <ele>87</ele>
        <time>2012-05-03T13:16:13Z</time>
      </trkpt>
      <trkpt lat="46.997" lon="-1.0029">
        <ele>86</ele>
        <time>2012-05-03T13:16:14Z</time>
      </trkpt>
      <trkpt lat="46.99698" lon="-1.00281">
        <ele>86</ele>
        <time>2012-05-03T13:16:15Z</time>
      </trkpt>
      <trkpt lat="46.99696" lon="-1.00271">
        <ele>86</ele>
        <time>2012-05-03T13:16:16Z</time>
      </trkpt>
      <trkpt lat="46.99694" lon="-1.00262">
        <ele>86</ele>
        <time>2012-05-03T13:16:17Z</time>
      </trkpt>
      <trkpt lat="46.99692" lon="-1.00253">
        <ele>86</ele>
        <time>2012-05-03T13:16:18Z</time>
      </trkpt>
      <trkpt lat="46.99691" lon="-1.00244">
        <ele>86</ele>
        <time>2012-05-03T13:16:19Z</time>
      </trkpt>
      <trkpt lat="46.9969" lon="-1.00234">
        <ele>86</ele>
        <time>2012-05-03T13:16:20Z</time>
      </trkpt>
      <trkpt lat="46.99689" lon="-1.00225">
        <ele>86</ele>
        <time>2012-05-03T13:16:21Z</time>
      </trkpt>
      <trkpt lat="46.99688" lon="-1.00215">
        <ele>86</ele>
        <time>2012-05-03T13:16:22Z</time>
      </trkpt>
      <trkpt lat="46.99687" lon="-1.00206">
        <ele>86</ele>
        <time>2012-05-03T13:16:23Z</time>
      </trkpt>
      <trkpt lat="46.99686" lon="-1.00196">
        <ele>85</ele>
        <time>2012-05-03T13:16:24Z</time>
      </trkpt>
      <trkpt lat="46.99686" lon="-1.00187">
        <ele>85</ele>
        <time>2012-05-03T13:16:25Z</time>
      </trkpt>
      <trkpt lat="46.99685" lon="-1.00178">
        <ele>85</ele>
        <time>2012-05-03T13:16:26Z</time>
      </trkpt>
      <trkpt lat="46.99685" lon="-1.00169">
        <ele>85</ele>
        <time>2012-05-03T13:16:27Z</time>
      </trkpt>
      <trkpt lat="46.99684" lon="-1.0016">
        <ele>85</ele>
        <time>2012-05-03T13:16:28Z</time>
      </trkpt>
      <trkpt lat="46.99684" lon="-1.00151">
        <ele>85</ele>
        <time>2012-05-03T13:16:29Z</time>
      </trkpt>
      <trkpt lat="46.99683" lon="-1.00142">
        <ele>85</ele>
        <time>2012-05-03T13:16:30Z</time>
      </trkpt>
      <trkpt lat="46.99683" lon="-1.00134">
        <ele>85</ele>
        <time>2012-05-03T13:16:31Z</time>
      </trkpt>
      <trkpt lat="46.99683" lon="-1.00125">
        <ele>85</ele>
        <time>2012-05-03T13:16:32Z</time>
      </trkpt>
      <trkpt lat="46.99683" lon="-1.00116">
        <ele>85</ele>
        <time>2012-05-03T13:16:33Z</time>
      </trkpt>
      <trkpt lat="46.99683" lon="-1.00107">
        <ele>85</ele>
        <time>2012-05-03T13:16:34Z</time>
      </trkpt>
      <trkpt lat="46.99683" lon="-1.00099">
        <ele>85</ele>
        <time>2012-05-03T13:16:35Z</time>
      </trkpt>
      <trkpt lat="46.99683" lon="-1.0009">
        <ele>85</ele>
        <time>2012-05-03T13:16:36Z</time>
      </trkpt>
      <trkpt lat="46.99683" lon="-1.0008">
        <ele>85</ele>
        <time>2012-05-03T13:16:37Z</time>
      </trkpt>
      <trkpt lat="46.99683" lon="-1.00071">
        <ele>85</ele>
        <time>2012-05-03T13:16:38Z</time>
      </trkpt>
      <trkpt lat="46.99684" lon="-1.00062">
        <ele>84</ele>
        <time>2012-05-03T13:16:39Z</time>
      </trkpt>
      <trkpt lat="46.99684" lon="-1.00053">
        <ele>84</ele>
        <time>2012-05-03T13:16:40Z</time>
      </trkpt>
      <trkpt lat="46.99685" lon="-1.00044">
        <ele>84</ele>
        <time>2012-05-03T13:16:41Z</time>
      </trkpt>
      <trkpt lat="46.99684" lon="-1.00035">
        <ele>83</ele>
        <time>2012-05-03T13:16:42Z</time>
      </trkpt>
      <trkpt lat="46.99681" lon="-1.00026">
        <ele>83</ele>
        <time>2012-05-03T13:16:43Z</time>
      </trkpt>
      <trkpt lat="46.99679" lon="-1.00017">
        <ele>83</ele>
        <time>2012-05-03T13:16:44Z</time>
      </trkpt>
      <trkpt lat="46.99676" lon="-1.00008">
        <ele>82</ele>
        <time>2012-05-03T13:16:45Z</time>
      </trkpt>
      <trkpt lat="46.99673" lon="-0.99998">
        <ele>82</ele>
        <time>2012-05-03T13:16:45Z</time>
      </trkpt>
      <trkpt lat="46.99671" lon="-0.99989">
        <ele>81</ele>
        <time>2012-05-03T13:16:46Z</time>
      </trkpt>
      <trkpt lat="46.9967" lon="-0.99979">
        <ele>80</ele>
        <time>2012-05-03T13:16:48Z</time>
      </trkpt>
      <trkpt lat="46.9967" lon="-0.99968">
        <ele>80</ele>
        <time>2012-05-03T13:16:49Z</time>
      </trkpt>
      <trkpt lat="46.99671" lon="-0.99957">
        <ele>79</ele>
        <time>2012-05-03T13:16:50Z</time>
      </trkpt>
      <trkpt lat="46.99673" lon="-0.99946">
        <ele>78</ele>
        <time>2012-05-03T13:16:51Z</time>
      </trkpt>
      <trkpt lat="46.99674" lon="-0.99934">
        <ele>78</ele>
        <time>2012-05-03T13:16:52Z</time>
      </trkpt>
      <trkpt lat="46.99677" lon="-0.99923">
        <ele>77</ele>
        <time>2012-05-03T13:16:53Z</time>
      </trkpt>
      <trkpt lat="46.99679" lon="-0.9991">
        <ele>76</ele>
        <time>2012-05-03T13:16:54Z</time>
      </trkpt>
      <trkpt lat="46.9968" lon="-0.99897">
        <ele>75</ele>
        <time>2012-05-03T13:16:55Z</time>
      </trkpt>
      <trkpt lat="46.99681" lon="-0.99883">
        <ele>74</ele>
        <time>2012-05-03T13:16:56Z</time>
      </trkpt>
      <trkpt lat="46.99681" lon="-0.99869">
        <ele>73</ele>
        <time>2012-05-03T13:16:57Z</time>
      </trkpt>
      <trkpt lat="46.99679" lon="-0.99855">
        <ele>73</ele>
        <time>2012-05-03T13:16:58Z</time>
      </trkpt>
      <trkpt lat="46.99677" lon="-0.99841">
        <ele>72</ele>
        <time>2012-05-03T13:16:58Z</time>
      </trkpt>
      <trkpt lat="46.99675" lon="-0.99827">
        <ele>71</ele>
        <time>2012-05-03T13:16:59Z</time>
      </trkpt>
      <trkpt lat="46.99673" lon="-0.99813">
        <ele>70</ele>
        <time>2012-05-03T13:17:01Z</time>
      </trkpt>
      <trkpt lat="46.99671" lon="-0.998">
        <ele>70</ele>
        <time>2012-05-03T13:17:01Z</time>
      </trkpt>
      <trkpt lat="46.99669" lon="-0.99787">
        <ele>70</ele>
        <time>2012-05-03T13:17:02Z</time>
      </trkpt>
      <trkpt lat="46.99667" lon="-0.99775">
        <ele>69</ele>
        <time>2012-05-03T13:17:04Z</time>
      </trkpt>
      <trkpt lat="46.99667" lon="-0.99768">
        <ele>69</ele>
        <time>2012-05-03T13:17:05Z</time>
      </trkpt>
      <trkpt lat="46.99672" lon="-0.99764">
        <ele>69</ele>
        <time>2012-05-03T13:17:05Z</time>
      </trkpt>
      <trkpt lat="46.99675" lon="-0.9976">
        <ele>68</ele>
        <time>2012-05-03T13:17:06Z</time>
      </trkpt>
      <trkpt lat="46.99678" lon="-0.99757">
        <ele>68</ele>
        <time>2012-05-03T13:17:08Z</time>
      </trkpt>
      <trkpt lat="46.99679" lon="-0.99754">
        <ele>67</ele>
        <time>2012-05-03T13:17:09Z</time>
      </trkpt>
      <trkpt lat="46.9968" lon="-0.99751">
        <ele>67</ele>
        <time>2012-05-03T13:17:09Z</time>
      </trkpt>
      <trkpt lat="46.99682" lon="-0.99748">
        <ele>67</ele>
        <time>2012-05-03T13:17:11Z</time>
      </trkpt>
      <trkpt lat="46.99683" lon="-0.99747">
        <ele>67</ele>
        <time>2012-05-03T13:17:12Z</time>
      </trkpt>
      <trkpt lat="46.99683" lon="-0.99745">
        <ele>67</ele>
        <time>2012-05-03T13:17:13Z</time>
      </trkpt>
      <trkpt lat="46.99683" lon="-0.99743">
        <ele>67</ele>
        <time>2012-05-03T13:17:16Z</time>
      </trkpt>
      <trkpt lat="46.99682" lon="-0.99743">
        <ele>67</ele>
        <time>2012-05-03T13:17:18Z</time>
      </trkpt>
      <trkpt lat="46.99681" lon="-0.99746">
        <ele>67</ele>
        <time>2012-05-03T13:17:20Z</time>
      </trkpt>
      <trkpt lat="46.9968" lon="-0.99747">
        <ele>67</ele>
        <time>2012-05-03T13:17:21Z</time>
      </trkpt>
      <trkpt lat="46.9968" lon="-0.99749">
        <ele>67</ele>
        <time>2012-05-03T13:17:23Z</time>
      </trkpt>
      <trkpt lat="46.99679" lon="-0.99752">
        <ele>67</ele>
        <time>2012-05-03T13:17:25Z</time>
      </trkpt>
      <trkpt lat="46.9968" lon="-0.99749">
        <ele>67</ele>
        <time>2012-05-03T13:17:30Z</time>
      </trkpt>
      <trkpt lat="46.99681" lon="-0.99747">
        <ele>67</ele>
        <time>2012-05-03T13:17:32Z</time>
      </trkpt>
      <trkpt lat="46.99682" lon="-0.99745">
        <ele>67</ele>
        <time>2012-05-03T13:17:33Z</time>
      </trkpt>
      <trkpt lat="46.99683" lon="-0.99743">
        <ele>67</ele>
        <time>2012-05-03T13:17:34Z</time>
      </trkpt>
      <trkpt lat="46.99684" lon="-0.99741">
        <ele>67</ele>
        <time>2012-05-03T13:17:35Z</time>
      </trkpt>
      <trkpt lat="46.99685" lon="-0.99739">
        <ele>67</ele>
        <time>2012-05-03T13:17:35Z</time>
      </trkpt>
      <trkpt lat="46.99686" lon="-0.99737">
        <ele>67</ele>
        <time>2012-05-03T13:17:38Z</time>
      </trkpt>
      <trkpt lat="46.99688" lon="-0.99735">
        <ele>67</ele>
        <time>2012-05-03T13:17:40Z</time>
      </trkpt>
      <trkpt lat="46.99689" lon="-0.99734">
        <ele>67</ele>
        <time>2012-05-03T13:17:41Z</time>
      </trkpt>
      <trkpt lat="46.99691" lon="-0.99734">
        <ele>67</ele>
        <time>2012-05-03T13:17:42Z</time>
      </trkpt>
      <trkpt lat="46.99693" lon="-0.99731">
        <ele>67</ele>
        <time>2012-05-03T13:17:44Z</time>
      </trkpt>
      <trkpt lat="46.99694" lon="-0.9973">
        <ele>67</ele>
        <time>2012-05-03T13:17:45Z</time>
      </trkpt>
      <trkpt lat="46.99694" lon="-0.99728">
        <ele>66</ele>
        <time>2012-05-03T13:17:46Z</time>
      </trkpt>
      <trkpt lat="46.99695" lon="-0.99726">
        <ele>65</ele>
        <time>2012-05-03T13:17:47Z</time>
      </trkpt>
      <trkpt lat="46.99696" lon="-0.99725">
        <ele>65</ele>
        <time>2012-05-03T13:17:51Z</time>
      </trkpt>
      <trkpt lat="46.99697" lon="-0.99725">
        <ele>65</ele>
        <time>2012-05-03T13:17:54Z</time>
      </trkpt>
      <trkpt lat="46.99697" lon="-0.99723">
        <ele>65</ele>
        <time>2012-05-03T13:17:56Z</time>
      </trkpt>
      <trkpt lat="46.99697" lon="-0.99721">
        <ele>65</ele>
        <time>2012-05-03T13:17:58Z</time>
      </trkpt>
      <trkpt lat="46.99697" lon="-0.99719">
        <ele>65</ele>
        <time>2012-05-03T13:18:00Z</time>
      </trkpt>
      <trkpt lat="46.99698" lon="-0.99717">
        <ele>65</ele>
        <time>2012-05-03T13:18:02Z</time>
      </trkpt>
      <trkpt lat="46.99697" lon="-0.99716">
        <ele>65</ele>
        <time>2012-05-03T13:18:04Z</time>
      </trkpt>
      <trkpt lat="46.99697" lon="-0.99713">
        <ele>65</ele>
        <time>2012-05-03T13:18:06Z</time>
      </trkpt>
      <trkpt lat="46.99697" lon="-0.99711">
        <ele>65</ele>
        <time>2012-05-03T13:18:07Z</time>
      </trkpt>
      <trkpt lat="46.99697" lon="-0.9971">
        <ele>65</ele>
        <time>2012-05-03T13:18:08Z</time>
      </trkpt>
      <trkpt lat="46.99698" lon="-0.99707">
        <ele>65</ele>
        <time>2012-05-03T13:18:09Z</time>
      </trkpt>
      <trkpt lat="46.99697" lon="-0.99704">
        <ele>65</ele>
        <time>2012-05-03T13:18:10Z</time>
      </trkpt>
      <trkpt lat="46.99697" lon="-0.99702">
        <ele>65</ele>
        <time>2012-05-03T13:18:11Z</time>
      </trkpt>
      <trkpt lat="46.99697" lon="-0.997">
        <ele>65</ele>
        <time>2012-05-03T13:18:12Z</time>
      </trkpt>
      <trkpt lat="46.99697" lon="-0.99697">
        <ele>66</ele>
        <time>2012-05-03T13:18:13Z</time>
      </trkpt>
      <trkpt lat="46.99697" lon="-0.99694">
        <ele>66</ele>
        <time>2012-05-03T13:18:14Z</time>
      </trkpt>
      <trkpt lat="46.99697" lon="-0.99691">
        <ele>66</ele>
        <time>2012-05-03T13:18:15Z</time>
      </trkpt>
      <trkpt lat="46.99696" lon="-0.99688">
        <ele>66</ele>
        <time>2012-05-03T13:18:16Z</time>
      </trkpt>
      <trkpt lat="46.99695" lon="-0.99686">
        <ele>66</ele>
        <time>2012-05-03T13:18:17Z</time>
      </trkpt>
      <trkpt lat="46.99694" lon="-0.99683">
        <ele>66</ele>
        <time>2012-05-03T13:18:18Z</time>
      </trkpt>
      <trkpt lat="46.99694" lon="-0.99681">
        <ele>66</ele>
        <time>2012-05-03T13:18:19Z</time>
      </trkpt>
      <trkpt lat="46.99692" lon="-0.99678">
        <ele>66</ele>
        <time>2012-05-03T13:18:20Z</time>
      </trkpt>
      <trkpt lat="46.9969" lon="-0.99676">
        <ele>66</ele>
        <time>2012-05-03T13:18:21Z</time>
      </trkpt>
      <trkpt lat="46.99688" lon="-0.99673">
        <ele>66</ele>
        <time>2012-05-03T13:18:21Z</time>
      </trkpt>
      <trkpt lat="46.99686" lon="-0.9967">
        <ele>66</ele>
        <time>2012-05-03T13:18:23Z</time>
      </trkpt>
      <trkpt lat="46.99684" lon="-0.99667">
        <ele>66</ele>
        <time>2012-05-03T13:18:24Z</time>
      </trkpt>
      <trkpt lat="46.99682" lon="-0.99664">
        <ele>66</ele>
        <time>2012-05-03T13:18:25Z</time>
      </trkpt>
      <trkpt lat="46.9968" lon="-0.9966">
        <ele>66</ele>
        <time>2012-05-03T13:18:26Z</time>
      </trkpt>
      <trkpt lat="46.99678" lon="-0.99656">
        <ele>66</ele>
        <time>2012-05-03T13:18:27Z</time>
      </trkpt>
      <trkpt lat="46.99677" lon="-0.99651">
        <ele>66</ele>
        <time>2012-05-03T13:18:28Z</time>
      </trkpt>
      <trkpt lat="46.99675" lon="-0.99647">
        <ele>66</ele>
        <time>2012-05-03T13:18:29Z</time>
      </trkpt>
      <trkpt lat="46.99673" lon="-0.99643">
        <ele>66</ele>
        <time>2012-05-03T13:18:29Z</time>
      </trkpt>
      <trkpt lat="46.99672" lon="-0.99639">
        <ele>66</ele>
        <time>2012-05-03T13:18:30Z</time>
      </trkpt>
      <trkpt lat="46.9967" lon="-0.99635">
        <ele>67</ele>
        <time>2012-05-03T13:18:32Z</time>
      </trkpt>
      <trkpt lat="46.99669" lon="-0.9963">
        <ele>67</ele>
        <time>2012-05-03T13:18:33Z</time>
      </trkpt>
      <trkpt lat="46.99668" lon="-0.99626">
        <ele>67</ele>
        <time>2012-05-03T13:18:34Z</time>
      </trkpt>
      <trkpt lat="46.99667" lon="-0.99621">
        <ele>67</ele>
        <time>2012-05-03T13:18:35Z</time>
      </trkpt>
      <trkpt lat="46.99666" lon="-0.99617">
        <ele>68</ele>
        <time>2012-05-03T13:18:36Z</time>
      </trkpt>
      <trkpt lat="46.99665" lon="-0.99613">
        <ele>68</ele>
        <time>2012-05-03T13:18:37Z</time>
      </trkpt>
      <trkpt lat="46.99665" lon="-0.99608">
        <ele>68</ele>
        <time>2012-05-03T13:18:38Z</time>
      </trkpt>
      <trkpt lat="46.99664" lon="-0.99604">
        <ele>69</ele>
        <time>2012-05-03T13:18:39Z</time>
      </trkpt>
      <trkpt lat="46.99664" lon="-0.996">
        <ele>69</ele>
        <time>2012-05-03T13:18:40Z</time>
      </trkpt>
      <trkpt lat="46.99663" lon="-0.99595">
        <ele>70</ele>
        <time>2012-05-03T13:18:41Z</time>
      </trkpt>
      <trkpt lat="46.99663" lon="-0.99591">
        <ele>70</ele>
        <time>2012-05-03T13:18:42Z</time>
      </trkpt>
      <trkpt lat="46.99663" lon="-0.99587">
        <ele>70</ele>
        <time>2012-05-03T13:18:43Z</time>
      </trkpt>
      <trkpt lat="46.99663" lon="-0.99583">
        <ele>71</ele>
        <time>2012-05-03T13:18:44Z</time>
      </trkpt>
      <trkpt lat="46.99663" lon="-0.99579">
        <ele>71</ele>
        <time>2012-05-03T13:18:44Z</time>
      </trkpt>
      <trkpt lat="46.99664" lon="-0.99574">
        <ele>71</ele>
        <time>2012-05-03T13:18:45Z</time>
      </trkpt>
      <trkpt lat="46.99664" lon="-0.9957">
        <ele>71</ele>
        <time>2012-05-03T13:18:46Z</time>
      </trkpt>
      <trkpt lat="46.99663" lon="-0.99567">
        <ele>71</ele>
        <time>2012-05-03T13:18:47Z</time>
      </trkpt>
      <trkpt lat="46.99662" lon="-0.99563">
        <ele>71</ele>
        <time>2012-05-03T13:18:49Z</time>
      </trkpt>
      <trkpt lat="46.99662" lon="-0.99558">
        <ele>71</ele>
        <time>2012-05-03T13:18:49Z</time>
      </trkpt>
      <trkpt lat="46.99662" lon="-0.99554">
        <ele>71</ele>
        <time>2012-05-03T13:18:50Z</time>
      </trkpt>
      <trkpt lat="46.99662" lon="-0.9955">
        <ele>71</ele>
        <time>2012-05-03T13:18:51Z</time>
      </trkpt>
      <trkpt lat="46.99661" lon="-0.99546">
        <ele>71</ele>
        <time>2012-05-03T13:18:52Z</time>
      </trkpt>
      <trkpt lat="46.99661" lon="-0.99543">
        <ele>71</ele>
        <time>2012-05-03T13:18:54Z</time>
      </trkpt>
      <trkpt lat="46.99661" lon="-0.9954">
        <ele>71</ele>
        <time>2012-05-03T13:18:54Z</time>
      </trkpt>
      <trkpt lat="46.99661" lon="-0.99537">
        <ele>71</ele>
        <time>2012-05-03T13:18:55Z</time>
      </trkpt>
      <trkpt lat="46.99661" lon="-0.99533">
        <ele>71</ele>
        <time>2012-05-03T13:18:56Z</time>
      </trkpt>
      <trkpt lat="46.99661" lon="-0.99531">
        <ele>71</ele>
        <time>2012-05-03T13:18:57Z</time>
      </trkpt>
      <trkpt lat="46.9966" lon="-0.99528">
        <ele>71</ele>
        <time>2012-05-03T13:18:59Z</time>
      </trkpt>
      <trkpt lat="46.9966" lon="-0.99524">
        <ele>71</ele>
        <time>2012-05-03T13:18:59Z</time>
      </trkpt>
      <trkpt lat="46.9966" lon="-0.9952">
        <ele>71</ele>
        <time>2012-05-03T13:19:00Z</time>
      </trkpt>
      <trkpt lat="46.9966" lon="-0.99516">
        <ele>71</ele>
        <time>2012-05-03T13:19:01Z</time>
      </trkpt>
      <trkpt lat="46.9966" lon="-0.99513">
        <ele>71</ele>
        <time>2012-05-03T13:19:02Z</time>
      </trkpt>
      <trkpt lat="46.9966" lon="-0.9951">
        <ele>71</ele>
        <time>2012-05-03T13:19:04Z</time>
      </trkpt>
      <trkpt lat="46.9966" lon="-0.99507">
        <ele>71</ele>
        <time>2012-05-03T13:19:04Z</time>
      </trkpt>
      <trkpt lat="46.9966" lon="-0.99504">
        <ele>71</ele>
        <time>2012-05-03T13:19:05Z</time>
      </trkpt>
      <trkpt lat="46.99659" lon="-0.99501">
        <ele>71</ele>
        <time>2012-05-03T13:19:06Z</time>
      </trkpt>
      <trkpt lat="46.99659" lon="-0.99497">
        <ele>71</ele>
        <time>2012-05-03T13:19:07Z</time>
      </trkpt>
      <trkpt lat="46.99658" lon="-0.99494">
        <ele>71</ele>
        <time>2012-05-03T13:19:09Z</time>
      </trkpt>
      <trkpt lat="46.99657" lon="-0.99492">
        <ele>71</ele>
        <time>2012-05-03T13:19:09Z</time>
      </trkpt>
      <trkpt lat="46.99657" lon="-0.99489">
        <ele>71</ele>
        <time>2012-05-03T13:19:10Z</time>
      </trkpt>
      <trkpt lat="46.99656" lon="-0.99487">
        <ele>71</ele>
        <time>2012-05-03T13:19:11Z</time>
      </trkpt>
      <trkpt lat="46.99656" lon="-0.99484">
        <ele>71</ele>
        <time>2012-05-03T13:19:12Z</time>
      </trkpt>
      <trkpt lat="46.99656" lon="-0.99481">
        <ele>71</ele>
        <time>2012-05-03T13:19:14Z</time>
      </trkpt>
      <trkpt lat="46.99656" lon="-0.99478">
        <ele>71</ele>
        <time>2012-05-03T13:19:14Z</time>
      </trkpt>
      <trkpt lat="46.99655" lon="-0.99475">
        <ele>71</ele>
        <time>2012-05-03T13:19:15Z</time>
      </trkpt>
      <trkpt lat="46.99655" lon="-0.99472">
        <ele>71</ele>
        <time>2012-05-03T13:19:17Z</time>
      </trkpt>
      <trkpt lat="46.99654" lon="-0.99469">
        <ele>71</ele>
        <time>2012-05-03T13:19:17Z</time>
      </trkpt>
      <trkpt lat="46.99653" lon="-0.99466">
        <ele>72</ele>
        <time>2012-05-03T13:19:19Z</time>
      </trkpt>
      <trkpt lat="46.99653" lon="-0.99463">
        <ele>72</ele>
        <time>2012-05-03T13:19:19Z</time>
      </trkpt>
      <trkpt lat="46.99652" lon="-0.99459">
        <ele>72</ele>
        <time>2012-05-03T13:19:20Z</time>
      </trkpt>
      <trkpt lat="46.99652" lon="-0.99456">
        <ele>72</ele>
        <time>2012-05-03T13:19:21Z</time>
      </trkpt>
      <trkpt lat="46.99651" lon="-0.99452">
        <ele>72</ele>
        <time>2012-05-03T13:19:22Z</time>
      </trkpt>
      <trkpt lat="46.99651" lon="-0.99449">
        <ele>72</ele>
        <time>2012-05-03T13:19:24Z</time>
      </trkpt>
      <trkpt lat="46.99651" lon="-0.99446">
        <ele>73</ele>
        <time>2012-05-03T13:19:24Z</time>
      </trkpt>
      <trkpt lat="46.9965" lon="-0.99442">
        <ele>73</ele>
        <time>2012-05-03T13:19:25Z</time>
      </trkpt>
      <trkpt lat="46.9965" lon="-0.99439">
        <ele>73</ele>
        <time>2012-05-03T13:19:26Z</time>
      </trkpt>
      <trkpt lat="46.99649" lon="-0.99436">
        <ele>73</ele>
        <time>2012-05-03T13:19:27Z</time>
      </trkpt>
      <trkpt lat="46.99649" lon="-0.99433">
        <ele>73</ele>
        <time>2012-05-03T13:19:29Z</time>
      </trkpt>
      <trkpt lat="46.99648" lon="-0.9943">
        <ele>74</ele>
        <time>2012-05-03T13:19:29Z</time>
      </trkpt>
      <trkpt lat="46.99648" lon="-0.99426">
        <ele>74</ele>
        <time>2012-05-03T13:19:30Z</time>
      </trkpt>
      <trkpt lat="46.99647" lon="-0.99423">
        <ele>74</ele>
        <time>2012-05-03T13:19:31Z</time>
      </trkpt>
      <trkpt lat="46.99646" lon="-0.9942">
        <ele>74</ele>
        <time>2012-05-03T13:19:32Z</time>
      </trkpt>
      <trkpt lat="46.99646" lon="-0.99417">
        <ele>74</ele>
        <time>2012-05-03T13:19:34Z</time>
      </trkpt>
      <trkpt lat="46.99646" lon="-0.99413">
        <ele>74</ele>
        <time>2012-05-03T13:19:34Z</time>
      </trkpt>
      <trkpt lat="46.99645" lon="-0.9941">
        <ele>75</ele>
        <time>2012-05-03T13:19:35Z</time>
      </trkpt>
      <trkpt lat="46.99645" lon="-0.99407">
        <ele>75</ele>
        <time>2012-05-03T13:19:36Z</time>
      </trkpt>
      <trkpt lat="46.99645" lon="-0.99403">
        <ele>75</ele>
        <time>2012-05-03T13:19:37Z</time>
      </trkpt>
      <trkpt lat="46.99644" lon="-0.994">
        <ele>75</ele>
        <time>2012-05-03T13:19:39Z</time>
      </trkpt>
      <trkpt lat="46.99644" lon="-0.99397">
        <ele>75</ele>
        <time>2012-05-03T13:19:39Z</time>
      </trkpt>
      <trkpt lat="46.99644" lon="-0.99394">
        <ele>76</ele>
        <time>2012-05-03T13:19:40Z</time>
      </trkpt>
      <trkpt lat="46.99643" lon="-0.99391">
        <ele>76</ele>
        <time>2012-05-03T13:19:41Z</time>
      </trkpt>
      <trkpt lat="46.99643" lon="-0.99388">
        <ele>76</ele>
        <time>2012-05-03T13:19:42Z</time>
      </trkpt>
      <trkpt lat="46.99643" lon="-0.99385">
        <ele>76</ele>
        <time>2012-05-03T13:19:44Z</time>
      </trkpt>
      <trkpt lat="46.99642" lon="-0.99382">
        <ele>76</ele>
        <time>2012-05-03T13:19:44Z</time>
      </trkpt>
      <trkpt lat="46.99642" lon="-0.99379">
        <ele>77</ele>
        <time>2012-05-03T13:19:45Z</time>
      </trkpt>
      <trkpt lat="46.99642" lon="-0.99376">
        <ele>77</ele>
        <time>2012-05-03T13:19:47Z</time>
      </trkpt>
      <trkpt lat="46.99642" lon="-0.99373">
        <ele>77</ele>
        <time>2012-05-03T13:19:47Z</time>
      </trkpt>
      <trkpt lat="46.99643" lon="-0.9937">
        <ele>77</ele>
        <time>2012-05-03T13:19:49Z</time>
      </trkpt>
      <trkpt lat="46.99643" lon="-0.99367">
        <ele>77</ele>
        <time>2012-05-03T13:19:49Z</time>
      </trkpt>
      <trkpt lat="46.99644" lon="-0.99365">
        <ele>78</ele>
        <time>2012-05-03T13:19:50Z</time>
      </trkpt>
      <trkpt lat="46.99645" lon="-0.99362">
        <ele>78</ele>
        <time>2012-05-03T13:19:51Z</time>
      </trkpt>
      <trkpt lat="46.99645" lon="-0.99359">
        <ele>78</ele>
        <time>2012-05-03T13:19:52Z</time>
      </trkpt>
      <trkpt lat="46.99646" lon="-0.99356">
        <ele>78</ele>
        <time>2012-05-03T13:19:54Z</time>
      </trkpt>
      <trkpt lat="46.99647" lon="-0.99353">
        <ele>78</ele>
        <time>2012-05-03T13:19:54Z</time>
      </trkpt>
      <trkpt lat="46.99648" lon="-0.99351">
        <ele>79</ele>
        <time>2012-05-03T13:19:55Z</time>
      </trkpt>
      <trkpt lat="46.99648" lon="-0.99348">
        <ele>79</ele>
        <time>2012-05-03T13:19:56Z</time>
      </trkpt>
      <trkpt lat="46.99649" lon="-0.99346">
        <ele>79</ele>
        <time>2012-05-03T13:19:57Z</time>
      </trkpt>
      <trkpt lat="46.99649" lon="-0.99343">
        <ele>79</ele>
        <time>2012-05-03T13:19:59Z</time>
      </trkpt>
      <trkpt lat="46.9965" lon="-0.99341">
        <ele>79</ele>
        <time>2012-05-03T13:19:59Z</time>
      </trkpt>
      <trkpt lat="46.99651" lon="-0.99338">
        <ele>79</ele>
        <time>2012-05-03T13:20:00Z</time>
      </trkpt>
      <trkpt lat="46.99652" lon="-0.99335">
        <ele>79</ele>
        <time>2012-05-03T13:20:01Z</time>
      </trkpt>
      <trkpt lat="46.99653" lon="-0.99332">
        <ele>80</ele>
        <time>2012-05-03T13:20:02Z</time>
      </trkpt>
      <trkpt lat="46.99654" lon="-0.9933">
        <ele>80</ele>
        <time>2012-05-03T13:20:04Z</time>
      </trkpt>
      <trkpt lat="46.99654" lon="-0.99327">
        <ele>80</ele>
        <time>2012-05-03T13:20:04Z</time>
      </trkpt>
      <trkpt lat="46.99655" lon="-0.99325">
        <ele>80</ele>
        <time>2012-05-03T13:20:05Z</time>
      </trkpt>
      <trkpt lat="46.99657" lon="-0.99322">
        <ele>81</ele>
        <time>2012-05-03T13:20:06Z</time>
      </trkpt>
      <trkpt lat="46.99658" lon="-0.9932">
        <ele>81</ele>
        <time>2012-05-03T13:20:07Z</time>
      </trkpt>
      <trkpt lat="46.9966" lon="-0.99317">
        <ele>81</ele>
        <time>2012-05-03T13:20:09Z</time>
      </trkpt>
      <trkpt lat="46.99661" lon="-0.99315">
        <ele>82</ele>
        <time>2012-05-03T13:20:09Z</time>
      </trkpt>
      <trkpt lat="46.99663" lon="-0.99313">
        <ele>82</ele>
        <time>2012-05-03T13:20:10Z</time>
      </trkpt>
      <trkpt lat="46.99665" lon="-0.99312">
        <ele>82</ele>
        <time>2012-05-03T13:20:11Z</time>
      </trkpt>
      <trkpt lat="46.99666" lon="-0.9931">
        <ele>82</ele>
        <time>2012-05-03T13:20:12Z</time>
      </trkpt>
      <trkpt lat="46.99668" lon="-0.99308">
        <ele>83</ele>
        <time>2012-05-03T13:20:14Z</time>
      </trkpt>
      <trkpt lat="46.9967" lon="-0.99306">
        <ele>83</ele>
        <time>2012-05-03T13:20:14Z</time>
      </trkpt>
      <trkpt lat="46.99671" lon="-0.99304">
        <ele>83</ele>
        <time>2012-05-03T13:20:15Z</time>
      </trkpt>
      <trkpt lat="46.99673" lon="-0.99303">
        <ele>84</ele>
        <time>2012-05-03T13:20:17Z</time>
      </trkpt>
      <trkpt lat="46.99675" lon="-0.99301">
        <ele>84</ele>
        <time>2012-05-03T13:20:17Z</time>
      </trkpt>
      <trkpt lat="46.99676" lon="-0.993">
        <ele>84</ele>
        <time>2012-05-03T13:20:18Z</time>
      </trkpt>
      <trkpt lat="46.99678" lon="-0.99298">
        <ele>85</ele>
        <time>2012-05-03T13:20:20Z</time>
      </trkpt>
      <trkpt lat="46.9968" lon="-0.99297">
        <ele>85</ele>
        <time>2012-05-03T13:20:20Z</time>
      </trkpt>
      <trkpt lat="46.99682" lon="-0.99295">
        <ele>85</ele>
        <time>2012-05-03T13:20:21Z</time>
      </trkpt>
      <trkpt lat="46.99684" lon="-0.99293">
        <ele>86</ele>
        <time>2012-05-03T13:20:22Z</time>
      </trkpt>
      <trkpt lat="46.99685" lon="-0.99291">
        <ele>86</ele>
        <time>2012-05-03T13:20:23Z</time>
      </trkpt>
      <trkpt lat="46.99686" lon="-0.99289">
        <ele>86</ele>
        <time>2012-05-03T13:20:25Z</time>
      </trkpt>
      <trkpt lat="46.99687" lon="-0.99287">
        <ele>86</ele>
        <time>2012-05-03T13:20:25Z</time>
      </trkpt>
      <trkpt lat="46.99688" lon="-0.99284">
        <ele>87</ele>
        <time>2012-05-03T13:20:26Z</time>
      </trkpt>
      <trkpt lat="46.99688" lon="-0.99282">
        <ele>87</ele>
        <time>2012-05-03T13:20:27Z</time>
      </trkpt>
      <trkpt lat="46.99689" lon="-0.99279">
        <ele>87</ele>
        <time>2012-05-03T13:20:28Z</time>
      </trkpt>
      <trkpt lat="46.99689" lon="-0.99276">
        <ele>87</ele>
        <time>2012-05-03T13:20:30Z</time>
      </trkpt>
      <trkpt lat="46.9969" lon="-0.99273">
        <ele>88</ele>
        <time>2012-05-03T13:20:30Z</time>
      </trkpt>
      <trkpt lat="46.9969" lon="-0.9927">
        <ele>88</ele>
        <time>2012-05-03T13:20:31Z</time>
      </trkpt>
      <trkpt lat="46.9969" lon="-0.99266">
        <ele>88</ele>
        <time>2012-05-03T13:20:32Z</time>
      </trkpt>
      <trkpt lat="46.99689" lon="-0.99263">
        <ele>88</ele>
        <time>2012-05-03T13:20:33Z</time>
      </trkpt>
      <trkpt lat="46.99687" lon="-0.99261">
        <ele>88</ele>
        <time>2012-05-03T13:20:35Z</time>
      </trkpt>
      <trkpt lat="46.99685" lon="-0.99259">
        <ele>88</ele>
        <time>2012-05-03T13:20:35Z</time>
      </trkpt>
      <trkpt lat="46.99683" lon="-0.99257">
        <ele>88</ele>
        <time>2012-05-03T13:20:36Z</time>
      </trkpt>
      <trkpt lat="46.99681" lon="-0.99255">
        <ele>88</ele>
        <time>2012-05-03T13:20:37Z</time>
      </trkpt>
      <trkpt lat="46.99679" lon="-0.99252">
        <ele>88</ele>
        <time>2012-05-03T13:20:38Z</time>
      </trkpt>
      <trkpt lat="46.99677" lon="-0.99251">
        <ele>88</ele>
        <time>2012-05-03T13:20:40Z</time>
      </trkpt>
      <trkpt lat="46.99675" lon="-0.9925">
        <ele>88</ele>
        <time>2012-05-03T13:20:40Z</time>
      </trkpt>
      <trkpt lat="46.99673" lon="-0.99249">
        <ele>88</ele>
        <time>2012-05-03T13:20:41Z</time>
      </trkpt>
      <trkpt lat="46.99672" lon="-0.99248">
        <ele>88</ele>
        <time>2012-05-03T13:20:42Z</time>
      </trkpt>
      <trkpt lat="46.99669" lon="-0.99247">
        <ele>88</ele>
        <time>2012-05-03T13:20:44Z</time>
      </trkpt>
      <trkpt lat="46.99667" lon="-0.99246">
        <ele>88</ele>
        <time>2012-05-03T13:20:45Z</time>
      </trkpt>
      <trkpt lat="46.99665" lon="-0.99245">
        <ele>88</ele>
        <time>2012-05-03T13:20:45Z</time>
      </trkpt>
      <trkpt lat="46.99663" lon="-0.99244">
        <ele>88</ele>
        <time>2012-05-03T13:20:46Z</time>
      </trkpt>
      <trkpt lat="46.9966" lon="-0.99243">
        <ele>88</ele>
        <time>2012-05-03T13:20:47Z</time>
      </trkpt>
      <trkpt lat="46.99658" lon="-0.99242">
        <ele>88</ele>
        <time>2012-05-03T13:20:48Z</time>
      </trkpt>
      <trkpt lat="46.99656" lon="-0.99241">
        <ele>88</ele>
        <time>2012-05-03T13:20:50Z</time>
      </trkpt>
      <trkpt lat="46.99653" lon="-0.99241">
        <ele>88</ele>
        <time>2012-05-03T13:20:50Z</time>
      </trkpt>
      <trkpt lat="46.9965" lon="-0.9924">
        <ele>88</ele>
        <time>2012-05-03T13:20:51Z</time>
      </trkpt>
      <trkpt lat="46.99648" lon="-0.99239">
        <ele>88</ele>
        <time>2012-05-03T13:20:52Z</time>
      </trkpt>
      <trkpt lat="46.99645" lon="-0.99239">
        <ele>88</ele>
        <time>2012-05-03T13:20:53Z</time>
      </trkpt>
      <trkpt lat="46.99642" lon="-0.99238">
        <ele>88</ele>
        <time>2012-05-03T13:20:55Z</time>
      </trkpt>
      <trkpt lat="46.99639" lon="-0.99237">
        <ele>88</ele>
        <time>2012-05-03T13:20:55Z</time>
      </trkpt>
      <trkpt lat="46.99636" lon="-0.99236">
        <ele>88</ele>
        <time>2012-05-03T13:20:56Z</time>
      </trkpt>
      <trkpt lat="46.99633" lon="-0.99235">
        <ele>88</ele>
        <time>2012-05-03T13:20:57Z</time>
      </trkpt>
      <trkpt lat="46.9963" lon="-0.99235">
        <ele>88</ele>
        <time>2012-05-03T13:20:58Z</time>
      </trkpt>
      <trkpt lat="46.99627" lon="-0.99234">
        <ele>88</ele>
        <time>2012-05-03T13:20:59Z</time>
      </trkpt>
      <trkpt lat="46.99624" lon="-0.99233">
        <ele>88</ele>
        <time>2012-05-03T13:21:00Z</time>
      </trkpt>
      <trkpt lat="46.99622" lon="-0.99232">
        <ele>88</ele>
        <time>2012-05-03T13:21:01Z</time>
      </trkpt>
      <trkpt lat="46.99618" lon="-0.99232">
        <ele>88</ele>
        <time>2012-05-03T13:21:02Z</time>
      </trkpt>
      <trkpt lat="46.99615" lon="-0.99231">
        <ele>88</ele>
        <time>2012-05-03T13:21:03Z</time>
      </trkpt>
      <trkpt lat="46.99612" lon="-0.9923">
        <ele>88</ele>
        <time>2012-05-03T13:21:05Z</time>
      </trkpt>
      <trkpt lat="46.99609" lon="-0.99229">
        <ele>88</ele>
        <time>2012-05-03T13:21:05Z</time>
      </trkpt>
      <trkpt lat="46.99606" lon="-0.99228">
        <ele>88</ele>
        <time>2012-05-03T13:21:06Z</time>
      </trkpt>
      <trkpt lat="46.99602" lon="-0.99228">
        <ele>88</ele>
        <time>2012-05-03T13:21:07Z</time>
      </trkpt>
      <trkpt lat="46.99599" lon="-0.99227">
        <ele>88</ele>
        <time>2012-05-03T13:21:08Z</time>
      </trkpt>
      <trkpt lat="46.99596" lon="-0.99226">
        <ele>88</ele>
        <time>2012-05-03T13:21:10Z</time>
      </trkpt>
      <trkpt lat="46.99592" lon="-0.99226">
        <ele>88</ele>
        <time>2012-05-03T13:21:10Z</time>
      </trkpt>
      <trkpt lat="46.99589" lon="-0.99226">
        <ele>88</ele>
        <time>2012-05-03T13:21:11Z</time>
      </trkpt>
      <trkpt lat="46.99585" lon="-0.99227">
        <ele>88</ele>
        <time>2012-05-03T13:21:12Z</time>
      </trkpt>
      <trkpt lat="46.99582" lon="-0.99227">
        <ele>88</ele>
        <time>2012-05-03T13:21:13Z</time>
      </trkpt>
      <trkpt lat="46.99578" lon="-0.99228">
        <ele>88</ele>
        <time>2012-05-03T13:21:15Z</time>
      </trkpt>
      <trkpt lat="46.99575" lon="-0.99229">
        <ele>88</ele>
        <time>2012-05-03T13:21:15Z</time>
      </trkpt>
      <trkpt lat="46.99572" lon="-0.9923">
        <ele>88</ele>
        <time>2012-05-03T13:21:17Z</time>
      </trkpt>
      <trkpt lat="46.99569" lon="-0.99232">
        <ele>88</ele>
        <time>2012-05-03T13:21:17Z</time>
      </trkpt>
      <trkpt lat="46.99565" lon="-0.99233">
        <ele>88</ele>
        <time>2012-05-03T13:21:18Z</time>
      </trkpt>
      <trkpt lat="46.99561" lon="-0.99235">
        <ele>88</ele>
        <time>2012-05-03T13:21:19Z</time>
      </trkpt>
      <trkpt lat="46.99558" lon="-0.99237">
        <ele>88</ele>
        <time>2012-05-03T13:21:20Z</time>
      </trkpt>
      <trkpt lat="46.99554" lon="-0.99238">
        <ele>88</ele>
        <time>2012-05-03T13:21:21Z</time>
      </trkpt>
      <trkpt lat="46.99551" lon="-0.99239">
        <ele>88</ele>
        <time>2012-05-03T13:21:22Z</time>
      </trkpt>
      <trkpt lat="46.99548" lon="-0.9924">
        <ele>88</ele>
        <time>2012-05-03T13:21:23Z</time>
      </trkpt>
      <trkpt lat="46.99544" lon="-0.99241">
        <ele>88</ele>
        <time>2012-05-03T13:21:24Z</time>
      </trkpt>
      <trkpt lat="46.9954" lon="-0.99242">
        <ele>88</ele>
        <time>2012-05-03T13:21:25Z</time>
      </trkpt>
      <trkpt lat="46.99537" lon="-0.99243">
        <ele>88</ele>
        <time>2012-05-03T13:21:26Z</time>
      </trkpt>
      <trkpt lat="46.99533" lon="-0.99243">
        <ele>88</ele>
        <time>2012-05-03T13:21:27Z</time>
      </trkpt>
      <trkpt lat="46.9953" lon="-0.99243">
        <ele>88</ele>
        <time>2012-05-03T13:21:28Z</time>
      </trkpt>
      <trkpt lat="46.99527" lon="-0.99242">
        <ele>88</ele>
        <time>2012-05-03T13:21:30Z</time>
      </trkpt>
      <trkpt lat="46.99524" lon="-0.99241">
        <ele>88</ele>
        <time>2012-05-03T13:21:30Z</time>
      </trkpt>
      <trkpt lat="46.9952" lon="-0.99239">
        <ele>89</ele>
        <time>2012-05-03T13:21:31Z</time>
      </trkpt>
      <trkpt lat="46.99517" lon="-0.99237">
        <ele>89</ele>
        <time>2012-05-03T13:21:32Z</time>
      </trkpt>
      <trkpt lat="46.99514" lon="-0.99235">
        <ele>89</ele>
        <time>2012-05-03T13:21:33Z</time>
      </trkpt>
      <trkpt lat="46.99511" lon="-0.99232">
        <ele>89</ele>
        <time>2012-05-03T13:21:35Z</time>
      </trkpt>
      <trkpt lat="46.99508" lon="-0.99229">
        <ele>90</ele>
        <time>2012-05-03T13:21:35Z</time>
      </trkpt>
      <trkpt lat="46.99506" lon="-0.99225">
        <ele>90</ele>
        <time>2012-05-03T13:21:36Z</time>
      </trkpt>
      <trkpt lat="46.99503" lon="-0.99222">
        <ele>90</ele>
        <time>2012-05-03T13:21:37Z</time>
      </trkpt>
      <trkpt lat="46.995" lon="-0.99219">
        <ele>90</ele>
        <time>2012-05-03T13:21:38Z</time>
      </trkpt>
      <trkpt lat="46.99498" lon="-0.99215">
        <ele>91</ele>
        <time>2012-05-03T13:21:39Z</time>
      </trkpt>
      <trkpt lat="46.99495" lon="-0.99212">
        <ele>91</ele>
        <time>2012-05-03T13:21:40Z</time>
      </trkpt>
      <trkpt lat="46.99493" lon="-0.99208">
        <ele>91</ele>
        <time>2012-05-03T13:21:41Z</time>
      </trkpt>
      <trkpt lat="46.99491" lon="-0.99203">
        <ele>91</ele>
        <time>2012-05-03T13:21:42Z</time>
      </trkpt>
      <trkpt lat="46.99488" lon="-0.99199">
        <ele>91</ele>
        <time>2012-05-03T13:21:43Z</time>
      </trkpt>
      <trkpt lat="46.99486" lon="-0.99195">
        <ele>92</ele>
        <time>2012-05-03T13:21:45Z</time>
      </trkpt>
      <trkpt lat="46.99483" lon="-0.99191">
        <ele>92</ele>
        <time>2012-05-03T13:21:45Z</time>
      </trkpt>
      <trkpt lat="46.99481" lon="-0.99187">
        <ele>92</ele>
        <time>2012-05-03T13:21:46Z</time>
      </trkpt>
      <trkpt lat="46.99479" lon="-0.99183">
        <ele>92</ele>
        <time>2012-05-03T13:21:47Z</time>
      </trkpt>
      <trkpt lat="46.99476" lon="-0.99178">
        <ele>92</ele>
        <time>2012-05-03T13:21:48Z</time>
      </trkpt>
      <trkpt lat="46.99474" lon="-0.99174">
        <ele>92</ele>
        <time>2012-05-03T13:21:50Z</time>
      </trkpt>
      <trkpt lat="46.99472" lon="-0.9917">
        <ele>92</ele>
        <time>2012-05-03T13:21:50Z</time>
      </trkpt>
      <trkpt lat="46.99469" lon="-0.99165">
        <ele>93</ele>
        <time>2012-05-03T13:21:51Z</time>
      </trkpt>
      <trkpt lat="46.99467" lon="-0.99161">
        <ele>93</ele>
        <time>2012-05-03T13:21:52Z</time>
      </trkpt>
      <trkpt lat="46.99465" lon="-0.99157">
        <ele>93</ele>
        <time>2012-05-03T13:21:53Z</time>
      </trkpt>
      <trkpt lat="46.99463" lon="-0.99152">
        <ele>93</ele>
        <time>2012-05-03T13:21:55Z</time>
      </trkpt>
      <trkpt lat="46.9946" lon="-0.99148">
        <ele>93</ele>
        <time>2012-05-03T13:21:55Z</time>
      </trkpt>
      <trkpt lat="46.99458" lon="-0.99144">
        <ele>94</ele>
        <time>2012-05-03T13:21:56Z</time>
      </trkpt>
      <trkpt lat="46.99456" lon="-0.99139">
        <ele>94</ele>
        <time>2012-05-03T13:21:57Z</time>
      </trkpt>
      <trkpt lat="46.99453" lon="-0.99135">
        <ele>94</ele>
        <time>2012-05-03T13:21:58Z</time>
      </trkpt>
      <trkpt lat="46.99451" lon="-0.99131">
        <ele>94</ele>
        <time>2012-05-03T13:22:00Z</time>
      </trkpt>
      <trkpt lat="46.99448" lon="-0.99127">
        <ele>95</ele>
        <time>2012-05-03T13:22:00Z</time>
      </trkpt>
      <trkpt lat="46.99446" lon="-0.99123">
        <ele>95</ele>
        <time>2012-05-03T13:22:01Z</time>
      </trkpt>
      <trkpt lat="46.99443" lon="-0.99119">
        <ele>95</ele>
        <time>2012-05-03T13:22:02Z</time>
      </trkpt>
      <trkpt lat="46.99441" lon="-0.99114">
        <ele>95</ele>
        <time>2012-05-03T13:22:03Z</time>
      </trkpt>
      <trkpt lat="46.99438" lon="-0.9911">
        <ele>95</ele>
        <time>2012-05-03T13:22:04Z</time>
      </trkpt>
      <trkpt lat="46.99436" lon="-0.99106">
        <ele>95</ele>
        <time>2012-05-03T13:22:05Z</time>
      </trkpt>
      <trkpt lat="46.99433" lon="-0.99101">
        <ele>95</ele>
        <time>2012-05-03T13:22:06Z</time>
      </trkpt>
      <trkpt lat="46.99431" lon="-0.99097">
        <ele>95</ele>
        <time>2012-05-03T13:22:07Z</time>
      </trkpt>
      <trkpt lat="46.99429" lon="-0.99092">
        <ele>96</ele>
        <time>2012-05-03T13:22:08Z</time>
      </trkpt>
      <trkpt lat="46.99426" lon="-0.99088">
        <ele>96</ele>
        <time>2012-05-03T13:22:10Z</time>
      </trkpt>
      <trkpt lat="46.99424" lon="-0.99084">
        <ele>96</ele>
        <time>2012-05-03T13:22:10Z</time>
      </trkpt>
      <trkpt lat="46.99421" lon="-0.99079">
        <ele>96</ele>
        <time>2012-05-03T13:22:11Z</time>
      </trkpt>
      <trkpt lat="46.99419" lon="-0.99075">
        <ele>96</ele>
        <time>2012-05-03T13:22:12Z</time>
      </trkpt>
      <trkpt lat="46.99416" lon="-0.9907">
        <ele>96</ele>
        <time>2012-05-03T13:22:13Z</time>
      </trkpt>
      <trkpt lat="46.99414" lon="-0.99066">
        <ele>96</ele>
        <time>2012-05-03T13:22:15Z</time>
      </trkpt>
      <trkpt lat="46.99411" lon="-0.99062">
        <ele>96</ele>
        <time>2012-05-03T13:22:15Z</time>
      </trkpt>
      <trkpt lat="46.99409" lon="-0.99057">
        <ele>96</ele>
        <time>2012-05-03T13:22:17Z</time>
      </trkpt>
      <trkpt lat="46.99406" lon="-0.99051">
        <ele>97</ele>
        <time>2012-05-03T13:22:17Z</time>
      </trkpt>
      <trkpt lat="46.99404" lon="-0.99047">
        <ele>97</ele>
        <time>2012-05-03T13:22:18Z</time>
      </trkpt>
      <trkpt lat="46.99401" lon="-0.99042">
        <ele>97</ele>
        <time>2012-05-03T13:22:19Z</time>
      </trkpt>
      <trkpt lat="46.99398" lon="-0.99037">
        <ele>97</ele>
        <time>2012-05-03T13:22:20Z</time>
      </trkpt>
      <trkpt lat="46.99396" lon="-0.99033">
        <ele>97</ele>
        <time>2012-05-03T13:22:21Z</time>
      </trkpt>
      <trkpt lat="46.99393" lon="-0.99029">
        <ele>97</ele>
        <time>2012-05-03T13:22:22Z</time>
      </trkpt>
      <trkpt lat="46.99391" lon="-0.99024">
        <ele>97</ele>
        <time>2012-05-03T13:22:23Z</time>
      </trkpt>
      <trkpt lat="46.99388" lon="-0.9902">
        <ele>98</ele>
        <time>2012-05-03T13:22:25Z</time>
      </trkpt>
      <trkpt lat="46.99385" lon="-0.99015">
        <ele>98</ele>
        <time>2012-05-03T13:22:25Z</time>
      </trkpt>
      <trkpt lat="46.99383" lon="-0.99011">
        <ele>98</ele>
        <time>2012-05-03T13:22:26Z</time>
      </trkpt>
      <trkpt lat="46.9938" lon="-0.99006">
        <ele>98</ele>
        <time>2012-05-03T13:22:27Z</time>
      </trkpt>
      <trkpt lat="46.99378" lon="-0.99002">
        <ele>98</ele>
        <time>2012-05-03T13:22:28Z</time>
      </trkpt>
      <trkpt lat="46.99375" lon="-0.98997">
        <ele>98</ele>
        <time>2012-05-03T13:22:30Z</time>
      </trkpt>
      <trkpt lat="46.99372" lon="-0.98992">
        <ele>99</ele>
        <time>2012-05-03T13:22:30Z</time>
      </trkpt>
      <trkpt lat="46.9937" lon="-0.98988">
        <ele>99</ele>
        <time>2012-05-03T13:22:31Z</time>
      </trkpt>
      <trkpt lat="46.99367" lon="-0.98983">
        <ele>99</ele>
        <time>2012-05-03T13:22:32Z</time>
      </trkpt>
      <trkpt lat="46.99365" lon="-0.98978">
        <ele>99</ele>
        <time>2012-05-03T13:22:33Z</time>
      </trkpt>
      <trkpt lat="46.99362" lon="-0.98974">
        <ele>99</ele>
        <time>2012-05-03T13:22:35Z</time>
      </trkpt>
      <trkpt lat="46.9936" lon="-0.98969">
        <ele>99</ele>
        <time>2012-05-03T13:22:35Z</time>
      </trkpt>
      <trkpt lat="46.99357" lon="-0.98965">
        <ele>100</ele>
        <time>2012-05-03T13:22:36Z</time>
      </trkpt>
      <trkpt lat="46.99355" lon="-0.98961">
        <ele>100</ele>
        <time>2012-05-03T13:22:37Z</time>
      </trkpt>
      <trkpt lat="46.99352" lon="-0.98956">
        <ele>100</ele>
        <time>2012-05-03T13:22:38Z</time>
      </trkpt>
      <trkpt lat="46.99349" lon="-0.98951">
        <ele>100</ele>
        <time>2012-05-03T13:22:39Z</time>
      </trkpt>
      <trkpt lat="46.99347" lon="-0.98946">
        <ele>100</ele>
        <time>2012-05-03T13:22:40Z</time>
      </trkpt>
      <trkpt lat="46.99344" lon="-0.98942">
        <ele>100</ele>
        <time>2012-05-03T13:22:41Z</time>
      </trkpt>
      <trkpt lat="46.99341" lon="-0.98937">
        <ele>101</ele>
        <time>2012-05-03T13:22:42Z</time>
      </trkpt>
      <trkpt lat="46.99338" lon="-0.98932">
        <ele>101</ele>
        <time>2012-05-03T13:22:43Z</time>
      </trkpt>
      <trkpt lat="46.99335" lon="-0.98927">
        <ele>101</ele>
        <time>2012-05-03T13:22:44Z</time>
      </trkpt>
      <trkpt lat="46.99333" lon="-0.98923">
        <ele>101</ele>
        <time>2012-05-03T13:22:45Z</time>
      </trkpt>
      <trkpt lat="46.9933" lon="-0.98918">
        <ele>101</ele>
        <time>2012-05-03T13:22:46Z</time>
      </trkpt>
      <trkpt lat="46.99327" lon="-0.98913">
        <ele>101</ele>
        <time>2012-05-03T13:22:47Z</time>
      </trkpt>
      <trkpt lat="46.99324" lon="-0.98908">
        <ele>101</ele>
        <time>2012-05-03T13:22:48Z</time>
      </trkpt>
      <trkpt lat="46.99322" lon="-0.98903">
        <ele>101</ele>
        <time>2012-05-03T13:22:50Z</time>
      </trkpt>
      <trkpt lat="46.99319" lon="-0.98899">
        <ele>101</ele>
        <time>2012-05-03T13:22:50Z</time>
      </trkpt>
      <trkpt lat="46.99317" lon="-0.98894">
        <ele>102</ele>
        <time>2012-05-03T13:22:51Z</time>
      </trkpt>
      <trkpt lat="46.99314" lon="-0.9889">
        <ele>102</ele>
        <time>2012-05-03T13:22:52Z</time>
      </trkpt>
      <trkpt lat="46.99311" lon="-0.98886">
        <ele>102</ele>
        <time>2012-05-03T13:22:53Z</time>
      </trkpt>
      <trkpt lat="46.99309" lon="-0.98881">
        <ele>102</ele>
        <time>2012-05-03T13:22:55Z</time>
      </trkpt>
      <trkpt lat="46.99307" lon="-0.98877">
        <ele>103</ele>
        <time>2012-05-03T13:22:55Z</time>
      </trkpt>
      <trkpt lat="46.99305" lon="-0.98872">
        <ele>103</ele>
        <time>2012-05-03T13:22:56Z</time>
      </trkpt>
      <trkpt lat="46.99302" lon="-0.98868">
        <ele>103</ele>
        <time>2012-05-03T13:22:57Z</time>
      </trkpt>
      <trkpt lat="46.993" lon="-0.98864">
        <ele>103</ele>
        <time>2012-05-03T13:22:58Z</time>
      </trkpt>
      <trkpt lat="46.99297" lon="-0.9886">
        <ele>104</ele>
        <time>2012-05-03T13:22:59Z</time>
      </trkpt>
      <trkpt lat="46.99295" lon="-0.98855">
        <ele>104</ele>
        <time>2012-05-03T13:23:00Z</time>
      </trkpt>
      <trkpt lat="46.99292" lon="-0.98851">
        <ele>104</ele>
        <time>2012-05-03T13:23:01Z</time>
      </trkpt>
      <trkpt lat="46.9929" lon="-0.98846">
        <ele>104</ele>
        <time>2012-05-03T13:23:02Z</time>
      </trkpt>
      <trkpt lat="46.99288" lon="-0.98842">
        <ele>104</ele>
        <time>2012-05-03T13:23:03Z</time>
      </trkpt>
      <trkpt lat="46.99285" lon="-0.98838">
        <ele>105</ele>
        <time>2012-05-03T13:23:04Z</time>
      </trkpt>
      <trkpt lat="46.99283" lon="-0.98834">
        <ele>105</ele>
        <time>2012-05-03T13:23:05Z</time>
      </trkpt>
      <trkpt lat="46.99281" lon="-0.9883">
        <ele>105</ele>
        <time>2012-05-03T13:23:06Z</time>
      </trkpt>
      <trkpt lat="46.99279" lon="-0.98826">
        <ele>105</ele>
        <time>2012-05-03T13:23:07Z</time>
      </trkpt>
      <trkpt lat="46.99276" lon="-0.98822">
        <ele>105</ele>
        <time>2012-05-03T13:23:08Z</time>
      </trkpt>
      <trkpt lat="46.99274" lon="-0.98818">
        <ele>105</ele>
        <time>2012-05-03T13:23:09Z</time>
      </trkpt>
      <trkpt lat="46.99272" lon="-0.98813">
        <ele>106</ele>
        <time>2012-05-03T13:23:10Z</time>
      </trkpt>
      <trkpt lat="46.9927" lon="-0.98809">
        <ele>106</ele>
        <time>2012-05-03T13:23:11Z</time>
      </trkpt>
      <trkpt lat="46.99268" lon="-0.98805">
        <ele>106</ele>
        <time>2012-05-03T13:23:12Z</time>
      </trkpt>
      <trkpt lat="46.99265" lon="-0.98801">
        <ele>106</ele>
        <time>2012-05-03T13:23:13Z</time>
      </trkpt>
      <trkpt lat="46.99262" lon="-0.98796">
        <ele>106</ele>
        <time>2012-05-03T13:23:14Z</time>
      </trkpt>
      <trkpt lat="46.99259" lon="-0.98791">
        <ele>106</ele>
        <time>2012-05-03T13:23:15Z</time>
      </trkpt>
      <trkpt lat="46.99255" lon="-0.98786">
        <ele>106</ele>
        <time>2012-05-03T13:23:17Z</time>
      </trkpt>
      <trkpt lat="46.99252" lon="-0.9878">
        <ele>106</ele>
        <time>2012-05-03T13:23:17Z</time>
      </trkpt>
      <trkpt lat="46.99249" lon="-0.98774">
        <ele>106</ele>
        <time>2012-05-03T13:23:18Z</time>
      </trkpt>
      <trkpt lat="46.99245" lon="-0.98767">
        <ele>106</ele>
        <time>2012-05-03T13:23:20Z</time>
      </trkpt>
      <trkpt lat="46.99242" lon="-0.9876">
        <ele>106</ele>
        <time>2012-05-03T13:23:20Z</time>
      </trkpt>
      <trkpt lat="46.99238" lon="-0.98753">
        <ele>106</ele>
        <time>2012-05-03T13:23:21Z</time>
      </trkpt>
      <trkpt lat="46.99234" lon="-0.98746">
        <ele>106</ele>
        <time>2012-05-03T13:23:22Z</time>
      </trkpt>
      <trkpt lat="46.99229" lon="-0.98739">
        <ele>106</ele>
        <time>2012-05-03T13:23:23Z</time>
      </trkpt>
      <trkpt lat="46.99225" lon="-0.98731">
        <ele>106</ele>
        <time>2012-05-03T13:23:25Z</time>
      </trkpt>
      <trkpt lat="46.99221" lon="-0.98724">
        <ele>106</ele>
        <time>2012-05-03T13:23:25Z</time>
      </trkpt>
      <trkpt lat="46.99216" lon="-0.98716">
        <ele>106</ele>
        <time>2012-05-03T13:23:26Z</time>
      </trkpt>
      <trkpt lat="46.99211" lon="-0.98707">
        <ele>106</ele>
        <time>2012-05-03T13:23:27Z</time>
      </trkpt>
      <trkpt lat="46.99207" lon="-0.98698">
        <ele>106</ele>
        <time>2012-05-03T13:23:28Z</time>
      </trkpt>
      <trkpt lat="46.99202" lon="-0.98689">
        <ele>106</ele>
        <time>2012-05-03T13:23:30Z</time>
      </trkpt>
      <trkpt lat="46.99197" lon="-0.9868">
        <ele>106</ele>
        <time>2012-05-03T13:23:30Z</time>
      </trkpt>
      <trkpt lat="46.99193" lon="-0.98671">
        <ele>105</ele>
        <time>2012-05-03T13:23:31Z</time>
      </trkpt>
      <trkpt lat="46.99188" lon="-0.98662">
        <ele>104</ele>
        <time>2012-05-03T13:23:32Z</time>
      </trkpt>
      <trkpt lat="46.99183" lon="-0.98653">
        <ele>104</ele>
        <time>2012-05-03T13:23:33Z</time>
      </trkpt>
      <trkpt lat="46.99177" lon="-0.98644">
        <ele>104</ele>
        <time>2012-05-03T13:23:35Z</time>
      </trkpt>
      <trkpt lat="46.99172" lon="-0.98634">
        <ele>103</ele>
        <time>2012-05-03T13:23:35Z</time>
      </trkpt>
      <trkpt lat="46.99167" lon="-0.98625">
        <ele>103</ele>
        <time>2012-05-03T13:23:36Z</time>
      </trkpt>
      <trkpt lat="46.99161" lon="-0.98616">
        <ele>103</ele>
        <time>2012-05-03T13:23:37Z</time>
      </trkpt>
      <trkpt lat="46.99156" lon="-0.98607">
        <ele>102</ele>
        <time>2012-05-03T13:23:38Z</time>
      </trkpt>
      <trkpt lat="46.99151" lon="-0.98598">
        <ele>102</ele>
        <time>2012-05-03T13:23:40Z</time>
      </trkpt>
      <trkpt lat="46.99146" lon="-0.98589">
        <ele>102</ele>
        <time>2012-05-03T13:23:40Z</time>
      </trkpt>
      <trkpt lat="46.99141" lon="-0.98579">
        <ele>101</ele>
        <time>2012-05-03T13:23:41Z</time>
      </trkpt>
      <trkpt lat="46.99136" lon="-0.9857">
        <ele>101</ele>
        <time>2012-05-03T13:23:42Z</time>
      </trkpt>
      <trkpt lat="46.99131" lon="-0.9856">
        <ele>101</ele>
        <time>2012-05-03T13:23:43Z</time>
      </trkpt>
      <trkpt lat="46.99127" lon="-0.9855">
        <ele>101</ele>
        <time>2012-05-03T13:23:45Z</time>
      </trkpt>
      <trkpt lat="46.99123" lon="-0.98541">
        <ele>100</ele>
        <time>2012-05-03T13:23:45Z</time>
      </trkpt>
      <trkpt lat="46.9912" lon="-0.98531">
        <ele>100</ele>
        <time>2012-05-03T13:23:46Z</time>
      </trkpt>
      <trkpt lat="46.99117" lon="-0.9852">
        <ele>100</ele>
        <time>2012-05-03T13:23:47Z</time>
      </trkpt>
      <trkpt lat="46.99115" lon="-0.9851">
        <ele>100</ele>
        <time>2012-05-03T13:23:48Z</time>
      </trkpt>
      <trkpt lat="46.99113" lon="-0.985">
        <ele>100</ele>
        <time>2012-05-03T13:23:50Z</time>
      </trkpt>
      <trkpt lat="46.99111" lon="-0.9849">
        <ele>99</ele>
        <time>2012-05-03T13:23:50Z</time>
      </trkpt>
      <trkpt lat="46.99109" lon="-0.9848">
        <ele>99</ele>
        <time>2012-05-03T13:23:51Z</time>
      </trkpt>
      <trkpt lat="46.99108" lon="-0.9847">
        <ele>99</ele>
        <time>2012-05-03T13:23:52Z</time>
      </trkpt>
      <trkpt lat="46.99106" lon="-0.98461">
        <ele>99</ele>
        <time>2012-05-03T13:23:53Z</time>
      </trkpt>
      <trkpt lat="46.99104" lon="-0.98451">
        <ele>99</ele>
        <time>2012-05-03T13:23:55Z</time>
      </trkpt>
      <trkpt lat="46.99102" lon="-0.98442">
        <ele>99</ele>
        <time>2012-05-03T13:23:55Z</time>
      </trkpt>
      <trkpt lat="46.99099" lon="-0.98434">
        <ele>99</ele>
        <time>2012-05-03T13:23:56Z</time>
      </trkpt>
      <trkpt lat="46.99097" lon="-0.98426">
        <ele>98</ele>
        <time>2012-05-03T13:23:57Z</time>
      </trkpt>
      <trkpt lat="46.99096" lon="-0.98418">
        <ele>98</ele>
        <time>2012-05-03T13:23:58Z</time>
      </trkpt>
      <trkpt lat="46.99098" lon="-0.98411">
        <ele>98</ele>
        <time>2012-05-03T13:23:59Z</time>
      </trkpt>
      <trkpt lat="46.99101" lon="-0.98406">
        <ele>98</ele>
        <time>2012-05-03T13:24:00Z</time>
      </trkpt>
      <trkpt lat="46.99105" lon="-0.98403">
        <ele>98</ele>
        <time>2012-05-03T13:24:01Z</time>
      </trkpt>
      <trkpt lat="46.99109" lon="-0.984">
        <ele>98</ele>
        <time>2012-05-03T13:24:02Z</time>
      </trkpt>
      <trkpt lat="46.99113" lon="-0.98398">
        <ele>98</ele>
        <time>2012-05-03T13:24:03Z</time>
      </trkpt>
      <trkpt lat="46.99118" lon="-0.98396">
        <ele>98</ele>
        <time>2012-05-03T13:24:04Z</time>
      </trkpt>
      <trkpt lat="46.99122" lon="-0.98395">
        <ele>98</ele>
        <time>2012-05-03T13:24:05Z</time>
      </trkpt>
      <trkpt lat="46.99126" lon="-0.98393">
        <ele>98</ele>
        <time>2012-05-03T13:24:06Z</time>
      </trkpt>
      <trkpt lat="46.99129" lon="-0.98391">
        <ele>98</ele>
        <time>2012-05-03T13:24:07Z</time>
      </trkpt>
      <trkpt lat="46.99133" lon="-0.98388">
        <ele>98</ele>
        <time>2012-05-03T13:24:08Z</time>
      </trkpt>
      <trkpt lat="46.99135" lon="-0.98385">
        <ele>98</ele>
        <time>2012-05-03T13:24:09Z</time>
      </trkpt>
      <trkpt lat="46.99138" lon="-0.98382">
        <ele>98</ele>
        <time>2012-05-03T13:24:10Z</time>
      </trkpt>
      <trkpt lat="46.99141" lon="-0.98378">
        <ele>98</ele>
        <time>2012-05-03T13:24:11Z</time>
      </trkpt>
      <trkpt lat="46.99144" lon="-0.98374">
        <ele>98</ele>
        <time>2012-05-03T13:24:12Z</time>
      </trkpt>
      <trkpt lat="46.99147" lon="-0.9837">
        <ele>98</ele>
        <time>2012-05-03T13:24:13Z</time>
      </trkpt>
      <trkpt lat="46.99149" lon="-0.98366">
        <ele>98</ele>
        <time>2012-05-03T13:24:14Z</time>
      </trkpt>
      <trkpt lat="46.99152" lon="-0.98362">
        <ele>98</ele>
        <time>2012-05-03T13:24:15Z</time>
      </trkpt>
      <trkpt lat="46.99155" lon="-0.98358">
        <ele>98</ele>
        <time>2012-05-03T13:24:17Z</time>
      </trkpt>
      <trkpt lat="46.99157" lon="-0.98354">
        <ele>98</ele>
        <time>2012-05-03T13:24:17Z</time>
      </trkpt>
      <trkpt lat="46.9916" lon="-0.9835">
        <ele>98</ele>
        <time>2012-05-03T13:24:18Z</time>
      </trkpt>
      <trkpt lat="46.99163" lon="-0.98345">
        <ele>98</ele>
        <time>2012-05-03T13:24:19Z</time>
      </trkpt>
      <trkpt lat="46.99165" lon="-0.98341">
        <ele>98</ele>
        <time>2012-05-03T13:24:20Z</time>
      </trkpt>
      <trkpt lat="46.99168" lon="-0.98337">
        <ele>98</ele>
        <time>2012-05-03T13:24:21Z</time>
      </trkpt>
      <trkpt lat="46.99171" lon="-0.98333">
        <ele>98</ele>
        <time>2012-05-03T13:24:22Z</time>
      </trkpt>
      <trkpt lat="46.99174" lon="-0.98329">
        <ele>98</ele>
        <time>2012-05-03T13:24:23Z</time>
      </trkpt>
      <trkpt lat="46.99177" lon="-0.98325">
        <ele>98</ele>
        <time>2012-05-03T13:24:24Z</time>
      </trkpt>
      <trkpt lat="46.9918" lon="-0.98321">
        <ele>98</ele>
        <time>2012-05-03T13:24:25Z</time>
      </trkpt>
      <trkpt lat="46.99183" lon="-0.98318">
        <ele>98</ele>
        <time>2012-05-03T13:24:26Z</time>
      </trkpt>
      <trkpt lat="46.99184" lon="-0.98316">
        <ele>98</ele>
        <time>2012-05-03T13:24:27Z</time>
      </trkpt>
      <trkpt lat="46.99186" lon="-0.98313">
        <ele>98</ele>
        <time>2012-05-03T13:24:28Z</time>
      </trkpt>
      <trkpt lat="46.99187" lon="-0.98313">
        <ele>98</ele>
        <time>2012-05-03T13:24:32Z</time>
      </trkpt>
      <trkpt lat="46.99187" lon="-0.98312">
        <ele>98</ele>
        <time>2012-05-03T13:25:02Z</time>
      </trkpt>
      <trkpt lat="46.99188" lon="-0.98309">
        <ele>98</ele>
        <time>2012-05-03T13:25:04Z</time>
      </trkpt>
      <trkpt lat="46.9919" lon="-0.98307">
        <ele>99</ele>
        <time>2012-05-03T13:25:06Z</time>
      </trkpt>
      <trkpt lat="46.99191" lon="-0.98305">
        <ele>99</ele>
        <time>2012-05-03T13:25:07Z</time>
      </trkpt>
      <trkpt lat="46.99192" lon="-0.98303">
        <ele>99</ele>
        <time>2012-05-03T13:25:08Z</time>
      </trkpt>
      <trkpt lat="46.99194" lon="-0.98301">
        <ele>99</ele>
        <time>2012-05-03T13:25:09Z</time>
      </trkpt>
      <trkpt lat="46.99196" lon="-0.98298">
        <ele>99</ele>
        <time>2012-05-03T13:25:10Z</time>
      </trkpt>
      <trkpt lat="46.99197" lon="-0.98295">
        <ele>99</ele>
        <time>2012-05-03T13:25:11Z</time>
      </trkpt>
      <trkpt lat="46.99199" lon="-0.98292">
        <ele>99</ele>
        <time>2012-05-03T13:25:12Z</time>
      </trkpt>
      <trkpt lat="46.992" lon="-0.9829">
        <ele>99</ele>
        <time>2012-05-03T13:25:13Z</time>
      </trkpt>
      <trkpt lat="46.99202" lon="-0.98287">
        <ele>99</ele>
        <time>2012-05-03T13:25:14Z</time>
      </trkpt>
      <trkpt lat="46.99204" lon="-0.98284">
        <ele>99</ele>
        <time>2012-05-03T13:25:15Z</time>
      </trkpt>
      <trkpt lat="46.99206" lon="-0.98281">
        <ele>99</ele>
        <time>2012-05-03T13:25:17Z</time>
      </trkpt>
      <trkpt lat="46.99208" lon="-0.98279">
        <ele>99</ele>
        <time>2012-05-03T13:25:17Z</time>
      </trkpt>
      <trkpt lat="46.9921" lon="-0.98276">
        <ele>99</ele>
        <time>2012-05-03T13:25:18Z</time>
      </trkpt>
      <trkpt lat="46.99211" lon="-0.98274">
        <ele>99</ele>
        <time>2012-05-03T13:25:19Z</time>
      </trkpt>
      <trkpt lat="46.99213" lon="-0.98272">
        <ele>99</ele>
        <time>2012-05-03T13:25:20Z</time>
      </trkpt>
      <trkpt lat="46.99215" lon="-0.98269">
        <ele>99</ele>
        <time>2012-05-03T13:25:21Z</time>
      </trkpt>
      <trkpt lat="46.99217" lon="-0.98268">
        <ele>99</ele>
        <time>2012-05-03T13:25:22Z</time>
      </trkpt>
      <trkpt lat="46.99219" lon="-0.98265">
        <ele>99</ele>
        <time>2012-05-03T13:25:23Z</time>
      </trkpt>
      <trkpt lat="46.99221" lon="-0.98263">
        <ele>99</ele>
        <time>2012-05-03T13:25:24Z</time>
      </trkpt>
      <trkpt lat="46.99224" lon="-0.9826">
        <ele>99</ele>
        <time>2012-05-03T13:25:25Z</time>
      </trkpt>
      <trkpt lat="46.99226" lon="-0.98257">
        <ele>99</ele>
        <time>2012-05-03T13:25:26Z</time>
      </trkpt>
      <trkpt lat="46.99229" lon="-0.98254">
        <ele>99</ele>
        <time>2012-05-03T13:25:27Z</time>
      </trkpt>
      <trkpt lat="46.99232" lon="-0.98251">
        <ele>99</ele>
        <time>2012-05-03T13:25:28Z</time>
      </trkpt>
      <trkpt lat="46.99235" lon="-0.98248">
        <ele>99</ele>
        <time>2012-05-03T13:25:29Z</time>
      </trkpt>
      <trkpt lat="46.99238" lon="-0.98245">
        <ele>99</ele>
        <time>2012-05-03T13:25:30Z</time>
      </trkpt>
      <trkpt lat="46.9924" lon="-0.98242">
        <ele>99</ele>
        <time>2012-05-03T13:25:31Z</time>
      </trkpt>
      <trkpt lat="46.99244" lon="-0.98239">
        <ele>99</ele>
        <time>2012-05-03T13:25:32Z</time>
      </trkpt>
      <trkpt lat="46.99247" lon="-0.98236">
        <ele>98</ele>
        <time>2012-05-03T13:25:33Z</time>
      </trkpt>
      <trkpt lat="46.9925" lon="-0.98234">
        <ele>98</ele>
        <time>2012-05-03T13:25:34Z</time>
      </trkpt>
      <trkpt lat="46.99253" lon="-0.98232">
        <ele>98</ele>
        <time>2012-05-03T13:25:35Z</time>
      </trkpt>
      <trkpt lat="46.99257" lon="-0.98229">
        <ele>97</ele>
        <time>2012-05-03T13:25:36Z</time>
      </trkpt>
      <trkpt lat="46.99259" lon="-0.98227">
        <ele>97</ele>
        <time>2012-05-03T13:25:38Z</time>
      </trkpt>
      <trkpt lat="46.99263" lon="-0.98225">
        <ele>97</ele>
        <time>2012-05-03T13:25:38Z</time>
      </trkpt>
      <trkpt lat="46.99266" lon="-0.98223">
        <ele>96</ele>
        <time>2012-05-03T13:25:39Z</time>
      </trkpt>
      <trkpt lat="46.9927" lon="-0.98221">
        <ele>96</ele>
        <time>2012-05-03T13:25:40Z</time>
      </trkpt>
      <trkpt lat="46.99273" lon="-0.98219">
        <ele>96</ele>
        <time>2012-05-03T13:25:41Z</time>
      </trkpt>
      <trkpt lat="46.99277" lon="-0.98217">
        <ele>96</ele>
        <time>2012-05-03T13:25:42Z</time>
      </trkpt>
      <trkpt lat="46.99281" lon="-0.98216">
        <ele>96</ele>
        <time>2012-05-03T13:25:43Z</time>
      </trkpt>
      <trkpt lat="46.99286" lon="-0.98215">
        <ele>96</ele>
        <time>2012-05-03T13:25:44Z</time>
      </trkpt>
      <trkpt lat="46.99289" lon="-0.98214">
        <ele>96</ele>
        <time>2012-05-03T13:25:45Z</time>
      </trkpt>
      <trkpt lat="46.99294" lon="-0.98213">
        <ele>96</ele>
        <time>2012-05-03T13:25:46Z</time>
      </trkpt>
      <trkpt lat="46.99298" lon="-0.98212">
        <ele>96</ele>
        <time>2012-05-03T13:25:47Z</time>
      </trkpt>
      <trkpt lat="46.99303" lon="-0.98211">
        <ele>96</ele>
        <time>2012-05-03T13:25:48Z</time>
      </trkpt>
      <trkpt lat="46.99308" lon="-0.98207">
        <ele>96</ele>
        <time>2012-05-03T13:25:49Z</time>
      </trkpt>
      <trkpt lat="46.99312" lon="-0.98203">
        <ele>96</ele>
        <time>2012-05-03T13:25:50Z</time>
      </trkpt>
      <trkpt lat="46.99316" lon="-0.98198">
        <ele>96</ele>
        <time>2012-05-03T13:25:51Z</time>
      </trkpt>
      <trkpt lat="46.9932" lon="-0.98194">
        <ele>96</ele>
        <time>2012-05-03T13:25:52Z</time>
      </trkpt>
      <trkpt lat="46.99325" lon="-0.98189">
        <ele>95</ele>
        <time>2012-05-03T13:25:53Z</time>
      </trkpt>
      <trkpt lat="46.99329" lon="-0.98182">
        <ele>95</ele>
        <time>2012-05-03T13:25:54Z</time>
      </trkpt>
      <trkpt lat="46.99333" lon="-0.98175">
        <ele>95</ele>
        <time>2012-05-03T13:25:55Z</time>
      </trkpt>
      <trkpt lat="46.99336" lon="-0.98167">
        <ele>95</ele>
        <time>2012-05-03T13:25:56Z</time>
      </trkpt>
      <trkpt lat="46.99339" lon="-0.98158">
        <ele>94</ele>
        <time>2012-05-03T13:25:57Z</time>
      </trkpt>
      <trkpt lat="46.99342" lon="-0.98149">
        <ele>94</ele>
        <time>2012-05-03T13:25:58Z</time>
      </trkpt>
      <trkpt lat="46.99343" lon="-0.9814">
        <ele>94</ele>
        <time>2012-05-03T13:25:59Z</time>
      </trkpt>
      <trkpt lat="46.99344" lon="-0.9813">
        <ele>94</ele>
        <time>2012-05-03T13:26:00Z</time>
      </trkpt>
      <trkpt lat="46.99344" lon="-0.98121">
        <ele>93</ele>
        <time>2012-05-03T13:26:01Z</time>
      </trkpt>
      <trkpt lat="46.99344" lon="-0.98111">
        <ele>93</ele>
        <time>2012-05-03T13:26:02Z</time>
      </trkpt>
      <trkpt lat="46.99346" lon="-0.98102">
        <ele>93</ele>
        <time>2012-05-03T13:26:03Z</time>
      </trkpt>
      <trkpt lat="46.99348" lon="-0.98094">
        <ele>92</ele>
        <time>2012-05-03T13:26:04Z</time>
      </trkpt>
      <trkpt lat="46.99351" lon="-0.98087">
        <ele>92</ele>
        <time>2012-05-03T13:26:05Z</time>
      </trkpt>
      <trkpt lat="46.99355" lon="-0.98081">
        <ele>91</ele>
        <time>2012-05-03T13:26:06Z</time>
      </trkpt>
      <trkpt lat="46.99358" lon="-0.98077">
        <ele>91</ele>
        <time>2012-05-03T13:26:07Z</time>
      </trkpt>
      <trkpt lat="46.99361" lon="-0.98073">
        <ele>90</ele>
        <time>2012-05-03T13:26:08Z</time>
      </trkpt>
      <trkpt lat="46.99363" lon="-0.98069">
        <ele>90</ele>
        <time>2012-05-03T13:26:09Z</time>
      </trkpt>
      <trkpt lat="46.99364" lon="-0.98067">
        <ele>89</ele>
        <time>2012-05-03T13:26:10Z</time>
      </trkpt>
      <trkpt lat="46.99364" lon="-0.98065">
        <ele>89</ele>
        <time>2012-05-03T13:26:11Z</time>
      </trkpt>
      <trkpt lat="46.99366" lon="-0.98063">
        <ele>89</ele>
        <time>2012-05-03T13:26:13Z</time>
      </trkpt>
      <trkpt lat="46.99367" lon="-0.98062">
        <ele>89</ele>
        <time>2012-05-03T13:26:17Z</time>
      </trkpt>
      <trkpt lat="46.99369" lon="-0.98062">
        <ele>89</ele>
        <time>2012-05-03T13:26:18Z</time>
      </trkpt>
      <trkpt lat="46.99372" lon="-0.98061">
        <ele>89</ele>
        <time>2012-05-03T13:26:19Z</time>
      </trkpt>
      <trkpt lat="46.99374" lon="-0.98059">
        <ele>89</ele>
        <time>2012-05-03T13:26:20Z</time>
      </trkpt>
      <trkpt lat="46.99377" lon="-0.98057">
        <ele>89</ele>
        <time>2012-05-03T13:26:21Z</time>
      </trkpt>
      <trkpt lat="46.9938" lon="-0.98054">
        <ele>88</ele>
        <time>2012-05-03T13:26:22Z</time>
      </trkpt>
      <trkpt lat="46.99383" lon="-0.98052">
        <ele>88</ele>
        <time>2012-05-03T13:26:23Z</time>
      </trkpt>
      <trkpt lat="46.99387" lon="-0.98049">
        <ele>88</ele>
        <time>2012-05-03T13:26:24Z</time>
      </trkpt>
      <trkpt lat="46.99391" lon="-0.98046">
        <ele>87</ele>
        <time>2012-05-03T13:26:25Z</time>
      </trkpt>
      <trkpt lat="46.99396" lon="-0.98043">
        <ele>87</ele>
        <time>2012-05-03T13:26:26Z</time>
      </trkpt>
      <trkpt lat="46.994" lon="-0.98039">
        <ele>87</ele>
        <time>2012-05-03T13:26:27Z</time>
      </trkpt>
      <trkpt lat="46.99406" lon="-0.98036">
        <ele>86</ele>
        <time>2012-05-03T13:26:28Z</time>
      </trkpt>
      <trkpt lat="46.99411" lon="-0.98031">
        <ele>86</ele>
        <time>2012-05-03T13:26:29Z</time>
      </trkpt>
      <trkpt lat="46.99417" lon="-0.98026">
        <ele>85</ele>
        <time>2012-05-03T13:26:30Z</time>
      </trkpt>
      <trkpt lat="46.99423" lon="-0.98022">
        <ele>85</ele>
        <time>2012-05-03T13:26:31Z</time>
      </trkpt>
      <trkpt lat="46.99429" lon="-0.98017">
        <ele>84</ele>
        <time>2012-05-03T13:26:32Z</time>
      </trkpt>
      <trkpt lat="46.99434" lon="-0.98013">
        <ele>84</ele>
        <time>2012-05-03T13:26:33Z</time>
      </trkpt>
      <trkpt lat="46.9944" lon="-0.98008">
        <ele>83</ele>
        <time>2012-05-03T13:26:34Z</time>
      </trkpt>
      <trkpt lat="46.99445" lon="-0.98004">
        <ele>83</ele>
        <time>2012-05-03T13:26:35Z</time>
      </trkpt>
      <trkpt lat="46.9945" lon="-0.97999">
        <ele>82</ele>
        <time>2012-05-03T13:26:36Z</time>
      </trkpt>
      <trkpt lat="46.99454" lon="-0.97995">
        <ele>81</ele>
        <time>2012-05-03T13:26:37Z</time>
      </trkpt>
      <trkpt lat="46.99459" lon="-0.97991">
        <ele>80</ele>
        <time>2012-05-03T13:26:38Z</time>
      </trkpt>
      <trkpt lat="46.99464" lon="-0.97987">
        <ele>80</ele>
        <time>2012-05-03T13:26:39Z</time>
      </trkpt>
      <trkpt lat="46.99469" lon="-0.97984">
        <ele>79</ele>
        <time>2012-05-03T13:26:40Z</time>
      </trkpt>
      <trkpt lat="46.99474" lon="-0.97983">
        <ele>78</ele>
        <time>2012-05-03T13:26:41Z</time>
      </trkpt>
      <trkpt lat="46.99479" lon="-0.97983">
        <ele>77</ele>
        <time>2012-05-03T13:26:42Z</time>
      </trkpt>
      <trkpt lat="46.99484" lon="-0.97984">
        <ele>76</ele>
        <time>2012-05-03T13:26:43Z</time>
      </trkpt>
      <trkpt lat="46.99488" lon="-0.97986">
        <ele>76</ele>
        <time>2012-05-03T13:26:44Z</time>
      </trkpt>
      <trkpt lat="46.99493" lon="-0.97989">
        <ele>75</ele>
        <time>2012-05-03T13:26:45Z</time>
      </trkpt>
      <trkpt lat="46.99498" lon="-0.97993">
        <ele>74</ele>
        <time>2012-05-03T13:26:46Z</time>
      </trkpt>
      <trkpt lat="46.99502" lon="-0.97998">
        <ele>73</ele>
        <time>2012-05-03T13:26:47Z</time>
      </trkpt>
      <trkpt lat="46.99506" lon="-0.98004">
        <ele>73</ele>
        <time>2012-05-03T13:26:48Z</time>
      </trkpt>
      <trkpt lat="46.99509" lon="-0.9801">
        <ele>72</ele>
        <time>2012-05-03T13:26:49Z</time>
      </trkpt>
      <trkpt lat="46.99514" lon="-0.98017">
        <ele>71</ele>
        <time>2012-05-03T13:26:50Z</time>
      </trkpt>
      <trkpt lat="46.99518" lon="-0.98024">
        <ele>71</ele>
        <time>2012-05-03T13:26:51Z</time>
      </trkpt>
      <trkpt lat="46.99521" lon="-0.98031">
        <ele>70</ele>
        <time>2012-05-03T13:26:52Z</time>
      </trkpt>
      <trkpt lat="46.99525" lon="-0.98038">
        <ele>70</ele>
        <time>2012-05-03T13:26:53Z</time>
      </trkpt>
      <trkpt lat="46.99528" lon="-0.98045">
        <ele>69</ele>
        <time>2012-05-03T13:26:54Z</time>
      </trkpt>
      <trkpt lat="46.99531" lon="-0.98049">
        <ele>68</ele>
        <time>2012-05-03T13:26:55Z</time>
      </trkpt>
      <trkpt lat="46.99534" lon="-0.98052">
        <ele>67</ele>
        <time>2012-05-03T13:26:56Z</time>
      </trkpt>
      <trkpt lat="46.99538" lon="-0.98052">
        <ele>67</ele>
        <time>2012-05-03T13:26:57Z</time>
      </trkpt>
      <trkpt lat="46.99542" lon="-0.98049">
        <ele>66</ele>
        <time>2012-05-03T13:26:58Z</time>
      </trkpt>
      <trkpt lat="46.99545" lon="-0.98044">
        <ele>65</ele>
        <time>2012-05-03T13:26:59Z</time>
      </trkpt>
      <trkpt lat="46.99548" lon="-0.98038">
        <ele>64</ele>
        <time>2012-05-03T13:27:00Z</time>
      </trkpt>
      <trkpt lat="46.9955" lon="-0.98029">
        <ele>63</ele>
        <time>2012-05-03T13:27:01Z</time>
      </trkpt>
      <trkpt lat="46.99551" lon="-0.9802">
        <ele>63</ele>
        <time>2012-05-03T13:27:02Z</time>
      </trkpt>
      <trkpt lat="46.99551" lon="-0.98011">
        <ele>62</ele>
        <time>2012-05-03T13:27:03Z</time>
      </trkpt>
      <trkpt lat="46.9955" lon="-0.98002">
        <ele>61</ele>
        <time>2012-05-03T13:27:04Z</time>
      </trkpt>
      <trkpt lat="46.99548" lon="-0.97993">
        <ele>61</ele>
        <time>2012-05-03T13:27:05Z</time>
      </trkpt>
      <trkpt lat="46.99545" lon="-0.97986">
        <ele>61</ele>
        <time>2012-05-03T13:27:06Z</time>
      </trkpt>
      <trkpt lat="46.99541" lon="-0.9798">
        <ele>60</ele>
        <time>2012-05-03T13:27:07Z</time>
      </trkpt>
      <trkpt lat="46.99538" lon="-0.97974">
        <ele>60</ele>
        <time>2012-05-03T13:27:08Z</time>
      </trkpt>
      <trkpt lat="46.99535" lon="-0.97969">
        <ele>60</ele>
        <time>2012-05-03T13:27:09Z</time>
      </trkpt>
      <trkpt lat="46.99531" lon="-0.97964">
        <ele>59</ele>
        <time>2012-05-03T13:27:10Z</time>
      </trkpt>
      <trkpt lat="46.99527" lon="-0.9796">
        <ele>59</ele>
        <time>2012-05-03T13:27:11Z</time>
      </trkpt>
      <trkpt lat="46.99523" lon="-0.97956">
        <ele>59</ele>
        <time>2012-05-03T13:27:12Z</time>
      </trkpt>
      <trkpt lat="46.99519" lon="-0.97953">
        <ele>59</ele>
        <time>2012-05-03T13:27:13Z</time>
      </trkpt>
      <trkpt lat="46.99515" lon="-0.97949">
        <ele>59</ele>
        <time>2012-05-03T13:27:14Z</time>
      </trkpt>
      <trkpt lat="46.99512" lon="-0.97946">
        <ele>59</ele>
        <time>2012-05-03T13:27:15Z</time>
      </trkpt>
      <trkpt lat="46.99508" lon="-0.97943">
        <ele>59</ele>
        <time>2012-05-03T13:27:17Z</time>
      </trkpt>
      <trkpt lat="46.99505" lon="-0.9794">
        <ele>59</ele>
        <time>2012-05-03T13:27:17Z</time>
      </trkpt>
      <trkpt lat="46.99502" lon="-0.97937">
        <ele>59</ele>
        <time>2012-05-03T13:27:18Z</time>
      </trkpt>
      <trkpt lat="46.99499" lon="-0.97934">
        <ele>59</ele>
        <time>2012-05-03T13:27:19Z</time>
      </trkpt>
      <trkpt lat="46.99497" lon="-0.97931">
        <ele>59</ele>
        <time>2012-05-03T13:27:20Z</time>
      </trkpt>
      <trkpt lat="46.99494" lon="-0.97927">
        <ele>59</ele>
        <time>2012-05-03T13:27:21Z</time>
      </trkpt>
      <trkpt lat="46.99492" lon="-0.97923">
        <ele>59</ele>
        <time>2012-05-03T13:27:22Z</time>
      </trkpt>
      <trkpt lat="46.9949" lon="-0.97919">
        <ele>59</ele>
        <time>2012-05-03T13:27:23Z</time>
      </trkpt>
      <trkpt lat="46.99488" lon="-0.97914">
        <ele>59</ele>
        <time>2012-05-03T13:27:24Z</time>
      </trkpt>
      <trkpt lat="46.99485" lon="-0.9791">
        <ele>59</ele>
        <time>2012-05-03T13:27:25Z</time>
      </trkpt>
      <trkpt lat="46.99483" lon="-0.97905">
        <ele>59</ele>
        <time>2012-05-03T13:27:26Z</time>
      </trkpt>
      <trkpt lat="46.99481" lon="-0.97901">
        <ele>59</ele>
        <time>2012-05-03T13:27:27Z</time>
      </trkpt>
      <trkpt lat="46.99479" lon="-0.97897">
        <ele>59</ele>
        <time>2012-05-03T13:27:28Z</time>
      </trkpt>
      <trkpt lat="46.99477" lon="-0.97893">
        <ele>59</ele>
        <time>2012-05-03T13:27:29Z</time>
      </trkpt>
      <trkpt lat="46.99474" lon="-0.9789">
        <ele>59</ele>
        <time>2012-05-03T13:27:30Z</time>
      </trkpt>
      <trkpt lat="46.99471" lon="-0.97887">
        <ele>59</ele>
        <time>2012-05-03T13:27:31Z</time>
      </trkpt>
      <trkpt lat="46.99469" lon="-0.97885">
        <ele>59</ele>
        <time>2012-05-03T13:27:32Z</time>
      </trkpt>
      <trkpt lat="46.99466" lon="-0.97883">
        <ele>59</ele>
        <time>2012-05-03T13:27:33Z</time>
      </trkpt>
      <trkpt lat="46.99464" lon="-0.97881">
        <ele>59</ele>
        <time>2012-05-03T13:27:34Z</time>
      </trkpt>
      <trkpt lat="46.99461" lon="-0.9788">
        <ele>59</ele>
        <time>2012-05-03T13:27:35Z</time>
      </trkpt>
      <trkpt lat="46.99461" lon="-0.97878">
        <ele>59</ele>
        <time>2012-05-03T13:27:36Z</time>
      </trkpt>
      <trkpt lat="46.99461" lon="-0.97875">
        <ele>59</ele>
        <time>2012-05-03T13:27:37Z</time>
      </trkpt>
      <trkpt lat="46.9946" lon="-0.97873">
        <ele>59</ele>
        <time>2012-05-03T13:27:38Z</time>
      </trkpt>
      <trkpt lat="46.99461" lon="-0.97871">
        <ele>59</ele>
        <time>2012-05-03T13:27:39Z</time>
      </trkpt>
      <trkpt lat="46.99461" lon="-0.97869">
        <ele>59</ele>
        <time>2012-05-03T13:27:40Z</time>
      </trkpt>
      <trkpt lat="46.99461" lon="-0.97867">
        <ele>59</ele>
        <time>2012-05-03T13:27:42Z</time>
      </trkpt>
      <trkpt lat="46.9946" lon="-0.97866">
        <ele>59</ele>
        <time>2012-05-03T13:27:44Z</time>
      </trkpt>
      <trkpt lat="46.99458" lon="-0.97866">
        <ele>59</ele>
        <time>2012-05-03T13:27:46Z</time>
      </trkpt>
      <trkpt lat="46.99456" lon="-0.97865">
        <ele>59</ele>
        <time>2012-05-03T13:27:55Z</time>
      </trkpt>
      <trkpt lat="46.99456" lon="-0.97864">
        <ele>59</ele>
        <time>2012-05-03T13:27:56Z</time>
      </trkpt>
      <trkpt lat="46.99455" lon="-0.97862">
        <ele>59</ele>
        <time>2012-05-03T13:27:57Z</time>
      </trkpt>
      <trkpt lat="46.99457" lon="-0.9786">
        <ele>59</ele>
        <time>2012-05-03T13:27:58Z</time>
      </trkpt>
      <trkpt lat="46.99457" lon="-0.97859">
        <ele>59</ele>
        <time>2012-05-03T13:27:59Z</time>
      </trkpt>
      <trkpt lat="46.99457" lon="-0.97857">
        <ele>59</ele>
        <time>2012-05-03T13:28:00Z</time>
      </trkpt>
      <trkpt lat="46.99456" lon="-0.97855">
        <ele>59</ele>
        <time>2012-05-03T13:28:02Z</time>
      </trkpt>
      <trkpt lat="46.99455" lon="-0.97854">
        <ele>59</ele>
        <time>2012-05-03T13:28:04Z</time>
      </trkpt>
      <trkpt lat="46.99453" lon="-0.97853">
        <ele>59</ele>
        <time>2012-05-03T13:28:06Z</time>
      </trkpt>
      <trkpt lat="46.99451" lon="-0.97852">
        <ele>59</ele>
        <time>2012-05-03T13:28:09Z</time>
      </trkpt>
      <trkpt lat="46.9945" lon="-0.97851">
        <ele>59</ele>
        <time>2012-05-03T13:28:10Z</time>
      </trkpt>
      <trkpt lat="46.99448" lon="-0.9785">
        <ele>59</ele>
        <time>2012-05-03T13:28:11Z</time>
      </trkpt>
      <trkpt lat="46.99446" lon="-0.97848">
        <ele>59</ele>
        <time>2012-05-03T13:28:12Z</time>
      </trkpt>
      <trkpt lat="46.99442" lon="-0.97846">
        <ele>59</ele>
        <time>2012-05-03T13:28:13Z</time>
      </trkpt>
      <trkpt lat="46.99438" lon="-0.97842">
        <ele>59</ele>
        <time>2012-05-03T13:28:14Z</time>
      </trkpt>
      <trkpt lat="46.99434" lon="-0.97839">
        <ele>59</ele>
        <time>2012-05-03T13:28:15Z</time>
      </trkpt>
      <trkpt lat="46.9943" lon="-0.97836">
        <ele>59</ele>
        <time>2012-05-03T13:28:17Z</time>
      </trkpt>
      <trkpt lat="46.99426" lon="-0.97834">
        <ele>59</ele>
        <time>2012-05-03T13:28:17Z</time>
      </trkpt>
      <trkpt lat="46.99421" lon="-0.97831">
        <ele>59</ele>
        <time>2012-05-03T13:28:18Z</time>
      </trkpt>
      <trkpt lat="46.99417" lon="-0.97829">
        <ele>59</ele>
        <time>2012-05-03T13:28:19Z</time>
      </trkpt>
      <trkpt lat="46.99412" lon="-0.97827">
        <ele>59</ele>
        <time>2012-05-03T13:28:20Z</time>
      </trkpt>
      <trkpt lat="46.99408" lon="-0.97824">
        <ele>59</ele>
        <time>2012-05-03T13:28:21Z</time>
      </trkpt>
      <trkpt lat="46.99404" lon="-0.97821">
        <ele>59</ele>
        <time>2012-05-03T13:28:22Z</time>
      </trkpt>
      <trkpt lat="46.994" lon="-0.97819">
        <ele>59</ele>
        <time>2012-05-03T13:28:23Z</time>
      </trkpt>
      <trkpt lat="46.99396" lon="-0.97816">
        <ele>59</ele>
        <time>2012-05-03T13:28:24Z</time>
      </trkpt>
      <trkpt lat="46.99392" lon="-0.97812">
        <ele>59</ele>
        <time>2012-05-03T13:28:25Z</time>
      </trkpt>
      <trkpt lat="46.99389" lon="-0.97809">
        <ele>59</ele>
        <time>2012-05-03T13:28:26Z</time>
      </trkpt>
      <trkpt lat="46.99386" lon="-0.97805">
        <ele>59</ele>
        <time>2012-05-03T13:28:27Z</time>
      </trkpt>
      <trkpt lat="46.99384" lon="-0.978">
        <ele>59</ele>
        <time>2012-05-03T13:28:28Z</time>
      </trkpt>
      <trkpt lat="46.99381" lon="-0.97795">
        <ele>59</ele>
        <time>2012-05-03T13:28:29Z</time>
      </trkpt>
      <trkpt lat="46.99379" lon="-0.97789">
        <ele>59</ele>
        <time>2012-05-03T13:28:30Z</time>
      </trkpt>
      <trkpt lat="46.99377" lon="-0.97784">
        <ele>59</ele>
        <time>2012-05-03T13:28:31Z</time>
      </trkpt>
      <trkpt lat="46.99375" lon="-0.97779">
        <ele>59</ele>
        <time>2012-05-03T13:28:32Z</time>
      </trkpt>
      <trkpt lat="46.99374" lon="-0.97775">
        <ele>59</ele>
        <time>2012-05-03T13:28:33Z</time>
      </trkpt>
      <trkpt lat="46.99373" lon="-0.97773">
        <ele>59</ele>
        <time>2012-05-03T13:28:34Z</time>
      </trkpt>
      <trkpt lat="46.99373" lon="-0.97771">
        <ele>59</ele>
        <time>2012-05-03T13:28:36Z</time>
      </trkpt>
      <trkpt lat="46.99371" lon="-0.97769">
        <ele>59</ele>
        <time>2012-05-03T13:28:45Z</time>
      </trkpt>
      <trkpt lat="46.99369" lon="-0.97769">
        <ele>59</ele>
        <time>2012-05-03T13:28:47Z</time>
      </trkpt>
      <trkpt lat="46.99367" lon="-0.97768">
        <ele>59</ele>
        <time>2012-05-03T13:28:49Z</time>
      </trkpt>
      <trkpt lat="46.99369" lon="-0.97768">
        <ele>61</ele>
        <time>2012-05-03T13:28:55Z</time>
      </trkpt>
      <trkpt lat="46.9937" lon="-0.97767">
        <ele>61</ele>
        <time>2012-05-03T13:28:58Z</time>
      </trkpt>
      <trkpt lat="46.99369" lon="-0.97765">
        <ele>61</ele>
        <time>2012-05-03T13:29:00Z</time>
      </trkpt>
      <trkpt lat="46.9937" lon="-0.97763">
        <ele>61</ele>
        <time>2012-05-03T13:29:01Z</time>
      </trkpt>
      <trkpt lat="46.99369" lon="-0.97761">
        <ele>61</ele>
        <time>2012-05-03T13:29:02Z</time>
      </trkpt>
      <trkpt lat="46.99369" lon="-0.97759">
        <ele>61</ele>
        <time>2012-05-03T13:29:03Z</time>
      </trkpt>
      <trkpt lat="46.9937" lon="-0.97756">
        <ele>61</ele>
        <time>2012-05-03T13:29:04Z</time>
      </trkpt>
      <trkpt lat="46.99371" lon="-0.97751">
        <ele>61</ele>
        <time>2012-05-03T13:29:05Z</time>
      </trkpt>
      <trkpt lat="46.99372" lon="-0.97747">
        <ele>61</ele>
        <time>2012-05-03T13:29:06Z</time>
      </trkpt>
      <trkpt lat="46.99371" lon="-0.97742">
        <ele>61</ele>
        <time>2012-05-03T13:29:07Z</time>
      </trkpt>
      <trkpt lat="46.99371" lon="-0.97737">
        <ele>61</ele>
        <time>2012-05-03T13:29:08Z</time>
      </trkpt>
      <trkpt lat="46.9937" lon="-0.97733">
        <ele>61</ele>
        <time>2012-05-03T13:29:09Z</time>
      </trkpt>
      <trkpt lat="46.99369" lon="-0.97729">
        <ele>61</ele>
        <time>2012-05-03T13:29:10Z</time>
      </trkpt>
      <trkpt lat="46.99369" lon="-0.97726">
        <ele>61</ele>
        <time>2012-05-03T13:29:11Z</time>
      </trkpt>
      <trkpt lat="46.99368" lon="-0.97723">
        <ele>61</ele>
        <time>2012-05-03T13:29:12Z</time>
      </trkpt>
      <trkpt lat="46.99368" lon="-0.9772">
        <ele>61</ele>
        <time>2012-05-03T13:29:13Z</time>
      </trkpt>
      <trkpt lat="46.99368" lon="-0.97718">
        <ele>61</ele>
        <time>2012-05-03T13:29:14Z</time>
      </trkpt>
      <trkpt lat="46.99367" lon="-0.97716">
        <ele>61</ele>
        <time>2012-05-03T13:29:15Z</time>
      </trkpt>
      <trkpt lat="46.99367" lon="-0.97713">
        <ele>61</ele>
        <time>2012-05-03T13:29:17Z</time>
      </trkpt>
      <trkpt lat="46.99368" lon="-0.97709">
        <ele>62</ele>
        <time>2012-05-03T13:29:17Z</time>
      </trkpt>
      <trkpt lat="46.99367" lon="-0.97705">
        <ele>62</ele>
        <time>2012-05-03T13:29:18Z</time>
      </trkpt>
      <trkpt lat="46.99366" lon="-0.97701">
        <ele>62</ele>
        <time>2012-05-03T13:29:19Z</time>
      </trkpt>
      <trkpt lat="46.99365" lon="-0.97697">
        <ele>62</ele>
        <time>2012-05-03T13:29:20Z</time>
      </trkpt>
      <trkpt lat="46.99363" lon="-0.97693">
        <ele>62</ele>
        <time>2012-05-03T13:29:21Z</time>
      </trkpt>
      <trkpt lat="46.99362" lon="-0.97689">
        <ele>62</ele>
        <time>2012-05-03T13:29:22Z</time>
      </trkpt>
      <trkpt lat="46.99361" lon="-0.97686">
        <ele>62</ele>
        <time>2012-05-03T13:29:23Z</time>
      </trkpt>
      <trkpt lat="46.9936" lon="-0.97683">
        <ele>62</ele>
        <time>2012-05-03T13:29:24Z</time>
      </trkpt>
      <trkpt lat="46.99359" lon="-0.97679">
        <ele>62</ele>
        <time>2012-05-03T13:29:25Z</time>
      </trkpt>
      <trkpt lat="46.99358" lon="-0.97674">
        <ele>62</ele>
        <time>2012-05-03T13:29:26Z</time>
      </trkpt>
      <trkpt lat="46.99357" lon="-0.97669">
        <ele>62</ele>
        <time>2012-05-03T13:29:27Z</time>
      </trkpt>
      <trkpt lat="46.99356" lon="-0.97664">
        <ele>62</ele>
        <time>2012-05-03T13:29:28Z</time>
      </trkpt>
      <trkpt lat="46.99355" lon="-0.9766">
        <ele>62</ele>
        <time>2012-05-03T13:29:29Z</time>
      </trkpt>
      <trkpt lat="46.99354" lon="-0.97656">
        <ele>62</ele>
        <time>2012-05-03T13:29:30Z</time>
      </trkpt>
      <trkpt lat="46.99353" lon="-0.97652">
        <ele>62</ele>
        <time>2012-05-03T13:29:31Z</time>
      </trkpt>
      <trkpt lat="46.99353" lon="-0.97648">
        <ele>62</ele>
        <time>2012-05-03T13:29:32Z</time>
      </trkpt>
      <trkpt lat="46.99353" lon="-0.97643">
        <ele>62</ele>
        <time>2012-05-03T13:29:33Z</time>
      </trkpt>
      <trkpt lat="46.99353" lon="-0.97638">
        <ele>63</ele>
        <time>2012-05-03T13:29:34Z</time>
      </trkpt>
      <trkpt lat="46.99354" lon="-0.97634">
        <ele>64</ele>
        <time>2012-05-03T13:29:35Z</time>
      </trkpt>
      <trkpt lat="46.99353" lon="-0.9763">
        <ele>65</ele>
        <time>2012-05-03T13:29:36Z</time>
      </trkpt>
      <trkpt lat="46.99353" lon="-0.97627">
        <ele>66</ele>
        <time>2012-05-03T13:29:37Z</time>
      </trkpt>
      <trkpt lat="46.99353" lon="-0.97624">
        <ele>67</ele>
        <time>2012-05-03T13:29:38Z</time>
      </trkpt>
      <trkpt lat="46.99352" lon="-0.97622">
        <ele>68</ele>
        <time>2012-05-03T13:29:39Z</time>
      </trkpt>
      <trkpt lat="46.99351" lon="-0.9762">
        <ele>69</ele>
        <time>2012-05-03T13:29:40Z</time>
      </trkpt>
      <trkpt lat="46.9935" lon="-0.97619">
        <ele>69</ele>
        <time>2012-05-03T13:29:42Z</time>
      </trkpt>
      <trkpt lat="46.99352" lon="-0.97616">
        <ele>69</ele>
        <time>2012-05-03T13:29:44Z</time>
      </trkpt>
      <trkpt lat="46.99352" lon="-0.97614">
        <ele>69</ele>
        <time>2012-05-03T13:29:45Z</time>
      </trkpt>
      <trkpt lat="46.99352" lon="-0.9761">
        <ele>69</ele>
        <time>2012-05-03T13:29:46Z</time>
      </trkpt>
      <trkpt lat="46.99352" lon="-0.97607">
        <ele>69</ele>
        <time>2012-05-03T13:29:47Z</time>
      </trkpt>
      <trkpt lat="46.99351" lon="-0.97603">
        <ele>69</ele>
        <time>2012-05-03T13:29:48Z</time>
      </trkpt>
      <trkpt lat="46.99351" lon="-0.976">
        <ele>69</ele>
        <time>2012-05-03T13:29:49Z</time>
      </trkpt>
      <trkpt lat="46.99351" lon="-0.97597">
        <ele>69</ele>
        <time>2012-05-03T13:29:50Z</time>
      </trkpt>
      <trkpt lat="46.99351" lon="-0.97593">
        <ele>69</ele>
        <time>2012-05-03T13:29:51Z</time>
      </trkpt>
      <trkpt lat="46.99353" lon="-0.97589">
        <ele>69</ele>
        <time>2012-05-03T13:29:52Z</time>
      </trkpt>
      <trkpt lat="46.99355" lon="-0.97585">
        <ele>69</ele>
        <time>2012-05-03T13:29:53Z</time>
      </trkpt>
      <trkpt lat="46.99357" lon="-0.97582">
        <ele>69</ele>
        <time>2012-05-03T13:29:54Z</time>
      </trkpt>
      <trkpt lat="46.99359" lon="-0.9758">
        <ele>69</ele>
        <time>2012-05-03T13:29:55Z</time>
      </trkpt>
      <trkpt lat="46.99361" lon="-0.97578">
        <ele>69</ele>
        <time>2012-05-03T13:29:56Z</time>
      </trkpt>
      <trkpt lat="46.99363" lon="-0.97577">
        <ele>69</ele>
        <time>2012-05-03T13:29:57Z</time>
      </trkpt>
      <trkpt lat="46.99364" lon="-0.97574">
        <ele>69</ele>
        <time>2012-05-03T13:29:58Z</time>
      </trkpt>
      <trkpt lat="46.99366" lon="-0.97571">
        <ele>69</ele>
        <time>2012-05-03T13:29:59Z</time>
      </trkpt>
      <trkpt lat="46.99367" lon="-0.97567">
        <ele>69</ele>
        <time>2012-05-03T13:30:00Z</time>
      </trkpt>
      <trkpt lat="46.99369" lon="-0.97563">
        <ele>69</ele>
        <time>2012-05-03T13:30:01Z</time>
      </trkpt>
      <trkpt lat="46.9937" lon="-0.97558">
        <ele>69</ele>
        <time>2012-05-03T13:30:02Z</time>
      </trkpt>
      <trkpt lat="46.99371" lon="-0.97554">
        <ele>69</ele>
        <time>2012-05-03T13:30:03Z</time>
      </trkpt>
      <trkpt lat="46.99374" lon="-0.97551">
        <ele>69</ele>
        <time>2012-05-03T13:30:04Z</time>
      </trkpt>
      <trkpt lat="46.99376" lon="-0.97548">
        <ele>69</ele>
        <time>2012-05-03T13:30:05Z</time>
      </trkpt>
      <trkpt lat="46.99379" lon="-0.97544">
        <ele>69</ele>
        <time>2012-05-03T13:30:06Z</time>
      </trkpt>
      <trkpt lat="46.9938" lon="-0.97541">
        <ele>68</ele>
        <time>2012-05-03T13:30:07Z</time>
      </trkpt>
      <trkpt lat="46.99382" lon="-0.97537">
        <ele>68</ele>
        <time>2012-05-03T13:30:08Z</time>
      </trkpt>
      <trkpt lat="46.99384" lon="-0.97532">
        <ele>68</ele>
        <time>2012-05-03T13:30:09Z</time>
      </trkpt>
      <trkpt lat="46.99386" lon="-0.97527">
        <ele>67</ele>
        <time>2012-05-03T13:30:10Z</time>
      </trkpt>
      <trkpt lat="46.99389" lon="-0.97523">
        <ele>66</ele>
        <time>2012-05-03T13:30:11Z</time>
      </trkpt>
      <trkpt lat="46.9939" lon="-0.97518">
        <ele>66</ele>
        <time>2012-05-03T13:30:12Z</time>
      </trkpt>
      <trkpt lat="46.99392" lon="-0.97513">
        <ele>66</ele>
        <time>2012-05-03T13:30:13Z</time>
      </trkpt>
      <trkpt lat="46.99393" lon="-0.97508">
        <ele>65</ele>
        <time>2012-05-03T13:30:14Z</time>
      </trkpt>
      <trkpt lat="46.99395" lon="-0.97503">
        <ele>65</ele>
        <time>2012-05-03T13:30:15Z</time>
      </trkpt>
      <trkpt lat="46.99397" lon="-0.97497">
        <ele>65</ele>
        <time>2012-05-03T13:30:17Z</time>
      </trkpt>
      <trkpt lat="46.99398" lon="-0.97492">
        <ele>65</ele>
        <time>2012-05-03T13:30:17Z</time>
      </trkpt>
      <trkpt lat="46.99399" lon="-0.97487">
        <ele>65</ele>
        <time>2012-05-03T13:30:18Z</time>
      </trkpt>
      <trkpt lat="46.994" lon="-0.97481">
        <ele>65</ele>
        <time>2012-05-03T13:30:19Z</time>
      </trkpt>
      <trkpt lat="46.99402" lon="-0.97475">
        <ele>65</ele>
        <time>2012-05-03T13:30:20Z</time>
      </trkpt>
      <trkpt lat="46.99403" lon="-0.9747">
        <ele>65</ele>
        <time>2012-05-03T13:30:21Z</time>
      </trkpt>
      <trkpt lat="46.99405" lon="-0.97464">
        <ele>65</ele>
        <time>2012-05-03T13:30:22Z</time>
      </trkpt>
      <trkpt lat="46.99406" lon="-0.97459">
        <ele>65</ele>
        <time>2012-05-03T13:30:23Z</time>
      </trkpt>
      <trkpt lat="46.99408" lon="-0.97454">
        <ele>65</ele>
        <time>2012-05-03T13:30:24Z</time>
      </trkpt>
      <trkpt lat="46.99409" lon="-0.97448">
        <ele>65</ele>
        <time>2012-05-03T13:30:25Z</time>
      </trkpt>
      <trkpt lat="46.9941" lon="-0.97443">
        <ele>65</ele>
        <time>2012-05-03T13:30:26Z</time>
      </trkpt>
      <trkpt lat="46.99411" lon="-0.97437">
        <ele>65</ele>
        <time>2012-05-03T13:30:27Z</time>
      </trkpt>
      <trkpt lat="46.99413" lon="-0.97432">
        <ele>65</ele>
        <time>2012-05-03T13:30:28Z</time>
      </trkpt>
      <trkpt lat="46.99413" lon="-0.97426">
        <ele>65</ele>
        <time>2012-05-03T13:30:29Z</time>
      </trkpt>
      <trkpt lat="46.99415" lon="-0.97421">
        <ele>65</ele>
        <time>2012-05-03T13:30:30Z</time>
      </trkpt>
      <trkpt lat="46.99416" lon="-0.97416">
        <ele>65</ele>
        <time>2012-05-03T13:30:31Z</time>
      </trkpt>
      <trkpt lat="46.99417" lon="-0.9741">
        <ele>64</ele>
        <time>2012-05-03T13:30:32Z</time>
      </trkpt>
      <trkpt lat="46.99418" lon="-0.97404">
        <ele>64</ele>
        <time>2012-05-03T13:30:33Z</time>
      </trkpt>
      <trkpt lat="46.99419" lon="-0.97399">
        <ele>64</ele>
        <time>2012-05-03T13:30:34Z</time>
      </trkpt>
      <trkpt lat="46.9942" lon="-0.97393">
        <ele>64</ele>
        <time>2012-05-03T13:30:35Z</time>
      </trkpt>
      <trkpt lat="46.99421" lon="-0.97387">
        <ele>63</ele>
        <time>2012-05-03T13:30:36Z</time>
      </trkpt>
      <trkpt lat="46.99422" lon="-0.97381">
        <ele>63</ele>
        <time>2012-05-03T13:30:37Z</time>
      </trkpt>
      <trkpt lat="46.99423" lon="-0.97375">
        <ele>63</ele>
        <time>2012-05-03T13:30:38Z</time>
      </trkpt>
      <trkpt lat="46.99424" lon="-0.97369">
        <ele>63</ele>
        <time>2012-05-03T13:30:39Z</time>
      </trkpt>
      <trkpt lat="46.99426" lon="-0.97364">
        <ele>62</ele>
        <time>2012-05-03T13:30:40Z</time>
      </trkpt>
      <trkpt lat="46.99427" lon="-0.97359">
        <ele>62</ele>
        <time>2012-05-03T13:30:41Z</time>
      </trkpt>
      <trkpt lat="46.9943" lon="-0.97355">
        <ele>62</ele>
        <time>2012-05-03T13:30:42Z</time>
      </trkpt>
      <trkpt lat="46.99432" lon="-0.9735">
        <ele>62</ele>
        <time>2012-05-03T13:30:43Z</time>
      </trkpt>
      <trkpt lat="46.99434" lon="-0.97346">
        <ele>62</ele>
        <time>2012-05-03T13:30:44Z</time>
      </trkpt>
      <trkpt lat="46.99437" lon="-0.97342">
        <ele>62</ele>
        <time>2012-05-03T13:30:45Z</time>
      </trkpt>
      <trkpt lat="46.9944" lon="-0.97338">
        <ele>62</ele>
        <time>2012-05-03T13:30:46Z</time>
      </trkpt>
      <trkpt lat="46.99442" lon="-0.97334">
        <ele>62</ele>
        <time>2012-05-03T13:30:47Z</time>
      </trkpt>
      <trkpt lat="46.99445" lon="-0.9733">
        <ele>62</ele>
        <time>2012-05-03T13:30:48Z</time>
      </trkpt>
      <trkpt lat="46.99448" lon="-0.97326">
        <ele>62</ele>
        <time>2012-05-03T13:30:49Z</time>
      </trkpt>
      <trkpt lat="46.9945" lon="-0.97322">
        <ele>62</ele>
        <time>2012-05-03T13:30:50Z</time>
      </trkpt>
      <trkpt lat="46.99452" lon="-0.97318">
        <ele>62</ele>
        <time>2012-05-03T13:30:51Z</time>
      </trkpt>
      <trkpt lat="46.99454" lon="-0.97313">
        <ele>62</ele>
        <time>2012-05-03T13:30:52Z</time>
      </trkpt>
      <trkpt lat="46.99456" lon="-0.97309">
        <ele>62</ele>
        <time>2012-05-03T13:30:53Z</time>
      </trkpt>
      <trkpt lat="46.99457" lon="-0.97304">
        <ele>62</ele>
        <time>2012-05-03T13:30:54Z</time>
      </trkpt>
      <trkpt lat="46.99459" lon="-0.973">
        <ele>62</ele>
        <time>2012-05-03T13:30:55Z</time>
      </trkpt>
      <trkpt lat="46.99461" lon="-0.97296">
        <ele>62</ele>
        <time>2012-05-03T13:30:56Z</time>
      </trkpt>
      <trkpt lat="46.99462" lon="-0.97291">
        <ele>62</ele>
        <time>2012-05-03T13:30:57Z</time>
      </trkpt>
      <trkpt lat="46.99463" lon="-0.97287">
        <ele>62</ele>
        <time>2012-05-03T13:30:58Z</time>
      </trkpt>
      <trkpt lat="46.99464" lon="-0.97282">
        <ele>62</ele>
        <time>2012-05-03T13:30:59Z</time>
      </trkpt>
      <trkpt lat="46.99466" lon="-0.97279">
        <ele>62</ele>
        <time>2012-05-03T13:31:00Z</time>
      </trkpt>
      <trkpt lat="46.99469" lon="-0.97276">
        <ele>62</ele>
        <time>2012-05-03T13:31:01Z</time>
      </trkpt>
      <trkpt lat="46.99471" lon="-0.97273">
        <ele>62</ele>
        <time>2012-05-03T13:31:02Z</time>
      </trkpt>
      <trkpt lat="46.99471" lon="-0.97269">
        <ele>62</ele>
        <time>2012-05-03T13:31:03Z</time>
      </trkpt>
      <trkpt lat="46.99472" lon="-0.97265">
        <ele>62</ele>
        <time>2012-05-03T13:31:04Z</time>
      </trkpt>
      <trkpt lat="46.99472" lon="-0.97261">
        <ele>62</ele>
        <time>2012-05-03T13:31:05Z</time>
      </trkpt>
      <trkpt lat="46.99472" lon="-0.97257">
        <ele>62</ele>
        <time>2012-05-03T13:31:06Z</time>
      </trkpt>
      <trkpt lat="46.99473" lon="-0.97253">
        <ele>62</ele>
        <time>2012-05-03T13:31:07Z</time>
      </trkpt>
      <trkpt lat="46.99474" lon="-0.97249">
        <ele>62</ele>
        <time>2012-05-03T13:31:08Z</time>
      </trkpt>
      <trkpt lat="46.99475" lon="-0.97244">
        <ele>61</ele>
        <time>2012-05-03T13:31:09Z</time>
      </trkpt>
      <trkpt lat="46.99477" lon="-0.9724">
        <ele>61</ele>
        <time>2012-05-03T13:31:10Z</time>
      </trkpt>
      <trkpt lat="46.99477" lon="-0.97234">
        <ele>61</ele>
        <time>2012-05-03T13:31:11Z</time>
      </trkpt>
      <trkpt lat="46.99478" lon="-0.9723">
        <ele>61</ele>
        <time>2012-05-03T13:31:12Z</time>
      </trkpt>
      <trkpt lat="46.99478" lon="-0.97225">
        <ele>61</ele>
        <time>2012-05-03T13:31:13Z</time>
      </trkpt>
      <trkpt lat="46.9948" lon="-0.97221">
        <ele>60</ele>
        <time>2012-05-03T13:31:14Z</time>
      </trkpt>
      <trkpt lat="46.9948" lon="-0.97217">
        <ele>60</ele>
        <time>2012-05-03T13:31:15Z</time>
      </trkpt>
      <trkpt lat="46.99481" lon="-0.97214">
        <ele>60</ele>
        <time>2012-05-03T13:31:17Z</time>
      </trkpt>
      <trkpt lat="46.99482" lon="-0.97211">
        <ele>60</ele>
        <time>2012-05-03T13:31:17Z</time>
      </trkpt>
      <trkpt lat="46.99483" lon="-0.97209">
        <ele>60</ele>
        <time>2012-05-03T13:31:18Z</time>
      </trkpt>
      <trkpt lat="46.99484" lon="-0.97208">
        <ele>60</ele>
        <time>2012-05-03T13:31:19Z</time>
      </trkpt>
      <trkpt lat="46.99485" lon="-0.97206">
        <ele>60</ele>
        <time>2012-05-03T13:31:20Z</time>
      </trkpt>
      <trkpt lat="46.99485" lon="-0.97204">
        <ele>60</ele>
        <time>2012-05-03T13:31:21Z</time>
      </trkpt>
      <trkpt lat="46.99485" lon="-0.97202">
        <ele>60</ele>
        <time>2012-05-03T13:31:22Z</time>
      </trkpt>
      <trkpt lat="46.99484" lon="-0.97199">
        <ele>60</ele>
        <time>2012-05-03T13:31:23Z</time>
      </trkpt>
      <trkpt lat="46.99483" lon="-0.97195">
        <ele>60</ele>
        <time>2012-05-03T13:31:24Z</time>
      </trkpt>
      <trkpt lat="46.99483" lon="-0.97191">
        <ele>60</ele>
        <time>2012-05-03T13:31:26Z</time>
      </trkpt>
      <trkpt lat="46.99482" lon="-0.97186">
        <ele>60</ele>
        <time>2012-05-03T13:31:26Z</time>
      </trkpt>
      <trkpt lat="46.99481" lon="-0.97181">
        <ele>60</ele>
        <time>2012-05-03T13:31:27Z</time>
      </trkpt>
      <trkpt lat="46.99481" lon="-0.97177">
        <ele>60</ele>
        <time>2012-05-03T13:31:28Z</time>
      </trkpt>
      <trkpt lat="46.99481" lon="-0.97171">
        <ele>60</ele>
        <time>2012-05-03T13:31:29Z</time>
      </trkpt>
      <trkpt lat="46.99481" lon="-0.97166">
        <ele>60</ele>
        <time>2012-05-03T13:31:30Z</time>
      </trkpt>
      <trkpt lat="46.99481" lon="-0.97161">
        <ele>60</ele>
        <time>2012-05-03T13:31:31Z</time>
      </trkpt>
      <trkpt lat="46.99481" lon="-0.97156">
        <ele>60</ele>
        <time>2012-05-03T13:31:32Z</time>
      </trkpt>
      <trkpt lat="46.99481" lon="-0.97152">
        <ele>60</ele>
        <time>2012-05-03T13:31:33Z</time>
      </trkpt>
      <trkpt lat="46.99481" lon="-0.97148">
        <ele>60</ele>
        <time>2012-05-03T13:31:34Z</time>
      </trkpt>
      <trkpt lat="46.99483" lon="-0.97143">
        <ele>60</ele>
        <time>2012-05-03T13:31:35Z</time>
      </trkpt>
      <trkpt lat="46.99485" lon="-0.97139">
        <ele>60</ele>
        <time>2012-05-03T13:31:36Z</time>
      </trkpt>
      <trkpt lat="46.99486" lon="-0.97135">
        <ele>60</ele>
        <time>2012-05-03T13:31:37Z</time>
      </trkpt>
      <trkpt lat="46.99487" lon="-0.97131">
        <ele>60</ele>
        <time>2012-05-03T13:31:38Z</time>
      </trkpt>
      <trkpt lat="46.99487" lon="-0.97126">
        <ele>60</ele>
        <time>2012-05-03T13:31:39Z</time>
      </trkpt>
      <trkpt lat="46.99487" lon="-0.97121">
        <ele>60</ele>
        <time>2012-05-03T13:31:40Z</time>
      </trkpt>
      <trkpt lat="46.99487" lon="-0.97115">
        <ele>60</ele>
        <time>2012-05-03T13:31:41Z</time>
      </trkpt>
      <trkpt lat="46.99487" lon="-0.97111">
        <ele>60</ele>
        <time>2012-05-03T13:31:42Z</time>
      </trkpt>
      <trkpt lat="46.99487" lon="-0.97106">
        <ele>60</ele>
        <time>2012-05-03T13:31:43Z</time>
      </trkpt>
      <trkpt lat="46.99488" lon="-0.97101">
        <ele>60</ele>
        <time>2012-05-03T13:31:44Z</time>
      </trkpt>
      <trkpt lat="46.99489" lon="-0.97097">
        <ele>60</ele>
        <time>2012-05-03T13:31:45Z</time>
      </trkpt>
      <trkpt lat="46.9949" lon="-0.97093">
        <ele>60</ele>
        <time>2012-05-03T13:31:46Z</time>
      </trkpt>
      <trkpt lat="46.9949" lon="-0.97088">
        <ele>60</ele>
        <time>2012-05-03T13:31:47Z</time>
      </trkpt>
      <trkpt lat="46.9949" lon="-0.97084">
        <ele>60</ele>
        <time>2012-05-03T13:31:48Z</time>
      </trkpt>
      <trkpt lat="46.99488" lon="-0.97079">
        <ele>60</ele>
        <time>2012-05-03T13:31:49Z</time>
      </trkpt>
      <trkpt lat="46.99487" lon="-0.97076">
        <ele>60</ele>
        <time>2012-05-03T13:31:50Z</time>
      </trkpt>
      <trkpt lat="46.99484" lon="-0.97075">
        <ele>60</ele>
        <time>2012-05-03T13:31:51Z</time>
      </trkpt>
      <trkpt lat="46.99482" lon="-0.97075">
        <ele>60</ele>
        <time>2012-05-03T13:31:52Z</time>
      </trkpt>
      <trkpt lat="46.99479" lon="-0.97076">
        <ele>60</ele>
        <time>2012-05-03T13:31:53Z</time>
      </trkpt>
      <trkpt lat="46.99476" lon="-0.97078">
        <ele>60</ele>
        <time>2012-05-03T13:31:54Z</time>
      </trkpt>
      <trkpt lat="46.99473" lon="-0.97079">
        <ele>60</ele>
        <time>2012-05-03T13:31:55Z</time>
      </trkpt>
      <trkpt lat="46.9947" lon="-0.97081">
        <ele>60</ele>
        <time>2012-05-03T13:31:56Z</time>
      </trkpt>
      <trkpt lat="46.99467" lon="-0.97083">
        <ele>60</ele>
        <time>2012-05-03T13:31:57Z</time>
      </trkpt>
      <trkpt lat="46.99466" lon="-0.97084">
        <ele>60</ele>
        <time>2012-05-03T13:31:58Z</time>
      </trkpt>
      <trkpt lat="46.99464" lon="-0.97085">
        <ele>60</ele>
        <time>2012-05-03T13:31:59Z</time>
      </trkpt>
      <trkpt lat="46.99463" lon="-0.97085">
        <ele>60</ele>
        <time>2012-05-03T13:32:00Z</time>
      </trkpt>
      <trkpt lat="46.99462" lon="-0.97086">
        <ele>60</ele>
        <time>2012-05-03T13:32:01Z</time>
      </trkpt>
      <trkpt lat="46.9946" lon="-0.97088">
        <ele>60</ele>
        <time>2012-05-03T13:32:03Z</time>
      </trkpt>
      <trkpt lat="46.99459" lon="-0.97089">
        <ele>60</ele>
        <time>2012-05-03T13:32:04Z</time>
      </trkpt>
      <trkpt lat="46.99457" lon="-0.97091">
        <ele>60</ele>
        <time>2012-05-03T13:32:05Z</time>
      </trkpt>
      <trkpt lat="46.99455" lon="-0.97092">
        <ele>60</ele>
        <time>2012-05-03T13:32:06Z</time>
      </trkpt>
      <trkpt lat="46.99454" lon="-0.97093">
        <ele>60</ele>
        <time>2012-05-03T13:32:07Z</time>
      </trkpt>
      <trkpt lat="46.99453" lon="-0.97094">
        <ele>60</ele>
        <time>2012-05-03T13:32:08Z</time>
      </trkpt>
      <trkpt lat="46.99451" lon="-0.97094">
        <ele>60</ele>
        <time>2012-05-03T13:32:09Z</time>
      </trkpt>
      <trkpt lat="46.99449" lon="-0.97093">
        <ele>60</ele>
        <time>2012-05-03T13:32:11Z</time>
      </trkpt>
      <trkpt lat="46.99448" lon="-0.97091">
        <ele>60</ele>
        <time>2012-05-03T13:32:12Z</time>
      </trkpt>
      <trkpt lat="46.99446" lon="-0.97089">
        <ele>60</ele>
        <time>2012-05-03T13:32:13Z</time>
      </trkpt>
      <trkpt lat="46.99445" lon="-0.97088">
        <ele>61</ele>
        <time>2012-05-03T13:32:14Z</time>
      </trkpt>
      <trkpt lat="46.99444" lon="-0.97086">
        <ele>63</ele>
        <time>2012-05-03T13:32:17Z</time>
      </trkpt>
      <trkpt lat="46.99445" lon="-0.97084">
        <ele>64</ele>
        <time>2012-05-03T13:32:18Z</time>
      </trkpt>
      <trkpt lat="46.99445" lon="-0.97082">
        <ele>65</ele>
        <time>2012-05-03T13:32:20Z</time>
      </trkpt>
      <trkpt lat="46.99444" lon="-0.9708">
        <ele>66</ele>
        <time>2012-05-03T13:32:22Z</time>
      </trkpt>
      <trkpt lat="46.99443" lon="-0.97078">
        <ele>67</ele>
        <time>2012-05-03T13:32:24Z</time>
      </trkpt>
      <trkpt lat="46.99443" lon="-0.97076">
        <ele>68</ele>
        <time>2012-05-03T13:32:25Z</time>
      </trkpt>
      <trkpt lat="46.99443" lon="-0.97075">
        <ele>68</ele>
        <time>2012-05-03T13:32:26Z</time>
      </trkpt>
      <trkpt lat="46.99443" lon="-0.97071">
        <ele>68</ele>
        <time>2012-05-03T13:32:27Z</time>
      </trkpt>
      <trkpt lat="46.99445" lon="-0.97067">
        <ele>68</ele>
        <time>2012-05-03T13:32:28Z</time>
      </trkpt>
      <trkpt lat="46.99446" lon="-0.97064">
        <ele>68</ele>
        <time>2012-05-03T13:32:29Z</time>
      </trkpt>
      <trkpt lat="46.99448" lon="-0.9706">
        <ele>68</ele>
        <time>2012-05-03T13:32:30Z</time>
      </trkpt>
      <trkpt lat="46.9945" lon="-0.97055">
        <ele>68</ele>
        <time>2012-05-03T13:32:31Z</time>
      </trkpt>
      <trkpt lat="46.99451" lon="-0.9705">
        <ele>69</ele>
        <time>2012-05-03T13:32:32Z</time>
      </trkpt>
      <trkpt lat="46.99453" lon="-0.97045">
        <ele>69</ele>
        <time>2012-05-03T13:32:33Z</time>
      </trkpt>
      <trkpt lat="46.99454" lon="-0.9704">
        <ele>70</ele>
        <time>2012-05-03T13:32:34Z</time>
      </trkpt>
      <trkpt lat="46.99455" lon="-0.97035">
        <ele>71</ele>
        <time>2012-05-03T13:32:35Z</time>
      </trkpt>
      <trkpt lat="46.99455" lon="-0.97031">
        <ele>72</ele>
        <time>2012-05-03T13:32:36Z</time>
      </trkpt>
      <trkpt lat="46.99455" lon="-0.97025">
        <ele>73</ele>
        <time>2012-05-03T13:32:37Z</time>
      </trkpt>
      <trkpt lat="46.99454" lon="-0.97021">
        <ele>74</ele>
        <time>2012-05-03T13:32:38Z</time>
      </trkpt>
      <trkpt lat="46.99453" lon="-0.97016">
        <ele>75</ele>
        <time>2012-05-03T13:32:39Z</time>
      </trkpt>
      <trkpt lat="46.99453" lon="-0.97011">
        <ele>76</ele>
        <time>2012-05-03T13:32:40Z</time>
      </trkpt>
      <trkpt lat="46.99453" lon="-0.97006">
        <ele>77</ele>
        <time>2012-05-03T13:32:41Z</time>
      </trkpt>
      <trkpt lat="46.99452" lon="-0.97002">
        <ele>78</ele>
        <time>2012-05-03T13:32:42Z</time>
      </trkpt>
      <trkpt lat="46.99451" lon="-0.96997">
        <ele>78</ele>
        <time>2012-05-03T13:32:43Z</time>
      </trkpt>
      <trkpt lat="46.99451" lon="-0.96992">
        <ele>79</ele>
        <time>2012-05-03T13:32:44Z</time>
      </trkpt>
      <trkpt lat="46.99451" lon="-0.96987">
        <ele>80</ele>
        <time>2012-05-03T13:32:45Z</time>
      </trkpt>
      <trkpt lat="46.99451" lon="-0.96983">
        <ele>81</ele>
        <time>2012-05-03T13:32:46Z</time>
      </trkpt>
      <trkpt lat="46.99451" lon="-0.96978">
        <ele>82</ele>
        <time>2012-05-03T13:32:47Z</time>
      </trkpt>
      <trkpt lat="46.99451" lon="-0.96973">
        <ele>83</ele>
        <time>2012-05-03T13:32:48Z</time>
      </trkpt>
      <trkpt lat="46.9945" lon="-0.96968">
        <ele>84</ele>
        <time>2012-05-03T13:32:49Z</time>
      </trkpt>
      <trkpt lat="46.9945" lon="-0.96963">
        <ele>84</ele>
        <time>2012-05-03T13:32:50Z</time>
      </trkpt>
      <trkpt lat="46.99449" lon="-0.96959">
        <ele>85</ele>
        <time>2012-05-03T13:32:51Z</time>
      </trkpt>
      <trkpt lat="46.99448" lon="-0.96955">
        <ele>85</ele>
        <time>2012-05-03T13:32:52Z</time>
      </trkpt>
      <trkpt lat="46.99448" lon="-0.96949">
        <ele>85</ele>
        <time>2012-05-03T13:32:53Z</time>
      </trkpt>
      <trkpt lat="46.99448" lon="-0.96944">
        <ele>85</ele>
        <time>2012-05-03T13:32:54Z</time>
      </trkpt>
      <trkpt lat="46.99446" lon="-0.96941">
        <ele>85</ele>
        <time>2012-05-03T13:32:55Z</time>
      </trkpt>
      <trkpt lat="46.99445" lon="-0.96937">
        <ele>85</ele>
        <time>2012-05-03T13:32:56Z</time>
      </trkpt>
      <trkpt lat="46.99446" lon="-0.96933">
        <ele>85</ele>
        <time>2012-05-03T13:32:57Z</time>
      </trkpt>
      <trkpt lat="46.99446" lon="-0.96929">
        <ele>85</ele>
        <time>2012-05-03T13:32:58Z</time>
      </trkpt>
      <trkpt lat="46.99447" lon="-0.96926">
        <ele>85</ele>
        <time>2012-05-03T13:32:59Z</time>
      </trkpt>
      <trkpt lat="46.99448" lon="-0.96925">
        <ele>85</ele>
        <time>2012-05-03T13:33:00Z</time>
      </trkpt>
      <trkpt lat="46.99449" lon="-0.96923">
        <ele>85</ele>
        <time>2012-05-03T13:33:01Z</time>
      </trkpt>
      <trkpt lat="46.9945" lon="-0.96922">
        <ele>84</ele>
        <time>2012-05-03T13:33:02Z</time>
      </trkpt>
      <trkpt lat="46.99451" lon="-0.9692">
        <ele>83</ele>
        <time>2012-05-03T13:33:03Z</time>
      </trkpt>
      <trkpt lat="46.99453" lon="-0.96918">
        <ele>82</ele>
        <time>2012-05-03T13:33:05Z</time>
      </trkpt>
      <trkpt lat="46.99454" lon="-0.96917">
        <ele>81</ele>
        <time>2012-05-03T13:33:06Z</time>
      </trkpt>
      <trkpt lat="46.99456" lon="-0.96915">
        <ele>79</ele>
        <time>2012-05-03T13:33:08Z</time>
      </trkpt>
      <trkpt lat="46.99457" lon="-0.96913">
        <ele>78</ele>
        <time>2012-05-03T13:33:09Z</time>
      </trkpt>
      <trkpt lat="46.99457" lon="-0.96911">
        <ele>77</ele>
        <time>2012-05-03T13:33:10Z</time>
      </trkpt>
      <trkpt lat="46.99458" lon="-0.96908">
        <ele>76</ele>
        <time>2012-05-03T13:33:11Z</time>
      </trkpt>
      <trkpt lat="46.9946" lon="-0.96905">
        <ele>75</ele>
        <time>2012-05-03T13:33:12Z</time>
      </trkpt>
      <trkpt lat="46.99461" lon="-0.96902">
        <ele>75</ele>
        <time>2012-05-03T13:33:13Z</time>
      </trkpt>
      <trkpt lat="46.99462" lon="-0.96899">
        <ele>74</ele>
        <time>2012-05-03T13:33:14Z</time>
      </trkpt>
      <trkpt lat="46.99463" lon="-0.96896">
        <ele>74</ele>
        <time>2012-05-03T13:33:15Z</time>
      </trkpt>
      <trkpt lat="46.99465" lon="-0.96893">
        <ele>73</ele>
        <time>2012-05-03T13:33:17Z</time>
      </trkpt>
      <trkpt lat="46.99466" lon="-0.96889">
        <ele>73</ele>
        <time>2012-05-03T13:33:17Z</time>
      </trkpt>
      <trkpt lat="46.99468" lon="-0.96885">
        <ele>72</ele>
        <time>2012-05-03T13:33:18Z</time>
      </trkpt>
      <trkpt lat="46.9947" lon="-0.96882">
        <ele>72</ele>
        <time>2012-05-03T13:33:19Z</time>
      </trkpt>
      <trkpt lat="46.99472" lon="-0.96877">
        <ele>71</ele>
        <time>2012-05-03T13:33:20Z</time>
      </trkpt>
      <trkpt lat="46.99474" lon="-0.96874">
        <ele>71</ele>
        <time>2012-05-03T13:33:21Z</time>
      </trkpt>
      <trkpt lat="46.99477" lon="-0.96872">
        <ele>71</ele>
        <time>2012-05-03T13:33:22Z</time>
      </trkpt>
      <trkpt lat="46.99479" lon="-0.9687">
        <ele>71</ele>
        <time>2012-05-03T13:33:23Z</time>
      </trkpt>
      <trkpt lat="46.9948" lon="-0.96868">
        <ele>71</ele>
        <time>2012-05-03T13:33:24Z</time>
      </trkpt>
      <trkpt lat="46.99481" lon="-0.96867">
        <ele>71</ele>
        <time>2012-05-03T13:33:25Z</time>
      </trkpt>
      <trkpt lat="46.99483" lon="-0.96864">
        <ele>71</ele>
        <time>2012-05-03T13:33:26Z</time>
      </trkpt>
      <trkpt lat="46.99485" lon="-0.96861">
        <ele>71</ele>
        <time>2012-05-03T13:33:27Z</time>
      </trkpt>
      <trkpt lat="46.99488" lon="-0.96857">
        <ele>71</ele>
        <time>2012-05-03T13:33:28Z</time>
      </trkpt>
      <trkpt lat="46.9949" lon="-0.96853">
        <ele>71</ele>
        <time>2012-05-03T13:33:29Z</time>
      </trkpt>
      <trkpt lat="46.99492" lon="-0.96848">
        <ele>71</ele>
        <time>2012-05-03T13:33:30Z</time>
      </trkpt>
      <trkpt lat="46.99493" lon="-0.96843">
        <ele>71</ele>
        <time>2012-05-03T13:33:31Z</time>
      </trkpt>
      <trkpt lat="46.99495" lon="-0.96839">
        <ele>71</ele>
        <time>2012-05-03T13:33:32Z</time>
      </trkpt>
      <trkpt lat="46.99498" lon="-0.96836">
        <ele>71</ele>
        <time>2012-05-03T13:33:33Z</time>
      </trkpt>
      <trkpt lat="46.99501" lon="-0.96832">
        <ele>71</ele>
        <time>2012-05-03T13:33:34Z</time>
      </trkpt>
      <trkpt lat="46.99504" lon="-0.9683">
        <ele>71</ele>
        <time>2012-05-03T13:33:35Z</time>
      </trkpt>
      <trkpt lat="46.99507" lon="-0.96827">
        <ele>71</ele>
        <time>2012-05-03T13:33:36Z</time>
      </trkpt>
      <trkpt lat="46.9951" lon="-0.96824">
        <ele>71</ele>
        <time>2012-05-03T13:33:37Z</time>
      </trkpt>
      <trkpt lat="46.99513" lon="-0.96821">
        <ele>71</ele>
        <time>2012-05-03T13:33:38Z</time>
      </trkpt>
      <trkpt lat="46.99515" lon="-0.96817">
        <ele>70</ele>
        <time>2012-05-03T13:33:39Z</time>
      </trkpt>
      <trkpt lat="46.99518" lon="-0.96813">
        <ele>69</ele>
        <time>2012-05-03T13:33:40Z</time>
      </trkpt>
      <trkpt lat="46.9952" lon="-0.9681">
        <ele>69</ele>
        <time>2012-05-03T13:33:41Z</time>
      </trkpt>
      <trkpt lat="46.99522" lon="-0.96806">
        <ele>68</ele>
        <time>2012-05-03T13:33:42Z</time>
      </trkpt>
      <trkpt lat="46.99525" lon="-0.96802">
        <ele>67</ele>
        <time>2012-05-03T13:33:43Z</time>
      </trkpt>
      <trkpt lat="46.99528" lon="-0.96798">
        <ele>67</ele>
        <time>2012-05-03T13:33:44Z</time>
      </trkpt>
      <trkpt lat="46.9953" lon="-0.96793">
        <ele>67</ele>
        <time>2012-05-03T13:33:45Z</time>
      </trkpt>
      <trkpt lat="46.99533" lon="-0.96789">
        <ele>67</ele>
        <time>2012-05-03T13:33:46Z</time>
      </trkpt>
      <trkpt lat="46.99535" lon="-0.96784">
        <ele>66</ele>
        <time>2012-05-03T13:33:47Z</time>
      </trkpt>
      <trkpt lat="46.99537" lon="-0.96779">
        <ele>66</ele>
        <time>2012-05-03T13:33:48Z</time>
      </trkpt>
      <trkpt lat="46.99539" lon="-0.96774">
        <ele>66</ele>
        <time>2012-05-03T13:33:49Z</time>
      </trkpt>
      <trkpt lat="46.9954" lon="-0.96768">
        <ele>66</ele>
        <time>2012-05-03T13:33:50Z</time>
      </trkpt>
      <trkpt lat="46.99541" lon="-0.96763">
        <ele>65</ele>
        <time>2012-05-03T13:33:51Z</time>
      </trkpt>
      <trkpt lat="46.99542" lon="-0.96757">
        <ele>65</ele>
        <time>2012-05-03T13:33:52Z</time>
      </trkpt>
      <trkpt lat="46.99543" lon="-0.96751">
        <ele>65</ele>
        <time>2012-05-03T13:33:53Z</time>
      </trkpt>
      <trkpt lat="46.99545" lon="-0.96745">
        <ele>65</ele>
        <time>2012-05-03T13:33:54Z</time>
      </trkpt>
      <trkpt lat="46.99545" lon="-0.96739">
        <ele>65</ele>
        <time>2012-05-03T13:33:55Z</time>
      </trkpt>
      <trkpt lat="46.99545" lon="-0.96733">
        <ele>65</ele>
        <time>2012-05-03T13:33:56Z</time>
      </trkpt>
      <trkpt lat="46.99544" lon="-0.96727">
        <ele>65</ele>
        <time>2012-05-03T13:33:57Z</time>
      </trkpt>
      <trkpt lat="46.99543" lon="-0.9672">
        <ele>65</ele>
        <time>2012-05-03T13:33:58Z</time>
      </trkpt>
      <trkpt lat="46.99542" lon="-0.96714">
        <ele>65</ele>
        <time>2012-05-03T13:33:59Z</time>
      </trkpt>
      <trkpt lat="46.99541" lon="-0.96708">
        <ele>65</ele>
        <time>2012-05-03T13:34:00Z</time>
      </trkpt>
      <trkpt lat="46.9954" lon="-0.96702">
        <ele>65</ele>
        <time>2012-05-03T13:34:01Z</time>
      </trkpt>
      <trkpt lat="46.9954" lon="-0.96696">
        <ele>65</ele>
        <time>2012-05-03T13:34:02Z</time>
      </trkpt>
      <trkpt lat="46.9954" lon="-0.9669">
        <ele>65</ele>
        <time>2012-05-03T13:34:03Z</time>
      </trkpt>
      <trkpt lat="46.9954" lon="-0.96684">
        <ele>65</ele>
        <time>2012-05-03T13:34:04Z</time>
      </trkpt>
      <trkpt lat="46.99539" lon="-0.96678">
        <ele>65</ele>
        <time>2012-05-03T13:34:05Z</time>
      </trkpt>
      <trkpt lat="46.99539" lon="-0.96672">
        <ele>65</ele>
        <time>2012-05-03T13:34:06Z</time>
      </trkpt>
      <trkpt lat="46.99539" lon="-0.96666">
        <ele>65</ele>
        <time>2012-05-03T13:34:07Z</time>
      </trkpt>
      <trkpt lat="46.99539" lon="-0.96659">
        <ele>65</ele>
        <time>2012-05-03T13:34:08Z</time>
      </trkpt>
      <trkpt lat="46.9954" lon="-0.96653">
        <ele>66</ele>
        <time>2012-05-03T13:34:09Z</time>
      </trkpt>
      <trkpt lat="46.9954" lon="-0.96646">
        <ele>66</ele>
        <time>2012-05-03T13:34:10Z</time>
      </trkpt>
      <trkpt lat="46.9954" lon="-0.9664">
        <ele>67</ele>
        <time>2012-05-03T13:34:11Z</time>
      </trkpt>
      <trkpt lat="46.99539" lon="-0.96633">
        <ele>67</ele>
        <time>2012-05-03T13:34:12Z</time>
      </trkpt>
      <trkpt lat="46.99538" lon="-0.96627">
        <ele>68</ele>
        <time>2012-05-03T13:34:13Z</time>
      </trkpt>
      <trkpt lat="46.99537" lon="-0.96621">
        <ele>68</ele>
        <time>2012-05-03T13:34:14Z</time>
      </trkpt>
      <trkpt lat="46.99536" lon="-0.96614">
        <ele>69</ele>
        <time>2012-05-03T13:34:15Z</time>
      </trkpt>
      <trkpt lat="46.99535" lon="-0.96608">
        <ele>69</ele>
        <time>2012-05-03T13:34:17Z</time>
      </trkpt>
      <trkpt lat="46.99534" lon="-0.96605">
        <ele>69</ele>
        <time>2012-05-03T13:34:17Z</time>
      </trkpt>
      <trkpt lat="46.99533" lon="-0.96601">
        <ele>69</ele>
        <time>2012-05-03T13:34:18Z</time>
      </trkpt>
      <trkpt lat="46.99531" lon="-0.96598">
        <ele>69</ele>
        <time>2012-05-03T13:34:19Z</time>
      </trkpt>
      <trkpt lat="46.99529" lon="-0.96595">
        <ele>69</ele>
        <time>2012-05-03T13:34:20Z</time>
      </trkpt>
      <trkpt lat="46.99527" lon="-0.96591">
        <ele>69</ele>
        <time>2012-05-03T13:34:21Z</time>
      </trkpt>
      <trkpt lat="46.99523" lon="-0.96587">
        <ele>69</ele>
        <time>2012-05-03T13:34:22Z</time>
      </trkpt>
      <trkpt lat="46.99519" lon="-0.96584">
        <ele>69</ele>
        <time>2012-05-03T13:34:23Z</time>
      </trkpt>
      <trkpt lat="46.99516" lon="-0.96581">
        <ele>69</ele>
        <time>2012-05-03T13:34:24Z</time>
      </trkpt>
      <trkpt lat="46.99513" lon="-0.9658">
        <ele>69</ele>
        <time>2012-05-03T13:34:25Z</time>
      </trkpt>
      <trkpt lat="46.99509" lon="-0.96579">
        <ele>69</ele>
        <time>2012-05-03T13:34:26Z</time>
      </trkpt>
      <trkpt lat="46.99508" lon="-0.96576">
        <ele>69</ele>
        <time>2012-05-03T13:34:27Z</time>
      </trkpt>
      <trkpt lat="46.99505" lon="-0.96575">
        <ele>69</ele>
        <time>2012-05-03T13:34:28Z</time>
      </trkpt>
      <trkpt lat="46.99502" lon="-0.96573">
        <ele>69</ele>
        <time>2012-05-03T13:34:29Z</time>
      </trkpt>
      <trkpt lat="46.99498" lon="-0.96571">
        <ele>70</ele>
        <time>2012-05-03T13:34:30Z</time>
      </trkpt>
      <trkpt lat="46.99496" lon="-0.9657">
        <ele>71</ele>
        <time>2012-05-03T13:34:31Z</time>
      </trkpt>
      <trkpt lat="46.99492" lon="-0.96568">
        <ele>72</ele>
        <time>2012-05-03T13:34:32Z</time>
      </trkpt>
      <trkpt lat="46.9949" lon="-0.96567">
        <ele>73</ele>
        <time>2012-05-03T13:34:33Z</time>
      </trkpt>
      <trkpt lat="46.99488" lon="-0.96566">
        <ele>74</ele>
        <time>2012-05-03T13:34:34Z</time>
      </trkpt>
      <trkpt lat="46.99485" lon="-0.96565">
        <ele>74</ele>
        <time>2012-05-03T13:34:35Z</time>
      </trkpt>
      <trkpt lat="46.99483" lon="-0.96563">
        <ele>74</ele>
        <time>2012-05-03T13:34:36Z</time>
      </trkpt>
      <trkpt lat="46.99481" lon="-0.96561">
        <ele>74</ele>
        <time>2012-05-03T13:34:37Z</time>
      </trkpt>
      <trkpt lat="46.99479" lon="-0.9656">
        <ele>74</ele>
        <time>2012-05-03T13:34:38Z</time>
      </trkpt>
      <trkpt lat="46.99477" lon="-0.96557">
        <ele>74</ele>
        <time>2012-05-03T13:34:39Z</time>
      </trkpt>
      <trkpt lat="46.99474" lon="-0.96553">
        <ele>74</ele>
        <time>2012-05-03T13:34:40Z</time>
      </trkpt>
      <trkpt lat="46.99472" lon="-0.96549">
        <ele>74</ele>
        <time>2012-05-03T13:34:41Z</time>
      </trkpt>
      <trkpt lat="46.99469" lon="-0.96545">
        <ele>74</ele>
        <time>2012-05-03T13:34:42Z</time>
      </trkpt>
      <trkpt lat="46.99467" lon="-0.9654">
        <ele>74</ele>
        <time>2012-05-03T13:34:43Z</time>
      </trkpt>
      <trkpt lat="46.99466" lon="-0.96537">
        <ele>74</ele>
        <time>2012-05-03T13:34:44Z</time>
      </trkpt>
      <trkpt lat="46.99464" lon="-0.96535">
        <ele>74</ele>
        <time>2012-05-03T13:34:45Z</time>
      </trkpt>
      <trkpt lat="46.99463" lon="-0.96533">
        <ele>74</ele>
        <time>2012-05-03T13:34:46Z</time>
      </trkpt>
      <trkpt lat="46.99461" lon="-0.9653">
        <ele>74</ele>
        <time>2012-05-03T13:34:47Z</time>
      </trkpt>
      <trkpt lat="46.99458" lon="-0.96528">
        <ele>74</ele>
        <time>2012-05-03T13:34:48Z</time>
      </trkpt>
      <trkpt lat="46.99456" lon="-0.96525">
        <ele>74</ele>
        <time>2012-05-03T13:34:49Z</time>
      </trkpt>
      <trkpt lat="46.99453" lon="-0.96523">
        <ele>74</ele>
        <time>2012-05-03T13:34:50Z</time>
      </trkpt>
      <trkpt lat="46.9945" lon="-0.96521">
        <ele>74</ele>
        <time>2012-05-03T13:34:51Z</time>
      </trkpt>
      <trkpt lat="46.99446" lon="-0.96519">
        <ele>73</ele>
        <time>2012-05-03T13:34:52Z</time>
      </trkpt>
      <trkpt lat="46.99444" lon="-0.96518">
        <ele>73</ele>
        <time>2012-05-03T13:34:53Z</time>
      </trkpt>
      <trkpt lat="46.99442" lon="-0.96516">
        <ele>73</ele>
        <time>2012-05-03T13:34:54Z</time>
      </trkpt>
      <trkpt lat="46.9944" lon="-0.96514">
        <ele>73</ele>
        <time>2012-05-03T13:34:55Z</time>
      </trkpt>
      <trkpt lat="46.99437" lon="-0.96512">
        <ele>72</ele>
        <time>2012-05-03T13:34:56Z</time>
      </trkpt>
      <trkpt lat="46.99435" lon="-0.96509">
        <ele>72</ele>
        <time>2012-05-03T13:34:57Z</time>
      </trkpt>
      <trkpt lat="46.99434" lon="-0.96506">
        <ele>72</ele>
        <time>2012-05-03T13:34:58Z</time>
      </trkpt>
      <trkpt lat="46.99431" lon="-0.96503">
        <ele>72</ele>
        <time>2012-05-03T13:34:59Z</time>
      </trkpt>
      <trkpt lat="46.99429" lon="-0.96501">
        <ele>72</ele>
        <time>2012-05-03T13:35:00Z</time>
      </trkpt>
      <trkpt lat="46.99427" lon="-0.96499">
        <ele>72</ele>
        <time>2012-05-03T13:35:01Z</time>
      </trkpt>
      <trkpt lat="46.99426" lon="-0.96497">
        <ele>72</ele>
        <time>2012-05-03T13:35:02Z</time>
      </trkpt>
      <trkpt lat="46.99425" lon="-0.96496">
        <ele>72</ele>
        <time>2012-05-03T13:35:03Z</time>
      </trkpt>
      <trkpt lat="46.99425" lon="-0.96494">
        <ele>72</ele>
        <time>2012-05-03T13:35:04Z</time>
      </trkpt>
      <trkpt lat="46.99423" lon="-0.96492">
        <ele>72</ele>
        <time>2012-05-03T13:35:05Z</time>
      </trkpt>
      <trkpt lat="46.99421" lon="-0.9649">
        <ele>72</ele>
        <time>2012-05-03T13:35:07Z</time>
      </trkpt>
      <trkpt lat="46.99421" lon="-0.96487">
        <ele>72</ele>
        <time>2012-05-03T13:35:08Z</time>
      </trkpt>
      <trkpt lat="46.99421" lon="-0.96484">
        <ele>72</ele>
        <time>2012-05-03T13:35:09Z</time>
      </trkpt>
      <trkpt lat="46.99421" lon="-0.96482">
        <ele>72</ele>
        <time>2012-05-03T13:35:10Z</time>
      </trkpt>
      <trkpt lat="46.99421" lon="-0.96479">
        <ele>72</ele>
        <time>2012-05-03T13:35:11Z</time>
      </trkpt>
      <trkpt lat="46.9942" lon="-0.96477">
        <ele>72</ele>
        <time>2012-05-03T13:35:12Z</time>
      </trkpt>
      <trkpt lat="46.9942" lon="-0.96474">
        <ele>73</ele>
        <time>2012-05-03T13:35:13Z</time>
      </trkpt>
      <trkpt lat="46.99418" lon="-0.96473">
        <ele>73</ele>
        <time>2012-05-03T13:35:14Z</time>
      </trkpt>
      <trkpt lat="46.99418" lon="-0.96469">
        <ele>73</ele>
        <time>2012-05-03T13:35:15Z</time>
      </trkpt>
      <trkpt lat="46.99417" lon="-0.96466">
        <ele>74</ele>
        <time>2012-05-03T13:35:17Z</time>
      </trkpt>
      <trkpt lat="46.99415" lon="-0.96461">
        <ele>74</ele>
        <time>2012-05-03T13:35:17Z</time>
      </trkpt>
      <trkpt lat="46.99413" lon="-0.96458">
        <ele>74</ele>
        <time>2012-05-03T13:35:18Z</time>
      </trkpt>
      <trkpt lat="46.9941" lon="-0.96453">
        <ele>74</ele>
        <time>2012-05-03T13:35:19Z</time>
      </trkpt>
      <trkpt lat="46.99407" lon="-0.9645">
        <ele>74</ele>
        <time>2012-05-03T13:35:20Z</time>
      </trkpt>
      <trkpt lat="46.99404" lon="-0.96448">
        <ele>74</ele>
        <time>2012-05-03T13:35:21Z</time>
      </trkpt>
      <trkpt lat="46.99403" lon="-0.96446">
        <ele>74</ele>
        <time>2012-05-03T13:35:22Z</time>
      </trkpt>
      <trkpt lat="46.99401" lon="-0.96443">
        <ele>74</ele>
        <time>2012-05-03T13:35:23Z</time>
      </trkpt>
      <trkpt lat="46.99399" lon="-0.96441">
        <ele>74</ele>
        <time>2012-05-03T13:35:24Z</time>
      </trkpt>
      <trkpt lat="46.99399" lon="-0.96437">
        <ele>74</ele>
        <time>2012-05-03T13:35:25Z</time>
      </trkpt>
      <trkpt lat="46.99398" lon="-0.96433">
        <ele>74</ele>
        <time>2012-05-03T13:35:26Z</time>
      </trkpt>
      <trkpt lat="46.99398" lon="-0.96429">
        <ele>74</ele>
        <time>2012-05-03T13:35:27Z</time>
      </trkpt>
      <trkpt lat="46.99397" lon="-0.96426">
        <ele>74</ele>
        <time>2012-05-03T13:35:28Z</time>
      </trkpt>
      <trkpt lat="46.99396" lon="-0.96425">
        <ele>75</ele>
        <time>2012-05-03T13:35:29Z</time>
      </trkpt>
      <trkpt lat="46.99396" lon="-0.96423">
        <ele>76</ele>
        <time>2012-05-03T13:35:30Z</time>
      </trkpt>
      <trkpt lat="46.99394" lon="-0.96421">
        <ele>77</ele>
        <time>2012-05-03T13:35:31Z</time>
      </trkpt>
      <trkpt lat="46.99392" lon="-0.96419">
        <ele>78</ele>
        <time>2012-05-03T13:35:32Z</time>
      </trkpt>
      <trkpt lat="46.99389" lon="-0.96417">
        <ele>78</ele>
        <time>2012-05-03T13:35:33Z</time>
      </trkpt>
      <trkpt lat="46.99388" lon="-0.96414">
        <ele>79</ele>
        <time>2012-05-03T13:35:34Z</time>
      </trkpt>
      <trkpt lat="46.99389" lon="-0.96411">
        <ele>79</ele>
        <time>2012-05-03T13:35:35Z</time>
      </trkpt>
      <trkpt lat="46.99389" lon="-0.96406">
        <ele>79</ele>
        <time>2012-05-03T13:35:36Z</time>
      </trkpt>
      <trkpt lat="46.99389" lon="-0.96402">
        <ele>79</ele>
        <time>2012-05-03T13:35:37Z</time>
      </trkpt>
      <trkpt lat="46.99388" lon="-0.96399">
        <ele>79</ele>
        <time>2012-05-03T13:35:38Z</time>
      </trkpt>
      <trkpt lat="46.99388" lon="-0.96395">
        <ele>79</ele>
        <time>2012-05-03T13:35:39Z</time>
      </trkpt>
      <trkpt lat="46.99387" lon="-0.96392">
        <ele>79</ele>
        <time>2012-05-03T13:35:40Z</time>
      </trkpt>
      <trkpt lat="46.99385" lon="-0.96389">
        <ele>79</ele>
        <time>2012-05-03T13:35:42Z</time>
      </trkpt>
      <trkpt lat="46.99383" lon="-0.96386">
        <ele>79</ele>
        <time>2012-05-03T13:35:42Z</time>
      </trkpt>
      <trkpt lat="46.99382" lon="-0.96383">
        <ele>80</ele>
        <time>2012-05-03T13:35:43Z</time>
      </trkpt>
      <trkpt lat="46.9938" lon="-0.9638">
        <ele>80</ele>
        <time>2012-05-03T13:35:44Z</time>
      </trkpt>
      <trkpt lat="46.99379" lon="-0.96376">
        <ele>81</ele>
        <time>2012-05-03T13:35:45Z</time>
      </trkpt>
      <trkpt lat="46.99377" lon="-0.96373">
        <ele>81</ele>
        <time>2012-05-03T13:35:46Z</time>
      </trkpt>
      <trkpt lat="46.99376" lon="-0.96369">
        <ele>81</ele>
        <time>2012-05-03T13:35:47Z</time>
      </trkpt>
      <trkpt lat="46.99374" lon="-0.96365">
        <ele>81</ele>
        <time>2012-05-03T13:35:48Z</time>
      </trkpt>
      <trkpt lat="46.99373" lon="-0.96361">
        <ele>82</ele>
        <time>2012-05-03T13:35:49Z</time>
      </trkpt>
      <trkpt lat="46.99371" lon="-0.96355">
        <ele>82</ele>
        <time>2012-05-03T13:35:50Z</time>
      </trkpt>
      <trkpt lat="46.99369" lon="-0.9635">
        <ele>82</ele>
        <time>2012-05-03T13:35:51Z</time>
      </trkpt>
      <trkpt lat="46.99367" lon="-0.96346">
        <ele>83</ele>
        <time>2012-05-03T13:35:52Z</time>
      </trkpt>
      <trkpt lat="46.99366" lon="-0.96342">
        <ele>83</ele>
        <time>2012-05-03T13:35:53Z</time>
      </trkpt>
      <trkpt lat="46.99364" lon="-0.96338">
        <ele>83</ele>
        <time>2012-05-03T13:35:54Z</time>
      </trkpt>
      <trkpt lat="46.99362" lon="-0.96334">
        <ele>83</ele>
        <time>2012-05-03T13:35:55Z</time>
      </trkpt>
      <trkpt lat="46.99358" lon="-0.9633">
        <ele>83</ele>
        <time>2012-05-03T13:35:56Z</time>
      </trkpt>
      <trkpt lat="46.99356" lon="-0.96326">
        <ele>83</ele>
        <time>2012-05-03T13:35:57Z</time>
      </trkpt>
      <trkpt lat="46.99354" lon="-0.96321">
        <ele>83</ele>
        <time>2012-05-03T13:35:58Z</time>
      </trkpt>
      <trkpt lat="46.99353" lon="-0.96316">
        <ele>82</ele>
        <time>2012-05-03T13:35:59Z</time>
      </trkpt>
      <trkpt lat="46.99351" lon="-0.96311">
        <ele>81</ele>
        <time>2012-05-03T13:36:00Z</time>
      </trkpt>
      <trkpt lat="46.9935" lon="-0.96307">
        <ele>80</ele>
        <time>2012-05-03T13:36:01Z</time>
      </trkpt>
      <trkpt lat="46.99348" lon="-0.96304">
        <ele>79</ele>
        <time>2012-05-03T13:36:02Z</time>
      </trkpt>
      <trkpt lat="46.99346" lon="-0.96302">
        <ele>79</ele>
        <time>2012-05-03T13:36:03Z</time>
      </trkpt>
      <trkpt lat="46.99344" lon="-0.963">
        <ele>78</ele>
        <time>2012-05-03T13:36:04Z</time>
      </trkpt>
      <trkpt lat="46.99342" lon="-0.96298">
        <ele>78</ele>
        <time>2012-05-03T13:36:05Z</time>
      </trkpt>
      <trkpt lat="46.9934" lon="-0.96295">
        <ele>78</ele>
        <time>2012-05-03T13:36:06Z</time>
      </trkpt>
      <trkpt lat="46.99339" lon="-0.96291">
        <ele>78</ele>
        <time>2012-05-03T13:36:07Z</time>
      </trkpt>
      <trkpt lat="46.99337" lon="-0.96289">
        <ele>78</ele>
        <time>2012-05-03T13:36:08Z</time>
      </trkpt>
      <trkpt lat="46.99336" lon="-0.96286">
        <ele>78</ele>
        <time>2012-05-03T13:36:09Z</time>
      </trkpt>
      <trkpt lat="46.99334" lon="-0.96284">
        <ele>78</ele>
        <time>2012-05-03T13:36:10Z</time>
      </trkpt>
      <trkpt lat="46.99332" lon="-0.96282">
        <ele>78</ele>
        <time>2012-05-03T13:36:11Z</time>
      </trkpt>
      <trkpt lat="46.99329" lon="-0.9628">
        <ele>78</ele>
        <time>2012-05-03T13:36:12Z</time>
      </trkpt>
      <trkpt lat="46.99326" lon="-0.96277">
        <ele>78</ele>
        <time>2012-05-03T13:36:13Z</time>
      </trkpt>
      <trkpt lat="46.99323" lon="-0.96275">
        <ele>78</ele>
        <time>2012-05-03T13:36:14Z</time>
      </trkpt>
      <trkpt lat="46.9932" lon="-0.96273">
        <ele>78</ele>
        <time>2012-05-03T13:36:15Z</time>
      </trkpt>
      <trkpt lat="46.99317" lon="-0.96271">
        <ele>78</ele>
        <time>2012-05-03T13:36:17Z</time>
      </trkpt>
      <trkpt lat="46.99314" lon="-0.96269">
        <ele>78</ele>
        <time>2012-05-03T13:36:17Z</time>
      </trkpt>
      <trkpt lat="46.99311" lon="-0.96267">
        <ele>78</ele>
        <time>2012-05-03T13:36:18Z</time>
      </trkpt>
      <trkpt lat="46.99309" lon="-0.96264">
        <ele>78</ele>
        <time>2012-05-03T13:36:19Z</time>
      </trkpt>
      <trkpt lat="46.99306" lon="-0.9626">
        <ele>78</ele>
        <time>2012-05-03T13:36:20Z</time>
      </trkpt>
      <trkpt lat="46.99303" lon="-0.96257">
        <ele>78</ele>
        <time>2012-05-03T13:36:21Z</time>
      </trkpt>
      <trkpt lat="46.99301" lon="-0.96253">
        <ele>78</ele>
        <time>2012-05-03T13:36:22Z</time>
      </trkpt>
      <trkpt lat="46.99298" lon="-0.9625">
        <ele>78</ele>
        <time>2012-05-03T13:36:23Z</time>
      </trkpt>
      <trkpt lat="46.99296" lon="-0.96245">
        <ele>78</ele>
        <time>2012-05-03T13:36:24Z</time>
      </trkpt>
      <trkpt lat="46.99294" lon="-0.96241">
        <ele>78</ele>
        <time>2012-05-03T13:36:25Z</time>
      </trkpt>
      <trkpt lat="46.99292" lon="-0.96237">
        <ele>78</ele>
        <time>2012-05-03T13:36:26Z</time>
      </trkpt>
      <trkpt lat="46.9929" lon="-0.96232">
        <ele>78</ele>
        <time>2012-05-03T13:36:27Z</time>
      </trkpt>
      <trkpt lat="46.99287" lon="-0.96228">
        <ele>78</ele>
        <time>2012-05-03T13:36:28Z</time>
      </trkpt>
      <trkpt lat="46.99284" lon="-0.96223">
        <ele>78</ele>
        <time>2012-05-03T13:36:29Z</time>
      </trkpt>
      <trkpt lat="46.99282" lon="-0.96218">
        <ele>78</ele>
        <time>2012-05-03T13:36:30Z</time>
      </trkpt>
      <trkpt lat="46.99281" lon="-0.96213">
        <ele>78</ele>
        <time>2012-05-03T13:36:31Z</time>
      </trkpt>
      <trkpt lat="46.99279" lon="-0.96207">
        <ele>78</ele>
        <time>2012-05-03T13:36:32Z</time>
      </trkpt>
      <trkpt lat="46.99276" lon="-0.96204">
        <ele>78</ele>
        <time>2012-05-03T13:36:33Z</time>
      </trkpt>
      <trkpt lat="46.99274" lon="-0.96201">
        <ele>78</ele>
        <time>2012-05-03T13:36:34Z</time>
      </trkpt>
      <trkpt lat="46.99273" lon="-0.96199">
        <ele>78</ele>
        <time>2012-05-03T13:36:35Z</time>
      </trkpt>
      <trkpt lat="46.99271" lon="-0.96197">
        <ele>78</ele>
        <time>2012-05-03T13:36:36Z</time>
      </trkpt>
      <trkpt lat="46.9927" lon="-0.96194">
        <ele>78</ele>
        <time>2012-05-03T13:36:37Z</time>
      </trkpt>
      <trkpt lat="46.99268" lon="-0.96191">
        <ele>78</ele>
        <time>2012-05-03T13:36:38Z</time>
      </trkpt>
      <trkpt lat="46.99266" lon="-0.96188">
        <ele>78</ele>
        <time>2012-05-03T13:36:39Z</time>
      </trkpt>
      <trkpt lat="46.99263" lon="-0.96185">
        <ele>78</ele>
        <time>2012-05-03T13:36:40Z</time>
      </trkpt>
      <trkpt lat="46.99261" lon="-0.96182">
        <ele>78</ele>
        <time>2012-05-03T13:36:41Z</time>
      </trkpt>
      <trkpt lat="46.99258" lon="-0.96178">
        <ele>78</ele>
        <time>2012-05-03T13:36:42Z</time>
      </trkpt>
      <trkpt lat="46.99257" lon="-0.96174">
        <ele>78</ele>
        <time>2012-05-03T13:36:43Z</time>
      </trkpt>
      <trkpt lat="46.99255" lon="-0.96171">
        <ele>78</ele>
        <time>2012-05-03T13:36:44Z</time>
      </trkpt>
      <trkpt lat="46.99253" lon="-0.96168">
        <ele>78</ele>
        <time>2012-05-03T13:36:45Z</time>
      </trkpt>
      <trkpt lat="46.99251" lon="-0.96164">
        <ele>78</ele>
        <time>2012-05-03T13:36:46Z</time>
      </trkpt>
      <trkpt lat="46.9925" lon="-0.96159">
        <ele>78</ele>
        <time>2012-05-03T13:36:47Z</time>
      </trkpt>
      <trkpt lat="46.99247" lon="-0.96157">
        <ele>78</ele>
        <time>2012-05-03T13:36:48Z</time>
      </trkpt>
      <trkpt lat="46.99246" lon="-0.96155">
        <ele>78</ele>
        <time>2012-05-03T13:36:49Z</time>
      </trkpt>
      <trkpt lat="46.99244" lon="-0.96153">
        <ele>78</ele>
        <time>2012-05-03T13:36:50Z</time>
      </trkpt>
      <trkpt lat="46.99243" lon="-0.96151">
        <ele>78</ele>
        <time>2012-05-03T13:36:51Z</time>
      </trkpt>
      <trkpt lat="46.99243" lon="-0.96148">
        <ele>78</ele>
        <time>2012-05-03T13:36:52Z</time>
      </trkpt>
      <trkpt lat="46.99241" lon="-0.96143">
        <ele>78</ele>
        <time>2012-05-03T13:36:53Z</time>
      </trkpt>
      <trkpt lat="46.99239" lon="-0.96137">
        <ele>78</ele>
        <time>2012-05-03T13:36:54Z</time>
      </trkpt>
      <trkpt lat="46.99236" lon="-0.96133">
        <ele>78</ele>
        <time>2012-05-03T13:36:55Z</time>
      </trkpt>
      <trkpt lat="46.99234" lon="-0.96128">
        <ele>78</ele>
        <time>2012-05-03T13:36:56Z</time>
      </trkpt>
      <trkpt lat="46.99231" lon="-0.96125">
        <ele>78</ele>
        <time>2012-05-03T13:36:57Z</time>
      </trkpt>
      <trkpt lat="46.99229" lon="-0.96122">
        <ele>78</ele>
        <time>2012-05-03T13:36:58Z</time>
      </trkpt>
      <trkpt lat="46.99228" lon="-0.96119">
        <ele>78</ele>
        <time>2012-05-03T13:36:59Z</time>
      </trkpt>
      <trkpt lat="46.99226" lon="-0.96116">
        <ele>78</ele>
        <time>2012-05-03T13:37:00Z</time>
      </trkpt>
      <trkpt lat="46.99224" lon="-0.96112">
        <ele>77</ele>
        <time>2012-05-03T13:37:01Z</time>
      </trkpt>
      <trkpt lat="46.99223" lon="-0.96108">
        <ele>77</ele>
        <time>2012-05-03T13:37:02Z</time>
      </trkpt>
      <trkpt lat="46.99221" lon="-0.96104">
        <ele>77</ele>
        <time>2012-05-03T13:37:03Z</time>
      </trkpt>
      <trkpt lat="46.9922" lon="-0.96098">
        <ele>76</ele>
        <time>2012-05-03T13:37:04Z</time>
      </trkpt>
      <trkpt lat="46.99218" lon="-0.96093">
        <ele>76</ele>
        <time>2012-05-03T13:37:05Z</time>
      </trkpt>
      <trkpt lat="46.99216" lon="-0.96089">
        <ele>75</ele>
        <time>2012-05-03T13:37:06Z</time>
      </trkpt>
      <trkpt lat="46.99214" lon="-0.96084">
        <ele>75</ele>
        <time>2012-05-03T13:37:07Z</time>
      </trkpt>
      <trkpt lat="46.99212" lon="-0.96079">
        <ele>75</ele>
        <time>2012-05-03T13:37:08Z</time>
      </trkpt>
      <trkpt lat="46.99209" lon="-0.96074">
        <ele>74</ele>
        <time>2012-05-03T13:37:09Z</time>
      </trkpt>
      <trkpt lat="46.99206" lon="-0.96069">
        <ele>74</ele>
        <time>2012-05-03T13:37:10Z</time>
      </trkpt>
      <trkpt lat="46.99204" lon="-0.96064">
        <ele>74</ele>
        <time>2012-05-03T13:37:11Z</time>
      </trkpt>
      <trkpt lat="46.99201" lon="-0.96059">
        <ele>74</ele>
        <time>2012-05-03T13:37:12Z</time>
      </trkpt>
      <trkpt lat="46.99199" lon="-0.96055">
        <ele>74</ele>
        <time>2012-05-03T13:37:13Z</time>
      </trkpt>
      <trkpt lat="46.99196" lon="-0.96051">
        <ele>74</ele>
        <time>2012-05-03T13:37:14Z</time>
      </trkpt>
      <trkpt lat="46.99194" lon="-0.96046">
        <ele>74</ele>
        <time>2012-05-03T13:37:15Z</time>
      </trkpt>
      <trkpt lat="46.99191" lon="-0.96042">
        <ele>74</ele>
        <time>2012-05-03T13:37:17Z</time>
      </trkpt>
      <trkpt lat="46.99189" lon="-0.96038">
        <ele>74</ele>
        <time>2012-05-03T13:37:17Z</time>
      </trkpt>
      <trkpt lat="46.99187" lon="-0.96034">
        <ele>74</ele>
        <time>2012-05-03T13:37:18Z</time>
      </trkpt>
      <trkpt lat="46.99185" lon="-0.96031">
        <ele>74</ele>
        <time>2012-05-03T13:37:19Z</time>
      </trkpt>
      <trkpt lat="46.99183" lon="-0.96027">
        <ele>74</ele>
        <time>2012-05-03T13:37:20Z</time>
      </trkpt>
      <trkpt lat="46.99181" lon="-0.96024">
        <ele>74</ele>
        <time>2012-05-03T13:37:21Z</time>
      </trkpt>
      <trkpt lat="46.99179" lon="-0.9602">
        <ele>74</ele>
        <time>2012-05-03T13:37:22Z</time>
      </trkpt>
      <trkpt lat="46.99177" lon="-0.96016">
        <ele>74</ele>
        <time>2012-05-03T13:37:23Z</time>
      </trkpt>
      <trkpt lat="46.99176" lon="-0.96011">
        <ele>74</ele>
        <time>2012-05-03T13:37:24Z</time>
      </trkpt>
      <trkpt lat="46.99173" lon="-0.96006">
        <ele>74</ele>
        <time>2012-05-03T13:37:25Z</time>
      </trkpt>
      <trkpt lat="46.99171" lon="-0.96001">
        <ele>74</ele>
        <time>2012-05-03T13:37:26Z</time>
      </trkpt>
      <trkpt lat="46.99169" lon="-0.95995">
        <ele>74</ele>
        <time>2012-05-03T13:37:27Z</time>
      </trkpt>
      <trkpt lat="46.99167" lon="-0.9599">
        <ele>74</ele>
        <time>2012-05-03T13:37:28Z</time>
      </trkpt>
      <trkpt lat="46.99165" lon="-0.95985">
        <ele>74</ele>
        <time>2012-05-03T13:37:29Z</time>
      </trkpt>
      <trkpt lat="46.99163" lon="-0.9598">
        <ele>74</ele>
        <time>2012-05-03T13:37:30Z</time>
      </trkpt>
      <trkpt lat="46.99161" lon="-0.95976">
        <ele>74</ele>
        <time>2012-05-03T13:37:31Z</time>
      </trkpt>
      <trkpt lat="46.99158" lon="-0.9597">
        <ele>74</ele>
        <time>2012-05-03T13:37:32Z</time>
      </trkpt>
      <trkpt lat="46.99156" lon="-0.95965">
        <ele>74</ele>
        <time>2012-05-03T13:37:33Z</time>
      </trkpt>
      <trkpt lat="46.99154" lon="-0.95961">
        <ele>74</ele>
        <time>2012-05-03T13:37:34Z</time>
      </trkpt>
      <trkpt lat="46.99152" lon="-0.95956">
        <ele>74</ele>
        <time>2012-05-03T13:37:35Z</time>
      </trkpt>
      <trkpt lat="46.9915" lon="-0.95951">
        <ele>74</ele>
        <time>2012-05-03T13:37:36Z</time>
      </trkpt>
      <trkpt lat="46.99148" lon="-0.95947">
        <ele>74</ele>
        <time>2012-05-03T13:37:37Z</time>
      </trkpt>
      <trkpt lat="46.99146" lon="-0.95942">
        <ele>74</ele>
        <time>2012-05-03T13:37:38Z</time>
      </trkpt>
      <trkpt lat="46.99144" lon="-0.95938">
        <ele>74</ele>
        <time>2012-05-03T13:37:39Z</time>
      </trkpt>
      <trkpt lat="46.99142" lon="-0.95935">
        <ele>74</ele>
        <time>2012-05-03T13:37:40Z</time>
      </trkpt>
      <trkpt lat="46.9914" lon="-0.95932">
        <ele>75</ele>
        <time>2012-05-03T13:37:41Z</time>
      </trkpt>
      <trkpt lat="46.99139" lon="-0.9593">
        <ele>75</ele>
        <time>2012-05-03T13:37:42Z</time>
      </trkpt>
      <trkpt lat="46.99137" lon="-0.95928">
        <ele>75</ele>
        <time>2012-05-03T13:37:43Z</time>
      </trkpt>
      <trkpt lat="46.99135" lon="-0.95925">
        <ele>75</ele>
        <time>2012-05-03T13:37:44Z</time>
      </trkpt>
      <trkpt lat="46.99133" lon="-0.95922">
        <ele>75</ele>
        <time>2012-05-03T13:37:45Z</time>
      </trkpt>
      <trkpt lat="46.99131" lon="-0.95919">
        <ele>75</ele>
        <time>2012-05-03T13:37:46Z</time>
      </trkpt>
      <trkpt lat="46.9913" lon="-0.95916">
        <ele>75</ele>
        <time>2012-05-03T13:37:47Z</time>
      </trkpt>
      <trkpt lat="46.99128" lon="-0.95913">
        <ele>75</ele>
        <time>2012-05-03T13:37:48Z</time>
      </trkpt>
      <trkpt lat="46.99126" lon="-0.9591">
        <ele>76</ele>
        <time>2012-05-03T13:37:49Z</time>
      </trkpt>
      <trkpt lat="46.99123" lon="-0.95906">
        <ele>76</ele>
        <time>2012-05-03T13:37:50Z</time>
      </trkpt>
      <trkpt lat="46.99121" lon="-0.95903">
        <ele>76</ele>
        <time>2012-05-03T13:37:51Z</time>
      </trkpt>
      <trkpt lat="46.99118" lon="-0.959">
        <ele>77</ele>
        <time>2012-05-03T13:37:52Z</time>
      </trkpt>
      <trkpt lat="46.99115" lon="-0.95898">
        <ele>77</ele>
        <time>2012-05-03T13:37:53Z</time>
      </trkpt>
      <trkpt lat="46.99112" lon="-0.95896">
        <ele>77</ele>
        <time>2012-05-03T13:37:54Z</time>
      </trkpt>
      <trkpt lat="46.99108" lon="-0.95895">
        <ele>77</ele>
        <time>2012-05-03T13:37:55Z</time>
      </trkpt>
      <trkpt lat="46.99104" lon="-0.95894">
        <ele>77</ele>
        <time>2012-05-03T13:37:56Z</time>
      </trkpt>
      <trkpt lat="46.99101" lon="-0.95893">
        <ele>77</ele>
        <time>2012-05-03T13:37:57Z</time>
      </trkpt>
      <trkpt lat="46.99097" lon="-0.95891">
        <ele>77</ele>
        <time>2012-05-03T13:37:58Z</time>
      </trkpt>
      <trkpt lat="46.99094" lon="-0.95891">
        <ele>78</ele>
        <time>2012-05-03T13:37:59Z</time>
      </trkpt>
      <trkpt lat="46.9909" lon="-0.9589">
        <ele>78</ele>
        <time>2012-05-03T13:38:00Z</time>
      </trkpt>
      <trkpt lat="46.99087" lon="-0.9589">
        <ele>78</ele>
        <time>2012-05-03T13:38:01Z</time>
      </trkpt>
      <trkpt lat="46.99084" lon="-0.95889">
        <ele>78</ele>
        <time>2012-05-03T13:38:02Z</time>
      </trkpt>
      <trkpt lat="46.99081" lon="-0.95887">
        <ele>79</ele>
        <time>2012-05-03T13:38:03Z</time>
      </trkpt>
      <trkpt lat="46.99079" lon="-0.95886">
        <ele>79</ele>
        <time>2012-05-03T13:38:04Z</time>
      </trkpt>
      <trkpt lat="46.99077" lon="-0.95885">
        <ele>79</ele>
        <time>2012-05-03T13:38:05Z</time>
      </trkpt>
      <trkpt lat="46.99075" lon="-0.95882">
        <ele>79</ele>
        <time>2012-05-03T13:38:06Z</time>
      </trkpt>
      <trkpt lat="46.99072" lon="-0.9588">
        <ele>79</ele>
        <time>2012-05-03T13:38:07Z</time>
      </trkpt>
      <trkpt lat="46.99068" lon="-0.95876">
        <ele>79</ele>
        <time>2012-05-03T13:38:08Z</time>
      </trkpt>
      <trkpt lat="46.99065" lon="-0.95872">
        <ele>79</ele>
        <time>2012-05-03T13:38:09Z</time>
      </trkpt>
      <trkpt lat="46.99061" lon="-0.95867">
        <ele>79</ele>
        <time>2012-05-03T13:38:10Z</time>
      </trkpt>
      <trkpt lat="46.99056" lon="-0.95862">
        <ele>79</ele>
        <time>2012-05-03T13:38:11Z</time>
      </trkpt>
      <trkpt lat="46.9905" lon="-0.95858">
        <ele>79</ele>
        <time>2012-05-03T13:38:12Z</time>
      </trkpt>
      <trkpt lat="46.99045" lon="-0.95853">
        <ele>79</ele>
        <time>2012-05-03T13:38:13Z</time>
      </trkpt>
      <trkpt lat="46.99039" lon="-0.95849">
        <ele>79</ele>
        <time>2012-05-03T13:38:14Z</time>
      </trkpt>
      <trkpt lat="46.99033" lon="-0.95846">
        <ele>79</ele>
        <time>2012-05-03T13:38:15Z</time>
      </trkpt>
      <trkpt lat="46.99027" lon="-0.95844">
        <ele>79</ele>
        <time>2012-05-03T13:38:17Z</time>
      </trkpt>
      <trkpt lat="46.99021" lon="-0.95843">
        <ele>79</ele>
        <time>2012-05-03T13:38:17Z</time>
      </trkpt>
      <trkpt lat="46.99016" lon="-0.95844">
        <ele>79</ele>
        <time>2012-05-03T13:38:18Z</time>
      </trkpt>
      <trkpt lat="46.99011" lon="-0.95845">
        <ele>79</ele>
        <time>2012-05-03T13:38:19Z</time>
      </trkpt>
      <trkpt lat="46.99006" lon="-0.95846">
        <ele>78</ele>
        <time>2012-05-03T13:38:20Z</time>
      </trkpt>
      <trkpt lat="46.99" lon="-0.95847">
        <ele>77</ele>
        <time>2012-05-03T13:38:21Z</time>
      </trkpt>
      <trkpt lat="46.98993" lon="-0.9585">
        <ele>76</ele>
        <time>2012-05-03T13:38:22Z</time>
      </trkpt>
      <trkpt lat="46.98986" lon="-0.95854">
        <ele>75</ele>
        <time>2012-05-03T13:38:23Z</time>
      </trkpt>
      <trkpt lat="46.98979" lon="-0.95859">
        <ele>74</ele>
        <time>2012-05-03T13:38:24Z</time>
      </trkpt>
      <trkpt lat="46.98972" lon="-0.95864">
        <ele>73</ele>
        <time>2012-05-03T13:38:25Z</time>
      </trkpt>
      <trkpt lat="46.98964" lon="-0.95869">
        <ele>72</ele>
        <time>2012-05-03T13:38:26Z</time>
      </trkpt>
      <trkpt lat="46.98958" lon="-0.95873">
        <ele>71</ele>
        <time>2012-05-03T13:38:27Z</time>
      </trkpt>
      <trkpt lat="46.98951" lon="-0.95877">
        <ele>70</ele>
        <time>2012-05-03T13:38:28Z</time>
      </trkpt>
      <trkpt lat="46.98944" lon="-0.95879">
        <ele>69</ele>
        <time>2012-05-03T13:38:29Z</time>
      </trkpt>
      <trkpt lat="46.98938" lon="-0.95881">
        <ele>68</ele>
        <time>2012-05-03T13:38:30Z</time>
      </trkpt>
      <trkpt lat="46.98931" lon="-0.95882">
        <ele>67</ele>
        <time>2012-05-03T13:38:31Z</time>
      </trkpt>
      <trkpt lat="46.98924" lon="-0.95884">
        <ele>66</ele>
        <time>2012-05-03T13:38:32Z</time>
      </trkpt>
      <trkpt lat="46.98916" lon="-0.95884">
        <ele>66</ele>
        <time>2012-05-03T13:38:33Z</time>
      </trkpt>
      <trkpt lat="46.98908" lon="-0.95884">
        <ele>65</ele>
        <time>2012-05-03T13:38:34Z</time>
      </trkpt>
      <trkpt lat="46.98901" lon="-0.95888">
        <ele>64</ele>
        <time>2012-05-03T13:38:35Z</time>
      </trkpt>
      <trkpt lat="46.98895" lon="-0.95891">
        <ele>63</ele>
        <time>2012-05-03T13:38:36Z</time>
      </trkpt>
      <trkpt lat="46.98889" lon="-0.95895">
        <ele>62</ele>
        <time>2012-05-03T13:38:37Z</time>
      </trkpt>
      <trkpt lat="46.98883" lon="-0.95898">
        <ele>61</ele>
        <time>2012-05-03T13:38:38Z</time>
      </trkpt>
      <trkpt lat="46.98877" lon="-0.95902">
        <ele>61</ele>
        <time>2012-05-03T13:38:39Z</time>
      </trkpt>
      <trkpt lat="46.98872" lon="-0.95906">
        <ele>61</ele>
        <time>2012-05-03T13:38:40Z</time>
      </trkpt>
      <trkpt lat="46.98867" lon="-0.95912">
        <ele>61</ele>
        <time>2012-05-03T13:38:41Z</time>
      </trkpt>
      <trkpt lat="46.98863" lon="-0.95916">
        <ele>61</ele>
        <time>2012-05-03T13:38:42Z</time>
      </trkpt>
      <trkpt lat="46.98858" lon="-0.95921">
        <ele>61</ele>
        <time>2012-05-03T13:38:43Z</time>
      </trkpt>
      <trkpt lat="46.98854" lon="-0.95925">
        <ele>61</ele>
        <time>2012-05-03T13:38:44Z</time>
      </trkpt>
      <trkpt lat="46.98851" lon="-0.95929">
        <ele>61</ele>
        <time>2012-05-03T13:38:45Z</time>
      </trkpt>
      <trkpt lat="46.98848" lon="-0.95932">
        <ele>61</ele>
        <time>2012-05-03T13:38:46Z</time>
      </trkpt>
      <trkpt lat="46.98844" lon="-0.95935">
        <ele>61</ele>
        <time>2012-05-03T13:38:47Z</time>
      </trkpt>
      <trkpt lat="46.9884" lon="-0.95938">
        <ele>61</ele>
        <time>2012-05-03T13:38:48Z</time>
      </trkpt>
      <trkpt lat="46.98837" lon="-0.9594">
        <ele>61</ele>
        <time>2012-05-03T13:38:49Z</time>
      </trkpt>
      <trkpt lat="46.98833" lon="-0.95942">
        <ele>61</ele>
        <time>2012-05-03T13:38:50Z</time>
      </trkpt>
      <trkpt lat="46.98829" lon="-0.95944">
        <ele>61</ele>
        <time>2012-05-03T13:38:51Z</time>
      </trkpt>
      <trkpt lat="46.98825" lon="-0.95947">
        <ele>61</ele>
        <time>2012-05-03T13:38:52Z</time>
      </trkpt>
      <trkpt lat="46.98822" lon="-0.95948">
        <ele>61</ele>
        <time>2012-05-03T13:38:53Z</time>
      </trkpt>
      <trkpt lat="46.98818" lon="-0.9595">
        <ele>61</ele>
        <time>2012-05-03T13:38:54Z</time>
      </trkpt>
      <trkpt lat="46.98815" lon="-0.95953">
        <ele>61</ele>
        <time>2012-05-03T13:38:55Z</time>
      </trkpt>
      <trkpt lat="46.98813" lon="-0.95956">
        <ele>61</ele>
        <time>2012-05-03T13:38:56Z</time>
      </trkpt>
      <trkpt lat="46.9881" lon="-0.95959">
        <ele>61</ele>
        <time>2012-05-03T13:38:57Z</time>
      </trkpt>
      <trkpt lat="46.98806" lon="-0.95962">
        <ele>61</ele>
        <time>2012-05-03T13:38:58Z</time>
      </trkpt>
      <trkpt lat="46.98803" lon="-0.95964">
        <ele>61</ele>
        <time>2012-05-03T13:38:59Z</time>
      </trkpt>
      <trkpt lat="46.98799" lon="-0.95968">
        <ele>61</ele>
        <time>2012-05-03T13:39:00Z</time>
      </trkpt>
      <trkpt lat="46.98796" lon="-0.95971">
        <ele>61</ele>
        <time>2012-05-03T13:39:01Z</time>
      </trkpt>
      <trkpt lat="46.98792" lon="-0.95974">
        <ele>61</ele>
        <time>2012-05-03T13:39:02Z</time>
      </trkpt>
      <trkpt lat="46.98788" lon="-0.95977">
        <ele>61</ele>
        <time>2012-05-03T13:39:03Z</time>
      </trkpt>
      <trkpt lat="46.98785" lon="-0.9598">
        <ele>61</ele>
        <time>2012-05-03T13:39:04Z</time>
      </trkpt>
      <trkpt lat="46.98781" lon="-0.95984">
        <ele>61</ele>
        <time>2012-05-03T13:39:05Z</time>
      </trkpt>
      <trkpt lat="46.98777" lon="-0.95987">
        <ele>61</ele>
        <time>2012-05-03T13:39:06Z</time>
      </trkpt>
      <trkpt lat="46.98773" lon="-0.9599">
        <ele>61</ele>
        <time>2012-05-03T13:39:07Z</time>
      </trkpt>
      <trkpt lat="46.98769" lon="-0.95992">
        <ele>61</ele>
        <time>2012-05-03T13:39:08Z</time>
      </trkpt>
      <trkpt lat="46.98765" lon="-0.95995">
        <ele>61</ele>
        <time>2012-05-03T13:39:09Z</time>
      </trkpt>
      <trkpt lat="46.98761" lon="-0.95998">
        <ele>61</ele>
        <time>2012-05-03T13:39:10Z</time>
      </trkpt>
      <trkpt lat="46.98758" lon="-0.96001">
        <ele>61</ele>
        <time>2012-05-03T13:39:11Z</time>
      </trkpt>
      <trkpt lat="46.98754" lon="-0.96003">
        <ele>61</ele>
        <time>2012-05-03T13:39:12Z</time>
      </trkpt>
      <trkpt lat="46.98751" lon="-0.96007">
        <ele>61</ele>
        <time>2012-05-03T13:39:13Z</time>
      </trkpt>
      <trkpt lat="46.98748" lon="-0.9601">
        <ele>61</ele>
        <time>2012-05-03T13:39:14Z</time>
      </trkpt>
      <trkpt lat="46.98746" lon="-0.96014">
        <ele>61</ele>
        <time>2012-05-03T13:39:15Z</time>
      </trkpt>
      <trkpt lat="46.98744" lon="-0.96017">
        <ele>61</ele>
        <time>2012-05-03T13:39:17Z</time>
      </trkpt>
      <trkpt lat="46.98743" lon="-0.96019">
        <ele>61</ele>
        <time>2012-05-03T13:39:17Z</time>
      </trkpt>
      <trkpt lat="46.98741" lon="-0.96019">
        <ele>61</ele>
        <time>2012-05-03T13:39:18Z</time>
      </trkpt>
      <trkpt lat="46.98739" lon="-0.9602">
        <ele>61</ele>
        <time>2012-05-03T13:39:20Z</time>
      </trkpt>
      <trkpt lat="46.98738" lon="-0.96021">
        <ele>62</ele>
        <time>2012-05-03T13:39:21Z</time>
      </trkpt>
      <trkpt lat="46.98736" lon="-0.96022">
        <ele>62</ele>
        <time>2012-05-03T13:39:22Z</time>
      </trkpt>
      <trkpt lat="46.98735" lon="-0.96023">
        <ele>62</ele>
        <time>2012-05-03T13:39:23Z</time>
      </trkpt>
      <trkpt lat="46.98733" lon="-0.96025">
        <ele>63</ele>
        <time>2012-05-03T13:39:24Z</time>
      </trkpt>
      <trkpt lat="46.98731" lon="-0.96026">
        <ele>63</ele>
        <time>2012-05-03T13:39:25Z</time>
      </trkpt>
      <trkpt lat="46.98728" lon="-0.96028">
        <ele>63</ele>
        <time>2012-05-03T13:39:26Z</time>
      </trkpt>
      <trkpt lat="46.98727" lon="-0.9603">
        <ele>63</ele>
        <time>2012-05-03T13:39:27Z</time>
      </trkpt>
      <trkpt lat="46.98724" lon="-0.96031">
        <ele>64</ele>
        <time>2012-05-03T13:39:28Z</time>
      </trkpt>
      <trkpt lat="46.98723" lon="-0.96033">
        <ele>65</ele>
        <time>2012-05-03T13:39:29Z</time>
      </trkpt>
      <trkpt lat="46.98723" lon="-0.96035">
        <ele>65</ele>
        <time>2012-05-03T13:39:30Z</time>
      </trkpt>
      <trkpt lat="46.98722" lon="-0.96037">
        <ele>66</ele>
        <time>2012-05-03T13:39:31Z</time>
      </trkpt>
      <trkpt lat="46.9872" lon="-0.96039">
        <ele>67</ele>
        <time>2012-05-03T13:39:33Z</time>
      </trkpt>
      <trkpt lat="46.98718" lon="-0.9604">
        <ele>67</ele>
        <time>2012-05-03T13:39:34Z</time>
      </trkpt>
      <trkpt lat="46.98717" lon="-0.96041">
        <ele>68</ele>
        <time>2012-05-03T13:39:36Z</time>
      </trkpt>
      <trkpt lat="46.98716" lon="-0.96042">
        <ele>71</ele>
        <time>2012-05-03T13:39:41Z</time>
      </trkpt>
      <trkpt lat="46.98715" lon="-0.96043">
        <ele>71</ele>
        <time>2012-05-03T13:39:42Z</time>
      </trkpt>
      <trkpt lat="46.98713" lon="-0.96045">
        <ele>71</ele>
        <time>2012-05-03T13:39:44Z</time>
      </trkpt>
      <trkpt lat="46.98711" lon="-0.96046">
        <ele>71</ele>
        <time>2012-05-03T13:39:45Z</time>
      </trkpt>
      <trkpt lat="46.98709" lon="-0.96046">
        <ele>71</ele>
        <time>2012-05-03T13:39:46Z</time>
      </trkpt>
      <trkpt lat="46.98707" lon="-0.96047">
        <ele>71</ele>
        <time>2012-05-03T13:39:47Z</time>
      </trkpt>
      <trkpt lat="46.98704" lon="-0.96049">
        <ele>71</ele>
        <time>2012-05-03T13:39:48Z</time>
      </trkpt>
      <trkpt lat="46.98701" lon="-0.96051">
        <ele>71</ele>
        <time>2012-05-03T13:39:49Z</time>
      </trkpt>
      <trkpt lat="46.98699" lon="-0.96054">
        <ele>71</ele>
        <time>2012-05-03T13:39:50Z</time>
      </trkpt>
      <trkpt lat="46.98695" lon="-0.96056">
        <ele>72</ele>
        <time>2012-05-03T13:39:51Z</time>
      </trkpt>
      <trkpt lat="46.98693" lon="-0.96059">
        <ele>72</ele>
        <time>2012-05-03T13:39:52Z</time>
      </trkpt>
      <trkpt lat="46.98691" lon="-0.9606">
        <ele>72</ele>
        <time>2012-05-03T13:39:53Z</time>
      </trkpt>
      <trkpt lat="46.98689" lon="-0.96061">
        <ele>72</ele>
        <time>2012-05-03T13:39:54Z</time>
      </trkpt>
      <trkpt lat="46.98687" lon="-0.96061">
        <ele>72</ele>
        <time>2012-05-03T13:39:55Z</time>
      </trkpt>
      <trkpt lat="46.98686" lon="-0.96062">
        <ele>72</ele>
        <time>2012-05-03T13:39:56Z</time>
      </trkpt>
      <trkpt lat="46.98685" lon="-0.96061">
        <ele>72</ele>
        <time>2012-05-03T13:39:57Z</time>
      </trkpt>
      <trkpt lat="46.98684" lon="-0.96058">
        <ele>72</ele>
        <time>2012-05-03T13:39:59Z</time>
      </trkpt>
      <trkpt lat="46.98683" lon="-0.96055">
        <ele>72</ele>
        <time>2012-05-03T13:40:00Z</time>
      </trkpt>
      <trkpt lat="46.98682" lon="-0.96051">
        <ele>72</ele>
        <time>2012-05-03T13:40:01Z</time>
      </trkpt>
      <trkpt lat="46.98682" lon="-0.96046">
        <ele>72</ele>
        <time>2012-05-03T13:40:02Z</time>
      </trkpt>
      <trkpt lat="46.98682" lon="-0.96041">
        <ele>72</ele>
        <time>2012-05-03T13:40:03Z</time>
      </trkpt>
      <trkpt lat="46.98682" lon="-0.96035">
        <ele>72</ele>
        <time>2012-05-03T13:40:04Z</time>
      </trkpt>
      <trkpt lat="46.98681" lon="-0.9603">
        <ele>72</ele>
        <time>2012-05-03T13:40:05Z</time>
      </trkpt>
      <trkpt lat="46.98681" lon="-0.96025">
        <ele>72</ele>
        <time>2012-05-03T13:40:06Z</time>
      </trkpt>
      <trkpt lat="46.9868" lon="-0.96019">
        <ele>72</ele>
        <time>2012-05-03T13:40:07Z</time>
      </trkpt>
      <trkpt lat="46.9868" lon="-0.96014">
        <ele>72</ele>
        <time>2012-05-03T13:40:08Z</time>
      </trkpt>
      <trkpt lat="46.9868" lon="-0.96008">
        <ele>72</ele>
        <time>2012-05-03T13:40:09Z</time>
      </trkpt>
      <trkpt lat="46.98679" lon="-0.96003">
        <ele>72</ele>
        <time>2012-05-03T13:40:10Z</time>
      </trkpt>
      <trkpt lat="46.98679" lon="-0.95997">
        <ele>72</ele>
        <time>2012-05-03T13:40:11Z</time>
      </trkpt>
      <trkpt lat="46.98678" lon="-0.95991">
        <ele>72</ele>
        <time>2012-05-03T13:40:12Z</time>
      </trkpt>
      <trkpt lat="46.98677" lon="-0.95986">
        <ele>72</ele>
        <time>2012-05-03T13:40:13Z</time>
      </trkpt>
      <trkpt lat="46.98677" lon="-0.9598">
        <ele>72</ele>
        <time>2012-05-03T13:40:14Z</time>
      </trkpt>
      <trkpt lat="46.98676" lon="-0.95974">
        <ele>72</ele>
        <time>2012-05-03T13:40:15Z</time>
      </trkpt>
      <trkpt lat="46.98676" lon="-0.95968">
        <ele>72</ele>
        <time>2012-05-03T13:40:17Z</time>
      </trkpt>
      <trkpt lat="46.98676" lon="-0.95962">
        <ele>72</ele>
        <time>2012-05-03T13:40:17Z</time>
      </trkpt>
      <trkpt lat="46.98675" lon="-0.95956">
        <ele>72</ele>
        <time>2012-05-03T13:40:18Z</time>
      </trkpt>
      <trkpt lat="46.98674" lon="-0.95951">
        <ele>72</ele>
        <time>2012-05-03T13:40:19Z</time>
      </trkpt>
      <trkpt lat="46.98674" lon="-0.95944">
        <ele>72</ele>
        <time>2012-05-03T13:40:20Z</time>
      </trkpt>
      <trkpt lat="46.98673" lon="-0.95939">
        <ele>72</ele>
        <time>2012-05-03T13:40:21Z</time>
      </trkpt>
      <trkpt lat="46.98673" lon="-0.95933">
        <ele>72</ele>
        <time>2012-05-03T13:40:22Z</time>
      </trkpt>
      <trkpt lat="46.98673" lon="-0.95927">
        <ele>72</ele>
        <time>2012-05-03T13:40:23Z</time>
      </trkpt>
      <trkpt lat="46.98672" lon="-0.95921">
        <ele>72</ele>
        <time>2012-05-03T13:40:24Z</time>
      </trkpt>
      <trkpt lat="46.98672" lon="-0.95915">
        <ele>72</ele>
        <time>2012-05-03T13:40:25Z</time>
      </trkpt>
      <trkpt lat="46.98672" lon="-0.9591">
        <ele>72</ele>
        <time>2012-05-03T13:40:26Z</time>
      </trkpt>
      <trkpt lat="46.98673" lon="-0.95905">
        <ele>72</ele>
        <time>2012-05-03T13:40:27Z</time>
      </trkpt>
      <trkpt lat="46.98673" lon="-0.959">
        <ele>72</ele>
        <time>2012-05-03T13:40:28Z</time>
      </trkpt>
      <trkpt lat="46.98673" lon="-0.95896">
        <ele>72</ele>
        <time>2012-05-03T13:40:29Z</time>
      </trkpt>
      <trkpt lat="46.98672" lon="-0.95893">
        <ele>72</ele>
        <time>2012-05-03T13:40:30Z</time>
      </trkpt>
      <trkpt lat="46.98671" lon="-0.95889">
        <ele>72</ele>
        <time>2012-05-03T13:40:31Z</time>
      </trkpt>
      <trkpt lat="46.98669" lon="-0.95886">
        <ele>72</ele>
        <time>2012-05-03T13:40:32Z</time>
      </trkpt>
      <trkpt lat="46.98667" lon="-0.95884">
        <ele>72</ele>
        <time>2012-05-03T13:40:33Z</time>
      </trkpt>
      <trkpt lat="46.98663" lon="-0.95883">
        <ele>72</ele>
        <time>2012-05-03T13:40:34Z</time>
      </trkpt>
      <trkpt lat="46.98658" lon="-0.95882">
        <ele>72</ele>
        <time>2012-05-03T13:40:35Z</time>
      </trkpt>
      <trkpt lat="46.98653" lon="-0.95882">
        <ele>72</ele>
        <time>2012-05-03T13:40:36Z</time>
      </trkpt>
      <trkpt lat="46.98648" lon="-0.95881">
        <ele>72</ele>
        <time>2012-05-03T13:40:37Z</time>
      </trkpt>
      <trkpt lat="46.98642" lon="-0.95878">
        <ele>72</ele>
        <time>2012-05-03T13:40:38Z</time>
      </trkpt>
      <trkpt lat="46.98636" lon="-0.95878">
        <ele>72</ele>
        <time>2012-05-03T13:40:39Z</time>
      </trkpt>
      <trkpt lat="46.98631" lon="-0.95878">
        <ele>72</ele>
        <time>2012-05-03T13:40:40Z</time>
      </trkpt>
      <trkpt lat="46.98627" lon="-0.95877">
        <ele>72</ele>
        <time>2012-05-03T13:40:41Z</time>
      </trkpt>
      <trkpt lat="46.98625" lon="-0.95873">
        <ele>72</ele>
        <time>2012-05-03T13:40:42Z</time>
      </trkpt>
      <trkpt lat="46.98625" lon="-0.9587">
        <ele>72</ele>
        <time>2012-05-03T13:40:43Z</time>
      </trkpt>
      <trkpt lat="46.98626" lon="-0.95869">
        <ele>71</ele>
        <time>2012-05-03T13:40:44Z</time>
      </trkpt>
      <trkpt lat="46.98629" lon="-0.95869">
        <ele>71</ele>
        <time>2012-05-03T13:40:45Z</time>
      </trkpt>
      <trkpt lat="46.9863" lon="-0.95871">
        <ele>71</ele>
        <time>2012-05-03T13:40:46Z</time>
      </trkpt>
      <trkpt lat="46.98632" lon="-0.95873">
        <ele>71</ele>
        <time>2012-05-03T13:40:47Z</time>
      </trkpt>
      <trkpt lat="46.98633" lon="-0.95875">
        <ele>70</ele>
        <time>2012-05-03T13:40:48Z</time>
      </trkpt>
      <trkpt lat="46.98635" lon="-0.95876">
        <ele>70</ele>
        <time>2012-05-03T13:40:49Z</time>
      </trkpt>
      <trkpt lat="46.98637" lon="-0.95877">
        <ele>70</ele>
        <time>2012-05-03T13:40:50Z</time>
      </trkpt>
      <trkpt lat="46.9864" lon="-0.95877">
        <ele>69</ele>
        <time>2012-05-03T13:40:51Z</time>
      </trkpt>
      <trkpt lat="46.98643" lon="-0.95878">
        <ele>69</ele>
        <time>2012-05-03T13:40:52Z</time>
      </trkpt>
      <trkpt lat="46.98645" lon="-0.95878">
        <ele>69</ele>
        <time>2012-05-03T13:40:53Z</time>
      </trkpt>
      <trkpt lat="46.98647" lon="-0.95878">
        <ele>69</ele>
        <time>2012-05-03T13:40:54Z</time>
      </trkpt>
      <trkpt lat="46.9865" lon="-0.95877">
        <ele>69</ele>
        <time>2012-05-03T13:40:55Z</time>
      </trkpt>
      <trkpt lat="46.98652" lon="-0.95878">
        <ele>69</ele>
        <time>2012-05-03T13:40:56Z</time>
      </trkpt>
      <trkpt lat="46.98655" lon="-0.95879">
        <ele>69</ele>
        <time>2012-05-03T13:40:57Z</time>
      </trkpt>
      <trkpt lat="46.98658" lon="-0.9588">
        <ele>69</ele>
        <time>2012-05-03T13:40:58Z</time>
      </trkpt>
      <trkpt lat="46.9866" lon="-0.95881">
        <ele>69</ele>
        <time>2012-05-03T13:40:59Z</time>
      </trkpt>
      <trkpt lat="46.98663" lon="-0.95881">
        <ele>69</ele>
        <time>2012-05-03T13:41:00Z</time>
      </trkpt>
      <trkpt lat="46.98666" lon="-0.95882">
        <ele>69</ele>
        <time>2012-05-03T13:41:01Z</time>
      </trkpt>
      <trkpt lat="46.98668" lon="-0.95882">
        <ele>69</ele>
        <time>2012-05-03T13:41:02Z</time>
      </trkpt>
      <trkpt lat="46.9867" lon="-0.95883">
        <ele>69</ele>
        <time>2012-05-03T13:41:03Z</time>
      </trkpt>
      <trkpt lat="46.98672" lon="-0.95883">
        <ele>69</ele>
        <time>2012-05-03T13:41:04Z</time>
      </trkpt>
      <trkpt lat="46.98673" lon="-0.95883">
        <ele>69</ele>
        <time>2012-05-03T13:41:05Z</time>
      </trkpt>
      <trkpt lat="46.98675" lon="-0.95884">
        <ele>69</ele>
        <time>2012-05-03T13:41:06Z</time>
      </trkpt>
      <trkpt lat="46.98676" lon="-0.95886">
        <ele>69</ele>
        <time>2012-05-03T13:41:07Z</time>
      </trkpt>
      <trkpt lat="46.98676" lon="-0.95889">
        <ele>69</ele>
        <time>2012-05-03T13:41:08Z</time>
      </trkpt>
      <trkpt lat="46.98676" lon="-0.95893">
        <ele>69</ele>
        <time>2012-05-03T13:41:09Z</time>
      </trkpt>
      <trkpt lat="46.98675" lon="-0.95897">
        <ele>69</ele>
        <time>2012-05-03T13:41:10Z</time>
      </trkpt>
      <trkpt lat="46.98675" lon="-0.95901">
        <ele>69</ele>
        <time>2012-05-03T13:41:11Z</time>
      </trkpt>
      <trkpt lat="46.98675" lon="-0.95906">
        <ele>69</ele>
        <time>2012-05-03T13:41:12Z</time>
      </trkpt>
      <trkpt lat="46.98676" lon="-0.9591">
        <ele>69</ele>
        <time>2012-05-03T13:41:13Z</time>
      </trkpt>
      <trkpt lat="46.98679" lon="-0.95912">
        <ele>69</ele>
        <time>2012-05-03T13:41:14Z</time>
      </trkpt>
      <trkpt lat="46.98682" lon="-0.95911">
        <ele>69</ele>
        <time>2012-05-03T13:41:15Z</time>
      </trkpt>
      <trkpt lat="46.98685" lon="-0.95908">
        <ele>69</ele>
        <time>2012-05-03T13:41:17Z</time>
      </trkpt>
      <trkpt lat="46.98689" lon="-0.95904">
        <ele>69</ele>
        <time>2012-05-03T13:41:17Z</time>
      </trkpt>
      <trkpt lat="46.98693" lon="-0.959">
        <ele>69</ele>
        <time>2012-05-03T13:41:18Z</time>
      </trkpt>
      <trkpt lat="46.98697" lon="-0.95896">
        <ele>69</ele>
        <time>2012-05-03T13:41:19Z</time>
      </trkpt>
      <trkpt lat="46.98702" lon="-0.95892">
        <ele>69</ele>
        <time>2012-05-03T13:41:20Z</time>
      </trkpt>
      <trkpt lat="46.98706" lon="-0.95887">
        <ele>69</ele>
        <time>2012-05-03T13:41:21Z</time>
      </trkpt>
      <trkpt lat="46.98711" lon="-0.95883">
        <ele>69</ele>
        <time>2012-05-03T13:41:22Z</time>
      </trkpt>
      <trkpt lat="46.98715" lon="-0.95878">
        <ele>69</ele>
        <time>2012-05-03T13:41:23Z</time>
      </trkpt>
      <trkpt lat="46.98719" lon="-0.95873">
        <ele>69</ele>
        <time>2012-05-03T13:41:24Z</time>
      </trkpt>
      <trkpt lat="46.98723" lon="-0.95868">
        <ele>69</ele>
        <time>2012-05-03T13:41:25Z</time>
      </trkpt>
      <trkpt lat="46.98727" lon="-0.95864">
        <ele>69</ele>
        <time>2012-05-03T13:41:26Z</time>
      </trkpt>
      <trkpt lat="46.9873" lon="-0.95859">
        <ele>69</ele>
        <time>2012-05-03T13:41:27Z</time>
      </trkpt>
      <trkpt lat="46.98735" lon="-0.95855">
        <ele>69</ele>
        <time>2012-05-03T13:41:28Z</time>
      </trkpt>
      <trkpt lat="46.98738" lon="-0.95851">
        <ele>69</ele>
        <time>2012-05-03T13:41:29Z</time>
      </trkpt>
      <trkpt lat="46.98743" lon="-0.95848">
        <ele>69</ele>
        <time>2012-05-03T13:41:30Z</time>
      </trkpt>
      <trkpt lat="46.98747" lon="-0.95845">
        <ele>69</ele>
        <time>2012-05-03T13:41:31Z</time>
      </trkpt>
      <trkpt lat="46.98751" lon="-0.95841">
        <ele>69</ele>
        <time>2012-05-03T13:41:32Z</time>
      </trkpt>
      <trkpt lat="46.98755" lon="-0.95837">
        <ele>69</ele>
        <time>2012-05-03T13:41:33Z</time>
      </trkpt>
      <trkpt lat="46.98759" lon="-0.95833">
        <ele>69</ele>
        <time>2012-05-03T13:41:34Z</time>
      </trkpt>
      <trkpt lat="46.98764" lon="-0.95829">
        <ele>69</ele>
        <time>2012-05-03T13:41:35Z</time>
      </trkpt>
      <trkpt lat="46.98767" lon="-0.95825">
        <ele>69</ele>
        <time>2012-05-03T13:41:36Z</time>
      </trkpt>
      <trkpt lat="46.98771" lon="-0.95821">
        <ele>69</ele>
        <time>2012-05-03T13:41:37Z</time>
      </trkpt>
      <trkpt lat="46.98775" lon="-0.95817">
        <ele>69</ele>
        <time>2012-05-03T13:41:38Z</time>
      </trkpt>
      <trkpt lat="46.9878" lon="-0.95813">
        <ele>69</ele>
        <time>2012-05-03T13:41:39Z</time>
      </trkpt>
      <trkpt lat="46.98784" lon="-0.95809">
        <ele>69</ele>
        <time>2012-05-03T13:41:40Z</time>
      </trkpt>
      <trkpt lat="46.98788" lon="-0.95805">
        <ele>69</ele>
        <time>2012-05-03T13:41:41Z</time>
      </trkpt>
      <trkpt lat="46.98792" lon="-0.95801">
        <ele>69</ele>
        <time>2012-05-03T13:41:42Z</time>
      </trkpt>
      <trkpt lat="46.98795" lon="-0.95797">
        <ele>69</ele>
        <time>2012-05-03T13:41:43Z</time>
      </trkpt>
      <trkpt lat="46.98799" lon="-0.95792">
        <ele>69</ele>
        <time>2012-05-03T13:41:44Z</time>
      </trkpt>
      <trkpt lat="46.98803" lon="-0.95788">
        <ele>69</ele>
        <time>2012-05-03T13:41:45Z</time>
      </trkpt>
      <trkpt lat="46.98806" lon="-0.95783">
        <ele>69</ele>
        <time>2012-05-03T13:41:46Z</time>
      </trkpt>
      <trkpt lat="46.98809" lon="-0.95778">
        <ele>69</ele>
        <time>2012-05-03T13:41:47Z</time>
      </trkpt>
      <trkpt lat="46.98812" lon="-0.95773">
        <ele>69</ele>
        <time>2012-05-03T13:41:48Z</time>
      </trkpt>
      <trkpt lat="46.98814" lon="-0.95767">
        <ele>69</ele>
        <time>2012-05-03T13:41:49Z</time>
      </trkpt>
      <trkpt lat="46.98818" lon="-0.95762">
        <ele>69</ele>
        <time>2012-05-03T13:41:50Z</time>
      </trkpt>
      <trkpt lat="46.98821" lon="-0.95757">
        <ele>69</ele>
        <time>2012-05-03T13:41:51Z</time>
      </trkpt>
      <trkpt lat="46.98824" lon="-0.95752">
        <ele>69</ele>
        <time>2012-05-03T13:41:52Z</time>
      </trkpt>
      <trkpt lat="46.98827" lon="-0.95747">
        <ele>70</ele>
        <time>2012-05-03T13:41:53Z</time>
      </trkpt>
      <trkpt lat="46.9883" lon="-0.95741">
        <ele>70</ele>
        <time>2012-05-03T13:41:54Z</time>
      </trkpt>
      <trkpt lat="46.98833" lon="-0.95736">
        <ele>70</ele>
        <time>2012-05-03T13:41:55Z</time>
      </trkpt>
      <trkpt lat="46.98836" lon="-0.95732">
        <ele>70</ele>
        <time>2012-05-03T13:41:56Z</time>
      </trkpt>
      <trkpt lat="46.98838" lon="-0.95726">
        <ele>70</ele>
        <time>2012-05-03T13:41:57Z</time>
      </trkpt>
      <trkpt lat="46.98841" lon="-0.95721">
        <ele>70</ele>
        <time>2012-05-03T13:41:58Z</time>
      </trkpt>
      <trkpt lat="46.98844" lon="-0.95715">
        <ele>70</ele>
        <time>2012-05-03T13:41:59Z</time>
      </trkpt>
      <trkpt lat="46.98846" lon="-0.9571">
        <ele>70</ele>
        <time>2012-05-03T13:42:00Z</time>
      </trkpt>
      <trkpt lat="46.98849" lon="-0.95705">
        <ele>70</ele>
        <time>2012-05-03T13:42:01Z</time>
      </trkpt>
      <trkpt lat="46.98853" lon="-0.957">
        <ele>70</ele>
        <time>2012-05-03T13:42:02Z</time>
      </trkpt>
      <trkpt lat="46.98857" lon="-0.95697">
        <ele>70</ele>
        <time>2012-05-03T13:42:03Z</time>
      </trkpt>
      <trkpt lat="46.9886" lon="-0.95696">
        <ele>70</ele>
        <time>2012-05-03T13:42:04Z</time>
      </trkpt>
      <trkpt lat="46.98864" lon="-0.95697">
        <ele>70</ele>
        <time>2012-05-03T13:42:05Z</time>
      </trkpt>
      <trkpt lat="46.98867" lon="-0.95699">
        <ele>70</ele>
        <time>2012-05-03T13:42:06Z</time>
      </trkpt>
      <trkpt lat="46.9887" lon="-0.95703">
        <ele>70</ele>
        <time>2012-05-03T13:42:07Z</time>
      </trkpt>
      <trkpt lat="46.98873" lon="-0.95707">
        <ele>70</ele>
        <time>2012-05-03T13:42:08Z</time>
      </trkpt>
      <trkpt lat="46.98876" lon="-0.95713">
        <ele>70</ele>
        <time>2012-05-03T13:42:09Z</time>
      </trkpt>
      <trkpt lat="46.9888" lon="-0.95718">
        <ele>70</ele>
        <time>2012-05-03T13:42:10Z</time>
      </trkpt>
      <trkpt lat="46.98884" lon="-0.95721">
        <ele>70</ele>
        <time>2012-05-03T13:42:11Z</time>
      </trkpt>
      <trkpt lat="46.98889" lon="-0.95721">
        <ele>70</ele>
        <time>2012-05-03T13:42:12Z</time>
      </trkpt>
      <trkpt lat="46.98893" lon="-0.95719">
        <ele>70</ele>
        <time>2012-05-03T13:42:13Z</time>
      </trkpt>
      <trkpt lat="46.98898" lon="-0.95717">
        <ele>70</ele>
        <time>2012-05-03T13:42:14Z</time>
      </trkpt>
      <trkpt lat="46.98903" lon="-0.95715">
        <ele>70</ele>
        <time>2012-05-03T13:42:15Z</time>
      </trkpt>
      <trkpt lat="46.98908" lon="-0.95713">
        <ele>70</ele>
        <time>2012-05-03T13:42:17Z</time>
      </trkpt>
      <trkpt lat="46.98913" lon="-0.95711">
        <ele>70</ele>
        <time>2012-05-03T13:42:17Z</time>
      </trkpt>
      <trkpt lat="46.98918" lon="-0.95708">
        <ele>70</ele>
        <time>2012-05-03T13:42:18Z</time>
      </trkpt>
      <trkpt lat="46.98922" lon="-0.95705">
        <ele>70</ele>
        <time>2012-05-03T13:42:19Z</time>
      </trkpt>
      <trkpt lat="46.98927" lon="-0.95702">
        <ele>70</ele>
        <time>2012-05-03T13:42:20Z</time>
      </trkpt>
      <trkpt lat="46.98931" lon="-0.957">
        <ele>70</ele>
        <time>2012-05-03T13:42:21Z</time>
      </trkpt>
      <trkpt lat="46.98935" lon="-0.95696">
        <ele>69</ele>
        <time>2012-05-03T13:42:22Z</time>
      </trkpt>
      <trkpt lat="46.9894" lon="-0.95693">
        <ele>69</ele>
        <time>2012-05-03T13:42:23Z</time>
      </trkpt>
      <trkpt lat="46.98944" lon="-0.95691">
        <ele>69</ele>
        <time>2012-05-03T13:42:24Z</time>
      </trkpt>
      <trkpt lat="46.98949" lon="-0.95688">
        <ele>69</ele>
        <time>2012-05-03T13:42:25Z</time>
      </trkpt>
      <trkpt lat="46.98953" lon="-0.95685">
        <ele>69</ele>
        <time>2012-05-03T13:42:26Z</time>
      </trkpt>
      <trkpt lat="46.98957" lon="-0.95682">
        <ele>68</ele>
        <time>2012-05-03T13:42:27Z</time>
      </trkpt>
      <trkpt lat="46.98962" lon="-0.95679">
        <ele>68</ele>
        <time>2012-05-03T13:42:28Z</time>
      </trkpt>
      <trkpt lat="46.98966" lon="-0.95676">
        <ele>68</ele>
        <time>2012-05-03T13:42:29Z</time>
      </trkpt>
      <trkpt lat="46.98971" lon="-0.95672">
        <ele>68</ele>
        <time>2012-05-03T13:42:30Z</time>
      </trkpt>
      <trkpt lat="46.98975" lon="-0.95668">
        <ele>68</ele>
        <time>2012-05-03T13:42:31Z</time>
      </trkpt>
      <trkpt lat="46.98979" lon="-0.95664">
        <ele>68</ele>
        <time>2012-05-03T13:42:32Z</time>
      </trkpt>
      <trkpt lat="46.98983" lon="-0.95659">
        <ele>68</ele>
        <time>2012-05-03T13:42:33Z</time>
      </trkpt>
      <trkpt lat="46.98987" lon="-0.95655">
        <ele>68</ele>
        <time>2012-05-03T13:42:34Z</time>
      </trkpt>
      <trkpt lat="46.98991" lon="-0.95651">
        <ele>68</ele>
        <time>2012-05-03T13:42:35Z</time>
      </trkpt>
      <trkpt lat="46.98995" lon="-0.95646">
        <ele>68</ele>
        <time>2012-05-03T13:42:36Z</time>
      </trkpt>
      <trkpt lat="46.98999" lon="-0.95642">
        <ele>68</ele>
        <time>2012-05-03T13:42:37Z</time>
      </trkpt>
      <trkpt lat="46.99004" lon="-0.95639">
        <ele>68</ele>
        <time>2012-05-03T13:42:38Z</time>
      </trkpt>
      <trkpt lat="46.99009" lon="-0.95636">
        <ele>68</ele>
        <time>2012-05-03T13:42:39Z</time>
      </trkpt>
      <trkpt lat="46.99015" lon="-0.95634">
        <ele>68</ele>
        <time>2012-05-03T13:42:40Z</time>
      </trkpt>
      <trkpt lat="46.99019" lon="-0.95631">
        <ele>68</ele>
        <time>2012-05-03T13:42:41Z</time>
      </trkpt>
      <trkpt lat="46.99024" lon="-0.95628">
        <ele>68</ele>
        <time>2012-05-03T13:42:42Z</time>
      </trkpt>
      <trkpt lat="46.99029" lon="-0.95624">
        <ele>68</ele>
        <time>2012-05-03T13:42:43Z</time>
      </trkpt>
      <trkpt lat="46.99034" lon="-0.9562">
        <ele>68</ele>
        <time>2012-05-03T13:42:44Z</time>
      </trkpt>
      <trkpt lat="46.99038" lon="-0.95615">
        <ele>68</ele>
        <time>2012-05-03T13:42:45Z</time>
      </trkpt>
      <trkpt lat="46.99042" lon="-0.95611">
        <ele>68</ele>
        <time>2012-05-03T13:42:46Z</time>
      </trkpt>
      <trkpt lat="46.99047" lon="-0.95608">
        <ele>68</ele>
        <time>2012-05-03T13:42:47Z</time>
      </trkpt>
      <trkpt lat="46.99051" lon="-0.95606">
        <ele>68</ele>
        <time>2012-05-03T13:42:48Z</time>
      </trkpt>
      <trkpt lat="46.99055" lon="-0.95605">
        <ele>68</ele>
        <time>2012-05-03T13:42:49Z</time>
      </trkpt>
      <trkpt lat="46.9906" lon="-0.95607">
        <ele>68</ele>
        <time>2012-05-03T13:42:50Z</time>
      </trkpt>
      <trkpt lat="46.99064" lon="-0.95609">
        <ele>68</ele>
        <time>2012-05-03T13:42:51Z</time>
      </trkpt>
      <trkpt lat="46.99068" lon="-0.9561">
        <ele>68</ele>
        <time>2012-05-03T13:42:52Z</time>
      </trkpt>
      <trkpt lat="46.99073" lon="-0.95612">
        <ele>68</ele>
        <time>2012-05-03T13:42:53Z</time>
      </trkpt>
      <trkpt lat="46.99078" lon="-0.95613">
        <ele>68</ele>
        <time>2012-05-03T13:42:54Z</time>
      </trkpt>
      <trkpt lat="46.99083" lon="-0.95615">
        <ele>68</ele>
        <time>2012-05-03T13:42:55Z</time>
      </trkpt>
      <trkpt lat="46.99087" lon="-0.95618">
        <ele>68</ele>
        <time>2012-05-03T13:42:56Z</time>
      </trkpt>
      <trkpt lat="46.99091" lon="-0.9562">
        <ele>68</ele>
        <time>2012-05-03T13:42:57Z</time>
      </trkpt>
      <trkpt lat="46.99096" lon="-0.95623">
        <ele>68</ele>
        <time>2012-05-03T13:42:58Z</time>
      </trkpt>
      <trkpt lat="46.991" lon="-0.95626">
        <ele>68</ele>
        <time>2012-05-03T13:42:59Z</time>
      </trkpt>
      <trkpt lat="46.99105" lon="-0.95628">
        <ele>68</ele>
        <time>2012-05-03T13:43:00Z</time>
      </trkpt>
      <trkpt lat="46.9911" lon="-0.95631">
        <ele>68</ele>
        <time>2012-05-03T13:43:01Z</time>
      </trkpt>
      <trkpt lat="46.99115" lon="-0.95633">
        <ele>68</ele>
        <time>2012-05-03T13:43:02Z</time>
      </trkpt>
      <trkpt lat="46.9912" lon="-0.95635">
        <ele>68</ele>
        <time>2012-05-03T13:43:03Z</time>
      </trkpt>
      <trkpt lat="46.99125" lon="-0.95636">
        <ele>68</ele>
        <time>2012-05-03T13:43:04Z</time>
      </trkpt>
      <trkpt lat="46.99129" lon="-0.95639">
        <ele>68</ele>
        <time>2012-05-03T13:43:05Z</time>
      </trkpt>
      <trkpt lat="46.99134" lon="-0.95642">
        <ele>68</ele>
        <time>2012-05-03T13:43:06Z</time>
      </trkpt>
      <trkpt lat="46.99138" lon="-0.95645">
        <ele>68</ele>
        <time>2012-05-03T13:43:07Z</time>
      </trkpt>
      <trkpt lat="46.99141" lon="-0.95649">
        <ele>68</ele>
        <time>2012-05-03T13:43:08Z</time>
      </trkpt>
      <trkpt lat="46.99144" lon="-0.95654">
        <ele>68</ele>
        <time>2012-05-03T13:43:09Z</time>
      </trkpt>
      <trkpt lat="46.99147" lon="-0.95658">
        <ele>68</ele>
        <time>2012-05-03T13:43:10Z</time>
      </trkpt>
      <trkpt lat="46.9915" lon="-0.95663">
        <ele>68</ele>
        <time>2012-05-03T13:43:11Z</time>
      </trkpt>
      <trkpt lat="46.99153" lon="-0.95667">
        <ele>68</ele>
        <time>2012-05-03T13:43:12Z</time>
      </trkpt>
      <trkpt lat="46.99156" lon="-0.95671">
        <ele>68</ele>
        <time>2012-05-03T13:43:13Z</time>
      </trkpt>
      <trkpt lat="46.99158" lon="-0.95676">
        <ele>68</ele>
        <time>2012-05-03T13:43:14Z</time>
      </trkpt>
      <trkpt lat="46.9916" lon="-0.9568">
        <ele>68</ele>
        <time>2012-05-03T13:43:15Z</time>
      </trkpt>
      <trkpt lat="46.99162" lon="-0.95683">
        <ele>68</ele>
        <time>2012-05-03T13:43:17Z</time>
      </trkpt>
      <trkpt lat="46.99165" lon="-0.95684">
        <ele>68</ele>
        <time>2012-05-03T13:43:17Z</time>
      </trkpt>
      <trkpt lat="46.99166" lon="-0.95684">
        <ele>68</ele>
        <time>2012-05-03T13:43:18Z</time>
      </trkpt>
      <trkpt lat="46.99168" lon="-0.95683">
        <ele>68</ele>
        <time>2012-05-03T13:43:20Z</time>
      </trkpt>
      <trkpt lat="46.99169" lon="-0.95682">
        <ele>68</ele>
        <time>2012-05-03T13:43:22Z</time>
      </trkpt>
      <trkpt lat="46.9917" lon="-0.9568">
        <ele>68</ele>
        <time>2012-05-03T13:43:23Z</time>
      </trkpt>
      <trkpt lat="46.99171" lon="-0.95679">
        <ele>68</ele>
        <time>2012-05-03T13:43:24Z</time>
      </trkpt>
      <trkpt lat="46.99173" lon="-0.95679">
        <ele>68</ele>
        <time>2012-05-03T13:43:26Z</time>
      </trkpt>
      <trkpt lat="46.99176" lon="-0.95681">
        <ele>68</ele>
        <time>2012-05-03T13:43:27Z</time>
      </trkpt>
      <trkpt lat="46.99179" lon="-0.95683">
        <ele>68</ele>
        <time>2012-05-03T13:43:28Z</time>
      </trkpt>
      <trkpt lat="46.99182" lon="-0.95685">
        <ele>68</ele>
        <time>2012-05-03T13:43:29Z</time>
      </trkpt>
      <trkpt lat="46.99186" lon="-0.95688">
        <ele>68</ele>
        <time>2012-05-03T13:43:30Z</time>
      </trkpt>
      <trkpt lat="46.9919" lon="-0.95691">
        <ele>68</ele>
        <time>2012-05-03T13:43:31Z</time>
      </trkpt>
      <trkpt lat="46.99193" lon="-0.95693">
        <ele>68</ele>
        <time>2012-05-03T13:43:32Z</time>
      </trkpt>
      <trkpt lat="46.99196" lon="-0.95696">
        <ele>68</ele>
        <time>2012-05-03T13:43:33Z</time>
      </trkpt>
      <trkpt lat="46.99199" lon="-0.95698">
        <ele>68</ele>
        <time>2012-05-03T13:43:34Z</time>
      </trkpt>
      <trkpt lat="46.99202" lon="-0.95702">
        <ele>68</ele>
        <time>2012-05-03T13:43:35Z</time>
      </trkpt>
      <trkpt lat="46.99205" lon="-0.95705">
        <ele>68</ele>
        <time>2012-05-03T13:43:36Z</time>
      </trkpt>
      <trkpt lat="46.99208" lon="-0.9571">
        <ele>68</ele>
        <time>2012-05-03T13:43:37Z</time>
      </trkpt>
      <trkpt lat="46.9921" lon="-0.95715">
        <ele>68</ele>
        <time>2012-05-03T13:43:38Z</time>
      </trkpt>
      <trkpt lat="46.99213" lon="-0.95719">
        <ele>68</ele>
        <time>2012-05-03T13:43:39Z</time>
      </trkpt>
      <trkpt lat="46.99215" lon="-0.95725">
        <ele>68</ele>
        <time>2012-05-03T13:43:40Z</time>
      </trkpt>
      <trkpt lat="46.99218" lon="-0.9573">
        <ele>68</ele>
        <time>2012-05-03T13:43:41Z</time>
      </trkpt>
      <trkpt lat="46.99221" lon="-0.95735">
        <ele>68</ele>
        <time>2012-05-03T13:43:42Z</time>
      </trkpt>
      <trkpt lat="46.99223" lon="-0.9574">
        <ele>68</ele>
        <time>2012-05-03T13:43:43Z</time>
      </trkpt>
      <trkpt lat="46.99226" lon="-0.95745">
        <ele>68</ele>
        <time>2012-05-03T13:43:44Z</time>
      </trkpt>
      <trkpt lat="46.99229" lon="-0.9575">
        <ele>68</ele>
        <time>2012-05-03T13:43:45Z</time>
      </trkpt>
      <trkpt lat="46.99231" lon="-0.95755">
        <ele>68</ele>
        <time>2012-05-03T13:43:46Z</time>
      </trkpt>
      <trkpt lat="46.99234" lon="-0.95759">
        <ele>68</ele>
        <time>2012-05-03T13:43:47Z</time>
      </trkpt>
      <trkpt lat="46.99237" lon="-0.95763">
        <ele>68</ele>
        <time>2012-05-03T13:43:48Z</time>
      </trkpt>
      <trkpt lat="46.9924" lon="-0.95767">
        <ele>68</ele>
        <time>2012-05-03T13:43:49Z</time>
      </trkpt>
      <trkpt lat="46.99243" lon="-0.95771">
        <ele>68</ele>
        <time>2012-05-03T13:43:50Z</time>
      </trkpt>
      <trkpt lat="46.99245" lon="-0.95774">
        <ele>68</ele>
        <time>2012-05-03T13:43:51Z</time>
      </trkpt>
      <trkpt lat="46.99247" lon="-0.95779">
        <ele>68</ele>
        <time>2012-05-03T13:43:52Z</time>
      </trkpt>
      <trkpt lat="46.99249" lon="-0.95783">
        <ele>68</ele>
        <time>2012-05-03T13:43:53Z</time>
      </trkpt>
      <trkpt lat="46.99251" lon="-0.95788">
        <ele>68</ele>
        <time>2012-05-03T13:43:54Z</time>
      </trkpt>
      <trkpt lat="46.99253" lon="-0.95792">
        <ele>68</ele>
        <time>2012-05-03T13:43:55Z</time>
      </trkpt>
      <trkpt lat="46.99257" lon="-0.95796">
        <ele>68</ele>
        <time>2012-05-03T13:43:56Z</time>
      </trkpt>
      <trkpt lat="46.9926" lon="-0.95801">
        <ele>68</ele>
        <time>2012-05-03T13:43:57Z</time>
      </trkpt>
      <trkpt lat="46.99263" lon="-0.95806">
        <ele>68</ele>
        <time>2012-05-03T13:43:58Z</time>
      </trkpt>
      <trkpt lat="46.99265" lon="-0.95811">
        <ele>68</ele>
        <time>2012-05-03T13:43:59Z</time>
      </trkpt>
      <trkpt lat="46.99268" lon="-0.95815">
        <ele>68</ele>
        <time>2012-05-03T13:44:00Z</time>
      </trkpt>
      <trkpt lat="46.99271" lon="-0.95819">
        <ele>68</ele>
        <time>2012-05-03T13:44:01Z</time>
      </trkpt>
      <trkpt lat="46.99273" lon="-0.95823">
        <ele>68</ele>
        <time>2012-05-03T13:44:02Z</time>
      </trkpt>
      <trkpt lat="46.99275" lon="-0.95826">
        <ele>69</ele>
        <time>2012-05-03T13:44:03Z</time>
      </trkpt>
      <trkpt lat="46.99277" lon="-0.9583">
        <ele>69</ele>
        <time>2012-05-03T13:44:04Z</time>
      </trkpt>
      <trkpt lat="46.9928" lon="-0.95833">
        <ele>70</ele>
        <time>2012-05-03T13:44:05Z</time>
      </trkpt>
      <trkpt lat="46.99282" lon="-0.95837">
        <ele>70</ele>
        <time>2012-05-03T13:44:06Z</time>
      </trkpt>
      <trkpt lat="46.99284" lon="-0.9584">
        <ele>70</ele>
        <time>2012-05-03T13:44:07Z</time>
      </trkpt>
      <trkpt lat="46.99286" lon="-0.95844">
        <ele>70</ele>
        <time>2012-05-03T13:44:08Z</time>
      </trkpt>
      <trkpt lat="46.99289" lon="-0.95847">
        <ele>71</ele>
        <time>2012-05-03T13:44:09Z</time>
      </trkpt>
      <trkpt lat="46.99292" lon="-0.95852">
        <ele>71</ele>
        <time>2012-05-03T13:44:10Z</time>
      </trkpt>
      <trkpt lat="46.99295" lon="-0.95859">
        <ele>71</ele>
        <time>2012-05-03T13:44:11Z</time>
      </trkpt>
      <trkpt lat="46.99299" lon="-0.95868">
        <ele>71</ele>
        <time>2012-05-03T13:44:12Z</time>
      </trkpt>
      <trkpt lat="46.99303" lon="-0.95875">
        <ele>71</ele>
        <time>2012-05-03T13:44:13Z</time>
      </trkpt>
      <trkpt lat="46.99307" lon="-0.95881">
        <ele>71</ele>
        <time>2012-05-03T13:44:14Z</time>
      </trkpt>
      <trkpt lat="46.9931" lon="-0.95886">
        <ele>71</ele>
        <time>2012-05-03T13:44:15Z</time>
      </trkpt>
      <trkpt lat="46.99311" lon="-0.9589">
        <ele>71</ele>
        <time>2012-05-03T13:44:16Z</time>
      </trkpt>
      <trkpt lat="46.99309" lon="-0.95894">
        <ele>71</ele>
        <time>2012-05-03T13:44:17Z</time>
      </trkpt>
      <trkpt lat="46.99309" lon="-0.95898">
        <ele>71</ele>
        <time>2012-05-03T13:44:18Z</time>
      </trkpt>
      <trkpt lat="46.99308" lon="-0.95903">
        <ele>71</ele>
        <time>2012-05-03T13:44:19Z</time>
      </trkpt>
      <trkpt lat="46.99308" lon="-0.95907">
        <ele>71</ele>
        <time>2012-05-03T13:44:20Z</time>
      </trkpt>
      <trkpt lat="46.99311" lon="-0.95913">
        <ele>71</ele>
        <time>2012-05-03T13:44:21Z</time>
      </trkpt>
      <trkpt lat="46.99312" lon="-0.95919">
        <ele>71</ele>
        <time>2012-05-03T13:44:22Z</time>
      </trkpt>
      <trkpt lat="46.99314" lon="-0.95925">
        <ele>71</ele>
        <time>2012-05-03T13:44:23Z</time>
      </trkpt>
      <trkpt lat="46.99317" lon="-0.9593">
        <ele>71</ele>
        <time>2012-05-03T13:44:24Z</time>
      </trkpt>
      <trkpt lat="46.99319" lon="-0.95935">
        <ele>71</ele>
        <time>2012-05-03T13:44:25Z</time>
      </trkpt>
      <trkpt lat="46.99323" lon="-0.95941">
        <ele>71</ele>
        <time>2012-05-03T13:44:26Z</time>
      </trkpt>
      <trkpt lat="46.99326" lon="-0.95946">
        <ele>71</ele>
        <time>2012-05-03T13:44:27Z</time>
      </trkpt>
      <trkpt lat="46.99329" lon="-0.95951">
        <ele>71</ele>
        <time>2012-05-03T13:44:28Z</time>
      </trkpt>
      <trkpt lat="46.99332" lon="-0.95957">
        <ele>71</ele>
        <time>2012-05-03T13:44:29Z</time>
      </trkpt>
      <trkpt lat="46.99335" lon="-0.95962">
        <ele>71</ele>
        <time>2012-05-03T13:44:30Z</time>
      </trkpt>
      <trkpt lat="46.99339" lon="-0.95966">
        <ele>71</ele>
        <time>2012-05-03T13:44:31Z</time>
      </trkpt>
      <trkpt lat="46.99342" lon="-0.9597">
        <ele>71</ele>
        <time>2012-05-03T13:44:32Z</time>
      </trkpt>
      <trkpt lat="46.99346" lon="-0.95974">
        <ele>71</ele>
        <time>2012-05-03T13:44:33Z</time>
      </trkpt>
      <trkpt lat="46.99349" lon="-0.95978">
        <ele>71</ele>
        <time>2012-05-03T13:44:34Z</time>
      </trkpt>
      <trkpt lat="46.99353" lon="-0.95982">
        <ele>70</ele>
        <time>2012-05-03T13:44:35Z</time>
      </trkpt>
      <trkpt lat="46.99356" lon="-0.95985">
        <ele>70</ele>
        <time>2012-05-03T13:44:36Z</time>
      </trkpt>
      <trkpt lat="46.9936" lon="-0.95987">
        <ele>70</ele>
        <time>2012-05-03T13:44:37Z</time>
      </trkpt>
      <trkpt lat="46.99363" lon="-0.95988">
        <ele>69</ele>
        <time>2012-05-03T13:44:38Z</time>
      </trkpt>
      <trkpt lat="46.99367" lon="-0.9599">
        <ele>69</ele>
        <time>2012-05-03T13:44:39Z</time>
      </trkpt>
      <trkpt lat="46.9937" lon="-0.95991">
        <ele>69</ele>
        <time>2012-05-03T13:44:40Z</time>
      </trkpt>
      <trkpt lat="46.99374" lon="-0.95993">
        <ele>69</ele>
        <time>2012-05-03T13:44:41Z</time>
      </trkpt>
      <trkpt lat="46.99376" lon="-0.95995">
        <ele>69</ele>
        <time>2012-05-03T13:44:42Z</time>
      </trkpt>
      <trkpt lat="46.99378" lon="-0.95997">
        <ele>69</ele>
        <time>2012-05-03T13:44:43Z</time>
      </trkpt>
      <trkpt lat="46.99382" lon="-0.95999">
        <ele>69</ele>
        <time>2012-05-03T13:44:44Z</time>
      </trkpt>
      <trkpt lat="46.99385" lon="-0.96001">
        <ele>69</ele>
        <time>2012-05-03T13:44:45Z</time>
      </trkpt>
      <trkpt lat="46.99387" lon="-0.96003">
        <ele>69</ele>
        <time>2012-05-03T13:44:46Z</time>
      </trkpt>
      <trkpt lat="46.9939" lon="-0.96006">
        <ele>69</ele>
        <time>2012-05-03T13:44:47Z</time>
      </trkpt>
      <trkpt lat="46.99393" lon="-0.96009">
        <ele>69</ele>
        <time>2012-05-03T13:44:48Z</time>
      </trkpt>
      <trkpt lat="46.99395" lon="-0.96012">
        <ele>69</ele>
        <time>2012-05-03T13:44:49Z</time>
      </trkpt>
      <trkpt lat="46.99398" lon="-0.96014">
        <ele>69</ele>
        <time>2012-05-03T13:44:50Z</time>
      </trkpt>
      <trkpt lat="46.99401" lon="-0.96017">
        <ele>69</ele>
        <time>2012-05-03T13:44:51Z</time>
      </trkpt>
      <trkpt lat="46.99403" lon="-0.9602">
        <ele>69</ele>
        <time>2012-05-03T13:44:52Z</time>
      </trkpt>
      <trkpt lat="46.99406" lon="-0.96022">
        <ele>69</ele>
        <time>2012-05-03T13:44:53Z</time>
      </trkpt>
      <trkpt lat="46.99409" lon="-0.96024">
        <ele>69</ele>
        <time>2012-05-03T13:44:54Z</time>
      </trkpt>
      <trkpt lat="46.99412" lon="-0.96026">
        <ele>69</ele>
        <time>2012-05-03T13:44:55Z</time>
      </trkpt>
      <trkpt lat="46.99414" lon="-0.96028">
        <ele>69</ele>
        <time>2012-05-03T13:44:56Z</time>
      </trkpt>
      <trkpt lat="46.99417" lon="-0.9603">
        <ele>69</ele>
        <time>2012-05-03T13:44:57Z</time>
      </trkpt>
      <trkpt lat="46.9942" lon="-0.96033">
        <ele>69</ele>
        <time>2012-05-03T13:44:58Z</time>
      </trkpt>
      <trkpt lat="46.99422" lon="-0.96035">
        <ele>70</ele>
        <time>2012-05-03T13:44:59Z</time>
      </trkpt>
      <trkpt lat="46.99424" lon="-0.96038">
        <ele>70</ele>
        <time>2012-05-03T13:45:00Z</time>
      </trkpt>
      <trkpt lat="46.99426" lon="-0.9604">
        <ele>71</ele>
        <time>2012-05-03T13:45:01Z</time>
      </trkpt>
      <trkpt lat="46.99427" lon="-0.96043">
        <ele>71</ele>
        <time>2012-05-03T13:45:02Z</time>
      </trkpt>
      <trkpt lat="46.99428" lon="-0.96045">
        <ele>71</ele>
        <time>2012-05-03T13:45:03Z</time>
      </trkpt>
      <trkpt lat="46.99429" lon="-0.96048">
        <ele>72</ele>
        <time>2012-05-03T13:45:04Z</time>
      </trkpt>
      <trkpt lat="46.9943" lon="-0.96052">
        <ele>72</ele>
        <time>2012-05-03T13:45:05Z</time>
      </trkpt>
      <trkpt lat="46.99432" lon="-0.96057">
        <ele>72</ele>
        <time>2012-05-03T13:45:06Z</time>
      </trkpt>
      <trkpt lat="46.99434" lon="-0.96063">
        <ele>72</ele>
        <time>2012-05-03T13:45:07Z</time>
      </trkpt>
      <trkpt lat="46.99436" lon="-0.96071">
        <ele>72</ele>
        <time>2012-05-03T13:45:08Z</time>
      </trkpt>
      <trkpt lat="46.99438" lon="-0.9608">
        <ele>72</ele>
        <time>2012-05-03T13:45:09Z</time>
      </trkpt>
      <trkpt lat="46.9944" lon="-0.9609">
        <ele>72</ele>
        <time>2012-05-03T13:45:10Z</time>
      </trkpt>
      <trkpt lat="46.99442" lon="-0.961">
        <ele>72</ele>
        <time>2012-05-03T13:45:11Z</time>
      </trkpt>
      <trkpt lat="46.99444" lon="-0.96111">
        <ele>72</ele>
        <time>2012-05-03T13:45:12Z</time>
      </trkpt>
      <trkpt lat="46.99448" lon="-0.96124">
        <ele>72</ele>
        <time>2012-05-03T13:45:13Z</time>
      </trkpt>
      <trkpt lat="46.99452" lon="-0.96137">
        <ele>72</ele>
        <time>2012-05-03T13:45:14Z</time>
      </trkpt>
      <trkpt lat="46.99456" lon="-0.9615">
        <ele>72</ele>
        <time>2012-05-03T13:45:15Z</time>
      </trkpt>
      <trkpt lat="46.99459" lon="-0.96163">
        <ele>72</ele>
        <time>2012-05-03T13:45:17Z</time>
      </trkpt>
      <trkpt lat="46.99463" lon="-0.96176">
        <ele>72</ele>
        <time>2012-05-03T13:45:17Z</time>
      </trkpt>
      <trkpt lat="46.99467" lon="-0.96189">
        <ele>71</ele>
        <time>2012-05-03T13:45:18Z</time>
      </trkpt>
      <trkpt lat="46.9947" lon="-0.962">
        <ele>70</ele>
        <time>2012-05-03T13:45:19Z</time>
      </trkpt>
      <trkpt lat="46.99474" lon="-0.96212">
        <ele>69</ele>
        <time>2012-05-03T13:45:20Z</time>
      </trkpt>
      <trkpt lat="46.99478" lon="-0.96224">
        <ele>69</ele>
        <time>2012-05-03T13:45:21Z</time>
      </trkpt>
      <trkpt lat="46.99482" lon="-0.96235">
        <ele>68</ele>
        <time>2012-05-03T13:45:22Z</time>
      </trkpt>
      <trkpt lat="46.99486" lon="-0.96246">
        <ele>67</ele>
        <time>2012-05-03T13:45:23Z</time>
      </trkpt>
      <trkpt lat="46.99488" lon="-0.96257">
        <ele>67</ele>
        <time>2012-05-03T13:45:24Z</time>
      </trkpt>
      <trkpt lat="46.9949" lon="-0.96267">
        <ele>67</ele>
        <time>2012-05-03T13:45:25Z</time>
      </trkpt>
      <trkpt lat="46.99493" lon="-0.96278">
        <ele>66</ele>
        <time>2012-05-03T13:45:26Z</time>
      </trkpt>
      <trkpt lat="46.99496" lon="-0.96288">
        <ele>66</ele>
        <time>2012-05-03T13:45:27Z</time>
      </trkpt>
      <trkpt lat="46.99498" lon="-0.96297">
        <ele>66</ele>
        <time>2012-05-03T13:45:28Z</time>
      </trkpt>
      <trkpt lat="46.99501" lon="-0.96306">
        <ele>66</ele>
        <time>2012-05-03T13:45:29Z</time>
      </trkpt>
      <trkpt lat="46.99503" lon="-0.96315">
        <ele>66</ele>
        <time>2012-05-03T13:45:30Z</time>
      </trkpt>
      <trkpt lat="46.99506" lon="-0.96323">
        <ele>66</ele>
        <time>2012-05-03T13:45:31Z</time>
      </trkpt>
      <trkpt lat="46.99508" lon="-0.9633">
        <ele>66</ele>
        <time>2012-05-03T13:45:32Z</time>
      </trkpt>
      <trkpt lat="46.99511" lon="-0.96337">
        <ele>66</ele>
        <time>2012-05-03T13:45:33Z</time>
      </trkpt>
      <trkpt lat="46.99514" lon="-0.96343">
        <ele>66</ele>
        <time>2012-05-03T13:45:34Z</time>
      </trkpt>
      <trkpt lat="46.99517" lon="-0.96349">
        <ele>66</ele>
        <time>2012-05-03T13:45:35Z</time>
      </trkpt>
      <trkpt lat="46.9952" lon="-0.96355">
        <ele>66</ele>
        <time>2012-05-03T13:45:36Z</time>
      </trkpt>
      <trkpt lat="46.99523" lon="-0.96361">
        <ele>66</ele>
        <time>2012-05-03T13:45:37Z</time>
      </trkpt>
      <trkpt lat="46.99526" lon="-0.96367">
        <ele>66</ele>
        <time>2012-05-03T13:45:38Z</time>
      </trkpt>
      <trkpt lat="46.99529" lon="-0.96373">
        <ele>66</ele>
        <time>2012-05-03T13:45:39Z</time>
      </trkpt>
      <trkpt lat="46.99532" lon="-0.96379">
        <ele>66</ele>
        <time>2012-05-03T13:45:40Z</time>
      </trkpt>
      <trkpt lat="46.99535" lon="-0.96385">
        <ele>66</ele>
        <time>2012-05-03T13:45:41Z</time>
      </trkpt>
      <trkpt lat="46.99538" lon="-0.9639">
        <ele>66</ele>
        <time>2012-05-03T13:45:42Z</time>
      </trkpt>
      <trkpt lat="46.99541" lon="-0.96396">
        <ele>66</ele>
        <time>2012-05-03T13:45:43Z</time>
      </trkpt>
      <trkpt lat="46.99545" lon="-0.96403">
        <ele>66</ele>
        <time>2012-05-03T13:45:44Z</time>
      </trkpt>
      <trkpt lat="46.99548" lon="-0.96408">
        <ele>66</ele>
        <time>2012-05-03T13:45:45Z</time>
      </trkpt>
      <trkpt lat="46.99551" lon="-0.96415">
        <ele>66</ele>
        <time>2012-05-03T13:45:46Z</time>
      </trkpt>
      <trkpt lat="46.99554" lon="-0.9642">
        <ele>66</ele>
        <time>2012-05-03T13:45:47Z</time>
      </trkpt>
      <trkpt lat="46.99557" lon="-0.96426">
        <ele>66</ele>
        <time>2012-05-03T13:45:48Z</time>
      </trkpt>
      <trkpt lat="46.99561" lon="-0.96432">
        <ele>66</ele>
        <time>2012-05-03T13:45:49Z</time>
      </trkpt>
      <trkpt lat="46.99564" lon="-0.96439">
        <ele>66</ele>
        <time>2012-05-03T13:45:50Z</time>
      </trkpt>
      <trkpt lat="46.99566" lon="-0.96445">
        <ele>66</ele>
        <time>2012-05-03T13:45:51Z</time>
      </trkpt>
      <trkpt lat="46.99569" lon="-0.96452">
        <ele>66</ele>
        <time>2012-05-03T13:45:52Z</time>
      </trkpt>
      <trkpt lat="46.99571" lon="-0.96458">
        <ele>66</ele>
        <time>2012-05-03T13:45:53Z</time>
      </trkpt>
      <trkpt lat="46.99574" lon="-0.96465">
        <ele>66</ele>
        <time>2012-05-03T13:45:54Z</time>
      </trkpt>
      <trkpt lat="46.99577" lon="-0.96472">
        <ele>66</ele>
        <time>2012-05-03T13:45:55Z</time>
      </trkpt>
      <trkpt lat="46.9958" lon="-0.96479">
        <ele>66</ele>
        <time>2012-05-03T13:45:56Z</time>
      </trkpt>
      <trkpt lat="46.99584" lon="-0.96487">
        <ele>66</ele>
        <time>2012-05-03T13:45:57Z</time>
      </trkpt>
      <trkpt lat="46.99588" lon="-0.96495">
        <ele>66</ele>
        <time>2012-05-03T13:45:58Z</time>
      </trkpt>
      <trkpt lat="46.99592" lon="-0.96503">
        <ele>66</ele>
        <time>2012-05-03T13:45:59Z</time>
      </trkpt>
      <trkpt lat="46.99596" lon="-0.96511">
        <ele>66</ele>
        <time>2012-05-03T13:46:00Z</time>
      </trkpt>
      <trkpt lat="46.99601" lon="-0.96518">
        <ele>66</ele>
        <time>2012-05-03T13:46:01Z</time>
      </trkpt>
      <trkpt lat="46.99606" lon="-0.96526">
        <ele>66</ele>
        <time>2012-05-03T13:46:02Z</time>
      </trkpt>
      <trkpt lat="46.9961" lon="-0.96534">
        <ele>66</ele>
        <time>2012-05-03T13:46:03Z</time>
      </trkpt>
      <trkpt lat="46.99614" lon="-0.96542">
        <ele>66</ele>
        <time>2012-05-03T13:46:04Z</time>
      </trkpt>
      <trkpt lat="46.99618" lon="-0.96549">
        <ele>66</ele>
        <time>2012-05-03T13:46:05Z</time>
      </trkpt>
      <trkpt lat="46.99622" lon="-0.96556">
        <ele>66</ele>
        <time>2012-05-03T13:46:06Z</time>
      </trkpt>
      <trkpt lat="46.99625" lon="-0.96562">
        <ele>66</ele>
        <time>2012-05-03T13:46:07Z</time>
      </trkpt>
      <trkpt lat="46.99629" lon="-0.96568">
        <ele>66</ele>
        <time>2012-05-03T13:46:08Z</time>
      </trkpt>
      <trkpt lat="46.99632" lon="-0.96574">
        <ele>66</ele>
        <time>2012-05-03T13:46:09Z</time>
      </trkpt>
      <trkpt lat="46.99635" lon="-0.9658">
        <ele>66</ele>
        <time>2012-05-03T13:46:10Z</time>
      </trkpt>
      <trkpt lat="46.99638" lon="-0.96586">
        <ele>66</ele>
        <time>2012-05-03T13:46:11Z</time>
      </trkpt>
      <trkpt lat="46.99642" lon="-0.96593">
        <ele>66</ele>
        <time>2012-05-03T13:46:12Z</time>
      </trkpt>
      <trkpt lat="46.99645" lon="-0.96599">
        <ele>66</ele>
        <time>2012-05-03T13:46:13Z</time>
      </trkpt>
      <trkpt lat="46.99647" lon="-0.96607">
        <ele>66</ele>
        <time>2012-05-03T13:46:14Z</time>
      </trkpt>
      <trkpt lat="46.99649" lon="-0.96614">
        <ele>66</ele>
        <time>2012-05-03T13:46:15Z</time>
      </trkpt>
      <trkpt lat="46.99652" lon="-0.96621">
        <ele>66</ele>
        <time>2012-05-03T13:46:17Z</time>
      </trkpt>
      <trkpt lat="46.99654" lon="-0.96628">
        <ele>66</ele>
        <time>2012-05-03T13:46:17Z</time>
      </trkpt>
      <trkpt lat="46.99657" lon="-0.96634">
        <ele>66</ele>
        <time>2012-05-03T13:46:18Z</time>
      </trkpt>
      <trkpt lat="46.99659" lon="-0.9664">
        <ele>66</ele>
        <time>2012-05-03T13:46:19Z</time>
      </trkpt>
      <trkpt lat="46.99662" lon="-0.96646">
        <ele>66</ele>
        <time>2012-05-03T13:46:20Z</time>
      </trkpt>
      <trkpt lat="46.99664" lon="-0.96654">
        <ele>66</ele>
        <time>2012-05-03T13:46:21Z</time>
      </trkpt>
      <trkpt lat="46.99663" lon="-0.96663">
        <ele>66</ele>
        <time>2012-05-03T13:46:22Z</time>
      </trkpt>
      <trkpt lat="46.99663" lon="-0.96672">
        <ele>66</ele>
        <time>2012-05-03T13:46:23Z</time>
      </trkpt>
      <trkpt lat="46.99662" lon="-0.9668">
        <ele>66</ele>
        <time>2012-05-03T13:46:24Z</time>
      </trkpt>
      <trkpt lat="46.99659" lon="-0.96689">
        <ele>66</ele>
        <time>2012-05-03T13:46:25Z</time>
      </trkpt>
      <trkpt lat="46.99658" lon="-0.96698">
        <ele>66</ele>
        <time>2012-05-03T13:46:26Z</time>
      </trkpt>
      <trkpt lat="46.99656" lon="-0.96706">
        <ele>66</ele>
        <time>2012-05-03T13:46:27Z</time>
      </trkpt>
      <trkpt lat="46.99653" lon="-0.96715">
        <ele>66</ele>
        <time>2012-05-03T13:46:28Z</time>
      </trkpt>
      <trkpt lat="46.9965" lon="-0.96722">
        <ele>66</ele>
        <time>2012-05-03T13:46:29Z</time>
      </trkpt>
      <trkpt lat="46.99646" lon="-0.9673">
        <ele>66</ele>
        <time>2012-05-03T13:46:30Z</time>
      </trkpt>
      <trkpt lat="46.99643" lon="-0.96738">
        <ele>66</ele>
        <time>2012-05-03T13:46:31Z</time>
      </trkpt>
      <trkpt lat="46.99639" lon="-0.96744">
        <ele>66</ele>
        <time>2012-05-03T13:46:32Z</time>
      </trkpt>
      <trkpt lat="46.99635" lon="-0.96751">
        <ele>66</ele>
        <time>2012-05-03T13:46:33Z</time>
      </trkpt>
      <trkpt lat="46.99631" lon="-0.96757">
        <ele>66</ele>
        <time>2012-05-03T13:46:34Z</time>
      </trkpt>
      <trkpt lat="46.99627" lon="-0.96763">
        <ele>66</ele>
        <time>2012-05-03T13:46:35Z</time>
      </trkpt>
      <trkpt lat="46.99622" lon="-0.96769">
        <ele>66</ele>
        <time>2012-05-03T13:46:36Z</time>
      </trkpt>
      <trkpt lat="46.99618" lon="-0.96774">
        <ele>66</ele>
        <time>2012-05-03T13:46:37Z</time>
      </trkpt>
      <trkpt lat="46.99613" lon="-0.9678">
        <ele>66</ele>
        <time>2012-05-03T13:46:38Z</time>
      </trkpt>
      <trkpt lat="46.99609" lon="-0.96785">
        <ele>66</ele>
        <time>2012-05-03T13:46:39Z</time>
      </trkpt>
      <trkpt lat="46.99604" lon="-0.96791">
        <ele>66</ele>
        <time>2012-05-03T13:46:40Z</time>
      </trkpt>
      <trkpt lat="46.996" lon="-0.96796">
        <ele>66</ele>
        <time>2012-05-03T13:46:41Z</time>
      </trkpt>
      <trkpt lat="46.99596" lon="-0.968">
        <ele>66</ele>
        <time>2012-05-03T13:46:42Z</time>
      </trkpt>
      <trkpt lat="46.99592" lon="-0.96805">
        <ele>66</ele>
        <time>2012-05-03T13:46:43Z</time>
      </trkpt>
      <trkpt lat="46.99588" lon="-0.9681">
        <ele>66</ele>
        <time>2012-05-03T13:46:44Z</time>
      </trkpt>
      <trkpt lat="46.99584" lon="-0.96816">
        <ele>66</ele>
        <time>2012-05-03T13:46:45Z</time>
      </trkpt>
      <trkpt lat="46.9958" lon="-0.96821">
        <ele>66</ele>
        <time>2012-05-03T13:46:46Z</time>
      </trkpt>
      <trkpt lat="46.99576" lon="-0.96827">
        <ele>66</ele>
        <time>2012-05-03T13:46:47Z</time>
      </trkpt>
      <trkpt lat="46.99572" lon="-0.96834">
        <ele>66</ele>
        <time>2012-05-03T13:46:48Z</time>
      </trkpt>
      <trkpt lat="46.99568" lon="-0.96841">
        <ele>66</ele>
        <time>2012-05-03T13:46:49Z</time>
      </trkpt>
      <trkpt lat="46.99564" lon="-0.96848">
        <ele>66</ele>
        <time>2012-05-03T13:46:50Z</time>
      </trkpt>
      <trkpt lat="46.9956" lon="-0.96854">
        <ele>66</ele>
        <time>2012-05-03T13:46:51Z</time>
      </trkpt>
      <trkpt lat="46.99557" lon="-0.96859">
        <ele>66</ele>
        <time>2012-05-03T13:46:52Z</time>
      </trkpt>
      <trkpt lat="46.99554" lon="-0.96864">
        <ele>66</ele>
        <time>2012-05-03T13:46:53Z</time>
      </trkpt>
      <trkpt lat="46.99551" lon="-0.96868">
        <ele>66</ele>
        <time>2012-05-03T13:46:54Z</time>
      </trkpt>
      <trkpt lat="46.99551" lon="-0.96871">
        <ele>66</ele>
        <time>2012-05-03T13:46:55Z</time>
      </trkpt>
      <trkpt lat="46.9955" lon="-0.96873">
        <ele>66</ele>
        <time>2012-05-03T13:46:56Z</time>
      </trkpt>
      <trkpt lat="46.99549" lon="-0.96876">
        <ele>66</ele>
        <time>2012-05-03T13:46:57Z</time>
      </trkpt>
      <trkpt lat="46.99549" lon="-0.96877">
        <ele>66</ele>
        <time>2012-05-03T13:46:58Z</time>
      </trkpt>
      <trkpt lat="46.99549" lon="-0.9688">
        <ele>66</ele>
        <time>2012-05-03T13:47:00Z</time>
      </trkpt>
      <trkpt lat="46.99549" lon="-0.96881">
        <ele>66</ele>
        <time>2012-05-03T13:47:01Z</time>
      </trkpt>
      <trkpt lat="46.99548" lon="-0.96883">
        <ele>66</ele>
        <time>2012-05-03T13:47:02Z</time>
      </trkpt>
      <trkpt lat="46.99548" lon="-0.96885">
        <ele>66</ele>
        <time>2012-05-03T13:47:03Z</time>
      </trkpt>
      <trkpt lat="46.99548" lon="-0.96887">
        <ele>66</ele>
        <time>2012-05-03T13:47:05Z</time>
      </trkpt>
      <trkpt lat="46.99548" lon="-0.96889">
        <ele>66</ele>
        <time>2012-05-03T13:47:06Z</time>
      </trkpt>
      <trkpt lat="46.99548" lon="-0.96892">
        <ele>66</ele>
        <time>2012-05-03T13:47:07Z</time>
      </trkpt>
      <trkpt lat="46.99547" lon="-0.96898">
        <ele>66</ele>
        <time>2012-05-03T13:47:08Z</time>
      </trkpt>
      <trkpt lat="46.99546" lon="-0.96904">
        <ele>66</ele>
        <time>2012-05-03T13:47:09Z</time>
      </trkpt>
      <trkpt lat="46.99544" lon="-0.9691">
        <ele>66</ele>
        <time>2012-05-03T13:47:10Z</time>
      </trkpt>
      <trkpt lat="46.99543" lon="-0.96917">
        <ele>66</ele>
        <time>2012-05-03T13:47:11Z</time>
      </trkpt>
      <trkpt lat="46.99543" lon="-0.96923">
        <ele>66</ele>
        <time>2012-05-03T13:47:12Z</time>
      </trkpt>
      <trkpt lat="46.99541" lon="-0.96929">
        <ele>66</ele>
        <time>2012-05-03T13:47:13Z</time>
      </trkpt>
      <trkpt lat="46.9954" lon="-0.96935">
        <ele>66</ele>
        <time>2012-05-03T13:47:14Z</time>
      </trkpt>
      <trkpt lat="46.99539" lon="-0.96941">
        <ele>66</ele>
        <time>2012-05-03T13:47:15Z</time>
      </trkpt>
      <trkpt lat="46.99537" lon="-0.96947">
        <ele>66</ele>
        <time>2012-05-03T13:47:17Z</time>
      </trkpt>
      <trkpt lat="46.99535" lon="-0.96954">
        <ele>66</ele>
        <time>2012-05-03T13:47:17Z</time>
      </trkpt>
      <trkpt lat="46.99534" lon="-0.96962">
        <ele>66</ele>
        <time>2012-05-03T13:47:18Z</time>
      </trkpt>
      <trkpt lat="46.99534" lon="-0.96969">
        <ele>66</ele>
        <time>2012-05-03T13:47:19Z</time>
      </trkpt>
      <trkpt lat="46.99533" lon="-0.96977">
        <ele>66</ele>
        <time>2012-05-03T13:47:20Z</time>
      </trkpt>
      <trkpt lat="46.99533" lon="-0.96984">
        <ele>66</ele>
        <time>2012-05-03T13:47:21Z</time>
      </trkpt>
      <trkpt lat="46.99532" lon="-0.96991">
        <ele>66</ele>
        <time>2012-05-03T13:47:22Z</time>
      </trkpt>
      <trkpt lat="46.9953" lon="-0.96999">
        <ele>66</ele>
        <time>2012-05-03T13:47:23Z</time>
      </trkpt>
      <trkpt lat="46.99529" lon="-0.97005">
        <ele>66</ele>
        <time>2012-05-03T13:47:24Z</time>
      </trkpt>
      <trkpt lat="46.99528" lon="-0.97013">
        <ele>66</ele>
        <time>2012-05-03T13:47:25Z</time>
      </trkpt>
      <trkpt lat="46.99527" lon="-0.97021">
        <ele>66</ele>
        <time>2012-05-03T13:47:26Z</time>
      </trkpt>
      <trkpt lat="46.99527" lon="-0.97029">
        <ele>66</ele>
        <time>2012-05-03T13:47:27Z</time>
      </trkpt>
      <trkpt lat="46.99526" lon="-0.97038">
        <ele>65</ele>
        <time>2012-05-03T13:47:28Z</time>
      </trkpt>
      <trkpt lat="46.99527" lon="-0.97047">
        <ele>65</ele>
        <time>2012-05-03T13:47:29Z</time>
      </trkpt>
      <trkpt lat="46.99527" lon="-0.97055">
        <ele>65</ele>
        <time>2012-05-03T13:47:30Z</time>
      </trkpt>
      <trkpt lat="46.99529" lon="-0.97064">
        <ele>65</ele>
        <time>2012-05-03T13:47:31Z</time>
      </trkpt>
      <trkpt lat="46.9953" lon="-0.97072">
        <ele>64</ele>
        <time>2012-05-03T13:47:32Z</time>
      </trkpt>
      <trkpt lat="46.9953" lon="-0.97081">
        <ele>64</ele>
        <time>2012-05-03T13:47:33Z</time>
      </trkpt>
      <trkpt lat="46.99528" lon="-0.97091">
        <ele>64</ele>
        <time>2012-05-03T13:47:34Z</time>
      </trkpt>
      <trkpt lat="46.99528" lon="-0.971">
        <ele>64</ele>
        <time>2012-05-03T13:47:35Z</time>
      </trkpt>
      <trkpt lat="46.99527" lon="-0.9711">
        <ele>63</ele>
        <time>2012-05-03T13:47:36Z</time>
      </trkpt>
      <trkpt lat="46.99527" lon="-0.97119">
        <ele>63</ele>
        <time>2012-05-03T13:47:37Z</time>
      </trkpt>
      <trkpt lat="46.99525" lon="-0.97129">
        <ele>63</ele>
        <time>2012-05-03T13:47:38Z</time>
      </trkpt>
      <trkpt lat="46.99525" lon="-0.97139">
        <ele>63</ele>
        <time>2012-05-03T13:47:39Z</time>
      </trkpt>
      <trkpt lat="46.99525" lon="-0.97148">
        <ele>63</ele>
        <time>2012-05-03T13:47:40Z</time>
      </trkpt>
      <trkpt lat="46.99525" lon="-0.97156">
        <ele>62</ele>
        <time>2012-05-03T13:47:41Z</time>
      </trkpt>
      <trkpt lat="46.99527" lon="-0.97164">
        <ele>62</ele>
        <time>2012-05-03T13:47:42Z</time>
      </trkpt>
      <trkpt lat="46.99529" lon="-0.97171">
        <ele>62</ele>
        <time>2012-05-03T13:47:43Z</time>
      </trkpt>
      <trkpt lat="46.99529" lon="-0.97178">
        <ele>62</ele>
        <time>2012-05-03T13:47:44Z</time>
      </trkpt>
      <trkpt lat="46.99529" lon="-0.97185">
        <ele>62</ele>
        <time>2012-05-03T13:47:45Z</time>
      </trkpt>
      <trkpt lat="46.99528" lon="-0.97192">
        <ele>62</ele>
        <time>2012-05-03T13:47:46Z</time>
      </trkpt>
      <trkpt lat="46.99527" lon="-0.97199">
        <ele>62</ele>
        <time>2012-05-03T13:47:47Z</time>
      </trkpt>
      <trkpt lat="46.99527" lon="-0.97206">
        <ele>62</ele>
        <time>2012-05-03T13:47:48Z</time>
      </trkpt>
      <trkpt lat="46.99526" lon="-0.97213">
        <ele>62</ele>
        <time>2012-05-03T13:47:49Z</time>
      </trkpt>
      <trkpt lat="46.99524" lon="-0.9722">
        <ele>62</ele>
        <time>2012-05-03T13:47:50Z</time>
      </trkpt>
      <trkpt lat="46.99522" lon="-0.97227">
        <ele>62</ele>
        <time>2012-05-03T13:47:51Z</time>
      </trkpt>
      <trkpt lat="46.99519" lon="-0.97234">
        <ele>62</ele>
        <time>2012-05-03T13:47:52Z</time>
      </trkpt>
      <trkpt lat="46.99517" lon="-0.97242">
        <ele>62</ele>
        <time>2012-05-03T13:47:53Z</time>
      </trkpt>
      <trkpt lat="46.99514" lon="-0.9725">
        <ele>62</ele>
        <time>2012-05-03T13:47:54Z</time>
      </trkpt>
      <trkpt lat="46.99512" lon="-0.97258">
        <ele>62</ele>
        <time>2012-05-03T13:47:55Z</time>
      </trkpt>
      <trkpt lat="46.99509" lon="-0.97267">
        <ele>62</ele>
        <time>2012-05-03T13:47:56Z</time>
      </trkpt>
      <trkpt lat="46.99508" lon="-0.97277">
        <ele>62</ele>
        <time>2012-05-03T13:47:57Z</time>
      </trkpt>
      <trkpt lat="46.99507" lon="-0.97286">
        <ele>62</ele>
        <time>2012-05-03T13:47:58Z</time>
      </trkpt>
      <trkpt lat="46.99506" lon="-0.97295">
        <ele>62</ele>
        <time>2012-05-03T13:47:59Z</time>
      </trkpt>
      <trkpt lat="46.99504" lon="-0.97304">
        <ele>62</ele>
        <time>2012-05-03T13:48:00Z</time>
      </trkpt>
      <trkpt lat="46.99502" lon="-0.97312">
        <ele>62</ele>
        <time>2012-05-03T13:48:01Z</time>
      </trkpt>
      <trkpt lat="46.99498" lon="-0.9732">
        <ele>62</ele>
        <time>2012-05-03T13:48:02Z</time>
      </trkpt>
      <trkpt lat="46.99496" lon="-0.97329">
        <ele>62</ele>
        <time>2012-05-03T13:48:03Z</time>
      </trkpt>
      <trkpt lat="46.99494" lon="-0.97338">
        <ele>62</ele>
        <time>2012-05-03T13:48:04Z</time>
      </trkpt>
      <trkpt lat="46.99492" lon="-0.97347">
        <ele>62</ele>
        <time>2012-05-03T13:48:05Z</time>
      </trkpt>
      <trkpt lat="46.99489" lon="-0.97356">
        <ele>62</ele>
        <time>2012-05-03T13:48:06Z</time>
      </trkpt>
      <trkpt lat="46.99487" lon="-0.97364">
        <ele>62</ele>
        <time>2012-05-03T13:48:07Z</time>
      </trkpt>
      <trkpt lat="46.99485" lon="-0.97373">
        <ele>62</ele>
        <time>2012-05-03T13:48:08Z</time>
      </trkpt>
      <trkpt lat="46.99484" lon="-0.97383">
        <ele>62</ele>
        <time>2012-05-03T13:48:09Z</time>
      </trkpt>
      <trkpt lat="46.99483" lon="-0.97392">
        <ele>62</ele>
        <time>2012-05-03T13:48:10Z</time>
      </trkpt>
      <trkpt lat="46.99483" lon="-0.97401">
        <ele>62</ele>
        <time>2012-05-03T13:48:11Z</time>
      </trkpt>
      <trkpt lat="46.99483" lon="-0.9741">
        <ele>62</ele>
        <time>2012-05-03T13:48:12Z</time>
      </trkpt>
      <trkpt lat="46.99484" lon="-0.97419">
        <ele>62</ele>
        <time>2012-05-03T13:48:13Z</time>
      </trkpt>
      <trkpt lat="46.99485" lon="-0.97427">
        <ele>62</ele>
        <time>2012-05-03T13:48:14Z</time>
      </trkpt>
      <trkpt lat="46.99485" lon="-0.97436">
        <ele>62</ele>
        <time>2012-05-03T13:48:15Z</time>
      </trkpt>
      <trkpt lat="46.99486" lon="-0.97444">
        <ele>62</ele>
        <time>2012-05-03T13:48:17Z</time>
      </trkpt>
      <trkpt lat="46.99487" lon="-0.97453">
        <ele>62</ele>
        <time>2012-05-03T13:48:17Z</time>
      </trkpt>
      <trkpt lat="46.99488" lon="-0.97461">
        <ele>62</ele>
        <time>2012-05-03T13:48:18Z</time>
      </trkpt>
      <trkpt lat="46.99488" lon="-0.9747">
        <ele>62</ele>
        <time>2012-05-03T13:48:19Z</time>
      </trkpt>
      <trkpt lat="46.99489" lon="-0.97478">
        <ele>62</ele>
        <time>2012-05-03T13:48:20Z</time>
      </trkpt>
      <trkpt lat="46.99489" lon="-0.97487">
        <ele>62</ele>
        <time>2012-05-03T13:48:21Z</time>
      </trkpt>
      <trkpt lat="46.9949" lon="-0.97495">
        <ele>62</ele>
        <time>2012-05-03T13:48:22Z</time>
      </trkpt>
      <trkpt lat="46.99491" lon="-0.97504">
        <ele>62</ele>
        <time>2012-05-03T13:48:23Z</time>
      </trkpt>
      <trkpt lat="46.99493" lon="-0.97513">
        <ele>61</ele>
        <time>2012-05-03T13:48:24Z</time>
      </trkpt>
      <trkpt lat="46.99494" lon="-0.97521">
        <ele>61</ele>
        <time>2012-05-03T13:48:25Z</time>
      </trkpt>
      <trkpt lat="46.99495" lon="-0.97529">
        <ele>61</ele>
        <time>2012-05-03T13:48:26Z</time>
      </trkpt>
      <trkpt lat="46.99495" lon="-0.97538">
        <ele>61</ele>
        <time>2012-05-03T13:48:27Z</time>
      </trkpt>
      <trkpt lat="46.99496" lon="-0.97546">
        <ele>61</ele>
        <time>2012-05-03T13:48:28Z</time>
      </trkpt>
      <trkpt lat="46.99498" lon="-0.97555">
        <ele>61</ele>
        <time>2012-05-03T13:48:29Z</time>
      </trkpt>
      <trkpt lat="46.99499" lon="-0.97563">
        <ele>60</ele>
        <time>2012-05-03T13:48:30Z</time>
      </trkpt>
      <trkpt lat="46.995" lon="-0.97572">
        <ele>60</ele>
        <time>2012-05-03T13:48:31Z</time>
      </trkpt>
      <trkpt lat="46.995" lon="-0.97581">
        <ele>60</ele>
        <time>2012-05-03T13:48:32Z</time>
      </trkpt>
      <trkpt lat="46.99501" lon="-0.9759">
        <ele>60</ele>
        <time>2012-05-03T13:48:33Z</time>
      </trkpt>
      <trkpt lat="46.99502" lon="-0.97598">
        <ele>59</ele>
        <time>2012-05-03T13:48:34Z</time>
      </trkpt>
      <trkpt lat="46.99503" lon="-0.97607">
        <ele>59</ele>
        <time>2012-05-03T13:48:35Z</time>
      </trkpt>
      <trkpt lat="46.99504" lon="-0.97616">
        <ele>59</ele>
        <time>2012-05-03T13:48:36Z</time>
      </trkpt>
      <trkpt lat="46.99505" lon="-0.97625">
        <ele>59</ele>
        <time>2012-05-03T13:48:37Z</time>
      </trkpt>
      <trkpt lat="46.99506" lon="-0.97635">
        <ele>59</ele>
        <time>2012-05-03T13:48:38Z</time>
      </trkpt>
      <trkpt lat="46.99506" lon="-0.97644">
        <ele>59</ele>
        <time>2012-05-03T13:48:39Z</time>
      </trkpt>
      <trkpt lat="46.99506" lon="-0.97654">
        <ele>59</ele>
        <time>2012-05-03T13:48:40Z</time>
      </trkpt>
      <trkpt lat="46.99507" lon="-0.97663">
        <ele>59</ele>
        <time>2012-05-03T13:48:41Z</time>
      </trkpt>
      <trkpt lat="46.99507" lon="-0.97672">
        <ele>59</ele>
        <time>2012-05-03T13:48:42Z</time>
      </trkpt>
      <trkpt lat="46.99508" lon="-0.97682">
        <ele>59</ele>
        <time>2012-05-03T13:48:43Z</time>
      </trkpt>
      <trkpt lat="46.99508" lon="-0.97692">
        <ele>59</ele>
        <time>2012-05-03T13:48:44Z</time>
      </trkpt>
      <trkpt lat="46.99508" lon="-0.97701">
        <ele>59</ele>
        <time>2012-05-03T13:48:45Z</time>
      </trkpt>
      <trkpt lat="46.99509" lon="-0.97711">
        <ele>59</ele>
        <time>2012-05-03T13:48:46Z</time>
      </trkpt>
      <trkpt lat="46.99509" lon="-0.9772">
        <ele>59</ele>
        <time>2012-05-03T13:48:47Z</time>
      </trkpt>
      <trkpt lat="46.99509" lon="-0.9773">
        <ele>59</ele>
        <time>2012-05-03T13:48:48Z</time>
      </trkpt>
      <trkpt lat="46.9951" lon="-0.9774">
        <ele>59</ele>
        <time>2012-05-03T13:48:49Z</time>
      </trkpt>
      <trkpt lat="46.9951" lon="-0.97749">
        <ele>59</ele>
        <time>2012-05-03T13:48:50Z</time>
      </trkpt>
      <trkpt lat="46.99511" lon="-0.97759">
        <ele>59</ele>
        <time>2012-05-03T13:48:51Z</time>
      </trkpt>
      <trkpt lat="46.99512" lon="-0.97769">
        <ele>59</ele>
        <time>2012-05-03T13:48:52Z</time>
      </trkpt>
      <trkpt lat="46.99513" lon="-0.97779">
        <ele>59</ele>
        <time>2012-05-03T13:48:53Z</time>
      </trkpt>
      <trkpt lat="46.99515" lon="-0.97788">
        <ele>59</ele>
        <time>2012-05-03T13:48:54Z</time>
      </trkpt>
      <trkpt lat="46.99518" lon="-0.97797">
        <ele>59</ele>
        <time>2012-05-03T13:48:55Z</time>
      </trkpt>
      <trkpt lat="46.99522" lon="-0.97806">
        <ele>59</ele>
        <time>2012-05-03T13:48:56Z</time>
      </trkpt>
      <trkpt lat="46.99526" lon="-0.97813">
        <ele>59</ele>
        <time>2012-05-03T13:48:57Z</time>
      </trkpt>
      <trkpt lat="46.99531" lon="-0.97818">
        <ele>59</ele>
        <time>2012-05-03T13:48:58Z</time>
      </trkpt>
      <trkpt lat="46.99537" lon="-0.97824">
        <ele>59</ele>
        <time>2012-05-03T13:48:59Z</time>
      </trkpt>
      <trkpt lat="46.99543" lon="-0.97828">
        <ele>59</ele>
        <time>2012-05-03T13:49:00Z</time>
      </trkpt>
      <trkpt lat="46.9955" lon="-0.97831">
        <ele>59</ele>
        <time>2012-05-03T13:49:01Z</time>
      </trkpt>
      <trkpt lat="46.99557" lon="-0.97833">
        <ele>59</ele>
        <time>2012-05-03T13:49:02Z</time>
      </trkpt>
      <trkpt lat="46.99564" lon="-0.97835">
        <ele>59</ele>
        <time>2012-05-03T13:49:03Z</time>
      </trkpt>
      <trkpt lat="46.9957" lon="-0.97837">
        <ele>59</ele>
        <time>2012-05-03T13:49:04Z</time>
      </trkpt>
      <trkpt lat="46.99577" lon="-0.97838">
        <ele>59</ele>
        <time>2012-05-03T13:49:05Z</time>
      </trkpt>
      <trkpt lat="46.99583" lon="-0.97839">
        <ele>59</ele>
        <time>2012-05-03T13:49:06Z</time>
      </trkpt>
      <trkpt lat="46.9959" lon="-0.97841">
        <ele>59</ele>
        <time>2012-05-03T13:49:07Z</time>
      </trkpt>
      <trkpt lat="46.99596" lon="-0.97842">
        <ele>59</ele>
        <time>2012-05-03T13:49:08Z</time>
      </trkpt>
      <trkpt lat="46.99603" lon="-0.97844">
        <ele>59</ele>
        <time>2012-05-03T13:49:09Z</time>
      </trkpt>
      <trkpt lat="46.99609" lon="-0.97846">
        <ele>59</ele>
        <time>2012-05-03T13:49:10Z</time>
      </trkpt>
      <trkpt lat="46.99614" lon="-0.97849">
        <ele>59</ele>
        <time>2012-05-03T13:49:11Z</time>
      </trkpt>
      <trkpt lat="46.9962" lon="-0.97853">
        <ele>59</ele>
        <time>2012-05-03T13:49:12Z</time>
      </trkpt>
      <trkpt lat="46.99625" lon="-0.97857">
        <ele>59</ele>
        <time>2012-05-03T13:49:13Z</time>
      </trkpt>
      <trkpt lat="46.9963" lon="-0.97862">
        <ele>59</ele>
        <time>2012-05-03T13:49:14Z</time>
      </trkpt>
      <trkpt lat="46.99635" lon="-0.97866">
        <ele>59</ele>
        <time>2012-05-03T13:49:15Z</time>
      </trkpt>
      <trkpt lat="46.9964" lon="-0.97872">
        <ele>59</ele>
        <time>2012-05-03T13:49:17Z</time>
      </trkpt>
      <trkpt lat="46.99645" lon="-0.97877">
        <ele>59</ele>
        <time>2012-05-03T13:49:17Z</time>
      </trkpt>
      <trkpt lat="46.99649" lon="-0.97882">
        <ele>59</ele>
        <time>2012-05-03T13:49:18Z</time>
      </trkpt>
      <trkpt lat="46.99654" lon="-0.97886">
        <ele>59</ele>
        <time>2012-05-03T13:49:19Z</time>
      </trkpt>
      <trkpt lat="46.99658" lon="-0.97891">
        <ele>59</ele>
        <time>2012-05-03T13:49:20Z</time>
      </trkpt>
      <trkpt lat="46.99662" lon="-0.97896">
        <ele>59</ele>
        <time>2012-05-03T13:49:21Z</time>
      </trkpt>
      <trkpt lat="46.99665" lon="-0.97901">
        <ele>59</ele>
        <time>2012-05-03T13:49:22Z</time>
      </trkpt>
      <trkpt lat="46.99669" lon="-0.97907">
        <ele>59</ele>
        <time>2012-05-03T13:49:23Z</time>
      </trkpt>
      <trkpt lat="46.99672" lon="-0.97913">
        <ele>59</ele>
        <time>2012-05-03T13:49:24Z</time>
      </trkpt>
      <trkpt lat="46.99674" lon="-0.97919">
        <ele>59</ele>
        <time>2012-05-03T13:49:25Z</time>
      </trkpt>
      <trkpt lat="46.99676" lon="-0.97926">
        <ele>59</ele>
        <time>2012-05-03T13:49:26Z</time>
      </trkpt>
      <trkpt lat="46.99677" lon="-0.97934">
        <ele>59</ele>
        <time>2012-05-03T13:49:27Z</time>
      </trkpt>
      <trkpt lat="46.99678" lon="-0.97941">
        <ele>59</ele>
        <time>2012-05-03T13:49:28Z</time>
      </trkpt>
      <trkpt lat="46.99679" lon="-0.97949">
        <ele>59</ele>
        <time>2012-05-03T13:49:29Z</time>
      </trkpt>
      <trkpt lat="46.99681" lon="-0.97957">
        <ele>59</ele>
        <time>2012-05-03T13:49:30Z</time>
      </trkpt>
      <trkpt lat="46.99684" lon="-0.97964">
        <ele>59</ele>
        <time>2012-05-03T13:49:31Z</time>
      </trkpt>
      <trkpt lat="46.99687" lon="-0.97971">
        <ele>59</ele>
        <time>2012-05-03T13:49:32Z</time>
      </trkpt>
      <trkpt lat="46.9969" lon="-0.97977">
        <ele>59</ele>
        <time>2012-05-03T13:49:33Z</time>
      </trkpt>
      <trkpt lat="46.99694" lon="-0.97984">
        <ele>59</ele>
        <time>2012-05-03T13:49:34Z</time>
      </trkpt>
      <trkpt lat="46.99698" lon="-0.97991">
        <ele>59</ele>
        <time>2012-05-03T13:49:35Z</time>
      </trkpt>
      <trkpt lat="46.99702" lon="-0.97998">
        <ele>59</ele>
        <time>2012-05-03T13:49:36Z</time>
      </trkpt>
      <trkpt lat="46.99707" lon="-0.98005">
        <ele>59</ele>
        <time>2012-05-03T13:49:37Z</time>
      </trkpt>
      <trkpt lat="46.99711" lon="-0.98012">
        <ele>59</ele>
        <time>2012-05-03T13:49:38Z</time>
      </trkpt>
      <trkpt lat="46.99715" lon="-0.98019">
        <ele>59</ele>
        <time>2012-05-03T13:49:39Z</time>
      </trkpt>
      <trkpt lat="46.9972" lon="-0.98025">
        <ele>59</ele>
        <time>2012-05-03T13:49:40Z</time>
      </trkpt>
      <trkpt lat="46.99724" lon="-0.98032">
        <ele>59</ele>
        <time>2012-05-03T13:49:41Z</time>
      </trkpt>
      <trkpt lat="46.99728" lon="-0.98038">
        <ele>59</ele>
        <time>2012-05-03T13:49:42Z</time>
      </trkpt>
      <trkpt lat="46.99733" lon="-0.98044">
        <ele>59</ele>
        <time>2012-05-03T13:49:43Z</time>
      </trkpt>
      <trkpt lat="46.99738" lon="-0.98049">
        <ele>59</ele>
        <time>2012-05-03T13:49:44Z</time>
      </trkpt>
      <trkpt lat="46.99742" lon="-0.98055">
        <ele>59</ele>
        <time>2012-05-03T13:49:45Z</time>
      </trkpt>
      <trkpt lat="46.99746" lon="-0.98061">
        <ele>59</ele>
        <time>2012-05-03T13:49:46Z</time>
      </trkpt>
      <trkpt lat="46.9975" lon="-0.98066">
        <ele>59</ele>
        <time>2012-05-03T13:49:47Z</time>
      </trkpt>
      <trkpt lat="46.99755" lon="-0.98071">
        <ele>59</ele>
        <time>2012-05-03T13:49:48Z</time>
      </trkpt>
      <trkpt lat="46.9976" lon="-0.98076">
        <ele>59</ele>
        <time>2012-05-03T13:49:49Z</time>
      </trkpt>
      <trkpt lat="46.99764" lon="-0.9808">
        <ele>59</ele>
        <time>2012-05-03T13:49:50Z</time>
      </trkpt>
      <trkpt lat="46.99769" lon="-0.98085">
        <ele>59</ele>
        <time>2012-05-03T13:49:51Z</time>
      </trkpt>
      <trkpt lat="46.99773" lon="-0.9809">
        <ele>59</ele>
        <time>2012-05-03T13:49:52Z</time>
      </trkpt>
      <trkpt lat="46.99776" lon="-0.98098">
        <ele>59</ele>
        <time>2012-05-03T13:49:53Z</time>
      </trkpt>
      <trkpt lat="46.99778" lon="-0.98106">
        <ele>59</ele>
        <time>2012-05-03T13:49:54Z</time>
      </trkpt>
      <trkpt lat="46.99779" lon="-0.98114">
        <ele>59</ele>
        <time>2012-05-03T13:49:55Z</time>
      </trkpt>
      <trkpt lat="46.9978" lon="-0.98122">
        <ele>59</ele>
        <time>2012-05-03T13:49:56Z</time>
      </trkpt>
      <trkpt lat="46.99781" lon="-0.9813">
        <ele>59</ele>
        <time>2012-05-03T13:49:57Z</time>
      </trkpt>
      <trkpt lat="46.99782" lon="-0.98137">
        <ele>59</ele>
        <time>2012-05-03T13:49:58Z</time>
      </trkpt>
      <trkpt lat="46.99781" lon="-0.98145">
        <ele>59</ele>
        <time>2012-05-03T13:49:59Z</time>
      </trkpt>
      <trkpt lat="46.9978" lon="-0.98153">
        <ele>59</ele>
        <time>2012-05-03T13:50:00Z</time>
      </trkpt>
      <trkpt lat="46.9978" lon="-0.98161">
        <ele>59</ele>
        <time>2012-05-03T13:50:01Z</time>
      </trkpt>
      <trkpt lat="46.9978" lon="-0.98169">
        <ele>59</ele>
        <time>2012-05-03T13:50:02Z</time>
      </trkpt>
      <trkpt lat="46.9978" lon="-0.98178">
        <ele>59</ele>
        <time>2012-05-03T13:50:03Z</time>
      </trkpt>
      <trkpt lat="46.99781" lon="-0.98187">
        <ele>59</ele>
        <time>2012-05-03T13:50:04Z</time>
      </trkpt>
      <trkpt lat="46.99783" lon="-0.98195">
        <ele>59</ele>
        <time>2012-05-03T13:50:05Z</time>
      </trkpt>
      <trkpt lat="46.99784" lon="-0.98203">
        <ele>59</ele>
        <time>2012-05-03T13:50:06Z</time>
      </trkpt>
      <trkpt lat="46.99786" lon="-0.98211">
        <ele>59</ele>
        <time>2012-05-03T13:50:07Z</time>
      </trkpt>
      <trkpt lat="46.99788" lon="-0.9822">
        <ele>59</ele>
        <time>2012-05-03T13:50:08Z</time>
      </trkpt>
      <trkpt lat="46.99789" lon="-0.9823">
        <ele>59</ele>
        <time>2012-05-03T13:50:09Z</time>
      </trkpt>
      <trkpt lat="46.99791" lon="-0.98238">
        <ele>59</ele>
        <time>2012-05-03T13:50:10Z</time>
      </trkpt>
      <trkpt lat="46.99791" lon="-0.98248">
        <ele>59</ele>
        <time>2012-05-03T13:50:11Z</time>
      </trkpt>
      <trkpt lat="46.9979" lon="-0.98258">
        <ele>59</ele>
        <time>2012-05-03T13:50:12Z</time>
      </trkpt>
      <trkpt lat="46.99791" lon="-0.98268">
        <ele>59</ele>
        <time>2012-05-03T13:50:13Z</time>
      </trkpt>
      <trkpt lat="46.99792" lon="-0.98277">
        <ele>59</ele>
        <time>2012-05-03T13:50:14Z</time>
      </trkpt>
      <trkpt lat="46.99795" lon="-0.98286">
        <ele>59</ele>
        <time>2012-05-03T13:50:15Z</time>
      </trkpt>
      <trkpt lat="46.99799" lon="-0.98292">
        <ele>59</ele>
        <time>2012-05-03T13:50:17Z</time>
      </trkpt>
      <trkpt lat="46.99803" lon="-0.98298">
        <ele>59</ele>
        <time>2012-05-03T13:50:17Z</time>
      </trkpt>
      <trkpt lat="46.99807" lon="-0.98302">
        <ele>58</ele>
        <time>2012-05-03T13:50:18Z</time>
      </trkpt>
      <trkpt lat="46.99812" lon="-0.98305">
        <ele>58</ele>
        <time>2012-05-03T13:50:19Z</time>
      </trkpt>
      <trkpt lat="46.99816" lon="-0.98309">
        <ele>58</ele>
        <time>2012-05-03T13:50:20Z</time>
      </trkpt>
      <trkpt lat="46.99819" lon="-0.98314">
        <ele>58</ele>
        <time>2012-05-03T13:50:21Z</time>
      </trkpt>
      <trkpt lat="46.99822" lon="-0.9832">
        <ele>58</ele>
        <time>2012-05-03T13:50:22Z</time>
      </trkpt>
      <trkpt lat="46.99825" lon="-0.98327">
        <ele>58</ele>
        <time>2012-05-03T13:50:23Z</time>
      </trkpt>
      <trkpt lat="46.99827" lon="-0.98334">
        <ele>58</ele>
        <time>2012-05-03T13:50:24Z</time>
      </trkpt>
      <trkpt lat="46.99828" lon="-0.98342">
        <ele>58</ele>
        <time>2012-05-03T13:50:25Z</time>
      </trkpt>
      <trkpt lat="46.99829" lon="-0.98349">
        <ele>58</ele>
        <time>2012-05-03T13:50:26Z</time>
      </trkpt>
      <trkpt lat="46.99831" lon="-0.98356">
        <ele>58</ele>
        <time>2012-05-03T13:50:27Z</time>
      </trkpt>
      <trkpt lat="46.99833" lon="-0.98362">
        <ele>58</ele>
        <time>2012-05-03T13:50:28Z</time>
      </trkpt>
      <trkpt lat="46.99835" lon="-0.98369">
        <ele>58</ele>
        <time>2012-05-03T13:50:29Z</time>
      </trkpt>
      <trkpt lat="46.99837" lon="-0.98376">
        <ele>58</ele>
        <time>2012-05-03T13:50:30Z</time>
      </trkpt>
      <trkpt lat="46.99839" lon="-0.98383">
        <ele>58</ele>
        <time>2012-05-03T13:50:31Z</time>
      </trkpt>
      <trkpt lat="46.99841" lon="-0.98391">
        <ele>58</ele>
        <time>2012-05-03T13:50:32Z</time>
      </trkpt>
      <trkpt lat="46.99844" lon="-0.98399">
        <ele>58</ele>
        <time>2012-05-03T13:50:33Z</time>
      </trkpt>
      <trkpt lat="46.99846" lon="-0.98407">
        <ele>58</ele>
        <time>2012-05-03T13:50:34Z</time>
      </trkpt>
      <trkpt lat="46.99849" lon="-0.98416">
        <ele>58</ele>
        <time>2012-05-03T13:50:35Z</time>
      </trkpt>
      <trkpt lat="46.99852" lon="-0.98424">
        <ele>58</ele>
        <time>2012-05-03T13:50:36Z</time>
      </trkpt>
      <trkpt lat="46.99856" lon="-0.98432">
        <ele>58</ele>
        <time>2012-05-03T13:50:37Z</time>
      </trkpt>
      <trkpt lat="46.99859" lon="-0.9844">
        <ele>58</ele>
        <time>2012-05-03T13:50:38Z</time>
      </trkpt>
      <trkpt lat="46.99863" lon="-0.98448">
        <ele>58</ele>
        <time>2012-05-03T13:50:39Z</time>
      </trkpt>
      <trkpt lat="46.99866" lon="-0.98456">
        <ele>58</ele>
        <time>2012-05-03T13:50:40Z</time>
      </trkpt>
      <trkpt lat="46.9987" lon="-0.98464">
        <ele>58</ele>
        <time>2012-05-03T13:50:41Z</time>
      </trkpt>
      <trkpt lat="46.99873" lon="-0.98472">
        <ele>58</ele>
        <time>2012-05-03T13:50:42Z</time>
      </trkpt>
      <trkpt lat="46.99876" lon="-0.9848">
        <ele>58</ele>
        <time>2012-05-03T13:50:43Z</time>
      </trkpt>
      <trkpt lat="46.99879" lon="-0.98489">
        <ele>58</ele>
        <time>2012-05-03T13:50:44Z</time>
      </trkpt>
      <trkpt lat="46.99882" lon="-0.98497">
        <ele>58</ele>
        <time>2012-05-03T13:50:45Z</time>
      </trkpt>
      <trkpt lat="46.99884" lon="-0.98505">
        <ele>58</ele>
        <time>2012-05-03T13:50:46Z</time>
      </trkpt>
      <trkpt lat="46.99887" lon="-0.98513">
        <ele>58</ele>
        <time>2012-05-03T13:50:47Z</time>
      </trkpt>
      <trkpt lat="46.99889" lon="-0.98522">
        <ele>58</ele>
        <time>2012-05-03T13:50:48Z</time>
      </trkpt>
      <trkpt lat="46.99891" lon="-0.9853">
        <ele>58</ele>
        <time>2012-05-03T13:50:49Z</time>
      </trkpt>
      <trkpt lat="46.99893" lon="-0.98539">
        <ele>58</ele>
        <time>2012-05-03T13:50:50Z</time>
      </trkpt>
      <trkpt lat="46.99894" lon="-0.98547">
        <ele>58</ele>
        <time>2012-05-03T13:50:51Z</time>
      </trkpt>
      <trkpt lat="46.99896" lon="-0.98555">
        <ele>58</ele>
        <time>2012-05-03T13:50:52Z</time>
      </trkpt>
      <trkpt lat="46.99897" lon="-0.98564">
        <ele>58</ele>
        <time>2012-05-03T13:50:53Z</time>
      </trkpt>
      <trkpt lat="46.99899" lon="-0.98573">
        <ele>58</ele>
        <time>2012-05-03T13:50:54Z</time>
      </trkpt>
      <trkpt lat="46.999" lon="-0.98582">
        <ele>58</ele>
        <time>2012-05-03T13:50:55Z</time>
      </trkpt>
      <trkpt lat="46.99902" lon="-0.98591">
        <ele>58</ele>
        <time>2012-05-03T13:50:56Z</time>
      </trkpt>
      <trkpt lat="46.99903" lon="-0.98601">
        <ele>58</ele>
        <time>2012-05-03T13:50:57Z</time>
      </trkpt>
      <trkpt lat="46.99905" lon="-0.98611">
        <ele>58</ele>
        <time>2012-05-03T13:50:58Z</time>
      </trkpt>
      <trkpt lat="46.99907" lon="-0.98621">
        <ele>58</ele>
        <time>2012-05-03T13:50:59Z</time>
      </trkpt>
      <trkpt lat="46.99908" lon="-0.98631">
        <ele>58</ele>
        <time>2012-05-03T13:51:00Z</time>
      </trkpt>
      <trkpt lat="46.9991" lon="-0.98641">
        <ele>58</ele>
        <time>2012-05-03T13:51:01Z</time>
      </trkpt>
      <trkpt lat="46.99912" lon="-0.98651">
        <ele>58</ele>
        <time>2012-05-03T13:51:02Z</time>
      </trkpt>
      <trkpt lat="46.99914" lon="-0.98662">
        <ele>58</ele>
        <time>2012-05-03T13:51:03Z</time>
      </trkpt>
      <trkpt lat="46.99917" lon="-0.98672">
        <ele>58</ele>
        <time>2012-05-03T13:51:04Z</time>
      </trkpt>
      <trkpt lat="46.99919" lon="-0.98682">
        <ele>58</ele>
        <time>2012-05-03T13:51:05Z</time>
      </trkpt>
      <trkpt lat="46.99921" lon="-0.98692">
        <ele>58</ele>
        <time>2012-05-03T13:51:06Z</time>
      </trkpt>
      <trkpt lat="46.99922" lon="-0.98702">
        <ele>58</ele>
        <time>2012-05-03T13:51:07Z</time>
      </trkpt>
      <trkpt lat="46.99923" lon="-0.98712">
        <ele>58</ele>
        <time>2012-05-03T13:51:08Z</time>
      </trkpt>
      <trkpt lat="46.99924" lon="-0.98722">
        <ele>58</ele>
        <time>2012-05-03T13:51:09Z</time>
      </trkpt>
      <trkpt lat="46.99925" lon="-0.98732">
        <ele>58</ele>
        <time>2012-05-03T13:51:10Z</time>
      </trkpt>
      <trkpt lat="46.99928" lon="-0.98741">
        <ele>58</ele>
        <time>2012-05-03T13:51:11Z</time>
      </trkpt>
      <trkpt lat="46.99932" lon="-0.98749">
        <ele>58</ele>
        <time>2012-05-03T13:51:12Z</time>
      </trkpt>
      <trkpt lat="46.99936" lon="-0.98754">
        <ele>58</ele>
        <time>2012-05-03T13:51:13Z</time>
      </trkpt>
      <trkpt lat="46.99941" lon="-0.98758">
        <ele>58</ele>
        <time>2012-05-03T13:51:14Z</time>
      </trkpt>
      <trkpt lat="46.99946" lon="-0.98759">
        <ele>58</ele>
        <time>2012-05-03T13:51:15Z</time>
      </trkpt>
      <trkpt lat="46.99951" lon="-0.9876">
        <ele>58</ele>
        <time>2012-05-03T13:51:17Z</time>
      </trkpt>
      <trkpt lat="46.99955" lon="-0.98763">
        <ele>58</ele>
        <time>2012-05-03T13:51:17Z</time>
      </trkpt>
      <trkpt lat="46.99959" lon="-0.98768">
        <ele>58</ele>
        <time>2012-05-03T13:51:18Z</time>
      </trkpt>
      <trkpt lat="46.99961" lon="-0.98774">
        <ele>58</ele>
        <time>2012-05-03T13:51:19Z</time>
      </trkpt>
      <trkpt lat="46.99965" lon="-0.98779">
        <ele>58</ele>
        <time>2012-05-03T13:51:20Z</time>
      </trkpt>
      <trkpt lat="46.99967" lon="-0.98785">
        <ele>58</ele>
        <time>2012-05-03T13:51:21Z</time>
      </trkpt>
      <trkpt lat="46.99969" lon="-0.9879">
        <ele>58</ele>
        <time>2012-05-03T13:51:22Z</time>
      </trkpt>
      <trkpt lat="46.99971" lon="-0.98795">
        <ele>58</ele>
        <time>2012-05-03T13:51:23Z</time>
      </trkpt>
      <trkpt lat="46.99972" lon="-0.988">
        <ele>58</ele>
        <time>2012-05-03T13:51:24Z</time>
      </trkpt>
      <trkpt lat="46.99973" lon="-0.98805">
        <ele>58</ele>
        <time>2012-05-03T13:51:25Z</time>
      </trkpt>
      <trkpt lat="46.99975" lon="-0.9881">
        <ele>58</ele>
        <time>2012-05-03T13:51:26Z</time>
      </trkpt>
      <trkpt lat="46.99978" lon="-0.98814">
        <ele>58</ele>
        <time>2012-05-03T13:51:27Z</time>
      </trkpt>
      <trkpt lat="46.99981" lon="-0.98819">
        <ele>58</ele>
        <time>2012-05-03T13:51:28Z</time>
      </trkpt>
      <trkpt lat="46.99982" lon="-0.98823">
        <ele>58</ele>
        <time>2012-05-03T13:51:29Z</time>
      </trkpt>
      <trkpt lat="46.99984" lon="-0.98826">
        <ele>58</ele>
        <time>2012-05-03T13:51:30Z</time>
      </trkpt>
      <trkpt lat="46.99987" lon="-0.9883">
        <ele>58</ele>
        <time>2012-05-03T13:51:31Z</time>
      </trkpt>
      <trkpt lat="46.99989" lon="-0.98833">
        <ele>58</ele>
        <time>2012-05-03T13:51:32Z</time>
      </trkpt>
      <trkpt lat="46.99991" lon="-0.98837">
        <ele>58</ele>
        <time>2012-05-03T13:51:33Z</time>
      </trkpt>
      <trkpt lat="46.99994" lon="-0.9884">
        <ele>58</ele>
        <time>2012-05-03T13:51:34Z</time>
      </trkpt>
      <trkpt lat="46.99997" lon="-0.98845">
        <ele>58</ele>
        <time>2012-05-03T13:51:35Z</time>
      </trkpt>
      <trkpt lat="47.00001" lon="-0.9885">
        <ele>58</ele>
        <time>2012-05-03T13:51:36Z</time>
      </trkpt>
      <trkpt lat="47.00005" lon="-0.98858">
        <ele>58</ele>
        <time>2012-05-03T13:51:37Z</time>
      </trkpt>
      <trkpt lat="47.00008" lon="-0.98869">
        <ele>58</ele>
        <time>2012-05-03T13:51:38Z</time>
      </trkpt>
      <trkpt lat="47.00009" lon="-0.9888">
        <ele>58</ele>
        <time>2012-05-03T13:51:39Z</time>
      </trkpt>
      <trkpt lat="47.00008" lon="-0.98889">
        <ele>58</ele>
        <time>2012-05-03T13:51:40Z</time>
      </trkpt>
      <trkpt lat="47.00005" lon="-0.98897">
        <ele>58</ele>
        <time>2012-05-03T13:51:41Z</time>
      </trkpt>
      <trkpt lat="47" lon="-0.98902">
        <ele>58</ele>
        <time>2012-05-03T13:51:42Z</time>
      </trkpt>
      <trkpt lat="46.99992" lon="-0.98906">
        <ele>58</ele>
        <time>2012-05-03T13:51:43Z</time>
      </trkpt>
      <trkpt lat="46.99986" lon="-0.9891">
        <ele>58</ele>
        <time>2012-05-03T13:51:44Z</time>
      </trkpt>
      <trkpt lat="46.9998" lon="-0.98916">
        <ele>58</ele>
        <time>2012-05-03T13:51:45Z</time>
      </trkpt>
      <trkpt lat="46.99976" lon="-0.98924">
        <ele>58</ele>
        <time>2012-05-03T13:51:46Z</time>
      </trkpt>
      <trkpt lat="46.99971" lon="-0.98934">
        <ele>58</ele>
        <time>2012-05-03T13:51:47Z</time>
      </trkpt>
      <trkpt lat="46.99967" lon="-0.98945">
        <ele>58</ele>
        <time>2012-05-03T13:51:48Z</time>
      </trkpt>
      <trkpt lat="46.99966" lon="-0.98957">
        <ele>58</ele>
        <time>2012-05-03T13:51:49Z</time>
      </trkpt>
      <trkpt lat="46.99966" lon="-0.98968">
        <ele>58</ele>
        <time>2012-05-03T13:51:50Z</time>
      </trkpt>
      <trkpt lat="46.99966" lon="-0.9898">
        <ele>58</ele>
        <time>2012-05-03T13:51:51Z</time>
      </trkpt>
      <trkpt lat="46.99966" lon="-0.9899">
        <ele>58</ele>
        <time>2012-05-03T13:51:52Z</time>
      </trkpt>
      <trkpt lat="46.99968" lon="-0.99001">
        <ele>58</ele>
        <time>2012-05-03T13:51:53Z</time>
      </trkpt>
      <trkpt lat="46.99967" lon="-0.9901">
        <ele>58</ele>
        <time>2012-05-03T13:51:54Z</time>
      </trkpt>
      <trkpt lat="46.99968" lon="-0.9902">
        <ele>58</ele>
        <time>2012-05-03T13:51:55Z</time>
      </trkpt>
      <trkpt lat="46.99968" lon="-0.99029">
        <ele>58</ele>
        <time>2012-05-03T13:51:56Z</time>
      </trkpt>
      <trkpt lat="46.99968" lon="-0.99038">
        <ele>58</ele>
        <time>2012-05-03T13:51:57Z</time>
      </trkpt>
      <trkpt lat="46.99967" lon="-0.99047">
        <ele>58</ele>
        <time>2012-05-03T13:51:58Z</time>
      </trkpt>
      <trkpt lat="46.99968" lon="-0.99056">
        <ele>58</ele>
        <time>2012-05-03T13:51:59Z</time>
      </trkpt>
      <trkpt lat="46.99968" lon="-0.99064">
        <ele>58</ele>
        <time>2012-05-03T13:52:00Z</time>
      </trkpt>
      <trkpt lat="46.99968" lon="-0.99072">
        <ele>58</ele>
        <time>2012-05-03T13:52:01Z</time>
      </trkpt>
      <trkpt lat="46.99969" lon="-0.9908">
        <ele>58</ele>
        <time>2012-05-03T13:52:02Z</time>
      </trkpt>
      <trkpt lat="46.99969" lon="-0.99088">
        <ele>58</ele>
        <time>2012-05-03T13:52:03Z</time>
      </trkpt>
      <trkpt lat="46.99969" lon="-0.99098">
        <ele>58</ele>
        <time>2012-05-03T13:52:04Z</time>
      </trkpt>
      <trkpt lat="46.99971" lon="-0.99106">
        <ele>58</ele>
        <time>2012-05-03T13:52:05Z</time>
      </trkpt>
      <trkpt lat="46.99971" lon="-0.99116">
        <ele>58</ele>
        <time>2012-05-03T13:52:06Z</time>
      </trkpt>
      <trkpt lat="46.99972" lon="-0.99126">
        <ele>58</ele>
        <time>2012-05-03T13:52:07Z</time>
      </trkpt>
      <trkpt lat="46.99974" lon="-0.99135">
        <ele>58</ele>
        <time>2012-05-03T13:52:08Z</time>
      </trkpt>
      <trkpt lat="46.99976" lon="-0.99144">
        <ele>58</ele>
        <time>2012-05-03T13:52:09Z</time>
      </trkpt>
      <trkpt lat="46.99981" lon="-0.99152">
        <ele>58</ele>
        <time>2012-05-03T13:52:10Z</time>
      </trkpt>
      <trkpt lat="46.99984" lon="-0.9916">
        <ele>58</ele>
        <time>2012-05-03T13:52:11Z</time>
      </trkpt>
      <trkpt lat="46.99988" lon="-0.99168">
        <ele>57</ele>
        <time>2012-05-03T13:52:12Z</time>
      </trkpt>
      <trkpt lat="46.99991" lon="-0.99176">
        <ele>57</ele>
        <time>2012-05-03T13:52:13Z</time>
      </trkpt>
      <trkpt lat="46.99994" lon="-0.99184">
        <ele>57</ele>
        <time>2012-05-03T13:52:14Z</time>
      </trkpt>
      <trkpt lat="46.99997" lon="-0.99191">
        <ele>57</ele>
        <time>2012-05-03T13:52:15Z</time>
      </trkpt>
      <trkpt lat="47.00001" lon="-0.99197">
        <ele>57</ele>
        <time>2012-05-03T13:52:16Z</time>
      </trkpt>
      <trkpt lat="47.00005" lon="-0.99202">
        <ele>56</ele>
        <time>2012-05-03T13:52:17Z</time>
      </trkpt>
      <trkpt lat="47.00008" lon="-0.99209">
        <ele>56</ele>
        <time>2012-05-03T13:52:18Z</time>
      </trkpt>
      <trkpt lat="47.00013" lon="-0.99216">
        <ele>56</ele>
        <time>2012-05-03T13:52:19Z</time>
      </trkpt>
      <trkpt lat="47.00017" lon="-0.99222">
        <ele>56</ele>
        <time>2012-05-03T13:52:20Z</time>
      </trkpt>
      <trkpt lat="47.00021" lon="-0.99228">
        <ele>56</ele>
        <time>2012-05-03T13:52:21Z</time>
      </trkpt>
      <trkpt lat="47.00024" lon="-0.99236">
        <ele>56</ele>
        <time>2012-05-03T13:52:22Z</time>
      </trkpt>
      <trkpt lat="47.00026" lon="-0.99245">
        <ele>56</ele>
        <time>2012-05-03T13:52:23Z</time>
      </trkpt>
      <trkpt lat="47.00026" lon="-0.99254">
        <ele>56</ele>
        <time>2012-05-03T13:52:24Z</time>
      </trkpt>
      <trkpt lat="47.00029" lon="-0.99262">
        <ele>56</ele>
        <time>2012-05-03T13:52:25Z</time>
      </trkpt>
      <trkpt lat="47.00032" lon="-0.99269">
        <ele>56</ele>
        <time>2012-05-03T13:52:26Z</time>
      </trkpt>
      <trkpt lat="47.00036" lon="-0.99275">
        <ele>56</ele>
        <time>2012-05-03T13:52:27Z</time>
      </trkpt>
      <trkpt lat="47.00039" lon="-0.9928">
        <ele>56</ele>
        <time>2012-05-03T13:52:28Z</time>
      </trkpt>
      <trkpt lat="47.00042" lon="-0.99285">
        <ele>56</ele>
        <time>2012-05-03T13:52:29Z</time>
      </trkpt>
      <trkpt lat="47.00045" lon="-0.99291">
        <ele>56</ele>
        <time>2012-05-03T13:52:30Z</time>
      </trkpt>
      <trkpt lat="47.00045" lon="-0.99297">
        <ele>56</ele>
        <time>2012-05-03T13:52:31Z</time>
      </trkpt>
      <trkpt lat="47.00044" lon="-0.99302">
        <ele>56</ele>
        <time>2012-05-03T13:52:32Z</time>
      </trkpt>
      <trkpt lat="47.00045" lon="-0.99306">
        <ele>56</ele>
        <time>2012-05-03T13:52:33Z</time>
      </trkpt>
      <trkpt lat="47.00045" lon="-0.9931">
        <ele>56</ele>
        <time>2012-05-03T13:52:34Z</time>
      </trkpt>
      <trkpt lat="47.00047" lon="-0.99314">
        <ele>56</ele>
        <time>2012-05-03T13:52:35Z</time>
      </trkpt>
      <trkpt lat="47.00048" lon="-0.99317">
        <ele>56</ele>
        <time>2012-05-03T13:52:36Z</time>
      </trkpt>
      <trkpt lat="47.00051" lon="-0.99319">
        <ele>56</ele>
        <time>2012-05-03T13:52:37Z</time>
      </trkpt>
      <trkpt lat="47.00053" lon="-0.99322">
        <ele>56</ele>
        <time>2012-05-03T13:52:38Z</time>
      </trkpt>
      <trkpt lat="47.00056" lon="-0.99326">
        <ele>56</ele>
        <time>2012-05-03T13:52:39Z</time>
      </trkpt>
      <trkpt lat="47.00058" lon="-0.9933">
        <ele>56</ele>
        <time>2012-05-03T13:52:40Z</time>
      </trkpt>
      <trkpt lat="47.0006" lon="-0.99334">
        <ele>56</ele>
        <time>2012-05-03T13:52:41Z</time>
      </trkpt>
      <trkpt lat="47.00061" lon="-0.99337">
        <ele>56</ele>
        <time>2012-05-03T13:52:42Z</time>
      </trkpt>
      <trkpt lat="47.00063" lon="-0.9934">
        <ele>56</ele>
        <time>2012-05-03T13:52:43Z</time>
      </trkpt>
      <trkpt lat="47.00064" lon="-0.99344">
        <ele>56</ele>
        <time>2012-05-03T13:52:44Z</time>
      </trkpt>
      <trkpt lat="47.00064" lon="-0.99348">
        <ele>56</ele>
        <time>2012-05-03T13:52:45Z</time>
      </trkpt>
      <trkpt lat="47.00065" lon="-0.99351">
        <ele>56</ele>
        <time>2012-05-03T13:52:46Z</time>
      </trkpt>
      <trkpt lat="47.00066" lon="-0.99354">
        <ele>56</ele>
        <time>2012-05-03T13:52:47Z</time>
      </trkpt>
      <trkpt lat="47.00066" lon="-0.99359">
        <ele>56</ele>
        <time>2012-05-03T13:52:48Z</time>
      </trkpt>
      <trkpt lat="47.00067" lon="-0.99362">
        <ele>56</ele>
        <time>2012-05-03T13:52:49Z</time>
      </trkpt>
      <trkpt lat="47.00068" lon="-0.99368">
        <ele>56</ele>
        <time>2012-05-03T13:52:50Z</time>
      </trkpt>
      <trkpt lat="47.00069" lon="-0.99372">
        <ele>56</ele>
        <time>2012-05-03T13:52:51Z</time>
      </trkpt>
      <trkpt lat="47.00069" lon="-0.99378">
        <ele>56</ele>
        <time>2012-05-03T13:52:52Z</time>
      </trkpt>
      <trkpt lat="47.00071" lon="-0.99383">
        <ele>56</ele>
        <time>2012-05-03T13:52:53Z</time>
      </trkpt>
      <trkpt lat="47.00071" lon="-0.99388">
        <ele>56</ele>
        <time>2012-05-03T13:52:54Z</time>
      </trkpt>
      <trkpt lat="47.00071" lon="-0.99393">
        <ele>56</ele>
        <time>2012-05-03T13:52:55Z</time>
      </trkpt>
      <trkpt lat="47.00072" lon="-0.99398">
        <ele>56</ele>
        <time>2012-05-03T13:52:56Z</time>
      </trkpt>
      <trkpt lat="47.00072" lon="-0.99404">
        <ele>56</ele>
        <time>2012-05-03T13:52:57Z</time>
      </trkpt>
      <trkpt lat="47.00072" lon="-0.9941">
        <ele>56</ele>
        <time>2012-05-03T13:52:58Z</time>
      </trkpt>
      <trkpt lat="47.00071" lon="-0.99416">
        <ele>56</ele>
        <time>2012-05-03T13:52:59Z</time>
      </trkpt>
      <trkpt lat="47.0007" lon="-0.99423">
        <ele>56</ele>
        <time>2012-05-03T13:53:00Z</time>
      </trkpt>
      <trkpt lat="47.00068" lon="-0.99431">
        <ele>56</ele>
        <time>2012-05-03T13:53:01Z</time>
      </trkpt>
      <trkpt lat="47.00067" lon="-0.99437">
        <ele>56</ele>
        <time>2012-05-03T13:53:02Z</time>
      </trkpt>
      <trkpt lat="47.00066" lon="-0.99443">
        <ele>56</ele>
        <time>2012-05-03T13:53:03Z</time>
      </trkpt>
      <trkpt lat="47.00064" lon="-0.99449">
        <ele>56</ele>
        <time>2012-05-03T13:53:04Z</time>
      </trkpt>
      <trkpt lat="47.00062" lon="-0.99453">
        <ele>56</ele>
        <time>2012-05-03T13:53:05Z</time>
      </trkpt>
      <trkpt lat="47.00061" lon="-0.99457">
        <ele>56</ele>
        <time>2012-05-03T13:53:06Z</time>
      </trkpt>
      <trkpt lat="47.00061" lon="-0.9946">
        <ele>56</ele>
        <time>2012-05-03T13:53:07Z</time>
      </trkpt>
      <trkpt lat="47.00059" lon="-0.99463">
        <ele>57</ele>
        <time>2012-05-03T13:53:08Z</time>
      </trkpt>
      <trkpt lat="47.00059" lon="-0.99467">
        <ele>57</ele>
        <time>2012-05-03T13:53:09Z</time>
      </trkpt>
      <trkpt lat="47.00057" lon="-0.99472">
        <ele>58</ele>
        <time>2012-05-03T13:53:10Z</time>
      </trkpt>
      <trkpt lat="47.00058" lon="-0.99477">
        <ele>58</ele>
        <time>2012-05-03T13:53:11Z</time>
      </trkpt>
      <trkpt lat="47.00059" lon="-0.99482">
        <ele>58</ele>
        <time>2012-05-03T13:53:12Z</time>
      </trkpt>
      <trkpt lat="47.0006" lon="-0.99486">
        <ele>58</ele>
        <time>2012-05-03T13:53:13Z</time>
      </trkpt>
      <trkpt lat="47.00061" lon="-0.9949">
        <ele>58</ele>
        <time>2012-05-03T13:53:14Z</time>
      </trkpt>
      <trkpt lat="47.00061" lon="-0.99496">
        <ele>58</ele>
        <time>2012-05-03T13:53:15Z</time>
      </trkpt>
      <trkpt lat="47.00062" lon="-0.995">
        <ele>58</ele>
        <time>2012-05-03T13:53:17Z</time>
      </trkpt>
      <trkpt lat="47.00063" lon="-0.99504">
        <ele>58</ele>
        <time>2012-05-03T13:53:17Z</time>
      </trkpt>
      <trkpt lat="47.00065" lon="-0.99507">
        <ele>58</ele>
        <time>2012-05-03T13:53:18Z</time>
      </trkpt>
      <trkpt lat="47.00067" lon="-0.99511">
        <ele>58</ele>
        <time>2012-05-03T13:53:19Z</time>
      </trkpt>
      <trkpt lat="47.00068" lon="-0.99514">
        <ele>58</ele>
        <time>2012-05-03T13:53:20Z</time>
      </trkpt>
      <trkpt lat="47.00068" lon="-0.99519">
        <ele>58</ele>
        <time>2012-05-03T13:53:21Z</time>
      </trkpt>
      <trkpt lat="47.0007" lon="-0.99524">
        <ele>58</ele>
        <time>2012-05-03T13:53:22Z</time>
      </trkpt>
      <trkpt lat="47.00072" lon="-0.99528">
        <ele>58</ele>
        <time>2012-05-03T13:53:23Z</time>
      </trkpt>
      <trkpt lat="47.00073" lon="-0.99533">
        <ele>57</ele>
        <time>2012-05-03T13:53:24Z</time>
      </trkpt>
      <trkpt lat="47.00074" lon="-0.99538">
        <ele>57</ele>
        <time>2012-05-03T13:53:25Z</time>
      </trkpt>
      <trkpt lat="47.00074" lon="-0.99543">
        <ele>56</ele>
        <time>2012-05-03T13:53:26Z</time>
      </trkpt>
      <trkpt lat="47.00075" lon="-0.99548">
        <ele>55</ele>
        <time>2012-05-03T13:53:27Z</time>
      </trkpt>
      <trkpt lat="47.00076" lon="-0.99553">
        <ele>55</ele>
        <time>2012-05-03T13:53:28Z</time>
      </trkpt>
      <trkpt lat="47.00077" lon="-0.99557">
        <ele>55</ele>
        <time>2012-05-03T13:53:29Z</time>
      </trkpt>
      <trkpt lat="47.00079" lon="-0.99561">
        <ele>54</ele>
        <time>2012-05-03T13:53:30Z</time>
      </trkpt>
      <trkpt lat="47.0008" lon="-0.99563">
        <ele>54</ele>
        <time>2012-05-03T13:53:31Z</time>
      </trkpt>
      <trkpt lat="47.00081" lon="-0.99566">
        <ele>54</ele>
        <time>2012-05-03T13:53:32Z</time>
      </trkpt>
      <trkpt lat="47.00081" lon="-0.99568">
        <ele>54</ele>
        <time>2012-05-03T13:53:33Z</time>
      </trkpt>
      <trkpt lat="47.00082" lon="-0.9957">
        <ele>54</ele>
        <time>2012-05-03T13:53:34Z</time>
      </trkpt>
      <trkpt lat="47.00082" lon="-0.99573">
        <ele>54</ele>
        <time>2012-05-03T13:53:36Z</time>
      </trkpt>
      <trkpt lat="47.00084" lon="-0.99575">
        <ele>54</ele>
        <time>2012-05-03T13:53:38Z</time>
      </trkpt>
      <trkpt lat="47.00083" lon="-0.99577">
        <ele>54</ele>
        <time>2012-05-03T13:53:39Z</time>
      </trkpt>
      <trkpt lat="47.00085" lon="-0.99578">
        <ele>54</ele>
        <time>2012-05-03T13:53:42Z</time>
      </trkpt>
      <trkpt lat="47.00084" lon="-0.99579">
        <ele>54</ele>
        <time>2012-05-03T13:53:43Z</time>
      </trkpt>
      <trkpt lat="47.00083" lon="-0.9958">
        <ele>54</ele>
        <time>2012-05-03T13:53:45Z</time>
      </trkpt>
      <trkpt lat="47.00084" lon="-0.99582">
        <ele>58</ele>
        <time>2012-05-03T13:53:50Z</time>
      </trkpt>
      <trkpt lat="47.00085" lon="-0.99582">
        <ele>59</ele>
        <time>2012-05-03T13:53:51Z</time>
      </trkpt>
      <trkpt lat="47.00087" lon="-0.99585">
        <ele>61</ele>
        <time>2012-05-03T13:53:53Z</time>
      </trkpt>
      <trkpt lat="47.00088" lon="-0.99586">
        <ele>61</ele>
        <time>2012-05-03T13:53:54Z</time>
      </trkpt>
      <trkpt lat="47.0009" lon="-0.99585">
        <ele>61</ele>
        <time>2012-05-03T13:53:55Z</time>
      </trkpt>
      <trkpt lat="47.00092" lon="-0.99585">
        <ele>61</ele>
        <time>2012-05-03T13:53:56Z</time>
      </trkpt>
      <trkpt lat="47.00095" lon="-0.99586">
        <ele>61</ele>
        <time>2012-05-03T13:53:57Z</time>
      </trkpt>
      <trkpt lat="47.00096" lon="-0.99585">
        <ele>61</ele>
        <time>2012-05-03T13:53:58Z</time>
      </trkpt>
      <trkpt lat="47.00098" lon="-0.99586">
        <ele>61</ele>
        <time>2012-05-03T13:53:59Z</time>
      </trkpt>
      <trkpt lat="47.001" lon="-0.99586">
        <ele>61</ele>
        <time>2012-05-03T13:54:00Z</time>
      </trkpt>
      <trkpt lat="47.00101" lon="-0.99586">
        <ele>61</ele>
        <time>2012-05-03T13:54:01Z</time>
      </trkpt>
      <trkpt lat="47.00102" lon="-0.99585">
        <ele>61</ele>
        <time>2012-05-03T13:54:02Z</time>
      </trkpt>
      <trkpt lat="47.00104" lon="-0.99585">
        <ele>61</ele>
        <time>2012-05-03T13:54:03Z</time>
      </trkpt>
      <trkpt lat="47.00106" lon="-0.99585">
        <ele>61</ele>
        <time>2012-05-03T13:54:04Z</time>
      </trkpt>
      <trkpt lat="47.00108" lon="-0.99583">
        <ele>61</ele>
        <time>2012-05-03T13:54:06Z</time>
      </trkpt>
      <trkpt lat="47.00109" lon="-0.99581">
        <ele>61</ele>
        <time>2012-05-03T13:54:07Z</time>
      </trkpt>
      <trkpt lat="47.00111" lon="-0.99581">
        <ele>61</ele>
        <time>2012-05-03T13:54:08Z</time>
      </trkpt>
      <trkpt lat="47.00112" lon="-0.9958">
        <ele>62</ele>
        <time>2012-05-03T13:54:09Z</time>
      </trkpt>
      <trkpt lat="47.00114" lon="-0.99579">
        <ele>62</ele>
        <time>2012-05-03T13:54:10Z</time>
      </trkpt>
      <trkpt lat="47.00115" lon="-0.99578">
        <ele>62</ele>
        <time>2012-05-03T13:54:11Z</time>
      </trkpt>
      <trkpt lat="47.00117" lon="-0.99576">
        <ele>63</ele>
        <time>2012-05-03T13:54:13Z</time>
      </trkpt>
      <trkpt lat="47.00119" lon="-0.99575">
        <ele>63</ele>
        <time>2012-05-03T13:54:14Z</time>
      </trkpt>
      <trkpt lat="47.0012" lon="-0.99574">
        <ele>64</ele>
        <time>2012-05-03T13:54:15Z</time>
      </trkpt>
      <trkpt lat="47.00121" lon="-0.99573">
        <ele>64</ele>
        <time>2012-05-03T13:54:17Z</time>
      </trkpt>
      <trkpt lat="47.00123" lon="-0.99572">
        <ele>66</ele>
        <time>2012-05-03T13:54:18Z</time>
      </trkpt>
      <trkpt lat="47.00125" lon="-0.99569">
        <ele>66</ele>
        <time>2012-05-03T13:54:20Z</time>
      </trkpt>
      <trkpt lat="47.00126" lon="-0.99568">
        <ele>67</ele>
        <time>2012-05-03T13:54:21Z</time>
      </trkpt>
      <trkpt lat="47.00128" lon="-0.99566">
        <ele>67</ele>
        <time>2012-05-03T13:54:23Z</time>
      </trkpt>
      <trkpt lat="47.00129" lon="-0.99564">
        <ele>67</ele>
        <time>2012-05-03T13:54:24Z</time>
      </trkpt>
      <trkpt lat="47.00131" lon="-0.99563">
        <ele>68</ele>
        <time>2012-05-03T13:54:25Z</time>
      </trkpt>
      <trkpt lat="47.00132" lon="-0.99562">
        <ele>68</ele>
        <time>2012-05-03T13:54:26Z</time>
      </trkpt>
      <trkpt lat="47.00135" lon="-0.99559">
        <ele>69</ele>
        <time>2012-05-03T13:54:28Z</time>
      </trkpt>
      <trkpt lat="47.00136" lon="-0.99558">
        <ele>69</ele>
        <time>2012-05-03T13:54:29Z</time>
      </trkpt>
      <trkpt lat="47.00137" lon="-0.99556">
        <ele>69</ele>
        <time>2012-05-03T13:54:30Z</time>
      </trkpt>
      <trkpt lat="47.00138" lon="-0.99555">
        <ele>69</ele>
        <time>2012-05-03T13:54:31Z</time>
      </trkpt>
      <trkpt lat="47.00139" lon="-0.99553">
        <ele>69</ele>
        <time>2012-05-03T13:54:32Z</time>
      </trkpt>
      <trkpt lat="47.0014" lon="-0.99551">
        <ele>69</ele>
        <time>2012-05-03T13:54:33Z</time>
      </trkpt>
      <trkpt lat="47.00141" lon="-0.99549">
        <ele>69</ele>
        <time>2012-05-03T13:54:34Z</time>
      </trkpt>
      <trkpt lat="47.00142" lon="-0.99547">
        <ele>69</ele>
        <time>2012-05-03T13:54:35Z</time>
      </trkpt>
      <trkpt lat="47.00143" lon="-0.99546">
        <ele>69</ele>
        <time>2012-05-03T13:54:36Z</time>
      </trkpt>
      <trkpt lat="47.00145" lon="-0.99545">
        <ele>70</ele>
        <time>2012-05-03T13:54:37Z</time>
      </trkpt>
      <trkpt lat="47.00146" lon="-0.99544">
        <ele>70</ele>
        <time>2012-05-03T13:54:38Z</time>
      </trkpt>
      <trkpt lat="47.00147" lon="-0.99543">
        <ele>70</ele>
        <time>2012-05-03T13:54:39Z</time>
      </trkpt>
      <trkpt lat="47.00148" lon="-0.99542">
        <ele>70</ele>
        <time>2012-05-03T13:54:40Z</time>
      </trkpt>
      <trkpt lat="47.0015" lon="-0.99541">
        <ele>71</ele>
        <time>2012-05-03T13:54:41Z</time>
      </trkpt>
      <trkpt lat="47.00151" lon="-0.9954">
        <ele>71</ele>
        <time>2012-05-03T13:54:42Z</time>
      </trkpt>
      <trkpt lat="47.00152" lon="-0.99539">
        <ele>71</ele>
        <time>2012-05-03T13:54:43Z</time>
      </trkpt>
      <trkpt lat="47.00153" lon="-0.99538">
        <ele>72</ele>
        <time>2012-05-03T13:54:44Z</time>
      </trkpt>
      <trkpt lat="47.00155" lon="-0.99537">
        <ele>72</ele>
        <time>2012-05-03T13:54:45Z</time>
      </trkpt>
      <trkpt lat="47.00156" lon="-0.99536">
        <ele>72</ele>
        <time>2012-05-03T13:54:46Z</time>
      </trkpt>
      <trkpt lat="47.00157" lon="-0.99535">
        <ele>72</ele>
        <time>2012-05-03T13:54:47Z</time>
      </trkpt>
      <trkpt lat="47.00159" lon="-0.99534">
        <ele>73</ele>
        <time>2012-05-03T13:54:48Z</time>
      </trkpt>
      <trkpt lat="47.0016" lon="-0.99533">
        <ele>73</ele>
        <time>2012-05-03T13:54:49Z</time>
      </trkpt>
      <trkpt lat="47.00161" lon="-0.99532">
        <ele>73</ele>
        <time>2012-05-03T13:54:50Z</time>
      </trkpt>
      <trkpt lat="47.00162" lon="-0.99531">
        <ele>73</ele>
        <time>2012-05-03T13:54:51Z</time>
      </trkpt>
      <trkpt lat="47.00164" lon="-0.99529">
        <ele>74</ele>
        <time>2012-05-03T13:54:53Z</time>
      </trkpt>
      <trkpt lat="47.00165" lon="-0.99528">
        <ele>74</ele>
        <time>2012-05-03T13:54:54Z</time>
      </trkpt>
      <trkpt lat="47.00167" lon="-0.99527">
        <ele>74</ele>
        <time>2012-05-03T13:54:55Z</time>
      </trkpt>
      <trkpt lat="47.00168" lon="-0.99526">
        <ele>74</ele>
        <time>2012-05-03T13:54:56Z</time>
      </trkpt>
      <trkpt lat="47.0017" lon="-0.99524">
        <ele>74</ele>
        <time>2012-05-03T13:54:58Z</time>
      </trkpt>
      <trkpt lat="47.00172" lon="-0.99522">
        <ele>75</ele>
        <time>2012-05-03T13:54:59Z</time>
      </trkpt>
      <trkpt lat="47.00173" lon="-0.99521">
        <ele>75</ele>
        <time>2012-05-03T13:55:00Z</time>
      </trkpt>
      <trkpt lat="47.00174" lon="-0.99519">
        <ele>76</ele>
        <time>2012-05-03T13:55:01Z</time>
      </trkpt>
      <trkpt lat="47.00176" lon="-0.99518">
        <ele>77</ele>
        <time>2012-05-03T13:55:02Z</time>
      </trkpt>
      <trkpt lat="47.00177" lon="-0.99517">
        <ele>77</ele>
        <time>2012-05-03T13:55:03Z</time>
      </trkpt>
      <trkpt lat="47.00178" lon="-0.99516">
        <ele>77</ele>
        <time>2012-05-03T13:55:04Z</time>
      </trkpt>
      <trkpt lat="47.0018" lon="-0.99515">
        <ele>78</ele>
        <time>2012-05-03T13:55:05Z</time>
      </trkpt>
      <trkpt lat="47.00181" lon="-0.99514">
        <ele>78</ele>
        <time>2012-05-03T13:55:06Z</time>
      </trkpt>
      <trkpt lat="47.00182" lon="-0.99512">
        <ele>79</ele>
        <time>2012-05-03T13:55:07Z</time>
      </trkpt>
      <trkpt lat="47.00183" lon="-0.99511">
        <ele>79</ele>
        <time>2012-05-03T13:55:08Z</time>
      </trkpt>
      <trkpt lat="47.00185" lon="-0.9951">
        <ele>79</ele>
        <time>2012-05-03T13:55:09Z</time>
      </trkpt>
      <trkpt lat="47.00186" lon="-0.99509">
        <ele>79</ele>
        <time>2012-05-03T13:55:10Z</time>
      </trkpt>
      <trkpt lat="47.00187" lon="-0.99507">
        <ele>80</ele>
        <time>2012-05-03T13:55:11Z</time>
      </trkpt>
      <trkpt lat="47.00188" lon="-0.99506">
        <ele>80</ele>
        <time>2012-05-03T13:55:12Z</time>
      </trkpt>
      <trkpt lat="47.0019" lon="-0.99505">
        <ele>80</ele>
        <time>2012-05-03T13:55:13Z</time>
      </trkpt>
      <trkpt lat="47.00191" lon="-0.99503">
        <ele>80</ele>
        <time>2012-05-03T13:55:14Z</time>
      </trkpt>
      <trkpt lat="47.00193" lon="-0.99502">
        <ele>80</ele>
        <time>2012-05-03T13:55:15Z</time>
      </trkpt>
      <trkpt lat="47.00194" lon="-0.99501">
        <ele>80</ele>
        <time>2012-05-03T13:55:17Z</time>
      </trkpt>
      <trkpt lat="47.00196" lon="-0.99499">
        <ele>80</ele>
        <time>2012-05-03T13:55:17Z</time>
      </trkpt>
      <trkpt lat="47.00197" lon="-0.99498">
        <ele>80</ele>
        <time>2012-05-03T13:55:18Z</time>
      </trkpt>
      <trkpt lat="47.00199" lon="-0.99497">
        <ele>80</ele>
        <time>2012-05-03T13:55:19Z</time>
      </trkpt>
      <trkpt lat="47.002" lon="-0.99496">
        <ele>80</ele>
        <time>2012-05-03T13:55:20Z</time>
      </trkpt>
      <trkpt lat="47.00202" lon="-0.99494">
        <ele>81</ele>
        <time>2012-05-03T13:55:21Z</time>
      </trkpt>
      <trkpt lat="47.00204" lon="-0.99493">
        <ele>81</ele>
        <time>2012-05-03T13:55:22Z</time>
      </trkpt>
      <trkpt lat="47.00205" lon="-0.99493">
        <ele>81</ele>
        <time>2012-05-03T13:55:23Z</time>
      </trkpt>
      <trkpt lat="47.00207" lon="-0.99492">
        <ele>81</ele>
        <time>2012-05-03T13:55:24Z</time>
      </trkpt>
      <trkpt lat="47.00209" lon="-0.99491">
        <ele>82</ele>
        <time>2012-05-03T13:55:25Z</time>
      </trkpt>
      <trkpt lat="47.0021" lon="-0.9949">
        <ele>82</ele>
        <time>2012-05-03T13:55:26Z</time>
      </trkpt>
      <trkpt lat="47.00212" lon="-0.99489">
        <ele>82</ele>
        <time>2012-05-03T13:55:27Z</time>
      </trkpt>
      <trkpt lat="47.00214" lon="-0.99489">
        <ele>82</ele>
        <time>2012-05-03T13:55:28Z</time>
      </trkpt>
      <trkpt lat="47.00216" lon="-0.99489">
        <ele>82</ele>
        <time>2012-05-03T13:55:29Z</time>
      </trkpt>
      <trkpt lat="47.00217" lon="-0.99488">
        <ele>82</ele>
        <time>2012-05-03T13:55:30Z</time>
      </trkpt>
      <trkpt lat="47.00219" lon="-0.99487">
        <ele>82</ele>
        <time>2012-05-03T13:55:31Z</time>
      </trkpt>
      <trkpt lat="47.00221" lon="-0.99486">
        <ele>82</ele>
        <time>2012-05-03T13:55:32Z</time>
      </trkpt>
      <trkpt lat="47.00222" lon="-0.99486">
        <ele>82</ele>
        <time>2012-05-03T13:55:33Z</time>
      </trkpt>
      <trkpt lat="47.00224" lon="-0.99485">
        <ele>83</ele>
        <time>2012-05-03T13:55:34Z</time>
      </trkpt>
      <trkpt lat="47.00226" lon="-0.99484">
        <ele>83</ele>
        <time>2012-05-03T13:55:35Z</time>
      </trkpt>
      <trkpt lat="47.00228" lon="-0.99483">
        <ele>83</ele>
        <time>2012-05-03T13:55:36Z</time>
      </trkpt>
      <trkpt lat="47.0023" lon="-0.99482">
        <ele>83</ele>
        <time>2012-05-03T13:55:37Z</time>
      </trkpt>
      <trkpt lat="47.00232" lon="-0.9948">
        <ele>83</ele>
        <time>2012-05-03T13:55:38Z</time>
      </trkpt>
      <trkpt lat="47.00234" lon="-0.99479">
        <ele>83</ele>
        <time>2012-05-03T13:55:39Z</time>
      </trkpt>
      <trkpt lat="47.00236" lon="-0.99477">
        <ele>83</ele>
        <time>2012-05-03T13:55:40Z</time>
      </trkpt>
      <trkpt lat="47.00238" lon="-0.99475">
        <ele>83</ele>
        <time>2012-05-03T13:55:41Z</time>
      </trkpt>
      <trkpt lat="47.0024" lon="-0.99473">
        <ele>83</ele>
        <time>2012-05-03T13:55:42Z</time>
      </trkpt>
      <trkpt lat="47.00241" lon="-0.99471">
        <ele>83</ele>
        <time>2012-05-03T13:55:43Z</time>
      </trkpt>
      <trkpt lat="47.00243" lon="-0.99469">
        <ele>83</ele>
        <time>2012-05-03T13:55:44Z</time>
      </trkpt>
      <trkpt lat="47.00245" lon="-0.99467">
        <ele>84</ele>
        <time>2012-05-03T13:55:45Z</time>
      </trkpt>
      <trkpt lat="47.00247" lon="-0.99464">
        <ele>84</ele>
        <time>2012-05-03T13:55:46Z</time>
      </trkpt>
      <trkpt lat="47.00248" lon="-0.99462">
        <ele>84</ele>
        <time>2012-05-03T13:55:47Z</time>
      </trkpt>
      <trkpt lat="47.0025" lon="-0.9946">
        <ele>84</ele>
        <time>2012-05-03T13:55:48Z</time>
      </trkpt>
      <trkpt lat="47.00251" lon="-0.99458">
        <ele>84</ele>
        <time>2012-05-03T13:55:49Z</time>
      </trkpt>
      <trkpt lat="47.00253" lon="-0.99456">
        <ele>84</ele>
        <time>2012-05-03T13:55:50Z</time>
      </trkpt>
      <trkpt lat="47.00254" lon="-0.99453">
        <ele>84</ele>
        <time>2012-05-03T13:55:51Z</time>
      </trkpt>
      <trkpt lat="47.00255" lon="-0.99451">
        <ele>84</ele>
        <time>2012-05-03T13:55:52Z</time>
      </trkpt>
      <trkpt lat="47.00256" lon="-0.99449">
        <ele>85</ele>
        <time>2012-05-03T13:55:53Z</time>
      </trkpt>
      <trkpt lat="47.00257" lon="-0.99447">
        <ele>85</ele>
        <time>2012-05-03T13:55:54Z</time>
      </trkpt>
      <trkpt lat="47.00257" lon="-0.99444">
        <ele>85</ele>
        <time>2012-05-03T13:55:55Z</time>
      </trkpt>
      <trkpt lat="47.00258" lon="-0.99442">
        <ele>85</ele>
        <time>2012-05-03T13:55:56Z</time>
      </trkpt>
      <trkpt lat="47.00259" lon="-0.9944">
        <ele>86</ele>
        <time>2012-05-03T13:55:57Z</time>
      </trkpt>
      <trkpt lat="47.00259" lon="-0.99437">
        <ele>86</ele>
        <time>2012-05-03T13:55:58Z</time>
      </trkpt>
      <trkpt lat="47.0026" lon="-0.99435">
        <ele>86</ele>
        <time>2012-05-03T13:55:59Z</time>
      </trkpt>
      <trkpt lat="47.00261" lon="-0.99433">
        <ele>87</ele>
        <time>2012-05-03T13:56:00Z</time>
      </trkpt>
      <trkpt lat="47.00261" lon="-0.99431">
        <ele>88</ele>
        <time>2012-05-03T13:56:01Z</time>
      </trkpt>
      <trkpt lat="47.00262" lon="-0.99429">
        <ele>88</ele>
        <time>2012-05-03T13:56:02Z</time>
      </trkpt>
      <trkpt lat="47.00262" lon="-0.99427">
        <ele>89</ele>
        <time>2012-05-03T13:56:03Z</time>
      </trkpt>
      <trkpt lat="47.00263" lon="-0.99425">
        <ele>89</ele>
        <time>2012-05-03T13:56:04Z</time>
      </trkpt>
      <trkpt lat="47.00264" lon="-0.99423">
        <ele>89</ele>
        <time>2012-05-03T13:56:05Z</time>
      </trkpt>
      <trkpt lat="47.00265" lon="-0.99421">
        <ele>90</ele>
        <time>2012-05-03T13:56:06Z</time>
      </trkpt>
      <trkpt lat="47.00266" lon="-0.99419">
        <ele>90</ele>
        <time>2012-05-03T13:56:07Z</time>
      </trkpt>
      <trkpt lat="47.00266" lon="-0.99417">
        <ele>91</ele>
        <time>2012-05-03T13:56:08Z</time>
      </trkpt>
      <trkpt lat="47.00266" lon="-0.99415">
        <ele>91</ele>
        <time>2012-05-03T13:56:09Z</time>
      </trkpt>
      <trkpt lat="47.00266" lon="-0.99413">
        <ele>92</ele>
        <time>2012-05-03T13:56:10Z</time>
      </trkpt>
      <trkpt lat="47.00266" lon="-0.99411">
        <ele>92</ele>
        <time>2012-05-03T13:56:11Z</time>
      </trkpt>
      <trkpt lat="47.00267" lon="-0.99409">
        <ele>93</ele>
        <time>2012-05-03T13:56:12Z</time>
      </trkpt>
      <trkpt lat="47.00267" lon="-0.99407">
        <ele>94</ele>
        <time>2012-05-03T13:56:13Z</time>
      </trkpt>
      <trkpt lat="47.00268" lon="-0.99405">
        <ele>94</ele>
        <time>2012-05-03T13:56:14Z</time>
      </trkpt>
      <trkpt lat="47.00268" lon="-0.99403">
        <ele>95</ele>
        <time>2012-05-03T13:56:15Z</time>
      </trkpt>
      <trkpt lat="47.00268" lon="-0.99401">
        <ele>95</ele>
        <time>2012-05-03T13:56:17Z</time>
      </trkpt>
      <trkpt lat="47.00269" lon="-0.994">
        <ele>95</ele>
        <time>2012-05-03T13:56:17Z</time>
      </trkpt>
      <trkpt lat="47.0027" lon="-0.99398">
        <ele>96</ele>
        <time>2012-05-03T13:56:18Z</time>
      </trkpt>
      <trkpt lat="47.00271" lon="-0.99396">
        <ele>96</ele>
        <time>2012-05-03T13:56:19Z</time>
      </trkpt>
      <trkpt lat="47.00272" lon="-0.99394">
        <ele>97</ele>
        <time>2012-05-03T13:56:20Z</time>
      </trkpt>
      <trkpt lat="47.00272" lon="-0.99392">
        <ele>97</ele>
        <time>2012-05-03T13:56:21Z</time>
      </trkpt>
      <trkpt lat="47.00273" lon="-0.99391">
        <ele>97</ele>
        <time>2012-05-03T13:56:22Z</time>
      </trkpt>
      <trkpt lat="47.00275" lon="-0.99388">
        <ele>97</ele>
        <time>2012-05-03T13:56:23Z</time>
      </trkpt>
      <trkpt lat="47.00275" lon="-0.99385">
        <ele>97</ele>
        <time>2012-05-03T13:56:24Z</time>
      </trkpt>
      <trkpt lat="47.00276" lon="-0.99383">
        <ele>97</ele>
        <time>2012-05-03T13:56:25Z</time>
      </trkpt>
      <trkpt lat="47.00276" lon="-0.9938">
        <ele>97</ele>
        <time>2012-05-03T13:56:26Z</time>
      </trkpt>
      <trkpt lat="47.00276" lon="-0.99378">
        <ele>97</ele>
        <time>2012-05-03T13:56:27Z</time>
      </trkpt>
      <trkpt lat="47.00276" lon="-0.99376">
        <ele>97</ele>
        <time>2012-05-03T13:56:28Z</time>
      </trkpt>
      <trkpt lat="47.00276" lon="-0.99374">
        <ele>97</ele>
        <time>2012-05-03T13:56:29Z</time>
      </trkpt>
      <trkpt lat="47.00276" lon="-0.99371">
        <ele>97</ele>
        <time>2012-05-03T13:56:30Z</time>
      </trkpt>
      <trkpt lat="47.00276" lon="-0.99368">
        <ele>98</ele>
        <time>2012-05-03T13:56:31Z</time>
      </trkpt>
      <trkpt lat="47.00276" lon="-0.99366">
        <ele>98</ele>
        <time>2012-05-03T13:56:32Z</time>
      </trkpt>
      <trkpt lat="47.00276" lon="-0.99363">
        <ele>98</ele>
        <time>2012-05-03T13:56:33Z</time>
      </trkpt>
      <trkpt lat="47.00276" lon="-0.9936">
        <ele>98</ele>
        <time>2012-05-03T13:56:34Z</time>
      </trkpt>
      <trkpt lat="47.00276" lon="-0.99358">
        <ele>99</ele>
        <time>2012-05-03T13:56:35Z</time>
      </trkpt>
      <trkpt lat="47.00276" lon="-0.99355">
        <ele>99</ele>
        <time>2012-05-03T13:56:36Z</time>
      </trkpt>
      <trkpt lat="47.00276" lon="-0.99353">
        <ele>99</ele>
        <time>2012-05-03T13:56:37Z</time>
      </trkpt>
      <trkpt lat="47.00277" lon="-0.9935">
        <ele>99</ele>
        <time>2012-05-03T13:56:38Z</time>
      </trkpt>
      <trkpt lat="47.00277" lon="-0.99347">
        <ele>99</ele>
        <time>2012-05-03T13:56:39Z</time>
      </trkpt>
      <trkpt lat="47.00278" lon="-0.99345">
        <ele>99</ele>
        <time>2012-05-03T13:56:40Z</time>
      </trkpt>
      <trkpt lat="47.00279" lon="-0.99343">
        <ele>99</ele>
        <time>2012-05-03T13:56:41Z</time>
      </trkpt>
      <trkpt lat="47.00281" lon="-0.99342">
        <ele>99</ele>
        <time>2012-05-03T13:56:42Z</time>
      </trkpt>
      <trkpt lat="47.00282" lon="-0.99341">
        <ele>99</ele>
        <time>2012-05-03T13:56:43Z</time>
      </trkpt>
      <trkpt lat="47.00283" lon="-0.9934">
        <ele>99</ele>
        <time>2012-05-03T13:56:44Z</time>
      </trkpt>
      <trkpt lat="47.00285" lon="-0.99341">
        <ele>99</ele>
        <time>2012-05-03T13:56:45Z</time>
      </trkpt>
      <trkpt lat="47.00286" lon="-0.99342">
        <ele>99</ele>
        <time>2012-05-03T13:56:46Z</time>
      </trkpt>
      <trkpt lat="47.00287" lon="-0.99344">
        <ele>99</ele>
        <time>2012-05-03T13:56:47Z</time>
      </trkpt>
      <trkpt lat="47.00288" lon="-0.99346">
        <ele>99</ele>
        <time>2012-05-03T13:56:48Z</time>
      </trkpt>
      <trkpt lat="47.0029" lon="-0.99348">
        <ele>99</ele>
        <time>2012-05-03T13:56:49Z</time>
      </trkpt>
      <trkpt lat="47.00291" lon="-0.99349">
        <ele>99</ele>
        <time>2012-05-03T13:56:50Z</time>
      </trkpt>
      <trkpt lat="47.00292" lon="-0.99351">
        <ele>99</ele>
        <time>2012-05-03T13:56:51Z</time>
      </trkpt>
      <trkpt lat="47.00293" lon="-0.99353">
        <ele>99</ele>
        <time>2012-05-03T13:56:52Z</time>
      </trkpt>
      <trkpt lat="47.00294" lon="-0.99355">
        <ele>99</ele>
        <time>2012-05-03T13:56:53Z</time>
      </trkpt>
      <trkpt lat="47.00296" lon="-0.99357">
        <ele>99</ele>
        <time>2012-05-03T13:56:54Z</time>
      </trkpt>
      <trkpt lat="47.00297" lon="-0.99359">
        <ele>99</ele>
        <time>2012-05-03T13:56:55Z</time>
      </trkpt>
      <trkpt lat="47.00298" lon="-0.99361">
        <ele>99</ele>
        <time>2012-05-03T13:56:56Z</time>
      </trkpt>
      <trkpt lat="47.003" lon="-0.99363">
        <ele>99</ele>
        <time>2012-05-03T13:56:57Z</time>
      </trkpt>
      <trkpt lat="47.00301" lon="-0.99365">
        <ele>99</ele>
        <time>2012-05-03T13:56:58Z</time>
      </trkpt>
      <trkpt lat="47.00301" lon="-0.99368">
        <ele>99</ele>
        <time>2012-05-03T13:56:59Z</time>
      </trkpt>
      <trkpt lat="47.00302" lon="-0.9937">
        <ele>99</ele>
        <time>2012-05-03T13:57:00Z</time>
      </trkpt>
      <trkpt lat="47.00304" lon="-0.99372">
        <ele>99</ele>
        <time>2012-05-03T13:57:01Z</time>
      </trkpt>
      <trkpt lat="47.00305" lon="-0.99374">
        <ele>99</ele>
        <time>2012-05-03T13:57:02Z</time>
      </trkpt>
      <trkpt lat="47.00306" lon="-0.99376">
        <ele>99</ele>
        <time>2012-05-03T13:57:03Z</time>
      </trkpt>
      <trkpt lat="47.00307" lon="-0.99378">
        <ele>99</ele>
        <time>2012-05-03T13:57:04Z</time>
      </trkpt>
      <trkpt lat="47.00309" lon="-0.99379">
        <ele>99</ele>
        <time>2012-05-03T13:57:05Z</time>
      </trkpt>
      <trkpt lat="47.0031" lon="-0.99381">
        <ele>99</ele>
        <time>2012-05-03T13:57:06Z</time>
      </trkpt>
      <trkpt lat="47.00312" lon="-0.99383">
        <ele>99</ele>
        <time>2012-05-03T13:57:07Z</time>
      </trkpt>
      <trkpt lat="47.00313" lon="-0.99385">
        <ele>99</ele>
        <time>2012-05-03T13:57:08Z</time>
      </trkpt>
      <trkpt lat="47.00315" lon="-0.99386">
        <ele>99</ele>
        <time>2012-05-03T13:57:09Z</time>
      </trkpt>
      <trkpt lat="47.00317" lon="-0.99388">
        <ele>99</ele>
        <time>2012-05-03T13:57:10Z</time>
      </trkpt>
      <trkpt lat="47.00319" lon="-0.9939">
        <ele>99</ele>
        <time>2012-05-03T13:57:11Z</time>
      </trkpt>
      <trkpt lat="47.0032" lon="-0.99392">
        <ele>100</ele>
        <time>2012-05-03T13:57:12Z</time>
      </trkpt>
      <trkpt lat="47.00322" lon="-0.99394">
        <ele>100</ele>
        <time>2012-05-03T13:57:13Z</time>
      </trkpt>
      <trkpt lat="47.00323" lon="-0.99397">
        <ele>100</ele>
        <time>2012-05-03T13:57:14Z</time>
      </trkpt>
      <trkpt lat="47.00325" lon="-0.994">
        <ele>100</ele>
        <time>2012-05-03T13:57:15Z</time>
      </trkpt>
      <trkpt lat="47.00326" lon="-0.99403">
        <ele>100</ele>
        <time>2012-05-03T13:57:17Z</time>
      </trkpt>
      <trkpt lat="47.00328" lon="-0.99405">
        <ele>100</ele>
        <time>2012-05-03T13:57:17Z</time>
      </trkpt>
      <trkpt lat="47.00329" lon="-0.99407">
        <ele>101</ele>
        <time>2012-05-03T13:57:18Z</time>
      </trkpt>
      <trkpt lat="47.0033" lon="-0.99409">
        <ele>101</ele>
        <time>2012-05-03T13:57:19Z</time>
      </trkpt>
      <trkpt lat="47.00332" lon="-0.99411">
        <ele>101</ele>
        <time>2012-05-03T13:57:20Z</time>
      </trkpt>
      <trkpt lat="47.00334" lon="-0.99414">
        <ele>102</ele>
        <time>2012-05-03T13:57:21Z</time>
      </trkpt>
      <trkpt lat="47.00336" lon="-0.99416">
        <ele>102</ele>
        <time>2012-05-03T13:57:22Z</time>
      </trkpt>
      <trkpt lat="47.00338" lon="-0.99418">
        <ele>102</ele>
        <time>2012-05-03T13:57:23Z</time>
      </trkpt>
      <trkpt lat="47.00341" lon="-0.99421">
        <ele>103</ele>
        <time>2012-05-03T13:57:24Z</time>
      </trkpt>
      <trkpt lat="47.00343" lon="-0.99424">
        <ele>103</ele>
        <time>2012-05-03T13:57:25Z</time>
      </trkpt>
      <trkpt lat="47.00346" lon="-0.99427">
        <ele>103</ele>
        <time>2012-05-03T13:57:26Z</time>
      </trkpt>
      <trkpt lat="47.00348" lon="-0.9943">
        <ele>103</ele>
        <time>2012-05-03T13:57:27Z</time>
      </trkpt>
      <trkpt lat="47.00351" lon="-0.99433">
        <ele>103</ele>
        <time>2012-05-03T13:57:28Z</time>
      </trkpt>
      <trkpt lat="47.00354" lon="-0.99435">
        <ele>103</ele>
        <time>2012-05-03T13:57:29Z</time>
      </trkpt>
      <trkpt lat="47.00357" lon="-0.99438">
        <ele>103</ele>
        <time>2012-05-03T13:57:30Z</time>
      </trkpt>
      <trkpt lat="47.00361" lon="-0.9944">
        <ele>103</ele>
        <time>2012-05-03T13:57:31Z</time>
      </trkpt>
      <trkpt lat="47.00364" lon="-0.99442">
        <ele>103</ele>
        <time>2012-05-03T13:57:32Z</time>
      </trkpt>
      <trkpt lat="47.00368" lon="-0.99443">
        <ele>103</ele>
        <time>2012-05-03T13:57:33Z</time>
      </trkpt>
      <trkpt lat="47.00372" lon="-0.99444">
        <ele>103</ele>
        <time>2012-05-03T13:57:34Z</time>
      </trkpt>
      <trkpt lat="47.00375" lon="-0.99445">
        <ele>103</ele>
        <time>2012-05-03T13:57:35Z</time>
      </trkpt>
      <trkpt lat="47.00378" lon="-0.99445">
        <ele>103</ele>
        <time>2012-05-03T13:57:36Z</time>
      </trkpt>
      <trkpt lat="47.00382" lon="-0.99445">
        <ele>103</ele>
        <time>2012-05-03T13:57:37Z</time>
      </trkpt>
      <trkpt lat="47.00385" lon="-0.99445">
        <ele>103</ele>
        <time>2012-05-03T13:57:38Z</time>
      </trkpt>
      <trkpt lat="47.00389" lon="-0.99445">
        <ele>103</ele>
        <time>2012-05-03T13:57:39Z</time>
      </trkpt>
      <trkpt lat="47.00392" lon="-0.99445">
        <ele>103</ele>
        <time>2012-05-03T13:57:40Z</time>
      </trkpt>
      <trkpt lat="47.00395" lon="-0.99444">
        <ele>103</ele>
        <time>2012-05-03T13:57:41Z</time>
      </trkpt>
      <trkpt lat="47.00399" lon="-0.99443">
        <ele>103</ele>
        <time>2012-05-03T13:57:42Z</time>
      </trkpt>
      <trkpt lat="47.00402" lon="-0.99442">
        <ele>103</ele>
        <time>2012-05-03T13:57:43Z</time>
      </trkpt>
      <trkpt lat="47.00406" lon="-0.99442">
        <ele>103</ele>
        <time>2012-05-03T13:57:44Z</time>
      </trkpt>
      <trkpt lat="47.0041" lon="-0.99441">
        <ele>103</ele>
        <time>2012-05-03T13:57:45Z</time>
      </trkpt>
      <trkpt lat="47.00414" lon="-0.99441">
        <ele>103</ele>
        <time>2012-05-03T13:57:46Z</time>
      </trkpt>
      <trkpt lat="47.00417" lon="-0.9944">
        <ele>103</ele>
        <time>2012-05-03T13:57:47Z</time>
      </trkpt>
      <trkpt lat="47.00421" lon="-0.99439">
        <ele>103</ele>
        <time>2012-05-03T13:57:48Z</time>
      </trkpt>
      <trkpt lat="47.00425" lon="-0.99439">
        <ele>103</ele>
        <time>2012-05-03T13:57:49Z</time>
      </trkpt>
      <trkpt lat="47.0043" lon="-0.99438">
        <ele>103</ele>
        <time>2012-05-03T13:57:50Z</time>
      </trkpt>
      <trkpt lat="47.00434" lon="-0.99437">
        <ele>103</ele>
        <time>2012-05-03T13:57:51Z</time>
      </trkpt>
      <trkpt lat="47.00438" lon="-0.99437">
        <ele>103</ele>
        <time>2012-05-03T13:57:52Z</time>
      </trkpt>
      <trkpt lat="47.00443" lon="-0.99436">
        <ele>103</ele>
        <time>2012-05-03T13:57:53Z</time>
      </trkpt>
      <trkpt lat="47.00447" lon="-0.99436">
        <ele>103</ele>
        <time>2012-05-03T13:57:54Z</time>
      </trkpt>
      <trkpt lat="47.00452" lon="-0.99435">
        <ele>103</ele>
        <time>2012-05-03T13:57:55Z</time>
      </trkpt>
      <trkpt lat="47.00457" lon="-0.99435">
        <ele>103</ele>
        <time>2012-05-03T13:57:56Z</time>
      </trkpt>
      <trkpt lat="47.00461" lon="-0.99434">
        <ele>103</ele>
        <time>2012-05-03T13:57:57Z</time>
      </trkpt>
      <trkpt lat="47.00466" lon="-0.99434">
        <ele>103</ele>
        <time>2012-05-03T13:57:58Z</time>
      </trkpt>
      <trkpt lat="47.0047" lon="-0.99434">
        <ele>103</ele>
        <time>2012-05-03T13:57:59Z</time>
      </trkpt>
      <trkpt lat="47.00475" lon="-0.99434">
        <ele>103</ele>
        <time>2012-05-03T13:58:00Z</time>
      </trkpt>
      <trkpt lat="47.0048" lon="-0.99434">
        <ele>103</ele>
        <time>2012-05-03T13:58:01Z</time>
      </trkpt>
      <trkpt lat="47.00484" lon="-0.99433">
        <ele>103</ele>
        <time>2012-05-03T13:58:02Z</time>
      </trkpt>
      <trkpt lat="47.00489" lon="-0.99433">
        <ele>103</ele>
        <time>2012-05-03T13:58:03Z</time>
      </trkpt>
      <trkpt lat="47.00494" lon="-0.99432">
        <ele>103</ele>
        <time>2012-05-03T13:58:04Z</time>
      </trkpt>
      <trkpt lat="47.00498" lon="-0.99431">
        <ele>103</ele>
        <time>2012-05-03T13:58:05Z</time>
      </trkpt>
      <trkpt lat="47.00502" lon="-0.9943">
        <ele>103</ele>
        <time>2012-05-03T13:58:06Z</time>
      </trkpt>
      <trkpt lat="47.00507" lon="-0.9943">
        <ele>103</ele>
        <time>2012-05-03T13:58:07Z</time>
      </trkpt>
      <trkpt lat="47.00511" lon="-0.99429">
        <ele>103</ele>
        <time>2012-05-03T13:58:08Z</time>
      </trkpt>
      <trkpt lat="47.00516" lon="-0.99428">
        <ele>103</ele>
        <time>2012-05-03T13:58:09Z</time>
      </trkpt>
      <trkpt lat="47.00521" lon="-0.99427">
        <ele>103</ele>
        <time>2012-05-03T13:58:10Z</time>
      </trkpt>
      <trkpt lat="47.00526" lon="-0.99425">
        <ele>103</ele>
        <time>2012-05-03T13:58:11Z</time>
      </trkpt>
      <trkpt lat="47.00529" lon="-0.9942">
        <ele>103</ele>
        <time>2012-05-03T13:58:12Z</time>
      </trkpt>
      <trkpt lat="47.0053" lon="-0.99414">
        <ele>103</ele>
        <time>2012-05-03T13:58:13Z</time>
      </trkpt>
      <trkpt lat="47.00529" lon="-0.99408">
        <ele>103</ele>
        <time>2012-05-03T13:58:14Z</time>
      </trkpt>
      <trkpt lat="47.00527" lon="-0.99402">
        <ele>103</ele>
        <time>2012-05-03T13:58:15Z</time>
      </trkpt>
      <trkpt lat="47.00525" lon="-0.99397">
        <ele>103</ele>
        <time>2012-05-03T13:58:17Z</time>
      </trkpt>
      <trkpt lat="47.00523" lon="-0.99391">
        <ele>103</ele>
        <time>2012-05-03T13:58:17Z</time>
      </trkpt>
      <trkpt lat="47.00521" lon="-0.99385">
        <ele>103</ele>
        <time>2012-05-03T13:58:18Z</time>
      </trkpt>
      <trkpt lat="47.00519" lon="-0.99379">
        <ele>103</ele>
        <time>2012-05-03T13:58:19Z</time>
      </trkpt>
      <trkpt lat="47.00518" lon="-0.99374">
        <ele>103</ele>
        <time>2012-05-03T13:58:20Z</time>
      </trkpt>
      <trkpt lat="47.00517" lon="-0.99367">
        <ele>103</ele>
        <time>2012-05-03T13:58:21Z</time>
      </trkpt>
      <trkpt lat="47.00515" lon="-0.99361">
        <ele>103</ele>
        <time>2012-05-03T13:58:22Z</time>
      </trkpt>
      <trkpt lat="47.00515" lon="-0.99355">
        <ele>103</ele>
        <time>2012-05-03T13:58:23Z</time>
      </trkpt>
      <trkpt lat="47.00514" lon="-0.99349">
        <ele>103</ele>
        <time>2012-05-03T13:58:24Z</time>
      </trkpt>
      <trkpt lat="47.00513" lon="-0.99343">
        <ele>103</ele>
        <time>2012-05-03T13:58:25Z</time>
      </trkpt>
      <trkpt lat="47.00513" lon="-0.99337">
        <ele>103</ele>
        <time>2012-05-03T13:58:26Z</time>
      </trkpt>
      <trkpt lat="47.00513" lon="-0.99331">
        <ele>103</ele>
        <time>2012-05-03T13:58:27Z</time>
      </trkpt>
      <trkpt lat="47.00513" lon="-0.99326">
        <ele>103</ele>
        <time>2012-05-03T13:58:28Z</time>
      </trkpt>
      <trkpt lat="47.00513" lon="-0.9932">
        <ele>103</ele>
        <time>2012-05-03T13:58:29Z</time>
      </trkpt>
      <trkpt lat="47.00512" lon="-0.99314">
        <ele>103</ele>
        <time>2012-05-03T13:58:30Z</time>
      </trkpt>
      <trkpt lat="47.00512" lon="-0.99308">
        <ele>104</ele>
        <time>2012-05-03T13:58:31Z</time>
      </trkpt>
      <trkpt lat="47.00512" lon="-0.99302">
        <ele>104</ele>
        <time>2012-05-03T13:58:32Z</time>
      </trkpt>
      <trkpt lat="47.00513" lon="-0.99296">
        <ele>104</ele>
        <time>2012-05-03T13:58:33Z</time>
      </trkpt>
      <trkpt lat="47.00513" lon="-0.9929">
        <ele>104</ele>
        <time>2012-05-03T13:58:34Z</time>
      </trkpt>
      <trkpt lat="47.00513" lon="-0.99284">
        <ele>104</ele>
        <time>2012-05-03T13:58:35Z</time>
      </trkpt>
      <trkpt lat="47.00513" lon="-0.99278">
        <ele>104</ele>
        <time>2012-05-03T13:58:36Z</time>
      </trkpt>
      <trkpt lat="47.00512" lon="-0.99272">
        <ele>104</ele>
        <time>2012-05-03T13:58:37Z</time>
      </trkpt>
      <trkpt lat="47.00512" lon="-0.99266">
        <ele>104</ele>
        <time>2012-05-03T13:58:38Z</time>
      </trkpt>
      <trkpt lat="47.00512" lon="-0.9926">
        <ele>105</ele>
        <time>2012-05-03T13:58:39Z</time>
      </trkpt>
      <trkpt lat="47.00512" lon="-0.99253">
        <ele>105</ele>
        <time>2012-05-03T13:58:40Z</time>
      </trkpt>
      <trkpt lat="47.00512" lon="-0.99247">
        <ele>105</ele>
        <time>2012-05-03T13:58:41Z</time>
      </trkpt>
      <trkpt lat="47.00512" lon="-0.9924">
        <ele>105</ele>
        <time>2012-05-03T13:58:42Z</time>
      </trkpt>
      <trkpt lat="47.00512" lon="-0.99234">
        <ele>105</ele>
        <time>2012-05-03T13:58:43Z</time>
      </trkpt>
      <trkpt lat="47.00512" lon="-0.99228">
        <ele>105</ele>
        <time>2012-05-03T13:58:44Z</time>
      </trkpt>
      <trkpt lat="47.00512" lon="-0.99222">
        <ele>105</ele>
        <time>2012-05-03T13:58:45Z</time>
      </trkpt>
      <trkpt lat="47.00513" lon="-0.99216">
        <ele>105</ele>
        <time>2012-05-03T13:58:46Z</time>
      </trkpt>
      <trkpt lat="47.00513" lon="-0.9921">
        <ele>105</ele>
        <time>2012-05-03T13:58:47Z</time>
      </trkpt>
      <trkpt lat="47.00513" lon="-0.99204">
        <ele>106</ele>
        <time>2012-05-03T13:58:48Z</time>
      </trkpt>
      <trkpt lat="47.00513" lon="-0.99198">
        <ele>106</ele>
        <time>2012-05-03T13:58:49Z</time>
      </trkpt>
      <trkpt lat="47.00513" lon="-0.99191">
        <ele>106</ele>
        <time>2012-05-03T13:58:50Z</time>
      </trkpt>
      <trkpt lat="47.00513" lon="-0.99185">
        <ele>106</ele>
        <time>2012-05-03T13:58:51Z</time>
      </trkpt>
      <trkpt lat="47.00513" lon="-0.99179">
        <ele>106</ele>
        <time>2012-05-03T13:58:52Z</time>
      </trkpt>
      <trkpt lat="47.00513" lon="-0.99173">
        <ele>106</ele>
        <time>2012-05-03T13:58:53Z</time>
      </trkpt>
      <trkpt lat="47.00513" lon="-0.99166">
        <ele>106</ele>
        <time>2012-05-03T13:58:54Z</time>
      </trkpt>
      <trkpt lat="47.00512" lon="-0.9916">
        <ele>106</ele>
        <time>2012-05-03T13:58:55Z</time>
      </trkpt>
      <trkpt lat="47.00512" lon="-0.99154">
        <ele>107</ele>
        <time>2012-05-03T13:58:56Z</time>
      </trkpt>
      <trkpt lat="47.00512" lon="-0.99147">
        <ele>107</ele>
        <time>2012-05-03T13:58:57Z</time>
      </trkpt>
      <trkpt lat="47.00513" lon="-0.99141">
        <ele>107</ele>
        <time>2012-05-03T13:58:58Z</time>
      </trkpt>
      <trkpt lat="47.00513" lon="-0.99135">
        <ele>107</ele>
        <time>2012-05-03T13:58:59Z</time>
      </trkpt>
      <trkpt lat="47.00513" lon="-0.99129">
        <ele>107</ele>
        <time>2012-05-03T13:59:00Z</time>
      </trkpt>
      <trkpt lat="47.00513" lon="-0.99123">
        <ele>107</ele>
        <time>2012-05-03T13:59:01Z</time>
      </trkpt>
      <trkpt lat="47.00513" lon="-0.99116">
        <ele>107</ele>
        <time>2012-05-03T13:59:02Z</time>
      </trkpt>
      <trkpt lat="47.00513" lon="-0.9911">
        <ele>107</ele>
        <time>2012-05-03T13:59:03Z</time>
      </trkpt>
      <trkpt lat="47.00514" lon="-0.99104">
        <ele>107</ele>
        <time>2012-05-03T13:59:04Z</time>
      </trkpt>
      <trkpt lat="47.00515" lon="-0.99098">
        <ele>108</ele>
        <time>2012-05-03T13:59:05Z</time>
      </trkpt>
      <trkpt lat="47.00516" lon="-0.99092">
        <ele>108</ele>
        <time>2012-05-03T13:59:06Z</time>
      </trkpt>
      <trkpt lat="47.00517" lon="-0.99085">
        <ele>108</ele>
        <time>2012-05-03T13:59:07Z</time>
      </trkpt>
      <trkpt lat="47.00519" lon="-0.9908">
        <ele>108</ele>
        <time>2012-05-03T13:59:08Z</time>
      </trkpt>
      <trkpt lat="47.00521" lon="-0.99074">
        <ele>108</ele>
        <time>2012-05-03T13:59:09Z</time>
      </trkpt>
      <trkpt lat="47.00523" lon="-0.99069">
        <ele>108</ele>
        <time>2012-05-03T13:59:10Z</time>
      </trkpt>
      <trkpt lat="47.00526" lon="-0.99064">
        <ele>108</ele>
        <time>2012-05-03T13:59:11Z</time>
      </trkpt>
      <trkpt lat="47.00528" lon="-0.99059">
        <ele>108</ele>
        <time>2012-05-03T13:59:12Z</time>
      </trkpt>
      <trkpt lat="47.00531" lon="-0.99054">
        <ele>108</ele>
        <time>2012-05-03T13:59:13Z</time>
      </trkpt>
      <trkpt lat="47.00534" lon="-0.99049">
        <ele>108</ele>
        <time>2012-05-03T13:59:14Z</time>
      </trkpt>
      <trkpt lat="47.00537" lon="-0.99044">
        <ele>108</ele>
        <time>2012-05-03T13:59:15Z</time>
      </trkpt>
      <trkpt lat="47.0054" lon="-0.9904">
        <ele>108</ele>
        <time>2012-05-03T13:59:17Z</time>
      </trkpt>
      <trkpt lat="47.00544" lon="-0.99035">
        <ele>108</ele>
        <time>2012-05-03T13:59:17Z</time>
      </trkpt>
      <trkpt lat="47.00547" lon="-0.99031">
        <ele>108</ele>
        <time>2012-05-03T13:59:18Z</time>
      </trkpt>
      <trkpt lat="47.0055" lon="-0.99026">
        <ele>108</ele>
        <time>2012-05-03T13:59:19Z</time>
      </trkpt>
      <trkpt lat="47.00554" lon="-0.99021">
        <ele>108</ele>
        <time>2012-05-03T13:59:20Z</time>
      </trkpt>
      <trkpt lat="47.00557" lon="-0.99016">
        <ele>108</ele>
        <time>2012-05-03T13:59:21Z</time>
      </trkpt>
      <trkpt lat="47.0056" lon="-0.9901">
        <ele>108</ele>
        <time>2012-05-03T13:59:22Z</time>
      </trkpt>
      <trkpt lat="47.00562" lon="-0.99003">
        <ele>108</ele>
        <time>2012-05-03T13:59:23Z</time>
      </trkpt>
      <trkpt lat="47.00563" lon="-0.98997">
        <ele>108</ele>
        <time>2012-05-03T13:59:24Z</time>
      </trkpt>
      <trkpt lat="47.00565" lon="-0.9899">
        <ele>108</ele>
        <time>2012-05-03T13:59:25Z</time>
      </trkpt>
      <trkpt lat="47.00566" lon="-0.98983">
        <ele>108</ele>
        <time>2012-05-03T13:59:26Z</time>
      </trkpt>
      <trkpt lat="47.00566" lon="-0.98975">
        <ele>108</ele>
        <time>2012-05-03T13:59:27Z</time>
      </trkpt>
      <trkpt lat="47.00567" lon="-0.98968">
        <ele>108</ele>
        <time>2012-05-03T13:59:28Z</time>
      </trkpt>
      <trkpt lat="47.00567" lon="-0.98961">
        <ele>108</ele>
        <time>2012-05-03T13:59:29Z</time>
      </trkpt>
      <trkpt lat="47.00567" lon="-0.98953">
        <ele>108</ele>
        <time>2012-05-03T13:59:30Z</time>
      </trkpt>
      <trkpt lat="47.00568" lon="-0.98945">
        <ele>108</ele>
        <time>2012-05-03T13:59:31Z</time>
      </trkpt>
      <trkpt lat="47.00568" lon="-0.98937">
        <ele>108</ele>
        <time>2012-05-03T13:59:32Z</time>
      </trkpt>
      <trkpt lat="47.00568" lon="-0.98929">
        <ele>108</ele>
        <time>2012-05-03T13:59:33Z</time>
      </trkpt>
      <trkpt lat="47.00567" lon="-0.98921">
        <ele>108</ele>
        <time>2012-05-03T13:59:34Z</time>
      </trkpt>
      <trkpt lat="47.00567" lon="-0.98913">
        <ele>108</ele>
        <time>2012-05-03T13:59:35Z</time>
      </trkpt>
      <trkpt lat="47.00566" lon="-0.98905">
        <ele>108</ele>
        <time>2012-05-03T13:59:36Z</time>
      </trkpt>
      <trkpt lat="47.00568" lon="-0.98898">
        <ele>108</ele>
        <time>2012-05-03T13:59:37Z</time>
      </trkpt>
      <trkpt lat="47.0057" lon="-0.98893">
        <ele>108</ele>
        <time>2012-05-03T13:59:38Z</time>
      </trkpt>
      <trkpt lat="47.00574" lon="-0.98891">
        <ele>108</ele>
        <time>2012-05-03T13:59:39Z</time>
      </trkpt>
      <trkpt lat="47.00577" lon="-0.98892">
        <ele>108</ele>
        <time>2012-05-03T13:59:40Z</time>
      </trkpt>
      <trkpt lat="47.0058" lon="-0.98895">
        <ele>108</ele>
        <time>2012-05-03T13:59:41Z</time>
      </trkpt>
      <trkpt lat="47.00583" lon="-0.98898">
        <ele>108</ele>
        <time>2012-05-03T13:59:42Z</time>
      </trkpt>
      <trkpt lat="47.00586" lon="-0.98902">
        <ele>108</ele>
        <time>2012-05-03T13:59:43Z</time>
      </trkpt>
      <trkpt lat="47.00589" lon="-0.98907">
        <ele>108</ele>
        <time>2012-05-03T13:59:44Z</time>
      </trkpt>
      <trkpt lat="47.00592" lon="-0.98911">
        <ele>108</ele>
        <time>2012-05-03T13:59:45Z</time>
      </trkpt>
      <trkpt lat="47.00595" lon="-0.98914">
        <ele>108</ele>
        <time>2012-05-03T13:59:46Z</time>
      </trkpt>
      <trkpt lat="47.00598" lon="-0.98918">
        <ele>108</ele>
        <time>2012-05-03T13:59:47Z</time>
      </trkpt>
      <trkpt lat="47.006" lon="-0.98922">
        <ele>108</ele>
        <time>2012-05-03T13:59:48Z</time>
      </trkpt>
      <trkpt lat="47.00603" lon="-0.98927">
        <ele>108</ele>
        <time>2012-05-03T13:59:49Z</time>
      </trkpt>
      <trkpt lat="47.00606" lon="-0.98931">
        <ele>108</ele>
        <time>2012-05-03T13:59:50Z</time>
      </trkpt>
      <trkpt lat="47.00609" lon="-0.98935">
        <ele>108</ele>
        <time>2012-05-03T13:59:51Z</time>
      </trkpt>
      <trkpt lat="47.00611" lon="-0.98939">
        <ele>108</ele>
        <time>2012-05-03T13:59:52Z</time>
      </trkpt>
      <trkpt lat="47.00614" lon="-0.98943">
        <ele>108</ele>
        <time>2012-05-03T13:59:53Z</time>
      </trkpt>
      <trkpt lat="47.00617" lon="-0.98947">
        <ele>108</ele>
        <time>2012-05-03T13:59:54Z</time>
      </trkpt>
      <trkpt lat="47.0062" lon="-0.98952">
        <ele>108</ele>
        <time>2012-05-03T13:59:55Z</time>
      </trkpt>
      <trkpt lat="47.00623" lon="-0.98956">
        <ele>108</ele>
        <time>2012-05-03T13:59:56Z</time>
      </trkpt>
      <trkpt lat="47.00626" lon="-0.9896">
        <ele>108</ele>
        <time>2012-05-03T13:59:57Z</time>
      </trkpt>
      <trkpt lat="47.00629" lon="-0.98964">
        <ele>108</ele>
        <time>2012-05-03T13:59:58Z</time>
      </trkpt>
      <trkpt lat="47.00631" lon="-0.98968">
        <ele>108</ele>
        <time>2012-05-03T13:59:59Z</time>
      </trkpt>
      <trkpt lat="47.00634" lon="-0.98971">
        <ele>108</ele>
        <time>2012-05-03T14:00:00Z</time>
      </trkpt>
      <trkpt lat="47.00637" lon="-0.98976">
        <ele>108</ele>
        <time>2012-05-03T14:00:01Z</time>
      </trkpt>
      <trkpt lat="47.0064" lon="-0.9898">
        <ele>108</ele>
        <time>2012-05-03T14:00:02Z</time>
      </trkpt>
      <trkpt lat="47.00643" lon="-0.98984">
        <ele>108</ele>
        <time>2012-05-03T14:00:03Z</time>
      </trkpt>
      <trkpt lat="47.00646" lon="-0.98988">
        <ele>108</ele>
        <time>2012-05-03T14:00:04Z</time>
      </trkpt>
      <trkpt lat="47.00649" lon="-0.98992">
        <ele>108</ele>
        <time>2012-05-03T14:00:05Z</time>
      </trkpt>
      <trkpt lat="47.00652" lon="-0.98996">
        <ele>108</ele>
        <time>2012-05-03T14:00:06Z</time>
      </trkpt>
      <trkpt lat="47.00655" lon="-0.99">
        <ele>108</ele>
        <time>2012-05-03T14:00:07Z</time>
      </trkpt>
      <trkpt lat="47.00657" lon="-0.99004">
        <ele>108</ele>
        <time>2012-05-03T14:00:08Z</time>
      </trkpt>
      <trkpt lat="47.0066" lon="-0.99007">
        <ele>108</ele>
        <time>2012-05-03T14:00:09Z</time>
      </trkpt>
      <trkpt lat="47.00663" lon="-0.99012">
        <ele>108</ele>
        <time>2012-05-03T14:00:10Z</time>
      </trkpt>
      <trkpt lat="47.00665" lon="-0.99016">
        <ele>108</ele>
        <time>2012-05-03T14:00:11Z</time>
      </trkpt>
      <trkpt lat="47.00668" lon="-0.99019">
        <ele>108</ele>
        <time>2012-05-03T14:00:12Z</time>
      </trkpt>
      <trkpt lat="47.00671" lon="-0.99023">
        <ele>108</ele>
        <time>2012-05-03T14:00:13Z</time>
      </trkpt>
      <trkpt lat="47.00673" lon="-0.99027">
        <ele>108</ele>
        <time>2012-05-03T14:00:14Z</time>
      </trkpt>
      <trkpt lat="47.00676" lon="-0.99031">
        <ele>109</ele>
        <time>2012-05-03T14:00:15Z</time>
      </trkpt>
      <trkpt lat="47.00679" lon="-0.99035">
        <ele>109</ele>
        <time>2012-05-03T14:00:17Z</time>
      </trkpt>
      <trkpt lat="47.00681" lon="-0.99039">
        <ele>109</ele>
        <time>2012-05-03T14:00:17Z</time>
      </trkpt>
      <trkpt lat="47.00684" lon="-0.99043">
        <ele>109</ele>
        <time>2012-05-03T14:00:18Z</time>
      </trkpt>
      <trkpt lat="47.00687" lon="-0.99047">
        <ele>109</ele>
        <time>2012-05-03T14:00:19Z</time>
      </trkpt>
      <trkpt lat="47.00689" lon="-0.99051">
        <ele>109</ele>
        <time>2012-05-03T14:00:20Z</time>
      </trkpt>
      <trkpt lat="47.00692" lon="-0.99055">
        <ele>109</ele>
        <time>2012-05-03T14:00:21Z</time>
      </trkpt>
      <trkpt lat="47.00695" lon="-0.99059">
        <ele>110</ele>
        <time>2012-05-03T14:00:22Z</time>
      </trkpt>
      <trkpt lat="47.00698" lon="-0.99063">
        <ele>110</ele>
        <time>2012-05-03T14:00:23Z</time>
      </trkpt>
      <trkpt lat="47.00701" lon="-0.99067">
        <ele>110</ele>
        <time>2012-05-03T14:00:24Z</time>
      </trkpt>
      <trkpt lat="47.00704" lon="-0.9907">
        <ele>110</ele>
        <time>2012-05-03T14:00:25Z</time>
      </trkpt>
      <trkpt lat="47.00707" lon="-0.99073">
        <ele>110</ele>
        <time>2012-05-03T14:00:26Z</time>
      </trkpt>
      <trkpt lat="47.0071" lon="-0.99077">
        <ele>110</ele>
        <time>2012-05-03T14:00:27Z</time>
      </trkpt>
      <trkpt lat="47.00713" lon="-0.9908">
        <ele>111</ele>
        <time>2012-05-03T14:00:28Z</time>
      </trkpt>
      <trkpt lat="47.00716" lon="-0.99084">
        <ele>111</ele>
        <time>2012-05-03T14:00:29Z</time>
      </trkpt>
      <trkpt lat="47.00719" lon="-0.99086">
        <ele>111</ele>
        <time>2012-05-03T14:00:30Z</time>
      </trkpt>
      <trkpt lat="47.00723" lon="-0.99089">
        <ele>111</ele>
        <time>2012-05-03T14:00:31Z</time>
      </trkpt>
      <trkpt lat="47.00726" lon="-0.99092">
        <ele>112</ele>
        <time>2012-05-03T14:00:32Z</time>
      </trkpt>
      <trkpt lat="47.00729" lon="-0.99095">
        <ele>112</ele>
        <time>2012-05-03T14:00:33Z</time>
      </trkpt>
      <trkpt lat="47.00732" lon="-0.99097">
        <ele>112</ele>
        <time>2012-05-03T14:00:34Z</time>
      </trkpt>
      <trkpt lat="47.00736" lon="-0.99099">
        <ele>112</ele>
        <time>2012-05-03T14:00:35Z</time>
      </trkpt>
      <trkpt lat="47.00739" lon="-0.99101">
        <ele>112</ele>
        <time>2012-05-03T14:00:36Z</time>
      </trkpt>
      <trkpt lat="47.00742" lon="-0.99103">
        <ele>112</ele>
        <time>2012-05-03T14:00:37Z</time>
      </trkpt>
      <trkpt lat="47.00746" lon="-0.99106">
        <ele>113</ele>
        <time>2012-05-03T14:00:38Z</time>
      </trkpt>
      <trkpt lat="47.00749" lon="-0.99108">
        <ele>113</ele>
        <time>2012-05-03T14:00:39Z</time>
      </trkpt>
      <trkpt lat="47.00752" lon="-0.99111">
        <ele>113</ele>
        <time>2012-05-03T14:00:40Z</time>
      </trkpt>
      <trkpt lat="47.00755" lon="-0.99115">
        <ele>113</ele>
        <time>2012-05-03T14:00:41Z</time>
      </trkpt>
      <trkpt lat="47.00759" lon="-0.99118">
        <ele>113</ele>
        <time>2012-05-03T14:00:42Z</time>
      </trkpt>
      <trkpt lat="47.00762" lon="-0.99121">
        <ele>113</ele>
        <time>2012-05-03T14:00:43Z</time>
      </trkpt>
      <trkpt lat="47.00765" lon="-0.99125">
        <ele>113</ele>
        <time>2012-05-03T14:00:44Z</time>
      </trkpt>
      <trkpt lat="47.00768" lon="-0.99128">
        <ele>113</ele>
        <time>2012-05-03T14:00:45Z</time>
      </trkpt>
      <trkpt lat="47.00772" lon="-0.99132">
        <ele>113</ele>
        <time>2012-05-03T14:00:46Z</time>
      </trkpt>
      <trkpt lat="47.00775" lon="-0.99135">
        <ele>113</ele>
        <time>2012-05-03T14:00:47Z</time>
      </trkpt>
      <trkpt lat="47.00778" lon="-0.99138">
        <ele>113</ele>
        <time>2012-05-03T14:00:48Z</time>
      </trkpt>
      <trkpt lat="47.00781" lon="-0.99142">
        <ele>113</ele>
        <time>2012-05-03T14:00:49Z</time>
      </trkpt>
      <trkpt lat="47.00784" lon="-0.99146">
        <ele>113</ele>
        <time>2012-05-03T14:00:50Z</time>
      </trkpt>
      <trkpt lat="47.00788" lon="-0.99151">
        <ele>114</ele>
        <time>2012-05-03T14:00:51Z</time>
      </trkpt>
      <trkpt lat="47.00791" lon="-0.99155">
        <ele>114</ele>
        <time>2012-05-03T14:00:52Z</time>
      </trkpt>
      <trkpt lat="47.00794" lon="-0.99158">
        <ele>114</ele>
        <time>2012-05-03T14:00:53Z</time>
      </trkpt>
      <trkpt lat="47.00797" lon="-0.99163">
        <ele>114</ele>
        <time>2012-05-03T14:00:54Z</time>
      </trkpt>
      <trkpt lat="47.008" lon="-0.99167">
        <ele>114</ele>
        <time>2012-05-03T14:00:55Z</time>
      </trkpt>
      <trkpt lat="47.00803" lon="-0.99171">
        <ele>115</ele>
        <time>2012-05-03T14:00:56Z</time>
      </trkpt>
      <trkpt lat="47.00806" lon="-0.99175">
        <ele>115</ele>
        <time>2012-05-03T14:00:57Z</time>
      </trkpt>
      <trkpt lat="47.00809" lon="-0.99179">
        <ele>115</ele>
        <time>2012-05-03T14:00:58Z</time>
      </trkpt>
      <trkpt lat="47.00812" lon="-0.99184">
        <ele>115</ele>
        <time>2012-05-03T14:00:59Z</time>
      </trkpt>
      <trkpt lat="47.00815" lon="-0.99188">
        <ele>115</ele>
        <time>2012-05-03T14:01:00Z</time>
      </trkpt>
      <trkpt lat="47.00819" lon="-0.99192">
        <ele>115</ele>
        <time>2012-05-03T14:01:01Z</time>
      </trkpt>
      <trkpt lat="47.00822" lon="-0.99196">
        <ele>115</ele>
        <time>2012-05-03T14:01:02Z</time>
      </trkpt>
      <trkpt lat="47.00825" lon="-0.992">
        <ele>115</ele>
        <time>2012-05-03T14:01:03Z</time>
      </trkpt>
      <trkpt lat="47.00829" lon="-0.99204">
        <ele>115</ele>
        <time>2012-05-03T14:01:04Z</time>
      </trkpt>
      <trkpt lat="47.00833" lon="-0.99209">
        <ele>115</ele>
        <time>2012-05-03T14:01:05Z</time>
      </trkpt>
      <trkpt lat="47.00836" lon="-0.99214">
        <ele>115</ele>
        <time>2012-05-03T14:01:06Z</time>
      </trkpt>
      <trkpt lat="47.0084" lon="-0.9922">
        <ele>115</ele>
        <time>2012-05-03T14:01:07Z</time>
      </trkpt>
      <trkpt lat="47.00843" lon="-0.99225">
        <ele>115</ele>
        <time>2012-05-03T14:01:08Z</time>
      </trkpt>
      <trkpt lat="47.00846" lon="-0.99232">
        <ele>115</ele>
        <time>2012-05-03T14:01:09Z</time>
      </trkpt>
      <trkpt lat="47.00849" lon="-0.99238">
        <ele>115</ele>
        <time>2012-05-03T14:01:10Z</time>
      </trkpt>
      <trkpt lat="47.00851" lon="-0.99245">
        <ele>115</ele>
        <time>2012-05-03T14:01:11Z</time>
      </trkpt>
      <trkpt lat="47.00855" lon="-0.99252">
        <ele>115</ele>
        <time>2012-05-03T14:01:12Z</time>
      </trkpt>
      <trkpt lat="47.00858" lon="-0.9926">
        <ele>115</ele>
        <time>2012-05-03T14:01:13Z</time>
      </trkpt>
      <trkpt lat="47.00861" lon="-0.99267">
        <ele>115</ele>
        <time>2012-05-03T14:01:14Z</time>
      </trkpt>
      <trkpt lat="47.00864" lon="-0.99275">
        <ele>115</ele>
        <time>2012-05-03T14:01:15Z</time>
      </trkpt>
      <trkpt lat="47.00866" lon="-0.99282">
        <ele>115</ele>
        <time>2012-05-03T14:01:17Z</time>
      </trkpt>
      <trkpt lat="47.00869" lon="-0.9929">
        <ele>115</ele>
        <time>2012-05-03T14:01:17Z</time>
      </trkpt>
      <trkpt lat="47.00873" lon="-0.99298">
        <ele>115</ele>
        <time>2012-05-03T14:01:18Z</time>
      </trkpt>
      <trkpt lat="47.00877" lon="-0.99305">
        <ele>115</ele>
        <time>2012-05-03T14:01:19Z</time>
      </trkpt>
      <trkpt lat="47.00881" lon="-0.9931">
        <ele>115</ele>
        <time>2012-05-03T14:01:20Z</time>
      </trkpt>
      <trkpt lat="47.00887" lon="-0.99315">
        <ele>115</ele>
        <time>2012-05-03T14:01:21Z</time>
      </trkpt>
      <trkpt lat="47.00892" lon="-0.99318">
        <ele>115</ele>
        <time>2012-05-03T14:01:22Z</time>
      </trkpt>
      <trkpt lat="47.00898" lon="-0.99321">
        <ele>115</ele>
        <time>2012-05-03T14:01:23Z</time>
      </trkpt>
      <trkpt lat="47.00904" lon="-0.99324">
        <ele>115</ele>
        <time>2012-05-03T14:01:24Z</time>
      </trkpt>
      <trkpt lat="47.00909" lon="-0.99327">
        <ele>115</ele>
        <time>2012-05-03T14:01:25Z</time>
      </trkpt>
      <trkpt lat="47.00914" lon="-0.99331">
        <ele>115</ele>
        <time>2012-05-03T14:01:26Z</time>
      </trkpt>
      <trkpt lat="47.0092" lon="-0.99335">
        <ele>115</ele>
        <time>2012-05-03T14:01:27Z</time>
      </trkpt>
      <trkpt lat="47.00925" lon="-0.99339">
        <ele>115</ele>
        <time>2012-05-03T14:01:28Z</time>
      </trkpt>
      <trkpt lat="47.00929" lon="-0.99344">
        <ele>115</ele>
        <time>2012-05-03T14:01:29Z</time>
      </trkpt>
      <trkpt lat="47.00934" lon="-0.9935">
        <ele>115</ele>
        <time>2012-05-03T14:01:30Z</time>
      </trkpt>
      <trkpt lat="47.00938" lon="-0.99355">
        <ele>115</ele>
        <time>2012-05-03T14:01:31Z</time>
      </trkpt>
      <trkpt lat="47.00943" lon="-0.99361">
        <ele>115</ele>
        <time>2012-05-03T14:01:32Z</time>
      </trkpt>
      <trkpt lat="47.00947" lon="-0.99366">
        <ele>115</ele>
        <time>2012-05-03T14:01:33Z</time>
      </trkpt>
      <trkpt lat="47.00951" lon="-0.99372">
        <ele>116</ele>
        <time>2012-05-03T14:01:34Z</time>
      </trkpt>
      <trkpt lat="47.00956" lon="-0.99378">
        <ele>116</ele>
        <time>2012-05-03T14:01:35Z</time>
      </trkpt>
      <trkpt lat="47.0096" lon="-0.99383">
        <ele>116</ele>
        <time>2012-05-03T14:01:36Z</time>
      </trkpt>
      <trkpt lat="47.00964" lon="-0.99389">
        <ele>116</ele>
        <time>2012-05-03T14:01:37Z</time>
      </trkpt>
      <trkpt lat="47.00969" lon="-0.99396">
        <ele>116</ele>
        <time>2012-05-03T14:01:38Z</time>
      </trkpt>
      <trkpt lat="47.00973" lon="-0.99402">
        <ele>116</ele>
        <time>2012-05-03T14:01:39Z</time>
      </trkpt>
      <trkpt lat="47.00977" lon="-0.99408">
        <ele>117</ele>
        <time>2012-05-03T14:01:40Z</time>
      </trkpt>
      <trkpt lat="47.00981" lon="-0.99414">
        <ele>117</ele>
        <time>2012-05-03T14:01:41Z</time>
      </trkpt>
      <trkpt lat="47.00985" lon="-0.9942">
        <ele>117</ele>
        <time>2012-05-03T14:01:42Z</time>
      </trkpt>
      <trkpt lat="47.00989" lon="-0.99426">
        <ele>117</ele>
        <time>2012-05-03T14:01:43Z</time>
      </trkpt>
      <trkpt lat="47.00993" lon="-0.99433">
        <ele>117</ele>
        <time>2012-05-03T14:01:44Z</time>
      </trkpt>
      <trkpt lat="47.00997" lon="-0.99439">
        <ele>117</ele>
        <time>2012-05-03T14:01:45Z</time>
      </trkpt>
      <trkpt lat="47.01002" lon="-0.99445">
        <ele>117</ele>
        <time>2012-05-03T14:01:46Z</time>
      </trkpt>
      <trkpt lat="47.01006" lon="-0.99452">
        <ele>117</ele>
        <time>2012-05-03T14:01:47Z</time>
      </trkpt>
      <trkpt lat="47.0101" lon="-0.99458">
        <ele>117</ele>
        <time>2012-05-03T14:01:48Z</time>
      </trkpt>
      <trkpt lat="47.01014" lon="-0.99465">
        <ele>117</ele>
        <time>2012-05-03T14:01:49Z</time>
      </trkpt>
      <trkpt lat="47.01019" lon="-0.99472">
        <ele>117</ele>
        <time>2012-05-03T14:01:50Z</time>
      </trkpt>
      <trkpt lat="47.01023" lon="-0.99479">
        <ele>117</ele>
        <time>2012-05-03T14:01:51Z</time>
      </trkpt>
      <trkpt lat="47.01027" lon="-0.99487">
        <ele>117</ele>
        <time>2012-05-03T14:01:52Z</time>
      </trkpt>
      <trkpt lat="47.01031" lon="-0.99496">
        <ele>117</ele>
        <time>2012-05-03T14:01:53Z</time>
      </trkpt>
      <trkpt lat="47.01033" lon="-0.99505">
        <ele>117</ele>
        <time>2012-05-03T14:01:54Z</time>
      </trkpt>
      <trkpt lat="47.01035" lon="-0.99515">
        <ele>117</ele>
        <time>2012-05-03T14:01:55Z</time>
      </trkpt>
      <trkpt lat="47.01035" lon="-0.99526">
        <ele>117</ele>
        <time>2012-05-03T14:01:56Z</time>
      </trkpt>
      <trkpt lat="47.01036" lon="-0.99537">
        <ele>117</ele>
        <time>2012-05-03T14:01:57Z</time>
      </trkpt>
      <trkpt lat="47.01037" lon="-0.99547">
        <ele>117</ele>
        <time>2012-05-03T14:01:58Z</time>
      </trkpt>
      <trkpt lat="47.01039" lon="-0.99557">
        <ele>117</ele>
        <time>2012-05-03T14:01:59Z</time>
      </trkpt>
      <trkpt lat="47.01043" lon="-0.99567">
        <ele>117</ele>
        <time>2012-05-03T14:02:00Z</time>
      </trkpt>
      <trkpt lat="47.01047" lon="-0.99575">
        <ele>117</ele>
        <time>2012-05-03T14:02:01Z</time>
      </trkpt>
      <trkpt lat="47.01051" lon="-0.99583">
        <ele>117</ele>
        <time>2012-05-03T14:02:02Z</time>
      </trkpt>
      <trkpt lat="47.01056" lon="-0.9959">
        <ele>117</ele>
        <time>2012-05-03T14:02:03Z</time>
      </trkpt>
      <trkpt lat="47.01061" lon="-0.99597">
        <ele>117</ele>
        <time>2012-05-03T14:02:04Z</time>
      </trkpt>
      <trkpt lat="47.01066" lon="-0.99604">
        <ele>117</ele>
        <time>2012-05-03T14:02:05Z</time>
      </trkpt>
      <trkpt lat="47.0107" lon="-0.99612">
        <ele>117</ele>
        <time>2012-05-03T14:02:06Z</time>
      </trkpt>
      <trkpt lat="47.01074" lon="-0.99619">
        <ele>117</ele>
        <time>2012-05-03T14:02:07Z</time>
      </trkpt>
      <trkpt lat="47.01078" lon="-0.99626">
        <ele>117</ele>
        <time>2012-05-03T14:02:08Z</time>
      </trkpt>
      <trkpt lat="47.01083" lon="-0.99634">
        <ele>117</ele>
        <time>2012-05-03T14:02:09Z</time>
      </trkpt>
      <trkpt lat="47.01087" lon="-0.99641">
        <ele>117</ele>
        <time>2012-05-03T14:02:10Z</time>
      </trkpt>
      <trkpt lat="47.01091" lon="-0.99649">
        <ele>117</ele>
        <time>2012-05-03T14:02:11Z</time>
      </trkpt>
      <trkpt lat="47.01095" lon="-0.99656">
        <ele>117</ele>
        <time>2012-05-03T14:02:12Z</time>
      </trkpt>
      <trkpt lat="47.01099" lon="-0.99664">
        <ele>117</ele>
        <time>2012-05-03T14:02:13Z</time>
      </trkpt>
      <trkpt lat="47.01104" lon="-0.99671">
        <ele>117</ele>
        <time>2012-05-03T14:02:14Z</time>
      </trkpt>
      <trkpt lat="47.01109" lon="-0.99677">
        <ele>117</ele>
        <time>2012-05-03T14:02:15Z</time>
      </trkpt>
      <trkpt lat="47.01113" lon="-0.99684">
        <ele>117</ele>
        <time>2012-05-03T14:02:17Z</time>
      </trkpt>
      <trkpt lat="47.01118" lon="-0.9969">
        <ele>117</ele>
        <time>2012-05-03T14:02:17Z</time>
      </trkpt>
      <trkpt lat="47.01123" lon="-0.99695">
        <ele>117</ele>
        <time>2012-05-03T14:02:18Z</time>
      </trkpt>
      <trkpt lat="47.01128" lon="-0.99701">
        <ele>117</ele>
        <time>2012-05-03T14:02:19Z</time>
      </trkpt>
      <trkpt lat="47.01134" lon="-0.99705">
        <ele>117</ele>
        <time>2012-05-03T14:02:20Z</time>
      </trkpt>
      <trkpt lat="47.01139" lon="-0.9971">
        <ele>117</ele>
        <time>2012-05-03T14:02:21Z</time>
      </trkpt>
      <trkpt lat="47.01145" lon="-0.99714">
        <ele>117</ele>
        <time>2012-05-03T14:02:22Z</time>
      </trkpt>
      <trkpt lat="47.0115" lon="-0.99719">
        <ele>117</ele>
        <time>2012-05-03T14:02:23Z</time>
      </trkpt>
      <trkpt lat="47.01155" lon="-0.99724">
        <ele>117</ele>
        <time>2012-05-03T14:02:24Z</time>
      </trkpt>
      <trkpt lat="47.01161" lon="-0.99729">
        <ele>117</ele>
        <time>2012-05-03T14:02:25Z</time>
      </trkpt>
      <trkpt lat="47.01166" lon="-0.99734">
        <ele>117</ele>
        <time>2012-05-03T14:02:26Z</time>
      </trkpt>
      <trkpt lat="47.01171" lon="-0.99739">
        <ele>117</ele>
        <time>2012-05-03T14:02:27Z</time>
      </trkpt>
      <trkpt lat="47.01176" lon="-0.99743">
        <ele>117</ele>
        <time>2012-05-03T14:02:28Z</time>
      </trkpt>
      <trkpt lat="47.01181" lon="-0.99748">
        <ele>117</ele>
        <time>2012-05-03T14:02:29Z</time>
      </trkpt>
      <trkpt lat="47.01185" lon="-0.99753">
        <ele>117</ele>
        <time>2012-05-03T14:02:30Z</time>
      </trkpt>
      <trkpt lat="47.0119" lon="-0.99758">
        <ele>117</ele>
        <time>2012-05-03T14:02:31Z</time>
      </trkpt>
      <trkpt lat="47.01195" lon="-0.99762">
        <ele>117</ele>
        <time>2012-05-03T14:02:32Z</time>
      </trkpt>
      <trkpt lat="47.01199" lon="-0.99767">
        <ele>117</ele>
        <time>2012-05-03T14:02:33Z</time>
      </trkpt>
      <trkpt lat="47.01204" lon="-0.99771">
        <ele>117</ele>
        <time>2012-05-03T14:02:34Z</time>
      </trkpt>
      <trkpt lat="47.01208" lon="-0.99776">
        <ele>117</ele>
        <time>2012-05-03T14:02:35Z</time>
      </trkpt>
      <trkpt lat="47.01213" lon="-0.9978">
        <ele>117</ele>
        <time>2012-05-03T14:02:36Z</time>
      </trkpt>
      <trkpt lat="47.01218" lon="-0.99784">
        <ele>117</ele>
        <time>2012-05-03T14:02:37Z</time>
      </trkpt>
      <trkpt lat="47.01222" lon="-0.99789">
        <ele>117</ele>
        <time>2012-05-03T14:02:38Z</time>
      </trkpt>
      <trkpt lat="47.01226" lon="-0.99793">
        <ele>117</ele>
        <time>2012-05-03T14:02:39Z</time>
      </trkpt>
      <trkpt lat="47.01231" lon="-0.99798">
        <ele>117</ele>
        <time>2012-05-03T14:02:40Z</time>
      </trkpt>
      <trkpt lat="47.01236" lon="-0.99803">
        <ele>118</ele>
        <time>2012-05-03T14:02:41Z</time>
      </trkpt>
      <trkpt lat="47.0124" lon="-0.99807">
        <ele>118</ele>
        <time>2012-05-03T14:02:42Z</time>
      </trkpt>
      <trkpt lat="47.01244" lon="-0.99812">
        <ele>118</ele>
        <time>2012-05-03T14:02:43Z</time>
      </trkpt>
      <trkpt lat="47.01249" lon="-0.99816">
        <ele>118</ele>
        <time>2012-05-03T14:02:44Z</time>
      </trkpt>
      <trkpt lat="47.01253" lon="-0.99821">
        <ele>118</ele>
        <time>2012-05-03T14:02:45Z</time>
      </trkpt>
      <trkpt lat="47.01257" lon="-0.99825">
        <ele>119</ele>
        <time>2012-05-03T14:02:46Z</time>
      </trkpt>
      <trkpt lat="47.01261" lon="-0.99829">
        <ele>119</ele>
        <time>2012-05-03T14:02:47Z</time>
      </trkpt>
      <trkpt lat="47.01265" lon="-0.99833">
        <ele>119</ele>
        <time>2012-05-03T14:02:48Z</time>
      </trkpt>
      <trkpt lat="47.0127" lon="-0.99836">
        <ele>119</ele>
        <time>2012-05-03T14:02:49Z</time>
      </trkpt>
      <trkpt lat="47.01274" lon="-0.99836">
        <ele>119</ele>
        <time>2012-05-03T14:02:50Z</time>
      </trkpt>
      <trkpt lat="47.01277" lon="-0.99834">
        <ele>119</ele>
        <time>2012-05-03T14:02:51Z</time>
      </trkpt>
      <trkpt lat="47.0128" lon="-0.9983">
        <ele>119</ele>
        <time>2012-05-03T14:02:52Z</time>
      </trkpt>
      <trkpt lat="47.01284" lon="-0.99826">
        <ele>120</ele>
        <time>2012-05-03T14:02:53Z</time>
      </trkpt>
      <trkpt lat="47.01287" lon="-0.99822">
        <ele>120</ele>
        <time>2012-05-03T14:02:54Z</time>
      </trkpt>
      <trkpt lat="47.01291" lon="-0.99818">
        <ele>120</ele>
        <time>2012-05-03T14:02:55Z</time>
      </trkpt>
      <trkpt lat="47.01295" lon="-0.99813">
        <ele>120</ele>
        <time>2012-05-03T14:02:56Z</time>
      </trkpt>
      <trkpt lat="47.01299" lon="-0.99809">
        <ele>120</ele>
        <time>2012-05-03T14:02:57Z</time>
      </trkpt>
      <trkpt lat="47.01303" lon="-0.99806">
        <ele>120</ele>
        <time>2012-05-03T14:02:58Z</time>
      </trkpt>
      <trkpt lat="47.01308" lon="-0.99802">
        <ele>120</ele>
        <time>2012-05-03T14:02:59Z</time>
      </trkpt>
      <trkpt lat="47.01312" lon="-0.99799">
        <ele>120</ele>
        <time>2012-05-03T14:03:00Z</time>
      </trkpt>
      <trkpt lat="47.01316" lon="-0.99795">
        <ele>120</ele>
        <time>2012-05-03T14:03:01Z</time>
      </trkpt>
      <trkpt lat="47.0132" lon="-0.9979">
        <ele>121</ele>
        <time>2012-05-03T14:03:02Z</time>
      </trkpt>
      <trkpt lat="47.01324" lon="-0.99786">
        <ele>121</ele>
        <time>2012-05-03T14:03:03Z</time>
      </trkpt>
      <trkpt lat="47.01328" lon="-0.99782">
        <ele>121</ele>
        <time>2012-05-03T14:03:04Z</time>
      </trkpt>
      <trkpt lat="47.01332" lon="-0.99778">
        <ele>121</ele>
        <time>2012-05-03T14:03:05Z</time>
      </trkpt>
      <trkpt lat="47.01337" lon="-0.99774">
        <ele>122</ele>
        <time>2012-05-03T14:03:06Z</time>
      </trkpt>
      <trkpt lat="47.01341" lon="-0.9977">
        <ele>122</ele>
        <time>2012-05-03T14:03:07Z</time>
      </trkpt>
      <trkpt lat="47.01346" lon="-0.99766">
        <ele>122</ele>
        <time>2012-05-03T14:03:08Z</time>
      </trkpt>
      <trkpt lat="47.0135" lon="-0.99762">
        <ele>122</ele>
        <time>2012-05-03T14:03:09Z</time>
      </trkpt>
      <trkpt lat="47.01355" lon="-0.99758">
        <ele>122</ele>
        <time>2012-05-03T14:03:10Z</time>
      </trkpt>
      <trkpt lat="47.01359" lon="-0.99755">
        <ele>122</ele>
        <time>2012-05-03T14:03:11Z</time>
      </trkpt>
      <trkpt lat="47.01364" lon="-0.99751">
        <ele>123</ele>
        <time>2012-05-03T14:03:12Z</time>
      </trkpt>
      <trkpt lat="47.01368" lon="-0.99747">
        <ele>123</ele>
        <time>2012-05-03T14:03:13Z</time>
      </trkpt>
      <trkpt lat="47.01373" lon="-0.99744">
        <ele>123</ele>
        <time>2012-05-03T14:03:14Z</time>
      </trkpt>
      <trkpt lat="47.01377" lon="-0.9974">
        <ele>123</ele>
        <time>2012-05-03T14:03:15Z</time>
      </trkpt>
      <trkpt lat="47.01382" lon="-0.99736">
        <ele>123</ele>
        <time>2012-05-03T14:03:16Z</time>
      </trkpt>
      <trkpt lat="47.01386" lon="-0.99733">
        <ele>124</ele>
        <time>2012-05-03T14:03:17Z</time>
      </trkpt>
      <trkpt lat="47.01391" lon="-0.99729">
        <ele>124</ele>
        <time>2012-05-03T14:03:18Z</time>
      </trkpt>
      <trkpt lat="47.01395" lon="-0.99725">
        <ele>124</ele>
        <time>2012-05-03T14:03:19Z</time>
      </trkpt>
      <trkpt lat="47.014" lon="-0.99722">
        <ele>124</ele>
        <time>2012-05-03T14:03:20Z</time>
      </trkpt>
      <trkpt lat="47.01404" lon="-0.99718">
        <ele>124</ele>
        <time>2012-05-03T14:03:21Z</time>
      </trkpt>
      <trkpt lat="47.01408" lon="-0.99714">
        <ele>124</ele>
        <time>2012-05-03T14:03:22Z</time>
      </trkpt>
      <trkpt lat="47.01413" lon="-0.99711">
        <ele>125</ele>
        <time>2012-05-03T14:03:23Z</time>
      </trkpt>
      <trkpt lat="47.01417" lon="-0.99707">
        <ele>125</ele>
        <time>2012-05-03T14:03:24Z</time>
      </trkpt>
      <trkpt lat="47.01421" lon="-0.99704">
        <ele>125</ele>
        <time>2012-05-03T14:03:25Z</time>
      </trkpt>
      <trkpt lat="47.01426" lon="-0.997">
        <ele>125</ele>
        <time>2012-05-03T14:03:26Z</time>
      </trkpt>
      <trkpt lat="47.0143" lon="-0.99697">
        <ele>125</ele>
        <time>2012-05-03T14:03:27Z</time>
      </trkpt>
      <trkpt lat="47.01434" lon="-0.99694">
        <ele>126</ele>
        <time>2012-05-03T14:03:28Z</time>
      </trkpt>
      <trkpt lat="47.01438" lon="-0.9969">
        <ele>126</ele>
        <time>2012-05-03T14:03:29Z</time>
      </trkpt>
      <trkpt lat="47.01442" lon="-0.99687">
        <ele>126</ele>
        <time>2012-05-03T14:03:30Z</time>
      </trkpt>
      <trkpt lat="47.01447" lon="-0.99684">
        <ele>126</ele>
        <time>2012-05-03T14:03:31Z</time>
      </trkpt>
      <trkpt lat="47.0145" lon="-0.99681">
        <ele>126</ele>
        <time>2012-05-03T14:03:32Z</time>
      </trkpt>
      <trkpt lat="47.01453" lon="-0.99677">
        <ele>127</ele>
        <time>2012-05-03T14:03:33Z</time>
      </trkpt>
      <trkpt lat="47.01457" lon="-0.99674">
        <ele>127</ele>
        <time>2012-05-03T14:03:34Z</time>
      </trkpt>
      <trkpt lat="47.0146" lon="-0.99672">
        <ele>127</ele>
        <time>2012-05-03T14:03:35Z</time>
      </trkpt>
      <trkpt lat="47.01463" lon="-0.99669">
        <ele>127</ele>
        <time>2012-05-03T14:03:36Z</time>
      </trkpt>
      <trkpt lat="47.01466" lon="-0.99666">
        <ele>127</ele>
        <time>2012-05-03T14:03:37Z</time>
      </trkpt>
      <trkpt lat="47.01469" lon="-0.99663">
        <ele>127</ele>
        <time>2012-05-03T14:03:38Z</time>
      </trkpt>
      <trkpt lat="47.01471" lon="-0.99661">
        <ele>127</ele>
        <time>2012-05-03T14:03:39Z</time>
      </trkpt>
      <trkpt lat="47.01473" lon="-0.9966">
        <ele>127</ele>
        <time>2012-05-03T14:03:40Z</time>
      </trkpt>
      <trkpt lat="47.01474" lon="-0.9966">
        <ele>128</ele>
        <time>2012-05-03T14:03:41Z</time>
      </trkpt>
      <trkpt lat="47.01477" lon="-0.9966">
        <ele>128</ele>
        <time>2012-05-03T14:03:42Z</time>
      </trkpt>
      <trkpt lat="47.01479" lon="-0.99659">
        <ele>128</ele>
        <time>2012-05-03T14:03:43Z</time>
      </trkpt>
      <trkpt lat="47.01481" lon="-0.99658">
        <ele>128</ele>
        <time>2012-05-03T14:03:44Z</time>
      </trkpt>
      <trkpt lat="47.01484" lon="-0.99656">
        <ele>128</ele>
        <time>2012-05-03T14:03:45Z</time>
      </trkpt>
      <trkpt lat="47.01487" lon="-0.99655">
        <ele>128</ele>
        <time>2012-05-03T14:03:46Z</time>
      </trkpt>
      <trkpt lat="47.01491" lon="-0.99652">
        <ele>128</ele>
        <time>2012-05-03T14:03:47Z</time>
      </trkpt>
      <trkpt lat="47.01495" lon="-0.9965">
        <ele>128</ele>
        <time>2012-05-03T14:03:48Z</time>
      </trkpt>
      <trkpt lat="47.015" lon="-0.99648">
        <ele>128</ele>
        <time>2012-05-03T14:03:49Z</time>
      </trkpt>
      <trkpt lat="47.01505" lon="-0.99646">
        <ele>128</ele>
        <time>2012-05-03T14:03:50Z</time>
      </trkpt>
      <trkpt lat="47.0151" lon="-0.99644">
        <ele>128</ele>
        <time>2012-05-03T14:03:51Z</time>
      </trkpt>
      <trkpt lat="47.01515" lon="-0.99642">
        <ele>128</ele>
        <time>2012-05-03T14:03:52Z</time>
      </trkpt>
      <trkpt lat="47.0152" lon="-0.99639">
        <ele>128</ele>
        <time>2012-05-03T14:03:53Z</time>
      </trkpt>
      <trkpt lat="47.01525" lon="-0.99637">
        <ele>128</ele>
        <time>2012-05-03T14:03:54Z</time>
      </trkpt>
      <trkpt lat="47.0153" lon="-0.99635">
        <ele>128</ele>
        <time>2012-05-03T14:03:55Z</time>
      </trkpt>
      <trkpt lat="47.01535" lon="-0.99633">
        <ele>128</ele>
        <time>2012-05-03T14:03:56Z</time>
      </trkpt>
      <trkpt lat="47.0154" lon="-0.9963">
        <ele>128</ele>
        <time>2012-05-03T14:03:57Z</time>
      </trkpt>
      <trkpt lat="47.01545" lon="-0.99627">
        <ele>128</ele>
        <time>2012-05-03T14:03:58Z</time>
      </trkpt>
      <trkpt lat="47.0155" lon="-0.99625">
        <ele>128</ele>
        <time>2012-05-03T14:03:59Z</time>
      </trkpt>
      <trkpt lat="47.01556" lon="-0.99622">
        <ele>128</ele>
        <time>2012-05-03T14:04:00Z</time>
      </trkpt>
      <trkpt lat="47.01561" lon="-0.9962">
        <ele>128</ele>
        <time>2012-05-03T14:04:01Z</time>
      </trkpt>
      <trkpt lat="47.01566" lon="-0.99617">
        <ele>128</ele>
        <time>2012-05-03T14:04:02Z</time>
      </trkpt>
      <trkpt lat="47.01571" lon="-0.99614">
        <ele>128</ele>
        <time>2012-05-03T14:04:03Z</time>
      </trkpt>
      <trkpt lat="47.01577" lon="-0.99611">
        <ele>128</ele>
        <time>2012-05-03T14:04:04Z</time>
      </trkpt>
      <trkpt lat="47.01582" lon="-0.99608">
        <ele>128</ele>
        <time>2012-05-03T14:04:05Z</time>
      </trkpt>
      <trkpt lat="47.01588" lon="-0.99606">
        <ele>128</ele>
        <time>2012-05-03T14:04:06Z</time>
      </trkpt>
      <trkpt lat="47.01593" lon="-0.99603">
        <ele>128</ele>
        <time>2012-05-03T14:04:07Z</time>
      </trkpt>
      <trkpt lat="47.01599" lon="-0.996">
        <ele>128</ele>
        <time>2012-05-03T14:04:08Z</time>
      </trkpt>
      <trkpt lat="47.01604" lon="-0.99598">
        <ele>128</ele>
        <time>2012-05-03T14:04:09Z</time>
      </trkpt>
      <trkpt lat="47.0161" lon="-0.99595">
        <ele>128</ele>
        <time>2012-05-03T14:04:10Z</time>
      </trkpt>
      <trkpt lat="47.01616" lon="-0.99592">
        <ele>128</ele>
        <time>2012-05-03T14:04:11Z</time>
      </trkpt>
      <trkpt lat="47.01621" lon="-0.99589">
        <ele>128</ele>
        <time>2012-05-03T14:04:12Z</time>
      </trkpt>
      <trkpt lat="47.01627" lon="-0.99586">
        <ele>128</ele>
        <time>2012-05-03T14:04:13Z</time>
      </trkpt>
      <trkpt lat="47.01632" lon="-0.99583">
        <ele>128</ele>
        <time>2012-05-03T14:04:14Z</time>
      </trkpt>
      <trkpt lat="47.01638" lon="-0.99581">
        <ele>128</ele>
        <time>2012-05-03T14:04:15Z</time>
      </trkpt>
      <trkpt lat="47.01643" lon="-0.99578">
        <ele>128</ele>
        <time>2012-05-03T14:04:16Z</time>
      </trkpt>
      <trkpt lat="47.01648" lon="-0.99575">
        <ele>128</ele>
        <time>2012-05-03T14:04:17Z</time>
      </trkpt>
      <trkpt lat="47.01654" lon="-0.99572">
        <ele>128</ele>
        <time>2012-05-03T14:04:18Z</time>
      </trkpt>
      <trkpt lat="47.01659" lon="-0.9957">
        <ele>128</ele>
        <time>2012-05-03T14:04:19Z</time>
      </trkpt>
      <trkpt lat="47.01664" lon="-0.99567">
        <ele>128</ele>
        <time>2012-05-03T14:04:20Z</time>
      </trkpt>
      <trkpt lat="47.0167" lon="-0.99564">
        <ele>128</ele>
        <time>2012-05-03T14:04:21Z</time>
      </trkpt>
      <trkpt lat="47.01675" lon="-0.99561">
        <ele>128</ele>
        <time>2012-05-03T14:04:22Z</time>
      </trkpt>
      <trkpt lat="47.01681" lon="-0.99558">
        <ele>128</ele>
        <time>2012-05-03T14:04:23Z</time>
      </trkpt>
      <trkpt lat="47.01687" lon="-0.99556">
        <ele>128</ele>
        <time>2012-05-03T14:04:24Z</time>
      </trkpt>
      <trkpt lat="47.01693" lon="-0.99553">
        <ele>128</ele>
        <time>2012-05-03T14:04:25Z</time>
      </trkpt>
      <trkpt lat="47.01698" lon="-0.9955">
        <ele>128</ele>
        <time>2012-05-03T14:04:26Z</time>
      </trkpt>
      <trkpt lat="47.01704" lon="-0.99547">
        <ele>128</ele>
        <time>2012-05-03T14:04:27Z</time>
      </trkpt>
      <trkpt lat="47.01709" lon="-0.99544">
        <ele>128</ele>
        <time>2012-05-03T14:04:28Z</time>
      </trkpt>
      <trkpt lat="47.01715" lon="-0.99541">
        <ele>128</ele>
        <time>2012-05-03T14:04:29Z</time>
      </trkpt>
      <trkpt lat="47.01721" lon="-0.99538">
        <ele>128</ele>
        <time>2012-05-03T14:04:30Z</time>
      </trkpt>
      <trkpt lat="47.01727" lon="-0.99536">
        <ele>128</ele>
        <time>2012-05-03T14:04:31Z</time>
      </trkpt>
      <trkpt lat="47.01732" lon="-0.99533">
        <ele>128</ele>
        <time>2012-05-03T14:04:32Z</time>
      </trkpt>
      <trkpt lat="47.01738" lon="-0.9953">
        <ele>128</ele>
        <time>2012-05-03T14:04:33Z</time>
      </trkpt>
      <trkpt lat="47.01743" lon="-0.99527">
        <ele>128</ele>
        <time>2012-05-03T14:04:34Z</time>
      </trkpt>
      <trkpt lat="47.01748" lon="-0.99524">
        <ele>128</ele>
        <time>2012-05-03T14:04:35Z</time>
      </trkpt>
      <trkpt lat="47.01754" lon="-0.99524">
        <ele>128</ele>
        <time>2012-05-03T14:04:36Z</time>
      </trkpt>
      <trkpt lat="47.0176" lon="-0.99525">
        <ele>128</ele>
        <time>2012-05-03T14:04:37Z</time>
      </trkpt>
      <trkpt lat="47.01766" lon="-0.99528">
        <ele>128</ele>
        <time>2012-05-03T14:04:38Z</time>
      </trkpt>
      <trkpt lat="47.01771" lon="-0.99533">
        <ele>128</ele>
        <time>2012-05-03T14:04:39Z</time>
      </trkpt>
      <trkpt lat="47.01776" lon="-0.99538">
        <ele>128</ele>
        <time>2012-05-03T14:04:40Z</time>
      </trkpt>
      <trkpt lat="47.0178" lon="-0.99544">
        <ele>128</ele>
        <time>2012-05-03T14:04:41Z</time>
      </trkpt>
      <trkpt lat="47.01786" lon="-0.99549">
        <ele>128</ele>
        <time>2012-05-03T14:04:42Z</time>
      </trkpt>
      <trkpt lat="47.01791" lon="-0.99554">
        <ele>128</ele>
        <time>2012-05-03T14:04:43Z</time>
      </trkpt>
      <trkpt lat="47.01796" lon="-0.99558">
        <ele>128</ele>
        <time>2012-05-03T14:04:44Z</time>
      </trkpt>
      <trkpt lat="47.01802" lon="-0.99562">
        <ele>128</ele>
        <time>2012-05-03T14:04:45Z</time>
      </trkpt>
      <trkpt lat="47.01807" lon="-0.99567">
        <ele>128</ele>
        <time>2012-05-03T14:04:46Z</time>
      </trkpt>
      <trkpt lat="47.01812" lon="-0.99571">
        <ele>128</ele>
        <time>2012-05-03T14:04:47Z</time>
      </trkpt>
      <trkpt lat="47.01817" lon="-0.99575">
        <ele>128</ele>
        <time>2012-05-03T14:04:48Z</time>
      </trkpt>
      <trkpt lat="47.01822" lon="-0.9958">
        <ele>128</ele>
        <time>2012-05-03T14:04:49Z</time>
      </trkpt>
      <trkpt lat="47.01828" lon="-0.99585">
        <ele>128</ele>
        <time>2012-05-03T14:04:50Z</time>
      </trkpt>
      <trkpt lat="47.01833" lon="-0.9959">
        <ele>128</ele>
        <time>2012-05-03T14:04:51Z</time>
      </trkpt>
      <trkpt lat="47.01837" lon="-0.99596">
        <ele>128</ele>
        <time>2012-05-03T14:04:52Z</time>
      </trkpt>
      <trkpt lat="47.01842" lon="-0.99602">
        <ele>128</ele>
        <time>2012-05-03T14:04:53Z</time>
      </trkpt>
      <trkpt lat="47.01847" lon="-0.99608">
        <ele>128</ele>
        <time>2012-05-03T14:04:54Z</time>
      </trkpt>
      <trkpt lat="47.01851" lon="-0.99614">
        <ele>128</ele>
        <time>2012-05-03T14:04:55Z</time>
      </trkpt>
      <trkpt lat="47.01855" lon="-0.9962">
        <ele>128</ele>
        <time>2012-05-03T14:04:56Z</time>
      </trkpt>
      <trkpt lat="47.0186" lon="-0.99627">
        <ele>128</ele>
        <time>2012-05-03T14:04:57Z</time>
      </trkpt>
      <trkpt lat="47.01865" lon="-0.99634">
        <ele>128</ele>
        <time>2012-05-03T14:04:58Z</time>
      </trkpt>
      <trkpt lat="47.01869" lon="-0.99641">
        <ele>128</ele>
        <time>2012-05-03T14:04:59Z</time>
      </trkpt>
      <trkpt lat="47.01874" lon="-0.99648">
        <ele>128</ele>
        <time>2012-05-03T14:05:00Z</time>
      </trkpt>
      <trkpt lat="47.01879" lon="-0.99655">
        <ele>128</ele>
        <time>2012-05-03T14:05:01Z</time>
      </trkpt>
      <trkpt lat="47.01884" lon="-0.99663">
        <ele>128</ele>
        <time>2012-05-03T14:05:02Z</time>
      </trkpt>
      <trkpt lat="47.01889" lon="-0.9967">
        <ele>128</ele>
        <time>2012-05-03T14:05:03Z</time>
      </trkpt>
      <trkpt lat="47.01894" lon="-0.99677">
        <ele>128</ele>
        <time>2012-05-03T14:05:04Z</time>
      </trkpt>
      <trkpt lat="47.01899" lon="-0.99685">
        <ele>128</ele>
        <time>2012-05-03T14:05:05Z</time>
      </trkpt>
      <trkpt lat="47.01904" lon="-0.99692">
        <ele>128</ele>
        <time>2012-05-03T14:05:06Z</time>
      </trkpt>
      <trkpt lat="47.0191" lon="-0.997">
        <ele>128</ele>
        <time>2012-05-03T14:05:07Z</time>
      </trkpt>
      <trkpt lat="47.01915" lon="-0.99707">
        <ele>128</ele>
        <time>2012-05-03T14:05:08Z</time>
      </trkpt>
      <trkpt lat="47.0192" lon="-0.99715">
        <ele>128</ele>
        <time>2012-05-03T14:05:09Z</time>
      </trkpt>
      <trkpt lat="47.01925" lon="-0.99722">
        <ele>128</ele>
        <time>2012-05-03T14:05:10Z</time>
      </trkpt>
      <trkpt lat="47.01931" lon="-0.9973">
        <ele>128</ele>
        <time>2012-05-03T14:05:11Z</time>
      </trkpt>
      <trkpt lat="47.01936" lon="-0.99738">
        <ele>128</ele>
        <time>2012-05-03T14:05:12Z</time>
      </trkpt>
      <trkpt lat="47.01941" lon="-0.99746">
        <ele>128</ele>
        <time>2012-05-03T14:05:13Z</time>
      </trkpt>
      <trkpt lat="47.01946" lon="-0.99753">
        <ele>128</ele>
        <time>2012-05-03T14:05:14Z</time>
      </trkpt>
      <trkpt lat="47.01951" lon="-0.99761">
        <ele>128</ele>
        <time>2012-05-03T14:05:15Z</time>
      </trkpt>
      <trkpt lat="47.01957" lon="-0.99769">
        <ele>128</ele>
        <time>2012-05-03T14:05:16Z</time>
      </trkpt>
      <trkpt lat="47.01962" lon="-0.99777">
        <ele>128</ele>
        <time>2012-05-03T14:05:17Z</time>
      </trkpt>
      <trkpt lat="47.01967" lon="-0.99785">
        <ele>128</ele>
        <time>2012-05-03T14:05:18Z</time>
      </trkpt>
      <trkpt lat="47.01972" lon="-0.99792">
        <ele>128</ele>
        <time>2012-05-03T14:05:19Z</time>
      </trkpt>
      <trkpt lat="47.01977" lon="-0.998">
        <ele>128</ele>
        <time>2012-05-03T14:05:20Z</time>
      </trkpt>
      <trkpt lat="47.01982" lon="-0.99808">
        <ele>128</ele>
        <time>2012-05-03T14:05:21Z</time>
      </trkpt>
      <trkpt lat="47.01988" lon="-0.99815">
        <ele>128</ele>
        <time>2012-05-03T14:05:22Z</time>
      </trkpt>
      <trkpt lat="47.01993" lon="-0.99823">
        <ele>128</ele>
        <time>2012-05-03T14:05:23Z</time>
      </trkpt>
      <trkpt lat="47.01999" lon="-0.99829">
        <ele>128</ele>
        <time>2012-05-03T14:05:24Z</time>
      </trkpt>
      <trkpt lat="47.02006" lon="-0.99834">
        <ele>127</ele>
        <time>2012-05-03T14:05:25Z</time>
      </trkpt>
      <trkpt lat="47.02013" lon="-0.99837">
        <ele>127</ele>
        <time>2012-05-03T14:05:26Z</time>
      </trkpt>
      <trkpt lat="47.0202" lon="-0.99839">
        <ele>127</ele>
        <time>2012-05-03T14:05:27Z</time>
      </trkpt>
      <trkpt lat="47.02027" lon="-0.9984">
        <ele>127</ele>
        <time>2012-05-03T14:05:28Z</time>
      </trkpt>
      <trkpt lat="47.02034" lon="-0.99842">
        <ele>126</ele>
        <time>2012-05-03T14:05:29Z</time>
      </trkpt>
      <trkpt lat="47.02042" lon="-0.99843">
        <ele>126</ele>
        <time>2012-05-03T14:05:30Z</time>
      </trkpt>
      <trkpt lat="47.02049" lon="-0.99844">
        <ele>126</ele>
        <time>2012-05-03T14:05:31Z</time>
      </trkpt>
      <trkpt lat="47.02056" lon="-0.99845">
        <ele>126</ele>
        <time>2012-05-03T14:05:32Z</time>
      </trkpt>
      <trkpt lat="47.02064" lon="-0.99846">
        <ele>126</ele>
        <time>2012-05-03T14:05:33Z</time>
      </trkpt>
      <trkpt lat="47.02071" lon="-0.99848">
        <ele>126</ele>
        <time>2012-05-03T14:05:34Z</time>
      </trkpt>
      <trkpt lat="47.02079" lon="-0.99852">
        <ele>126</ele>
        <time>2012-05-03T14:05:35Z</time>
      </trkpt>
      <trkpt lat="47.02085" lon="-0.99857">
        <ele>126</ele>
        <time>2012-05-03T14:05:36Z</time>
      </trkpt>
      <trkpt lat="47.02092" lon="-0.99863">
        <ele>125</ele>
        <time>2012-05-03T14:05:37Z</time>
      </trkpt>
      <trkpt lat="47.02098" lon="-0.9987">
        <ele>125</ele>
        <time>2012-05-03T14:05:38Z</time>
      </trkpt>
      <trkpt lat="47.02103" lon="-0.99878">
        <ele>125</ele>
        <time>2012-05-03T14:05:39Z</time>
      </trkpt>
      <trkpt lat="47.02109" lon="-0.99886">
        <ele>125</ele>
        <time>2012-05-03T14:05:40Z</time>
      </trkpt>
      <trkpt lat="47.02114" lon="-0.99894">
        <ele>125</ele>
        <time>2012-05-03T14:05:41Z</time>
      </trkpt>
      <trkpt lat="47.0212" lon="-0.99902">
        <ele>125</ele>
        <time>2012-05-03T14:05:42Z</time>
      </trkpt>
      <trkpt lat="47.02126" lon="-0.9991">
        <ele>125</ele>
        <time>2012-05-03T14:05:43Z</time>
      </trkpt>
      <trkpt lat="47.02131" lon="-0.99918">
        <ele>125</ele>
        <time>2012-05-03T14:05:44Z</time>
      </trkpt>
      <trkpt lat="47.02136" lon="-0.99926">
        <ele>125</ele>
        <time>2012-05-03T14:05:45Z</time>
      </trkpt>
      <trkpt lat="47.02142" lon="-0.99933">
        <ele>125</ele>
        <time>2012-05-03T14:05:46Z</time>
      </trkpt>
      <trkpt lat="47.02147" lon="-0.99941">
        <ele>125</ele>
        <time>2012-05-03T14:05:47Z</time>
      </trkpt>
      <trkpt lat="47.02152" lon="-0.99949">
        <ele>125</ele>
        <time>2012-05-03T14:05:48Z</time>
      </trkpt>
      <trkpt lat="47.02157" lon="-0.99956">
        <ele>125</ele>
        <time>2012-05-03T14:05:49Z</time>
      </trkpt>
      <trkpt lat="47.02162" lon="-0.99963">
        <ele>125</ele>
        <time>2012-05-03T14:05:50Z</time>
      </trkpt>
      <trkpt lat="47.02167" lon="-0.9997">
        <ele>125</ele>
        <time>2012-05-03T14:05:51Z</time>
      </trkpt>
      <trkpt lat="47.02172" lon="-0.99977">
        <ele>125</ele>
        <time>2012-05-03T14:05:52Z</time>
      </trkpt>
      <trkpt lat="47.02177" lon="-0.99983">
        <ele>125</ele>
        <time>2012-05-03T14:05:53Z</time>
      </trkpt>
      <trkpt lat="47.02183" lon="-0.99989">
        <ele>125</ele>
        <time>2012-05-03T14:05:54Z</time>
      </trkpt>
      <trkpt lat="47.02188" lon="-0.99995">
        <ele>125</ele>
        <time>2012-05-03T14:05:55Z</time>
      </trkpt>
      <trkpt lat="47.02193" lon="-1.00001">
        <ele>125</ele>
        <time>2012-05-03T14:05:56Z</time>
      </trkpt>
      <trkpt lat="47.02198" lon="-1.00007">
        <ele>125</ele>
        <time>2012-05-03T14:05:57Z</time>
      </trkpt>
      <trkpt lat="47.02204" lon="-1.00012">
        <ele>125</ele>
        <time>2012-05-03T14:05:58Z</time>
      </trkpt>
      <trkpt lat="47.02209" lon="-1.00018">
        <ele>125</ele>
        <time>2012-05-03T14:05:59Z</time>
      </trkpt>
      <trkpt lat="47.02215" lon="-1.00023">
        <ele>125</ele>
        <time>2012-05-03T14:06:00Z</time>
      </trkpt>
      <trkpt lat="47.0222" lon="-1.00028">
        <ele>125</ele>
        <time>2012-05-03T14:06:01Z</time>
      </trkpt>
      <trkpt lat="47.02226" lon="-1.00033">
        <ele>125</ele>
        <time>2012-05-03T14:06:02Z</time>
      </trkpt>
      <trkpt lat="47.02231" lon="-1.00038">
        <ele>125</ele>
        <time>2012-05-03T14:06:03Z</time>
      </trkpt>
      <trkpt lat="47.02237" lon="-1.00042">
        <ele>125</ele>
        <time>2012-05-03T14:06:04Z</time>
      </trkpt>
      <trkpt lat="47.02242" lon="-1.00047">
        <ele>125</ele>
        <time>2012-05-03T14:06:05Z</time>
      </trkpt>
      <trkpt lat="47.02248" lon="-1.00052">
        <ele>125</ele>
        <time>2012-05-03T14:06:06Z</time>
      </trkpt>
      <trkpt lat="47.02253" lon="-1.00057">
        <ele>125</ele>
        <time>2012-05-03T14:06:07Z</time>
      </trkpt>
      <trkpt lat="47.02258" lon="-1.00062">
        <ele>125</ele>
        <time>2012-05-03T14:06:08Z</time>
      </trkpt>
      <trkpt lat="47.02263" lon="-1.00066">
        <ele>125</ele>
        <time>2012-05-03T14:06:09Z</time>
      </trkpt>
      <trkpt lat="47.02268" lon="-1.0007">
        <ele>125</ele>
        <time>2012-05-03T14:06:10Z</time>
      </trkpt>
      <trkpt lat="47.02274" lon="-1.00075">
        <ele>125</ele>
        <time>2012-05-03T14:06:11Z</time>
      </trkpt>
      <trkpt lat="47.02279" lon="-1.0008">
        <ele>125</ele>
        <time>2012-05-03T14:06:12Z</time>
      </trkpt>
      <trkpt lat="47.02285" lon="-1.00085">
        <ele>125</ele>
        <time>2012-05-03T14:06:13Z</time>
      </trkpt>
      <trkpt lat="47.0229" lon="-1.00089">
        <ele>125</ele>
        <time>2012-05-03T14:06:14Z</time>
      </trkpt>
      <trkpt lat="47.02296" lon="-1.00094">
        <ele>125</ele>
        <time>2012-05-03T14:06:15Z</time>
      </trkpt>
      <trkpt lat="47.02301" lon="-1.00098">
        <ele>125</ele>
        <time>2012-05-03T14:06:16Z</time>
      </trkpt>
      <trkpt lat="47.02307" lon="-1.00103">
        <ele>125</ele>
        <time>2012-05-03T14:06:17Z</time>
      </trkpt>
      <trkpt lat="47.02312" lon="-1.00108">
        <ele>125</ele>
        <time>2012-05-03T14:06:18Z</time>
      </trkpt>
      <trkpt lat="47.02318" lon="-1.00112">
        <ele>125</ele>
        <time>2012-05-03T14:06:19Z</time>
      </trkpt>
      <trkpt lat="47.02323" lon="-1.00117">
        <ele>125</ele>
        <time>2012-05-03T14:06:20Z</time>
      </trkpt>
      <trkpt lat="47.02328" lon="-1.00121">
        <ele>125</ele>
        <time>2012-05-03T14:06:21Z</time>
      </trkpt>
      <trkpt lat="47.02334" lon="-1.00125">
        <ele>125</ele>
        <time>2012-05-03T14:06:22Z</time>
      </trkpt>
      <trkpt lat="47.02339" lon="-1.00129">
        <ele>125</ele>
        <time>2012-05-03T14:06:23Z</time>
      </trkpt>
      <trkpt lat="47.02344" lon="-1.00133">
        <ele>125</ele>
        <time>2012-05-03T14:06:24Z</time>
      </trkpt>
      <trkpt lat="47.02349" lon="-1.00137">
        <ele>125</ele>
        <time>2012-05-03T14:06:25Z</time>
      </trkpt>
      <trkpt lat="47.02355" lon="-1.00141">
        <ele>125</ele>
        <time>2012-05-03T14:06:26Z</time>
      </trkpt>
      <trkpt lat="47.0236" lon="-1.00145">
        <ele>125</ele>
        <time>2012-05-03T14:06:27Z</time>
      </trkpt>
      <trkpt lat="47.02365" lon="-1.00149">
        <ele>125</ele>
        <time>2012-05-03T14:06:28Z</time>
      </trkpt>
      <trkpt lat="47.02371" lon="-1.00153">
        <ele>125</ele>
        <time>2012-05-03T14:06:29Z</time>
      </trkpt>
      <trkpt lat="47.02376" lon="-1.00157">
        <ele>125</ele>
        <time>2012-05-03T14:06:30Z</time>
      </trkpt>
      <trkpt lat="47.02381" lon="-1.00161">
        <ele>125</ele>
        <time>2012-05-03T14:06:31Z</time>
      </trkpt>
      <trkpt lat="47.02387" lon="-1.00164">
        <ele>125</ele>
        <time>2012-05-03T14:06:32Z</time>
      </trkpt>
      <trkpt lat="47.02392" lon="-1.00168">
        <ele>125</ele>
        <time>2012-05-03T14:06:33Z</time>
      </trkpt>
      <trkpt lat="47.02397" lon="-1.00172">
        <ele>125</ele>
        <time>2012-05-03T14:06:34Z</time>
      </trkpt>
      <trkpt lat="47.02402" lon="-1.00176">
        <ele>125</ele>
        <time>2012-05-03T14:06:35Z</time>
      </trkpt>
      <trkpt lat="47.02407" lon="-1.0018">
        <ele>125</ele>
        <time>2012-05-03T14:06:36Z</time>
      </trkpt>
      <trkpt lat="47.02413" lon="-1.00184">
        <ele>125</ele>
        <time>2012-05-03T14:06:37Z</time>
      </trkpt>
      <trkpt lat="47.02418" lon="-1.00188">
        <ele>125</ele>
        <time>2012-05-03T14:06:38Z</time>
      </trkpt>
      <trkpt lat="47.02423" lon="-1.00191">
        <ele>125</ele>
        <time>2012-05-03T14:06:39Z</time>
      </trkpt>
      <trkpt lat="47.02428" lon="-1.00196">
        <ele>125</ele>
        <time>2012-05-03T14:06:40Z</time>
      </trkpt>
      <trkpt lat="47.02433" lon="-1.00199">
        <ele>125</ele>
        <time>2012-05-03T14:06:41Z</time>
      </trkpt>
      <trkpt lat="47.02438" lon="-1.00204">
        <ele>125</ele>
        <time>2012-05-03T14:06:42Z</time>
      </trkpt>
      <trkpt lat="47.02443" lon="-1.00208">
        <ele>125</ele>
        <time>2012-05-03T14:06:43Z</time>
      </trkpt>
      <trkpt lat="47.02449" lon="-1.00212">
        <ele>125</ele>
        <time>2012-05-03T14:06:44Z</time>
      </trkpt>
      <trkpt lat="47.02453" lon="-1.00216">
        <ele>125</ele>
        <time>2012-05-03T14:06:45Z</time>
      </trkpt>
      <trkpt lat="47.02458" lon="-1.00221">
        <ele>125</ele>
        <time>2012-05-03T14:06:46Z</time>
      </trkpt>
      <trkpt lat="47.02463" lon="-1.00226">
        <ele>125</ele>
        <time>2012-05-03T14:06:47Z</time>
      </trkpt>
      <trkpt lat="47.02468" lon="-1.00232">
        <ele>125</ele>
        <time>2012-05-03T14:06:48Z</time>
      </trkpt>
      <trkpt lat="47.02473" lon="-1.00237">
        <ele>125</ele>
        <time>2012-05-03T14:06:49Z</time>
      </trkpt>
      <trkpt lat="47.02477" lon="-1.00242">
        <ele>125</ele>
        <time>2012-05-03T14:06:50Z</time>
      </trkpt>
      <trkpt lat="47.02481" lon="-1.00247">
        <ele>125</ele>
        <time>2012-05-03T14:06:51Z</time>
      </trkpt>
      <trkpt lat="47.02485" lon="-1.00252">
        <ele>125</ele>
        <time>2012-05-03T14:06:52Z</time>
      </trkpt>
      <trkpt lat="47.02489" lon="-1.00256">
        <ele>125</ele>
        <time>2012-05-03T14:06:53Z</time>
      </trkpt>
      <trkpt lat="47.02493" lon="-1.00261">
        <ele>125</ele>
        <time>2012-05-03T14:06:54Z</time>
      </trkpt>
      <trkpt lat="47.02497" lon="-1.00266">
        <ele>125</ele>
        <time>2012-05-03T14:06:55Z</time>
      </trkpt>
      <trkpt lat="47.02501" lon="-1.00272">
        <ele>125</ele>
        <time>2012-05-03T14:06:56Z</time>
      </trkpt>
      <trkpt lat="47.02504" lon="-1.00278">
        <ele>125</ele>
        <time>2012-05-03T14:06:57Z</time>
      </trkpt>
      <trkpt lat="47.02508" lon="-1.00286">
        <ele>125</ele>
        <time>2012-05-03T14:06:58Z</time>
      </trkpt>
      <trkpt lat="47.02511" lon="-1.00293">
        <ele>125</ele>
        <time>2012-05-03T14:06:59Z</time>
      </trkpt>
      <trkpt lat="47.02514" lon="-1.003">
        <ele>125</ele>
        <time>2012-05-03T14:07:00Z</time>
      </trkpt>
      <trkpt lat="47.02517" lon="-1.00307">
        <ele>125</ele>
        <time>2012-05-03T14:07:01Z</time>
      </trkpt>
      <trkpt lat="47.0252" lon="-1.00315">
        <ele>125</ele>
        <time>2012-05-03T14:07:02Z</time>
      </trkpt>
      <trkpt lat="47.02523" lon="-1.00322">
        <ele>125</ele>
        <time>2012-05-03T14:07:03Z</time>
      </trkpt>
      <trkpt lat="47.02526" lon="-1.00329">
        <ele>125</ele>
        <time>2012-05-03T14:07:04Z</time>
      </trkpt>
      <trkpt lat="47.0253" lon="-1.00337">
        <ele>125</ele>
        <time>2012-05-03T14:07:05Z</time>
      </trkpt>
      <trkpt lat="47.02533" lon="-1.00343">
        <ele>125</ele>
        <time>2012-05-03T14:07:06Z</time>
      </trkpt>
      <trkpt lat="47.02537" lon="-1.0035">
        <ele>125</ele>
        <time>2012-05-03T14:07:07Z</time>
      </trkpt>
      <trkpt lat="47.02541" lon="-1.00356">
        <ele>125</ele>
        <time>2012-05-03T14:07:08Z</time>
      </trkpt>
      <trkpt lat="47.02544" lon="-1.00362">
        <ele>125</ele>
        <time>2012-05-03T14:07:09Z</time>
      </trkpt>
      <trkpt lat="47.02547" lon="-1.00367">
        <ele>125</ele>
        <time>2012-05-03T14:07:10Z</time>
      </trkpt>
      <trkpt lat="47.0255" lon="-1.00372">
        <ele>125</ele>
        <time>2012-05-03T14:07:11Z</time>
      </trkpt>
      <trkpt lat="47.02554" lon="-1.00377">
        <ele>125</ele>
        <time>2012-05-03T14:07:12Z</time>
      </trkpt>
      <trkpt lat="47.02557" lon="-1.00382">
        <ele>125</ele>
        <time>2012-05-03T14:07:13Z</time>
      </trkpt>
      <trkpt lat="47.02562" lon="-1.00388">
        <ele>125</ele>
        <time>2012-05-03T14:07:14Z</time>
      </trkpt>
      <trkpt lat="47.02565" lon="-1.00393">
        <ele>125</ele>
        <time>2012-05-03T14:07:15Z</time>
      </trkpt>
      <trkpt lat="47.02569" lon="-1.00398">
        <ele>125</ele>
        <time>2012-05-03T14:07:16Z</time>
      </trkpt>
      <trkpt lat="47.02573" lon="-1.00403">
        <ele>125</ele>
        <time>2012-05-03T14:07:17Z</time>
      </trkpt>
      <trkpt lat="47.02576" lon="-1.00408">
        <ele>125</ele>
        <time>2012-05-03T14:07:18Z</time>
      </trkpt>
      <trkpt lat="47.02579" lon="-1.00412">
        <ele>125</ele>
        <time>2012-05-03T14:07:19Z</time>
      </trkpt>
      <trkpt lat="47.02583" lon="-1.00417">
        <ele>125</ele>
        <time>2012-05-03T14:07:20Z</time>
      </trkpt>
      <trkpt lat="47.02586" lon="-1.00421">
        <ele>125</ele>
        <time>2012-05-03T14:07:21Z</time>
      </trkpt>
      <trkpt lat="47.0259" lon="-1.00427">
        <ele>125</ele>
        <time>2012-05-03T14:07:22Z</time>
      </trkpt>
      <trkpt lat="47.02593" lon="-1.00432">
        <ele>125</ele>
        <time>2012-05-03T14:07:23Z</time>
      </trkpt>
      <trkpt lat="47.02596" lon="-1.00436">
        <ele>125</ele>
        <time>2012-05-03T14:07:24Z</time>
      </trkpt>
      <trkpt lat="47.026" lon="-1.00441">
        <ele>125</ele>
        <time>2012-05-03T14:07:25Z</time>
      </trkpt>
      <trkpt lat="47.02603" lon="-1.00445">
        <ele>125</ele>
        <time>2012-05-03T14:07:26Z</time>
      </trkpt>
      <trkpt lat="47.02607" lon="-1.0045">
        <ele>125</ele>
        <time>2012-05-03T14:07:27Z</time>
      </trkpt>
      <trkpt lat="47.0261" lon="-1.00455">
        <ele>125</ele>
        <time>2012-05-03T14:07:28Z</time>
      </trkpt>
      <trkpt lat="47.02614" lon="-1.00459">
        <ele>125</ele>
        <time>2012-05-03T14:07:29Z</time>
      </trkpt>
      <trkpt lat="47.02618" lon="-1.00464">
        <ele>125</ele>
        <time>2012-05-03T14:07:30Z</time>
      </trkpt>
      <trkpt lat="47.02622" lon="-1.00469">
        <ele>125</ele>
        <time>2012-05-03T14:07:31Z</time>
      </trkpt>
      <trkpt lat="47.02626" lon="-1.00473">
        <ele>125</ele>
        <time>2012-05-03T14:07:32Z</time>
      </trkpt>
      <trkpt lat="47.02629" lon="-1.00478">
        <ele>125</ele>
        <time>2012-05-03T14:07:33Z</time>
      </trkpt>
      <trkpt lat="47.02634" lon="-1.00483">
        <ele>125</ele>
        <time>2012-05-03T14:07:34Z</time>
      </trkpt>
      <trkpt lat="47.02637" lon="-1.00488">
        <ele>125</ele>
        <time>2012-05-03T14:07:35Z</time>
      </trkpt>
      <trkpt lat="47.02641" lon="-1.00492">
        <ele>126</ele>
        <time>2012-05-03T14:07:36Z</time>
      </trkpt>
      <trkpt lat="47.02645" lon="-1.00497">
        <ele>126</ele>
        <time>2012-05-03T14:07:37Z</time>
      </trkpt>
      <trkpt lat="47.02648" lon="-1.00501">
        <ele>126</ele>
        <time>2012-05-03T14:07:38Z</time>
      </trkpt>
      <trkpt lat="47.02652" lon="-1.00506">
        <ele>126</ele>
        <time>2012-05-03T14:07:39Z</time>
      </trkpt>
      <trkpt lat="47.02656" lon="-1.00511">
        <ele>126</ele>
        <time>2012-05-03T14:07:40Z</time>
      </trkpt>
      <trkpt lat="47.0266" lon="-1.00515">
        <ele>126</ele>
        <time>2012-05-03T14:07:41Z</time>
      </trkpt>
      <trkpt lat="47.02664" lon="-1.0052">
        <ele>127</ele>
        <time>2012-05-03T14:07:42Z</time>
      </trkpt>
      <trkpt lat="47.02668" lon="-1.00525">
        <ele>127</ele>
        <time>2012-05-03T14:07:43Z</time>
      </trkpt>
      <trkpt lat="47.02671" lon="-1.00531">
        <ele>127</ele>
        <time>2012-05-03T14:07:44Z</time>
      </trkpt>
      <trkpt lat="47.02675" lon="-1.00536">
        <ele>127</ele>
        <time>2012-05-03T14:07:45Z</time>
      </trkpt>
      <trkpt lat="47.02679" lon="-1.00541">
        <ele>127</ele>
        <time>2012-05-03T14:07:46Z</time>
      </trkpt>
      <trkpt lat="47.02682" lon="-1.00546">
        <ele>127</ele>
        <time>2012-05-03T14:07:47Z</time>
      </trkpt>
      <trkpt lat="47.02686" lon="-1.00551">
        <ele>127</ele>
        <time>2012-05-03T14:07:48Z</time>
      </trkpt>
      <trkpt lat="47.02689" lon="-1.00556">
        <ele>127</ele>
        <time>2012-05-03T14:07:49Z</time>
      </trkpt>
      <trkpt lat="47.02692" lon="-1.00562">
        <ele>127</ele>
        <time>2012-05-03T14:07:50Z</time>
      </trkpt>
      <trkpt lat="47.02695" lon="-1.00567">
        <ele>127</ele>
        <time>2012-05-03T14:07:51Z</time>
      </trkpt>
      <trkpt lat="47.02699" lon="-1.00574">
        <ele>127</ele>
        <time>2012-05-03T14:07:52Z</time>
      </trkpt>
      <trkpt lat="47.02702" lon="-1.00579">
        <ele>128</ele>
        <time>2012-05-03T14:07:53Z</time>
      </trkpt>
      <trkpt lat="47.02704" lon="-1.00585">
        <ele>128</ele>
        <time>2012-05-03T14:07:54Z</time>
      </trkpt>
      <trkpt lat="47.02707" lon="-1.00591">
        <ele>128</ele>
        <time>2012-05-03T14:07:55Z</time>
      </trkpt>
      <trkpt lat="47.02709" lon="-1.00597">
        <ele>128</ele>
        <time>2012-05-03T14:07:56Z</time>
      </trkpt>
      <trkpt lat="47.02711" lon="-1.00604">
        <ele>128</ele>
        <time>2012-05-03T14:07:57Z</time>
      </trkpt>
      <trkpt lat="47.02713" lon="-1.00611">
        <ele>128</ele>
        <time>2012-05-03T14:07:58Z</time>
      </trkpt>
      <trkpt lat="47.02715" lon="-1.00618">
        <ele>128</ele>
        <time>2012-05-03T14:07:59Z</time>
      </trkpt>
      <trkpt lat="47.02716" lon="-1.00625">
        <ele>128</ele>
        <time>2012-05-03T14:08:00Z</time>
      </trkpt>
      <trkpt lat="47.02718" lon="-1.00632">
        <ele>128</ele>
        <time>2012-05-03T14:08:01Z</time>
      </trkpt>
      <trkpt lat="47.02719" lon="-1.00639">
        <ele>128</ele>
        <time>2012-05-03T14:08:02Z</time>
      </trkpt>
      <trkpt lat="47.0272" lon="-1.00646">
        <ele>128</ele>
        <time>2012-05-03T14:08:03Z</time>
      </trkpt>
      <trkpt lat="47.02721" lon="-1.00654">
        <ele>128</ele>
        <time>2012-05-03T14:08:04Z</time>
      </trkpt>
      <trkpt lat="47.02722" lon="-1.00661">
        <ele>128</ele>
        <time>2012-05-03T14:08:05Z</time>
      </trkpt>
      <trkpt lat="47.02723" lon="-1.00669">
        <ele>128</ele>
        <time>2012-05-03T14:08:06Z</time>
      </trkpt>
      <trkpt lat="47.02724" lon="-1.00676">
        <ele>128</ele>
        <time>2012-05-03T14:08:07Z</time>
      </trkpt>
      <trkpt lat="47.02725" lon="-1.00683">
        <ele>128</ele>
        <time>2012-05-03T14:08:08Z</time>
      </trkpt>
      <trkpt lat="47.02726" lon="-1.00691">
        <ele>128</ele>
        <time>2012-05-03T14:08:09Z</time>
      </trkpt>
      <trkpt lat="47.02727" lon="-1.00698">
        <ele>128</ele>
        <time>2012-05-03T14:08:10Z</time>
      </trkpt>
      <trkpt lat="47.02728" lon="-1.00706">
        <ele>128</ele>
        <time>2012-05-03T14:08:11Z</time>
      </trkpt>
      <trkpt lat="47.02729" lon="-1.00714">
        <ele>128</ele>
        <time>2012-05-03T14:08:12Z</time>
      </trkpt>
      <trkpt lat="47.02731" lon="-1.00722">
        <ele>128</ele>
        <time>2012-05-03T14:08:13Z</time>
      </trkpt>
      <trkpt lat="47.02732" lon="-1.00729">
        <ele>128</ele>
        <time>2012-05-03T14:08:14Z</time>
      </trkpt>
      <trkpt lat="47.02734" lon="-1.00737">
        <ele>128</ele>
        <time>2012-05-03T14:08:15Z</time>
      </trkpt>
      <trkpt lat="47.02736" lon="-1.00744">
        <ele>129</ele>
        <time>2012-05-03T14:08:16Z</time>
      </trkpt>
      <trkpt lat="47.02738" lon="-1.00751">
        <ele>129</ele>
        <time>2012-05-03T14:08:17Z</time>
      </trkpt>
      <trkpt lat="47.0274" lon="-1.00759">
        <ele>129</ele>
        <time>2012-05-03T14:08:18Z</time>
      </trkpt>
      <trkpt lat="47.02742" lon="-1.00766">
        <ele>129</ele>
        <time>2012-05-03T14:08:19Z</time>
      </trkpt>
      <trkpt lat="47.02744" lon="-1.00773">
        <ele>129</ele>
        <time>2012-05-03T14:08:20Z</time>
      </trkpt>
      <trkpt lat="47.02746" lon="-1.0078">
        <ele>129</ele>
        <time>2012-05-03T14:08:21Z</time>
      </trkpt>
      <trkpt lat="47.02747" lon="-1.00787">
        <ele>129</ele>
        <time>2012-05-03T14:08:22Z</time>
      </trkpt>
      <trkpt lat="47.02749" lon="-1.00794">
        <ele>129</ele>
        <time>2012-05-03T14:08:23Z</time>
      </trkpt>
      <trkpt lat="47.02751" lon="-1.008">
        <ele>129</ele>
        <time>2012-05-03T14:08:24Z</time>
      </trkpt>
      <trkpt lat="47.02752" lon="-1.00806">
        <ele>129</ele>
        <time>2012-05-03T14:08:25Z</time>
      </trkpt>
      <trkpt lat="47.02753" lon="-1.00812">
        <ele>129</ele>
        <time>2012-05-03T14:08:26Z</time>
      </trkpt>
      <trkpt lat="47.02754" lon="-1.00818">
        <ele>129</ele>
        <time>2012-05-03T14:08:27Z</time>
      </trkpt>
      <trkpt lat="47.02756" lon="-1.00822">
        <ele>129</ele>
        <time>2012-05-03T14:08:28Z</time>
      </trkpt>
      <trkpt lat="47.02758" lon="-1.00824">
        <ele>129</ele>
        <time>2012-05-03T14:08:29Z</time>
      </trkpt>
      <trkpt lat="47.02761" lon="-1.00823">
        <ele>129</ele>
        <time>2012-05-03T14:08:30Z</time>
      </trkpt>
      <trkpt lat="47.02764" lon="-1.00819">
        <ele>129</ele>
        <time>2012-05-03T14:08:31Z</time>
      </trkpt>
      <trkpt lat="47.02766" lon="-1.00812">
        <ele>129</ele>
        <time>2012-05-03T14:08:32Z</time>
      </trkpt>
      <trkpt lat="47.02768" lon="-1.00806">
        <ele>129</ele>
        <time>2012-05-03T14:08:33Z</time>
      </trkpt>
      <trkpt lat="47.02768" lon="-1.008">
        <ele>129</ele>
        <time>2012-05-03T14:08:34Z</time>
      </trkpt>
      <trkpt lat="47.02769" lon="-1.00792">
        <ele>129</ele>
        <time>2012-05-03T14:08:35Z</time>
      </trkpt>
      <trkpt lat="47.0277" lon="-1.00784">
        <ele>129</ele>
        <time>2012-05-03T14:08:36Z</time>
      </trkpt>
      <trkpt lat="47.02771" lon="-1.00776">
        <ele>129</ele>
        <time>2012-05-03T14:08:37Z</time>
      </trkpt>
      <trkpt lat="47.02771" lon="-1.00768">
        <ele>129</ele>
        <time>2012-05-03T14:08:38Z</time>
      </trkpt>
      <trkpt lat="47.02773" lon="-1.00761">
        <ele>129</ele>
        <time>2012-05-03T14:08:39Z</time>
      </trkpt>
      <trkpt lat="47.02774" lon="-1.00753">
        <ele>129</ele>
        <time>2012-05-03T14:08:40Z</time>
      </trkpt>
      <trkpt lat="47.02776" lon="-1.00746">
        <ele>129</ele>
        <time>2012-05-03T14:08:41Z</time>
      </trkpt>
      <trkpt lat="47.02777" lon="-1.00739">
        <ele>129</ele>
        <time>2012-05-03T14:08:42Z</time>
      </trkpt>
      <trkpt lat="47.02779" lon="-1.00731">
        <ele>129</ele>
        <time>2012-05-03T14:08:43Z</time>
      </trkpt>
      <trkpt lat="47.02782" lon="-1.00724">
        <ele>129</ele>
        <time>2012-05-03T14:08:44Z</time>
      </trkpt>
      <trkpt lat="47.02784" lon="-1.00716">
        <ele>129</ele>
        <time>2012-05-03T14:08:45Z</time>
      </trkpt>
      <trkpt lat="47.02785" lon="-1.00709">
        <ele>129</ele>
        <time>2012-05-03T14:08:46Z</time>
      </trkpt>
      <trkpt lat="47.02788" lon="-1.00702">
        <ele>129</ele>
        <time>2012-05-03T14:08:47Z</time>
      </trkpt>
      <trkpt lat="47.0279" lon="-1.00695">
        <ele>129</ele>
        <time>2012-05-03T14:08:48Z</time>
      </trkpt>
      <trkpt lat="47.02792" lon="-1.00688">
        <ele>129</ele>
        <time>2012-05-03T14:08:49Z</time>
      </trkpt>
      <trkpt lat="47.02794" lon="-1.0068">
        <ele>129</ele>
        <time>2012-05-03T14:08:50Z</time>
      </trkpt>
      <trkpt lat="47.02796" lon="-1.00673">
        <ele>129</ele>
        <time>2012-05-03T14:08:51Z</time>
      </trkpt>
      <trkpt lat="47.02798" lon="-1.00665">
        <ele>129</ele>
        <time>2012-05-03T14:08:52Z</time>
      </trkpt>
      <trkpt lat="47.028" lon="-1.00657">
        <ele>129</ele>
        <time>2012-05-03T14:08:53Z</time>
      </trkpt>
      <trkpt lat="47.02802" lon="-1.00649">
        <ele>129</ele>
        <time>2012-05-03T14:08:54Z</time>
      </trkpt>
      <trkpt lat="47.02804" lon="-1.00641">
        <ele>129</ele>
        <time>2012-05-03T14:08:55Z</time>
      </trkpt>
      <trkpt lat="47.02806" lon="-1.00633">
        <ele>129</ele>
        <time>2012-05-03T14:08:56Z</time>
      </trkpt>
      <trkpt lat="47.02809" lon="-1.00626">
        <ele>129</ele>
        <time>2012-05-03T14:08:57Z</time>
      </trkpt>
      <trkpt lat="47.02812" lon="-1.00619">
        <ele>129</ele>
        <time>2012-05-03T14:08:58Z</time>
      </trkpt>
      <trkpt lat="47.02816" lon="-1.00612">
        <ele>129</ele>
        <time>2012-05-03T14:08:59Z</time>
      </trkpt>
      <trkpt lat="47.0282" lon="-1.00606">
        <ele>129</ele>
        <time>2012-05-03T14:09:00Z</time>
      </trkpt>
      <trkpt lat="47.02824" lon="-1.00599">
        <ele>129</ele>
        <time>2012-05-03T14:09:01Z</time>
      </trkpt>
      <trkpt lat="47.02828" lon="-1.00592">
        <ele>129</ele>
        <time>2012-05-03T14:09:02Z</time>
      </trkpt>
      <trkpt lat="47.02832" lon="-1.00585">
        <ele>129</ele>
        <time>2012-05-03T14:09:03Z</time>
      </trkpt>
      <trkpt lat="47.02836" lon="-1.00578">
        <ele>129</ele>
        <time>2012-05-03T14:09:04Z</time>
      </trkpt>
      <trkpt lat="47.02839" lon="-1.00572">
        <ele>129</ele>
        <time>2012-05-03T14:09:05Z</time>
      </trkpt>
      <trkpt lat="47.02843" lon="-1.00566">
        <ele>129</ele>
        <time>2012-05-03T14:09:06Z</time>
      </trkpt>
      <trkpt lat="47.02847" lon="-1.00559">
        <ele>129</ele>
        <time>2012-05-03T14:09:07Z</time>
      </trkpt>
      <trkpt lat="47.0285" lon="-1.00552">
        <ele>129</ele>
        <time>2012-05-03T14:09:08Z</time>
      </trkpt>
      <trkpt lat="47.02853" lon="-1.00545">
        <ele>129</ele>
        <time>2012-05-03T14:09:09Z</time>
      </trkpt>
      <trkpt lat="47.02856" lon="-1.00538">
        <ele>129</ele>
        <time>2012-05-03T14:09:10Z</time>
      </trkpt>
      <trkpt lat="47.02859" lon="-1.0053">
        <ele>129</ele>
        <time>2012-05-03T14:09:11Z</time>
      </trkpt>
      <trkpt lat="47.02862" lon="-1.00522">
        <ele>129</ele>
        <time>2012-05-03T14:09:12Z</time>
      </trkpt>
      <trkpt lat="47.02865" lon="-1.00514">
        <ele>129</ele>
        <time>2012-05-03T14:09:13Z</time>
      </trkpt>
      <trkpt lat="47.02869" lon="-1.00506">
        <ele>129</ele>
        <time>2012-05-03T14:09:14Z</time>
      </trkpt>
      <trkpt lat="47.02872" lon="-1.00499">
        <ele>129</ele>
        <time>2012-05-03T14:09:15Z</time>
      </trkpt>
      <trkpt lat="47.02875" lon="-1.00492">
        <ele>129</ele>
        <time>2012-05-03T14:09:16Z</time>
      </trkpt>
      <trkpt lat="47.02878" lon="-1.00485">
        <ele>129</ele>
        <time>2012-05-03T14:09:17Z</time>
      </trkpt>
      <trkpt lat="47.02881" lon="-1.00477">
        <ele>129</ele>
        <time>2012-05-03T14:09:18Z</time>
      </trkpt>
      <trkpt lat="47.02884" lon="-1.0047">
        <ele>129</ele>
        <time>2012-05-03T14:09:19Z</time>
      </trkpt>
      <trkpt lat="47.02887" lon="-1.00462">
        <ele>129</ele>
        <time>2012-05-03T14:09:20Z</time>
      </trkpt>
      <trkpt lat="47.0289" lon="-1.00454">
        <ele>129</ele>
        <time>2012-05-03T14:09:21Z</time>
      </trkpt>
      <trkpt lat="47.02893" lon="-1.00447">
        <ele>129</ele>
        <time>2012-05-03T14:09:22Z</time>
      </trkpt>
      <trkpt lat="47.02896" lon="-1.00439">
        <ele>129</ele>
        <time>2012-05-03T14:09:23Z</time>
      </trkpt>
      <trkpt lat="47.02899" lon="-1.00431">
        <ele>129</ele>
        <time>2012-05-03T14:09:24Z</time>
      </trkpt>
      <trkpt lat="47.02902" lon="-1.00423">
        <ele>129</ele>
        <time>2012-05-03T14:09:25Z</time>
      </trkpt>
      <trkpt lat="47.02906" lon="-1.00415">
        <ele>129</ele>
        <time>2012-05-03T14:09:26Z</time>
      </trkpt>
      <trkpt lat="47.02908" lon="-1.00408">
        <ele>129</ele>
        <time>2012-05-03T14:09:27Z</time>
      </trkpt>
      <trkpt lat="47.02911" lon="-1.004">
        <ele>129</ele>
        <time>2012-05-03T14:09:28Z</time>
      </trkpt>
      <trkpt lat="47.02913" lon="-1.00393">
        <ele>129</ele>
        <time>2012-05-03T14:09:29Z</time>
      </trkpt>
      <trkpt lat="47.02915" lon="-1.00386">
        <ele>129</ele>
        <time>2012-05-03T14:09:30Z</time>
      </trkpt>
      <trkpt lat="47.02917" lon="-1.00379">
        <ele>128</ele>
        <time>2012-05-03T14:09:31Z</time>
      </trkpt>
      <trkpt lat="47.02919" lon="-1.00372">
        <ele>128</ele>
        <time>2012-05-03T14:09:32Z</time>
      </trkpt>
      <trkpt lat="47.02921" lon="-1.00365">
        <ele>128</ele>
        <time>2012-05-03T14:09:33Z</time>
      </trkpt>
      <trkpt lat="47.02923" lon="-1.00358">
        <ele>128</ele>
        <time>2012-05-03T14:09:34Z</time>
      </trkpt>
      <trkpt lat="47.02925" lon="-1.00352">
        <ele>127</ele>
        <time>2012-05-03T14:09:35Z</time>
      </trkpt>
      <trkpt lat="47.02928" lon="-1.00345">
        <ele>127</ele>
        <time>2012-05-03T14:09:36Z</time>
      </trkpt>
      <trkpt lat="47.0293" lon="-1.00337">
        <ele>127</ele>
        <time>2012-05-03T14:09:37Z</time>
      </trkpt>
      <trkpt lat="47.02932" lon="-1.0033">
        <ele>126</ele>
        <time>2012-05-03T14:09:38Z</time>
      </trkpt>
      <trkpt lat="47.02934" lon="-1.00322">
        <ele>126</ele>
        <time>2012-05-03T14:09:39Z</time>
      </trkpt>
      <trkpt lat="47.02934" lon="-1.00315">
        <ele>126</ele>
        <time>2012-05-03T14:09:40Z</time>
      </trkpt>
      <trkpt lat="47.02935" lon="-1.00309">
        <ele>126</ele>
        <time>2012-05-03T14:09:41Z</time>
      </trkpt>
      <trkpt lat="47.02936" lon="-1.00301">
        <ele>126</ele>
        <time>2012-05-03T14:09:42Z</time>
      </trkpt>
      <trkpt lat="47.02936" lon="-1.00294">
        <ele>126</ele>
        <time>2012-05-03T14:09:43Z</time>
      </trkpt>
      <trkpt lat="47.02937" lon="-1.00288">
        <ele>126</ele>
        <time>2012-05-03T14:09:44Z</time>
      </trkpt>
      <trkpt lat="47.02938" lon="-1.00281">
        <ele>126</ele>
        <time>2012-05-03T14:09:45Z</time>
      </trkpt>
      <trkpt lat="47.02939" lon="-1.00275">
        <ele>126</ele>
        <time>2012-05-03T14:09:46Z</time>
      </trkpt>
      <trkpt lat="47.02941" lon="-1.00267">
        <ele>126</ele>
        <time>2012-05-03T14:09:47Z</time>
      </trkpt>
      <trkpt lat="47.02943" lon="-1.00259">
        <ele>126</ele>
        <time>2012-05-03T14:09:48Z</time>
      </trkpt>
      <trkpt lat="47.02945" lon="-1.0025">
        <ele>126</ele>
        <time>2012-05-03T14:09:49Z</time>
      </trkpt>
      <trkpt lat="47.02947" lon="-1.00242">
        <ele>125</ele>
        <time>2012-05-03T14:09:50Z</time>
      </trkpt>
      <trkpt lat="47.02949" lon="-1.00234">
        <ele>125</ele>
        <time>2012-05-03T14:09:51Z</time>
      </trkpt>
      <trkpt lat="47.02951" lon="-1.00226">
        <ele>125</ele>
        <time>2012-05-03T14:09:52Z</time>
      </trkpt>
      <trkpt lat="47.02952" lon="-1.00219">
        <ele>125</ele>
        <time>2012-05-03T14:09:53Z</time>
      </trkpt>
      <trkpt lat="47.02953" lon="-1.00213">
        <ele>125</ele>
        <time>2012-05-03T14:09:54Z</time>
      </trkpt>
      <trkpt lat="47.02954" lon="-1.00207">
        <ele>125</ele>
        <time>2012-05-03T14:09:55Z</time>
      </trkpt>
      <trkpt lat="47.02954" lon="-1.002">
        <ele>124</ele>
        <time>2012-05-03T14:09:56Z</time>
      </trkpt>
      <trkpt lat="47.02955" lon="-1.00193">
        <ele>124</ele>
        <time>2012-05-03T14:09:57Z</time>
      </trkpt>
      <trkpt lat="47.02956" lon="-1.00186">
        <ele>124</ele>
        <time>2012-05-03T14:09:58Z</time>
      </trkpt>
      <trkpt lat="47.02956" lon="-1.00179">
        <ele>123</ele>
        <time>2012-05-03T14:09:59Z</time>
      </trkpt>
      <trkpt lat="47.02956" lon="-1.00171">
        <ele>123</ele>
        <time>2012-05-03T14:10:00Z</time>
      </trkpt>
      <trkpt lat="47.02956" lon="-1.00164">
        <ele>123</ele>
        <time>2012-05-03T14:10:01Z</time>
      </trkpt>
      <trkpt lat="47.02957" lon="-1.00156">
        <ele>123</ele>
        <time>2012-05-03T14:10:02Z</time>
      </trkpt>
      <trkpt lat="47.02959" lon="-1.00147">
        <ele>123</ele>
        <time>2012-05-03T14:10:03Z</time>
      </trkpt>
      <trkpt lat="47.0296" lon="-1.00139">
        <ele>123</ele>
        <time>2012-05-03T14:10:04Z</time>
      </trkpt>
      <trkpt lat="47.02961" lon="-1.00131">
        <ele>123</ele>
        <time>2012-05-03T14:10:05Z</time>
      </trkpt>
      <trkpt lat="47.02961" lon="-1.00123">
        <ele>123</ele>
        <time>2012-05-03T14:10:06Z</time>
      </trkpt>
      <trkpt lat="47.02962" lon="-1.00116">
        <ele>123</ele>
        <time>2012-05-03T14:10:07Z</time>
      </trkpt>
      <trkpt lat="47.02963" lon="-1.00108">
        <ele>123</ele>
        <time>2012-05-03T14:10:08Z</time>
      </trkpt>
      <trkpt lat="47.02964" lon="-1.00101">
        <ele>123</ele>
        <time>2012-05-03T14:10:09Z</time>
      </trkpt>
      <trkpt lat="47.02964" lon="-1.00095">
        <ele>123</ele>
        <time>2012-05-03T14:10:10Z</time>
      </trkpt>
      <trkpt lat="47.02965" lon="-1.00089">
        <ele>123</ele>
        <time>2012-05-03T14:10:11Z</time>
      </trkpt>
      <trkpt lat="47.02966" lon="-1.00083">
        <ele>123</ele>
        <time>2012-05-03T14:10:12Z</time>
      </trkpt>
      <trkpt lat="47.02966" lon="-1.00078">
        <ele>123</ele>
        <time>2012-05-03T14:10:13Z</time>
      </trkpt>
      <trkpt lat="47.02967" lon="-1.00071">
        <ele>123</ele>
        <time>2012-05-03T14:10:14Z</time>
      </trkpt>
      <trkpt lat="47.02967" lon="-1.00066">
        <ele>123</ele>
        <time>2012-05-03T14:10:15Z</time>
      </trkpt>
      <trkpt lat="47.02968" lon="-1.00059">
        <ele>123</ele>
        <time>2012-05-03T14:10:16Z</time>
      </trkpt>
      <trkpt lat="47.02969" lon="-1.00053">
        <ele>123</ele>
        <time>2012-05-03T14:10:17Z</time>
      </trkpt>
      <trkpt lat="47.0297" lon="-1.00047">
        <ele>123</ele>
        <time>2012-05-03T14:10:18Z</time>
      </trkpt>
      <trkpt lat="47.02971" lon="-1.0004">
        <ele>123</ele>
        <time>2012-05-03T14:10:19Z</time>
      </trkpt>
      <trkpt lat="47.02972" lon="-1.00032">
        <ele>123</ele>
        <time>2012-05-03T14:10:20Z</time>
      </trkpt>
      <trkpt lat="47.02973" lon="-1.00025">
        <ele>123</ele>
        <time>2012-05-03T14:10:21Z</time>
      </trkpt>
      <trkpt lat="47.02974" lon="-1.00018">
        <ele>123</ele>
        <time>2012-05-03T14:10:22Z</time>
      </trkpt>
      <trkpt lat="47.02975" lon="-1.00011">
        <ele>123</ele>
        <time>2012-05-03T14:10:23Z</time>
      </trkpt>
      <trkpt lat="47.02976" lon="-1.00003">
        <ele>123</ele>
        <time>2012-05-03T14:10:24Z</time>
      </trkpt>
      <trkpt lat="47.02977" lon="-0.99997">
        <ele>123</ele>
        <time>2012-05-03T14:10:25Z</time>
      </trkpt>
      <trkpt lat="47.02976" lon="-0.99992">
        <ele>123</ele>
        <time>2012-05-03T14:10:26Z</time>
      </trkpt>
      <trkpt lat="47.02976" lon="-0.99988">
        <ele>123</ele>
        <time>2012-05-03T14:10:27Z</time>
      </trkpt>
      <trkpt lat="47.02975" lon="-0.99984">
        <ele>123</ele>
        <time>2012-05-03T14:10:28Z</time>
      </trkpt>
      <trkpt lat="47.02975" lon="-0.99981">
        <ele>123</ele>
        <time>2012-05-03T14:10:29Z</time>
      </trkpt>
      <trkpt lat="47.02974" lon="-0.99978">
        <ele>123</ele>
        <time>2012-05-03T14:10:30Z</time>
      </trkpt>
      <trkpt lat="47.02974" lon="-0.99975">
        <ele>123</ele>
        <time>2012-05-03T14:10:31Z</time>
      </trkpt>
      <trkpt lat="47.02973" lon="-0.99972">
        <ele>123</ele>
        <time>2012-05-03T14:10:32Z</time>
      </trkpt>
      <trkpt lat="47.02973" lon="-0.99968">
        <ele>123</ele>
        <time>2012-05-03T14:10:33Z</time>
      </trkpt>
      <trkpt lat="47.02972" lon="-0.99965">
        <ele>123</ele>
        <time>2012-05-03T14:10:34Z</time>
      </trkpt>
      <trkpt lat="47.02972" lon="-0.9996">
        <ele>123</ele>
        <time>2012-05-03T14:10:35Z</time>
      </trkpt>
      <trkpt lat="47.02972" lon="-0.99956">
        <ele>123</ele>
        <time>2012-05-03T14:10:36Z</time>
      </trkpt>
      <trkpt lat="47.02972" lon="-0.99952">
        <ele>123</ele>
        <time>2012-05-03T14:10:37Z</time>
      </trkpt>
      <trkpt lat="47.02972" lon="-0.99948">
        <ele>123</ele>
        <time>2012-05-03T14:10:38Z</time>
      </trkpt>
      <trkpt lat="47.02972" lon="-0.99942">
        <ele>123</ele>
        <time>2012-05-03T14:10:39Z</time>
      </trkpt>
      <trkpt lat="47.02972" lon="-0.99937">
        <ele>123</ele>
        <time>2012-05-03T14:10:40Z</time>
      </trkpt>
      <trkpt lat="47.02973" lon="-0.99932">
        <ele>123</ele>
        <time>2012-05-03T14:10:41Z</time>
      </trkpt>
      <trkpt lat="47.02974" lon="-0.99927">
        <ele>123</ele>
        <time>2012-05-03T14:10:42Z</time>
      </trkpt>
      <trkpt lat="47.02975" lon="-0.99921">
        <ele>123</ele>
        <time>2012-05-03T14:10:43Z</time>
      </trkpt>
      <trkpt lat="47.02977" lon="-0.99915">
        <ele>123</ele>
        <time>2012-05-03T14:10:44Z</time>
      </trkpt>
      <trkpt lat="47.02978" lon="-0.9991">
        <ele>123</ele>
        <time>2012-05-03T14:10:45Z</time>
      </trkpt>
      <trkpt lat="47.02979" lon="-0.99905">
        <ele>123</ele>
        <time>2012-05-03T14:10:46Z</time>
      </trkpt>
      <trkpt lat="47.0298" lon="-0.99899">
        <ele>123</ele>
        <time>2012-05-03T14:10:47Z</time>
      </trkpt>
      <trkpt lat="47.02981" lon="-0.99893">
        <ele>123</ele>
        <time>2012-05-03T14:10:48Z</time>
      </trkpt>
      <trkpt lat="47.02981" lon="-0.99888">
        <ele>123</ele>
        <time>2012-05-03T14:10:49Z</time>
      </trkpt>
      <trkpt lat="47.02981" lon="-0.99882">
        <ele>123</ele>
        <time>2012-05-03T14:10:50Z</time>
      </trkpt>
      <trkpt lat="47.02982" lon="-0.99875">
        <ele>122</ele>
        <time>2012-05-03T14:10:51Z</time>
      </trkpt>
      <trkpt lat="47.02983" lon="-0.99868">
        <ele>122</ele>
        <time>2012-05-03T14:10:52Z</time>
      </trkpt>
      <trkpt lat="47.02983" lon="-0.99861">
        <ele>122</ele>
        <time>2012-05-03T14:10:53Z</time>
      </trkpt>
      <trkpt lat="47.02984" lon="-0.99854">
        <ele>121</ele>
        <time>2012-05-03T14:10:54Z</time>
      </trkpt>
      <trkpt lat="47.02985" lon="-0.99846">
        <ele>121</ele>
        <time>2012-05-03T14:10:55Z</time>
      </trkpt>
      <trkpt lat="47.02985" lon="-0.99839">
        <ele>120</ele>
        <time>2012-05-03T14:10:56Z</time>
      </trkpt>
      <trkpt lat="47.02987" lon="-0.99831">
        <ele>120</ele>
        <time>2012-05-03T14:10:57Z</time>
      </trkpt>
      <trkpt lat="47.02988" lon="-0.99825">
        <ele>120</ele>
        <time>2012-05-03T14:10:58Z</time>
      </trkpt>
      <trkpt lat="47.02991" lon="-0.99818">
        <ele>120</ele>
        <time>2012-05-03T14:10:59Z</time>
      </trkpt>
      <trkpt lat="47.02993" lon="-0.99812">
        <ele>120</ele>
        <time>2012-05-03T14:11:00Z</time>
      </trkpt>
      <trkpt lat="47.02996" lon="-0.99807">
        <ele>120</ele>
        <time>2012-05-03T14:11:01Z</time>
      </trkpt>
      <trkpt lat="47.02998" lon="-0.99802">
        <ele>120</ele>
        <time>2012-05-03T14:11:02Z</time>
      </trkpt>
      <trkpt lat="47.03001" lon="-0.99797">
        <ele>120</ele>
        <time>2012-05-03T14:11:03Z</time>
      </trkpt>
      <trkpt lat="47.03003" lon="-0.99792">
        <ele>120</ele>
        <time>2012-05-03T14:11:04Z</time>
      </trkpt>
      <trkpt lat="47.03005" lon="-0.99786">
        <ele>120</ele>
        <time>2012-05-03T14:11:05Z</time>
      </trkpt>
      <trkpt lat="47.03006" lon="-0.9978">
        <ele>120</ele>
        <time>2012-05-03T14:11:06Z</time>
      </trkpt>
      <trkpt lat="47.03008" lon="-0.99774">
        <ele>120</ele>
        <time>2012-05-03T14:11:07Z</time>
      </trkpt>
      <trkpt lat="47.0301" lon="-0.99767">
        <ele>120</ele>
        <time>2012-05-03T14:11:08Z</time>
      </trkpt>
      <trkpt lat="47.03011" lon="-0.99761">
        <ele>120</ele>
        <time>2012-05-03T14:11:09Z</time>
      </trkpt>
      <trkpt lat="47.03012" lon="-0.99755">
        <ele>120</ele>
        <time>2012-05-03T14:11:10Z</time>
      </trkpt>
      <trkpt lat="47.03014" lon="-0.99748">
        <ele>120</ele>
        <time>2012-05-03T14:11:11Z</time>
      </trkpt>
      <trkpt lat="47.03016" lon="-0.99742">
        <ele>120</ele>
        <time>2012-05-03T14:11:12Z</time>
      </trkpt>
      <trkpt lat="47.03017" lon="-0.99736">
        <ele>120</ele>
        <time>2012-05-03T14:11:13Z</time>
      </trkpt>
      <trkpt lat="47.03018" lon="-0.99729">
        <ele>119</ele>
        <time>2012-05-03T14:11:14Z</time>
      </trkpt>
      <trkpt lat="47.03019" lon="-0.99722">
        <ele>119</ele>
        <time>2012-05-03T14:11:15Z</time>
      </trkpt>
      <trkpt lat="47.03021" lon="-0.99715">
        <ele>119</ele>
        <time>2012-05-03T14:11:16Z</time>
      </trkpt>
      <trkpt lat="47.03022" lon="-0.99709">
        <ele>118</ele>
        <time>2012-05-03T14:11:17Z</time>
      </trkpt>
      <trkpt lat="47.03024" lon="-0.99702">
        <ele>118</ele>
        <time>2012-05-03T14:11:18Z</time>
      </trkpt>
      <trkpt lat="47.03025" lon="-0.99695">
        <ele>118</ele>
        <time>2012-05-03T14:11:19Z</time>
      </trkpt>
      <trkpt lat="47.03027" lon="-0.99688">
        <ele>118</ele>
        <time>2012-05-03T14:11:20Z</time>
      </trkpt>
      <trkpt lat="47.03028" lon="-0.99681">
        <ele>118</ele>
        <time>2012-05-03T14:11:21Z</time>
      </trkpt>
      <trkpt lat="47.0303" lon="-0.99674">
        <ele>118</ele>
        <time>2012-05-03T14:11:22Z</time>
      </trkpt>
      <trkpt lat="47.03031" lon="-0.99667">
        <ele>118</ele>
        <time>2012-05-03T14:11:23Z</time>
      </trkpt>
      <trkpt lat="47.03033" lon="-0.99659">
        <ele>118</ele>
        <time>2012-05-03T14:11:24Z</time>
      </trkpt>
      <trkpt lat="47.03034" lon="-0.99651">
        <ele>117</ele>
        <time>2012-05-03T14:11:25Z</time>
      </trkpt>
      <trkpt lat="47.03036" lon="-0.99643">
        <ele>117</ele>
        <time>2012-05-03T14:11:26Z</time>
      </trkpt>
      <trkpt lat="47.03037" lon="-0.99635">
        <ele>117</ele>
        <time>2012-05-03T14:11:27Z</time>
      </trkpt>
      <trkpt lat="47.03038" lon="-0.99629">
        <ele>117</ele>
        <time>2012-05-03T14:11:28Z</time>
      </trkpt>
      <trkpt lat="47.03039" lon="-0.99622">
        <ele>117</ele>
        <time>2012-05-03T14:11:29Z</time>
      </trkpt>
      <trkpt lat="47.0304" lon="-0.99618">
        <ele>117</ele>
        <time>2012-05-03T14:11:30Z</time>
      </trkpt>
      <trkpt lat="47.03041" lon="-0.99614">
        <ele>117</ele>
        <time>2012-05-03T14:11:31Z</time>
      </trkpt>
      <trkpt lat="47.03044" lon="-0.99612">
        <ele>117</ele>
        <time>2012-05-03T14:11:32Z</time>
      </trkpt>
      <trkpt lat="47.03047" lon="-0.99612">
        <ele>117</ele>
        <time>2012-05-03T14:11:33Z</time>
      </trkpt>
      <trkpt lat="47.03051" lon="-0.99613">
        <ele>117</ele>
        <time>2012-05-03T14:11:34Z</time>
      </trkpt>
      <trkpt lat="47.03054" lon="-0.99616">
        <ele>117</ele>
        <time>2012-05-03T14:11:35Z</time>
      </trkpt>
      <trkpt lat="47.03057" lon="-0.99619">
        <ele>117</ele>
        <time>2012-05-03T14:11:36Z</time>
      </trkpt>
      <trkpt lat="47.03062" lon="-0.99622">
        <ele>117</ele>
        <time>2012-05-03T14:11:37Z</time>
      </trkpt>
      <trkpt lat="47.03066" lon="-0.99625">
        <ele>117</ele>
        <time>2012-05-03T14:11:38Z</time>
      </trkpt>
      <trkpt lat="47.03071" lon="-0.99629">
        <ele>117</ele>
        <time>2012-05-03T14:11:39Z</time>
      </trkpt>
      <trkpt lat="47.03075" lon="-0.99633">
        <ele>117</ele>
        <time>2012-05-03T14:11:40Z</time>
      </trkpt>
      <trkpt lat="47.0308" lon="-0.99636">
        <ele>117</ele>
        <time>2012-05-03T14:11:41Z</time>
      </trkpt>
      <trkpt lat="47.03084" lon="-0.9964">
        <ele>117</ele>
        <time>2012-05-03T14:11:42Z</time>
      </trkpt>
      <trkpt lat="47.03088" lon="-0.99643">
        <ele>117</ele>
        <time>2012-05-03T14:11:43Z</time>
      </trkpt>
      <trkpt lat="47.03093" lon="-0.99647">
        <ele>117</ele>
        <time>2012-05-03T14:11:44Z</time>
      </trkpt>
      <trkpt lat="47.03098" lon="-0.99651">
        <ele>117</ele>
        <time>2012-05-03T14:11:45Z</time>
      </trkpt>
      <trkpt lat="47.03102" lon="-0.99654">
        <ele>117</ele>
        <time>2012-05-03T14:11:46Z</time>
      </trkpt>
      <trkpt lat="47.03106" lon="-0.99658">
        <ele>117</ele>
        <time>2012-05-03T14:11:47Z</time>
      </trkpt>
      <trkpt lat="47.0311" lon="-0.99661">
        <ele>117</ele>
        <time>2012-05-03T14:11:48Z</time>
      </trkpt>
      <trkpt lat="47.03115" lon="-0.99665">
        <ele>117</ele>
        <time>2012-05-03T14:11:49Z</time>
      </trkpt>
      <trkpt lat="47.03119" lon="-0.99669">
        <ele>117</ele>
        <time>2012-05-03T14:11:50Z</time>
      </trkpt>
      <trkpt lat="47.03124" lon="-0.99673">
        <ele>117</ele>
        <time>2012-05-03T14:11:51Z</time>
      </trkpt>
      <trkpt lat="47.03129" lon="-0.99677">
        <ele>117</ele>
        <time>2012-05-03T14:11:52Z</time>
      </trkpt>
      <trkpt lat="47.03134" lon="-0.99681">
        <ele>117</ele>
        <time>2012-05-03T14:11:53Z</time>
      </trkpt>
      <trkpt lat="47.03139" lon="-0.99685">
        <ele>117</ele>
        <time>2012-05-03T14:11:54Z</time>
      </trkpt>
      <trkpt lat="47.03144" lon="-0.99689">
        <ele>117</ele>
        <time>2012-05-03T14:11:55Z</time>
      </trkpt>
      <trkpt lat="47.03149" lon="-0.99693">
        <ele>117</ele>
        <time>2012-05-03T14:11:56Z</time>
      </trkpt>
      <trkpt lat="47.03154" lon="-0.99698">
        <ele>117</ele>
        <time>2012-05-03T14:11:57Z</time>
      </trkpt>
      <trkpt lat="47.0316" lon="-0.99702">
        <ele>117</ele>
        <time>2012-05-03T14:11:58Z</time>
      </trkpt>
      <trkpt lat="47.03165" lon="-0.99707">
        <ele>117</ele>
        <time>2012-05-03T14:11:59Z</time>
      </trkpt>
      <trkpt lat="47.0317" lon="-0.99712">
        <ele>117</ele>
        <time>2012-05-03T14:12:00Z</time>
      </trkpt>
      <trkpt lat="47.03175" lon="-0.99717">
        <ele>117</ele>
        <time>2012-05-03T14:12:01Z</time>
      </trkpt>
      <trkpt lat="47.0318" lon="-0.99723">
        <ele>117</ele>
        <time>2012-05-03T14:12:02Z</time>
      </trkpt>
      <trkpt lat="47.03186" lon="-0.99728">
        <ele>117</ele>
        <time>2012-05-03T14:12:03Z</time>
      </trkpt>
      <trkpt lat="47.03191" lon="-0.99734">
        <ele>117</ele>
        <time>2012-05-03T14:12:04Z</time>
      </trkpt>
      <trkpt lat="47.03197" lon="-0.9974">
        <ele>117</ele>
        <time>2012-05-03T14:12:05Z</time>
      </trkpt>
      <trkpt lat="47.03202" lon="-0.99746">
        <ele>117</ele>
        <time>2012-05-03T14:12:06Z</time>
      </trkpt>
      <trkpt lat="47.03208" lon="-0.99752">
        <ele>117</ele>
        <time>2012-05-03T14:12:07Z</time>
      </trkpt>
      <trkpt lat="47.03214" lon="-0.99759">
        <ele>117</ele>
        <time>2012-05-03T14:12:08Z</time>
      </trkpt>
      <trkpt lat="47.03219" lon="-0.99765">
        <ele>117</ele>
        <time>2012-05-03T14:12:09Z</time>
      </trkpt>
      <trkpt lat="47.03225" lon="-0.99772">
        <ele>117</ele>
        <time>2012-05-03T14:12:10Z</time>
      </trkpt>
      <trkpt lat="47.0323" lon="-0.99778">
        <ele>117</ele>
        <time>2012-05-03T14:12:11Z</time>
      </trkpt>
      <trkpt lat="47.03235" lon="-0.99785">
        <ele>117</ele>
        <time>2012-05-03T14:12:12Z</time>
      </trkpt>
      <trkpt lat="47.03241" lon="-0.99791">
        <ele>117</ele>
        <time>2012-05-03T14:12:13Z</time>
      </trkpt>
      <trkpt lat="47.03247" lon="-0.99797">
        <ele>117</ele>
        <time>2012-05-03T14:12:14Z</time>
      </trkpt>
      <trkpt lat="47.03253" lon="-0.99803">
        <ele>117</ele>
        <time>2012-05-03T14:12:15Z</time>
      </trkpt>
      <trkpt lat="47.03259" lon="-0.99808">
        <ele>117</ele>
        <time>2012-05-03T14:12:16Z</time>
      </trkpt>
      <trkpt lat="47.03265" lon="-0.99812">
        <ele>117</ele>
        <time>2012-05-03T14:12:17Z</time>
      </trkpt>
      <trkpt lat="47.03271" lon="-0.99816">
        <ele>117</ele>
        <time>2012-05-03T14:12:18Z</time>
      </trkpt>
      <trkpt lat="47.03277" lon="-0.9982">
        <ele>117</ele>
        <time>2012-05-03T14:12:19Z</time>
      </trkpt>
      <trkpt lat="47.03283" lon="-0.99823">
        <ele>117</ele>
        <time>2012-05-03T14:12:20Z</time>
      </trkpt>
      <trkpt lat="47.03288" lon="-0.99827">
        <ele>117</ele>
        <time>2012-05-03T14:12:21Z</time>
      </trkpt>
      <trkpt lat="47.03294" lon="-0.9983">
        <ele>117</ele>
        <time>2012-05-03T14:12:22Z</time>
      </trkpt>
      <trkpt lat="47.03299" lon="-0.99833">
        <ele>117</ele>
        <time>2012-05-03T14:12:23Z</time>
      </trkpt>
      <trkpt lat="47.03305" lon="-0.99836">
        <ele>117</ele>
        <time>2012-05-03T14:12:24Z</time>
      </trkpt>
      <trkpt lat="47.0331" lon="-0.9984">
        <ele>117</ele>
        <time>2012-05-03T14:12:25Z</time>
      </trkpt>
      <trkpt lat="47.03315" lon="-0.99843">
        <ele>117</ele>
        <time>2012-05-03T14:12:26Z</time>
      </trkpt>
      <trkpt lat="47.03321" lon="-0.99846">
        <ele>117</ele>
        <time>2012-05-03T14:12:27Z</time>
      </trkpt>
      <trkpt lat="47.03326" lon="-0.99849">
        <ele>117</ele>
        <time>2012-05-03T14:12:28Z</time>
      </trkpt>
      <trkpt lat="47.03331" lon="-0.99852">
        <ele>117</ele>
        <time>2012-05-03T14:12:29Z</time>
      </trkpt>
      <trkpt lat="47.03337" lon="-0.99855">
        <ele>117</ele>
        <time>2012-05-03T14:12:30Z</time>
      </trkpt>
      <trkpt lat="47.03342" lon="-0.99858">
        <ele>117</ele>
        <time>2012-05-03T14:12:31Z</time>
      </trkpt>
      <trkpt lat="47.03348" lon="-0.99861">
        <ele>117</ele>
        <time>2012-05-03T14:12:32Z</time>
      </trkpt>
      <trkpt lat="47.03353" lon="-0.99864">
        <ele>117</ele>
        <time>2012-05-03T14:12:33Z</time>
      </trkpt>
      <trkpt lat="47.03359" lon="-0.99867">
        <ele>117</ele>
        <time>2012-05-03T14:12:34Z</time>
      </trkpt>
      <trkpt lat="47.03365" lon="-0.9987">
        <ele>117</ele>
        <time>2012-05-03T14:12:35Z</time>
      </trkpt>
      <trkpt lat="47.0337" lon="-0.99873">
        <ele>117</ele>
        <time>2012-05-03T14:12:36Z</time>
      </trkpt>
      <trkpt lat="47.03376" lon="-0.99876">
        <ele>117</ele>
        <time>2012-05-03T14:12:37Z</time>
      </trkpt>
      <trkpt lat="47.03382" lon="-0.99878">
        <ele>117</ele>
        <time>2012-05-03T14:12:38Z</time>
      </trkpt>
      <trkpt lat="47.03388" lon="-0.99881">
        <ele>117</ele>
        <time>2012-05-03T14:12:39Z</time>
      </trkpt>
      <trkpt lat="47.03394" lon="-0.99883">
        <ele>117</ele>
        <time>2012-05-03T14:12:40Z</time>
      </trkpt>
      <trkpt lat="47.034" lon="-0.99885">
        <ele>117</ele>
        <time>2012-05-03T14:12:41Z</time>
      </trkpt>
      <trkpt lat="47.03406" lon="-0.99888">
        <ele>117</ele>
        <time>2012-05-03T14:12:42Z</time>
      </trkpt>
      <trkpt lat="47.03413" lon="-0.9989">
        <ele>117</ele>
        <time>2012-05-03T14:12:43Z</time>
      </trkpt>
      <trkpt lat="47.03418" lon="-0.99892">
        <ele>117</ele>
        <time>2012-05-03T14:12:44Z</time>
      </trkpt>
      <trkpt lat="47.03425" lon="-0.99894">
        <ele>117</ele>
        <time>2012-05-03T14:12:45Z</time>
      </trkpt>
      <trkpt lat="47.03431" lon="-0.99896">
        <ele>117</ele>
        <time>2012-05-03T14:12:46Z</time>
      </trkpt>
      <trkpt lat="47.03437" lon="-0.99898">
        <ele>117</ele>
        <time>2012-05-03T14:12:47Z</time>
      </trkpt>
      <trkpt lat="47.03444" lon="-0.99901">
        <ele>117</ele>
        <time>2012-05-03T14:12:48Z</time>
      </trkpt>
      <trkpt lat="47.0345" lon="-0.99903">
        <ele>117</ele>
        <time>2012-05-03T14:12:49Z</time>
      </trkpt>
      <trkpt lat="47.03456" lon="-0.99905">
        <ele>117</ele>
        <time>2012-05-03T14:12:50Z</time>
      </trkpt>
      <trkpt lat="47.03462" lon="-0.99908">
        <ele>117</ele>
        <time>2012-05-03T14:12:51Z</time>
      </trkpt>
      <trkpt lat="47.03468" lon="-0.9991">
        <ele>117</ele>
        <time>2012-05-03T14:12:52Z</time>
      </trkpt>
      <trkpt lat="47.03474" lon="-0.99913">
        <ele>117</ele>
        <time>2012-05-03T14:12:53Z</time>
      </trkpt>
      <trkpt lat="47.03481" lon="-0.99915">
        <ele>117</ele>
        <time>2012-05-03T14:12:54Z</time>
      </trkpt>
      <trkpt lat="47.03487" lon="-0.99919">
        <ele>117</ele>
        <time>2012-05-03T14:12:55Z</time>
      </trkpt>
      <trkpt lat="47.03493" lon="-0.99922">
        <ele>117</ele>
        <time>2012-05-03T14:12:56Z</time>
      </trkpt>
      <trkpt lat="47.035" lon="-0.99926">
        <ele>117</ele>
        <time>2012-05-03T14:12:57Z</time>
      </trkpt>
      <trkpt lat="47.03506" lon="-0.9993">
        <ele>117</ele>
        <time>2012-05-03T14:12:58Z</time>
      </trkpt>
      <trkpt lat="47.03513" lon="-0.99934">
        <ele>117</ele>
        <time>2012-05-03T14:12:59Z</time>
      </trkpt>
      <trkpt lat="47.03519" lon="-0.99939">
        <ele>117</ele>
        <time>2012-05-03T14:13:00Z</time>
      </trkpt>
      <trkpt lat="47.03525" lon="-0.99945">
        <ele>117</ele>
        <time>2012-05-03T14:13:01Z</time>
      </trkpt>
      <trkpt lat="47.03532" lon="-0.9995">
        <ele>117</ele>
        <time>2012-05-03T14:13:02Z</time>
      </trkpt>
      <trkpt lat="47.03538" lon="-0.99956">
        <ele>117</ele>
        <time>2012-05-03T14:13:03Z</time>
      </trkpt>
      <trkpt lat="47.03545" lon="-0.99962">
        <ele>117</ele>
        <time>2012-05-03T14:13:04Z</time>
      </trkpt>
      <trkpt lat="47.03551" lon="-0.99967">
        <ele>117</ele>
        <time>2012-05-03T14:13:05Z</time>
      </trkpt>
      <trkpt lat="47.03557" lon="-0.99973">
        <ele>117</ele>
        <time>2012-05-03T14:13:06Z</time>
      </trkpt>
      <trkpt lat="47.03564" lon="-0.9998">
        <ele>117</ele>
        <time>2012-05-03T14:13:07Z</time>
      </trkpt>
      <trkpt lat="47.0357" lon="-0.99986">
        <ele>117</ele>
        <time>2012-05-03T14:13:08Z</time>
      </trkpt>
      <trkpt lat="47.03577" lon="-0.99992">
        <ele>117</ele>
        <time>2012-05-03T14:13:09Z</time>
      </trkpt>
      <trkpt lat="47.03583" lon="-0.99997">
        <ele>117</ele>
        <time>2012-05-03T14:13:10Z</time>
      </trkpt>
      <trkpt lat="47.03589" lon="-1.00003">
        <ele>117</ele>
        <time>2012-05-03T14:13:11Z</time>
      </trkpt>
      <trkpt lat="47.03595" lon="-1.00009">
        <ele>117</ele>
        <time>2012-05-03T14:13:12Z</time>
      </trkpt>
      <trkpt lat="47.03601" lon="-1.00014">
        <ele>116</ele>
        <time>2012-05-03T14:13:13Z</time>
      </trkpt>
      <trkpt lat="47.03607" lon="-1.0002">
        <ele>116</ele>
        <time>2012-05-03T14:13:14Z</time>
      </trkpt>
      <trkpt lat="47.03613" lon="-1.00025">
        <ele>116</ele>
        <time>2012-05-03T14:13:15Z</time>
      </trkpt>
      <trkpt lat="47.03619" lon="-1.00031">
        <ele>115</ele>
        <time>2012-05-03T14:13:16Z</time>
      </trkpt>
      <trkpt lat="47.03625" lon="-1.00035">
        <ele>115</ele>
        <time>2012-05-03T14:13:17Z</time>
      </trkpt>
      <trkpt lat="47.03632" lon="-1.00038">
        <ele>115</ele>
        <time>2012-05-03T14:13:18Z</time>
      </trkpt>
      <trkpt lat="47.0364" lon="-1.0004">
        <ele>114</ele>
        <time>2012-05-03T14:13:19Z</time>
      </trkpt>
      <trkpt lat="47.03648" lon="-1.0004">
        <ele>114</ele>
        <time>2012-05-03T14:13:20Z</time>
      </trkpt>
      <trkpt lat="47.03655" lon="-1.00039">
        <ele>114</ele>
        <time>2012-05-03T14:13:21Z</time>
      </trkpt>
      <trkpt lat="47.03662" lon="-1.00038">
        <ele>114</ele>
        <time>2012-05-03T14:13:22Z</time>
      </trkpt>
      <trkpt lat="47.03668" lon="-1.00036">
        <ele>114</ele>
        <time>2012-05-03T14:13:23Z</time>
      </trkpt>
      <trkpt lat="47.03675" lon="-1.00035">
        <ele>114</ele>
        <time>2012-05-03T14:13:24Z</time>
      </trkpt>
      <trkpt lat="47.03682" lon="-1.00035">
        <ele>114</ele>
        <time>2012-05-03T14:13:25Z</time>
      </trkpt>
      <trkpt lat="47.03688" lon="-1.00035">
        <ele>114</ele>
        <time>2012-05-03T14:13:26Z</time>
      </trkpt>
      <trkpt lat="47.03694" lon="-1.00035">
        <ele>114</ele>
        <time>2012-05-03T14:13:27Z</time>
      </trkpt>
      <trkpt lat="47.03701" lon="-1.00035">
        <ele>114</ele>
        <time>2012-05-03T14:13:28Z</time>
      </trkpt>
      <trkpt lat="47.03707" lon="-1.00036">
        <ele>114</ele>
        <time>2012-05-03T14:13:29Z</time>
      </trkpt>
      <trkpt lat="47.03713" lon="-1.00036">
        <ele>114</ele>
        <time>2012-05-03T14:13:30Z</time>
      </trkpt>
      <trkpt lat="47.03719" lon="-1.00037">
        <ele>114</ele>
        <time>2012-05-03T14:13:31Z</time>
      </trkpt>
      <trkpt lat="47.03724" lon="-1.00037">
        <ele>114</ele>
        <time>2012-05-03T14:13:32Z</time>
      </trkpt>
      <trkpt lat="47.0373" lon="-1.00038">
        <ele>114</ele>
        <time>2012-05-03T14:13:33Z</time>
      </trkpt>
      <trkpt lat="47.03736" lon="-1.00038">
        <ele>114</ele>
        <time>2012-05-03T14:13:34Z</time>
      </trkpt>
      <trkpt lat="47.03742" lon="-1.00039">
        <ele>114</ele>
        <time>2012-05-03T14:13:35Z</time>
      </trkpt>
      <trkpt lat="47.03747" lon="-1.00039">
        <ele>114</ele>
        <time>2012-05-03T14:13:36Z</time>
      </trkpt>
      <trkpt lat="47.03753" lon="-1.00039">
        <ele>114</ele>
        <time>2012-05-03T14:13:37Z</time>
      </trkpt>
      <trkpt lat="47.03759" lon="-1.00039">
        <ele>114</ele>
        <time>2012-05-03T14:13:38Z</time>
      </trkpt>
      <trkpt lat="47.03764" lon="-1.0004">
        <ele>114</ele>
        <time>2012-05-03T14:13:39Z</time>
      </trkpt>
      <trkpt lat="47.0377" lon="-1.0004">
        <ele>114</ele>
        <time>2012-05-03T14:13:40Z</time>
      </trkpt>
      <trkpt lat="47.03775" lon="-1.00041">
        <ele>114</ele>
        <time>2012-05-03T14:13:41Z</time>
      </trkpt>
      <trkpt lat="47.03781" lon="-1.00042">
        <ele>114</ele>
        <time>2012-05-03T14:13:42Z</time>
      </trkpt>
      <trkpt lat="47.03786" lon="-1.00042">
        <ele>114</ele>
        <time>2012-05-03T14:13:43Z</time>
      </trkpt>
      <trkpt lat="47.03791" lon="-1.00044">
        <ele>114</ele>
        <time>2012-05-03T14:13:44Z</time>
      </trkpt>
      <trkpt lat="47.03797" lon="-1.00045">
        <ele>114</ele>
        <time>2012-05-03T14:13:45Z</time>
      </trkpt>
      <trkpt lat="47.03802" lon="-1.00047">
        <ele>114</ele>
        <time>2012-05-03T14:13:46Z</time>
      </trkpt>
      <trkpt lat="47.03807" lon="-1.00049">
        <ele>114</ele>
        <time>2012-05-03T14:13:47Z</time>
      </trkpt>
      <trkpt lat="47.03812" lon="-1.00051">
        <ele>114</ele>
        <time>2012-05-03T14:13:48Z</time>
      </trkpt>
      <trkpt lat="47.03817" lon="-1.00054">
        <ele>114</ele>
        <time>2012-05-03T14:13:49Z</time>
      </trkpt>
      <trkpt lat="47.03822" lon="-1.00057">
        <ele>114</ele>
        <time>2012-05-03T14:13:50Z</time>
      </trkpt>
      <trkpt lat="47.03827" lon="-1.00061">
        <ele>114</ele>
        <time>2012-05-03T14:13:51Z</time>
      </trkpt>
      <trkpt lat="47.03832" lon="-1.00065">
        <ele>114</ele>
        <time>2012-05-03T14:13:52Z</time>
      </trkpt>
      <trkpt lat="47.03837" lon="-1.00068">
        <ele>114</ele>
        <time>2012-05-03T14:13:53Z</time>
      </trkpt>
      <trkpt lat="47.03841" lon="-1.00073">
        <ele>114</ele>
        <time>2012-05-03T14:13:54Z</time>
      </trkpt>
      <trkpt lat="47.03846" lon="-1.00077">
        <ele>114</ele>
        <time>2012-05-03T14:13:55Z</time>
      </trkpt>
      <trkpt lat="47.03851" lon="-1.00081">
        <ele>114</ele>
        <time>2012-05-03T14:13:56Z</time>
      </trkpt>
      <trkpt lat="47.03855" lon="-1.00086">
        <ele>114</ele>
        <time>2012-05-03T14:13:57Z</time>
      </trkpt>
      <trkpt lat="47.03859" lon="-1.00091">
        <ele>114</ele>
        <time>2012-05-03T14:13:58Z</time>
      </trkpt>
      <trkpt lat="47.03864" lon="-1.00095">
        <ele>114</ele>
        <time>2012-05-03T14:13:59Z</time>
      </trkpt>
      <trkpt lat="47.03868" lon="-1.001">
        <ele>114</ele>
        <time>2012-05-03T14:14:00Z</time>
      </trkpt>
      <trkpt lat="47.03873" lon="-1.00105">
        <ele>114</ele>
        <time>2012-05-03T14:14:01Z</time>
      </trkpt>
      <trkpt lat="47.03877" lon="-1.0011">
        <ele>114</ele>
        <time>2012-05-03T14:14:02Z</time>
      </trkpt>
      <trkpt lat="47.03881" lon="-1.00115">
        <ele>115</ele>
        <time>2012-05-03T14:14:03Z</time>
      </trkpt>
      <trkpt lat="47.03886" lon="-1.0012">
        <ele>115</ele>
        <time>2012-05-03T14:14:04Z</time>
      </trkpt>
      <trkpt lat="47.03891" lon="-1.00125">
        <ele>115</ele>
        <time>2012-05-03T14:14:05Z</time>
      </trkpt>
      <trkpt lat="47.03896" lon="-1.0013">
        <ele>115</ele>
        <time>2012-05-03T14:14:06Z</time>
      </trkpt>
      <trkpt lat="47.039" lon="-1.00135">
        <ele>115</ele>
        <time>2012-05-03T14:14:07Z</time>
      </trkpt>
      <trkpt lat="47.03904" lon="-1.0014">
        <ele>115</ele>
        <time>2012-05-03T14:14:08Z</time>
      </trkpt>
      <trkpt lat="47.03909" lon="-1.00145">
        <ele>115</ele>
        <time>2012-05-03T14:14:09Z</time>
      </trkpt>
      <trkpt lat="47.03913" lon="-1.00151">
        <ele>115</ele>
        <time>2012-05-03T14:14:10Z</time>
      </trkpt>
      <trkpt lat="47.03918" lon="-1.00156">
        <ele>115</ele>
        <time>2012-05-03T14:14:11Z</time>
      </trkpt>
      <trkpt lat="47.03923" lon="-1.00161">
        <ele>115</ele>
        <time>2012-05-03T14:14:12Z</time>
      </trkpt>
      <trkpt lat="47.03928" lon="-1.00166">
        <ele>115</ele>
        <time>2012-05-03T14:14:13Z</time>
      </trkpt>
      <trkpt lat="47.03933" lon="-1.00171">
        <ele>115</ele>
        <time>2012-05-03T14:14:14Z</time>
      </trkpt>
      <trkpt lat="47.03937" lon="-1.00177">
        <ele>115</ele>
        <time>2012-05-03T14:14:15Z</time>
      </trkpt>
      <trkpt lat="47.03942" lon="-1.00182">
        <ele>115</ele>
        <time>2012-05-03T14:14:16Z</time>
      </trkpt>
      <trkpt lat="47.03947" lon="-1.00187">
        <ele>115</ele>
        <time>2012-05-03T14:14:17Z</time>
      </trkpt>
      <trkpt lat="47.03951" lon="-1.00192">
        <ele>115</ele>
        <time>2012-05-03T14:14:18Z</time>
      </trkpt>
      <trkpt lat="47.03955" lon="-1.00197">
        <ele>115</ele>
        <time>2012-05-03T14:14:19Z</time>
      </trkpt>
      <trkpt lat="47.0396" lon="-1.00202">
        <ele>115</ele>
        <time>2012-05-03T14:14:20Z</time>
      </trkpt>
      <trkpt lat="47.03964" lon="-1.00207">
        <ele>115</ele>
        <time>2012-05-03T14:14:21Z</time>
      </trkpt>
      <trkpt lat="47.03968" lon="-1.00213">
        <ele>115</ele>
        <time>2012-05-03T14:14:22Z</time>
      </trkpt>
      <trkpt lat="47.03973" lon="-1.00219">
        <ele>115</ele>
        <time>2012-05-03T14:14:23Z</time>
      </trkpt>
      <trkpt lat="47.03977" lon="-1.00225">
        <ele>115</ele>
        <time>2012-05-03T14:14:24Z</time>
      </trkpt>
      <trkpt lat="47.03981" lon="-1.00231">
        <ele>115</ele>
        <time>2012-05-03T14:14:25Z</time>
      </trkpt>
      <trkpt lat="47.03985" lon="-1.00238">
        <ele>115</ele>
        <time>2012-05-03T14:14:26Z</time>
      </trkpt>
      <trkpt lat="47.03989" lon="-1.00244">
        <ele>115</ele>
        <time>2012-05-03T14:14:27Z</time>
      </trkpt>
      <trkpt lat="47.03992" lon="-1.00251">
        <ele>115</ele>
        <time>2012-05-03T14:14:28Z</time>
      </trkpt>
      <trkpt lat="47.03996" lon="-1.00259">
        <ele>115</ele>
        <time>2012-05-03T14:14:29Z</time>
      </trkpt>
      <trkpt lat="47.04" lon="-1.00266">
        <ele>115</ele>
        <time>2012-05-03T14:14:30Z</time>
      </trkpt>
      <trkpt lat="47.04004" lon="-1.00273">
        <ele>115</ele>
        <time>2012-05-03T14:14:31Z</time>
      </trkpt>
      <trkpt lat="47.04008" lon="-1.00279">
        <ele>115</ele>
        <time>2012-05-03T14:14:32Z</time>
      </trkpt>
      <trkpt lat="47.04013" lon="-1.00286">
        <ele>115</ele>
        <time>2012-05-03T14:14:33Z</time>
      </trkpt>
      <trkpt lat="47.04017" lon="-1.00293">
        <ele>115</ele>
        <time>2012-05-03T14:14:34Z</time>
      </trkpt>
      <trkpt lat="47.04022" lon="-1.00299">
        <ele>115</ele>
        <time>2012-05-03T14:14:35Z</time>
      </trkpt>
      <trkpt lat="47.04027" lon="-1.00305">
        <ele>115</ele>
        <time>2012-05-03T14:14:36Z</time>
      </trkpt>
      <trkpt lat="47.04031" lon="-1.00311">
        <ele>115</ele>
        <time>2012-05-03T14:14:37Z</time>
      </trkpt>
      <trkpt lat="47.04036" lon="-1.00316">
        <ele>115</ele>
        <time>2012-05-03T14:14:38Z</time>
      </trkpt>
      <trkpt lat="47.04042" lon="-1.00322">
        <ele>115</ele>
        <time>2012-05-03T14:14:39Z</time>
      </trkpt>
      <trkpt lat="47.04047" lon="-1.00327">
        <ele>115</ele>
        <time>2012-05-03T14:14:40Z</time>
      </trkpt>
      <trkpt lat="47.04052" lon="-1.00331">
        <ele>115</ele>
        <time>2012-05-03T14:14:41Z</time>
      </trkpt>
      <trkpt lat="47.04057" lon="-1.00337">
        <ele>115</ele>
        <time>2012-05-03T14:14:42Z</time>
      </trkpt>
      <trkpt lat="47.04062" lon="-1.00341">
        <ele>115</ele>
        <time>2012-05-03T14:14:43Z</time>
      </trkpt>
      <trkpt lat="47.04068" lon="-1.00347">
        <ele>115</ele>
        <time>2012-05-03T14:14:44Z</time>
      </trkpt>
      <trkpt lat="47.04073" lon="-1.00352">
        <ele>115</ele>
        <time>2012-05-03T14:14:45Z</time>
      </trkpt>
      <trkpt lat="47.04079" lon="-1.00356">
        <ele>115</ele>
        <time>2012-05-03T14:14:46Z</time>
      </trkpt>
      <trkpt lat="47.04084" lon="-1.00362">
        <ele>115</ele>
        <time>2012-05-03T14:14:47Z</time>
      </trkpt>
      <trkpt lat="47.04099" lon="-1.00378">
        <ele>115</ele>
        <time>2012-05-03T14:14:50Z</time>
      </trkpt>
      <trkpt lat="47.04104" lon="-1.00383">
        <ele>115</ele>
        <time>2012-05-03T14:14:51Z</time>
      </trkpt>
      <trkpt lat="47.04108" lon="-1.00389">
        <ele>115</ele>
        <time>2012-05-03T14:14:52Z</time>
      </trkpt>
      <trkpt lat="47.04113" lon="-1.00395">
        <ele>115</ele>
        <time>2012-05-03T14:14:54Z</time>
      </trkpt>
      <trkpt lat="47.04118" lon="-1.00401">
        <ele>115</ele>
        <time>2012-05-03T14:14:55Z</time>
      </trkpt>
      <trkpt lat="47.04128" lon="-1.00414">
        <ele>115</ele>
        <time>2012-05-03T14:14:57Z</time>
      </trkpt>
      <trkpt lat="47.04134" lon="-1.00419">
        <ele>115</ele>
        <time>2012-05-03T14:14:58Z</time>
      </trkpt>
      <trkpt lat="47.04143" lon="-1.00429">
        <ele>115</ele>
        <time>2012-05-03T14:15:01Z</time>
      </trkpt>
      <trkpt lat="47.04157" lon="-1.00446">
        <ele>115</ele>
        <time>2012-05-03T14:15:04Z</time>
      </trkpt>
      <trkpt lat="47.04171" lon="-1.00464">
        <ele>115</ele>
        <time>2012-05-03T14:15:07Z</time>
      </trkpt>
      <trkpt lat="47.04181" lon="-1.00477">
        <ele>115</ele>
        <time>2012-05-03T14:15:07Z</time>
      </trkpt>
      <trkpt lat="47.04186" lon="-1.00483">
        <ele>115</ele>
        <time>2012-05-03T14:15:08Z</time>
      </trkpt>
      <trkpt lat="47.04197" lon="-1.00495">
        <ele>115</ele>
        <time>2012-05-03T14:15:12Z</time>
      </trkpt>
      <trkpt lat="47.04217" lon="-1.00521">
        <ele>115</ele>
        <time>2012-05-03T14:15:14Z</time>
      </trkpt>
      <trkpt lat="47.04221" lon="-1.00528">
        <ele>115</ele>
        <time>2012-05-03T14:15:15Z</time>
      </trkpt>
      <trkpt lat="47.04226" lon="-1.00535">
        <ele>115</ele>
        <time>2012-05-03T14:15:16Z</time>
      </trkpt>
      <trkpt lat="47.04238" lon="-1.00555">
        <ele>116</ele>
        <time>2012-05-03T14:15:19Z</time>
      </trkpt>
      <trkpt lat="47.04242" lon="-1.00562">
        <ele>116</ele>
        <time>2012-05-03T14:15:20Z</time>
      </trkpt>
      <trkpt lat="47.04249" lon="-1.00575">
        <ele>117</ele>
        <time>2012-05-03T14:15:24Z</time>
      </trkpt>
      <trkpt lat="47.04258" lon="-1.00591">
        <ele>117</ele>
        <time>2012-05-03T14:15:24Z</time>
      </trkpt>
      <trkpt lat="47.04262" lon="-1.00598">
        <ele>117</ele>
        <time>2012-05-03T14:15:25Z</time>
      </trkpt>
      <trkpt lat="47.0427" lon="-1.00613">
        <ele>117</ele>
        <time>2012-05-03T14:15:29Z</time>
      </trkpt>
      <trkpt lat="47.04278" lon="-1.00628">
        <ele>117</ele>
        <time>2012-05-03T14:15:29Z</time>
      </trkpt>
      <trkpt lat="47.04282" lon="-1.00635">
        <ele>117</ele>
        <time>2012-05-03T14:15:30Z</time>
      </trkpt>
      <trkpt lat="47.0429" lon="-1.00649">
        <ele>117</ele>
        <time>2012-05-03T14:15:34Z</time>
      </trkpt>
      <trkpt lat="47.04298" lon="-1.00664">
        <ele>117</ele>
        <time>2012-05-03T14:15:34Z</time>
      </trkpt>
      <trkpt lat="47.04301" lon="-1.00671">
        <ele>117</ele>
        <time>2012-05-03T14:15:35Z</time>
      </trkpt>
      <trkpt lat="47.04305" lon="-1.00678">
        <ele>117</ele>
        <time>2012-05-03T14:15:37Z</time>
      </trkpt>
      <trkpt lat="47.04308" lon="-1.00685">
        <ele>117</ele>
        <time>2012-05-03T14:15:37Z</time>
      </trkpt>
      <trkpt lat="47.04316" lon="-1.00698">
        <ele>117</ele>
        <time>2012-05-03T14:15:41Z</time>
      </trkpt>
      <trkpt lat="47.04323" lon="-1.00712">
        <ele>117</ele>
        <time>2012-05-03T14:15:41Z</time>
      </trkpt>
      <trkpt lat="47.04327" lon="-1.00719">
        <ele>118</ele>
        <time>2012-05-03T14:15:42Z</time>
      </trkpt>
      <trkpt lat="47.0433" lon="-1.00726">
        <ele>118</ele>
        <time>2012-05-03T14:15:44Z</time>
      </trkpt>
      <trkpt lat="47.04334" lon="-1.00733">
        <ele>118</ele>
        <time>2012-05-03T14:15:45Z</time>
      </trkpt>
      <trkpt lat="47.04337" lon="-1.0074">
        <ele>119</ele>
        <time>2012-05-03T14:15:45Z</time>
      </trkpt>
      <trkpt lat="47.04341" lon="-1.00746">
        <ele>119</ele>
        <time>2012-05-03T14:15:46Z</time>
      </trkpt>
      <trkpt lat="47.04345" lon="-1.00753">
        <ele>119</ele>
        <time>2012-05-03T14:15:47Z</time>
      </trkpt>
      <trkpt lat="47.04348" lon="-1.0076">
        <ele>119</ele>
        <time>2012-05-03T14:15:48Z</time>
      </trkpt>
      <trkpt lat="47.04351" lon="-1.00768">
        <ele>119</ele>
        <time>2012-05-03T14:15:49Z</time>
      </trkpt>
      <trkpt lat="47.04355" lon="-1.00775">
        <ele>119</ele>
        <time>2012-05-03T14:15:50Z</time>
      </trkpt>
      <trkpt lat="47.04359" lon="-1.00781">
        <ele>119</ele>
        <time>2012-05-03T14:15:51Z</time>
      </trkpt>
      <trkpt lat="47.04363" lon="-1.00787">
        <ele>119</ele>
        <time>2012-05-03T14:15:52Z</time>
      </trkpt>
      <trkpt lat="47.04367" lon="-1.00793">
        <ele>119</ele>
        <time>2012-05-03T14:15:53Z</time>
      </trkpt>
      <trkpt lat="47.04372" lon="-1.00798">
        <ele>119</ele>
        <time>2012-05-03T14:15:54Z</time>
      </trkpt>
      <trkpt lat="47.04375" lon="-1.00803">
        <ele>119</ele>
        <time>2012-05-03T14:15:55Z</time>
      </trkpt>
      <trkpt lat="47.04379" lon="-1.00809">
        <ele>119</ele>
        <time>2012-05-03T14:15:56Z</time>
      </trkpt>
      <trkpt lat="47.0438" lon="-1.00816">
        <ele>119</ele>
        <time>2012-05-03T14:15:57Z</time>
      </trkpt>
      <trkpt lat="47.04381" lon="-1.00823">
        <ele>119</ele>
        <time>2012-05-03T14:15:58Z</time>
      </trkpt>
      <trkpt lat="47.0438" lon="-1.00831">
        <ele>119</ele>
        <time>2012-05-03T14:15:59Z</time>
      </trkpt>
      <trkpt lat="47.0438" lon="-1.00838">
        <ele>119</ele>
        <time>2012-05-03T14:16:00Z</time>
      </trkpt>
      <trkpt lat="47.0438" lon="-1.00845">
        <ele>119</ele>
        <time>2012-05-03T14:16:01Z</time>
      </trkpt>
      <trkpt lat="47.04381" lon="-1.00851">
        <ele>119</ele>
        <time>2012-05-03T14:16:02Z</time>
      </trkpt>
      <trkpt lat="47.04381" lon="-1.00857">
        <ele>119</ele>
        <time>2012-05-03T14:16:03Z</time>
      </trkpt>
      <trkpt lat="47.04381" lon="-1.00864">
        <ele>119</ele>
        <time>2012-05-03T14:16:04Z</time>
      </trkpt>
      <trkpt lat="47.04382" lon="-1.00871">
        <ele>119</ele>
        <time>2012-05-03T14:16:05Z</time>
      </trkpt>
      <trkpt lat="47.04382" lon="-1.00878">
        <ele>119</ele>
        <time>2012-05-03T14:16:06Z</time>
      </trkpt>
      <trkpt lat="47.04383" lon="-1.00885">
        <ele>119</ele>
        <time>2012-05-03T14:16:07Z</time>
      </trkpt>
      <trkpt lat="47.04383" lon="-1.00891">
        <ele>119</ele>
        <time>2012-05-03T14:16:08Z</time>
      </trkpt>
      <trkpt lat="47.04383" lon="-1.00898">
        <ele>119</ele>
        <time>2012-05-03T14:16:09Z</time>
      </trkpt>
      <trkpt lat="47.04384" lon="-1.00905">
        <ele>119</ele>
        <time>2012-05-03T14:16:10Z</time>
      </trkpt>
      <trkpt lat="47.04385" lon="-1.00911">
        <ele>119</ele>
        <time>2012-05-03T14:16:11Z</time>
      </trkpt>
      <trkpt lat="47.04385" lon="-1.00918">
        <ele>119</ele>
        <time>2012-05-03T14:16:12Z</time>
      </trkpt>
      <trkpt lat="47.04386" lon="-1.00924">
        <ele>119</ele>
        <time>2012-05-03T14:16:13Z</time>
      </trkpt>
      <trkpt lat="47.04387" lon="-1.0093">
        <ele>119</ele>
        <time>2012-05-03T14:16:14Z</time>
      </trkpt>
      <trkpt lat="47.04388" lon="-1.00936">
        <ele>119</ele>
        <time>2012-05-03T14:16:15Z</time>
      </trkpt>
      <trkpt lat="47.04389" lon="-1.00942">
        <ele>119</ele>
        <time>2012-05-03T14:16:16Z</time>
      </trkpt>
      <trkpt lat="47.04391" lon="-1.00947">
        <ele>119</ele>
        <time>2012-05-03T14:16:17Z</time>
      </trkpt>
      <trkpt lat="47.04392" lon="-1.00952">
        <ele>119</ele>
        <time>2012-05-03T14:16:18Z</time>
      </trkpt>
      <trkpt lat="47.04393" lon="-1.00959">
        <ele>119</ele>
        <time>2012-05-03T14:16:19Z</time>
      </trkpt>
      <trkpt lat="47.04396" lon="-1.00964">
        <ele>119</ele>
        <time>2012-05-03T14:16:20Z</time>
      </trkpt>
      <trkpt lat="47.04398" lon="-1.00969">
        <ele>119</ele>
        <time>2012-05-03T14:16:21Z</time>
      </trkpt>
      <trkpt lat="47.04402" lon="-1.00973">
        <ele>119</ele>
        <time>2012-05-03T14:16:22Z</time>
      </trkpt>
      <trkpt lat="47.04406" lon="-1.00976">
        <ele>119</ele>
        <time>2012-05-03T14:16:23Z</time>
      </trkpt>
      <trkpt lat="47.04409" lon="-1.0098">
        <ele>119</ele>
        <time>2012-05-03T14:16:24Z</time>
      </trkpt>
      <trkpt lat="47.04413" lon="-1.00984">
        <ele>119</ele>
        <time>2012-05-03T14:16:25Z</time>
      </trkpt>
      <trkpt lat="47.04416" lon="-1.00988">
        <ele>119</ele>
        <time>2012-05-03T14:16:26Z</time>
      </trkpt>
      <trkpt lat="47.0442" lon="-1.00993">
        <ele>119</ele>
        <time>2012-05-03T14:16:27Z</time>
      </trkpt>
      <trkpt lat="47.04423" lon="-1.00997">
        <ele>119</ele>
        <time>2012-05-03T14:16:28Z</time>
      </trkpt>
      <trkpt lat="47.04427" lon="-1.01002">
        <ele>119</ele>
        <time>2012-05-03T14:16:29Z</time>
      </trkpt>
      <trkpt lat="47.0443" lon="-1.01006">
        <ele>119</ele>
        <time>2012-05-03T14:16:30Z</time>
      </trkpt>
      <trkpt lat="47.04434" lon="-1.01009">
        <ele>119</ele>
        <time>2012-05-03T14:16:31Z</time>
      </trkpt>
      <trkpt lat="47.04438" lon="-1.01012">
        <ele>119</ele>
        <time>2012-05-03T14:16:32Z</time>
      </trkpt>
      <trkpt lat="47.04441" lon="-1.01014">
        <ele>119</ele>
        <time>2012-05-03T14:16:33Z</time>
      </trkpt>
      <trkpt lat="47.04445" lon="-1.01018">
        <ele>119</ele>
        <time>2012-05-03T14:16:34Z</time>
      </trkpt>
      <trkpt lat="47.04448" lon="-1.01022">
        <ele>119</ele>
        <time>2012-05-03T14:16:35Z</time>
      </trkpt>
      <trkpt lat="47.0445" lon="-1.01026">
        <ele>120</ele>
        <time>2012-05-03T14:16:36Z</time>
      </trkpt>
      <trkpt lat="47.04453" lon="-1.0103">
        <ele>120</ele>
        <time>2012-05-03T14:16:37Z</time>
      </trkpt>
      <trkpt lat="47.04456" lon="-1.01034">
        <ele>120</ele>
        <time>2012-05-03T14:16:38Z</time>
      </trkpt>
      <trkpt lat="47.04459" lon="-1.01038">
        <ele>120</ele>
        <time>2012-05-03T14:16:39Z</time>
      </trkpt>
      <trkpt lat="47.04461" lon="-1.01042">
        <ele>120</ele>
        <time>2012-05-03T14:16:40Z</time>
      </trkpt>
      <trkpt lat="47.04464" lon="-1.01046">
        <ele>120</ele>
        <time>2012-05-03T14:16:41Z</time>
      </trkpt>
      <trkpt lat="47.04467" lon="-1.01049">
        <ele>120</ele>
        <time>2012-05-03T14:16:42Z</time>
      </trkpt>
      <trkpt lat="47.0447" lon="-1.01053">
        <ele>120</ele>
        <time>2012-05-03T14:16:43Z</time>
      </trkpt>
      <trkpt lat="47.04472" lon="-1.01057">
        <ele>120</ele>
        <time>2012-05-03T14:16:44Z</time>
      </trkpt>
      <trkpt lat="47.04475" lon="-1.01062">
        <ele>120</ele>
        <time>2012-05-03T14:16:45Z</time>
      </trkpt>
      <trkpt lat="47.04477" lon="-1.01066">
        <ele>120</ele>
        <time>2012-05-03T14:16:46Z</time>
      </trkpt>
      <trkpt lat="47.0448" lon="-1.0107">
        <ele>120</ele>
        <time>2012-05-03T14:16:47Z</time>
      </trkpt>
      <trkpt lat="47.04482" lon="-1.01074">
        <ele>120</ele>
        <time>2012-05-03T14:16:48Z</time>
      </trkpt>
      <trkpt lat="47.04484" lon="-1.01078">
        <ele>120</ele>
        <time>2012-05-03T14:16:49Z</time>
      </trkpt>
      <trkpt lat="47.04487" lon="-1.01083">
        <ele>120</ele>
        <time>2012-05-03T14:16:50Z</time>
      </trkpt>
      <trkpt lat="47.0449" lon="-1.01087">
        <ele>120</ele>
        <time>2012-05-03T14:16:51Z</time>
      </trkpt>
      <trkpt lat="47.04492" lon="-1.01092">
        <ele>120</ele>
        <time>2012-05-03T14:16:52Z</time>
      </trkpt>
      <trkpt lat="47.04495" lon="-1.01097">
        <ele>120</ele>
        <time>2012-05-03T14:16:53Z</time>
      </trkpt>
      <trkpt lat="47.04498" lon="-1.01102">
        <ele>120</ele>
        <time>2012-05-03T14:16:54Z</time>
      </trkpt>
      <trkpt lat="47.045" lon="-1.01107">
        <ele>120</ele>
        <time>2012-05-03T14:16:55Z</time>
      </trkpt>
      <trkpt lat="47.04503" lon="-1.01112">
        <ele>120</ele>
        <time>2012-05-03T14:16:56Z</time>
      </trkpt>
      <trkpt lat="47.04506" lon="-1.01117">
        <ele>120</ele>
        <time>2012-05-03T14:16:57Z</time>
      </trkpt>
      <trkpt lat="47.04509" lon="-1.01123">
        <ele>120</ele>
        <time>2012-05-03T14:16:58Z</time>
      </trkpt>
      <trkpt lat="47.04512" lon="-1.01129">
        <ele>120</ele>
        <time>2012-05-03T14:16:59Z</time>
      </trkpt>
      <trkpt lat="47.04514" lon="-1.01135">
        <ele>120</ele>
        <time>2012-05-03T14:17:00Z</time>
      </trkpt>
      <trkpt lat="47.04517" lon="-1.01141">
        <ele>120</ele>
        <time>2012-05-03T14:17:01Z</time>
      </trkpt>
      <trkpt lat="47.0452" lon="-1.01147">
        <ele>120</ele>
        <time>2012-05-03T14:17:02Z</time>
      </trkpt>
      <trkpt lat="47.04522" lon="-1.01154">
        <ele>120</ele>
        <time>2012-05-03T14:17:03Z</time>
      </trkpt>
      <trkpt lat="47.04525" lon="-1.01159">
        <ele>121</ele>
        <time>2012-05-03T14:17:04Z</time>
      </trkpt>
      <trkpt lat="47.04528" lon="-1.01165">
        <ele>121</ele>
        <time>2012-05-03T14:17:05Z</time>
      </trkpt>
      <trkpt lat="47.04531" lon="-1.0117">
        <ele>121</ele>
        <time>2012-05-03T14:17:06Z</time>
      </trkpt>
      <trkpt lat="47.04533" lon="-1.01175">
        <ele>121</ele>
        <time>2012-05-03T14:17:07Z</time>
      </trkpt>
      <trkpt lat="47.04536" lon="-1.0118">
        <ele>121</ele>
        <time>2012-05-03T14:17:08Z</time>
      </trkpt>
      <trkpt lat="47.04539" lon="-1.01186">
        <ele>122</ele>
        <time>2012-05-03T14:17:09Z</time>
      </trkpt>
      <trkpt lat="47.04542" lon="-1.01191">
        <ele>122</ele>
        <time>2012-05-03T14:17:10Z</time>
      </trkpt>
      <trkpt lat="47.04545" lon="-1.01196">
        <ele>122</ele>
        <time>2012-05-03T14:17:11Z</time>
      </trkpt>
      <trkpt lat="47.04547" lon="-1.01201">
        <ele>122</ele>
        <time>2012-05-03T14:17:12Z</time>
      </trkpt>
      <trkpt lat="47.0455" lon="-1.01206">
        <ele>122</ele>
        <time>2012-05-03T14:17:13Z</time>
      </trkpt>
      <trkpt lat="47.04553" lon="-1.01211">
        <ele>122</ele>
        <time>2012-05-03T14:17:14Z</time>
      </trkpt>
      <trkpt lat="47.04556" lon="-1.01215">
        <ele>122</ele>
        <time>2012-05-03T14:17:15Z</time>
      </trkpt>
      <trkpt lat="47.04558" lon="-1.0122">
        <ele>122</ele>
        <time>2012-05-03T14:17:16Z</time>
      </trkpt>
      <trkpt lat="47.0456" lon="-1.01224">
        <ele>122</ele>
        <time>2012-05-03T14:17:17Z</time>
      </trkpt>
      <trkpt lat="47.04563" lon="-1.01229">
        <ele>123</ele>
        <time>2012-05-03T14:17:18Z</time>
      </trkpt>
      <trkpt lat="47.04565" lon="-1.01234">
        <ele>123</ele>
        <time>2012-05-03T14:17:19Z</time>
      </trkpt>
      <trkpt lat="47.04569" lon="-1.01239">
        <ele>123</ele>
        <time>2012-05-03T14:17:20Z</time>
      </trkpt>
      <trkpt lat="47.04572" lon="-1.01244">
        <ele>123</ele>
        <time>2012-05-03T14:17:21Z</time>
      </trkpt>
      <trkpt lat="47.04575" lon="-1.0125">
        <ele>123</ele>
        <time>2012-05-03T14:17:22Z</time>
      </trkpt>
      <trkpt lat="47.04578" lon="-1.01255">
        <ele>123</ele>
        <time>2012-05-03T14:17:23Z</time>
      </trkpt>
      <trkpt lat="47.0458" lon="-1.01261">
        <ele>123</ele>
        <time>2012-05-03T14:17:24Z</time>
      </trkpt>
      <trkpt lat="47.04583" lon="-1.01267">
        <ele>123</ele>
        <time>2012-05-03T14:17:25Z</time>
      </trkpt>
      <trkpt lat="47.04585" lon="-1.01271">
        <ele>123</ele>
        <time>2012-05-03T14:17:26Z</time>
      </trkpt>
      <trkpt lat="47.04588" lon="-1.01276">
        <ele>123</ele>
        <time>2012-05-03T14:17:27Z</time>
      </trkpt>
      <trkpt lat="47.04591" lon="-1.0128">
        <ele>123</ele>
        <time>2012-05-03T14:17:28Z</time>
      </trkpt>
      <trkpt lat="47.04594" lon="-1.01286">
        <ele>123</ele>
        <time>2012-05-03T14:17:29Z</time>
      </trkpt>
      <trkpt lat="47.04597" lon="-1.01292">
        <ele>123</ele>
        <time>2012-05-03T14:17:30Z</time>
      </trkpt>
      <trkpt lat="47.046" lon="-1.01298">
        <ele>123</ele>
        <time>2012-05-03T14:17:31Z</time>
      </trkpt>
      <trkpt lat="47.04604" lon="-1.01303">
        <ele>123</ele>
        <time>2012-05-03T14:17:32Z</time>
      </trkpt>
      <trkpt lat="47.04607" lon="-1.01307">
        <ele>123</ele>
        <time>2012-05-03T14:17:33Z</time>
      </trkpt>
      <trkpt lat="47.0461" lon="-1.01311">
        <ele>123</ele>
        <time>2012-05-03T14:17:34Z</time>
      </trkpt>
      <trkpt lat="47.04613" lon="-1.01315">
        <ele>123</ele>
        <time>2012-05-03T14:17:35Z</time>
      </trkpt>
      <trkpt lat="47.04615" lon="-1.0132">
        <ele>123</ele>
        <time>2012-05-03T14:17:36Z</time>
      </trkpt>
      <trkpt lat="47.04617" lon="-1.01325">
        <ele>123</ele>
        <time>2012-05-03T14:17:37Z</time>
      </trkpt>
      <trkpt lat="47.04618" lon="-1.0133">
        <ele>123</ele>
        <time>2012-05-03T14:17:38Z</time>
      </trkpt>
      <trkpt lat="47.04618" lon="-1.01336">
        <ele>123</ele>
        <time>2012-05-03T14:17:39Z</time>
      </trkpt>
      <trkpt lat="47.04619" lon="-1.01342">
        <ele>123</ele>
        <time>2012-05-03T14:17:40Z</time>
      </trkpt>
      <trkpt lat="47.04619" lon="-1.01348">
        <ele>123</ele>
        <time>2012-05-03T14:17:41Z</time>
      </trkpt>
      <trkpt lat="47.04619" lon="-1.01354">
        <ele>123</ele>
        <time>2012-05-03T14:17:42Z</time>
      </trkpt>
      <trkpt lat="47.04618" lon="-1.01358">
        <ele>123</ele>
        <time>2012-05-03T14:17:43Z</time>
      </trkpt>
      <trkpt lat="47.04617" lon="-1.01363">
        <ele>123</ele>
        <time>2012-05-03T14:17:44Z</time>
      </trkpt>
      <trkpt lat="47.04616" lon="-1.01367">
        <ele>123</ele>
        <time>2012-05-03T14:17:45Z</time>
      </trkpt>
      <trkpt lat="47.04615" lon="-1.01372">
        <ele>123</ele>
        <time>2012-05-03T14:17:46Z</time>
      </trkpt>
      <trkpt lat="47.04614" lon="-1.01376">
        <ele>123</ele>
        <time>2012-05-03T14:17:47Z</time>
      </trkpt>
      <trkpt lat="47.04612" lon="-1.01381">
        <ele>123</ele>
        <time>2012-05-03T14:17:48Z</time>
      </trkpt>
      <trkpt lat="47.04609" lon="-1.01386">
        <ele>123</ele>
        <time>2012-05-03T14:17:49Z</time>
      </trkpt>
      <trkpt lat="47.04607" lon="-1.01392">
        <ele>123</ele>
        <time>2012-05-03T14:17:50Z</time>
      </trkpt>
      <trkpt lat="47.04605" lon="-1.01398">
        <ele>123</ele>
        <time>2012-05-03T14:17:51Z</time>
      </trkpt>
      <trkpt lat="47.04604" lon="-1.01403">
        <ele>123</ele>
        <time>2012-05-03T14:17:52Z</time>
      </trkpt>
      <trkpt lat="47.04603" lon="-1.01409">
        <ele>123</ele>
        <time>2012-05-03T14:17:53Z</time>
      </trkpt>
      <trkpt lat="47.04601" lon="-1.01414">
        <ele>123</ele>
        <time>2012-05-03T14:17:54Z</time>
      </trkpt>
      <trkpt lat="47.04599" lon="-1.01418">
        <ele>123</ele>
        <time>2012-05-03T14:17:55Z</time>
      </trkpt>
      <trkpt lat="47.04598" lon="-1.01424">
        <ele>123</ele>
        <time>2012-05-03T14:17:56Z</time>
      </trkpt>
      <trkpt lat="47.04597" lon="-1.0143">
        <ele>123</ele>
        <time>2012-05-03T14:17:57Z</time>
      </trkpt>
      <trkpt lat="47.04596" lon="-1.01435">
        <ele>123</ele>
        <time>2012-05-03T14:17:58Z</time>
      </trkpt>
      <trkpt lat="47.04594" lon="-1.01442">
        <ele>123</ele>
        <time>2012-05-03T14:17:59Z</time>
      </trkpt>
      <trkpt lat="47.04593" lon="-1.01448">
        <ele>123</ele>
        <time>2012-05-03T14:18:00Z</time>
      </trkpt>
      <trkpt lat="47.04591" lon="-1.01453">
        <ele>123</ele>
        <time>2012-05-03T14:18:01Z</time>
      </trkpt>
      <trkpt lat="47.0459" lon="-1.01459">
        <ele>124</ele>
        <time>2012-05-03T14:18:02Z</time>
      </trkpt>
      <trkpt lat="47.04588" lon="-1.01464">
        <ele>124</ele>
        <time>2012-05-03T14:18:03Z</time>
      </trkpt>
      <trkpt lat="47.04586" lon="-1.01469">
        <ele>124</ele>
        <time>2012-05-03T14:18:04Z</time>
      </trkpt>
      <trkpt lat="47.04585" lon="-1.01475">
        <ele>124</ele>
        <time>2012-05-03T14:18:05Z</time>
      </trkpt>
      <trkpt lat="47.04584" lon="-1.01479">
        <ele>124</ele>
        <time>2012-05-03T14:18:06Z</time>
      </trkpt>
      <trkpt lat="47.04583" lon="-1.01483">
        <ele>124</ele>
        <time>2012-05-03T14:18:07Z</time>
      </trkpt>
      <trkpt lat="47.04581" lon="-1.01489">
        <ele>124</ele>
        <time>2012-05-03T14:18:08Z</time>
      </trkpt>
      <trkpt lat="47.0458" lon="-1.01493">
        <ele>124</ele>
        <time>2012-05-03T14:18:09Z</time>
      </trkpt>
      <trkpt lat="47.04579" lon="-1.01497">
        <ele>124</ele>
        <time>2012-05-03T14:18:10Z</time>
      </trkpt>
      <trkpt lat="47.04578" lon="-1.01501">
        <ele>124</ele>
        <time>2012-05-03T14:18:11Z</time>
      </trkpt>
      <trkpt lat="47.04578" lon="-1.01506">
        <ele>124</ele>
        <time>2012-05-03T14:18:12Z</time>
      </trkpt>
      <trkpt lat="47.04578" lon="-1.01511">
        <ele>124</ele>
        <time>2012-05-03T14:18:13Z</time>
      </trkpt>
      <trkpt lat="47.0458" lon="-1.01517">
        <ele>124</ele>
        <time>2012-05-03T14:18:14Z</time>
      </trkpt>
      <trkpt lat="47.04581" lon="-1.01523">
        <ele>124</ele>
        <time>2012-05-03T14:18:15Z</time>
      </trkpt>
      <trkpt lat="47.04582" lon="-1.01528">
        <ele>124</ele>
        <time>2012-05-03T14:18:16Z</time>
      </trkpt>
      <trkpt lat="47.04583" lon="-1.01534">
        <ele>124</ele>
        <time>2012-05-03T14:18:17Z</time>
      </trkpt>
      <trkpt lat="47.04584" lon="-1.01539">
        <ele>124</ele>
        <time>2012-05-03T14:18:18Z</time>
      </trkpt>
      <trkpt lat="47.04583" lon="-1.01546">
        <ele>124</ele>
        <time>2012-05-03T14:18:19Z</time>
      </trkpt>
      <trkpt lat="47.04583" lon="-1.01552">
        <ele>124</ele>
        <time>2012-05-03T14:18:20Z</time>
      </trkpt>
      <trkpt lat="47.04582" lon="-1.01558">
        <ele>124</ele>
        <time>2012-05-03T14:18:21Z</time>
      </trkpt>
      <trkpt lat="47.04582" lon="-1.01564">
        <ele>124</ele>
        <time>2012-05-03T14:18:22Z</time>
      </trkpt>
      <trkpt lat="47.04582" lon="-1.01568">
        <ele>124</ele>
        <time>2012-05-03T14:18:23Z</time>
      </trkpt>
      <trkpt lat="47.04583" lon="-1.01573">
        <ele>124</ele>
        <time>2012-05-03T14:18:24Z</time>
      </trkpt>
      <trkpt lat="47.04585" lon="-1.01577">
        <ele>124</ele>
        <time>2012-05-03T14:18:25Z</time>
      </trkpt>
      <trkpt lat="47.04587" lon="-1.01582">
        <ele>124</ele>
        <time>2012-05-03T14:18:26Z</time>
      </trkpt>
      <trkpt lat="47.04588" lon="-1.01587">
        <ele>124</ele>
        <time>2012-05-03T14:18:27Z</time>
      </trkpt>
      <trkpt lat="47.04591" lon="-1.01592">
        <ele>124</ele>
        <time>2012-05-03T14:18:28Z</time>
      </trkpt>
      <trkpt lat="47.04593" lon="-1.01597">
        <ele>124</ele>
        <time>2012-05-03T14:18:29Z</time>
      </trkpt>
      <trkpt lat="47.04594" lon="-1.01602">
        <ele>124</ele>
        <time>2012-05-03T14:18:30Z</time>
      </trkpt>
      <trkpt lat="47.04596" lon="-1.01608">
        <ele>124</ele>
        <time>2012-05-03T14:18:31Z</time>
      </trkpt>
      <trkpt lat="47.04598" lon="-1.01613">
        <ele>124</ele>
        <time>2012-05-03T14:18:32Z</time>
      </trkpt>
      <trkpt lat="47.04601" lon="-1.01618">
        <ele>124</ele>
        <time>2012-05-03T14:18:33Z</time>
      </trkpt>
      <trkpt lat="47.04603" lon="-1.01623">
        <ele>124</ele>
        <time>2012-05-03T14:18:34Z</time>
      </trkpt>
      <trkpt lat="47.04606" lon="-1.01629">
        <ele>124</ele>
        <time>2012-05-03T14:18:35Z</time>
      </trkpt>
      <trkpt lat="47.04608" lon="-1.01635">
        <ele>124</ele>
        <time>2012-05-03T14:18:36Z</time>
      </trkpt>
      <trkpt lat="47.0461" lon="-1.0164">
        <ele>124</ele>
        <time>2012-05-03T14:18:37Z</time>
      </trkpt>
      <trkpt lat="47.04613" lon="-1.01645">
        <ele>124</ele>
        <time>2012-05-03T14:18:38Z</time>
      </trkpt>
      <trkpt lat="47.04615" lon="-1.0165">
        <ele>124</ele>
        <time>2012-05-03T14:18:39Z</time>
      </trkpt>
      <trkpt lat="47.04617" lon="-1.01655">
        <ele>124</ele>
        <time>2012-05-03T14:18:40Z</time>
      </trkpt>
      <trkpt lat="47.04619" lon="-1.01661">
        <ele>124</ele>
        <time>2012-05-03T14:18:41Z</time>
      </trkpt>
      <trkpt lat="47.04622" lon="-1.01666">
        <ele>124</ele>
        <time>2012-05-03T14:18:42Z</time>
      </trkpt>
      <trkpt lat="47.04624" lon="-1.01673">
        <ele>124</ele>
        <time>2012-05-03T14:18:43Z</time>
      </trkpt>
      <trkpt lat="47.04626" lon="-1.01679">
        <ele>124</ele>
        <time>2012-05-03T14:18:44Z</time>
      </trkpt>
      <trkpt lat="47.04629" lon="-1.01685">
        <ele>124</ele>
        <time>2012-05-03T14:18:45Z</time>
      </trkpt>
      <trkpt lat="47.04631" lon="-1.01691">
        <ele>124</ele>
        <time>2012-05-03T14:18:46Z</time>
      </trkpt>
      <trkpt lat="47.04634" lon="-1.01697">
        <ele>124</ele>
        <time>2012-05-03T14:18:47Z</time>
      </trkpt>
      <trkpt lat="47.04636" lon="-1.01703">
        <ele>124</ele>
        <time>2012-05-03T14:18:48Z</time>
      </trkpt>
      <trkpt lat="47.04639" lon="-1.01709">
        <ele>124</ele>
        <time>2012-05-03T14:18:49Z</time>
      </trkpt>
      <trkpt lat="47.04641" lon="-1.01715">
        <ele>124</ele>
        <time>2012-05-03T14:18:50Z</time>
      </trkpt>
      <trkpt lat="47.04644" lon="-1.01721">
        <ele>124</ele>
        <time>2012-05-03T14:18:51Z</time>
      </trkpt>
      <trkpt lat="47.04648" lon="-1.01727">
        <ele>124</ele>
        <time>2012-05-03T14:18:52Z</time>
      </trkpt>
      <trkpt lat="47.04651" lon="-1.01732">
        <ele>124</ele>
        <time>2012-05-03T14:18:53Z</time>
      </trkpt>
      <trkpt lat="47.04654" lon="-1.01737">
        <ele>124</ele>
        <time>2012-05-03T14:18:54Z</time>
      </trkpt>
      <trkpt lat="47.04657" lon="-1.01743">
        <ele>124</ele>
        <time>2012-05-03T14:18:55Z</time>
      </trkpt>
      <trkpt lat="47.0466" lon="-1.01748">
        <ele>124</ele>
        <time>2012-05-03T14:18:56Z</time>
      </trkpt>
      <trkpt lat="47.04664" lon="-1.01753">
        <ele>124</ele>
        <time>2012-05-03T14:18:57Z</time>
      </trkpt>
      <trkpt lat="47.04668" lon="-1.01758">
        <ele>125</ele>
        <time>2012-05-03T14:18:58Z</time>
      </trkpt>
      <trkpt lat="47.04671" lon="-1.01763">
        <ele>125</ele>
        <time>2012-05-03T14:18:59Z</time>
      </trkpt>
      <trkpt lat="47.04675" lon="-1.01769">
        <ele>125</ele>
        <time>2012-05-03T14:19:00Z</time>
      </trkpt>
      <trkpt lat="47.04679" lon="-1.01775">
        <ele>125</ele>
        <time>2012-05-03T14:19:01Z</time>
      </trkpt>
      <trkpt lat="47.04682" lon="-1.0178">
        <ele>126</ele>
        <time>2012-05-03T14:19:02Z</time>
      </trkpt>
      <trkpt lat="47.04686" lon="-1.01786">
        <ele>126</ele>
        <time>2012-05-03T14:19:03Z</time>
      </trkpt>
      <trkpt lat="47.0469" lon="-1.01792">
        <ele>126</ele>
        <time>2012-05-03T14:19:04Z</time>
      </trkpt>
      <trkpt lat="47.04693" lon="-1.01797">
        <ele>127</ele>
        <time>2012-05-03T14:19:05Z</time>
      </trkpt>
      <trkpt lat="47.04697" lon="-1.01803">
        <ele>127</ele>
        <time>2012-05-03T14:19:06Z</time>
      </trkpt>
      <trkpt lat="47.04701" lon="-1.01807">
        <ele>127</ele>
        <time>2012-05-03T14:19:07Z</time>
      </trkpt>
      <trkpt lat="47.04705" lon="-1.01813">
        <ele>128</ele>
        <time>2012-05-03T14:19:08Z</time>
      </trkpt>
      <trkpt lat="47.04708" lon="-1.01818">
        <ele>128</ele>
        <time>2012-05-03T14:19:09Z</time>
      </trkpt>
      <trkpt lat="47.04713" lon="-1.01825">
        <ele>128</ele>
        <time>2012-05-03T14:19:10Z</time>
      </trkpt>
      <trkpt lat="47.04716" lon="-1.01831">
        <ele>128</ele>
        <time>2012-05-03T14:19:11Z</time>
      </trkpt>
      <trkpt lat="47.0472" lon="-1.01836">
        <ele>128</ele>
        <time>2012-05-03T14:19:12Z</time>
      </trkpt>
      <trkpt lat="47.04724" lon="-1.01843">
        <ele>128</ele>
        <time>2012-05-03T14:19:13Z</time>
      </trkpt>
      <trkpt lat="47.04727" lon="-1.0185">
        <ele>128</ele>
        <time>2012-05-03T14:19:14Z</time>
      </trkpt>
      <trkpt lat="47.04732" lon="-1.01856">
        <ele>128</ele>
        <time>2012-05-03T14:19:15Z</time>
      </trkpt>
      <trkpt lat="47.04736" lon="-1.01862">
        <ele>128</ele>
        <time>2012-05-03T14:19:16Z</time>
      </trkpt>
      <trkpt lat="47.0474" lon="-1.01867">
        <ele>128</ele>
        <time>2012-05-03T14:19:17Z</time>
      </trkpt>
      <trkpt lat="47.04743" lon="-1.01872">
        <ele>128</ele>
        <time>2012-05-03T14:19:18Z</time>
      </trkpt>
      <trkpt lat="47.04747" lon="-1.01878">
        <ele>128</ele>
        <time>2012-05-03T14:19:19Z</time>
      </trkpt>
      <trkpt lat="47.04751" lon="-1.01884">
        <ele>128</ele>
        <time>2012-05-03T14:19:20Z</time>
      </trkpt>
      <trkpt lat="47.04755" lon="-1.01891">
        <ele>128</ele>
        <time>2012-05-03T14:19:21Z</time>
      </trkpt>
      <trkpt lat="47.04759" lon="-1.01897">
        <ele>128</ele>
        <time>2012-05-03T14:19:22Z</time>
      </trkpt>
      <trkpt lat="47.04763" lon="-1.01904">
        <ele>128</ele>
        <time>2012-05-03T14:19:23Z</time>
      </trkpt>
      <trkpt lat="47.04767" lon="-1.0191">
        <ele>128</ele>
        <time>2012-05-03T14:19:24Z</time>
      </trkpt>
      <trkpt lat="47.04771" lon="-1.01917">
        <ele>128</ele>
        <time>2012-05-03T14:19:25Z</time>
      </trkpt>
      <trkpt lat="47.04776" lon="-1.01925">
        <ele>128</ele>
        <time>2012-05-03T14:19:26Z</time>
      </trkpt>
      <trkpt lat="47.0478" lon="-1.01932">
        <ele>128</ele>
        <time>2012-05-03T14:19:27Z</time>
      </trkpt>
      <trkpt lat="47.04784" lon="-1.01939">
        <ele>128</ele>
        <time>2012-05-03T14:19:28Z</time>
      </trkpt>
      <trkpt lat="47.04787" lon="-1.01945">
        <ele>128</ele>
        <time>2012-05-03T14:19:29Z</time>
      </trkpt>
      <trkpt lat="47.0479" lon="-1.01953">
        <ele>128</ele>
        <time>2012-05-03T14:19:30Z</time>
      </trkpt>
      <trkpt lat="47.04794" lon="-1.0196">
        <ele>128</ele>
        <time>2012-05-03T14:19:31Z</time>
      </trkpt>
      <trkpt lat="47.04797" lon="-1.01968">
        <ele>128</ele>
        <time>2012-05-03T14:19:32Z</time>
      </trkpt>
      <trkpt lat="47.04799" lon="-1.01977">
        <ele>128</ele>
        <time>2012-05-03T14:19:33Z</time>
      </trkpt>
      <trkpt lat="47.04801" lon="-1.01985">
        <ele>128</ele>
        <time>2012-05-03T14:19:34Z</time>
      </trkpt>
      <trkpt lat="47.04802" lon="-1.01993">
        <ele>128</ele>
        <time>2012-05-03T14:19:35Z</time>
      </trkpt>
      <trkpt lat="47.04804" lon="-1.02001">
        <ele>127</ele>
        <time>2012-05-03T14:19:36Z</time>
      </trkpt>
      <trkpt lat="47.04807" lon="-1.02009">
        <ele>127</ele>
        <time>2012-05-03T14:19:37Z</time>
      </trkpt>
      <trkpt lat="47.04809" lon="-1.02016">
        <ele>127</ele>
        <time>2012-05-03T14:19:38Z</time>
      </trkpt>
      <trkpt lat="47.04812" lon="-1.02024">
        <ele>127</ele>
        <time>2012-05-03T14:19:39Z</time>
      </trkpt>
      <trkpt lat="47.04814" lon="-1.02032">
        <ele>127</ele>
        <time>2012-05-03T14:19:40Z</time>
      </trkpt>
      <trkpt lat="47.04816" lon="-1.0204">
        <ele>126</ele>
        <time>2012-05-03T14:19:41Z</time>
      </trkpt>
      <trkpt lat="47.04817" lon="-1.02048">
        <ele>126</ele>
        <time>2012-05-03T14:19:42Z</time>
      </trkpt>
      <trkpt lat="47.04818" lon="-1.02056">
        <ele>126</ele>
        <time>2012-05-03T14:19:43Z</time>
      </trkpt>
      <trkpt lat="47.04819" lon="-1.02065">
        <ele>126</ele>
        <time>2012-05-03T14:19:44Z</time>
      </trkpt>
      <trkpt lat="47.0482" lon="-1.02073">
        <ele>126</ele>
        <time>2012-05-03T14:19:45Z</time>
      </trkpt>
      <trkpt lat="47.04821" lon="-1.02081">
        <ele>126</ele>
        <time>2012-05-03T14:19:46Z</time>
      </trkpt>
      <trkpt lat="47.04823" lon="-1.02089">
        <ele>125</ele>
        <time>2012-05-03T14:19:47Z</time>
      </trkpt>
      <trkpt lat="47.04826" lon="-1.02097">
        <ele>125</ele>
        <time>2012-05-03T14:19:48Z</time>
      </trkpt>
      <trkpt lat="47.04828" lon="-1.02104">
        <ele>125</ele>
        <time>2012-05-03T14:19:49Z</time>
      </trkpt>
      <trkpt lat="47.04831" lon="-1.02112">
        <ele>125</ele>
        <time>2012-05-03T14:19:50Z</time>
      </trkpt>
      <trkpt lat="47.04834" lon="-1.02119">
        <ele>125</ele>
        <time>2012-05-03T14:19:51Z</time>
      </trkpt>
      <trkpt lat="47.04837" lon="-1.02127">
        <ele>125</ele>
        <time>2012-05-03T14:19:52Z</time>
      </trkpt>
      <trkpt lat="47.04841" lon="-1.02134">
        <ele>125</ele>
        <time>2012-05-03T14:19:53Z</time>
      </trkpt>
      <trkpt lat="47.04844" lon="-1.0214">
        <ele>125</ele>
        <time>2012-05-03T14:19:54Z</time>
      </trkpt>
      <trkpt lat="47.04848" lon="-1.02147">
        <ele>125</ele>
        <time>2012-05-03T14:19:55Z</time>
      </trkpt>
      <trkpt lat="47.04852" lon="-1.02154">
        <ele>125</ele>
        <time>2012-05-03T14:19:56Z</time>
      </trkpt>
      <trkpt lat="47.04855" lon="-1.0216">
        <ele>125</ele>
        <time>2012-05-03T14:19:57Z</time>
      </trkpt>
      <trkpt lat="47.04858" lon="-1.02166">
        <ele>125</ele>
        <time>2012-05-03T14:19:58Z</time>
      </trkpt>
      <trkpt lat="47.04862" lon="-1.02173">
        <ele>125</ele>
        <time>2012-05-03T14:19:59Z</time>
      </trkpt>
      <trkpt lat="47.04865" lon="-1.02179">
        <ele>125</ele>
        <time>2012-05-03T14:20:00Z</time>
      </trkpt>
      <trkpt lat="47.04868" lon="-1.02185">
        <ele>125</ele>
        <time>2012-05-03T14:20:01Z</time>
      </trkpt>
      <trkpt lat="47.04871" lon="-1.02191">
        <ele>125</ele>
        <time>2012-05-03T14:20:02Z</time>
      </trkpt>
      <trkpt lat="47.04874" lon="-1.02197">
        <ele>125</ele>
        <time>2012-05-03T14:20:03Z</time>
      </trkpt>
      <trkpt lat="47.04877" lon="-1.02202">
        <ele>125</ele>
        <time>2012-05-03T14:20:04Z</time>
      </trkpt>
      <trkpt lat="47.04879" lon="-1.02208">
        <ele>125</ele>
        <time>2012-05-03T14:20:05Z</time>
      </trkpt>
      <trkpt lat="47.04881" lon="-1.02214">
        <ele>125</ele>
        <time>2012-05-03T14:20:06Z</time>
      </trkpt>
      <trkpt lat="47.0488" lon="-1.02221">
        <ele>125</ele>
        <time>2012-05-03T14:20:07Z</time>
      </trkpt>
      <trkpt lat="47.04877" lon="-1.02227">
        <ele>125</ele>
        <time>2012-05-03T14:20:08Z</time>
      </trkpt>
      <trkpt lat="47.04874" lon="-1.02232">
        <ele>125</ele>
        <time>2012-05-03T14:20:09Z</time>
      </trkpt>
      <trkpt lat="47.0487" lon="-1.02238">
        <ele>125</ele>
        <time>2012-05-03T14:20:10Z</time>
      </trkpt>
      <trkpt lat="47.04867" lon="-1.02243">
        <ele>125</ele>
        <time>2012-05-03T14:20:11Z</time>
      </trkpt>
      <trkpt lat="47.04863" lon="-1.02249">
        <ele>125</ele>
        <time>2012-05-03T14:20:12Z</time>
      </trkpt>
      <trkpt lat="47.0486" lon="-1.02255">
        <ele>125</ele>
        <time>2012-05-03T14:20:13Z</time>
      </trkpt>
      <trkpt lat="47.04856" lon="-1.02262">
        <ele>125</ele>
        <time>2012-05-03T14:20:14Z</time>
      </trkpt>
      <trkpt lat="47.04852" lon="-1.02268">
        <ele>125</ele>
        <time>2012-05-03T14:20:15Z</time>
      </trkpt>
      <trkpt lat="47.04848" lon="-1.02273">
        <ele>125</ele>
        <time>2012-05-03T14:20:16Z</time>
      </trkpt>
      <trkpt lat="47.04845" lon="-1.02278">
        <ele>125</ele>
        <time>2012-05-03T14:20:17Z</time>
      </trkpt>
      <trkpt lat="47.04841" lon="-1.02283">
        <ele>125</ele>
        <time>2012-05-03T14:20:18Z</time>
      </trkpt>
      <trkpt lat="47.04838" lon="-1.02287">
        <ele>125</ele>
        <time>2012-05-03T14:20:19Z</time>
      </trkpt>
      <trkpt lat="47.04836" lon="-1.0229">
        <ele>125</ele>
        <time>2012-05-03T14:20:20Z</time>
      </trkpt>
      <trkpt lat="47.04834" lon="-1.02293">
        <ele>124</ele>
        <time>2012-05-03T14:20:21Z</time>
      </trkpt>
      <trkpt lat="47.04832" lon="-1.02294">
        <ele>124</ele>
        <time>2012-05-03T14:20:22Z</time>
      </trkpt>
      <trkpt lat="47.04831" lon="-1.02295">
        <ele>124</ele>
        <time>2012-05-03T14:20:23Z</time>
      </trkpt>
      <trkpt lat="47.04831" lon="-1.02297">
        <ele>124</ele>
        <time>2012-05-03T14:20:29Z</time>
      </trkpt>
      <trkpt lat="47.0483" lon="-1.02297">
        <ele>124</ele>
        <time>2012-05-03T14:20:31Z</time>
      </trkpt>
      <trkpt lat="47.04828" lon="-1.02299">
        <ele>124</ele>
        <time>2012-05-03T14:20:33Z</time>
      </trkpt>
      <trkpt lat="47.04826" lon="-1.023">
        <ele>124</ele>
        <time>2012-05-03T14:20:35Z</time>
      </trkpt>
      <trkpt lat="47.04825" lon="-1.02302">
        <ele>124</ele>
        <time>2012-05-03T14:20:36Z</time>
      </trkpt>
      <trkpt lat="47.04823" lon="-1.02304">
        <ele>123</ele>
        <time>2012-05-03T14:20:37Z</time>
      </trkpt>
      <trkpt lat="47.04821" lon="-1.02306">
        <ele>123</ele>
        <time>2012-05-03T14:20:38Z</time>
      </trkpt>
      <trkpt lat="47.0482" lon="-1.02309">
        <ele>123</ele>
        <time>2012-05-03T14:20:39Z</time>
      </trkpt>
      <trkpt lat="47.04818" lon="-1.02312">
        <ele>123</ele>
        <time>2012-05-03T14:20:40Z</time>
      </trkpt>
      <trkpt lat="47.04816" lon="-1.02316">
        <ele>122</ele>
        <time>2012-05-03T14:20:41Z</time>
      </trkpt>
      <trkpt lat="47.04814" lon="-1.0232">
        <ele>122</ele>
        <time>2012-05-03T14:20:42Z</time>
      </trkpt>
      <trkpt lat="47.04811" lon="-1.02324">
        <ele>122</ele>
        <time>2012-05-03T14:20:43Z</time>
      </trkpt>
      <trkpt lat="47.04809" lon="-1.02329">
        <ele>122</ele>
        <time>2012-05-03T14:20:44Z</time>
      </trkpt>
      <trkpt lat="47.04806" lon="-1.02334">
        <ele>122</ele>
        <time>2012-05-03T14:20:45Z</time>
      </trkpt>
      <trkpt lat="47.04803" lon="-1.02339">
        <ele>122</ele>
        <time>2012-05-03T14:20:46Z</time>
      </trkpt>
      <trkpt lat="47.04801" lon="-1.02344">
        <ele>122</ele>
        <time>2012-05-03T14:20:47Z</time>
      </trkpt>
      <trkpt lat="47.04798" lon="-1.02349">
        <ele>122</ele>
        <time>2012-05-03T14:20:48Z</time>
      </trkpt>
      <trkpt lat="47.04795" lon="-1.02354">
        <ele>122</ele>
        <time>2012-05-03T14:20:49Z</time>
      </trkpt>
      <trkpt lat="47.04792" lon="-1.02358">
        <ele>122</ele>
        <time>2012-05-03T14:20:50Z</time>
      </trkpt>
      <trkpt lat="47.04789" lon="-1.02363">
        <ele>122</ele>
        <time>2012-05-03T14:20:51Z</time>
      </trkpt>
      <trkpt lat="47.04787" lon="-1.02367">
        <ele>122</ele>
        <time>2012-05-03T14:20:52Z</time>
      </trkpt>
      <trkpt lat="47.04784" lon="-1.02372">
        <ele>122</ele>
        <time>2012-05-03T14:20:53Z</time>
      </trkpt>
      <trkpt lat="47.04781" lon="-1.02377">
        <ele>122</ele>
        <time>2012-05-03T14:20:54Z</time>
      </trkpt>
      <trkpt lat="47.04778" lon="-1.02382">
        <ele>122</ele>
        <time>2012-05-03T14:20:55Z</time>
      </trkpt>
      <trkpt lat="47.04776" lon="-1.02386">
        <ele>122</ele>
        <time>2012-05-03T14:20:56Z</time>
      </trkpt>
      <trkpt lat="47.04773" lon="-1.02391">
        <ele>122</ele>
        <time>2012-05-03T14:20:57Z</time>
      </trkpt>
      <trkpt lat="47.0477" lon="-1.02396">
        <ele>122</ele>
        <time>2012-05-03T14:20:58Z</time>
      </trkpt>
      <trkpt lat="47.04767" lon="-1.02401">
        <ele>122</ele>
        <time>2012-05-03T14:20:59Z</time>
      </trkpt>
      <trkpt lat="47.04765" lon="-1.02405">
        <ele>122</ele>
        <time>2012-05-03T14:21:00Z</time>
      </trkpt>
      <trkpt lat="47.04762" lon="-1.0241">
        <ele>122</ele>
        <time>2012-05-03T14:21:01Z</time>
      </trkpt>
      <trkpt lat="47.0476" lon="-1.02415">
        <ele>122</ele>
        <time>2012-05-03T14:21:02Z</time>
      </trkpt>
      <trkpt lat="47.04757" lon="-1.0242">
        <ele>122</ele>
        <time>2012-05-03T14:21:03Z</time>
      </trkpt>
      <trkpt lat="47.04754" lon="-1.02425">
        <ele>122</ele>
        <time>2012-05-03T14:21:04Z</time>
      </trkpt>
      <trkpt lat="47.04751" lon="-1.0243">
        <ele>122</ele>
        <time>2012-05-03T14:21:05Z</time>
      </trkpt>
      <trkpt lat="47.04748" lon="-1.02435">
        <ele>122</ele>
        <time>2012-05-03T14:21:06Z</time>
      </trkpt>
      <trkpt lat="47.04745" lon="-1.0244">
        <ele>122</ele>
        <time>2012-05-03T14:21:07Z</time>
      </trkpt>
      <trkpt lat="47.04742" lon="-1.02446">
        <ele>122</ele>
        <time>2012-05-03T14:21:08Z</time>
      </trkpt>
      <trkpt lat="47.04739" lon="-1.02451">
        <ele>122</ele>
        <time>2012-05-03T14:21:09Z</time>
      </trkpt>
      <trkpt lat="47.04736" lon="-1.02457">
        <ele>122</ele>
        <time>2012-05-03T14:21:10Z</time>
      </trkpt>
      <trkpt lat="47.04733" lon="-1.02463">
        <ele>122</ele>
        <time>2012-05-03T14:21:11Z</time>
      </trkpt>
      <trkpt lat="47.04729" lon="-1.02469">
        <ele>122</ele>
        <time>2012-05-03T14:21:12Z</time>
      </trkpt>
      <trkpt lat="47.04726" lon="-1.02474">
        <ele>122</ele>
        <time>2012-05-03T14:21:13Z</time>
      </trkpt>
      <trkpt lat="47.04723" lon="-1.0248">
        <ele>122</ele>
        <time>2012-05-03T14:21:14Z</time>
      </trkpt>
      <trkpt lat="47.0472" lon="-1.02486">
        <ele>122</ele>
        <time>2012-05-03T14:21:15Z</time>
      </trkpt>
      <trkpt lat="47.04716" lon="-1.02492">
        <ele>122</ele>
        <time>2012-05-03T14:21:16Z</time>
      </trkpt>
      <trkpt lat="47.04713" lon="-1.02498">
        <ele>122</ele>
        <time>2012-05-03T14:21:17Z</time>
      </trkpt>
      <trkpt lat="47.0471" lon="-1.02504">
        <ele>121</ele>
        <time>2012-05-03T14:21:18Z</time>
      </trkpt>
      <trkpt lat="47.04707" lon="-1.02509">
        <ele>121</ele>
        <time>2012-05-03T14:21:19Z</time>
      </trkpt>
      <trkpt lat="47.04705" lon="-1.02515">
        <ele>121</ele>
        <time>2012-05-03T14:21:20Z</time>
      </trkpt>
      <trkpt lat="47.04702" lon="-1.02521">
        <ele>121</ele>
        <time>2012-05-03T14:21:21Z</time>
      </trkpt>
      <trkpt lat="47.047" lon="-1.02527">
        <ele>121</ele>
        <time>2012-05-03T14:21:22Z</time>
      </trkpt>
      <trkpt lat="47.04697" lon="-1.02534">
        <ele>120</ele>
        <time>2012-05-03T14:21:23Z</time>
      </trkpt>
      <trkpt lat="47.04695" lon="-1.0254">
        <ele>120</ele>
        <time>2012-05-03T14:21:24Z</time>
      </trkpt>
      <trkpt lat="47.04693" lon="-1.02547">
        <ele>120</ele>
        <time>2012-05-03T14:21:25Z</time>
      </trkpt>
      <trkpt lat="47.04691" lon="-1.02554">
        <ele>120</ele>
        <time>2012-05-03T14:21:26Z</time>
      </trkpt>
      <trkpt lat="47.04688" lon="-1.0256">
        <ele>120</ele>
        <time>2012-05-03T14:21:27Z</time>
      </trkpt>
      <trkpt lat="47.04686" lon="-1.02567">
        <ele>119</ele>
        <time>2012-05-03T14:21:28Z</time>
      </trkpt>
      <trkpt lat="47.04684" lon="-1.02573">
        <ele>119</ele>
        <time>2012-05-03T14:21:29Z</time>
      </trkpt>
      <trkpt lat="47.04681" lon="-1.02578">
        <ele>119</ele>
        <time>2012-05-03T14:21:30Z</time>
      </trkpt>
      <trkpt lat="47.04678" lon="-1.02582">
        <ele>119</ele>
        <time>2012-05-03T14:21:31Z</time>
      </trkpt>
      <trkpt lat="47.04674" lon="-1.02581">
        <ele>119</ele>
        <time>2012-05-03T14:21:32Z</time>
      </trkpt>
      <trkpt lat="47.0467" lon="-1.02579">
        <ele>119</ele>
        <time>2012-05-03T14:21:33Z</time>
      </trkpt>
      <trkpt lat="47.04666" lon="-1.02577">
        <ele>118</ele>
        <time>2012-05-03T14:21:34Z</time>
      </trkpt>
      <trkpt lat="47.04662" lon="-1.02574">
        <ele>118</ele>
        <time>2012-05-03T14:21:35Z</time>
      </trkpt>
      <trkpt lat="47.04657" lon="-1.02572">
        <ele>118</ele>
        <time>2012-05-03T14:21:36Z</time>
      </trkpt>
      <trkpt lat="47.04653" lon="-1.02569">
        <ele>118</ele>
        <time>2012-05-03T14:21:37Z</time>
      </trkpt>
      <trkpt lat="47.04649" lon="-1.02567">
        <ele>118</ele>
        <time>2012-05-03T14:21:38Z</time>
      </trkpt>
      <trkpt lat="47.04645" lon="-1.02564">
        <ele>118</ele>
        <time>2012-05-03T14:21:39Z</time>
      </trkpt>
      <trkpt lat="47.04641" lon="-1.02562">
        <ele>118</ele>
        <time>2012-05-03T14:21:40Z</time>
      </trkpt>
      <trkpt lat="47.04637" lon="-1.02559">
        <ele>118</ele>
        <time>2012-05-03T14:21:41Z</time>
      </trkpt>
      <trkpt lat="47.04633" lon="-1.02557">
        <ele>118</ele>
        <time>2012-05-03T14:21:42Z</time>
      </trkpt>
      <trkpt lat="47.04628" lon="-1.02554">
        <ele>118</ele>
        <time>2012-05-03T14:21:43Z</time>
      </trkpt>
      <trkpt lat="47.04624" lon="-1.02552">
        <ele>118</ele>
        <time>2012-05-03T14:21:44Z</time>
      </trkpt>
      <trkpt lat="47.0462" lon="-1.0255">
        <ele>118</ele>
        <time>2012-05-03T14:21:45Z</time>
      </trkpt>
      <trkpt lat="47.04616" lon="-1.02547">
        <ele>118</ele>
        <time>2012-05-03T14:21:46Z</time>
      </trkpt>
      <trkpt lat="47.04612" lon="-1.02545">
        <ele>118</ele>
        <time>2012-05-03T14:21:47Z</time>
      </trkpt>
      <trkpt lat="47.04608" lon="-1.02542">
        <ele>118</ele>
        <time>2012-05-03T14:21:48Z</time>
      </trkpt>
      <trkpt lat="47.04604" lon="-1.02541">
        <ele>118</ele>
        <time>2012-05-03T14:21:49Z</time>
      </trkpt>
      <trkpt lat="47.046" lon="-1.02539">
        <ele>118</ele>
        <time>2012-05-03T14:21:50Z</time>
      </trkpt>
      <trkpt lat="47.04596" lon="-1.02537">
        <ele>118</ele>
        <time>2012-05-03T14:21:51Z</time>
      </trkpt>
      <trkpt lat="47.04591" lon="-1.02535">
        <ele>118</ele>
        <time>2012-05-03T14:21:52Z</time>
      </trkpt>
      <trkpt lat="47.04587" lon="-1.02533">
        <ele>118</ele>
        <time>2012-05-03T14:21:53Z</time>
      </trkpt>
      <trkpt lat="47.04583" lon="-1.02532">
        <ele>118</ele>
        <time>2012-05-03T14:21:54Z</time>
      </trkpt>
      <trkpt lat="47.04579" lon="-1.02529">
        <ele>118</ele>
        <time>2012-05-03T14:21:55Z</time>
      </trkpt>
      <trkpt lat="47.04575" lon="-1.02527">
        <ele>118</ele>
        <time>2012-05-03T14:21:56Z</time>
      </trkpt>
      <trkpt lat="47.04571" lon="-1.02525">
        <ele>118</ele>
        <time>2012-05-03T14:21:57Z</time>
      </trkpt>
      <trkpt lat="47.04567" lon="-1.02523">
        <ele>118</ele>
        <time>2012-05-03T14:21:58Z</time>
      </trkpt>
      <trkpt lat="47.04562" lon="-1.02521">
        <ele>118</ele>
        <time>2012-05-03T14:21:59Z</time>
      </trkpt>
      <trkpt lat="47.04558" lon="-1.0252">
        <ele>118</ele>
        <time>2012-05-03T14:22:00Z</time>
      </trkpt>
      <trkpt lat="47.04554" lon="-1.02518">
        <ele>118</ele>
        <time>2012-05-03T14:22:01Z</time>
      </trkpt>
      <trkpt lat="47.0455" lon="-1.02516">
        <ele>118</ele>
        <time>2012-05-03T14:22:02Z</time>
      </trkpt>
      <trkpt lat="47.04546" lon="-1.02514">
        <ele>118</ele>
        <time>2012-05-03T14:22:03Z</time>
      </trkpt>
      <trkpt lat="47.04541" lon="-1.02512">
        <ele>118</ele>
        <time>2012-05-03T14:22:04Z</time>
      </trkpt>
      <trkpt lat="47.04537" lon="-1.0251">
        <ele>118</ele>
        <time>2012-05-03T14:22:05Z</time>
      </trkpt>
      <trkpt lat="47.04532" lon="-1.02508">
        <ele>118</ele>
        <time>2012-05-03T14:22:06Z</time>
      </trkpt>
      <trkpt lat="47.04528" lon="-1.02506">
        <ele>118</ele>
        <time>2012-05-03T14:22:07Z</time>
      </trkpt>
      <trkpt lat="47.04523" lon="-1.02504">
        <ele>118</ele>
        <time>2012-05-03T14:22:08Z</time>
      </trkpt>
      <trkpt lat="47.04519" lon="-1.02502">
        <ele>118</ele>
        <time>2012-05-03T14:22:09Z</time>
      </trkpt>
      <trkpt lat="47.04515" lon="-1.025">
        <ele>118</ele>
        <time>2012-05-03T14:22:10Z</time>
      </trkpt>
      <trkpt lat="47.0451" lon="-1.02498">
        <ele>118</ele>
        <time>2012-05-03T14:22:11Z</time>
      </trkpt>
      <trkpt lat="47.04506" lon="-1.02496">
        <ele>118</ele>
        <time>2012-05-03T14:22:12Z</time>
      </trkpt>
      <trkpt lat="47.04501" lon="-1.02494">
        <ele>118</ele>
        <time>2012-05-03T14:22:13Z</time>
      </trkpt>
      <trkpt lat="47.04496" lon="-1.02492">
        <ele>118</ele>
        <time>2012-05-03T14:22:14Z</time>
      </trkpt>
      <trkpt lat="47.04492" lon="-1.0249">
        <ele>118</ele>
        <time>2012-05-03T14:22:15Z</time>
      </trkpt>
      <trkpt lat="47.04487" lon="-1.02488">
        <ele>118</ele>
        <time>2012-05-03T14:22:16Z</time>
      </trkpt>
      <trkpt lat="47.04483" lon="-1.02486">
        <ele>118</ele>
        <time>2012-05-03T14:22:17Z</time>
      </trkpt>
      <trkpt lat="47.04478" lon="-1.02484">
        <ele>118</ele>
        <time>2012-05-03T14:22:18Z</time>
      </trkpt>
      <trkpt lat="47.04473" lon="-1.02481">
        <ele>118</ele>
        <time>2012-05-03T14:22:19Z</time>
      </trkpt>
      <trkpt lat="47.04468" lon="-1.02479">
        <ele>118</ele>
        <time>2012-05-03T14:22:20Z</time>
      </trkpt>
      <trkpt lat="47.04463" lon="-1.02477">
        <ele>118</ele>
        <time>2012-05-03T14:22:21Z</time>
      </trkpt>
      <trkpt lat="47.04459" lon="-1.02475">
        <ele>118</ele>
        <time>2012-05-03T14:22:22Z</time>
      </trkpt>
      <trkpt lat="47.04454" lon="-1.02473">
        <ele>118</ele>
        <time>2012-05-03T14:22:23Z</time>
      </trkpt>
      <trkpt lat="47.04449" lon="-1.02471">
        <ele>118</ele>
        <time>2012-05-03T14:22:24Z</time>
      </trkpt>
      <trkpt lat="47.04445" lon="-1.02469">
        <ele>118</ele>
        <time>2012-05-03T14:22:25Z</time>
      </trkpt>
      <trkpt lat="47.0444" lon="-1.02467">
        <ele>118</ele>
        <time>2012-05-03T14:22:26Z</time>
      </trkpt>
      <trkpt lat="47.04435" lon="-1.02465">
        <ele>118</ele>
        <time>2012-05-03T14:22:27Z</time>
      </trkpt>
      <trkpt lat="47.0443" lon="-1.02465">
        <ele>118</ele>
        <time>2012-05-03T14:22:28Z</time>
      </trkpt>
      <trkpt lat="47.04426" lon="-1.02465">
        <ele>118</ele>
        <time>2012-05-03T14:22:29Z</time>
      </trkpt>
      <trkpt lat="47.04421" lon="-1.02464">
        <ele>118</ele>
        <time>2012-05-03T14:22:30Z</time>
      </trkpt>
      <trkpt lat="47.04418" lon="-1.02461">
        <ele>118</ele>
        <time>2012-05-03T14:22:31Z</time>
      </trkpt>
      <trkpt lat="47.04417" lon="-1.02456">
        <ele>118</ele>
        <time>2012-05-03T14:22:32Z</time>
      </trkpt>
      <trkpt lat="47.04418" lon="-1.0245">
        <ele>118</ele>
        <time>2012-05-03T14:22:33Z</time>
      </trkpt>
      <trkpt lat="47.04418" lon="-1.02444">
        <ele>118</ele>
        <time>2012-05-03T14:22:34Z</time>
      </trkpt>
      <trkpt lat="47.04419" lon="-1.02437">
        <ele>118</ele>
        <time>2012-05-03T14:22:35Z</time>
      </trkpt>
      <trkpt lat="47.04419" lon="-1.0243">
        <ele>118</ele>
        <time>2012-05-03T14:22:36Z</time>
      </trkpt>
      <trkpt lat="47.04419" lon="-1.02424">
        <ele>118</ele>
        <time>2012-05-03T14:22:37Z</time>
      </trkpt>
      <trkpt lat="47.0442" lon="-1.02417">
        <ele>118</ele>
        <time>2012-05-03T14:22:38Z</time>
      </trkpt>
      <trkpt lat="47.0442" lon="-1.02411">
        <ele>118</ele>
        <time>2012-05-03T14:22:39Z</time>
      </trkpt>
      <trkpt lat="47.04421" lon="-1.02404">
        <ele>118</ele>
        <time>2012-05-03T14:22:40Z</time>
      </trkpt>
      <trkpt lat="47.04422" lon="-1.02398">
        <ele>118</ele>
        <time>2012-05-03T14:22:41Z</time>
      </trkpt>
      <trkpt lat="47.04423" lon="-1.02392">
        <ele>118</ele>
        <time>2012-05-03T14:22:42Z</time>
      </trkpt>
      <trkpt lat="47.04423" lon="-1.02386">
        <ele>118</ele>
        <time>2012-05-03T14:22:43Z</time>
      </trkpt>
      <trkpt lat="47.04421" lon="-1.02381">
        <ele>118</ele>
        <time>2012-05-03T14:22:44Z</time>
      </trkpt>
      <trkpt lat="47.04419" lon="-1.02376">
        <ele>118</ele>
        <time>2012-05-03T14:22:45Z</time>
      </trkpt>
      <trkpt lat="47.04416" lon="-1.02372">
        <ele>118</ele>
        <time>2012-05-03T14:22:46Z</time>
      </trkpt>
      <trkpt lat="47.04412" lon="-1.02372">
        <ele>118</ele>
        <time>2012-05-03T14:22:47Z</time>
      </trkpt>
      <trkpt lat="47.04408" lon="-1.02373">
        <ele>118</ele>
        <time>2012-05-03T14:22:48Z</time>
      </trkpt>
      <trkpt lat="47.04404" lon="-1.02374">
        <ele>118</ele>
        <time>2012-05-03T14:22:49Z</time>
      </trkpt>
      <trkpt lat="47.04401" lon="-1.02375">
        <ele>118</ele>
        <time>2012-05-03T14:22:50Z</time>
      </trkpt>
      <trkpt lat="47.04397" lon="-1.02375">
        <ele>118</ele>
        <time>2012-05-03T14:22:51Z</time>
      </trkpt>
      <trkpt lat="47.04393" lon="-1.02375">
        <ele>118</ele>
        <time>2012-05-03T14:22:52Z</time>
      </trkpt>
      <trkpt lat="47.04389" lon="-1.02376">
        <ele>118</ele>
        <time>2012-05-03T14:22:53Z</time>
      </trkpt>
      <trkpt lat="47.04385" lon="-1.02376">
        <ele>118</ele>
        <time>2012-05-03T14:22:54Z</time>
      </trkpt>
      <trkpt lat="47.0438" lon="-1.02376">
        <ele>118</ele>
        <time>2012-05-03T14:22:55Z</time>
      </trkpt>
      <trkpt lat="47.04376" lon="-1.02377">
        <ele>118</ele>
        <time>2012-05-03T14:22:56Z</time>
      </trkpt>
      <trkpt lat="47.04372" lon="-1.02377">
        <ele>118</ele>
        <time>2012-05-03T14:22:57Z</time>
      </trkpt>
      <trkpt lat="47.04368" lon="-1.02378">
        <ele>118</ele>
        <time>2012-05-03T14:22:58Z</time>
      </trkpt>
      <trkpt lat="47.04364" lon="-1.02378">
        <ele>118</ele>
        <time>2012-05-03T14:22:59Z</time>
      </trkpt>
      <trkpt lat="47.04359" lon="-1.02379">
        <ele>118</ele>
        <time>2012-05-03T14:23:00Z</time>
      </trkpt>
      <trkpt lat="47.04355" lon="-1.0238">
        <ele>118</ele>
        <time>2012-05-03T14:23:01Z</time>
      </trkpt>
      <trkpt lat="47.04351" lon="-1.02379">
        <ele>118</ele>
        <time>2012-05-03T14:23:02Z</time>
      </trkpt>
      <trkpt lat="47.04348" lon="-1.02379">
        <ele>118</ele>
        <time>2012-05-03T14:23:03Z</time>
      </trkpt>
      <trkpt lat="47.04343" lon="-1.02379">
        <ele>118</ele>
        <time>2012-05-03T14:23:04Z</time>
      </trkpt>
      <trkpt lat="47.0434" lon="-1.02379">
        <ele>118</ele>
        <time>2012-05-03T14:23:05Z</time>
      </trkpt>
      <trkpt lat="47.04335" lon="-1.02379">
        <ele>118</ele>
        <time>2012-05-03T14:23:06Z</time>
      </trkpt>
      <trkpt lat="47.04331" lon="-1.02379">
        <ele>118</ele>
        <time>2012-05-03T14:23:07Z</time>
      </trkpt>
      <trkpt lat="47.04326" lon="-1.0238">
        <ele>118</ele>
        <time>2012-05-03T14:23:08Z</time>
      </trkpt>
      <trkpt lat="47.04322" lon="-1.0238">
        <ele>118</ele>
        <time>2012-05-03T14:23:09Z</time>
      </trkpt>
      <trkpt lat="47.04317" lon="-1.0238">
        <ele>118</ele>
        <time>2012-05-03T14:23:10Z</time>
      </trkpt>
      <trkpt lat="47.04313" lon="-1.0238">
        <ele>118</ele>
        <time>2012-05-03T14:23:11Z</time>
      </trkpt>
      <trkpt lat="47.04309" lon="-1.0238">
        <ele>118</ele>
        <time>2012-05-03T14:23:12Z</time>
      </trkpt>
      <trkpt lat="47.04305" lon="-1.02381">
        <ele>118</ele>
        <time>2012-05-03T14:23:13Z</time>
      </trkpt>
      <trkpt lat="47.043" lon="-1.02381">
        <ele>118</ele>
        <time>2012-05-03T14:23:14Z</time>
      </trkpt>
      <trkpt lat="47.04296" lon="-1.02382">
        <ele>118</ele>
        <time>2012-05-03T14:23:15Z</time>
      </trkpt>
      <trkpt lat="47.04292" lon="-1.02382">
        <ele>118</ele>
        <time>2012-05-03T14:23:16Z</time>
      </trkpt>
      <trkpt lat="47.04287" lon="-1.02383">
        <ele>118</ele>
        <time>2012-05-03T14:23:17Z</time>
      </trkpt>
      <trkpt lat="47.04282" lon="-1.02383">
        <ele>118</ele>
        <time>2012-05-03T14:23:18Z</time>
      </trkpt>
      <trkpt lat="47.04278" lon="-1.02384">
        <ele>118</ele>
        <time>2012-05-03T14:23:19Z</time>
      </trkpt>
      <trkpt lat="47.04274" lon="-1.02384">
        <ele>118</ele>
        <time>2012-05-03T14:23:20Z</time>
      </trkpt>
      <trkpt lat="47.0427" lon="-1.02384">
        <ele>118</ele>
        <time>2012-05-03T14:23:21Z</time>
      </trkpt>
      <trkpt lat="47.04266" lon="-1.02384">
        <ele>119</ele>
        <time>2012-05-03T14:23:22Z</time>
      </trkpt>
      <trkpt lat="47.04262" lon="-1.02383">
        <ele>119</ele>
        <time>2012-05-03T14:23:23Z</time>
      </trkpt>
      <trkpt lat="47.04258" lon="-1.02383">
        <ele>119</ele>
        <time>2012-05-03T14:23:24Z</time>
      </trkpt>
      <trkpt lat="47.04253" lon="-1.02384">
        <ele>119</ele>
        <time>2012-05-03T14:23:25Z</time>
      </trkpt>
      <trkpt lat="47.04249" lon="-1.02384">
        <ele>119</ele>
        <time>2012-05-03T14:23:26Z</time>
      </trkpt>
      <trkpt lat="47.04244" lon="-1.02384">
        <ele>119</ele>
        <time>2012-05-03T14:23:27Z</time>
      </trkpt>
      <trkpt lat="47.04239" lon="-1.02385">
        <ele>119</ele>
        <time>2012-05-03T14:23:28Z</time>
      </trkpt>
      <trkpt lat="47.04235" lon="-1.02385">
        <ele>119</ele>
        <time>2012-05-03T14:23:29Z</time>
      </trkpt>
      <trkpt lat="47.0423" lon="-1.02386">
        <ele>119</ele>
        <time>2012-05-03T14:23:30Z</time>
      </trkpt>
      <trkpt lat="47.04224" lon="-1.02386">
        <ele>119</ele>
        <time>2012-05-03T14:23:31Z</time>
      </trkpt>
      <trkpt lat="47.04219" lon="-1.02387">
        <ele>119</ele>
        <time>2012-05-03T14:23:32Z</time>
      </trkpt>
      <trkpt lat="47.04214" lon="-1.02388">
        <ele>119</ele>
        <time>2012-05-03T14:23:33Z</time>
      </trkpt>
      <trkpt lat="47.04209" lon="-1.02388">
        <ele>119</ele>
        <time>2012-05-03T14:23:34Z</time>
      </trkpt>
      <trkpt lat="47.04204" lon="-1.02387">
        <ele>119</ele>
        <time>2012-05-03T14:23:35Z</time>
      </trkpt>
      <trkpt lat="47.042" lon="-1.02386">
        <ele>119</ele>
        <time>2012-05-03T14:23:36Z</time>
      </trkpt>
      <trkpt lat="47.04195" lon="-1.02386">
        <ele>119</ele>
        <time>2012-05-03T14:23:37Z</time>
      </trkpt>
      <trkpt lat="47.0419" lon="-1.02384">
        <ele>119</ele>
        <time>2012-05-03T14:23:38Z</time>
      </trkpt>
      <trkpt lat="47.04184" lon="-1.02383">
        <ele>119</ele>
        <time>2012-05-03T14:23:39Z</time>
      </trkpt>
      <trkpt lat="47.0418" lon="-1.02381">
        <ele>119</ele>
        <time>2012-05-03T14:23:40Z</time>
      </trkpt>
      <trkpt lat="47.04176" lon="-1.02378">
        <ele>119</ele>
        <time>2012-05-03T14:23:41Z</time>
      </trkpt>
      <trkpt lat="47.04171" lon="-1.02376">
        <ele>119</ele>
        <time>2012-05-03T14:23:42Z</time>
      </trkpt>
      <trkpt lat="47.04167" lon="-1.02374">
        <ele>119</ele>
        <time>2012-05-03T14:23:43Z</time>
      </trkpt>
      <trkpt lat="47.04163" lon="-1.02372">
        <ele>119</ele>
        <time>2012-05-03T14:23:44Z</time>
      </trkpt>
      <trkpt lat="47.04158" lon="-1.0237">
        <ele>119</ele>
        <time>2012-05-03T14:23:45Z</time>
      </trkpt>
      <trkpt lat="47.04154" lon="-1.02368">
        <ele>119</ele>
        <time>2012-05-03T14:23:46Z</time>
      </trkpt>
      <trkpt lat="47.04149" lon="-1.02366">
        <ele>119</ele>
        <time>2012-05-03T14:23:47Z</time>
      </trkpt>
      <trkpt lat="47.04145" lon="-1.02364">
        <ele>119</ele>
        <time>2012-05-03T14:23:48Z</time>
      </trkpt>
      <trkpt lat="47.0414" lon="-1.02362">
        <ele>119</ele>
        <time>2012-05-03T14:23:49Z</time>
      </trkpt>
      <trkpt lat="47.04136" lon="-1.02359">
        <ele>119</ele>
        <time>2012-05-03T14:23:50Z</time>
      </trkpt>
      <trkpt lat="47.04131" lon="-1.02357">
        <ele>119</ele>
        <time>2012-05-03T14:23:51Z</time>
      </trkpt>
      <trkpt lat="47.04126" lon="-1.02355">
        <ele>119</ele>
        <time>2012-05-03T14:23:52Z</time>
      </trkpt>
      <trkpt lat="47.04122" lon="-1.02353">
        <ele>119</ele>
        <time>2012-05-03T14:23:53Z</time>
      </trkpt>
      <trkpt lat="47.04117" lon="-1.02351">
        <ele>119</ele>
        <time>2012-05-03T14:23:54Z</time>
      </trkpt>
      <trkpt lat="47.04113" lon="-1.02349">
        <ele>119</ele>
        <time>2012-05-03T14:23:55Z</time>
      </trkpt>
      <trkpt lat="47.04108" lon="-1.02346">
        <ele>119</ele>
        <time>2012-05-03T14:23:56Z</time>
      </trkpt>
      <trkpt lat="47.04104" lon="-1.02344">
        <ele>119</ele>
        <time>2012-05-03T14:23:57Z</time>
      </trkpt>
      <trkpt lat="47.04099" lon="-1.02342">
        <ele>119</ele>
        <time>2012-05-03T14:23:58Z</time>
      </trkpt>
      <trkpt lat="47.04095" lon="-1.02339">
        <ele>119</ele>
        <time>2012-05-03T14:23:59Z</time>
      </trkpt>
      <trkpt lat="47.0409" lon="-1.02338">
        <ele>119</ele>
        <time>2012-05-03T14:24:00Z</time>
      </trkpt>
      <trkpt lat="47.04086" lon="-1.02335">
        <ele>119</ele>
        <time>2012-05-03T14:24:01Z</time>
      </trkpt>
      <trkpt lat="47.04081" lon="-1.02333">
        <ele>119</ele>
        <time>2012-05-03T14:24:02Z</time>
      </trkpt>
      <trkpt lat="47.04077" lon="-1.02331">
        <ele>119</ele>
        <time>2012-05-03T14:24:03Z</time>
      </trkpt>
      <trkpt lat="47.04073" lon="-1.02328">
        <ele>119</ele>
        <time>2012-05-03T14:24:04Z</time>
      </trkpt>
      <trkpt lat="47.04068" lon="-1.02326">
        <ele>119</ele>
        <time>2012-05-03T14:24:05Z</time>
      </trkpt>
      <trkpt lat="47.04064" lon="-1.02324">
        <ele>119</ele>
        <time>2012-05-03T14:24:06Z</time>
      </trkpt>
      <trkpt lat="47.04059" lon="-1.02322">
        <ele>119</ele>
        <time>2012-05-03T14:24:07Z</time>
      </trkpt>
      <trkpt lat="47.04055" lon="-1.0232">
        <ele>119</ele>
        <time>2012-05-03T14:24:08Z</time>
      </trkpt>
      <trkpt lat="47.0405" lon="-1.02318">
        <ele>119</ele>
        <time>2012-05-03T14:24:09Z</time>
      </trkpt>
      <trkpt lat="47.04046" lon="-1.02316">
        <ele>119</ele>
        <time>2012-05-03T14:24:10Z</time>
      </trkpt>
      <trkpt lat="47.04041" lon="-1.02314">
        <ele>120</ele>
        <time>2012-05-03T14:24:11Z</time>
      </trkpt>
      <trkpt lat="47.04036" lon="-1.02312">
        <ele>120</ele>
        <time>2012-05-03T14:24:12Z</time>
      </trkpt>
      <trkpt lat="47.04032" lon="-1.02311">
        <ele>120</ele>
        <time>2012-05-03T14:24:13Z</time>
      </trkpt>
      <trkpt lat="47.04027" lon="-1.0231">
        <ele>120</ele>
        <time>2012-05-03T14:24:14Z</time>
      </trkpt>
      <trkpt lat="47.04023" lon="-1.02309">
        <ele>120</ele>
        <time>2012-05-03T14:24:15Z</time>
      </trkpt>
      <trkpt lat="47.04018" lon="-1.02308">
        <ele>120</ele>
        <time>2012-05-03T14:24:16Z</time>
      </trkpt>
      <trkpt lat="47.04013" lon="-1.02307">
        <ele>121</ele>
        <time>2012-05-03T14:24:17Z</time>
      </trkpt>
      <trkpt lat="47.04009" lon="-1.02306">
        <ele>121</ele>
        <time>2012-05-03T14:24:18Z</time>
      </trkpt>
      <trkpt lat="47.04004" lon="-1.02305">
        <ele>121</ele>
        <time>2012-05-03T14:24:19Z</time>
      </trkpt>
      <trkpt lat="47.04" lon="-1.02304">
        <ele>121</ele>
        <time>2012-05-03T14:24:20Z</time>
      </trkpt>
      <trkpt lat="47.03995" lon="-1.02303">
        <ele>122</ele>
        <time>2012-05-03T14:24:21Z</time>
      </trkpt>
      <trkpt lat="47.0399" lon="-1.02303">
        <ele>122</ele>
        <time>2012-05-03T14:24:22Z</time>
      </trkpt>
      <trkpt lat="47.03985" lon="-1.02302">
        <ele>122</ele>
        <time>2012-05-03T14:24:23Z</time>
      </trkpt>
      <trkpt lat="47.0398" lon="-1.02301">
        <ele>122</ele>
        <time>2012-05-03T14:24:24Z</time>
      </trkpt>
      <trkpt lat="47.03975" lon="-1.023">
        <ele>122</ele>
        <time>2012-05-03T14:24:25Z</time>
      </trkpt>
      <trkpt lat="47.0397" lon="-1.02299">
        <ele>122</ele>
        <time>2012-05-03T14:24:26Z</time>
      </trkpt>
      <trkpt lat="47.03965" lon="-1.02298">
        <ele>122</ele>
        <time>2012-05-03T14:24:27Z</time>
      </trkpt>
      <trkpt lat="47.0396" lon="-1.02297">
        <ele>123</ele>
        <time>2012-05-03T14:24:28Z</time>
      </trkpt>
      <trkpt lat="47.03955" lon="-1.02296">
        <ele>123</ele>
        <time>2012-05-03T14:24:29Z</time>
      </trkpt>
      <trkpt lat="47.03949" lon="-1.02296">
        <ele>123</ele>
        <time>2012-05-03T14:24:30Z</time>
      </trkpt>
      <trkpt lat="47.03944" lon="-1.02295">
        <ele>123</ele>
        <time>2012-05-03T14:24:31Z</time>
      </trkpt>
      <trkpt lat="47.03939" lon="-1.02294">
        <ele>123</ele>
        <time>2012-05-03T14:24:32Z</time>
      </trkpt>
      <trkpt lat="47.03933" lon="-1.02294">
        <ele>123</ele>
        <time>2012-05-03T14:24:33Z</time>
      </trkpt>
      <trkpt lat="47.03928" lon="-1.02293">
        <ele>123</ele>
        <time>2012-05-03T14:24:34Z</time>
      </trkpt>
      <trkpt lat="47.03922" lon="-1.02292">
        <ele>123</ele>
        <time>2012-05-03T14:24:35Z</time>
      </trkpt>
      <trkpt lat="47.03917" lon="-1.02291">
        <ele>123</ele>
        <time>2012-05-03T14:24:36Z</time>
      </trkpt>
      <trkpt lat="47.03911" lon="-1.0229">
        <ele>123</ele>
        <time>2012-05-03T14:24:37Z</time>
      </trkpt>
      <trkpt lat="47.03906" lon="-1.02289">
        <ele>123</ele>
        <time>2012-05-03T14:24:38Z</time>
      </trkpt>
      <trkpt lat="47.039" lon="-1.02288">
        <ele>123</ele>
        <time>2012-05-03T14:24:39Z</time>
      </trkpt>
      <trkpt lat="47.03895" lon="-1.02287">
        <ele>123</ele>
        <time>2012-05-03T14:24:40Z</time>
      </trkpt>
      <trkpt lat="47.03889" lon="-1.02287">
        <ele>124</ele>
        <time>2012-05-03T14:24:41Z</time>
      </trkpt>
      <trkpt lat="47.03884" lon="-1.02286">
        <ele>124</ele>
        <time>2012-05-03T14:24:42Z</time>
      </trkpt>
      <trkpt lat="47.03878" lon="-1.02285">
        <ele>124</ele>
        <time>2012-05-03T14:24:43Z</time>
      </trkpt>
      <trkpt lat="47.03873" lon="-1.02284">
        <ele>124</ele>
        <time>2012-05-03T14:24:44Z</time>
      </trkpt>
      <trkpt lat="47.03868" lon="-1.02283">
        <ele>124</ele>
        <time>2012-05-03T14:24:45Z</time>
      </trkpt>
      <trkpt lat="47.03862" lon="-1.02282">
        <ele>124</ele>
        <time>2012-05-03T14:24:46Z</time>
      </trkpt>
      <trkpt lat="47.03857" lon="-1.02281">
        <ele>124</ele>
        <time>2012-05-03T14:24:47Z</time>
      </trkpt>
      <trkpt lat="47.03851" lon="-1.0228">
        <ele>124</ele>
        <time>2012-05-03T14:24:48Z</time>
      </trkpt>
      <trkpt lat="47.03846" lon="-1.02279">
        <ele>124</ele>
        <time>2012-05-03T14:24:49Z</time>
      </trkpt>
      <trkpt lat="47.0384" lon="-1.02278">
        <ele>124</ele>
        <time>2012-05-03T14:24:50Z</time>
      </trkpt>
      <trkpt lat="47.03835" lon="-1.02278">
        <ele>124</ele>
        <time>2012-05-03T14:24:51Z</time>
      </trkpt>
      <trkpt lat="47.03829" lon="-1.02276">
        <ele>124</ele>
        <time>2012-05-03T14:24:52Z</time>
      </trkpt>
      <trkpt lat="47.03823" lon="-1.02276">
        <ele>124</ele>
        <time>2012-05-03T14:24:53Z</time>
      </trkpt>
      <trkpt lat="47.03817" lon="-1.02275">
        <ele>124</ele>
        <time>2012-05-03T14:24:54Z</time>
      </trkpt>
      <trkpt lat="47.03812" lon="-1.02273">
        <ele>124</ele>
        <time>2012-05-03T14:24:55Z</time>
      </trkpt>
      <trkpt lat="47.03806" lon="-1.02272">
        <ele>124</ele>
        <time>2012-05-03T14:24:56Z</time>
      </trkpt>
      <trkpt lat="47.038" lon="-1.02272">
        <ele>124</ele>
        <time>2012-05-03T14:24:57Z</time>
      </trkpt>
      <trkpt lat="47.03795" lon="-1.02271">
        <ele>125</ele>
        <time>2012-05-03T14:24:58Z</time>
      </trkpt>
      <trkpt lat="47.03789" lon="-1.0227">
        <ele>125</ele>
        <time>2012-05-03T14:24:59Z</time>
      </trkpt>
      <trkpt lat="47.03783" lon="-1.02269">
        <ele>125</ele>
        <time>2012-05-03T14:25:00Z</time>
      </trkpt>
      <trkpt lat="47.03778" lon="-1.02268">
        <ele>125</ele>
        <time>2012-05-03T14:25:01Z</time>
      </trkpt>
      <trkpt lat="47.03773" lon="-1.02266">
        <ele>125</ele>
        <time>2012-05-03T14:25:02Z</time>
      </trkpt>
      <trkpt lat="47.03767" lon="-1.02264">
        <ele>125</ele>
        <time>2012-05-03T14:25:03Z</time>
      </trkpt>
      <trkpt lat="47.03762" lon="-1.02262">
        <ele>125</ele>
        <time>2012-05-03T14:25:04Z</time>
      </trkpt>
      <trkpt lat="47.03756" lon="-1.0226">
        <ele>125</ele>
        <time>2012-05-03T14:25:05Z</time>
      </trkpt>
      <trkpt lat="47.03751" lon="-1.02257">
        <ele>125</ele>
        <time>2012-05-03T14:25:06Z</time>
      </trkpt>
      <trkpt lat="47.03746" lon="-1.02254">
        <ele>125</ele>
        <time>2012-05-03T14:25:07Z</time>
      </trkpt>
      <trkpt lat="47.03741" lon="-1.02252">
        <ele>125</ele>
        <time>2012-05-03T14:25:08Z</time>
      </trkpt>
      <trkpt lat="47.03736" lon="-1.02249">
        <ele>125</ele>
        <time>2012-05-03T14:25:09Z</time>
      </trkpt>
      <trkpt lat="47.03731" lon="-1.02246">
        <ele>125</ele>
        <time>2012-05-03T14:25:10Z</time>
      </trkpt>
      <trkpt lat="47.03726" lon="-1.02244">
        <ele>125</ele>
        <time>2012-05-03T14:25:11Z</time>
      </trkpt>
      <trkpt lat="47.03721" lon="-1.02242">
        <ele>126</ele>
        <time>2012-05-03T14:25:12Z</time>
      </trkpt>
      <trkpt lat="47.03716" lon="-1.0224">
        <ele>126</ele>
        <time>2012-05-03T14:25:13Z</time>
      </trkpt>
      <trkpt lat="47.03711" lon="-1.02238">
        <ele>126</ele>
        <time>2012-05-03T14:25:14Z</time>
      </trkpt>
      <trkpt lat="47.03706" lon="-1.02236">
        <ele>126</ele>
        <time>2012-05-03T14:25:15Z</time>
      </trkpt>
      <trkpt lat="47.03702" lon="-1.02235">
        <ele>126</ele>
        <time>2012-05-03T14:25:16Z</time>
      </trkpt>
      <trkpt lat="47.03697" lon="-1.02233">
        <ele>127</ele>
        <time>2012-05-03T14:25:17Z</time>
      </trkpt>
      <trkpt lat="47.03693" lon="-1.02231">
        <ele>127</ele>
        <time>2012-05-03T14:25:18Z</time>
      </trkpt>
      <trkpt lat="47.03688" lon="-1.02229">
        <ele>127</ele>
        <time>2012-05-03T14:25:19Z</time>
      </trkpt>
      <trkpt lat="47.03683" lon="-1.02227">
        <ele>127</ele>
        <time>2012-05-03T14:25:20Z</time>
      </trkpt>
      <trkpt lat="47.03679" lon="-1.02226">
        <ele>127</ele>
        <time>2012-05-03T14:25:21Z</time>
      </trkpt>
      <trkpt lat="47.03674" lon="-1.02224">
        <ele>127</ele>
        <time>2012-05-03T14:25:22Z</time>
      </trkpt>
      <trkpt lat="47.03669" lon="-1.02222">
        <ele>127</ele>
        <time>2012-05-03T14:25:23Z</time>
      </trkpt>
      <trkpt lat="47.03665" lon="-1.02221">
        <ele>127</ele>
        <time>2012-05-03T14:25:24Z</time>
      </trkpt>
      <trkpt lat="47.0366" lon="-1.02219">
        <ele>127</ele>
        <time>2012-05-03T14:25:25Z</time>
      </trkpt>
      <trkpt lat="47.03656" lon="-1.02218">
        <ele>127</ele>
        <time>2012-05-03T14:25:26Z</time>
      </trkpt>
      <trkpt lat="47.03651" lon="-1.02216">
        <ele>128</ele>
        <time>2012-05-03T14:25:27Z</time>
      </trkpt>
      <trkpt lat="47.03646" lon="-1.02214">
        <ele>128</ele>
        <time>2012-05-03T14:25:28Z</time>
      </trkpt>
      <trkpt lat="47.03642" lon="-1.02212">
        <ele>128</ele>
        <time>2012-05-03T14:25:29Z</time>
      </trkpt>
      <trkpt lat="47.03637" lon="-1.0221">
        <ele>128</ele>
        <time>2012-05-03T14:25:30Z</time>
      </trkpt>
      <trkpt lat="47.03633" lon="-1.02206">
        <ele>128</ele>
        <time>2012-05-03T14:25:31Z</time>
      </trkpt>
      <trkpt lat="47.0363" lon="-1.02202">
        <ele>128</ele>
        <time>2012-05-03T14:25:32Z</time>
      </trkpt>
      <trkpt lat="47.03627" lon="-1.02197">
        <ele>128</ele>
        <time>2012-05-03T14:25:33Z</time>
      </trkpt>
      <trkpt lat="47.03624" lon="-1.02192">
        <ele>128</ele>
        <time>2012-05-03T14:25:34Z</time>
      </trkpt>
      <trkpt lat="47.03621" lon="-1.02186">
        <ele>128</ele>
        <time>2012-05-03T14:25:35Z</time>
      </trkpt>
      <trkpt lat="47.03618" lon="-1.02181">
        <ele>128</ele>
        <time>2012-05-03T14:25:36Z</time>
      </trkpt>
      <trkpt lat="47.03615" lon="-1.02175">
        <ele>128</ele>
        <time>2012-05-03T14:25:37Z</time>
      </trkpt>
      <trkpt lat="47.03612" lon="-1.0217">
        <ele>128</ele>
        <time>2012-05-03T14:25:38Z</time>
      </trkpt>
      <trkpt lat="47.03609" lon="-1.02164">
        <ele>129</ele>
        <time>2012-05-03T14:25:39Z</time>
      </trkpt>
      <trkpt lat="47.03606" lon="-1.02158">
        <ele>129</ele>
        <time>2012-05-03T14:25:40Z</time>
      </trkpt>
      <trkpt lat="47.03603" lon="-1.02152">
        <ele>129</ele>
        <time>2012-05-03T14:25:41Z</time>
      </trkpt>
      <trkpt lat="47.036" lon="-1.02146">
        <ele>129</ele>
        <time>2012-05-03T14:25:42Z</time>
      </trkpt>
      <trkpt lat="47.03598" lon="-1.0214">
        <ele>129</ele>
        <time>2012-05-03T14:25:43Z</time>
      </trkpt>
      <trkpt lat="47.03595" lon="-1.02134">
        <ele>129</ele>
        <time>2012-05-03T14:25:44Z</time>
      </trkpt>
      <trkpt lat="47.03592" lon="-1.02128">
        <ele>129</ele>
        <time>2012-05-03T14:25:45Z</time>
      </trkpt>
      <trkpt lat="47.03588" lon="-1.02122">
        <ele>129</ele>
        <time>2012-05-03T14:25:46Z</time>
      </trkpt>
      <trkpt lat="47.03585" lon="-1.02116">
        <ele>129</ele>
        <time>2012-05-03T14:25:47Z</time>
      </trkpt>
      <trkpt lat="47.03582" lon="-1.0211">
        <ele>129</ele>
        <time>2012-05-03T14:25:48Z</time>
      </trkpt>
      <trkpt lat="47.0358" lon="-1.02104">
        <ele>129</ele>
        <time>2012-05-03T14:25:49Z</time>
      </trkpt>
      <trkpt lat="47.03577" lon="-1.02098">
        <ele>129</ele>
        <time>2012-05-03T14:25:50Z</time>
      </trkpt>
      <trkpt lat="47.03574" lon="-1.02092">
        <ele>129</ele>
        <time>2012-05-03T14:25:51Z</time>
      </trkpt>
      <trkpt lat="47.03571" lon="-1.02085">
        <ele>129</ele>
        <time>2012-05-03T14:25:52Z</time>
      </trkpt>
      <trkpt lat="47.03568" lon="-1.02079">
        <ele>129</ele>
        <time>2012-05-03T14:25:53Z</time>
      </trkpt>
      <trkpt lat="47.03565" lon="-1.02073">
        <ele>129</ele>
        <time>2012-05-03T14:25:54Z</time>
      </trkpt>
      <trkpt lat="47.03562" lon="-1.02067">
        <ele>130</ele>
        <time>2012-05-03T14:25:55Z</time>
      </trkpt>
      <trkpt lat="47.03559" lon="-1.02061">
        <ele>130</ele>
        <time>2012-05-03T14:25:56Z</time>
      </trkpt>
      <trkpt lat="47.03556" lon="-1.02055">
        <ele>130</ele>
        <time>2012-05-03T14:25:57Z</time>
      </trkpt>
      <trkpt lat="47.03553" lon="-1.02049">
        <ele>130</ele>
        <time>2012-05-03T14:25:58Z</time>
      </trkpt>
      <trkpt lat="47.0355" lon="-1.02043">
        <ele>130</ele>
        <time>2012-05-03T14:25:59Z</time>
      </trkpt>
      <trkpt lat="47.03547" lon="-1.02037">
        <ele>130</ele>
        <time>2012-05-03T14:26:00Z</time>
      </trkpt>
      <trkpt lat="47.03544" lon="-1.02031">
        <ele>130</ele>
        <time>2012-05-03T14:26:01Z</time>
      </trkpt>
      <trkpt lat="47.03541" lon="-1.02025">
        <ele>130</ele>
        <time>2012-05-03T14:26:02Z</time>
      </trkpt>
      <trkpt lat="47.03538" lon="-1.02018">
        <ele>130</ele>
        <time>2012-05-03T14:26:03Z</time>
      </trkpt>
      <trkpt lat="47.03535" lon="-1.02012">
        <ele>130</ele>
        <time>2012-05-03T14:26:04Z</time>
      </trkpt>
      <trkpt lat="47.03532" lon="-1.02006">
        <ele>130</ele>
        <time>2012-05-03T14:26:05Z</time>
      </trkpt>
      <trkpt lat="47.03529" lon="-1.01999">
        <ele>130</ele>
        <time>2012-05-03T14:26:06Z</time>
      </trkpt>
      <trkpt lat="47.03526" lon="-1.01993">
        <ele>130</ele>
        <time>2012-05-03T14:26:07Z</time>
      </trkpt>
      <trkpt lat="47.03522" lon="-1.01987">
        <ele>130</ele>
        <time>2012-05-03T14:26:08Z</time>
      </trkpt>
      <trkpt lat="47.03519" lon="-1.0198">
        <ele>130</ele>
        <time>2012-05-03T14:26:09Z</time>
      </trkpt>
      <trkpt lat="47.03516" lon="-1.01974">
        <ele>130</ele>
        <time>2012-05-03T14:26:10Z</time>
      </trkpt>
      <trkpt lat="47.03513" lon="-1.01968">
        <ele>130</ele>
        <time>2012-05-03T14:26:11Z</time>
      </trkpt>
      <trkpt lat="47.0351" lon="-1.01961">
        <ele>130</ele>
        <time>2012-05-03T14:26:12Z</time>
      </trkpt>
      <trkpt lat="47.03507" lon="-1.01955">
        <ele>130</ele>
        <time>2012-05-03T14:26:13Z</time>
      </trkpt>
      <trkpt lat="47.03504" lon="-1.01948">
        <ele>130</ele>
        <time>2012-05-03T14:26:14Z</time>
      </trkpt>
      <trkpt lat="47.03501" lon="-1.01942">
        <ele>130</ele>
        <time>2012-05-03T14:26:15Z</time>
      </trkpt>
      <trkpt lat="47.03498" lon="-1.01936">
        <ele>130</ele>
        <time>2012-05-03T14:26:16Z</time>
      </trkpt>
      <trkpt lat="47.03495" lon="-1.01929">
        <ele>130</ele>
        <time>2012-05-03T14:26:17Z</time>
      </trkpt>
      <trkpt lat="47.03492" lon="-1.01923">
        <ele>130</ele>
        <time>2012-05-03T14:26:18Z</time>
      </trkpt>
      <trkpt lat="47.03488" lon="-1.01916">
        <ele>130</ele>
        <time>2012-05-03T14:26:19Z</time>
      </trkpt>
      <trkpt lat="47.03485" lon="-1.01909">
        <ele>130</ele>
        <time>2012-05-03T14:26:20Z</time>
      </trkpt>
      <trkpt lat="47.03482" lon="-1.01903">
        <ele>130</ele>
        <time>2012-05-03T14:26:21Z</time>
      </trkpt>
      <trkpt lat="47.03479" lon="-1.01896">
        <ele>130</ele>
        <time>2012-05-03T14:26:22Z</time>
      </trkpt>
      <trkpt lat="47.03476" lon="-1.01889">
        <ele>130</ele>
        <time>2012-05-03T14:26:23Z</time>
      </trkpt>
      <trkpt lat="47.03473" lon="-1.01883">
        <ele>130</ele>
        <time>2012-05-03T14:26:24Z</time>
      </trkpt>
      <trkpt lat="47.03469" lon="-1.01876">
        <ele>130</ele>
        <time>2012-05-03T14:26:25Z</time>
      </trkpt>
      <trkpt lat="47.03466" lon="-1.01869">
        <ele>130</ele>
        <time>2012-05-03T14:26:26Z</time>
      </trkpt>
      <trkpt lat="47.03463" lon="-1.01863">
        <ele>130</ele>
        <time>2012-05-03T14:26:27Z</time>
      </trkpt>
      <trkpt lat="47.0346" lon="-1.01856">
        <ele>130</ele>
        <time>2012-05-03T14:26:28Z</time>
      </trkpt>
      <trkpt lat="47.03456" lon="-1.01849">
        <ele>130</ele>
        <time>2012-05-03T14:26:29Z</time>
      </trkpt>
      <trkpt lat="47.03453" lon="-1.01843">
        <ele>130</ele>
        <time>2012-05-03T14:26:30Z</time>
      </trkpt>
      <trkpt lat="47.0345" lon="-1.01837">
        <ele>130</ele>
        <time>2012-05-03T14:26:31Z</time>
      </trkpt>
      <trkpt lat="47.03447" lon="-1.0183">
        <ele>130</ele>
        <time>2012-05-03T14:26:32Z</time>
      </trkpt>
      <trkpt lat="47.03444" lon="-1.01823">
        <ele>130</ele>
        <time>2012-05-03T14:26:33Z</time>
      </trkpt>
      <trkpt lat="47.03441" lon="-1.01816">
        <ele>130</ele>
        <time>2012-05-03T14:26:34Z</time>
      </trkpt>
      <trkpt lat="47.03438" lon="-1.0181">
        <ele>130</ele>
        <time>2012-05-03T14:26:35Z</time>
      </trkpt>
      <trkpt lat="47.03434" lon="-1.01804">
        <ele>130</ele>
        <time>2012-05-03T14:26:36Z</time>
      </trkpt>
      <trkpt lat="47.03431" lon="-1.01797">
        <ele>130</ele>
        <time>2012-05-03T14:26:37Z</time>
      </trkpt>
      <trkpt lat="47.03428" lon="-1.01791">
        <ele>130</ele>
        <time>2012-05-03T14:26:38Z</time>
      </trkpt>
      <trkpt lat="47.03425" lon="-1.01784">
        <ele>130</ele>
        <time>2012-05-03T14:26:39Z</time>
      </trkpt>
      <trkpt lat="47.03422" lon="-1.01778">
        <ele>131</ele>
        <time>2012-05-03T14:26:40Z</time>
      </trkpt>
      <trkpt lat="47.03418" lon="-1.01771">
        <ele>131</ele>
        <time>2012-05-03T14:26:41Z</time>
      </trkpt>
      <trkpt lat="47.03415" lon="-1.01765">
        <ele>131</ele>
        <time>2012-05-03T14:26:42Z</time>
      </trkpt>
      <trkpt lat="47.03412" lon="-1.01759">
        <ele>131</ele>
        <time>2012-05-03T14:26:43Z</time>
      </trkpt>
      <trkpt lat="47.03408" lon="-1.01752">
        <ele>131</ele>
        <time>2012-05-03T14:26:44Z</time>
      </trkpt>
      <trkpt lat="47.03404" lon="-1.01746">
        <ele>131</ele>
        <time>2012-05-03T14:26:45Z</time>
      </trkpt>
      <trkpt lat="47.034" lon="-1.01741">
        <ele>131</ele>
        <time>2012-05-03T14:26:46Z</time>
      </trkpt>
      <trkpt lat="47.03396" lon="-1.01735">
        <ele>131</ele>
        <time>2012-05-03T14:26:47Z</time>
      </trkpt>
      <trkpt lat="47.03391" lon="-1.0173">
        <ele>131</ele>
        <time>2012-05-03T14:26:48Z</time>
      </trkpt>
      <trkpt lat="47.03387" lon="-1.01725">
        <ele>131</ele>
        <time>2012-05-03T14:26:49Z</time>
      </trkpt>
      <trkpt lat="47.03382" lon="-1.0172">
        <ele>131</ele>
        <time>2012-05-03T14:26:50Z</time>
      </trkpt>
      <trkpt lat="47.03378" lon="-1.01715">
        <ele>131</ele>
        <time>2012-05-03T14:26:51Z</time>
      </trkpt>
      <trkpt lat="47.03373" lon="-1.01709">
        <ele>131</ele>
        <time>2012-05-03T14:26:52Z</time>
      </trkpt>
      <trkpt lat="47.0337" lon="-1.01704">
        <ele>131</ele>
        <time>2012-05-03T14:26:53Z</time>
      </trkpt>
      <trkpt lat="47.03366" lon="-1.01697">
        <ele>131</ele>
        <time>2012-05-03T14:26:54Z</time>
      </trkpt>
      <trkpt lat="47.03363" lon="-1.0169">
        <ele>131</ele>
        <time>2012-05-03T14:26:55Z</time>
      </trkpt>
      <trkpt lat="47.0336" lon="-1.01682">
        <ele>131</ele>
        <time>2012-05-03T14:26:56Z</time>
      </trkpt>
      <trkpt lat="47.03358" lon="-1.01674">
        <ele>131</ele>
        <time>2012-05-03T14:26:57Z</time>
      </trkpt>
      <trkpt lat="47.03356" lon="-1.01666">
        <ele>131</ele>
        <time>2012-05-03T14:26:58Z</time>
      </trkpt>
      <trkpt lat="47.03355" lon="-1.01657">
        <ele>131</ele>
        <time>2012-05-03T14:26:59Z</time>
      </trkpt>
      <trkpt lat="47.03355" lon="-1.01647">
        <ele>131</ele>
        <time>2012-05-03T14:27:00Z</time>
      </trkpt>
      <trkpt lat="47.03355" lon="-1.01638">
        <ele>131</ele>
        <time>2012-05-03T14:27:01Z</time>
      </trkpt>
      <trkpt lat="47.03356" lon="-1.01629">
        <ele>131</ele>
        <time>2012-05-03T14:27:02Z</time>
      </trkpt>
      <trkpt lat="47.03357" lon="-1.0162">
        <ele>131</ele>
        <time>2012-05-03T14:27:03Z</time>
      </trkpt>
      <trkpt lat="47.03358" lon="-1.01611">
        <ele>131</ele>
        <time>2012-05-03T14:27:04Z</time>
      </trkpt>
      <trkpt lat="47.0336" lon="-1.01602">
        <ele>131</ele>
        <time>2012-05-03T14:27:05Z</time>
      </trkpt>
      <trkpt lat="47.03361" lon="-1.01593">
        <ele>131</ele>
        <time>2012-05-03T14:27:06Z</time>
      </trkpt>
      <trkpt lat="47.03363" lon="-1.01585">
        <ele>131</ele>
        <time>2012-05-03T14:27:07Z</time>
      </trkpt>
      <trkpt lat="47.03364" lon="-1.01576">
        <ele>131</ele>
        <time>2012-05-03T14:27:08Z</time>
      </trkpt>
      <trkpt lat="47.03365" lon="-1.01567">
        <ele>131</ele>
        <time>2012-05-03T14:27:09Z</time>
      </trkpt>
      <trkpt lat="47.03365" lon="-1.01558">
        <ele>131</ele>
        <time>2012-05-03T14:27:10Z</time>
      </trkpt>
      <trkpt lat="47.03365" lon="-1.0155">
        <ele>131</ele>
        <time>2012-05-03T14:27:11Z</time>
      </trkpt>
      <trkpt lat="47.03364" lon="-1.01541">
        <ele>131</ele>
        <time>2012-05-03T14:27:12Z</time>
      </trkpt>
      <trkpt lat="47.03363" lon="-1.01533">
        <ele>131</ele>
        <time>2012-05-03T14:27:13Z</time>
      </trkpt>
      <trkpt lat="47.03362" lon="-1.01524">
        <ele>131</ele>
        <time>2012-05-03T14:27:14Z</time>
      </trkpt>
      <trkpt lat="47.0336" lon="-1.01516">
        <ele>131</ele>
        <time>2012-05-03T14:27:15Z</time>
      </trkpt>
      <trkpt lat="47.03358" lon="-1.01508">
        <ele>131</ele>
        <time>2012-05-03T14:27:16Z</time>
      </trkpt>
      <trkpt lat="47.03356" lon="-1.015">
        <ele>131</ele>
        <time>2012-05-03T14:27:17Z</time>
      </trkpt>
      <trkpt lat="47.03354" lon="-1.01492">
        <ele>131</ele>
        <time>2012-05-03T14:27:18Z</time>
      </trkpt>
      <trkpt lat="47.03351" lon="-1.01484">
        <ele>131</ele>
        <time>2012-05-03T14:27:19Z</time>
      </trkpt>
      <trkpt lat="47.03348" lon="-1.01476">
        <ele>131</ele>
        <time>2012-05-03T14:27:20Z</time>
      </trkpt>
      <trkpt lat="47.03345" lon="-1.01469">
        <ele>131</ele>
        <time>2012-05-03T14:27:21Z</time>
      </trkpt>
      <trkpt lat="47.03342" lon="-1.01462">
        <ele>131</ele>
        <time>2012-05-03T14:27:22Z</time>
      </trkpt>
      <trkpt lat="47.03339" lon="-1.01454">
        <ele>131</ele>
        <time>2012-05-03T14:27:23Z</time>
      </trkpt>
      <trkpt lat="47.03336" lon="-1.01447">
        <ele>131</ele>
        <time>2012-05-03T14:27:24Z</time>
      </trkpt>
      <trkpt lat="47.03332" lon="-1.0144">
        <ele>131</ele>
        <time>2012-05-03T14:27:26Z</time>
      </trkpt>
      <trkpt lat="47.03329" lon="-1.01433">
        <ele>131</ele>
        <time>2012-05-03T14:27:26Z</time>
      </trkpt>
      <trkpt lat="47.03325" lon="-1.01426">
        <ele>131</ele>
        <time>2012-05-03T14:27:27Z</time>
      </trkpt>
      <trkpt lat="47.03321" lon="-1.01419">
        <ele>131</ele>
        <time>2012-05-03T14:27:28Z</time>
      </trkpt>
      <trkpt lat="47.03318" lon="-1.01412">
        <ele>131</ele>
        <time>2012-05-03T14:27:29Z</time>
      </trkpt>
      <trkpt lat="47.03314" lon="-1.01405">
        <ele>131</ele>
        <time>2012-05-03T14:27:30Z</time>
      </trkpt>
      <trkpt lat="47.03311" lon="-1.01399">
        <ele>131</ele>
        <time>2012-05-03T14:27:31Z</time>
      </trkpt>
      <trkpt lat="47.03307" lon="-1.01392">
        <ele>131</ele>
        <time>2012-05-03T14:27:32Z</time>
      </trkpt>
      <trkpt lat="47.03304" lon="-1.01386">
        <ele>131</ele>
        <time>2012-05-03T14:27:33Z</time>
      </trkpt>
      <trkpt lat="47.03301" lon="-1.01379">
        <ele>131</ele>
        <time>2012-05-03T14:27:34Z</time>
      </trkpt>
      <trkpt lat="47.03298" lon="-1.01373">
        <ele>131</ele>
        <time>2012-05-03T14:27:35Z</time>
      </trkpt>
      <trkpt lat="47.03294" lon="-1.01367">
        <ele>131</ele>
        <time>2012-05-03T14:27:36Z</time>
      </trkpt>
      <trkpt lat="47.03291" lon="-1.01361">
        <ele>131</ele>
        <time>2012-05-03T14:27:37Z</time>
      </trkpt>
      <trkpt lat="47.03289" lon="-1.01355">
        <ele>131</ele>
        <time>2012-05-03T14:27:38Z</time>
      </trkpt>
      <trkpt lat="47.03286" lon="-1.01348">
        <ele>131</ele>
        <time>2012-05-03T14:27:39Z</time>
      </trkpt>
      <trkpt lat="47.03283" lon="-1.01342">
        <ele>131</ele>
        <time>2012-05-03T14:27:40Z</time>
      </trkpt>
      <trkpt lat="47.0328" lon="-1.01337">
        <ele>131</ele>
        <time>2012-05-03T14:27:41Z</time>
      </trkpt>
      <trkpt lat="47.03277" lon="-1.01331">
        <ele>131</ele>
        <time>2012-05-03T14:27:42Z</time>
      </trkpt>
      <trkpt lat="47.03274" lon="-1.01325">
        <ele>131</ele>
        <time>2012-05-03T14:27:43Z</time>
      </trkpt>
      <trkpt lat="47.03271" lon="-1.0132">
        <ele>131</ele>
        <time>2012-05-03T14:27:44Z</time>
      </trkpt>
      <trkpt lat="47.03268" lon="-1.01314">
        <ele>130</ele>
        <time>2012-05-03T14:27:45Z</time>
      </trkpt>
      <trkpt lat="47.03265" lon="-1.01309">
        <ele>130</ele>
        <time>2012-05-03T14:27:46Z</time>
      </trkpt>
      <trkpt lat="47.03263" lon="-1.01303">
        <ele>130</ele>
        <time>2012-05-03T14:27:47Z</time>
      </trkpt>
      <trkpt lat="47.0326" lon="-1.01298">
        <ele>130</ele>
        <time>2012-05-03T14:27:48Z</time>
      </trkpt>
      <trkpt lat="47.03257" lon="-1.01294">
        <ele>130</ele>
        <time>2012-05-03T14:27:49Z</time>
      </trkpt>
      <trkpt lat="47.03253" lon="-1.0129">
        <ele>130</ele>
        <time>2012-05-03T14:27:50Z</time>
      </trkpt>
      <trkpt lat="47.03248" lon="-1.0129">
        <ele>129</ele>
        <time>2012-05-03T14:27:51Z</time>
      </trkpt>
      <trkpt lat="47.03243" lon="-1.01291">
        <ele>129</ele>
        <time>2012-05-03T14:27:52Z</time>
      </trkpt>
      <trkpt lat="47.03238" lon="-1.01294">
        <ele>129</ele>
        <time>2012-05-03T14:27:53Z</time>
      </trkpt>
      <trkpt lat="47.03234" lon="-1.01298">
        <ele>128</ele>
        <time>2012-05-03T14:27:54Z</time>
      </trkpt>
      <trkpt lat="47.0323" lon="-1.01302">
        <ele>128</ele>
        <time>2012-05-03T14:27:55Z</time>
      </trkpt>
      <trkpt lat="47.03225" lon="-1.01305">
        <ele>127</ele>
        <time>2012-05-03T14:27:56Z</time>
      </trkpt>
      <trkpt lat="47.03222" lon="-1.01309">
        <ele>127</ele>
        <time>2012-05-03T14:27:57Z</time>
      </trkpt>
      <trkpt lat="47.03218" lon="-1.01312">
        <ele>127</ele>
        <time>2012-05-03T14:27:58Z</time>
      </trkpt>
      <trkpt lat="47.03214" lon="-1.01316">
        <ele>127</ele>
        <time>2012-05-03T14:27:59Z</time>
      </trkpt>
      <trkpt lat="47.0321" lon="-1.01319">
        <ele>127</ele>
        <time>2012-05-03T14:28:00Z</time>
      </trkpt>
      <trkpt lat="47.03206" lon="-1.01322">
        <ele>127</ele>
        <time>2012-05-03T14:28:01Z</time>
      </trkpt>
      <trkpt lat="47.03202" lon="-1.01326">
        <ele>127</ele>
        <time>2012-05-03T14:28:02Z</time>
      </trkpt>
      <trkpt lat="47.03198" lon="-1.0133">
        <ele>127</ele>
        <time>2012-05-03T14:28:03Z</time>
      </trkpt>
      <trkpt lat="47.03194" lon="-1.01335">
        <ele>127</ele>
        <time>2012-05-03T14:28:04Z</time>
      </trkpt>
      <trkpt lat="47.0319" lon="-1.01338">
        <ele>127</ele>
        <time>2012-05-03T14:28:05Z</time>
      </trkpt>
      <trkpt lat="47.03186" lon="-1.01342">
        <ele>127</ele>
        <time>2012-05-03T14:28:06Z</time>
      </trkpt>
      <trkpt lat="47.03182" lon="-1.01345">
        <ele>127</ele>
        <time>2012-05-03T14:28:07Z</time>
      </trkpt>
      <trkpt lat="47.03178" lon="-1.01348">
        <ele>127</ele>
        <time>2012-05-03T14:28:08Z</time>
      </trkpt>
      <trkpt lat="47.03173" lon="-1.01352">
        <ele>127</ele>
        <time>2012-05-03T14:28:09Z</time>
      </trkpt>
      <trkpt lat="47.03169" lon="-1.01355">
        <ele>127</ele>
        <time>2012-05-03T14:28:10Z</time>
      </trkpt>
      <trkpt lat="47.03165" lon="-1.01359">
        <ele>127</ele>
        <time>2012-05-03T14:28:11Z</time>
      </trkpt>
      <trkpt lat="47.03162" lon="-1.01362">
        <ele>127</ele>
        <time>2012-05-03T14:28:12Z</time>
      </trkpt>
      <trkpt lat="47.03157" lon="-1.01366">
        <ele>127</ele>
        <time>2012-05-03T14:28:13Z</time>
      </trkpt>
      <trkpt lat="47.03154" lon="-1.0137">
        <ele>127</ele>
        <time>2012-05-03T14:28:14Z</time>
      </trkpt>
      <trkpt lat="47.0315" lon="-1.01373">
        <ele>127</ele>
        <time>2012-05-03T14:28:15Z</time>
      </trkpt>
      <trkpt lat="47.03146" lon="-1.01377">
        <ele>127</ele>
        <time>2012-05-03T14:28:16Z</time>
      </trkpt>
      <trkpt lat="47.03142" lon="-1.0138">
        <ele>127</ele>
        <time>2012-05-03T14:28:17Z</time>
      </trkpt>
      <trkpt lat="47.03138" lon="-1.01383">
        <ele>127</ele>
        <time>2012-05-03T14:28:18Z</time>
      </trkpt>
      <trkpt lat="47.03134" lon="-1.01387">
        <ele>127</ele>
        <time>2012-05-03T14:28:19Z</time>
      </trkpt>
      <trkpt lat="47.03129" lon="-1.0139">
        <ele>127</ele>
        <time>2012-05-03T14:28:20Z</time>
      </trkpt>
      <trkpt lat="47.03125" lon="-1.01392">
        <ele>127</ele>
        <time>2012-05-03T14:28:21Z</time>
      </trkpt>
      <trkpt lat="47.0312" lon="-1.01395">
        <ele>127</ele>
        <time>2012-05-03T14:28:22Z</time>
      </trkpt>
      <trkpt lat="47.03116" lon="-1.01397">
        <ele>127</ele>
        <time>2012-05-03T14:28:23Z</time>
      </trkpt>
      <trkpt lat="47.03112" lon="-1.01399">
        <ele>127</ele>
        <time>2012-05-03T14:28:24Z</time>
      </trkpt>
      <trkpt lat="47.03107" lon="-1.01401">
        <ele>127</ele>
        <time>2012-05-03T14:28:25Z</time>
      </trkpt>
      <trkpt lat="47.03102" lon="-1.01402">
        <ele>127</ele>
        <time>2012-05-03T14:28:26Z</time>
      </trkpt>
      <trkpt lat="47.03098" lon="-1.01403">
        <ele>127</ele>
        <time>2012-05-03T14:28:27Z</time>
      </trkpt>
      <trkpt lat="47.03093" lon="-1.01405">
        <ele>127</ele>
        <time>2012-05-03T14:28:28Z</time>
      </trkpt>
      <trkpt lat="47.03088" lon="-1.01407">
        <ele>127</ele>
        <time>2012-05-03T14:28:29Z</time>
      </trkpt>
      <trkpt lat="47.03084" lon="-1.01409">
        <ele>127</ele>
        <time>2012-05-03T14:28:30Z</time>
      </trkpt>
      <trkpt lat="47.0308" lon="-1.01411">
        <ele>127</ele>
        <time>2012-05-03T14:28:31Z</time>
      </trkpt>
      <trkpt lat="47.03075" lon="-1.01414">
        <ele>127</ele>
        <time>2012-05-03T14:28:32Z</time>
      </trkpt>
      <trkpt lat="47.03071" lon="-1.01417">
        <ele>127</ele>
        <time>2012-05-03T14:28:33Z</time>
      </trkpt>
      <trkpt lat="47.03067" lon="-1.0142">
        <ele>127</ele>
        <time>2012-05-03T14:28:34Z</time>
      </trkpt>
      <trkpt lat="47.03063" lon="-1.01424">
        <ele>127</ele>
        <time>2012-05-03T14:28:35Z</time>
      </trkpt>
      <trkpt lat="47.03059" lon="-1.01427">
        <ele>127</ele>
        <time>2012-05-03T14:28:36Z</time>
      </trkpt>
      <trkpt lat="47.03055" lon="-1.01431">
        <ele>127</ele>
        <time>2012-05-03T14:28:37Z</time>
      </trkpt>
      <trkpt lat="47.03051" lon="-1.01435">
        <ele>127</ele>
        <time>2012-05-03T14:28:38Z</time>
      </trkpt>
      <trkpt lat="47.03047" lon="-1.01438">
        <ele>127</ele>
        <time>2012-05-03T14:28:39Z</time>
      </trkpt>
      <trkpt lat="47.03043" lon="-1.01442">
        <ele>127</ele>
        <time>2012-05-03T14:28:40Z</time>
      </trkpt>
      <trkpt lat="47.03039" lon="-1.01445">
        <ele>127</ele>
        <time>2012-05-03T14:28:41Z</time>
      </trkpt>
      <trkpt lat="47.03035" lon="-1.01448">
        <ele>127</ele>
        <time>2012-05-03T14:28:42Z</time>
      </trkpt>
      <trkpt lat="47.03031" lon="-1.01452">
        <ele>127</ele>
        <time>2012-05-03T14:28:43Z</time>
      </trkpt>
      <trkpt lat="47.03027" lon="-1.01455">
        <ele>127</ele>
        <time>2012-05-03T14:28:44Z</time>
      </trkpt>
      <trkpt lat="47.03023" lon="-1.01459">
        <ele>127</ele>
        <time>2012-05-03T14:28:45Z</time>
      </trkpt>
      <trkpt lat="47.03019" lon="-1.01463">
        <ele>127</ele>
        <time>2012-05-03T14:28:46Z</time>
      </trkpt>
      <trkpt lat="47.03016" lon="-1.01466">
        <ele>127</ele>
        <time>2012-05-03T14:28:47Z</time>
      </trkpt>
      <trkpt lat="47.03012" lon="-1.0147">
        <ele>127</ele>
        <time>2012-05-03T14:28:48Z</time>
      </trkpt>
      <trkpt lat="47.03008" lon="-1.01475">
        <ele>127</ele>
        <time>2012-05-03T14:28:49Z</time>
      </trkpt>
      <trkpt lat="47.03004" lon="-1.0148">
        <ele>127</ele>
        <time>2012-05-03T14:28:50Z</time>
      </trkpt>
      <trkpt lat="47.03001" lon="-1.01485">
        <ele>127</ele>
        <time>2012-05-03T14:28:51Z</time>
      </trkpt>
      <trkpt lat="47.02998" lon="-1.01491">
        <ele>127</ele>
        <time>2012-05-03T14:28:52Z</time>
      </trkpt>
      <trkpt lat="47.02996" lon="-1.01497">
        <ele>127</ele>
        <time>2012-05-03T14:28:53Z</time>
      </trkpt>
      <trkpt lat="47.02994" lon="-1.01503">
        <ele>127</ele>
        <time>2012-05-03T14:28:54Z</time>
      </trkpt>
      <trkpt lat="47.02992" lon="-1.01509">
        <ele>127</ele>
        <time>2012-05-03T14:28:55Z</time>
      </trkpt>
      <trkpt lat="47.0299" lon="-1.01516">
        <ele>127</ele>
        <time>2012-05-03T14:28:56Z</time>
      </trkpt>
      <trkpt lat="47.02989" lon="-1.01523">
        <ele>127</ele>
        <time>2012-05-03T14:28:57Z</time>
      </trkpt>
      <trkpt lat="47.02987" lon="-1.01529">
        <ele>127</ele>
        <time>2012-05-03T14:28:58Z</time>
      </trkpt>
      <trkpt lat="47.02986" lon="-1.01536">
        <ele>127</ele>
        <time>2012-05-03T14:28:59Z</time>
      </trkpt>
      <trkpt lat="47.02985" lon="-1.01542">
        <ele>127</ele>
        <time>2012-05-03T14:29:00Z</time>
      </trkpt>
      <trkpt lat="47.02985" lon="-1.01549">
        <ele>127</ele>
        <time>2012-05-03T14:29:01Z</time>
      </trkpt>
      <trkpt lat="47.02984" lon="-1.01556">
        <ele>127</ele>
        <time>2012-05-03T14:29:02Z</time>
      </trkpt>
      <trkpt lat="47.02984" lon="-1.01562">
        <ele>127</ele>
        <time>2012-05-03T14:29:03Z</time>
      </trkpt>
      <trkpt lat="47.02985" lon="-1.01568">
        <ele>127</ele>
        <time>2012-05-03T14:29:04Z</time>
      </trkpt>
      <trkpt lat="47.02984" lon="-1.01574">
        <ele>127</ele>
        <time>2012-05-03T14:29:05Z</time>
      </trkpt>
      <trkpt lat="47.02984" lon="-1.0158">
        <ele>127</ele>
        <time>2012-05-03T14:29:06Z</time>
      </trkpt>
      <trkpt lat="47.02983" lon="-1.01586">
        <ele>127</ele>
        <time>2012-05-03T14:29:07Z</time>
      </trkpt>
      <trkpt lat="47.02983" lon="-1.01592">
        <ele>127</ele>
        <time>2012-05-03T14:29:08Z</time>
      </trkpt>
      <trkpt lat="47.02982" lon="-1.01598">
        <ele>127</ele>
        <time>2012-05-03T14:29:09Z</time>
      </trkpt>
      <trkpt lat="47.02981" lon="-1.01604">
        <ele>127</ele>
        <time>2012-05-03T14:29:10Z</time>
      </trkpt>
      <trkpt lat="47.02979" lon="-1.0161">
        <ele>127</ele>
        <time>2012-05-03T14:29:11Z</time>
      </trkpt>
      <trkpt lat="47.02977" lon="-1.01616">
        <ele>127</ele>
        <time>2012-05-03T14:29:12Z</time>
      </trkpt>
      <trkpt lat="47.02976" lon="-1.01622">
        <ele>127</ele>
        <time>2012-05-03T14:29:13Z</time>
      </trkpt>
      <trkpt lat="47.02973" lon="-1.01627">
        <ele>127</ele>
        <time>2012-05-03T14:29:14Z</time>
      </trkpt>
      <trkpt lat="47.02971" lon="-1.01632">
        <ele>128</ele>
        <time>2012-05-03T14:29:15Z</time>
      </trkpt>
      <trkpt lat="47.02968" lon="-1.01637">
        <ele>128</ele>
        <time>2012-05-03T14:29:16Z</time>
      </trkpt>
      <trkpt lat="47.02965" lon="-1.01641">
        <ele>128</ele>
        <time>2012-05-03T14:29:17Z</time>
      </trkpt>
      <trkpt lat="47.02961" lon="-1.01646">
        <ele>128</ele>
        <time>2012-05-03T14:29:18Z</time>
      </trkpt>
      <trkpt lat="47.02958" lon="-1.0165">
        <ele>128</ele>
        <time>2012-05-03T14:29:19Z</time>
      </trkpt>
      <trkpt lat="47.02955" lon="-1.01655">
        <ele>128</ele>
        <time>2012-05-03T14:29:20Z</time>
      </trkpt>
      <trkpt lat="47.02952" lon="-1.01659">
        <ele>128</ele>
        <time>2012-05-03T14:29:21Z</time>
      </trkpt>
      <trkpt lat="47.02948" lon="-1.01664">
        <ele>128</ele>
        <time>2012-05-03T14:29:22Z</time>
      </trkpt>
      <trkpt lat="47.02945" lon="-1.01668">
        <ele>128</ele>
        <time>2012-05-03T14:29:23Z</time>
      </trkpt>
      <trkpt lat="47.02942" lon="-1.01673">
        <ele>128</ele>
        <time>2012-05-03T14:29:24Z</time>
      </trkpt>
      <trkpt lat="47.02938" lon="-1.01677">
        <ele>128</ele>
        <time>2012-05-03T14:29:25Z</time>
      </trkpt>
      <trkpt lat="47.02934" lon="-1.01681">
        <ele>128</ele>
        <time>2012-05-03T14:29:26Z</time>
      </trkpt>
      <trkpt lat="47.0293" lon="-1.01686">
        <ele>128</ele>
        <time>2012-05-03T14:29:27Z</time>
      </trkpt>
      <trkpt lat="47.02927" lon="-1.01691">
        <ele>128</ele>
        <time>2012-05-03T14:29:28Z</time>
      </trkpt>
      <trkpt lat="47.02923" lon="-1.01696">
        <ele>128</ele>
        <time>2012-05-03T14:29:29Z</time>
      </trkpt>
      <trkpt lat="47.02919" lon="-1.017">
        <ele>128</ele>
        <time>2012-05-03T14:29:30Z</time>
      </trkpt>
      <trkpt lat="47.02916" lon="-1.01705">
        <ele>128</ele>
        <time>2012-05-03T14:29:31Z</time>
      </trkpt>
      <trkpt lat="47.02913" lon="-1.0171">
        <ele>128</ele>
        <time>2012-05-03T14:29:32Z</time>
      </trkpt>
      <trkpt lat="47.0291" lon="-1.01716">
        <ele>128</ele>
        <time>2012-05-03T14:29:33Z</time>
      </trkpt>
      <trkpt lat="47.02906" lon="-1.01721">
        <ele>128</ele>
        <time>2012-05-03T14:29:34Z</time>
      </trkpt>
      <trkpt lat="47.02903" lon="-1.01727">
        <ele>128</ele>
        <time>2012-05-03T14:29:35Z</time>
      </trkpt>
      <trkpt lat="47.029" lon="-1.01733">
        <ele>128</ele>
        <time>2012-05-03T14:29:36Z</time>
      </trkpt>
      <trkpt lat="47.02898" lon="-1.01738">
        <ele>129</ele>
        <time>2012-05-03T14:29:37Z</time>
      </trkpt>
      <trkpt lat="47.02895" lon="-1.01744">
        <ele>129</ele>
        <time>2012-05-03T14:29:38Z</time>
      </trkpt>
      <trkpt lat="47.02892" lon="-1.0175">
        <ele>129</ele>
        <time>2012-05-03T14:29:39Z</time>
      </trkpt>
      <trkpt lat="47.02889" lon="-1.01755">
        <ele>129</ele>
        <time>2012-05-03T14:29:40Z</time>
      </trkpt>
      <trkpt lat="47.02887" lon="-1.01761">
        <ele>129</ele>
        <time>2012-05-03T14:29:41Z</time>
      </trkpt>
      <trkpt lat="47.02884" lon="-1.01767">
        <ele>129</ele>
        <time>2012-05-03T14:29:42Z</time>
      </trkpt>
      <trkpt lat="47.02882" lon="-1.01772">
        <ele>129</ele>
        <time>2012-05-03T14:29:43Z</time>
      </trkpt>
      <trkpt lat="47.02879" lon="-1.01778">
        <ele>129</ele>
        <time>2012-05-03T14:29:44Z</time>
      </trkpt>
      <trkpt lat="47.02876" lon="-1.01785">
        <ele>129</ele>
        <time>2012-05-03T14:29:45Z</time>
      </trkpt>
      <trkpt lat="47.02874" lon="-1.01791">
        <ele>129</ele>
        <time>2012-05-03T14:29:46Z</time>
      </trkpt>
      <trkpt lat="47.02871" lon="-1.01797">
        <ele>129</ele>
        <time>2012-05-03T14:29:47Z</time>
      </trkpt>
      <trkpt lat="47.02868" lon="-1.01803">
        <ele>129</ele>
        <time>2012-05-03T14:29:48Z</time>
      </trkpt>
      <trkpt lat="47.02865" lon="-1.01809">
        <ele>129</ele>
        <time>2012-05-03T14:29:49Z</time>
      </trkpt>
      <trkpt lat="47.02863" lon="-1.01815">
        <ele>129</ele>
        <time>2012-05-03T14:29:50Z</time>
      </trkpt>
      <trkpt lat="47.0286" lon="-1.01821">
        <ele>129</ele>
        <time>2012-05-03T14:29:51Z</time>
      </trkpt>
      <trkpt lat="47.02857" lon="-1.01827">
        <ele>129</ele>
        <time>2012-05-03T14:29:52Z</time>
      </trkpt>
      <trkpt lat="47.02854" lon="-1.01833">
        <ele>130</ele>
        <time>2012-05-03T14:29:53Z</time>
      </trkpt>
      <trkpt lat="47.02851" lon="-1.01838">
        <ele>130</ele>
        <time>2012-05-03T14:29:54Z</time>
      </trkpt>
      <trkpt lat="47.02848" lon="-1.01844">
        <ele>130</ele>
        <time>2012-05-03T14:29:55Z</time>
      </trkpt>
      <trkpt lat="47.02844" lon="-1.01849">
        <ele>130</ele>
        <time>2012-05-03T14:29:56Z</time>
      </trkpt>
      <trkpt lat="47.02841" lon="-1.01855">
        <ele>130</ele>
        <time>2012-05-03T14:29:57Z</time>
      </trkpt>
      <trkpt lat="47.02837" lon="-1.0186">
        <ele>130</ele>
        <time>2012-05-03T14:29:58Z</time>
      </trkpt>
      <trkpt lat="47.02834" lon="-1.01865">
        <ele>130</ele>
        <time>2012-05-03T14:29:59Z</time>
      </trkpt>
      <trkpt lat="47.0283" lon="-1.0187">
        <ele>130</ele>
        <time>2012-05-03T14:30:00Z</time>
      </trkpt>
      <trkpt lat="47.02826" lon="-1.01875">
        <ele>130</ele>
        <time>2012-05-03T14:30:01Z</time>
      </trkpt>
      <trkpt lat="47.02823" lon="-1.0188">
        <ele>130</ele>
        <time>2012-05-03T14:30:02Z</time>
      </trkpt>
      <trkpt lat="47.02819" lon="-1.01884">
        <ele>130</ele>
        <time>2012-05-03T14:30:03Z</time>
      </trkpt>
      <trkpt lat="47.02815" lon="-1.01888">
        <ele>130</ele>
        <time>2012-05-03T14:30:04Z</time>
      </trkpt>
      <trkpt lat="47.02811" lon="-1.01893">
        <ele>131</ele>
        <time>2012-05-03T14:30:05Z</time>
      </trkpt>
      <trkpt lat="47.02808" lon="-1.01897">
        <ele>131</ele>
        <time>2012-05-03T14:30:06Z</time>
      </trkpt>
      <trkpt lat="47.02804" lon="-1.01902">
        <ele>131</ele>
        <time>2012-05-03T14:30:07Z</time>
      </trkpt>
      <trkpt lat="47.02801" lon="-1.01907">
        <ele>131</ele>
        <time>2012-05-03T14:30:08Z</time>
      </trkpt>
      <trkpt lat="47.02797" lon="-1.01911">
        <ele>131</ele>
        <time>2012-05-03T14:30:09Z</time>
      </trkpt>
      <trkpt lat="47.02794" lon="-1.01916">
        <ele>131</ele>
        <time>2012-05-03T14:30:10Z</time>
      </trkpt>
      <trkpt lat="47.0279" lon="-1.01921">
        <ele>131</ele>
        <time>2012-05-03T14:30:11Z</time>
      </trkpt>
      <trkpt lat="47.02786" lon="-1.01926">
        <ele>131</ele>
        <time>2012-05-03T14:30:12Z</time>
      </trkpt>
      <trkpt lat="47.02783" lon="-1.0193">
        <ele>131</ele>
        <time>2012-05-03T14:30:13Z</time>
      </trkpt>
      <trkpt lat="47.02779" lon="-1.01935">
        <ele>131</ele>
        <time>2012-05-03T14:30:14Z</time>
      </trkpt>
      <trkpt lat="47.02775" lon="-1.01939">
        <ele>131</ele>
        <time>2012-05-03T14:30:15Z</time>
      </trkpt>
      <trkpt lat="47.02771" lon="-1.01944">
        <ele>131</ele>
        <time>2012-05-03T14:30:16Z</time>
      </trkpt>
      <trkpt lat="47.02768" lon="-1.01949">
        <ele>131</ele>
        <time>2012-05-03T14:30:17Z</time>
      </trkpt>
      <trkpt lat="47.02765" lon="-1.01954">
        <ele>131</ele>
        <time>2012-05-03T14:30:18Z</time>
      </trkpt>
      <trkpt lat="47.02761" lon="-1.0196">
        <ele>131</ele>
        <time>2012-05-03T14:30:19Z</time>
      </trkpt>
      <trkpt lat="47.02759" lon="-1.01967">
        <ele>131</ele>
        <time>2012-05-03T14:30:20Z</time>
      </trkpt>
      <trkpt lat="47.02757" lon="-1.01973">
        <ele>131</ele>
        <time>2012-05-03T14:30:21Z</time>
      </trkpt>
      <trkpt lat="47.02755" lon="-1.0198">
        <ele>131</ele>
        <time>2012-05-03T14:30:22Z</time>
      </trkpt>
      <trkpt lat="47.02753" lon="-1.01987">
        <ele>131</ele>
        <time>2012-05-03T14:30:23Z</time>
      </trkpt>
      <trkpt lat="47.02752" lon="-1.01995">
        <ele>131</ele>
        <time>2012-05-03T14:30:24Z</time>
      </trkpt>
      <trkpt lat="47.0275" lon="-1.02002">
        <ele>131</ele>
        <time>2012-05-03T14:30:25Z</time>
      </trkpt>
      <trkpt lat="47.02749" lon="-1.02009">
        <ele>131</ele>
        <time>2012-05-03T14:30:26Z</time>
      </trkpt>
      <trkpt lat="47.02748" lon="-1.02016">
        <ele>131</ele>
        <time>2012-05-03T14:30:27Z</time>
      </trkpt>
      <trkpt lat="47.02747" lon="-1.02023">
        <ele>131</ele>
        <time>2012-05-03T14:30:28Z</time>
      </trkpt>
      <trkpt lat="47.02746" lon="-1.02031">
        <ele>131</ele>
        <time>2012-05-03T14:30:29Z</time>
      </trkpt>
      <trkpt lat="47.02744" lon="-1.02038">
        <ele>131</ele>
        <time>2012-05-03T14:30:30Z</time>
      </trkpt>
      <trkpt lat="47.02742" lon="-1.02052">
        <ele>131</ele>
        <time>2012-05-03T14:30:32Z</time>
      </trkpt>
      <trkpt lat="47.02741" lon="-1.02059">
        <ele>131</ele>
        <time>2012-05-03T14:30:33Z</time>
      </trkpt>
      <trkpt lat="47.0274" lon="-1.02066">
        <ele>131</ele>
        <time>2012-05-03T14:30:34Z</time>
      </trkpt>
      <trkpt lat="47.02737" lon="-1.02081">
        <ele>131</ele>
        <time>2012-05-03T14:30:36Z</time>
      </trkpt>
      <trkpt lat="47.02736" lon="-1.02088">
        <ele>131</ele>
        <time>2012-05-03T14:30:37Z</time>
      </trkpt>
      <trkpt lat="47.02735" lon="-1.02096">
        <ele>131</ele>
        <time>2012-05-03T14:30:39Z</time>
      </trkpt>
      <trkpt lat="47.02734" lon="-1.02104">
        <ele>131</ele>
        <time>2012-05-03T14:30:40Z</time>
      </trkpt>
      <trkpt lat="47.02732" lon="-1.02111">
        <ele>131</ele>
        <time>2012-05-03T14:30:41Z</time>
      </trkpt>
      <trkpt lat="47.02731" lon="-1.0212">
        <ele>131</ele>
        <time>2012-05-03T14:30:41Z</time>
      </trkpt>
      <trkpt lat="47.02729" lon="-1.02135">
        <ele>131</ele>
        <time>2012-05-03T14:30:43Z</time>
      </trkpt>
      <trkpt lat="47.02728" lon="-1.02143">
        <ele>131</ele>
        <time>2012-05-03T14:30:44Z</time>
      </trkpt>
      <trkpt lat="47.02726" lon="-1.02151">
        <ele>131</ele>
        <time>2012-05-03T14:30:46Z</time>
      </trkpt>
      <trkpt lat="47.02723" lon="-1.02167">
        <ele>131</ele>
        <time>2012-05-03T14:30:48Z</time>
      </trkpt>
      <trkpt lat="47.02722" lon="-1.02175">
        <ele>131</ele>
        <time>2012-05-03T14:30:48Z</time>
      </trkpt>
      <trkpt lat="47.02719" lon="-1.02191">
        <ele>131</ele>
        <time>2012-05-03T14:30:50Z</time>
      </trkpt>
      <trkpt lat="47.02718" lon="-1.02199">
        <ele>131</ele>
        <time>2012-05-03T14:30:51Z</time>
      </trkpt>
      <trkpt lat="47.02718" lon="-1.02207">
        <ele>131</ele>
        <time>2012-05-03T14:30:52Z</time>
      </trkpt>
      <trkpt lat="47.02716" lon="-1.02223">
        <ele>131</ele>
        <time>2012-05-03T14:30:54Z</time>
      </trkpt>
      <trkpt lat="47.02715" lon="-1.0224">
        <ele>131</ele>
        <time>2012-05-03T14:30:56Z</time>
      </trkpt>
      <trkpt lat="47.02714" lon="-1.02249">
        <ele>131</ele>
        <time>2012-05-03T14:30:57Z</time>
      </trkpt>
      <trkpt lat="47.02713" lon="-1.02258">
        <ele>131</ele>
        <time>2012-05-03T14:30:58Z</time>
      </trkpt>
      <trkpt lat="47.02712" lon="-1.02276">
        <ele>131</ele>
        <time>2012-05-03T14:31:00Z</time>
      </trkpt>
      <trkpt lat="47.02711" lon="-1.02285">
        <ele>131</ele>
        <time>2012-05-03T14:31:01Z</time>
      </trkpt>
      <trkpt lat="47.0271" lon="-1.02294">
        <ele>131</ele>
        <time>2012-05-03T14:31:02Z</time>
      </trkpt>
      <trkpt lat="47.02709" lon="-1.02312">
        <ele>131</ele>
        <time>2012-05-03T14:31:04Z</time>
      </trkpt>
      <trkpt lat="47.02708" lon="-1.02321">
        <ele>131</ele>
        <time>2012-05-03T14:31:05Z</time>
      </trkpt>
      <trkpt lat="47.02705" lon="-1.02339">
        <ele>131</ele>
        <time>2012-05-03T14:31:08Z</time>
      </trkpt>
      <trkpt lat="47.02704" lon="-1.02348">
        <ele>131</ele>
        <time>2012-05-03T14:31:08Z</time>
      </trkpt>
      <trkpt lat="47.02703" lon="-1.02357">
        <ele>131</ele>
        <time>2012-05-03T14:31:09Z</time>
      </trkpt>
      <trkpt lat="47.02699" lon="-1.02375">
        <ele>131</ele>
        <time>2012-05-03T14:31:12Z</time>
      </trkpt>
      <trkpt lat="47.02696" lon="-1.02383">
        <ele>131</ele>
        <time>2012-05-03T14:31:12Z</time>
      </trkpt>
      <trkpt lat="47.02694" lon="-1.02391">
        <ele>131</ele>
        <time>2012-05-03T14:31:13Z</time>
      </trkpt>
      <trkpt lat="47.0269" lon="-1.02408">
        <ele>131</ele>
        <time>2012-05-03T14:31:16Z</time>
      </trkpt>
      <trkpt lat="47.02689" lon="-1.02415">
        <ele>131</ele>
        <time>2012-05-03T14:31:16Z</time>
      </trkpt>
      <trkpt lat="47.02687" lon="-1.02422">
        <ele>131</ele>
        <time>2012-05-03T14:31:17Z</time>
      </trkpt>
      <trkpt lat="47.02686" lon="-1.02436">
        <ele>131</ele>
        <time>2012-05-03T14:31:20Z</time>
      </trkpt>
      <trkpt lat="47.02686" lon="-1.02443">
        <ele>131</ele>
        <time>2012-05-03T14:31:20Z</time>
      </trkpt>
      <trkpt lat="47.02685" lon="-1.0245">
        <ele>131</ele>
        <time>2012-05-03T14:31:21Z</time>
      </trkpt>
      <trkpt lat="47.02682" lon="-1.02465">
        <ele>131</ele>
        <time>2012-05-03T14:31:23Z</time>
      </trkpt>
      <trkpt lat="47.02681" lon="-1.02473">
        <ele>131</ele>
        <time>2012-05-03T14:31:24Z</time>
      </trkpt>
      <trkpt lat="47.0268" lon="-1.02481">
        <ele>131</ele>
        <time>2012-05-03T14:31:25Z</time>
      </trkpt>
      <trkpt lat="47.02677" lon="-1.02497">
        <ele>131</ele>
        <time>2012-05-03T14:31:27Z</time>
      </trkpt>
      <trkpt lat="47.02676" lon="-1.02505">
        <ele>131</ele>
        <time>2012-05-03T14:31:28Z</time>
      </trkpt>
      <trkpt lat="47.02676" lon="-1.02513">
        <ele>131</ele>
        <time>2012-05-03T14:31:29Z</time>
      </trkpt>
      <trkpt lat="47.02675" lon="-1.02529">
        <ele>131</ele>
        <time>2012-05-03T14:31:31Z</time>
      </trkpt>
      <trkpt lat="47.02674" lon="-1.02537">
        <ele>131</ele>
        <time>2012-05-03T14:31:32Z</time>
      </trkpt>
      <trkpt lat="47.02673" lon="-1.02545">
        <ele>131</ele>
        <time>2012-05-03T14:31:33Z</time>
      </trkpt>
      <trkpt lat="47.0267" lon="-1.02561">
        <ele>131</ele>
        <time>2012-05-03T14:31:35Z</time>
      </trkpt>
      <trkpt lat="47.02669" lon="-1.02569">
        <ele>131</ele>
        <time>2012-05-03T14:31:36Z</time>
      </trkpt>
      <trkpt lat="47.02668" lon="-1.02577">
        <ele>131</ele>
        <time>2012-05-03T14:31:37Z</time>
      </trkpt>
      <trkpt lat="47.02667" lon="-1.02593">
        <ele>131</ele>
        <time>2012-05-03T14:31:39Z</time>
      </trkpt>
      <trkpt lat="47.02666" lon="-1.02601">
        <ele>131</ele>
        <time>2012-05-03T14:31:40Z</time>
      </trkpt>
      <trkpt lat="47.02665" lon="-1.02609">
        <ele>131</ele>
        <time>2012-05-03T14:31:41Z</time>
      </trkpt>
      <trkpt lat="47.02664" lon="-1.02625">
        <ele>131</ele>
        <time>2012-05-03T14:31:43Z</time>
      </trkpt>
      <trkpt lat="47.02663" lon="-1.02633">
        <ele>131</ele>
        <time>2012-05-03T14:31:44Z</time>
      </trkpt>
      <trkpt lat="47.02661" lon="-1.02641">
        <ele>131</ele>
        <time>2012-05-03T14:31:45Z</time>
      </trkpt>
      <trkpt lat="47.0266" lon="-1.02658">
        <ele>131</ele>
        <time>2012-05-03T14:31:47Z</time>
      </trkpt>
      <trkpt lat="47.0266" lon="-1.02666">
        <ele>131</ele>
        <time>2012-05-03T14:31:48Z</time>
      </trkpt>
      <trkpt lat="47.02659" lon="-1.02675">
        <ele>131</ele>
        <time>2012-05-03T14:31:49Z</time>
      </trkpt>
      <trkpt lat="47.02658" lon="-1.02692">
        <ele>131</ele>
        <time>2012-05-03T14:31:51Z</time>
      </trkpt>
      <trkpt lat="47.02657" lon="-1.027">
        <ele>131</ele>
        <time>2012-05-03T14:31:52Z</time>
      </trkpt>
      <trkpt lat="47.02656" lon="-1.02709">
        <ele>131</ele>
        <time>2012-05-03T14:31:53Z</time>
      </trkpt>
      <trkpt lat="47.02654" lon="-1.02725">
        <ele>131</ele>
        <time>2012-05-03T14:31:55Z</time>
      </trkpt>
      <trkpt lat="47.02653" lon="-1.02734">
        <ele>131</ele>
        <time>2012-05-03T14:31:56Z</time>
      </trkpt>
      <trkpt lat="47.02652" lon="-1.02742">
        <ele>131</ele>
        <time>2012-05-03T14:31:57Z</time>
      </trkpt>
      <trkpt lat="47.0265" lon="-1.02759">
        <ele>131</ele>
        <time>2012-05-03T14:31:59Z</time>
      </trkpt>
      <trkpt lat="47.02649" lon="-1.02767">
        <ele>131</ele>
        <time>2012-05-03T14:32:00Z</time>
      </trkpt>
      <trkpt lat="47.02648" lon="-1.02776">
        <ele>131</ele>
        <time>2012-05-03T14:32:01Z</time>
      </trkpt>
      <trkpt lat="47.02647" lon="-1.02793">
        <ele>131</ele>
        <time>2012-05-03T14:32:03Z</time>
      </trkpt>
      <trkpt lat="47.02647" lon="-1.02801">
        <ele>131</ele>
        <time>2012-05-03T14:32:04Z</time>
      </trkpt>
      <trkpt lat="47.02646" lon="-1.02809">
        <ele>131</ele>
        <time>2012-05-03T14:32:05Z</time>
      </trkpt>
      <trkpt lat="47.02645" lon="-1.02827">
        <ele>131</ele>
        <time>2012-05-03T14:32:07Z</time>
      </trkpt>
      <trkpt lat="47.02644" lon="-1.02836">
        <ele>131</ele>
        <time>2012-05-03T14:32:08Z</time>
      </trkpt>
      <trkpt lat="47.02644" lon="-1.02844">
        <ele>131</ele>
        <time>2012-05-03T14:32:09Z</time>
      </trkpt>
      <trkpt lat="47.02642" lon="-1.02861">
        <ele>131</ele>
        <time>2012-05-03T14:32:11Z</time>
      </trkpt>
      <trkpt lat="47.02642" lon="-1.02869">
        <ele>131</ele>
        <time>2012-05-03T14:32:12Z</time>
      </trkpt>
      <trkpt lat="47.02641" lon="-1.02878">
        <ele>131</ele>
        <time>2012-05-03T14:32:13Z</time>
      </trkpt>
      <trkpt lat="47.02639" lon="-1.02895">
        <ele>131</ele>
        <time>2012-05-03T14:32:15Z</time>
      </trkpt>
      <trkpt lat="47.02639" lon="-1.02904">
        <ele>131</ele>
        <time>2012-05-03T14:32:16Z</time>
      </trkpt>
      <trkpt lat="47.02638" lon="-1.02913">
        <ele>131</ele>
        <time>2012-05-03T14:32:17Z</time>
      </trkpt>
      <trkpt lat="47.02637" lon="-1.0293">
        <ele>131</ele>
        <time>2012-05-03T14:32:19Z</time>
      </trkpt>
      <trkpt lat="47.02637" lon="-1.02939">
        <ele>131</ele>
        <time>2012-05-03T14:32:20Z</time>
      </trkpt>
      <trkpt lat="47.02636" lon="-1.02948">
        <ele>131</ele>
        <time>2012-05-03T14:32:21Z</time>
      </trkpt>
      <trkpt lat="47.02635" lon="-1.02965">
        <ele>131</ele>
        <time>2012-05-03T14:32:23Z</time>
      </trkpt>
      <trkpt lat="47.02634" lon="-1.02974">
        <ele>131</ele>
        <time>2012-05-03T14:32:24Z</time>
      </trkpt>
      <trkpt lat="47.02634" lon="-1.02982">
        <ele>131</ele>
        <time>2012-05-03T14:32:25Z</time>
      </trkpt>
      <trkpt lat="47.02633" lon="-1.02994">
        <ele>131</ele>
        <time>2012-05-03T14:32:27Z</time>
      </trkpt>
      <trkpt lat="47.02632" lon="-1.02999">
        <ele>131</ele>
        <time>2012-05-03T14:32:28Z</time>
      </trkpt>
      <trkpt lat="47.02631" lon="-1.03006">
        <ele>131</ele>
        <time>2012-05-03T14:32:29Z</time>
      </trkpt>
      <trkpt lat="47.02629" lon="-1.03018">
        <ele>131</ele>
        <time>2012-05-03T14:32:31Z</time>
      </trkpt>
      <trkpt lat="47.02628" lon="-1.03025">
        <ele>131</ele>
        <time>2012-05-03T14:32:32Z</time>
      </trkpt>
      <trkpt lat="47.02627" lon="-1.03032">
        <ele>131</ele>
        <time>2012-05-03T14:32:33Z</time>
      </trkpt>
      <trkpt lat="47.02626" lon="-1.03045">
        <ele>131</ele>
        <time>2012-05-03T14:32:35Z</time>
      </trkpt>
      <trkpt lat="47.02625" lon="-1.03052">
        <ele>131</ele>
        <time>2012-05-03T14:32:36Z</time>
      </trkpt>
      <trkpt lat="47.02624" lon="-1.03059">
        <ele>131</ele>
        <time>2012-05-03T14:32:37Z</time>
      </trkpt>
      <trkpt lat="47.02623" lon="-1.03074">
        <ele>131</ele>
        <time>2012-05-03T14:32:39Z</time>
      </trkpt>
      <trkpt lat="47.02621" lon="-1.03081">
        <ele>131</ele>
        <time>2012-05-03T14:32:40Z</time>
      </trkpt>
      <trkpt lat="47.0262" lon="-1.03089">
        <ele>131</ele>
        <time>2012-05-03T14:32:41Z</time>
      </trkpt>
      <trkpt lat="47.02619" lon="-1.03103">
        <ele>131</ele>
        <time>2012-05-03T14:32:43Z</time>
      </trkpt>
      <trkpt lat="47.02618" lon="-1.03111">
        <ele>131</ele>
        <time>2012-05-03T14:32:44Z</time>
      </trkpt>
      <trkpt lat="47.02617" lon="-1.03118">
        <ele>131</ele>
        <time>2012-05-03T14:32:45Z</time>
      </trkpt>
      <trkpt lat="47.02615" lon="-1.03134">
        <ele>131</ele>
        <time>2012-05-03T14:32:47Z</time>
      </trkpt>
      <trkpt lat="47.02614" lon="-1.03141">
        <ele>131</ele>
        <time>2012-05-03T14:32:48Z</time>
      </trkpt>
      <trkpt lat="47.02613" lon="-1.03149">
        <ele>131</ele>
        <time>2012-05-03T14:32:49Z</time>
      </trkpt>
      <trkpt lat="47.0261" lon="-1.03165">
        <ele>131</ele>
        <time>2012-05-03T14:32:51Z</time>
      </trkpt>
      <trkpt lat="47.02609" lon="-1.03173">
        <ele>131</ele>
        <time>2012-05-03T14:32:52Z</time>
      </trkpt>
      <trkpt lat="47.02608" lon="-1.03182">
        <ele>131</ele>
        <time>2012-05-03T14:32:53Z</time>
      </trkpt>
      <trkpt lat="47.02605" lon="-1.03199">
        <ele>131</ele>
        <time>2012-05-03T14:32:55Z</time>
      </trkpt>
      <trkpt lat="47.02604" lon="-1.03208">
        <ele>131</ele>
        <time>2012-05-03T14:32:56Z</time>
      </trkpt>
      <trkpt lat="47.02603" lon="-1.03216">
        <ele>131</ele>
        <time>2012-05-03T14:32:57Z</time>
      </trkpt>
      <trkpt lat="47.026" lon="-1.03234">
        <ele>131</ele>
        <time>2012-05-03T14:32:59Z</time>
      </trkpt>
      <trkpt lat="47.02599" lon="-1.03243">
        <ele>131</ele>
        <time>2012-05-03T14:33:00Z</time>
      </trkpt>
      <trkpt lat="47.02597" lon="-1.03251">
        <ele>131</ele>
        <time>2012-05-03T14:33:01Z</time>
      </trkpt>
      <trkpt lat="47.02593" lon="-1.03269">
        <ele>131</ele>
        <time>2012-05-03T14:33:03Z</time>
      </trkpt>
      <trkpt lat="47.02592" lon="-1.03278">
        <ele>131</ele>
        <time>2012-05-03T14:33:04Z</time>
      </trkpt>
      <trkpt lat="47.0259" lon="-1.03287">
        <ele>131</ele>
        <time>2012-05-03T14:33:05Z</time>
      </trkpt>
      <trkpt lat="47.02587" lon="-1.03304">
        <ele>131</ele>
        <time>2012-05-03T14:33:07Z</time>
      </trkpt>
      <trkpt lat="47.02585" lon="-1.03313">
        <ele>131</ele>
        <time>2012-05-03T14:33:08Z</time>
      </trkpt>
      <trkpt lat="47.02583" lon="-1.03321">
        <ele>131</ele>
        <time>2012-05-03T14:33:09Z</time>
      </trkpt>
      <trkpt lat="47.02581" lon="-1.03338">
        <ele>131</ele>
        <time>2012-05-03T14:33:11Z</time>
      </trkpt>
      <trkpt lat="47.02578" lon="-1.03355">
        <ele>131</ele>
        <time>2012-05-03T14:33:14Z</time>
      </trkpt>
      <trkpt lat="47.02576" lon="-1.03363">
        <ele>131</ele>
        <time>2012-05-03T14:33:14Z</time>
      </trkpt>
      <trkpt lat="47.02574" lon="-1.03371">
        <ele>131</ele>
        <time>2012-05-03T14:33:15Z</time>
      </trkpt>
      <trkpt lat="47.02571" lon="-1.0339">
        <ele>131</ele>
        <time>2012-05-03T14:33:18Z</time>
      </trkpt>
      <trkpt lat="47.0257" lon="-1.03399">
        <ele>131</ele>
        <time>2012-05-03T14:33:18Z</time>
      </trkpt>
      <trkpt lat="47.02568" lon="-1.03407">
        <ele>131</ele>
        <time>2012-05-03T14:33:19Z</time>
      </trkpt>
      <trkpt lat="47.02565" lon="-1.03425">
        <ele>131</ele>
        <time>2012-05-03T14:33:22Z</time>
      </trkpt>
      <trkpt lat="47.02563" lon="-1.03434">
        <ele>131</ele>
        <time>2012-05-03T14:33:22Z</time>
      </trkpt>
      <trkpt lat="47.02561" lon="-1.03442">
        <ele>131</ele>
        <time>2012-05-03T14:33:23Z</time>
      </trkpt>
      <trkpt lat="47.02559" lon="-1.0346">
        <ele>131</ele>
        <time>2012-05-03T14:33:26Z</time>
      </trkpt>
      <trkpt lat="47.02557" lon="-1.03468">
        <ele>131</ele>
        <time>2012-05-03T14:33:26Z</time>
      </trkpt>
      <trkpt lat="47.02555" lon="-1.03476">
        <ele>131</ele>
        <time>2012-05-03T14:33:27Z</time>
      </trkpt>
      <trkpt lat="47.02555" lon="-1.03491">
        <ele>131</ele>
        <time>2012-05-03T14:33:30Z</time>
      </trkpt>
      <trkpt lat="47.02557" lon="-1.03499">
        <ele>131</ele>
        <time>2012-05-03T14:33:31Z</time>
      </trkpt>
      <trkpt lat="47.0256" lon="-1.03504">
        <ele>131</ele>
        <time>2012-05-03T14:33:31Z</time>
      </trkpt>
      <trkpt lat="47.02564" lon="-1.03508">
        <ele>131</ele>
        <time>2012-05-03T14:33:33Z</time>
      </trkpt>
      <trkpt lat="47.02572" lon="-1.03517">
        <ele>131</ele>
        <time>2012-05-03T14:33:35Z</time>
      </trkpt>
      <trkpt lat="47.02581" lon="-1.03526">
        <ele>131</ele>
        <time>2012-05-03T14:33:36Z</time>
      </trkpt>
      <trkpt lat="47.02589" lon="-1.03536">
        <ele>131</ele>
        <time>2012-05-03T14:33:39Z</time>
      </trkpt>
      <trkpt lat="47.02593" lon="-1.03542">
        <ele>131</ele>
        <time>2012-05-03T14:33:39Z</time>
      </trkpt>
      <trkpt lat="47.02597" lon="-1.03547">
        <ele>131</ele>
        <time>2012-05-03T14:33:40Z</time>
      </trkpt>
      <trkpt lat="47.02604" lon="-1.03554">
        <ele>131</ele>
        <time>2012-05-03T14:33:42Z</time>
      </trkpt>
      <trkpt lat="47.02607" lon="-1.03557">
        <ele>131</ele>
        <time>2012-05-03T14:33:43Z</time>
      </trkpt>
      <trkpt lat="47.02608" lon="-1.03559">
        <ele>131</ele>
        <time>2012-05-03T14:33:44Z</time>
      </trkpt>
      <trkpt lat="47.02611" lon="-1.03564">
        <ele>131</ele>
        <time>2012-05-03T14:33:46Z</time>
      </trkpt>
      <trkpt lat="47.02613" lon="-1.03567">
        <ele>131</ele>
        <time>2012-05-03T14:33:47Z</time>
      </trkpt>
      <trkpt lat="47.02616" lon="-1.03571">
        <ele>131</ele>
        <time>2012-05-03T14:33:48Z</time>
      </trkpt>
      <trkpt lat="47.02622" lon="-1.03579">
        <ele>131</ele>
        <time>2012-05-03T14:33:50Z</time>
      </trkpt>
      <trkpt lat="47.02625" lon="-1.03584">
        <ele>131</ele>
        <time>2012-05-03T14:33:51Z</time>
      </trkpt>
      <trkpt lat="47.02628" lon="-1.03588">
        <ele>131</ele>
        <time>2012-05-03T14:33:52Z</time>
      </trkpt>
      <trkpt lat="47.02634" lon="-1.03598">
        <ele>131</ele>
        <time>2012-05-03T14:33:54Z</time>
      </trkpt>
      <trkpt lat="47.02638" lon="-1.03603">
        <ele>131</ele>
        <time>2012-05-03T14:33:55Z</time>
      </trkpt>
      <trkpt lat="47.02642" lon="-1.03609">
        <ele>131</ele>
        <time>2012-05-03T14:33:56Z</time>
      </trkpt>
      <trkpt lat="47.02649" lon="-1.03619">
        <ele>131</ele>
        <time>2012-05-03T14:33:58Z</time>
      </trkpt>
      <trkpt lat="47.02652" lon="-1.03624">
        <ele>131</ele>
        <time>2012-05-03T14:33:59Z</time>
      </trkpt>
      <trkpt lat="47.02655" lon="-1.03629">
        <ele>131</ele>
        <time>2012-05-03T14:34:00Z</time>
      </trkpt>
      <trkpt lat="47.0266" lon="-1.03639">
        <ele>131</ele>
        <time>2012-05-03T14:34:02Z</time>
      </trkpt>
      <trkpt lat="47.02662" lon="-1.03645">
        <ele>131</ele>
        <time>2012-05-03T14:34:03Z</time>
      </trkpt>
      <trkpt lat="47.02664" lon="-1.03649">
        <ele>131</ele>
        <time>2012-05-03T14:34:04Z</time>
      </trkpt>
      <trkpt lat="47.02669" lon="-1.0366">
        <ele>131</ele>
        <time>2012-05-03T14:34:06Z</time>
      </trkpt>
      <trkpt lat="47.02671" lon="-1.03665">
        <ele>131</ele>
        <time>2012-05-03T14:34:07Z</time>
      </trkpt>
      <trkpt lat="47.02673" lon="-1.03671">
        <ele>131</ele>
        <time>2012-05-03T14:34:08Z</time>
      </trkpt>
      <trkpt lat="47.02679" lon="-1.03683">
        <ele>131</ele>
        <time>2012-05-03T14:34:10Z</time>
      </trkpt>
      <trkpt lat="47.02682" lon="-1.03689">
        <ele>131</ele>
        <time>2012-05-03T14:34:11Z</time>
      </trkpt>
      <trkpt lat="47.02686" lon="-1.03696">
        <ele>131</ele>
        <time>2012-05-03T14:34:12Z</time>
      </trkpt>
      <trkpt lat="47.02692" lon="-1.03709">
        <ele>131</ele>
        <time>2012-05-03T14:34:14Z</time>
      </trkpt>
      <trkpt lat="47.02696" lon="-1.03716">
        <ele>131</ele>
        <time>2012-05-03T14:34:15Z</time>
      </trkpt>
      <trkpt lat="47.02699" lon="-1.03723">
        <ele>131</ele>
        <time>2012-05-03T14:34:16Z</time>
      </trkpt>
      <trkpt lat="47.02707" lon="-1.03737">
        <ele>131</ele>
        <time>2012-05-03T14:34:18Z</time>
      </trkpt>
      <trkpt lat="47.0271" lon="-1.03744">
        <ele>131</ele>
        <time>2012-05-03T14:34:19Z</time>
      </trkpt>
      <trkpt lat="47.02713" lon="-1.03752">
        <ele>131</ele>
        <time>2012-05-03T14:34:20Z</time>
      </trkpt>
      <trkpt lat="47.02719" lon="-1.03766">
        <ele>131</ele>
        <time>2012-05-03T14:34:22Z</time>
      </trkpt>
      <trkpt lat="47.02721" lon="-1.03772">
        <ele>131</ele>
        <time>2012-05-03T14:34:23Z</time>
      </trkpt>
      <trkpt lat="47.02723" lon="-1.03779">
        <ele>131</ele>
        <time>2012-05-03T14:34:24Z</time>
      </trkpt>
      <trkpt lat="47.02728" lon="-1.0379">
        <ele>131</ele>
        <time>2012-05-03T14:34:26Z</time>
      </trkpt>
      <trkpt lat="47.02729" lon="-1.03796">
        <ele>130</ele>
        <time>2012-05-03T14:34:27Z</time>
      </trkpt>
      <trkpt lat="47.02729" lon="-1.03799">
        <ele>129</ele>
        <time>2012-05-03T14:34:28Z</time>
      </trkpt>
      <trkpt lat="47.02726" lon="-1.03805">
        <ele>129</ele>
        <time>2012-05-03T14:34:32Z</time>
      </trkpt>
      <trkpt lat="47.02724" lon="-1.03812">
        <ele>128</ele>
        <time>2012-05-03T14:34:32Z</time>
      </trkpt>
      <trkpt lat="47.02722" lon="-1.03816">
        <ele>128</ele>
        <time>2012-05-03T14:34:34Z</time>
      </trkpt>
      <trkpt lat="47.02718" lon="-1.03825">
        <ele>127</ele>
        <time>2012-05-03T14:34:36Z</time>
      </trkpt>
      <trkpt lat="47.02716" lon="-1.0383">
        <ele>127</ele>
        <time>2012-05-03T14:34:36Z</time>
      </trkpt>
      <trkpt lat="47.02714" lon="-1.03834">
        <ele>126</ele>
        <time>2012-05-03T14:34:37Z</time>
      </trkpt>
      <trkpt lat="47.0271" lon="-1.03844">
        <ele>125</ele>
        <time>2012-05-03T14:34:40Z</time>
      </trkpt>
      <trkpt lat="47.02708" lon="-1.03848">
        <ele>125</ele>
        <time>2012-05-03T14:34:40Z</time>
      </trkpt>
      <trkpt lat="47.02706" lon="-1.03853">
        <ele>125</ele>
        <time>2012-05-03T14:34:41Z</time>
      </trkpt>
      <trkpt lat="47.027" lon="-1.03862">
        <ele>124</ele>
        <time>2012-05-03T14:34:44Z</time>
      </trkpt>
      <trkpt lat="47.02697" lon="-1.03866">
        <ele>124</ele>
        <time>2012-05-03T14:34:44Z</time>
      </trkpt>
      <trkpt lat="47.02694" lon="-1.0387">
        <ele>124</ele>
        <time>2012-05-03T14:34:45Z</time>
      </trkpt>
      <trkpt lat="47.02689" lon="-1.03878">
        <ele>124</ele>
        <time>2012-05-03T14:34:48Z</time>
      </trkpt>
      <trkpt lat="47.02687" lon="-1.03883">
        <ele>124</ele>
        <time>2012-05-03T14:34:48Z</time>
      </trkpt>
      <trkpt lat="47.02686" lon="-1.03888">
        <ele>124</ele>
        <time>2012-05-03T14:34:49Z</time>
      </trkpt>
      <trkpt lat="47.02685" lon="-1.03893">
        <ele>124</ele>
        <time>2012-05-03T14:34:50Z</time>
      </trkpt>
      <trkpt lat="47.02685" lon="-1.03903">
        <ele>124</ele>
        <time>2012-05-03T14:34:54Z</time>
      </trkpt>
      <trkpt lat="47.02684" lon="-1.03914">
        <ele>124</ele>
        <time>2012-05-03T14:34:54Z</time>
      </trkpt>
      <trkpt lat="47.02684" lon="-1.03926">
        <ele>124</ele>
        <time>2012-05-03T14:34:57Z</time>
      </trkpt>
      <trkpt lat="47.02683" lon="-1.03933">
        <ele>124</ele>
        <time>2012-05-03T14:34:57Z</time>
      </trkpt>
      <trkpt lat="47.02683" lon="-1.03939">
        <ele>124</ele>
        <time>2012-05-03T14:34:58Z</time>
      </trkpt>
      <trkpt lat="47.02681" lon="-1.03953">
        <ele>124</ele>
        <time>2012-05-03T14:35:01Z</time>
      </trkpt>
      <trkpt lat="47.0268" lon="-1.03959">
        <ele>124</ele>
        <time>2012-05-03T14:35:01Z</time>
      </trkpt>
      <trkpt lat="47.02679" lon="-1.03966">
        <ele>124</ele>
        <time>2012-05-03T14:35:02Z</time>
      </trkpt>
      <trkpt lat="47.02678" lon="-1.03979">
        <ele>124</ele>
        <time>2012-05-03T14:35:05Z</time>
      </trkpt>
      <trkpt lat="47.02677" lon="-1.03986">
        <ele>123</ele>
        <time>2012-05-03T14:35:05Z</time>
      </trkpt>
      <trkpt lat="47.02676" lon="-1.03993">
        <ele>123</ele>
        <time>2012-05-03T14:35:06Z</time>
      </trkpt>
      <trkpt lat="47.02674" lon="-1.04006">
        <ele>123</ele>
        <time>2012-05-03T14:35:09Z</time>
      </trkpt>
      <trkpt lat="47.02674" lon="-1.04013">
        <ele>123</ele>
        <time>2012-05-03T14:35:09Z</time>
      </trkpt>
      <trkpt lat="47.02673" lon="-1.04021">
        <ele>123</ele>
        <time>2012-05-03T14:35:10Z</time>
      </trkpt>
      <trkpt lat="47.02671" lon="-1.04036">
        <ele>123</ele>
        <time>2012-05-03T14:35:12Z</time>
      </trkpt>
      <trkpt lat="47.0267" lon="-1.04044">
        <ele>123</ele>
        <time>2012-05-03T14:35:13Z</time>
      </trkpt>
      <trkpt lat="47.0267" lon="-1.04052">
        <ele>123</ele>
        <time>2012-05-03T14:35:14Z</time>
      </trkpt>
      <trkpt lat="47.02668" lon="-1.04069">
        <ele>123</ele>
        <time>2012-05-03T14:35:16Z</time>
      </trkpt>
      <trkpt lat="47.02668" lon="-1.04077">
        <ele>123</ele>
        <time>2012-05-03T14:35:17Z</time>
      </trkpt>
      <trkpt lat="47.02669" lon="-1.04085">
        <ele>123</ele>
        <time>2012-05-03T14:35:18Z</time>
      </trkpt>
      <trkpt lat="47.02673" lon="-1.04099">
        <ele>123</ele>
        <time>2012-05-03T14:35:22Z</time>
      </trkpt>
      <trkpt lat="47.02676" lon="-1.04114">
        <ele>123</ele>
        <time>2012-05-03T14:35:23Z</time>
      </trkpt>
      <trkpt lat="47.02679" lon="-1.04121">
        <ele>123</ele>
        <time>2012-05-03T14:35:23Z</time>
      </trkpt>
      <trkpt lat="47.02682" lon="-1.04137">
        <ele>123</ele>
        <time>2012-05-03T14:35:26Z</time>
      </trkpt>
      <trkpt lat="47.02683" lon="-1.04146">
        <ele>123</ele>
        <time>2012-05-03T14:35:26Z</time>
      </trkpt>
      <trkpt lat="47.02684" lon="-1.04155">
        <ele>123</ele>
        <time>2012-05-03T14:35:27Z</time>
      </trkpt>
      <trkpt lat="47.02685" lon="-1.04174">
        <ele>123</ele>
        <time>2012-05-03T14:35:30Z</time>
      </trkpt>
      <trkpt lat="47.02685" lon="-1.04183">
        <ele>123</ele>
        <time>2012-05-03T14:35:30Z</time>
      </trkpt>
      <trkpt lat="47.02686" lon="-1.04192">
        <ele>123</ele>
        <time>2012-05-03T14:35:31Z</time>
      </trkpt>
      <trkpt lat="47.02688" lon="-1.0421">
        <ele>123</ele>
        <time>2012-05-03T14:35:34Z</time>
      </trkpt>
      <trkpt lat="47.02689" lon="-1.04218">
        <ele>123</ele>
        <time>2012-05-03T14:35:34Z</time>
      </trkpt>
      <trkpt lat="47.02689" lon="-1.04227">
        <ele>123</ele>
        <time>2012-05-03T14:35:35Z</time>
      </trkpt>
      <trkpt lat="47.02692" lon="-1.04244">
        <ele>123</ele>
        <time>2012-05-03T14:35:37Z</time>
      </trkpt>
      <trkpt lat="47.02693" lon="-1.04253">
        <ele>123</ele>
        <time>2012-05-03T14:35:38Z</time>
      </trkpt>
      <trkpt lat="47.02694" lon="-1.04261">
        <ele>123</ele>
        <time>2012-05-03T14:35:39Z</time>
      </trkpt>
      <trkpt lat="47.02696" lon="-1.04279">
        <ele>123</ele>
        <time>2012-05-03T14:35:41Z</time>
      </trkpt>
      <trkpt lat="47.02697" lon="-1.04287">
        <ele>123</ele>
        <time>2012-05-03T14:35:42Z</time>
      </trkpt>
      <trkpt lat="47.02699" lon="-1.04295">
        <ele>123</ele>
        <time>2012-05-03T14:35:43Z</time>
      </trkpt>
      <trkpt lat="47.02701" lon="-1.04312">
        <ele>123</ele>
        <time>2012-05-03T14:35:45Z</time>
      </trkpt>
      <trkpt lat="47.02703" lon="-1.04321">
        <ele>123</ele>
        <time>2012-05-03T14:35:46Z</time>
      </trkpt>
      <trkpt lat="47.02704" lon="-1.0433">
        <ele>123</ele>
        <time>2012-05-03T14:35:47Z</time>
      </trkpt>
      <trkpt lat="47.02702" lon="-1.04346">
        <ele>123</ele>
        <time>2012-05-03T14:35:49Z</time>
      </trkpt>
      <trkpt lat="47.02701" lon="-1.04353">
        <ele>123</ele>
        <time>2012-05-03T14:35:50Z</time>
      </trkpt>
      <trkpt lat="47.02699" lon="-1.0436">
        <ele>123</ele>
        <time>2012-05-03T14:35:51Z</time>
      </trkpt>
      <trkpt lat="47.02696" lon="-1.04373">
        <ele>123</ele>
        <time>2012-05-03T14:35:53Z</time>
      </trkpt>
      <trkpt lat="47.02695" lon="-1.04377">
        <ele>123</ele>
        <time>2012-05-03T14:35:54Z</time>
      </trkpt>
      <trkpt lat="47.02694" lon="-1.04381">
        <ele>123</ele>
        <time>2012-05-03T14:35:55Z</time>
      </trkpt>
      <trkpt lat="47.02694" lon="-1.04383">
        <ele>123</ele>
        <time>2012-05-03T14:35:57Z</time>
      </trkpt>
      <trkpt lat="47.02693" lon="-1.04386">
        <ele>123</ele>
        <time>2012-05-03T14:35:59Z</time>
      </trkpt>
      <trkpt lat="47.02692" lon="-1.0439">
        <ele>123</ele>
        <time>2012-05-03T14:36:01Z</time>
      </trkpt>
      <trkpt lat="47.02691" lon="-1.04392">
        <ele>123</ele>
        <time>2012-05-03T14:36:02Z</time>
      </trkpt>
      <trkpt lat="47.02691" lon="-1.04394">
        <ele>123</ele>
        <time>2012-05-03T14:36:03Z</time>
      </trkpt>
      <trkpt lat="47.0269" lon="-1.04397">
        <ele>123</ele>
        <time>2012-05-03T14:36:05Z</time>
      </trkpt>
      <trkpt lat="47.02689" lon="-1.044">
        <ele>123</ele>
        <time>2012-05-03T14:36:10Z</time>
      </trkpt>
      <trkpt lat="47.02688" lon="-1.04402">
        <ele>123</ele>
        <time>2012-05-03T14:36:10Z</time>
      </trkpt>
      <trkpt lat="47.02687" lon="-1.04404">
        <ele>123</ele>
        <time>2012-05-03T14:36:11Z</time>
      </trkpt>
      <trkpt lat="47.02686" lon="-1.0441">
        <ele>123</ele>
        <time>2012-05-03T14:36:14Z</time>
      </trkpt>
      <trkpt lat="47.02685" lon="-1.04414">
        <ele>123</ele>
        <time>2012-05-03T14:36:14Z</time>
      </trkpt>
      <trkpt lat="47.02684" lon="-1.04418">
        <ele>123</ele>
        <time>2012-05-03T14:36:15Z</time>
      </trkpt>
      <trkpt lat="47.02682" lon="-1.04427">
        <ele>123</ele>
        <time>2012-05-03T14:36:18Z</time>
      </trkpt>
      <trkpt lat="47.02681" lon="-1.04432">
        <ele>122</ele>
        <time>2012-05-03T14:36:18Z</time>
      </trkpt>
      <trkpt lat="47.0268" lon="-1.04437">
        <ele>122</ele>
        <time>2012-05-03T14:36:19Z</time>
      </trkpt>
      <trkpt lat="47.02679" lon="-1.04448">
        <ele>122</ele>
        <time>2012-05-03T14:36:22Z</time>
      </trkpt>
      <trkpt lat="47.0268" lon="-1.04453">
        <ele>122</ele>
        <time>2012-05-03T14:36:22Z</time>
      </trkpt>
      <trkpt lat="47.0268" lon="-1.04457">
        <ele>122</ele>
        <time>2012-05-03T14:36:23Z</time>
      </trkpt>
      <trkpt lat="47.0268" lon="-1.04465">
        <ele>122</ele>
        <time>2012-05-03T14:36:26Z</time>
      </trkpt>
      <trkpt lat="47.0268" lon="-1.04468">
        <ele>122</ele>
        <time>2012-05-03T14:36:26Z</time>
      </trkpt>
      <trkpt lat="47.02679" lon="-1.04471">
        <ele>122</ele>
        <time>2012-05-03T14:36:27Z</time>
      </trkpt>
      <trkpt lat="47.02678" lon="-1.04473">
        <ele>122</ele>
        <time>2012-05-03T14:36:29Z</time>
      </trkpt>
      <trkpt lat="47.02672" lon="-1.04469">
        <ele>122</ele>
        <time>2012-05-03T14:36:31Z</time>
      </trkpt>
      <trkpt lat="47.0267" lon="-1.04467">
        <ele>122</ele>
        <time>2012-05-03T14:36:33Z</time>
      </trkpt>
      <trkpt lat="47.02666" lon="-1.04465">
        <ele>122</ele>
        <time>2012-05-03T14:36:33Z</time>
      </trkpt>
      <trkpt lat="47.02659" lon="-1.0446">
        <ele>122</ele>
        <time>2012-05-03T14:36:36Z</time>
      </trkpt>
      <trkpt lat="47.02655" lon="-1.04457">
        <ele>122</ele>
        <time>2012-05-03T14:36:36Z</time>
      </trkpt>
      <trkpt lat="47.02652" lon="-1.04455">
        <ele>122</ele>
        <time>2012-05-03T14:36:37Z</time>
      </trkpt>
      <trkpt lat="47.02644" lon="-1.0445">
        <ele>122</ele>
        <time>2012-05-03T14:36:40Z</time>
      </trkpt>
      <trkpt lat="47.02639" lon="-1.04447">
        <ele>122</ele>
        <time>2012-05-03T14:36:40Z</time>
      </trkpt>
      <trkpt lat="47.02635" lon="-1.04445">
        <ele>122</ele>
        <time>2012-05-03T14:36:41Z</time>
      </trkpt>
      <trkpt lat="47.02627" lon="-1.04439">
        <ele>122</ele>
        <time>2012-05-03T14:36:43Z</time>
      </trkpt>
      <trkpt lat="47.02623" lon="-1.04436">
        <ele>122</ele>
        <time>2012-05-03T14:36:44Z</time>
      </trkpt>
      <trkpt lat="47.02618" lon="-1.04434">
        <ele>122</ele>
        <time>2012-05-03T14:36:45Z</time>
      </trkpt>
      <trkpt lat="47.0261" lon="-1.04428">
        <ele>122</ele>
        <time>2012-05-03T14:36:47Z</time>
      </trkpt>
      <trkpt lat="47.02606" lon="-1.04425">
        <ele>122</ele>
        <time>2012-05-03T14:36:48Z</time>
      </trkpt>
      <trkpt lat="47.02602" lon="-1.04422">
        <ele>122</ele>
        <time>2012-05-03T14:36:49Z</time>
      </trkpt>
      <trkpt lat="47.02594" lon="-1.04417">
        <ele>122</ele>
        <time>2012-05-03T14:36:51Z</time>
      </trkpt>
      <trkpt lat="47.0259" lon="-1.04414">
        <ele>122</ele>
        <time>2012-05-03T14:36:52Z</time>
      </trkpt>
      <trkpt lat="47.02586" lon="-1.04411">
        <ele>122</ele>
        <time>2012-05-03T14:36:53Z</time>
      </trkpt>
      <trkpt lat="47.02578" lon="-1.04407">
        <ele>122</ele>
        <time>2012-05-03T14:36:55Z</time>
      </trkpt>
      <trkpt lat="47.02574" lon="-1.04405">
        <ele>122</ele>
        <time>2012-05-03T14:36:56Z</time>
      </trkpt>
      <trkpt lat="47.0257" lon="-1.04403">
        <ele>122</ele>
        <time>2012-05-03T14:36:57Z</time>
      </trkpt>
      <trkpt lat="47.02562" lon="-1.04399">
        <ele>122</ele>
        <time>2012-05-03T14:36:59Z</time>
      </trkpt>
      <trkpt lat="47.02558" lon="-1.04397">
        <ele>122</ele>
        <time>2012-05-03T14:37:00Z</time>
      </trkpt>
      <trkpt lat="47.02554" lon="-1.04395">
        <ele>122</ele>
        <time>2012-05-03T14:37:01Z</time>
      </trkpt>
      <trkpt lat="47.02545" lon="-1.04391">
        <ele>122</ele>
        <time>2012-05-03T14:37:03Z</time>
      </trkpt>
      <trkpt lat="47.02541" lon="-1.04389">
        <ele>122</ele>
        <time>2012-05-03T14:37:04Z</time>
      </trkpt>
      <trkpt lat="47.02537" lon="-1.04386">
        <ele>122</ele>
        <time>2012-05-03T14:37:05Z</time>
      </trkpt>
      <trkpt lat="47.02528" lon="-1.04382">
        <ele>122</ele>
        <time>2012-05-03T14:37:07Z</time>
      </trkpt>
      <trkpt lat="47.02524" lon="-1.0438">
        <ele>122</ele>
        <time>2012-05-03T14:37:08Z</time>
      </trkpt>
      <trkpt lat="47.0252" lon="-1.04378">
        <ele>122</ele>
        <time>2012-05-03T14:37:09Z</time>
      </trkpt>
      <trkpt lat="47.02512" lon="-1.04374">
        <ele>122</ele>
        <time>2012-05-03T14:37:11Z</time>
      </trkpt>
      <trkpt lat="47.02507" lon="-1.04372">
        <ele>122</ele>
        <time>2012-05-03T14:37:12Z</time>
      </trkpt>
      <trkpt lat="47.02503" lon="-1.0437">
        <ele>122</ele>
        <time>2012-05-03T14:37:13Z</time>
      </trkpt>
      <trkpt lat="47.02495" lon="-1.04366">
        <ele>122</ele>
        <time>2012-05-03T14:37:15Z</time>
      </trkpt>
      <trkpt lat="47.02491" lon="-1.04364">
        <ele>122</ele>
        <time>2012-05-03T14:37:16Z</time>
      </trkpt>
      <trkpt lat="47.02487" lon="-1.04361">
        <ele>122</ele>
        <time>2012-05-03T14:37:17Z</time>
      </trkpt>
      <trkpt lat="47.02478" lon="-1.04357">
        <ele>122</ele>
        <time>2012-05-03T14:37:19Z</time>
      </trkpt>
      <trkpt lat="47.02474" lon="-1.04355">
        <ele>123</ele>
        <time>2012-05-03T14:37:20Z</time>
      </trkpt>
      <trkpt lat="47.0247" lon="-1.04352">
        <ele>123</ele>
        <time>2012-05-03T14:37:21Z</time>
      </trkpt>
      <trkpt lat="47.02462" lon="-1.04348">
        <ele>123</ele>
        <time>2012-05-03T14:37:23Z</time>
      </trkpt>
      <trkpt lat="47.02458" lon="-1.04346">
        <ele>123</ele>
        <time>2012-05-03T14:37:24Z</time>
      </trkpt>
      <trkpt lat="47.02454" lon="-1.04344">
        <ele>123</ele>
        <time>2012-05-03T14:37:25Z</time>
      </trkpt>
      <trkpt lat="47.02445" lon="-1.0434">
        <ele>123</ele>
        <time>2012-05-03T14:37:27Z</time>
      </trkpt>
      <trkpt lat="47.02441" lon="-1.04338">
        <ele>124</ele>
        <time>2012-05-03T14:37:28Z</time>
      </trkpt>
      <trkpt lat="47.02437" lon="-1.04335">
        <ele>124</ele>
        <time>2012-05-03T14:37:29Z</time>
      </trkpt>
      <trkpt lat="47.02428" lon="-1.04332">
        <ele>124</ele>
        <time>2012-05-03T14:37:31Z</time>
      </trkpt>
      <trkpt lat="47.02424" lon="-1.0433">
        <ele>124</ele>
        <time>2012-05-03T14:37:32Z</time>
      </trkpt>
      <trkpt lat="47.02421" lon="-1.04328">
        <ele>124</ele>
        <time>2012-05-03T14:37:33Z</time>
      </trkpt>
      <trkpt lat="47.02414" lon="-1.04323">
        <ele>125</ele>
        <time>2012-05-03T14:37:35Z</time>
      </trkpt>
      <trkpt lat="47.02411" lon="-1.04321">
        <ele>125</ele>
        <time>2012-05-03T14:37:36Z</time>
      </trkpt>
      <trkpt lat="47.02408" lon="-1.0432">
        <ele>125</ele>
        <time>2012-05-03T14:37:37Z</time>
      </trkpt>
      <trkpt lat="47.02403" lon="-1.04316">
        <ele>125</ele>
        <time>2012-05-03T14:37:39Z</time>
      </trkpt>
      <trkpt lat="47.02401" lon="-1.04316">
        <ele>125</ele>
        <time>2012-05-03T14:37:40Z</time>
      </trkpt>
      <trkpt lat="47.02399" lon="-1.04317">
        <ele>126</ele>
        <time>2012-05-03T14:37:41Z</time>
      </trkpt>
      <trkpt lat="47.02399" lon="-1.0432">
        <ele>126</ele>
        <time>2012-05-03T14:37:42Z</time>
      </trkpt>
      <trkpt lat="47.02404" lon="-1.04322">
        <ele>126</ele>
        <time>2012-05-03T14:37:45Z</time>
      </trkpt>
      <trkpt lat="47.02406" lon="-1.04322">
        <ele>126</ele>
        <time>2012-05-03T14:37:47Z</time>
      </trkpt>
      <trkpt lat="47.02414" lon="-1.04324">
        <ele>126</ele>
        <time>2012-05-03T14:37:50Z</time>
      </trkpt>
      <trkpt lat="47.02421" lon="-1.04329">
        <ele>126</ele>
        <time>2012-05-03T14:37:50Z</time>
      </trkpt>
      <trkpt lat="47.02425" lon="-1.04331">
        <ele>126</ele>
        <time>2012-05-03T14:37:52Z</time>
      </trkpt>
      <trkpt lat="47.02434" lon="-1.04335">
        <ele>126</ele>
        <time>2012-05-03T14:37:54Z</time>
      </trkpt>
      <trkpt lat="47.02438" lon="-1.04338">
        <ele>126</ele>
        <time>2012-05-03T14:37:54Z</time>
      </trkpt>
      <trkpt lat="47.02443" lon="-1.0434">
        <ele>126</ele>
        <time>2012-05-03T14:37:55Z</time>
      </trkpt>
      <trkpt lat="47.02452" lon="-1.04343">
        <ele>126</ele>
        <time>2012-05-03T14:37:58Z</time>
      </trkpt>
      <trkpt lat="47.02457" lon="-1.04346">
        <ele>126</ele>
        <time>2012-05-03T14:37:58Z</time>
      </trkpt>
      <trkpt lat="47.02461" lon="-1.04348">
        <ele>126</ele>
        <time>2012-05-03T14:37:59Z</time>
      </trkpt>
      <trkpt lat="47.02471" lon="-1.04353">
        <ele>126</ele>
        <time>2012-05-03T14:38:02Z</time>
      </trkpt>
      <trkpt lat="47.02476" lon="-1.04356">
        <ele>126</ele>
        <time>2012-05-03T14:38:02Z</time>
      </trkpt>
      <trkpt lat="47.02481" lon="-1.04359">
        <ele>126</ele>
        <time>2012-05-03T14:38:03Z</time>
      </trkpt>
      <trkpt lat="47.02492" lon="-1.04364">
        <ele>126</ele>
        <time>2012-05-03T14:38:06Z</time>
      </trkpt>
      <trkpt lat="47.02498" lon="-1.04367">
        <ele>126</ele>
        <time>2012-05-03T14:38:06Z</time>
      </trkpt>
      <trkpt lat="47.02504" lon="-1.0437">
        <ele>126</ele>
        <time>2012-05-03T14:38:07Z</time>
      </trkpt>
      <trkpt lat="47.02515" lon="-1.04376">
        <ele>126</ele>
        <time>2012-05-03T14:38:10Z</time>
      </trkpt>
      <trkpt lat="47.02522" lon="-1.04379">
        <ele>126</ele>
        <time>2012-05-03T14:38:10Z</time>
      </trkpt>
      <trkpt lat="47.02528" lon="-1.04383">
        <ele>126</ele>
        <time>2012-05-03T14:38:11Z</time>
      </trkpt>
      <trkpt lat="47.02541" lon="-1.0439">
        <ele>126</ele>
        <time>2012-05-03T14:38:14Z</time>
      </trkpt>
      <trkpt lat="47.02549" lon="-1.04393">
        <ele>126</ele>
        <time>2012-05-03T14:38:14Z</time>
      </trkpt>
      <trkpt lat="47.02555" lon="-1.04396">
        <ele>126</ele>
        <time>2012-05-03T14:38:15Z</time>
      </trkpt>
      <trkpt lat="47.02568" lon="-1.04403">
        <ele>126</ele>
        <time>2012-05-03T14:38:17Z</time>
      </trkpt>
      <trkpt lat="47.02575" lon="-1.04407">
        <ele>125</ele>
        <time>2012-05-03T14:38:18Z</time>
      </trkpt>
      <trkpt lat="47.02581" lon="-1.04411">
        <ele>125</ele>
        <time>2012-05-03T14:38:19Z</time>
      </trkpt>
      <trkpt lat="47.02595" lon="-1.04418">
        <ele>125</ele>
        <time>2012-05-03T14:38:21Z</time>
      </trkpt>
      <trkpt lat="47.02602" lon="-1.04422">
        <ele>124</ele>
        <time>2012-05-03T14:38:22Z</time>
      </trkpt>
      <trkpt lat="47.02608" lon="-1.04427">
        <ele>124</ele>
        <time>2012-05-03T14:38:23Z</time>
      </trkpt>
      <trkpt lat="47.02621" lon="-1.04435">
        <ele>123</ele>
        <time>2012-05-03T14:38:25Z</time>
      </trkpt>
      <trkpt lat="47.02628" lon="-1.04439">
        <ele>122</ele>
        <time>2012-05-03T14:38:26Z</time>
      </trkpt>
      <trkpt lat="47.02634" lon="-1.04443">
        <ele>122</ele>
        <time>2012-05-03T14:38:27Z</time>
      </trkpt>
      <trkpt lat="47.02647" lon="-1.04451">
        <ele>122</ele>
        <time>2012-05-03T14:38:29Z</time>
      </trkpt>
      <trkpt lat="47.02653" lon="-1.04455">
        <ele>121</ele>
        <time>2012-05-03T14:38:30Z</time>
      </trkpt>
      <trkpt lat="47.02659" lon="-1.04459">
        <ele>121</ele>
        <time>2012-05-03T14:38:31Z</time>
      </trkpt>
      <trkpt lat="47.0267" lon="-1.04467">
        <ele>121</ele>
        <time>2012-05-03T14:38:33Z</time>
      </trkpt>
      <trkpt lat="47.02676" lon="-1.04471">
        <ele>120</ele>
        <time>2012-05-03T14:38:34Z</time>
      </trkpt>
      <trkpt lat="47.02681" lon="-1.04474">
        <ele>120</ele>
        <time>2012-05-03T14:38:35Z</time>
      </trkpt>
      <trkpt lat="47.02693" lon="-1.04479">
        <ele>120</ele>
        <time>2012-05-03T14:38:38Z</time>
      </trkpt>
      <trkpt lat="47.02699" lon="-1.0448">
        <ele>120</ele>
        <time>2012-05-03T14:38:38Z</time>
      </trkpt>
      <trkpt lat="47.02705" lon="-1.04481">
        <ele>120</ele>
        <time>2012-05-03T14:38:39Z</time>
      </trkpt>
      <trkpt lat="47.02716" lon="-1.04484">
        <ele>120</ele>
        <time>2012-05-03T14:38:42Z</time>
      </trkpt>
      <trkpt lat="47.02723" lon="-1.04486">
        <ele>120</ele>
        <time>2012-05-03T14:38:42Z</time>
      </trkpt>
      <trkpt lat="47.02728" lon="-1.04487">
        <ele>120</ele>
        <time>2012-05-03T14:38:43Z</time>
      </trkpt>
      <trkpt lat="47.0274" lon="-1.04491">
        <ele>120</ele>
        <time>2012-05-03T14:38:46Z</time>
      </trkpt>
      <trkpt lat="47.02745" lon="-1.04493">
        <ele>120</ele>
        <time>2012-05-03T14:38:46Z</time>
      </trkpt>
      <trkpt lat="47.02751" lon="-1.04495">
        <ele>120</ele>
        <time>2012-05-03T14:38:47Z</time>
      </trkpt>
      <trkpt lat="47.02762" lon="-1.045">
        <ele>120</ele>
        <time>2012-05-03T14:38:50Z</time>
      </trkpt>
      <trkpt lat="47.02768" lon="-1.04502">
        <ele>120</ele>
        <time>2012-05-03T14:38:50Z</time>
      </trkpt>
      <trkpt lat="47.02773" lon="-1.04504">
        <ele>120</ele>
        <time>2012-05-03T14:38:51Z</time>
      </trkpt>
      <trkpt lat="47.02783" lon="-1.04509">
        <ele>120</ele>
        <time>2012-05-03T14:38:54Z</time>
      </trkpt>
      <trkpt lat="47.02788" lon="-1.04512">
        <ele>120</ele>
        <time>2012-05-03T14:38:54Z</time>
      </trkpt>
      <trkpt lat="47.02793" lon="-1.04516">
        <ele>120</ele>
        <time>2012-05-03T14:38:55Z</time>
      </trkpt>
      <trkpt lat="47.02804" lon="-1.04525">
        <ele>120</ele>
        <time>2012-05-03T14:38:58Z</time>
      </trkpt>
      <trkpt lat="47.0281" lon="-1.04531">
        <ele>120</ele>
        <time>2012-05-03T14:38:58Z</time>
      </trkpt>
      <trkpt lat="47.02815" lon="-1.04536">
        <ele>120</ele>
        <time>2012-05-03T14:38:59Z</time>
      </trkpt>
      <trkpt lat="47.02826" lon="-1.04548">
        <ele>120</ele>
        <time>2012-05-03T14:39:02Z</time>
      </trkpt>
      <trkpt lat="47.02831" lon="-1.04554">
        <ele>119</ele>
        <time>2012-05-03T14:39:02Z</time>
      </trkpt>
      <trkpt lat="47.02835" lon="-1.0456">
        <ele>119</ele>
        <time>2012-05-03T14:39:03Z</time>
      </trkpt>
      <trkpt lat="47.02845" lon="-1.04571">
        <ele>119</ele>
        <time>2012-05-03T14:39:05Z</time>
      </trkpt>
      <trkpt lat="47.0285" lon="-1.04576">
        <ele>119</ele>
        <time>2012-05-03T14:39:06Z</time>
      </trkpt>
      <trkpt lat="47.02854" lon="-1.0458">
        <ele>119</ele>
        <time>2012-05-03T14:39:07Z</time>
      </trkpt>
      <trkpt lat="47.02863" lon="-1.04586">
        <ele>119</ele>
        <time>2012-05-03T14:39:09Z</time>
      </trkpt>
      <trkpt lat="47.02868" lon="-1.04587">
        <ele>119</ele>
        <time>2012-05-03T14:39:11Z</time>
      </trkpt>
      <trkpt lat="47.02873" lon="-1.04587">
        <ele>119</ele>
        <time>2012-05-03T14:39:11Z</time>
      </trkpt>
      <trkpt lat="47.02877" lon="-1.04587">
        <ele>119</ele>
        <time>2012-05-03T14:39:13Z</time>
      </trkpt>
      <trkpt lat="47.02886" lon="-1.04587">
        <ele>119</ele>
        <time>2012-05-03T14:39:15Z</time>
      </trkpt>
      <trkpt lat="47.0289" lon="-1.04586">
        <ele>119</ele>
        <time>2012-05-03T14:39:15Z</time>
      </trkpt>
      <trkpt lat="47.02894" lon="-1.04585">
        <ele>119</ele>
        <time>2012-05-03T14:39:16Z</time>
      </trkpt>
      <trkpt lat="47.029" lon="-1.04584">
        <ele>119</ele>
        <time>2012-05-03T14:39:19Z</time>
      </trkpt>
      <trkpt lat="47.02899" lon="-1.04587">
        <ele>119</ele>
        <time>2012-05-03T14:39:21Z</time>
      </trkpt>
      <trkpt lat="47.02898" lon="-1.04587">
        <ele>119</ele>
        <time>2012-05-03T14:39:22Z</time>
      </trkpt>
      <trkpt lat="47.02895" lon="-1.04587">
        <ele>119</ele>
        <time>2012-05-03T14:39:23Z</time>
      </trkpt>
      <trkpt lat="47.02889" lon="-1.04587">
        <ele>119</ele>
        <time>2012-05-03T14:39:25Z</time>
      </trkpt>
      <trkpt lat="47.02879" lon="-1.04589">
        <ele>119</ele>
        <time>2012-05-03T14:39:26Z</time>
      </trkpt>
      <trkpt lat="47.02869" lon="-1.04589">
        <ele>119</ele>
        <time>2012-05-03T14:39:29Z</time>
      </trkpt>
      <trkpt lat="47.02863" lon="-1.04587">
        <ele>119</ele>
        <time>2012-05-03T14:39:29Z</time>
      </trkpt>
      <trkpt lat="47.02858" lon="-1.04585">
        <ele>119</ele>
        <time>2012-05-03T14:39:30Z</time>
      </trkpt>
      <trkpt lat="47.02853" lon="-1.04581">
        <ele>119</ele>
        <time>2012-05-03T14:39:32Z</time>
      </trkpt>
      <trkpt lat="47.02848" lon="-1.04577">
        <ele>119</ele>
        <time>2012-05-03T14:39:33Z</time>
      </trkpt>
      <trkpt lat="47.02839" lon="-1.04566">
        <ele>119</ele>
        <time>2012-05-03T14:39:35Z</time>
      </trkpt>
      <trkpt lat="47.02835" lon="-1.04561">
        <ele>119</ele>
        <time>2012-05-03T14:39:35Z</time>
      </trkpt>
      <trkpt lat="47.0283" lon="-1.04556">
        <ele>118</ele>
        <time>2012-05-03T14:39:36Z</time>
      </trkpt>
      <trkpt lat="47.02822" lon="-1.04545">
        <ele>118</ele>
        <time>2012-05-03T14:39:39Z</time>
      </trkpt>
      <trkpt lat="47.02818" lon="-1.0454">
        <ele>117</ele>
        <time>2012-05-03T14:39:39Z</time>
      </trkpt>
      <trkpt lat="47.02813" lon="-1.04536">
        <ele>117</ele>
        <time>2012-05-03T14:39:40Z</time>
      </trkpt>
      <trkpt lat="47.02804" lon="-1.04527">
        <ele>116</ele>
        <time>2012-05-03T14:39:43Z</time>
      </trkpt>
      <trkpt lat="47.028" lon="-1.04523">
        <ele>116</ele>
        <time>2012-05-03T14:39:43Z</time>
      </trkpt>
      <trkpt lat="47.02795" lon="-1.0452">
        <ele>116</ele>
        <time>2012-05-03T14:39:44Z</time>
      </trkpt>
      <trkpt lat="47.02787" lon="-1.04514">
        <ele>116</ele>
        <time>2012-05-03T14:39:47Z</time>
      </trkpt>
      <trkpt lat="47.02782" lon="-1.04511">
        <ele>116</ele>
        <time>2012-05-03T14:39:47Z</time>
      </trkpt>
      <trkpt lat="47.02778" lon="-1.04508">
        <ele>116</ele>
        <time>2012-05-03T14:39:48Z</time>
      </trkpt>
      <trkpt lat="47.02771" lon="-1.04504">
        <ele>116</ele>
        <time>2012-05-03T14:39:51Z</time>
      </trkpt>
      <trkpt lat="47.02767" lon="-1.04502">
        <ele>116</ele>
        <time>2012-05-03T14:39:51Z</time>
      </trkpt>
      <trkpt lat="47.02763" lon="-1.04501">
        <ele>116</ele>
        <time>2012-05-03T14:39:52Z</time>
      </trkpt>
      <trkpt lat="47.02757" lon="-1.04501">
        <ele>116</ele>
        <time>2012-05-03T14:39:55Z</time>
      </trkpt>
      <trkpt lat="47.02754" lon="-1.04504">
        <ele>116</ele>
        <time>2012-05-03T14:39:55Z</time>
      </trkpt>
      <trkpt lat="47.02751" lon="-1.04507">
        <ele>116</ele>
        <time>2012-05-03T14:39:57Z</time>
      </trkpt>
      <trkpt lat="47.0275" lon="-1.04511">
        <ele>116</ele>
        <time>2012-05-03T14:39:58Z</time>
      </trkpt>
      <trkpt lat="47.02752" lon="-1.04524">
        <ele>116</ele>
        <time>2012-05-03T14:40:00Z</time>
      </trkpt>
      <trkpt lat="47.02753" lon="-1.0453">
        <ele>116</ele>
        <time>2012-05-03T14:40:01Z</time>
      </trkpt>
      <trkpt lat="47.02755" lon="-1.04536">
        <ele>116</ele>
        <time>2012-05-03T14:40:03Z</time>
      </trkpt>
      <trkpt lat="47.02758" lon="-1.04557">
        <ele>116</ele>
        <time>2012-05-03T14:40:05Z</time>
      </trkpt>
      <trkpt lat="47.0276" lon="-1.04564">
        <ele>116</ele>
        <time>2012-05-03T14:40:06Z</time>
      </trkpt>
      <trkpt lat="47.0276" lon="-1.04588">
        <ele>116</ele>
        <time>2012-05-03T14:40:09Z</time>
      </trkpt>
      <trkpt lat="47.02759" lon="-1.04596">
        <ele>116</ele>
        <time>2012-05-03T14:40:11Z</time>
      </trkpt>
      <trkpt lat="47.02757" lon="-1.04604">
        <ele>116</ele>
        <time>2012-05-03T14:40:12Z</time>
      </trkpt>
      <trkpt lat="47.02752" lon="-1.04619">
        <ele>116</ele>
        <time>2012-05-03T14:40:13Z</time>
      </trkpt>
      <trkpt lat="47.02747" lon="-1.04631">
        <ele>116</ele>
        <time>2012-05-03T14:40:15Z</time>
      </trkpt>
      <trkpt lat="47.02745" lon="-1.04638">
        <ele>116</ele>
        <time>2012-05-03T14:40:16Z</time>
      </trkpt>
      <trkpt lat="47.02744" lon="-1.04645">
        <ele>116</ele>
        <time>2012-05-03T14:40:17Z</time>
      </trkpt>
      <trkpt lat="47.0274" lon="-1.04659">
        <ele>116</ele>
        <time>2012-05-03T14:40:19Z</time>
      </trkpt>
      <trkpt lat="47.02738" lon="-1.04667">
        <ele>116</ele>
        <time>2012-05-03T14:40:20Z</time>
      </trkpt>
      <trkpt lat="47.02736" lon="-1.04675">
        <ele>116</ele>
        <time>2012-05-03T14:40:21Z</time>
      </trkpt>
      <trkpt lat="47.02733" lon="-1.0469">
        <ele>116</ele>
        <time>2012-05-03T14:40:23Z</time>
      </trkpt>
      <trkpt lat="47.02731" lon="-1.04698">
        <ele>116</ele>
        <time>2012-05-03T14:40:24Z</time>
      </trkpt>
      <trkpt lat="47.02729" lon="-1.04705">
        <ele>116</ele>
        <time>2012-05-03T14:40:25Z</time>
      </trkpt>
      <trkpt lat="47.02726" lon="-1.04719">
        <ele>116</ele>
        <time>2012-05-03T14:40:27Z</time>
      </trkpt>
      <trkpt lat="47.02725" lon="-1.04727">
        <ele>116</ele>
        <time>2012-05-03T14:40:28Z</time>
      </trkpt>
      <trkpt lat="47.02723" lon="-1.04735">
        <ele>116</ele>
        <time>2012-05-03T14:40:29Z</time>
      </trkpt>
      <trkpt lat="47.02718" lon="-1.04751">
        <ele>116</ele>
        <time>2012-05-03T14:40:31Z</time>
      </trkpt>
      <trkpt lat="47.02716" lon="-1.04759">
        <ele>116</ele>
        <time>2012-05-03T14:40:32Z</time>
      </trkpt>
      <trkpt lat="47.02713" lon="-1.04768">
        <ele>116</ele>
        <time>2012-05-03T14:40:33Z</time>
      </trkpt>
      <trkpt lat="47.02708" lon="-1.04785">
        <ele>116</ele>
        <time>2012-05-03T14:40:35Z</time>
      </trkpt>
      <trkpt lat="47.02705" lon="-1.04794">
        <ele>116</ele>
        <time>2012-05-03T14:40:36Z</time>
      </trkpt>
      <trkpt lat="47.02701" lon="-1.04802">
        <ele>116</ele>
        <time>2012-05-03T14:40:37Z</time>
      </trkpt>
      <trkpt lat="47.02695" lon="-1.0482">
        <ele>116</ele>
        <time>2012-05-03T14:40:39Z</time>
      </trkpt>
      <trkpt lat="47.02692" lon="-1.04829">
        <ele>116</ele>
        <time>2012-05-03T14:40:40Z</time>
      </trkpt>
      <trkpt lat="47.02689" lon="-1.04838">
        <ele>116</ele>
        <time>2012-05-03T14:40:41Z</time>
      </trkpt>
      <trkpt lat="47.02682" lon="-1.04856">
        <ele>116</ele>
        <time>2012-05-03T14:40:43Z</time>
      </trkpt>
      <trkpt lat="47.02679" lon="-1.04864">
        <ele>116</ele>
        <time>2012-05-03T14:40:44Z</time>
      </trkpt>
      <trkpt lat="47.02676" lon="-1.04871">
        <ele>116</ele>
        <time>2012-05-03T14:40:45Z</time>
      </trkpt>
      <trkpt lat="47.02667" lon="-1.04884">
        <ele>116</ele>
        <time>2012-05-03T14:40:47Z</time>
      </trkpt>
      <trkpt lat="47.02663" lon="-1.0489">
        <ele>116</ele>
        <time>2012-05-03T14:40:48Z</time>
      </trkpt>
      <trkpt lat="47.02657" lon="-1.04895">
        <ele>116</ele>
        <time>2012-05-03T14:40:50Z</time>
      </trkpt>
      <trkpt lat="47.02646" lon="-1.04906">
        <ele>116</ele>
        <time>2012-05-03T14:40:52Z</time>
      </trkpt>
      <trkpt lat="47.02641" lon="-1.04911">
        <ele>116</ele>
        <time>2012-05-03T14:40:52Z</time>
      </trkpt>
      <trkpt lat="47.02636" lon="-1.04916">
        <ele>116</ele>
        <time>2012-05-03T14:40:53Z</time>
      </trkpt>
      <trkpt lat="47.02626" lon="-1.04926">
        <ele>116</ele>
        <time>2012-05-03T14:40:56Z</time>
      </trkpt>
      <trkpt lat="47.02622" lon="-1.04931">
        <ele>116</ele>
        <time>2012-05-03T14:40:56Z</time>
      </trkpt>
      <trkpt lat="47.02617" lon="-1.04936">
        <ele>116</ele>
        <time>2012-05-03T14:40:57Z</time>
      </trkpt>
      <trkpt lat="47.02609" lon="-1.04946">
        <ele>116</ele>
        <time>2012-05-03T14:41:00Z</time>
      </trkpt>
      <trkpt lat="47.02605" lon="-1.04951">
        <ele>116</ele>
        <time>2012-05-03T14:41:00Z</time>
      </trkpt>
      <trkpt lat="47.02602" lon="-1.04956">
        <ele>116</ele>
        <time>2012-05-03T14:41:01Z</time>
      </trkpt>
      <trkpt lat="47.02595" lon="-1.04968">
        <ele>116</ele>
        <time>2012-05-03T14:41:04Z</time>
      </trkpt>
      <trkpt lat="47.02592" lon="-1.04974">
        <ele>116</ele>
        <time>2012-05-03T14:41:04Z</time>
      </trkpt>
      <trkpt lat="47.02589" lon="-1.0498">
        <ele>116</ele>
        <time>2012-05-03T14:41:05Z</time>
      </trkpt>
      <trkpt lat="47.02584" lon="-1.04993">
        <ele>116</ele>
        <time>2012-05-03T14:41:08Z</time>
      </trkpt>
      <trkpt lat="47.02582" lon="-1.04999">
        <ele>116</ele>
        <time>2012-05-03T14:41:08Z</time>
      </trkpt>
      <trkpt lat="47.02579" lon="-1.05004">
        <ele>116</ele>
        <time>2012-05-03T14:41:09Z</time>
      </trkpt>
      <trkpt lat="47.02575" lon="-1.05014">
        <ele>116</ele>
        <time>2012-05-03T14:41:12Z</time>
      </trkpt>
      <trkpt lat="47.02573" lon="-1.05018">
        <ele>116</ele>
        <time>2012-05-03T14:41:12Z</time>
      </trkpt>
      <trkpt lat="47.02572" lon="-1.05023">
        <ele>116</ele>
        <time>2012-05-03T14:41:13Z</time>
      </trkpt>
      <trkpt lat="47.02569" lon="-1.05032">
        <ele>116</ele>
        <time>2012-05-03T14:41:16Z</time>
      </trkpt>
      <trkpt lat="47.02568" lon="-1.05038">
        <ele>116</ele>
        <time>2012-05-03T14:41:16Z</time>
      </trkpt>
      <trkpt lat="47.02566" lon="-1.05044">
        <ele>116</ele>
        <time>2012-05-03T14:41:17Z</time>
      </trkpt>
      <trkpt lat="47.0256" lon="-1.05054">
        <ele>116</ele>
        <time>2012-05-03T14:41:20Z</time>
      </trkpt>
      <trkpt lat="47.02557" lon="-1.05059">
        <ele>116</ele>
        <time>2012-05-03T14:41:21Z</time>
      </trkpt>
      <trkpt lat="47.02553" lon="-1.05063">
        <ele>116</ele>
        <time>2012-05-03T14:41:22Z</time>
      </trkpt>
      <trkpt lat="47.02549" lon="-1.05067">
        <ele>116</ele>
        <time>2012-05-03T14:41:23Z</time>
      </trkpt>
      <trkpt lat="47.0254" lon="-1.05075">
        <ele>116</ele>
        <time>2012-05-03T14:41:25Z</time>
      </trkpt>
      <trkpt lat="47.02536" lon="-1.05079">
        <ele>116</ele>
        <time>2012-05-03T14:41:25Z</time>
      </trkpt>
      <trkpt lat="47.02532" lon="-1.05084">
        <ele>116</ele>
        <time>2012-05-03T14:41:26Z</time>
      </trkpt>
      <trkpt lat="47.02523" lon="-1.05092">
        <ele>116</ele>
        <time>2012-05-03T14:41:29Z</time>
      </trkpt>
      <trkpt lat="47.02519" lon="-1.05096">
        <ele>117</ele>
        <time>2012-05-03T14:41:29Z</time>
      </trkpt>
      <trkpt lat="47.02514" lon="-1.05101">
        <ele>117</ele>
        <time>2012-05-03T14:41:30Z</time>
      </trkpt>
      <trkpt lat="47.02505" lon="-1.05109">
        <ele>118</ele>
        <time>2012-05-03T14:41:33Z</time>
      </trkpt>
      <trkpt lat="47.02501" lon="-1.05113">
        <ele>118</ele>
        <time>2012-05-03T14:41:33Z</time>
      </trkpt>
      <trkpt lat="47.02496" lon="-1.05117">
        <ele>118</ele>
        <time>2012-05-03T14:41:34Z</time>
      </trkpt>
      <trkpt lat="47.02488" lon="-1.05126">
        <ele>118</ele>
        <time>2012-05-03T14:41:37Z</time>
      </trkpt>
      <trkpt lat="47.02483" lon="-1.0513">
        <ele>119</ele>
        <time>2012-05-03T14:41:37Z</time>
      </trkpt>
      <trkpt lat="47.02479" lon="-1.05135">
        <ele>119</ele>
        <time>2012-05-03T14:41:38Z</time>
      </trkpt>
      <trkpt lat="47.0247" lon="-1.05144">
        <ele>119</ele>
        <time>2012-05-03T14:41:41Z</time>
      </trkpt>
      <trkpt lat="47.02466" lon="-1.05149">
        <ele>119</ele>
        <time>2012-05-03T14:41:41Z</time>
      </trkpt>
      <trkpt lat="47.02462" lon="-1.05154">
        <ele>119</ele>
        <time>2012-05-03T14:41:42Z</time>
      </trkpt>
      <trkpt lat="47.02454" lon="-1.05164">
        <ele>119</ele>
        <time>2012-05-03T14:41:45Z</time>
      </trkpt>
      <trkpt lat="47.02449" lon="-1.05169">
        <ele>119</ele>
        <time>2012-05-03T14:41:45Z</time>
      </trkpt>
      <trkpt lat="47.02445" lon="-1.05175">
        <ele>119</ele>
        <time>2012-05-03T14:41:46Z</time>
      </trkpt>
      <trkpt lat="47.02437" lon="-1.05185">
        <ele>120</ele>
        <time>2012-05-03T14:41:49Z</time>
      </trkpt>
      <trkpt lat="47.02433" lon="-1.05191">
        <ele>120</ele>
        <time>2012-05-03T14:41:49Z</time>
      </trkpt>
      <trkpt lat="47.02429" lon="-1.05197">
        <ele>120</ele>
        <time>2012-05-03T14:41:50Z</time>
      </trkpt>
      <trkpt lat="47.02421" lon="-1.05209">
        <ele>120</ele>
        <time>2012-05-03T14:41:53Z</time>
      </trkpt>
      <trkpt lat="47.02417" lon="-1.05215">
        <ele>120</ele>
        <time>2012-05-03T14:41:53Z</time>
      </trkpt>
      <trkpt lat="47.02414" lon="-1.05221">
        <ele>120</ele>
        <time>2012-05-03T14:41:54Z</time>
      </trkpt>
      <trkpt lat="47.02406" lon="-1.05233">
        <ele>120</ele>
        <time>2012-05-03T14:41:57Z</time>
      </trkpt>
      <trkpt lat="47.02402" lon="-1.05238">
        <ele>121</ele>
        <time>2012-05-03T14:41:57Z</time>
      </trkpt>
      <trkpt lat="47.02399" lon="-1.05244">
        <ele>121</ele>
        <time>2012-05-03T14:41:58Z</time>
      </trkpt>
      <trkpt lat="47.02392" lon="-1.05256">
        <ele>121</ele>
        <time>2012-05-03T14:42:01Z</time>
      </trkpt>
      <trkpt lat="47.02388" lon="-1.05262">
        <ele>121</ele>
        <time>2012-05-03T14:42:01Z</time>
      </trkpt>
      <trkpt lat="47.02385" lon="-1.05268">
        <ele>121</ele>
        <time>2012-05-03T14:42:02Z</time>
      </trkpt>
      <trkpt lat="47.02378" lon="-1.05281">
        <ele>121</ele>
        <time>2012-05-03T14:42:05Z</time>
      </trkpt>
      <trkpt lat="47.02375" lon="-1.05287">
        <ele>121</ele>
        <time>2012-05-03T14:42:05Z</time>
      </trkpt>
      <trkpt lat="47.02371" lon="-1.05293">
        <ele>121</ele>
        <time>2012-05-03T14:42:06Z</time>
      </trkpt>
      <trkpt lat="47.02364" lon="-1.05307">
        <ele>121</ele>
        <time>2012-05-03T14:42:09Z</time>
      </trkpt>
      <trkpt lat="47.02361" lon="-1.05314">
        <ele>121</ele>
        <time>2012-05-03T14:42:09Z</time>
      </trkpt>
      <trkpt lat="47.02358" lon="-1.05321">
        <ele>121</ele>
        <time>2012-05-03T14:42:10Z</time>
      </trkpt>
      <trkpt lat="47.02353" lon="-1.05335">
        <ele>121</ele>
        <time>2012-05-03T14:42:13Z</time>
      </trkpt>
      <trkpt lat="47.02351" lon="-1.05343">
        <ele>121</ele>
        <time>2012-05-03T14:42:13Z</time>
      </trkpt>
      <trkpt lat="47.02348" lon="-1.0535">
        <ele>121</ele>
        <time>2012-05-03T14:42:14Z</time>
      </trkpt>
      <trkpt lat="47.02345" lon="-1.05366">
        <ele>121</ele>
        <time>2012-05-03T14:42:17Z</time>
      </trkpt>
      <trkpt lat="47.02343" lon="-1.05373">
        <ele>121</ele>
        <time>2012-05-03T14:42:17Z</time>
      </trkpt>
      <trkpt lat="47.02341" lon="-1.05381">
        <ele>121</ele>
        <time>2012-05-03T14:42:18Z</time>
      </trkpt>
      <trkpt lat="47.02336" lon="-1.05397">
        <ele>121</ele>
        <time>2012-05-03T14:42:21Z</time>
      </trkpt>
      <trkpt lat="47.02334" lon="-1.05405">
        <ele>121</ele>
        <time>2012-05-03T14:42:21Z</time>
      </trkpt>
      <trkpt lat="47.02333" lon="-1.05414">
        <ele>121</ele>
        <time>2012-05-03T14:42:22Z</time>
      </trkpt>
      <trkpt lat="47.02328" lon="-1.05432">
        <ele>121</ele>
        <time>2012-05-03T14:42:25Z</time>
      </trkpt>
      <trkpt lat="47.02323" lon="-1.05438">
        <ele>121</ele>
        <time>2012-05-03T14:42:25Z</time>
      </trkpt>
      <trkpt lat="47.02317" lon="-1.05442">
        <ele>121</ele>
        <time>2012-05-03T14:42:27Z</time>
      </trkpt>
      <trkpt lat="47.02311" lon="-1.05443">
        <ele>121</ele>
        <time>2012-05-03T14:42:28Z</time>
      </trkpt>
      <trkpt lat="47.02304" lon="-1.05442">
        <ele>121</ele>
        <time>2012-05-03T14:42:29Z</time>
      </trkpt>
      <trkpt lat="47.02291" lon="-1.05445">
        <ele>121</ele>
        <time>2012-05-03T14:42:31Z</time>
      </trkpt>
      <trkpt lat="47.02281" lon="-1.05456">
        <ele>121</ele>
        <time>2012-05-03T14:42:32Z</time>
      </trkpt>
      <trkpt lat="47.02276" lon="-1.05464">
        <ele>121</ele>
        <time>2012-05-03T14:42:33Z</time>
      </trkpt>
      <trkpt lat="47.02268" lon="-1.05479">
        <ele>121</ele>
        <time>2012-05-03T14:42:37Z</time>
      </trkpt>
      <trkpt lat="47.02259" lon="-1.05493">
        <ele>121</ele>
        <time>2012-05-03T14:42:37Z</time>
      </trkpt>
      <trkpt lat="47.0225" lon="-1.05505">
        <ele>121</ele>
        <time>2012-05-03T14:42:40Z</time>
      </trkpt>
      <trkpt lat="47.02245" lon="-1.05511">
        <ele>121</ele>
        <time>2012-05-03T14:42:40Z</time>
      </trkpt>
      <trkpt lat="47.0224" lon="-1.05518">
        <ele>121</ele>
        <time>2012-05-03T14:42:41Z</time>
      </trkpt>
      <trkpt lat="47.0223" lon="-1.05531">
        <ele>121</ele>
        <time>2012-05-03T14:42:44Z</time>
      </trkpt>
      <trkpt lat="47.02225" lon="-1.05537">
        <ele>121</ele>
        <time>2012-05-03T14:42:44Z</time>
      </trkpt>
      <trkpt lat="47.0222" lon="-1.05543">
        <ele>121</ele>
        <time>2012-05-03T14:42:45Z</time>
      </trkpt>
      <trkpt lat="47.02213" lon="-1.05559">
        <ele>121</ele>
        <time>2012-05-03T14:42:48Z</time>
      </trkpt>
      <trkpt lat="47.02209" lon="-1.05568">
        <ele>121</ele>
        <time>2012-05-03T14:42:48Z</time>
      </trkpt>
      <trkpt lat="47.02206" lon="-1.05577">
        <ele>121</ele>
        <time>2012-05-03T14:42:50Z</time>
      </trkpt>
      <trkpt lat="47.02201" lon="-1.05606">
        <ele>121</ele>
        <time>2012-05-03T14:42:52Z</time>
      </trkpt>
      <trkpt lat="47.022" lon="-1.05616">
        <ele>121</ele>
        <time>2012-05-03T14:42:53Z</time>
      </trkpt>
      <trkpt lat="47.022" lon="-1.05627">
        <ele>121</ele>
        <time>2012-05-03T14:42:55Z</time>
      </trkpt>
      <trkpt lat="47.02198" lon="-1.0566">
        <ele>121</ele>
        <time>2012-05-03T14:42:57Z</time>
      </trkpt>
      <trkpt lat="47.02198" lon="-1.05671">
        <ele>121</ele>
        <time>2012-05-03T14:42:58Z</time>
      </trkpt>
      <trkpt lat="47.02197" lon="-1.05705">
        <ele>121</ele>
        <time>2012-05-03T14:43:01Z</time>
      </trkpt>
      <trkpt lat="47.02196" lon="-1.05716">
        <ele>121</ele>
        <time>2012-05-03T14:43:02Z</time>
      </trkpt>
      <trkpt lat="47.02194" lon="-1.05749">
        <ele>121</ele>
        <time>2012-05-03T14:43:05Z</time>
      </trkpt>
      <trkpt lat="47.02193" lon="-1.0576">
        <ele>121</ele>
        <time>2012-05-03T14:43:06Z</time>
      </trkpt>
      <trkpt lat="47.02192" lon="-1.05772">
        <ele>121</ele>
        <time>2012-05-03T14:43:07Z</time>
      </trkpt>
      <trkpt lat="47.0219" lon="-1.05794">
        <ele>121</ele>
        <time>2012-05-03T14:43:10Z</time>
      </trkpt>
      <trkpt lat="47.02189" lon="-1.05806">
        <ele>121</ele>
        <time>2012-05-03T14:43:10Z</time>
      </trkpt>
      <trkpt lat="47.02188" lon="-1.05817">
        <ele>121</ele>
        <time>2012-05-03T14:43:11Z</time>
      </trkpt>
      <trkpt lat="47.02185" lon="-1.0584">
        <ele>121</ele>
        <time>2012-05-03T14:43:14Z</time>
      </trkpt>
      <trkpt lat="47.02184" lon="-1.05852">
        <ele>121</ele>
        <time>2012-05-03T14:43:14Z</time>
      </trkpt>
      <trkpt lat="47.02182" lon="-1.05864">
        <ele>120</ele>
        <time>2012-05-03T14:43:15Z</time>
      </trkpt>
      <trkpt lat="47.02179" lon="-1.05888">
        <ele>120</ele>
        <time>2012-05-03T14:43:18Z</time>
      </trkpt>
      <trkpt lat="47.02177" lon="-1.059">
        <ele>119</ele>
        <time>2012-05-03T14:43:18Z</time>
      </trkpt>
      <trkpt lat="47.02176" lon="-1.05912">
        <ele>119</ele>
        <time>2012-05-03T14:43:19Z</time>
      </trkpt>
      <trkpt lat="47.02172" lon="-1.05937">
        <ele>118</ele>
        <time>2012-05-03T14:43:22Z</time>
      </trkpt>
      <trkpt lat="47.02171" lon="-1.05949">
        <ele>118</ele>
        <time>2012-05-03T14:43:22Z</time>
      </trkpt>
      <trkpt lat="47.02169" lon="-1.05962">
        <ele>117</ele>
        <time>2012-05-03T14:43:23Z</time>
      </trkpt>
      <trkpt lat="47.02167" lon="-1.05987">
        <ele>117</ele>
        <time>2012-05-03T14:43:26Z</time>
      </trkpt>
      <trkpt lat="47.02166" lon="-1.06">
        <ele>116</ele>
        <time>2012-05-03T14:43:26Z</time>
      </trkpt>
      <trkpt lat="47.02164" lon="-1.06012">
        <ele>116</ele>
        <time>2012-05-03T14:43:27Z</time>
      </trkpt>
      <trkpt lat="47.02161" lon="-1.06038">
        <ele>115</ele>
        <time>2012-05-03T14:43:30Z</time>
      </trkpt>
      <trkpt lat="47.0216" lon="-1.0605">
        <ele>115</ele>
        <time>2012-05-03T14:43:30Z</time>
      </trkpt>
      <trkpt lat="47.02158" lon="-1.06063">
        <ele>114</ele>
        <time>2012-05-03T14:43:31Z</time>
      </trkpt>
      <trkpt lat="47.02155" lon="-1.06089">
        <ele>114</ele>
        <time>2012-05-03T14:43:34Z</time>
      </trkpt>
      <trkpt lat="47.02154" lon="-1.06103">
        <ele>113</ele>
        <time>2012-05-03T14:43:34Z</time>
      </trkpt>
      <trkpt lat="47.02152" lon="-1.06116">
        <ele>113</ele>
        <time>2012-05-03T14:43:35Z</time>
      </trkpt>
      <trkpt lat="47.02141" lon="-1.06137">
        <ele>112</ele>
        <time>2012-05-03T14:43:38Z</time>
      </trkpt>
      <trkpt lat="47.02133" lon="-1.06142">
        <ele>112</ele>
        <time>2012-05-03T14:43:39Z</time>
      </trkpt>
      <trkpt lat="47.02124" lon="-1.06144">
        <ele>112</ele>
        <time>2012-05-03T14:43:39Z</time>
      </trkpt>
      <trkpt lat="47.02115" lon="-1.06144">
        <ele>112</ele>
        <time>2012-05-03T14:43:41Z</time>
      </trkpt>
      <trkpt lat="47.021" lon="-1.06145">
        <ele>112</ele>
        <time>2012-05-03T14:43:43Z</time>
      </trkpt>
      <trkpt lat="47.02093" lon="-1.06147">
        <ele>111</ele>
        <time>2012-05-03T14:43:43Z</time>
      </trkpt>
      <trkpt lat="47.02087" lon="-1.06151">
        <ele>111</ele>
        <time>2012-05-03T14:43:44Z</time>
      </trkpt>
      <trkpt lat="47.02083" lon="-1.0616">
        <ele>111</ele>
        <time>2012-05-03T14:43:45Z</time>
      </trkpt>
      <trkpt lat="47.02084" lon="-1.0618">
        <ele>111</ele>
        <time>2012-05-03T14:43:49Z</time>
      </trkpt>
      <trkpt lat="47.02085" lon="-1.06202">
        <ele>110</ele>
        <time>2012-05-03T14:43:50Z</time>
      </trkpt>
      <trkpt lat="47.02085" lon="-1.06214">
        <ele>110</ele>
        <time>2012-05-03T14:43:50Z</time>
      </trkpt>
      <trkpt lat="47.02085" lon="-1.06237">
        <ele>109</ele>
        <time>2012-05-03T14:43:53Z</time>
      </trkpt>
      <trkpt lat="47.02086" lon="-1.06247">
        <ele>109</ele>
        <time>2012-05-03T14:43:53Z</time>
      </trkpt>
      <trkpt lat="47.02086" lon="-1.06257">
        <ele>108</ele>
        <time>2012-05-03T14:43:54Z</time>
      </trkpt>
      <trkpt lat="47.02084" lon="-1.0627">
        <ele>108</ele>
        <time>2012-05-03T14:43:57Z</time>
      </trkpt>
      <trkpt lat="47.02082" lon="-1.06273">
        <ele>108</ele>
        <time>2012-05-03T14:43:57Z</time>
      </trkpt>
      <trkpt lat="47.02079" lon="-1.06274">
        <ele>107</ele>
        <time>2012-05-03T14:43:59Z</time>
      </trkpt>
      <trkpt lat="47.02076" lon="-1.06275">
        <ele>107</ele>
        <time>2012-05-03T14:44:00Z</time>
      </trkpt>
      <trkpt lat="47.02073" lon="-1.06275">
        <ele>107</ele>
        <time>2012-05-03T14:44:01Z</time>
      </trkpt>
      <trkpt lat="47.02068" lon="-1.06275">
        <ele>107</ele>
        <time>2012-05-03T14:44:03Z</time>
      </trkpt>
      <trkpt lat="47.02066" lon="-1.06276">
        <ele>107</ele>
        <time>2012-05-03T14:44:03Z</time>
      </trkpt>
      <trkpt lat="47.02064" lon="-1.06276">
        <ele>107</ele>
        <time>2012-05-03T14:44:04Z</time>
      </trkpt>
      <trkpt lat="47.02064" lon="-1.06275">
        <ele>107</ele>
        <time>2012-05-03T14:44:10Z</time>
      </trkpt>
      <trkpt lat="47.02062" lon="-1.06273">
        <ele>107</ele>
        <time>2012-05-03T14:44:16Z</time>
      </trkpt>
      <trkpt lat="47.02058" lon="-1.06272">
        <ele>107</ele>
        <time>2012-05-03T14:44:19Z</time>
      </trkpt>
      <trkpt lat="47.02056" lon="-1.06272">
        <ele>107</ele>
        <time>2012-05-03T14:44:20Z</time>
      </trkpt>
      <trkpt lat="47.02053" lon="-1.06272">
        <ele>107</ele>
        <time>2012-05-03T14:44:21Z</time>
      </trkpt>
      <trkpt lat="47.02048" lon="-1.06273">
        <ele>107</ele>
        <time>2012-05-03T14:44:23Z</time>
      </trkpt>
      <trkpt lat="47.02045" lon="-1.06273">
        <ele>107</ele>
        <time>2012-05-03T14:44:23Z</time>
      </trkpt>
      <trkpt lat="47.02041" lon="-1.06273">
        <ele>107</ele>
        <time>2012-05-03T14:44:24Z</time>
      </trkpt>
      <trkpt lat="47.02035" lon="-1.0627">
        <ele>107</ele>
        <time>2012-05-03T14:44:27Z</time>
      </trkpt>
      <trkpt lat="47.02034" lon="-1.06267">
        <ele>107</ele>
        <time>2012-05-03T14:44:27Z</time>
      </trkpt>
      <trkpt lat="47.02033" lon="-1.06264">
        <ele>107</ele>
        <time>2012-05-03T14:44:29Z</time>
      </trkpt>
      <trkpt lat="47.02032" lon="-1.06262">
        <ele>107</ele>
        <time>2012-05-03T14:44:29Z</time>
      </trkpt>
      <trkpt lat="47.02032" lon="-1.06261">
        <ele>107</ele>
        <time>2012-05-03T14:44:32Z</time>
      </trkpt>
      <trkpt lat="47.02032" lon="-1.06259">
        <ele>107</ele>
        <time>2012-05-03T14:44:41Z</time>
      </trkpt>
      <trkpt lat="47.0203" lon="-1.06257">
        <ele>108</ele>
        <time>2012-05-03T14:44:45Z</time>
      </trkpt>
    </trkseg>
  </trk>
</gpx>